<?xml version="1.0" encoding="UTF-8" standalone="no" ?>
<gpx xmlns="http://www.topografix.com/GPX/1/1" xmlns:xsi="http://www.w3.org/2001/XMLSchema-instance" xsi:schemaLocation="http://www.topografix.com/GPX/1/1 http://www.topografix.com/GPX/1/1/gpx.xsd" version="1.1" creator="VisuGPX - https://www.visugpx.com">
  <metadata>
    <name>Norvège</name>
  </metadata>
  <trk>
    <name><![CDATA[Tour d'Europe: étape 027]]></name>
    <trkseg>
      <trkpt lat="60.3904" lon="5.32163">
        <ele>79.657499</ele>
        <time>2020-07-25T07:32:09.960Z</time>
      </trkpt>
      <trkpt lat="60.3924" lon="5.32358">
        <ele>88.155806</ele>
        <time>2020-07-25T07:33:12.988Z</time>
      </trkpt>
      <trkpt lat="60.39431" lon="5.32513">
        <ele>73.516732</ele>
        <time>2020-07-25T07:34:23.961Z</time>
      </trkpt>
      <trkpt lat="60.39633" lon="5.32475">
        <ele>59.031814</ele>
        <time>2020-07-25T07:41:43.944Z</time>
      </trkpt>
      <trkpt lat="60.39783" lon="5.32159">
        <ele>53.304354</ele>
        <time>2020-07-25T07:42:23.941Z</time>
      </trkpt>
      <trkpt lat="60.39889" lon="5.31808">
        <ele>58.754379</ele>
        <time>2020-07-25T07:43:05.952Z</time>
      </trkpt>
      <trkpt lat="60.40078" lon="5.31563">
        <ele>66.270677</ele>
        <time>2020-07-25T07:43:47.973Z</time>
      </trkpt>
      <trkpt lat="60.40196" lon="5.31851">
        <ele>62.168376</ele>
        <time>2020-07-25T07:44:27.943Z</time>
      </trkpt>
      <trkpt lat="60.40306" lon="5.3215">
        <ele>60.465287</ele>
        <time>2020-07-25T07:45:07.958Z</time>
      </trkpt>
      <trkpt lat="60.40654" lon="5.32295">
        <ele>67.72305</ele>
        <time>2020-07-25T07:46:24.968Z</time>
      </trkpt>
      <trkpt lat="60.40871" lon="5.32257">
        <ele>59.80971</ele>
        <time>2020-07-25T07:47:05.987Z</time>
      </trkpt>
      <trkpt lat="60.41102" lon="5.32337">
        <ele>55.985559</ele>
        <time>2020-07-25T07:47:54.947Z</time>
      </trkpt>
      <trkpt lat="60.41301" lon="5.32256">
        <ele>65.62492</ele>
        <time>2020-07-25T07:48:39.949Z</time>
      </trkpt>
      <trkpt lat="60.41487" lon="5.3206">
        <ele>84.892632</ele>
        <time>2020-07-25T07:49:54.952Z</time>
      </trkpt>
      <trkpt lat="60.4162" lon="5.31715">
        <ele>84.404628</ele>
        <time>2020-07-25T07:50:52.951Z</time>
      </trkpt>
      <trkpt lat="60.41754" lon="5.3137">
        <ele>85.02839</ele>
        <time>2020-07-25T07:51:59.946Z</time>
      </trkpt>
      <trkpt lat="60.41899" lon="5.3109">
        <ele>89.378152</ele>
        <time>2020-07-25T07:53:12.945Z</time>
      </trkpt>
      <trkpt lat="60.42079" lon="5.30862">
        <ele>95.603033</ele>
        <time>2020-07-25T07:54:07.955Z</time>
      </trkpt>
      <trkpt lat="60.4224" lon="5.30611">
        <ele>106.11095</ele>
        <time>2020-07-25T07:55:37.957Z</time>
      </trkpt>
      <trkpt lat="60.42429" lon="5.30377">
        <ele>109.231514</ele>
        <time>2020-07-25T07:59:32.980Z</time>
      </trkpt>
      <trkpt lat="60.4259" lon="5.29962">
        <ele>97.649189</ele>
        <time>2020-07-25T08:00:15.954Z</time>
      </trkpt>
      <trkpt lat="60.42746" lon="5.29668">
        <ele>104.176947</ele>
        <time>2020-07-25T08:01:15.964Z</time>
      </trkpt>
      <trkpt lat="60.42846" lon="5.29248">
        <ele>107.992344</ele>
        <time>2020-07-25T08:02:16.960Z</time>
      </trkpt>
      <trkpt lat="60.43011" lon="5.28969">
        <ele>106.713325</ele>
        <time>2020-07-25T08:03:25.983Z</time>
      </trkpt>
      <trkpt lat="60.43156" lon="5.2865">
        <ele>108.588936</ele>
        <time>2020-07-25T08:04:20.975Z</time>
      </trkpt>
      <trkpt lat="60.43378" lon="5.28501">
        <ele>105.049319</ele>
        <time>2020-07-25T08:05:00.966Z</time>
      </trkpt>
      <trkpt lat="60.43584" lon="5.28587">
        <ele>103.590784</ele>
        <time>2020-07-25T08:05:40.970Z</time>
      </trkpt>
      <trkpt lat="60.43813" lon="5.28645">
        <ele>97.757904</ele>
        <time>2020-07-25T08:06:22.987Z</time>
      </trkpt>
      <trkpt lat="60.44037" lon="5.28411">
        <ele>98.445077</ele>
        <time>2020-07-25T08:07:02.966Z</time>
      </trkpt>
      <trkpt lat="60.44231" lon="5.2827">
        <ele>101.914249</ele>
        <time>2020-07-25T08:07:42.994Z</time>
      </trkpt>
      <trkpt lat="60.44438" lon="5.28141">
        <ele>100.646035</ele>
        <time>2020-07-25T08:08:28.974Z</time>
      </trkpt>
      <trkpt lat="60.44506" lon="5.28512">
        <ele>102.183986</ele>
        <time>2020-07-25T08:09:21.002Z</time>
      </trkpt>
      <trkpt lat="60.44413" lon="5.29052">
        <ele>90.862473</ele>
        <time>2020-07-25T08:10:02.966Z</time>
      </trkpt>
      <trkpt lat="60.443" lon="5.29441">
        <ele>86.772645</ele>
        <time>2020-07-25T08:10:42.963Z</time>
      </trkpt>
      <trkpt lat="60.44158" lon="5.2974">
        <ele>89.870387</ele>
        <time>2020-07-25T08:11:22.975Z</time>
      </trkpt>
      <trkpt lat="60.44036" lon="5.30083">
        <ele>89.078656</ele>
        <time>2020-07-25T08:12:03.956Z</time>
      </trkpt>
      <trkpt lat="60.43886" lon="5.30395">
        <ele>86.934762</ele>
        <time>2020-07-25T08:12:50.984Z</time>
      </trkpt>
      <trkpt lat="60.43793" lon="5.30801">
        <ele>75.341478</ele>
        <time>2020-07-25T08:13:30.954Z</time>
      </trkpt>
      <trkpt lat="60.43666" lon="5.31173">
        <ele>69.899673</ele>
        <time>2020-07-25T08:14:10.997Z</time>
      </trkpt>
      <trkpt lat="60.4365" lon="5.31598">
        <ele>64.457982</ele>
        <time>2020-07-25T08:14:50.987Z</time>
      </trkpt>
      <trkpt lat="60.4365" lon="5.32019">
        <ele>68.112227</ele>
        <time>2020-07-25T08:15:45.972Z</time>
      </trkpt>
      <trkpt lat="60.43828" lon="5.32211">
        <ele>81.978426</ele>
        <time>2020-07-25T08:17:11.955Z</time>
      </trkpt>
      <trkpt lat="60.44022" lon="5.32313">
        <ele>86.234437</ele>
        <time>2020-07-25T08:18:33.949Z</time>
      </trkpt>
      <trkpt lat="60.44223" lon="5.32268">
        <ele>91.776012</ele>
        <time>2020-07-25T08:19:55.972Z</time>
      </trkpt>
      <trkpt lat="60.44309" lon="5.3241">
        <ele>98.670565</ele>
        <time>2020-07-25T08:21:05.975Z</time>
      </trkpt>
      <trkpt lat="60.44368" lon="5.32633">
        <ele>107.548559</ele>
        <time>2020-07-25T08:22:33.954Z</time>
      </trkpt>
      <trkpt lat="60.4455" lon="5.32478">
        <ele>108.01749</ele>
        <time>2020-07-25T08:23:38.974Z</time>
      </trkpt>
      <trkpt lat="60.44752" lon="5.3223">
        <ele>107.120866</ele>
        <time>2020-07-25T08:24:31.964Z</time>
      </trkpt>
      <trkpt lat="60.44953" lon="5.31972">
        <ele>105.354566</ele>
        <time>2020-07-25T08:25:18.961Z</time>
      </trkpt>
      <trkpt lat="60.45162" lon="5.31856">
        <ele>110.923749</ele>
        <time>2020-07-25T08:26:19.967Z</time>
      </trkpt>
      <trkpt lat="60.45375" lon="5.31777">
        <ele>124.052281</ele>
        <time>2020-07-25T08:27:31.952Z</time>
      </trkpt>
      <trkpt lat="60.45575" lon="5.31837">
        <ele>132.778515</ele>
        <time>2020-07-25T08:29:10.986Z</time>
      </trkpt>
      <trkpt lat="60.45513" lon="5.3151">
        <ele>146.082137</ele>
        <time>2020-07-25T08:31:03.992Z</time>
      </trkpt>
      <trkpt lat="60.45649" lon="5.31062">
        <ele>144.687807</ele>
        <time>2020-07-25T08:31:55.967Z</time>
      </trkpt>
      <trkpt lat="60.45695" lon="5.30588">
        <ele>135.929174</ele>
        <time>2020-07-25T08:32:37.983Z</time>
      </trkpt>
      <trkpt lat="60.45654" lon="5.30188">
        <ele>127.570955</ele>
        <time>2020-07-25T08:32:57.958Z</time>
      </trkpt>
      <trkpt lat="60.45488" lon="5.29858">
        <ele>114.369823</ele>
        <time>2020-07-25T08:33:24.968Z</time>
      </trkpt>
      <trkpt lat="60.45587" lon="5.29408">
        <ele>97.671665</ele>
        <time>2020-07-25T08:33:45.958Z</time>
      </trkpt>
      <trkpt lat="60.45692" lon="5.29001">
        <ele>83.788811</ele>
        <time>2020-07-25T08:34:05.969Z</time>
      </trkpt>
      <trkpt lat="60.45892" lon="5.28785">
        <ele>81.475459</ele>
        <time>2020-07-25T08:34:45.006Z</time>
      </trkpt>
      <trkpt lat="60.45995" lon="5.28423">
        <ele>89.770691</ele>
        <time>2020-07-25T08:35:46.986Z</time>
      </trkpt>
      <trkpt lat="60.46214" lon="5.28115">
        <ele>85.031136</ele>
        <time>2020-07-25T08:36:37.993Z</time>
      </trkpt>
      <trkpt lat="60.46413" lon="5.27828">
        <ele>75.539869</ele>
        <time>2020-07-25T08:37:14.957Z</time>
      </trkpt>
      <trkpt lat="60.46637" lon="5.27672">
        <ele>70.101861</ele>
        <time>2020-07-25T08:38:00.979Z</time>
      </trkpt>
      <trkpt lat="60.46832" lon="5.27759">
        <ele>80.385996</ele>
        <time>2020-07-25T08:39:04.996Z</time>
      </trkpt>
      <trkpt lat="60.46995" lon="5.27507">
        <ele>98.638247</ele>
        <time>2020-07-25T08:41:16.991Z</time>
      </trkpt>
      <trkpt lat="60.47163" lon="5.27288">
        <ele>108.514388</ele>
        <time>2020-07-25T08:44:05.964Z</time>
      </trkpt>
      <trkpt lat="60.47299" lon="5.27007">
        <ele>126.013821</ele>
        <time>2020-07-25T08:46:11.957Z</time>
      </trkpt>
      <trkpt lat="60.4743" lon="5.26638">
        <ele>126.660632</ele>
        <time>2020-07-25T08:47:26.009Z</time>
      </trkpt>
      <trkpt lat="60.47611" lon="5.26273">
        <ele>110.677206</ele>
        <time>2020-07-25T08:47:46.979Z</time>
      </trkpt>
      <trkpt lat="60.47778" lon="5.25963">
        <ele>104.301661</ele>
        <time>2020-07-25T08:48:25.996Z</time>
      </trkpt>
      <trkpt lat="60.47984" lon="5.25849">
        <ele>104.442463</ele>
        <time>2020-07-25T08:49:18.968Z</time>
      </trkpt>
      <trkpt lat="60.48179" lon="5.2573">
        <ele>102.432881</ele>
        <time>2020-07-25T08:49:53.977Z</time>
      </trkpt>
      <trkpt lat="60.48394" lon="5.25959">
        <ele>93.736395</ele>
        <time>2020-07-25T08:51:55.965Z</time>
      </trkpt>
      <trkpt lat="60.4866" lon="5.25936">
        <ele>78.734613</ele>
        <time>2020-07-25T08:52:41.004Z</time>
      </trkpt>
      <trkpt lat="60.48907" lon="5.26078">
        <ele>72.277025</ele>
        <time>2020-07-25T08:53:22.992Z</time>
      </trkpt>
      <trkpt lat="60.49081" lon="5.26175">
        <ele>88.132832</ele>
        <time>2020-07-25T08:57:35.963Z</time>
      </trkpt>
      <trkpt lat="60.49017" lon="5.26552">
        <ele>105.744512</ele>
        <time>2020-07-25T08:59:22.972Z</time>
      </trkpt>
      <trkpt lat="60.4908" lon="5.26704">
        <ele>101.453769</ele>
        <time>2020-07-25T09:00:42.978Z</time>
      </trkpt>
      <trkpt lat="60.49225" lon="5.26406">
        <ele>101.579219</ele>
        <time>2020-07-25T09:01:43.972Z</time>
      </trkpt>
      <trkpt lat="60.49333" lon="5.26258">
        <ele>106.7345</ele>
        <time>2020-07-25T09:03:46.001Z</time>
      </trkpt>
      <trkpt lat="60.49527" lon="5.26236">
        <ele>109.01089</ele>
        <time>2020-07-25T09:05:15.992Z</time>
      </trkpt>
      <trkpt lat="60.49734" lon="5.26304">
        <ele>116.410647</ele>
        <time>2020-07-25T09:06:42.966Z</time>
      </trkpt>
      <trkpt lat="60.49944" lon="5.26406">
        <ele>123.492108</ele>
        <time>2020-07-25T09:07:54.985Z</time>
      </trkpt>
      <trkpt lat="60.50168" lon="5.26389">
        <ele>110.833675</ele>
        <time>2020-07-25T09:08:34.983Z</time>
      </trkpt>
      <trkpt lat="60.50425" lon="5.26547">
        <ele>88.897631</ele>
        <time>2020-07-25T09:09:14.987Z</time>
      </trkpt>
      <trkpt lat="60.50604" lon="5.26852">
        <ele>69.671307</ele>
        <time>2020-07-25T09:09:58.991Z</time>
      </trkpt>
      <trkpt lat="60.50727" lon="5.27165">
        <ele>86.630199</ele>
        <time>2020-07-25T09:13:26.962Z</time>
      </trkpt>
      <trkpt lat="60.50816" lon="5.27416">
        <ele>103.715083</ele>
        <time>2020-07-25T09:15:47.979Z</time>
      </trkpt>
      <trkpt lat="60.51035" lon="5.27524">
        <ele>105.587315</ele>
        <time>2020-07-25T09:17:10.969Z</time>
      </trkpt>
      <trkpt lat="60.51224" lon="5.27697">
        <ele>110.577426</ele>
        <time>2020-07-25T09:18:28.973Z</time>
      </trkpt>
      <trkpt lat="60.51415" lon="5.28033">
        <ele>111.996211</ele>
        <time>2020-07-25T09:19:26.011Z</time>
      </trkpt>
      <trkpt lat="60.51592" lon="5.28251">
        <ele>90.98476</ele>
        <time>2020-07-25T09:20:05.963Z</time>
      </trkpt>
      <trkpt lat="60.51672" lon="5.28401">
        <ele>74.203775</ele>
        <time>2020-07-25T09:23:03.007Z</time>
      </trkpt>
      <trkpt lat="60.51817" lon="5.28049">
        <ele>67.546482</ele>
        <time>2020-07-25T09:23:36.962Z</time>
      </trkpt>
      <trkpt lat="60.51923" lon="5.27666">
        <ele>68.034364</ele>
        <time>2020-07-25T09:25:12.974Z</time>
      </trkpt>
      <trkpt lat="60.51943" lon="5.27507">
        <ele>76.529304</ele>
        <time>2020-07-25T09:26:44.985Z</time>
      </trkpt>
      <trkpt lat="60.52061" lon="5.2718">
        <ele>80.351502</ele>
        <time>2020-07-25T09:28:01.977Z</time>
      </trkpt>
      <trkpt lat="60.52223" lon="5.26759">
        <ele>62.973887</ele>
        <time>2020-07-25T09:28:45.964Z</time>
      </trkpt>
      <trkpt lat="60.52436" lon="5.26364">
        <ele>52.814677</ele>
        <time>2020-07-25T09:29:28.004Z</time>
      </trkpt>
      <trkpt lat="60.52605" lon="5.26141">
        <ele>56.932235</ele>
        <time>2020-07-25T09:30:07.972Z</time>
      </trkpt>
      <trkpt lat="60.52783" lon="5.25972">
        <ele>58.802111</ele>
        <time>2020-07-25T09:30:49.004Z</time>
      </trkpt>
      <trkpt lat="60.52973" lon="5.25844">
        <ele>56.754934</ele>
        <time>2020-07-25T09:31:29.005Z</time>
      </trkpt>
      <trkpt lat="60.53181" lon="5.25673">
        <ele>57.282181</ele>
        <time>2020-07-25T09:32:16.984Z</time>
      </trkpt>
      <trkpt lat="60.53294" lon="5.25714">
        <ele>58.317047</ele>
        <time>2020-07-25T09:34:22.004Z</time>
      </trkpt>
      <trkpt lat="60.5347" lon="5.25889">
        <ele>69.031031</ele>
        <time>2020-07-25T09:36:06.995Z</time>
      </trkpt>
      <trkpt lat="60.53668" lon="5.2584">
        <ele>78.834141</ele>
        <time>2020-07-25T09:37:45.969Z</time>
      </trkpt>
      <trkpt lat="60.53884" lon="5.25978">
        <ele>77.096679</ele>
        <time>2020-07-25T09:38:39.003Z</time>
      </trkpt>
      <trkpt lat="60.54071" lon="5.26137">
        <ele>84.841834</ele>
        <time>2020-07-25T09:39:59.984Z</time>
      </trkpt>
      <trkpt lat="60.54217" lon="5.264">
        <ele>89.541252</ele>
        <time>2020-07-25T09:41:28.995Z</time>
      </trkpt>
      <trkpt lat="60.54222" lon="5.26857">
        <ele>92.816392</ele>
        <time>2020-07-25T09:42:21.985Z</time>
      </trkpt>
      <trkpt lat="60.54305" lon="5.27226">
        <ele>100.499606</ele>
        <time>2020-07-25T09:44:01.978Z</time>
      </trkpt>
      <trkpt lat="60.544" lon="5.27655">
        <ele>95.351022</ele>
        <time>2020-07-25T09:46:21.991Z</time>
      </trkpt>
      <trkpt lat="60.54502" lon="5.28136">
        <ele>82.729947</ele>
        <time>2020-07-25T09:47:06.994Z</time>
      </trkpt>
      <trkpt lat="60.54635" lon="5.2806">
        <ele>85.91822</ele>
        <time>2020-07-25T09:49:14.988Z</time>
      </trkpt>
      <trkpt lat="60.5483" lon="5.281">
        <ele>104.256482</ele>
        <time>2020-07-25T09:51:15.005Z</time>
      </trkpt>
      <trkpt lat="60.55036" lon="5.28005">
        <ele>115.844603</ele>
        <time>2020-07-25T09:53:11.988Z</time>
      </trkpt>
      <trkpt lat="60.55219" lon="5.27731">
        <ele>93.747764</ele>
        <time>2020-07-25T09:53:52.019Z</time>
      </trkpt>
      <trkpt lat="60.55338" lon="5.27343">
        <ele>64.798934</ele>
        <time>2020-07-25T09:54:21.969Z</time>
      </trkpt>
      <trkpt lat="60.55508" lon="5.2701">
        <ele>58.194542</ele>
        <time>2020-07-25T09:55:11.988Z</time>
      </trkpt>
      <trkpt lat="60.55498" lon="5.26618">
        <ele>76.336029</ele>
        <time>2020-07-25T09:57:08.966Z</time>
      </trkpt>
      <trkpt lat="60.55644" lon="5.26365">
        <ele>93.290465</ele>
        <time>2020-07-25T09:59:25.963Z</time>
      </trkpt>
      <trkpt lat="60.55804" lon="5.26166">
        <ele>107.697352</ele>
        <time>2020-07-25T10:01:38.971Z</time>
      </trkpt>
      <trkpt lat="60.55937" lon="5.25794">
        <ele>111.288237</ele>
        <time>2020-07-25T10:13:12.981Z</time>
      </trkpt>
      <trkpt lat="60.56072" lon="5.25396">
        <ele>108.400254</ele>
        <time>2020-07-25T10:14:05.015Z</time>
      </trkpt>
      <trkpt lat="60.56195" lon="5.25061">
        <ele>108.395833</ele>
        <time>2020-07-25T10:15:05.974Z</time>
      </trkpt>
      <trkpt lat="60.5627" lon="5.25088">
        <ele>108.858191</ele>
        <time>2020-07-25T10:16:46.006Z</time>
      </trkpt>
      <trkpt lat="60.56418" lon="5.24867">
        <ele>115.951932</ele>
        <time>2020-07-25T10:18:14.992Z</time>
      </trkpt>
      <trkpt lat="60.56589" lon="5.24545">
        <ele>120.847947</ele>
        <time>2020-07-25T10:19:06.014Z</time>
      </trkpt>
      <trkpt lat="60.56699" lon="5.24177">
        <ele>127.989001</ele>
        <time>2020-07-25T10:28:41.978Z</time>
      </trkpt>
      <trkpt lat="60.56869" lon="5.23831">
        <ele>119.013122</ele>
        <time>2020-07-25T10:29:37.984Z</time>
      </trkpt>
      <trkpt lat="60.57084" lon="5.23496">
        <ele>94.065535</ele>
        <time>2020-07-25T10:30:20.980Z</time>
      </trkpt>
      <trkpt lat="60.57116" lon="5.23314">
        <ele>86.630609</ele>
        <time>2020-07-25T10:31:32.015Z</time>
      </trkpt>
      <trkpt lat="60.57103" lon="5.22874">
        <ele>77.703321</ele>
        <time>2020-07-25T10:36:32.004Z</time>
      </trkpt>
      <trkpt lat="60.57192" lon="5.22558">
        <ele>81.835513</ele>
        <time>2020-07-25T10:37:21.021Z</time>
      </trkpt>
      <trkpt lat="60.57373" lon="5.22375">
        <ele>86.967077</ele>
        <time>2020-07-25T10:38:49.986Z</time>
      </trkpt>
      <trkpt lat="60.57568" lon="5.22171">
        <ele>78.717739</ele>
        <time>2020-07-25T10:39:20.994Z</time>
      </trkpt>
      <trkpt lat="60.57803" lon="5.21874">
        <ele>73.873774</ele>
        <time>2020-07-25T10:39:54.985Z</time>
      </trkpt>
      <trkpt lat="60.58023" lon="5.21593">
        <ele>70.750077</ele>
        <time>2020-07-25T10:40:29.974Z</time>
      </trkpt>
      <trkpt lat="60.58208" lon="5.21291">
        <ele>80.223042</ele>
        <time>2020-07-25T10:41:22.003Z</time>
      </trkpt>
      <trkpt lat="60.58379" lon="5.21049">
        <ele>91.640506</ele>
        <time>2020-07-25T10:42:37.994Z</time>
      </trkpt>
      <trkpt lat="60.5857" lon="5.20805">
        <ele>89.161766</ele>
        <time>2020-07-25T10:43:35.986Z</time>
      </trkpt>
      <trkpt lat="60.58807" lon="5.20718">
        <ele>74.481553</ele>
        <time>2020-07-25T10:44:03.042Z</time>
      </trkpt>
      <trkpt lat="60.59073" lon="5.20602">
        <ele>68.03297</ele>
        <time>2020-07-25T10:44:41.976Z</time>
      </trkpt>
      <trkpt lat="60.5928" lon="5.20547">
        <ele>72.650463</ele>
        <time>2020-07-25T10:45:38.979Z</time>
      </trkpt>
      <trkpt lat="60.59492" lon="5.20445">
        <ele>83.352655</ele>
        <time>2020-07-25T10:46:44.004Z</time>
      </trkpt>
      <trkpt lat="60.59694" lon="5.20323">
        <ele>89.558846</ele>
        <time>2020-07-25T10:47:49.995Z</time>
      </trkpt>
      <trkpt lat="60.59898" lon="5.2021">
        <ele>89.648221</ele>
        <time>2020-07-25T10:48:43.992Z</time>
      </trkpt>
      <trkpt lat="60.60088" lon="5.19989">
        <ele>89.240067</ele>
        <time>2020-07-25T10:49:34.994Z</time>
      </trkpt>
      <trkpt lat="60.60276" lon="5.1968">
        <ele>90.382352</ele>
        <time>2020-07-25T10:50:29.976Z</time>
      </trkpt>
      <trkpt lat="60.60457" lon="5.19504">
        <ele>90.666243</ele>
        <time>2020-07-25T10:51:12.976Z</time>
      </trkpt>
      <trkpt lat="60.6063" lon="5.19311">
        <ele>89.978999</ele>
        <time>2020-07-25T10:51:52.982Z</time>
      </trkpt>
      <trkpt lat="60.60759" lon="5.18995">
        <ele>87.275604</ele>
        <time>2020-07-25T10:52:41.004Z</time>
      </trkpt>
      <trkpt lat="60.60833" lon="5.18666">
        <ele>84.420007</ele>
        <time>2020-07-25T10:53:21.990Z</time>
      </trkpt>
      <trkpt lat="60.61052" lon="5.18652">
        <ele>90.675269</ele>
        <time>2020-07-25T10:54:26.027Z</time>
      </trkpt>
      <trkpt lat="60.61265" lon="5.18624">
        <ele>103.352055</ele>
        <time>2020-07-25T10:55:43.979Z</time>
      </trkpt>
      <trkpt lat="60.61429" lon="5.1837">
        <ele>107.32974</ele>
        <time>2020-07-25T10:56:53.065Z</time>
      </trkpt>
      <trkpt lat="60.61577" lon="5.18065">
        <ele>104.433916</ele>
        <time>2020-07-25T10:57:49.988Z</time>
      </trkpt>
      <trkpt lat="60.61759" lon="5.17696">
        <ele>104.468572</ele>
        <time>2020-07-25T10:58:36.976Z</time>
      </trkpt>
      <trkpt lat="60.61923" lon="5.17357">
        <ele>101.601847</ele>
        <time>2020-07-25T10:59:25.976Z</time>
      </trkpt>
      <trkpt lat="60.62075" lon="5.17009">
        <ele>97.734913</ele>
        <time>2020-07-25T11:00:05.985Z</time>
      </trkpt>
      <trkpt lat="60.62199" lon="5.16646">
        <ele>101.353924</ele>
        <time>2020-07-25T11:00:54.027Z</time>
      </trkpt>
      <trkpt lat="60.62372" lon="5.16344">
        <ele>113.944028</ele>
        <time>2020-07-25T11:01:54.975Z</time>
      </trkpt>
      <trkpt lat="60.62551" lon="5.16133">
        <ele>116.403575</ele>
        <time>2020-07-25T11:03:07.993Z</time>
      </trkpt>
      <trkpt lat="60.62771" lon="5.15914">
        <ele>108.127257</ele>
        <time>2020-07-25T11:03:47.994Z</time>
      </trkpt>
      <trkpt lat="60.6296" lon="5.15678">
        <ele>106.64017</ele>
        <time>2020-07-25T11:04:36.980Z</time>
      </trkpt>
      <trkpt lat="60.63162" lon="5.15315">
        <ele>102.538816</ele>
        <time>2020-07-25T11:05:21.004Z</time>
      </trkpt>
      <trkpt lat="60.63315" lon="5.14969">
        <ele>102.199139</ele>
        <time>2020-07-25T11:06:01.003Z</time>
      </trkpt>
      <trkpt lat="60.63402" lon="5.1452">
        <ele>105.643032</ele>
        <time>2020-07-25T11:06:58.971Z</time>
      </trkpt>
      <trkpt lat="60.63355" lon="5.14159">
        <ele>115.689947</ele>
        <time>2020-07-25T11:08:31.015Z</time>
      </trkpt>
      <trkpt lat="60.63255" lon="5.13814">
        <ele>119.881893</ele>
        <time>2020-07-25T11:09:39.984Z</time>
      </trkpt>
      <trkpt lat="60.63289" lon="5.13267">
        <ele>105.01831</ele>
        <time>2020-07-25T11:10:13.980Z</time>
      </trkpt>
      <trkpt lat="60.63248" lon="5.1285">
        <ele>104.362139</ele>
        <time>2020-07-25T11:10:55.025Z</time>
      </trkpt>
      <trkpt lat="60.63402" lon="5.1256">
        <ele>104.219657</ele>
        <time>2020-07-25T11:11:42.977Z</time>
      </trkpt>
      <trkpt lat="60.63566" lon="5.12151">
        <ele>93.947407</ele>
        <time>2020-07-25T11:12:17.972Z</time>
      </trkpt>
      <trkpt lat="60.6349" lon="5.11961">
        <ele>79.283336</ele>
        <time>2020-07-25T11:12:42.987Z</time>
      </trkpt>
      <trkpt lat="60.63637" lon="5.11692">
        <ele>87.463755</ele>
        <time>2020-07-25T11:14:14.986Z</time>
      </trkpt>
      <trkpt lat="60.6348" lon="5.11504">
        <ele>92.94628</ele>
        <time>2020-07-25T11:15:59.000Z</time>
      </trkpt>
      <trkpt lat="60.63611" lon="5.1112">
        <ele>94.214209</ele>
        <time>2020-07-25T11:16:48.007Z</time>
      </trkpt>
      <trkpt lat="60.6353" lon="5.1076">
        <ele>89.701842</ele>
        <time>2020-07-25T11:17:41.985Z</time>
      </trkpt>
      <trkpt lat="60.63474" lon="5.10312">
        <ele>77.914961</ele>
        <time>2020-07-25T11:18:06.980Z</time>
      </trkpt>
      <trkpt lat="60.63452" lon="5.09907">
        <ele>68.85335</ele>
        <time>2020-07-25T11:18:42.997Z</time>
      </trkpt>
      <trkpt lat="60.63255" lon="5.09975">
        <ele>90.878445</ele>
        <time>2020-07-25T11:20:32.999Z</time>
      </trkpt>
      <trkpt lat="60.63053" lon="5.10038">
        <ele>106.928635</ele>
        <time>2020-07-25T11:22:51.984Z</time>
      </trkpt>
      <trkpt lat="60.62858" lon="5.10108">
        <ele>112.34458</ele>
        <time>2020-07-25T11:24:42.992Z</time>
      </trkpt>
      <trkpt lat="60.6269" lon="5.09953">
        <ele>111.791897</ele>
        <time>2020-07-25T11:25:38.978Z</time>
      </trkpt>
      <trkpt lat="60.62763" lon="5.09447">
        <ele>105.403986</ele>
        <time>2020-07-25T11:26:18.988Z</time>
      </trkpt>
      <trkpt lat="60.62794" lon="5.08977">
        <ele>94.835885</ele>
        <time>2020-07-25T11:27:01.002Z</time>
      </trkpt>
      <trkpt lat="60.6279" lon="5.08524">
        <ele>88.096484</ele>
        <time>2020-07-25T11:27:24.987Z</time>
      </trkpt>
      <trkpt lat="60.62939" lon="5.0812">
        <ele>80.518126</ele>
        <time>2020-07-25T11:27:58.012Z</time>
      </trkpt>
      <trkpt lat="60.63018" lon="5.07617">
        <ele>73.47983</ele>
        <time>2020-07-25T11:28:31.017Z</time>
      </trkpt>
      <trkpt lat="60.63141" lon="5.07293">
        <ele>78.375447</ele>
        <time>2020-07-25T11:29:45.974Z</time>
      </trkpt>
      <trkpt lat="60.63283" lon="5.06924">
        <ele>83.466269</ele>
        <time>2020-07-25T11:31:00.004Z</time>
      </trkpt>
      <trkpt lat="60.63473" lon="5.06639">
        <ele>78.046708</ele>
        <time>2020-07-25T11:31:53.007Z</time>
      </trkpt>
      <trkpt lat="60.63642" lon="5.06354">
        <ele>79.193519</ele>
        <time>2020-07-25T11:32:47.022Z</time>
      </trkpt>
      <trkpt lat="60.63808" lon="5.06077">
        <ele>80.884598</ele>
        <time>2020-07-25T11:33:36.004Z</time>
      </trkpt>
      <trkpt lat="60.63953" lon="5.05718">
        <ele>82.065448</ele>
        <time>2020-07-25T11:34:37.022Z</time>
      </trkpt>
      <trkpt lat="60.64004" lon="5.05269">
        <ele>81.243914</ele>
        <time>2020-07-25T11:35:28.986Z</time>
      </trkpt>
      <trkpt lat="60.64005" lon="5.04781">
        <ele>77.004021</ele>
        <time>2020-07-25T11:36:17.987Z</time>
      </trkpt>
      <trkpt lat="60.64073" lon="5.04392">
        <ele>80.003281</ele>
        <time>2020-07-25T11:37:33.989Z</time>
      </trkpt>
      <trkpt lat="60.64221" lon="5.04219">
        <ele>81.812416</ele>
        <time>2020-07-25T11:38:52.974Z</time>
      </trkpt>
      <trkpt lat="60.6446" lon="5.04234">
        <ele>78.163784</ele>
        <time>2020-07-25T11:39:41.975Z</time>
      </trkpt>
      <trkpt lat="60.64696" lon="5.04283">
        <ele>75.310885</ele>
        <time>2020-07-25T11:40:17.981Z</time>
      </trkpt>
      <trkpt lat="60.64854" lon="5.04026">
        <ele>75.158331</ele>
        <time>2020-07-25T11:41:03.013Z</time>
      </trkpt>
      <trkpt lat="60.65033" lon="5.03756">
        <ele>76.075276</ele>
        <time>2020-07-25T11:42:01.002Z</time>
      </trkpt>
      <trkpt lat="60.65141" lon="5.03389">
        <ele>80.356078</ele>
        <time>2020-07-25T11:42:57.984Z</time>
      </trkpt>
      <trkpt lat="60.65194" lon="5.02959">
        <ele>80.699538</ele>
        <time>2020-07-25T11:43:53.002Z</time>
      </trkpt>
      <trkpt lat="60.65246" lon="5.02536">
        <ele>79.067859</ele>
        <time>2020-07-25T11:44:32.996Z</time>
      </trkpt>
      <trkpt lat="60.65324" lon="5.02108">
        <ele>77.731893</ele>
        <time>2020-07-25T11:45:16.993Z</time>
      </trkpt>
      <trkpt lat="60.65396" lon="5.017">
        <ele>75.224199</ele>
        <time>2020-07-25T11:46:00.003Z</time>
      </trkpt>
      <trkpt lat="60.65524" lon="5.01346">
        <ele>73.622149</ele>
        <time>2020-07-25T11:46:46.005Z</time>
      </trkpt>
      <trkpt lat="60.65609" lon="5.00874">
        <ele>68.650201</ele>
        <time>2020-07-25T11:47:26.984Z</time>
      </trkpt>
      <trkpt lat="60.65623" lon="5.00413">
        <ele>62.351519</ele>
        <time>2020-07-25T11:48:04.995Z</time>
      </trkpt>
      <trkpt lat="60.65782" lon="5.00054">
        <ele>63.697985</ele>
        <time>2020-07-25T11:49:00.979Z</time>
      </trkpt>
      <trkpt lat="60.6592" lon="4.99734">
        <ele>65.84212</ele>
        <time>2020-07-25T11:49:44.987Z</time>
      </trkpt>
      <trkpt lat="60.66045" lon="4.9939">
        <ele>71.599378</ele>
        <time>2020-07-25T11:50:48.008Z</time>
      </trkpt>
      <trkpt lat="60.66159" lon="4.99041">
        <ele>76.701576</ele>
        <time>2020-07-25T11:52:05.993Z</time>
      </trkpt>
      <trkpt lat="60.66226" lon="4.98628">
        <ele>81.455536</ele>
        <time>2020-07-25T11:53:28.033Z</time>
      </trkpt>
      <trkpt lat="60.66336" lon="4.98202">
        <ele>76.426475</ele>
        <time>2020-07-25T11:54:10.986Z</time>
      </trkpt>
      <trkpt lat="60.66475" lon="4.97863">
        <ele>72.630815</ele>
        <time>2020-07-25T11:54:52.027Z</time>
      </trkpt>
      <trkpt lat="60.66664" lon="4.97601">
        <ele>74.952252</ele>
        <time>2020-07-25T11:55:49.000Z</time>
      </trkpt>
      <trkpt lat="60.66843" lon="4.97323">
        <ele>76.614194</ele>
        <time>2020-07-25T11:56:51.985Z</time>
      </trkpt>
      <trkpt lat="60.67055" lon="4.97005">
        <ele>71.218796</ele>
        <time>2020-07-25T11:57:33.981Z</time>
      </trkpt>
      <trkpt lat="60.67231" lon="4.96602">
        <ele>63.892766</ele>
        <time>2020-07-25T11:58:13.981Z</time>
      </trkpt>
      <trkpt lat="60.67441" lon="4.96263">
        <ele>63.217998</ele>
        <time>2020-07-25T11:58:53.982Z</time>
      </trkpt>
      <trkpt lat="60.67661" lon="4.95771">
        <ele>53.982486</ele>
        <time>2020-07-25T11:59:35.987Z</time>
      </trkpt>
      <trkpt lat="60.67825" lon="4.95389">
        <ele>48.733094</ele>
        <time>2020-07-25T12:00:16.054Z</time>
      </trkpt>
      <trkpt lat="60.67971" lon="4.95023">
        <ele>47.835864</ele>
        <time>2020-07-25T12:00:56.014Z</time>
      </trkpt>
      <trkpt lat="60.68139" lon="4.94805">
        <ele>57.618758</ele>
        <time>2020-07-25T12:02:19.029Z</time>
      </trkpt>
      <trkpt lat="60.68347" lon="4.94532">
        <ele>60.203676</ele>
        <time>2020-07-25T12:03:16.031Z</time>
      </trkpt>
      <trkpt lat="60.6846" lon="4.94209">
        <ele>61.364721</ele>
        <time>2020-07-25T12:04:30.998Z</time>
      </trkpt>
      <trkpt lat="60.68598" lon="4.93903">
        <ele>63.79551</ele>
        <time>2020-07-25T12:05:31.020Z</time>
      </trkpt>
      <trkpt lat="60.68836" lon="4.9358">
        <ele>56.263845</ele>
        <time>2020-07-25T12:06:14.992Z</time>
      </trkpt>
      <trkpt lat="60.69033" lon="4.93495">
        <ele>60.354171</ele>
        <time>2020-07-25T12:07:24.994Z</time>
      </trkpt>
      <trkpt lat="60.69248" lon="4.93457">
        <ele>70.410959</ele>
        <time>2020-07-25T12:09:01.985Z</time>
      </trkpt>
      <trkpt lat="60.69458" lon="4.93313">
        <ele>69.37489</ele>
        <time>2020-07-25T12:10:01.008Z</time>
      </trkpt>
      <trkpt lat="60.69662" lon="4.93107">
        <ele>66.002464</ele>
        <time>2020-07-25T12:10:41.987Z</time>
      </trkpt>
      <trkpt lat="60.69928" lon="4.92827">
        <ele>60.865517</ele>
        <time>2020-07-25T12:11:21.984Z</time>
      </trkpt>
      <trkpt lat="60.70117" lon="4.93004">
        <ele>63.610911</ele>
        <time>2020-07-25T12:12:26.982Z</time>
      </trkpt>
      <trkpt lat="60.70334" lon="4.93111">
        <ele>58.062831</ele>
        <time>2020-07-25T12:13:05.992Z</time>
      </trkpt>
      <trkpt lat="60.70403" lon="4.93441">
        <ele>62.155397</ele>
        <time>2020-07-25T12:14:38.991Z</time>
      </trkpt>
      <trkpt lat="60.70521" lon="4.93759">
        <ele>63.849915</ele>
        <time>2020-07-25T12:15:55.983Z</time>
      </trkpt>
      <trkpt lat="60.70501" lon="4.94198">
        <ele>72.243024</ele>
        <time>2020-07-25T12:17:28.995Z</time>
      </trkpt>
      <trkpt lat="60.7049" lon="4.94589">
        <ele>76.796601</ele>
        <time>2020-07-25T12:18:56.989Z</time>
      </trkpt>
      <trkpt lat="60.70637" lon="4.94905">
        <ele>81.627396</ele>
        <time>2020-07-25T12:19:50.011Z</time>
      </trkpt>
      <trkpt lat="60.7075" lon="4.95209">
        <ele>86.640931</ele>
        <time>2020-07-25T12:21:30.000Z</time>
      </trkpt>
      <trkpt lat="60.70787" lon="4.95661">
        <ele>79.101755</ele>
        <time>2020-07-25T12:22:23.991Z</time>
      </trkpt>
      <trkpt lat="60.70724" lon="4.96076">
        <ele>70.494097</ele>
        <time>2020-07-25T12:22:46.001Z</time>
      </trkpt>
      <trkpt lat="60.70658" lon="4.96461">
        <ele>72.305369</ele>
        <time>2020-07-25T12:23:58.984Z</time>
      </trkpt>
      <trkpt lat="60.70793" lon="4.96757">
        <ele>74.582746</ele>
        <time>2020-07-25T12:24:44.988Z</time>
      </trkpt>
      <trkpt lat="60.70762" lon="4.97147">
        <ele>81.490817</ele>
        <time>2020-07-25T12:26:42.008Z</time>
      </trkpt>
      <trkpt lat="60.70789" lon="4.97585">
        <ele>84.843967</ele>
        <time>2020-07-25T12:27:58.011Z</time>
      </trkpt>
      <trkpt lat="60.7075" lon="4.98084">
        <ele>78.622459</ele>
        <time>2020-07-25T12:28:31.014Z</time>
      </trkpt>
      <trkpt lat="60.70757" lon="4.98494">
        <ele>77.175476</ele>
        <time>2020-07-25T12:29:28.005Z</time>
      </trkpt>
      <trkpt lat="60.70911" lon="4.98359">
        <ele>81.834597</ele>
        <time>2020-07-25T12:30:46.981Z</time>
      </trkpt>
      <trkpt lat="60.71118" lon="4.98142">
        <ele>73.892269</ele>
        <time>2020-07-25T12:31:42.986Z</time>
      </trkpt>
      <trkpt lat="60.71248" lon="4.98301">
        <ele>52.092072</ele>
        <time>2020-07-25T12:32:27.031Z</time>
      </trkpt>
      <trkpt lat="60.71392" lon="4.9843">
        <ele>53.613611</ele>
        <time>2020-07-25T12:33:43.977Z</time>
      </trkpt>
      <trkpt lat="60.71606" lon="4.98437">
        <ele>59.269993</ele>
        <time>2020-07-25T12:35:07.000Z</time>
      </trkpt>
      <trkpt lat="60.7183" lon="4.98441">
        <ele>62.763147</ele>
        <time>2020-07-25T12:36:13.001Z</time>
      </trkpt>
      <trkpt lat="60.72035" lon="4.98303">
        <ele>64.407474</ele>
        <time>2020-07-25T12:37:14.991Z</time>
      </trkpt>
      <trkpt lat="60.72209" lon="4.98026">
        <ele>65.330742</ele>
        <time>2020-07-25T12:46:59.025Z</time>
      </trkpt>
      <trkpt lat="60.72371" lon="4.97725">
        <ele>71.158173</ele>
        <time>2020-07-25T12:48:10.980Z</time>
      </trkpt>
      <trkpt lat="60.72559" lon="4.97544">
        <ele>80.081362</ele>
        <time>2020-07-25T12:49:37.006Z</time>
      </trkpt>
      <trkpt lat="60.72764" lon="4.97361">
        <ele>74.267626</ele>
        <time>2020-07-25T12:50:32.995Z</time>
      </trkpt>
      <trkpt lat="60.72979" lon="4.97194">
        <ele>74.944255</ele>
        <time>2020-07-25T12:51:36.996Z</time>
      </trkpt>
      <trkpt lat="60.73197" lon="4.97102">
        <ele>71.532611</ele>
        <time>2020-07-25T12:52:37.056Z</time>
      </trkpt>
      <trkpt lat="60.73436" lon="4.96853">
        <ele>58.283837</ele>
        <time>2020-07-25T12:53:21.990Z</time>
      </trkpt>
      <trkpt lat="60.73645" lon="4.96708">
        <ele>60.668067</ele>
        <time>2020-07-25T12:54:08.983Z</time>
      </trkpt>
      <trkpt lat="60.73838" lon="4.96455">
        <ele>68.663401</ele>
        <time>2020-07-25T12:55:06.044Z</time>
      </trkpt>
      <trkpt lat="60.74033" lon="4.96237">
        <ele>71.966029</ele>
        <time>2020-07-25T12:56:05.996Z</time>
      </trkpt>
      <trkpt lat="60.74238" lon="4.95977">
        <ele>75.084214</ele>
        <time>2020-07-25T12:57:05.988Z</time>
      </trkpt>
      <trkpt lat="60.7442" lon="4.95619">
        <ele>75.587213</ele>
        <time>2020-07-25T12:58:07.991Z</time>
      </trkpt>
      <trkpt lat="60.74665" lon="4.95465">
        <ele>69.295136</ele>
        <time>2020-07-25T12:58:47.993Z</time>
      </trkpt>
      <trkpt lat="60.74982" lon="4.95577">
        <ele>55.156336</ele>
        <time>2020-07-25T12:59:27.996Z</time>
      </trkpt>
      <trkpt lat="60.75207" lon="4.95657">
        <ele>53.305736</ele>
        <time>2020-07-25T13:00:09.008Z</time>
      </trkpt>
      <trkpt lat="60.75433" lon="4.95571">
        <ele>69.139586</ele>
        <time>2020-07-25T13:01:09.004Z</time>
      </trkpt>
      <trkpt lat="60.75606" lon="4.9539">
        <ele>78.827103</ele>
        <time>2020-07-25T13:02:29.993Z</time>
      </trkpt>
      <trkpt lat="60.75755" lon="4.95067">
        <ele>79.703094</ele>
        <time>2020-07-25T13:03:34.985Z</time>
      </trkpt>
      <trkpt lat="60.75899" lon="4.94746">
        <ele>77.169283</ele>
        <time>2020-07-25T13:04:22.986Z</time>
      </trkpt>
      <trkpt lat="60.76037" lon="4.9436">
        <ele>76.634855</ele>
        <time>2020-07-25T13:05:16.029Z</time>
      </trkpt>
      <trkpt lat="60.76199" lon="4.94075">
        <ele>78.195496</ele>
        <time>2020-07-25T13:05:58.006Z</time>
      </trkpt>
      <trkpt lat="60.76372" lon="4.93766">
        <ele>78.614538</ele>
        <time>2020-07-25T13:06:38.012Z</time>
      </trkpt>
      <trkpt lat="60.76434" lon="4.93333">
        <ele>74.951842</ele>
        <time>2020-07-25T13:07:36.993Z</time>
      </trkpt>
      <trkpt lat="60.76498" lon="4.92877">
        <ele>73.668311</ele>
        <time>2020-07-25T13:08:35.987Z</time>
      </trkpt>
      <trkpt lat="60.76487" lon="4.9239">
        <ele>65.193223</ele>
        <time>2020-07-25T13:09:15.994Z</time>
      </trkpt>
      <trkpt lat="60.7641" lon="4.91943">
        <ele>66.227148</ele>
        <time>2020-07-25T13:09:56.001Z</time>
      </trkpt>
      <trkpt lat="60.76456" lon="4.91514">
        <ele>66.250075</ele>
        <time>2020-07-25T13:10:47.037Z</time>
      </trkpt>
      <trkpt lat="60.767" lon="4.91536">
        <ele>58.063103</ele>
        <time>2020-07-25T13:11:31.991Z</time>
      </trkpt>
      <trkpt lat="60.76888" lon="4.9183">
        <ele>55.662578</ele>
        <time>2020-07-25T13:12:20.995Z</time>
      </trkpt>
      <trkpt lat="60.77054" lon="4.92069">
        <ele>61.808026</ele>
        <time>2020-07-25T13:13:20.990Z</time>
      </trkpt>
      <trkpt lat="60.77244" lon="4.92172">
        <ele>64.247581</ele>
        <time>2020-07-25T13:14:20.996Z</time>
      </trkpt>
      <trkpt lat="60.77418" lon="4.92389">
        <ele>66.572711</ele>
        <time>2020-07-25T13:15:19.039Z</time>
      </trkpt>
      <trkpt lat="60.77585" lon="4.92681">
        <ele>70.346613</ele>
        <time>2020-07-25T13:16:18.008Z</time>
      </trkpt>
      <trkpt lat="60.77673" lon="4.93098">
        <ele>75.407015</ele>
        <time>2020-07-25T13:17:10.993Z</time>
      </trkpt>
      <trkpt lat="60.77818" lon="4.9326">
        <ele>72.816686</ele>
        <time>2020-07-25T13:17:55.987Z</time>
      </trkpt>
      <trkpt lat="60.78042" lon="4.93296">
        <ele>74.147662</ele>
        <time>2020-07-25T13:19:35.997Z</time>
      </trkpt>
      <trkpt lat="60.78267" lon="4.93307">
        <ele>72.30664</ele>
        <time>2020-07-25T13:20:45.013Z</time>
      </trkpt>
      <trkpt lat="60.78515" lon="4.93497">
        <ele>66.808741</ele>
        <time>2020-07-25T13:21:25.013Z</time>
      </trkpt>
      <trkpt lat="60.78697" lon="4.93341">
        <ele>64.830108</ele>
        <time>2020-07-25T13:22:19.187Z</time>
      </trkpt>
      <trkpt lat="60.78867" lon="4.92948">
        <ele>60.047458</ele>
        <time>2020-07-25T13:23:03.980Z</time>
      </trkpt>
      <trkpt lat="60.79109" lon="4.92715">
        <ele>55.799373</ele>
        <time>2020-07-25T13:23:45.996Z</time>
      </trkpt>
      <trkpt lat="60.79301" lon="4.92488">
        <ele>57.684792</ele>
        <time>2020-07-25T13:24:39.995Z</time>
      </trkpt>
      <trkpt lat="60.79516" lon="4.92409">
        <ele>57.883808</ele>
        <time>2020-07-25T13:25:39.980Z</time>
      </trkpt>
      <trkpt lat="60.79749" lon="4.92203">
        <ele>54.325451</ele>
        <time>2020-07-25T13:26:19.996Z</time>
      </trkpt>
      <trkpt lat="60.79987" lon="4.92138">
        <ele>51.159067</ele>
        <time>2020-07-25T13:27:05.991Z</time>
      </trkpt>
      <trkpt lat="60.8021" lon="4.91922">
        <ele>51.494026</ele>
        <time>2020-07-25T13:27:55.987Z</time>
      </trkpt>
      <trkpt lat="60.80367" lon="4.9199">
        <ele>56.609184</ele>
        <time>2020-07-25T13:29:03.028Z</time>
      </trkpt>
      <trkpt lat="60.80274" lon="4.92422">
        <ele>54.87823</ele>
        <time>2020-07-25T13:29:40.038Z</time>
      </trkpt>
      <trkpt lat="60.8021" lon="4.9284">
        <ele>61.556544</ele>
        <time>2020-07-25T13:30:35.989Z</time>
      </trkpt>
      <trkpt lat="60.80083" lon="4.93173">
        <ele>65.085552</ele>
        <time>2020-07-25T13:31:34.002Z</time>
      </trkpt>
      <trkpt lat="60.79889" lon="4.93473">
        <ele>67.099202</ele>
        <time>2020-07-25T13:32:13.990Z</time>
      </trkpt>
      <trkpt lat="60.79802" lon="4.93952">
        <ele>57.067625</ele>
        <time>2020-07-25T13:32:54.015Z</time>
      </trkpt>
      <trkpt lat="60.79685" lon="4.94335">
        <ele>61.173391</ele>
        <time>2020-07-25T13:36:22.017Z</time>
      </trkpt>
      <trkpt lat="60.79618" lon="4.94848">
        <ele>62.042771</ele>
        <time>2020-07-25T13:37:15.984Z</time>
      </trkpt>
      <trkpt lat="60.79428" lon="4.94981">
        <ele>62.029479</ele>
        <time>2020-07-25T13:38:06.988Z</time>
      </trkpt>
      <trkpt lat="60.79243" lon="4.95221">
        <ele>66.569307</ele>
        <time>2020-07-25T13:39:05.000Z</time>
      </trkpt>
      <trkpt lat="60.79097" lon="4.9549">
        <ele>79.276272</ele>
        <time>2020-07-25T13:40:23.990Z</time>
      </trkpt>
      <trkpt lat="60.7891" lon="4.95781">
        <ele>81.071103</ele>
        <time>2020-07-25T13:41:37.988Z</time>
      </trkpt>
      <trkpt lat="60.78749" lon="4.96083">
        <ele>79.953567</ele>
        <time>2020-07-25T13:42:37.995Z</time>
      </trkpt>
      <trkpt lat="60.78641" lon="4.96468">
        <ele>85.251318</ele>
        <time>2020-07-25T13:43:39.991Z</time>
      </trkpt>
      <trkpt lat="60.78547" lon="4.96877">
        <ele>87.824856</ele>
        <time>2020-07-25T13:44:44.985Z</time>
      </trkpt>
      <trkpt lat="60.78736" lon="4.97211">
        <ele>78.997943</ele>
        <time>2020-07-25T13:45:11.995Z</time>
      </trkpt>
      <trkpt lat="60.79001" lon="4.97168">
        <ele>67.969081</ele>
        <time>2020-07-25T13:45:31.999Z</time>
      </trkpt>
      <trkpt lat="60.792" lon="4.97297">
        <ele>66.599958</ele>
        <time>2020-07-25T13:46:46.006Z</time>
      </trkpt>
      <trkpt lat="60.79397" lon="4.97568">
        <ele>69.118686</ele>
        <time>2020-07-25T13:47:50.995Z</time>
      </trkpt>
      <trkpt lat="60.79635" lon="4.97536">
        <ele>61.239512</ele>
        <time>2020-07-25T13:48:14.996Z</time>
      </trkpt>
      <trkpt lat="60.79853" lon="4.97692">
        <ele>59.746952</ele>
        <time>2020-07-25T13:48:55.008Z</time>
      </trkpt>
      <trkpt lat="60.80097" lon="4.97873">
        <ele>59.90324</ele>
        <time>2020-07-25T13:49:36.017Z</time>
      </trkpt>
      <trkpt lat="60.80302" lon="4.97976">
        <ele>63.031611</ele>
        <time>2020-07-25T13:50:36.992Z</time>
      </trkpt>
      <trkpt lat="60.80434" lon="4.98302">
        <ele>63.148817</ele>
        <time>2020-07-25T13:51:29.000Z</time>
      </trkpt>
      <trkpt lat="60.80405" lon="4.98713">
        <ele>70.043767</ele>
        <time>2020-07-25T13:52:33.004Z</time>
      </trkpt>
      <trkpt lat="60.80365" lon="4.99125">
        <ele>72.16688</ele>
        <time>2020-07-25T13:53:24.010Z</time>
      </trkpt>
      <trkpt lat="60.8033" lon="4.99538">
        <ele>71.337972</ele>
        <time>2020-07-25T13:54:06.011Z</time>
      </trkpt>
      <trkpt lat="60.80285" lon="4.99943">
        <ele>82.569625</ele>
        <time>2020-07-25T13:55:32.988Z</time>
      </trkpt>
      <trkpt lat="60.80147" lon="5.00302">
        <ele>80.551604</ele>
        <time>2020-07-25T13:56:38.021Z</time>
      </trkpt>
      <trkpt lat="60.8001" lon="5.00609">
        <ele>83.741734</ele>
        <time>2020-07-25T13:57:30.005Z</time>
      </trkpt>
      <trkpt lat="60.7989" lon="5.00951">
        <ele>86.567405</ele>
        <time>2020-07-25T13:58:37.995Z</time>
      </trkpt>
      <trkpt lat="60.79723" lon="5.01159">
        <ele>86.537051</ele>
        <time>2020-07-25T14:08:36.992Z</time>
      </trkpt>
      <trkpt lat="60.79899" lon="5.00951">
        <ele>88.737365</ele>
        <time>2020-07-25T14:11:04.993Z</time>
      </trkpt>
      <trkpt lat="60.80066" lon="5.00502">
        <ele>84.620373</ele>
        <time>2020-07-25T14:11:44.998Z</time>
      </trkpt>
      <trkpt lat="60.80285" lon="5.00531">
        <ele>76.334018</ele>
        <time>2020-07-25T14:12:14.006Z</time>
      </trkpt>
      <trkpt lat="60.80504" lon="5.00436">
        <ele>67.438467</ele>
        <time>2020-07-25T14:12:38.005Z</time>
      </trkpt>
      <trkpt lat="60.80798" lon="5.00452">
        <ele>56.847497</ele>
        <time>2020-07-25T14:13:13.017Z</time>
      </trkpt>
      <trkpt lat="60.81045" lon="5.0056">
        <ele>51.972845</ele>
        <time>2020-07-25T14:13:42.010Z</time>
      </trkpt>
      <trkpt lat="60.81285" lon="5.007">
        <ele>55.076454</ele>
        <time>2020-07-25T14:14:22.007Z</time>
      </trkpt>
      <trkpt lat="60.8151" lon="5.00483">
        <ele>54.348994</ele>
        <time>2020-07-25T14:15:49.002Z</time>
      </trkpt>
      <trkpt lat="60.81709" lon="5.00645">
        <ele>64.783696</ele>
        <time>2020-07-25T14:16:59.020Z</time>
      </trkpt>
      <trkpt lat="60.81879" lon="5.00893">
        <ele>64.643258</ele>
        <time>2020-07-25T14:17:38.995Z</time>
      </trkpt>
      <trkpt lat="60.82046" lon="5.01146">
        <ele>60.178423</ele>
        <time>2020-07-25T14:18:18.995Z</time>
      </trkpt>
      <trkpt lat="60.8222" lon="5.01362">
        <ele>67.394498</ele>
        <time>2020-07-25T14:18:58.981Z</time>
      </trkpt>
      <trkpt lat="60.82424" lon="5.01677">
        <ele>74.749366</ele>
        <time>2020-07-25T14:19:39.006Z</time>
      </trkpt>
      <trkpt lat="60.8262" lon="5.01988">
        <ele>61.966669</ele>
        <time>2020-07-25T14:20:21.998Z</time>
      </trkpt>
      <trkpt lat="60.82781" lon="5.02247">
        <ele>57.777032</ele>
        <time>2020-07-25T14:21:01.995Z</time>
      </trkpt>
      <trkpt lat="60.82933" lon="5.0253">
        <ele>61.388113</ele>
        <time>2020-07-25T14:21:42.009Z</time>
      </trkpt>
      <trkpt lat="60.83088" lon="5.02812">
        <ele>62.3311</ele>
        <time>2020-07-25T14:22:22.040Z</time>
      </trkpt>
      <trkpt lat="60.83253" lon="5.03111">
        <ele>60.55755</ele>
        <time>2020-07-25T14:23:03.983Z</time>
      </trkpt>
      <trkpt lat="60.8341" lon="5.03394">
        <ele>50.597711</ele>
        <time>2020-07-25T14:23:45.004Z</time>
      </trkpt>
      <trkpt lat="60.8357" lon="5.03678">
        <ele>49.25941</ele>
        <time>2020-07-25T14:24:24.992Z</time>
      </trkpt>
      <trkpt lat="60.83724" lon="5.03955">
        <ele>55.106154</ele>
        <time>2020-07-25T14:25:05.001Z</time>
      </trkpt>
      <trkpt lat="60.83891" lon="5.04259">
        <ele>61.541307</ele>
        <time>2020-07-25T14:25:47.026Z</time>
      </trkpt>
      <trkpt lat="60.84047" lon="5.04552">
        <ele>59.91809</ele>
        <time>2020-07-25T14:26:27.005Z</time>
      </trkpt>
      <trkpt lat="60.84375" lon="5.05141">
        <ele>64.659479</ele>
        <time>2020-07-25T14:27:51.696Z</time>
      </trkpt>
      <trkpt lat="60.84615" lon="5.05588">
        <ele>61.555186</ele>
        <time>2020-07-25T14:28:49.985Z</time>
      </trkpt>
      <trkpt lat="60.8479" lon="5.05876">
        <ele>65.233244</ele>
        <time>2020-07-25T14:29:32.007Z</time>
      </trkpt>
      <trkpt lat="60.84964" lon="5.0614">
        <ele>65.135646</ele>
        <time>2020-07-25T14:30:12.011Z</time>
      </trkpt>
      <trkpt lat="60.85512" lon="5.06513">
        <ele>56.758762</ele>
        <time>2020-07-25T14:32:34.988Z</time>
      </trkpt>
      <trkpt lat="60.85711" lon="5.0638">
        <ele>51.59396</ele>
        <time>2020-07-25T14:37:14.024Z</time>
      </trkpt>
      <trkpt lat="60.85568" lon="5.06613">
        <ele>47.371824</ele>
        <time>2020-07-25T14:38:14.004Z</time>
      </trkpt>
      <trkpt lat="60.85397" lon="5.06838">
        <ele>51.422013</ele>
        <time>2020-07-25T14:39:16.015Z</time>
      </trkpt>
      <trkpt lat="60.85271" lon="5.07152">
        <ele>59.519194</ele>
        <time>2020-07-25T14:40:36.004Z</time>
      </trkpt>
      <trkpt lat="60.8518" lon="5.07514">
        <ele>70.058985</ele>
        <time>2020-07-25T14:42:05.003Z</time>
      </trkpt>
      <trkpt lat="60.85053" lon="5.07819">
        <ele>73.252047</ele>
        <time>2020-07-25T14:43:20.008Z</time>
      </trkpt>
      <trkpt lat="60.84898" lon="5.0813">
        <ele>72.387839</ele>
        <time>2020-07-25T14:44:10.979Z</time>
      </trkpt>
      <trkpt lat="60.84815" lon="5.08511">
        <ele>81.772293</ele>
        <time>2020-07-25T14:45:30.987Z</time>
      </trkpt>
      <trkpt lat="60.84704" lon="5.08846">
        <ele>90.445967</ele>
        <time>2020-07-25T14:47:15.054Z</time>
      </trkpt>
      <trkpt lat="60.84778" lon="5.09184">
        <ele>90.230507</ele>
        <time>2020-07-25T14:50:22.995Z</time>
      </trkpt>
      <trkpt lat="60.84965" lon="5.0941">
        <ele>96.434234</ele>
        <time>2020-07-25T14:51:31.012Z</time>
      </trkpt>
      <trkpt lat="60.8513" lon="5.09673">
        <ele>95.639125</ele>
        <time>2020-07-25T14:52:10.992Z</time>
      </trkpt>
      <trkpt lat="60.85046" lon="5.10069">
        <ele>94.706206</ele>
        <time>2020-07-25T14:53:00.998Z</time>
      </trkpt>
      <trkpt lat="60.84976" lon="5.10474">
        <ele>97.290131</ele>
        <time>2020-07-25T14:53:46.037Z</time>
      </trkpt>
      <trkpt lat="60.84996" lon="5.10975">
        <ele>90.065896</ele>
        <time>2020-07-25T14:54:23.996Z</time>
      </trkpt>
      <trkpt lat="60.85186" lon="5.11245">
        <ele>77.632693</ele>
        <time>2020-07-25T14:54:44.999Z</time>
      </trkpt>
      <trkpt lat="60.85402" lon="5.11367">
        <ele>62.544662</ele>
        <time>2020-07-25T14:55:10.997Z</time>
      </trkpt>
      <trkpt lat="60.85232" lon="5.11626">
        <ele>58.756648</ele>
        <time>2020-07-25T14:55:54.992Z</time>
      </trkpt>
      <trkpt lat="60.85083" lon="5.1195">
        <ele>74.10831</ele>
        <time>2020-07-25T14:57:28.013Z</time>
      </trkpt>
      <trkpt lat="60.84918" lon="5.12157">
        <ele>80.111676</ele>
        <time>2020-07-25T14:59:04.020Z</time>
      </trkpt>
      <trkpt lat="60.84779" lon="5.1244">
        <ele>83.911965</ele>
        <time>2020-07-25T15:00:10.032Z</time>
      </trkpt>
      <trkpt lat="60.84637" lon="5.12726">
        <ele>90.800916</ele>
        <time>2020-07-25T15:01:35.982Z</time>
      </trkpt>
      <trkpt lat="60.84585" lon="5.13128">
        <ele>98.198181</ele>
        <time>2020-07-25T15:03:09.984Z</time>
      </trkpt>
      <trkpt lat="60.8456" lon="5.13578">
        <ele>86.936576</ele>
        <time>2020-07-25T15:03:46.003Z</time>
      </trkpt>
      <trkpt lat="60.8463" lon="5.13998">
        <ele>74.173206</ele>
        <time>2020-07-25T15:04:07.994Z</time>
      </trkpt>
      <trkpt lat="60.84497" lon="5.14317">
        <ele>85.330119</ele>
        <time>2020-07-25T15:05:25.994Z</time>
      </trkpt>
      <trkpt lat="60.84467" lon="5.14728">
        <ele>87.709515</ele>
        <time>2020-07-25T15:06:36.996Z</time>
      </trkpt>
      <trkpt lat="60.84524" lon="5.15247">
        <ele>74.331398</ele>
        <time>2020-07-25T15:07:06.032Z</time>
      </trkpt>
      <trkpt lat="60.84718" lon="5.15498">
        <ele>59.388593</ele>
        <time>2020-07-25T15:07:30.985Z</time>
      </trkpt>
      <trkpt lat="60.84598" lon="5.15777">
        <ele>53.499561</ele>
        <time>2020-07-25T15:08:04.002Z</time>
      </trkpt>
      <trkpt lat="60.84483" lon="5.16142">
        <ele>60.261359</ele>
        <time>2020-07-25T15:09:15.040Z</time>
      </trkpt>
      <trkpt lat="60.84314" lon="5.16488">
        <ele>58.330495</ele>
        <time>2020-07-25T15:10:19.986Z</time>
      </trkpt>
      <trkpt lat="60.84336" lon="5.17018">
        <ele>59.006685</ele>
        <time>2020-07-25T15:11:14.989Z</time>
      </trkpt>
    </trkseg>
  </trk>
  <trk>
    <name><![CDATA[Tour d'Europe: étape 028]]></name>
    <trkseg>
      <trkpt lat="60.84353" lon="5.17176">
        <ele>65.109412</ele>
        <time>2020-07-26T07:03:28.813Z</time>
      </trkpt>
      <trkpt lat="60.84323" lon="5.16676">
        <ele>61.934774</ele>
        <time>2020-07-26T07:04:32.770Z</time>
      </trkpt>
      <trkpt lat="60.84399" lon="5.16291">
        <ele>70.026038</ele>
        <time>2020-07-26T07:05:42.777Z</time>
      </trkpt>
      <trkpt lat="60.84571" lon="5.15956">
        <ele>63.528615</ele>
        <time>2020-07-26T07:06:33.811Z</time>
      </trkpt>
      <trkpt lat="60.84712" lon="5.15627">
        <ele>62.705195</ele>
        <time>2020-07-26T07:07:10.795Z</time>
      </trkpt>
      <trkpt lat="60.84608" lon="5.15399">
        <ele>72.494577</ele>
        <time>2020-07-26T07:08:35.825Z</time>
      </trkpt>
      <trkpt lat="60.84503" lon="5.15074">
        <ele>88.229782</ele>
        <time>2020-07-26T07:10:26.798Z</time>
      </trkpt>
      <trkpt lat="60.84465" lon="5.14677">
        <ele>95.821543</ele>
        <time>2020-07-26T07:12:04.833Z</time>
      </trkpt>
      <trkpt lat="60.84534" lon="5.14197">
        <ele>100.339631</ele>
        <time>2020-07-26T07:13:08.787Z</time>
      </trkpt>
      <trkpt lat="60.84628" lon="5.13834">
        <ele>91.891119</ele>
        <time>2020-07-26T07:13:31.784Z</time>
      </trkpt>
      <trkpt lat="60.84588" lon="5.13445">
        <ele>99.951141</ele>
        <time>2020-07-26T07:15:09.782Z</time>
      </trkpt>
      <trkpt lat="60.84593" lon="5.1301">
        <ele>107.776478</ele>
        <time>2020-07-26T07:16:51.827Z</time>
      </trkpt>
      <trkpt lat="60.84727" lon="5.12551">
        <ele>104.874894</ele>
        <time>2020-07-26T07:17:26.815Z</time>
      </trkpt>
      <trkpt lat="60.84884" lon="5.12236">
        <ele>92.411128</ele>
        <time>2020-07-26T07:17:50.790Z</time>
      </trkpt>
      <trkpt lat="60.85108" lon="5.11946">
        <ele>79.369712</ele>
        <time>2020-07-26T07:18:25.786Z</time>
      </trkpt>
      <trkpt lat="60.8525" lon="5.11605">
        <ele>66.699852</ele>
        <time>2020-07-26T07:18:46.793Z</time>
      </trkpt>
      <trkpt lat="60.85457" lon="5.11304">
        <ele>63.60244</ele>
        <time>2020-07-26T07:19:22.823Z</time>
      </trkpt>
      <trkpt lat="60.85675" lon="5.1137">
        <ele>70.219086</ele>
        <time>2020-07-26T07:20:15.804Z</time>
      </trkpt>
      <trkpt lat="60.85907" lon="5.11569">
        <ele>62.035667</ele>
        <time>2020-07-26T07:20:57.807Z</time>
      </trkpt>
      <trkpt lat="60.86152" lon="5.11649">
        <ele>54.822518</ele>
        <time>2020-07-26T07:21:37.791Z</time>
      </trkpt>
      <trkpt lat="60.8637" lon="5.11689">
        <ele>58.593846</ele>
        <time>2020-07-26T07:22:41.795Z</time>
      </trkpt>
      <trkpt lat="60.8667" lon="5.11829">
        <ele>56.061933</ele>
        <time>2020-07-26T07:23:21.824Z</time>
      </trkpt>
      <trkpt lat="60.86907" lon="5.11734">
        <ele>53.18143</ele>
        <time>2020-07-26T07:24:12.788Z</time>
      </trkpt>
      <trkpt lat="60.87145" lon="5.11831">
        <ele>49.216559</ele>
        <time>2020-07-26T07:25:05.807Z</time>
      </trkpt>
      <trkpt lat="60.87342" lon="5.12037">
        <ele>46.341275</ele>
        <time>2020-07-26T07:25:59.811Z</time>
      </trkpt>
      <trkpt lat="60.87564" lon="5.12166">
        <ele>54.613857</ele>
        <time>2020-07-26T07:27:01.775Z</time>
      </trkpt>
      <trkpt lat="60.87681" lon="5.12502">
        <ele>56.670521</ele>
        <time>2020-07-26T07:28:02.779Z</time>
      </trkpt>
      <trkpt lat="60.8782" lon="5.12884">
        <ele>56.482157</ele>
        <time>2020-07-26T07:28:57.824Z</time>
      </trkpt>
      <trkpt lat="60.87851" lon="5.13337">
        <ele>54.886084</ele>
        <time>2020-07-26T07:30:53.793Z</time>
      </trkpt>
      <trkpt lat="60.88049" lon="5.13331">
        <ele>53.360066</ele>
        <time>2020-07-26T07:31:46.795Z</time>
      </trkpt>
      <trkpt lat="60.88213" lon="5.13569">
        <ele>58.835365</ele>
        <time>2020-07-26T07:32:44.798Z</time>
      </trkpt>
      <trkpt lat="60.88403" lon="5.13461">
        <ele>71.243689</ele>
        <time>2020-07-26T07:34:28.828Z</time>
      </trkpt>
      <trkpt lat="60.88601" lon="5.13298">
        <ele>81.389537</ele>
        <time>2020-07-26T07:36:12.777Z</time>
      </trkpt>
      <trkpt lat="60.88762" lon="5.13087">
        <ele>80.2847</ele>
        <time>2020-07-26T07:37:31.798Z</time>
      </trkpt>
      <trkpt lat="60.89012" lon="5.1317">
        <ele>67.713286</ele>
        <time>2020-07-26T07:38:07.789Z</time>
      </trkpt>
      <trkpt lat="60.89198" lon="5.13239">
        <ele>57.725007</ele>
        <time>2020-07-26T07:38:28.807Z</time>
      </trkpt>
      <trkpt lat="60.89325" lon="5.12859">
        <ele>64.081885</ele>
        <time>2020-07-26T07:39:53.788Z</time>
      </trkpt>
      <trkpt lat="60.89509" lon="5.12688">
        <ele>81.724184</ele>
        <time>2020-07-26T07:42:03.792Z</time>
      </trkpt>
      <trkpt lat="60.897" lon="5.12624">
        <ele>91.562592</ele>
        <time>2020-07-26T07:44:03.783Z</time>
      </trkpt>
      <trkpt lat="60.89841" lon="5.12975">
        <ele>95.246206</ele>
        <time>2020-07-26T07:45:08.795Z</time>
      </trkpt>
      <trkpt lat="60.90045" lon="5.13058">
        <ele>98.547767</ele>
        <time>2020-07-26T07:45:57.816Z</time>
      </trkpt>
      <trkpt lat="60.90231" lon="5.13312">
        <ele>90.012543</ele>
        <time>2020-07-26T07:46:36.820Z</time>
      </trkpt>
      <trkpt lat="60.90428" lon="5.13508">
        <ele>78.230177</ele>
        <time>2020-07-26T07:47:01.801Z</time>
      </trkpt>
      <trkpt lat="60.90627" lon="5.13657">
        <ele>85.3072</ele>
        <time>2020-07-26T07:48:13.781Z</time>
      </trkpt>
      <trkpt lat="60.90824" lon="5.13785">
        <ele>89.322645</ele>
        <time>2020-07-26T07:49:29.808Z</time>
      </trkpt>
      <trkpt lat="60.91036" lon="5.13751">
        <ele>89.539304</ele>
        <time>2020-07-26T07:50:19.799Z</time>
      </trkpt>
      <trkpt lat="60.91225" lon="5.13519">
        <ele>96.244574</ele>
        <time>2020-07-26T07:51:29.787Z</time>
      </trkpt>
      <trkpt lat="60.9144" lon="5.13328">
        <ele>94.757803</ele>
        <time>2020-07-26T07:52:38.790Z</time>
      </trkpt>
      <trkpt lat="60.91663" lon="5.13363">
        <ele>82.451967</ele>
        <time>2020-07-26T07:53:04.805Z</time>
      </trkpt>
      <trkpt lat="60.91911" lon="5.1323">
        <ele>71.800491</ele>
        <time>2020-07-26T07:53:34.792Z</time>
      </trkpt>
      <trkpt lat="60.92127" lon="5.1306">
        <ele>72.066792</ele>
        <time>2020-07-26T07:54:20.814Z</time>
      </trkpt>
      <trkpt lat="60.92369" lon="5.13044">
        <ele>71.128875</ele>
        <time>2020-07-26T07:55:19.800Z</time>
      </trkpt>
      <trkpt lat="60.92544" lon="5.13236">
        <ele>76.964573</ele>
        <time>2020-07-26T07:56:54.786Z</time>
      </trkpt>
      <trkpt lat="60.92752" lon="5.13281">
        <ele>80.111467</ele>
        <time>2020-07-26T07:57:47.790Z</time>
      </trkpt>
      <trkpt lat="60.92954" lon="5.13277">
        <ele>77.193581</ele>
        <time>2020-07-26T07:58:54.809Z</time>
      </trkpt>
      <trkpt lat="60.93153" lon="5.13509">
        <ele>65.341017</ele>
        <time>2020-07-26T07:59:22.834Z</time>
      </trkpt>
      <trkpt lat="60.93371" lon="5.13527">
        <ele>61.111209</ele>
        <time>2020-07-26T07:59:47.793Z</time>
      </trkpt>
      <trkpt lat="60.93559" lon="5.13439">
        <ele>73.178206</ele>
        <time>2020-07-26T08:06:06.797Z</time>
      </trkpt>
      <trkpt lat="60.93493" lon="5.13837">
        <ele>81.398375</ele>
        <time>2020-07-26T08:07:37.784Z</time>
      </trkpt>
      <trkpt lat="60.93521" lon="5.14246">
        <ele>84.413911</ele>
        <time>2020-07-26T08:09:00.786Z</time>
      </trkpt>
      <trkpt lat="60.93691" lon="5.14511">
        <ele>82.475088</ele>
        <time>2020-07-26T08:10:05.812Z</time>
      </trkpt>
      <trkpt lat="60.93906" lon="5.1434">
        <ele>83.360501</ele>
        <time>2020-07-26T08:10:57.778Z</time>
      </trkpt>
      <trkpt lat="60.94072" lon="5.14082">
        <ele>84.79817</ele>
        <time>2020-07-26T08:11:57.777Z</time>
      </trkpt>
      <trkpt lat="60.94371" lon="5.13716">
        <ele>81.034388</ele>
        <time>2020-07-26T08:12:44.899Z</time>
      </trkpt>
      <trkpt lat="60.94558" lon="5.13579">
        <ele>87.190338</ele>
        <time>2020-07-26T08:14:27.797Z</time>
      </trkpt>
      <trkpt lat="60.94761" lon="5.13592">
        <ele>104.780742</ele>
        <time>2020-07-26T08:16:43.839Z</time>
      </trkpt>
      <trkpt lat="60.94902" lon="5.13894">
        <ele>112.142728</ele>
        <time>2020-07-26T08:18:29.813Z</time>
      </trkpt>
      <trkpt lat="60.95003" lon="5.14294">
        <ele>111.834573</ele>
        <time>2020-07-26T08:19:43.787Z</time>
      </trkpt>
      <trkpt lat="60.94962" lon="5.14769">
        <ele>99.597697</ele>
        <time>2020-07-26T08:20:04.793Z</time>
      </trkpt>
      <trkpt lat="60.95054" lon="5.15135">
        <ele>101.421269</ele>
        <time>2020-07-26T08:21:21.801Z</time>
      </trkpt>
      <trkpt lat="60.95223" lon="5.15357">
        <ele>113.223907</ele>
        <time>2020-07-26T08:23:08.786Z</time>
      </trkpt>
      <trkpt lat="60.95381" lon="5.15584">
        <ele>126.762282</ele>
        <time>2020-07-26T08:25:06.787Z</time>
      </trkpt>
      <trkpt lat="60.9555" lon="5.15829">
        <ele>139.37979</ele>
        <time>2020-07-26T08:27:14.821Z</time>
      </trkpt>
      <trkpt lat="60.95672" lon="5.16147">
        <ele>151.451194</ele>
        <time>2020-07-26T08:29:23.820Z</time>
      </trkpt>
      <trkpt lat="60.95842" lon="5.1638">
        <ele>154.909052</ele>
        <time>2020-07-26T08:33:12.795Z</time>
      </trkpt>
      <trkpt lat="60.95972" lon="5.16653">
        <ele>158.468405</ele>
        <time>2020-07-26T08:34:55.797Z</time>
      </trkpt>
      <trkpt lat="60.96664" lon="5.17436">
        <ele>124.017783</ele>
        <time>2020-07-26T08:37:46.795Z</time>
      </trkpt>
      <trkpt lat="60.96664" lon="5.17899">
        <ele>107.224623</ele>
        <time>2020-07-26T08:38:07.792Z</time>
      </trkpt>
      <trkpt lat="60.96732" lon="5.18423">
        <ele>81.483926</ele>
        <time>2020-07-26T08:38:38.829Z</time>
      </trkpt>
      <trkpt lat="60.96701" lon="5.1889">
        <ele>65.714933</ele>
        <time>2020-07-26T08:39:21.799Z</time>
      </trkpt>
      <trkpt lat="60.96827" lon="5.19329">
        <ele>57.34626</ele>
        <time>2020-07-26T08:40:06.792Z</time>
      </trkpt>
      <trkpt lat="60.96928" lon="5.19152">
        <ele>62.553958</ele>
        <time>2020-07-26T08:41:28.809Z</time>
      </trkpt>
      <trkpt lat="60.97042" lon="5.18803">
        <ele>73.099199</ele>
        <time>2020-07-26T08:43:13.792Z</time>
      </trkpt>
      <trkpt lat="60.97193" lon="5.18523">
        <ele>81.352604</ele>
        <time>2020-07-26T08:44:35.819Z</time>
      </trkpt>
      <trkpt lat="60.9742" lon="5.18674">
        <ele>91.32154</ele>
        <time>2020-07-26T08:46:09.893Z</time>
      </trkpt>
      <trkpt lat="60.9766" lon="5.18837">
        <ele>91.357153</ele>
        <time>2020-07-26T08:47:07.790Z</time>
      </trkpt>
      <trkpt lat="60.97878" lon="5.18897">
        <ele>86.032151</ele>
        <time>2020-07-26T08:47:58.819Z</time>
      </trkpt>
      <trkpt lat="60.98091" lon="5.18785">
        <ele>87.399728</ele>
        <time>2020-07-26T08:49:16.807Z</time>
      </trkpt>
      <trkpt lat="60.98282" lon="5.18658">
        <ele>98.739095</ele>
        <time>2020-07-26T08:50:49.819Z</time>
      </trkpt>
      <trkpt lat="60.98509" lon="5.18535">
        <ele>96.592708</ele>
        <time>2020-07-26T08:51:56.798Z</time>
      </trkpt>
      <trkpt lat="60.98703" lon="5.18409">
        <ele>100.767331</ele>
        <time>2020-07-26T08:53:00.795Z</time>
      </trkpt>
      <trkpt lat="60.98902" lon="5.18427">
        <ele>111.479717</ele>
        <time>2020-07-26T08:54:27.796Z</time>
      </trkpt>
      <trkpt lat="60.99121" lon="5.18714">
        <ele>102.863307</ele>
        <time>2020-07-26T08:54:53.790Z</time>
      </trkpt>
      <trkpt lat="60.99336" lon="5.1889">
        <ele>84.686548</ele>
        <time>2020-07-26T08:55:13.790Z</time>
      </trkpt>
      <trkpt lat="60.99547" lon="5.18781">
        <ele>72.100836</ele>
        <time>2020-07-26T08:55:34.815Z</time>
      </trkpt>
      <trkpt lat="60.99665" lon="5.18476">
        <ele>79.195648</ele>
        <time>2020-07-26T08:56:44.800Z</time>
      </trkpt>
      <trkpt lat="60.99877" lon="5.18723">
        <ele>67.705088</ele>
        <time>2020-07-26T08:57:20.791Z</time>
      </trkpt>
      <trkpt lat="61.00082" lon="5.18804">
        <ele>70.164695</ele>
        <time>2020-07-26T08:58:01.825Z</time>
      </trkpt>
      <trkpt lat="61.00241" lon="5.18954">
        <ele>85.814674</ele>
        <time>2020-07-26T09:00:34.831Z</time>
      </trkpt>
      <trkpt lat="61.00405" lon="5.19206">
        <ele>76.274418</ele>
        <time>2020-07-26T09:02:11.824Z</time>
      </trkpt>
      <trkpt lat="61.00588" lon="5.1925">
        <ele>62.30143</ele>
        <time>2020-07-26T09:02:55.790Z</time>
      </trkpt>
      <trkpt lat="61.00779" lon="5.19377">
        <ele>75.697544</ele>
        <time>2020-07-26T09:04:57.814Z</time>
      </trkpt>
      <trkpt lat="61.00947" lon="5.19555">
        <ele>93.958974</ele>
        <time>2020-07-26T09:07:30.789Z</time>
      </trkpt>
      <trkpt lat="61.01136" lon="5.19439">
        <ele>113.002911</ele>
        <time>2020-07-26T09:10:09.813Z</time>
      </trkpt>
      <trkpt lat="61.01325" lon="5.19327">
        <ele>131.454445</ele>
        <time>2020-07-26T09:12:51.804Z</time>
      </trkpt>
      <trkpt lat="61.01475" lon="5.19074">
        <ele>144.048726</ele>
        <time>2020-07-26T09:14:54.846Z</time>
      </trkpt>
      <trkpt lat="61.0169" lon="5.19012">
        <ele>160.071001</ele>
        <time>2020-07-26T09:16:21.820Z</time>
      </trkpt>
      <trkpt lat="61.01898" lon="5.19045">
        <ele>161.197971</ele>
        <time>2020-07-26T09:17:48.824Z</time>
      </trkpt>
      <trkpt lat="61.0213" lon="5.19063">
        <ele>150.985978</ele>
        <time>2020-07-26T09:18:43.794Z</time>
      </trkpt>
      <trkpt lat="61.02351" lon="5.18951">
        <ele>148.971007</ele>
        <time>2020-07-26T09:19:36.800Z</time>
      </trkpt>
      <trkpt lat="61.02558" lon="5.19024">
        <ele>153.806938</ele>
        <time>2020-07-26T09:20:29.843Z</time>
      </trkpt>
      <trkpt lat="61.02763" lon="5.19125">
        <ele>154.624228</ele>
        <time>2020-07-26T09:21:57.808Z</time>
      </trkpt>
      <trkpt lat="61.02872" lon="5.18859">
        <ele>172.185097</ele>
        <time>2020-07-26T09:24:15.808Z</time>
      </trkpt>
      <trkpt lat="61.02832" lon="5.18462">
        <ele>190.422093</ele>
        <time>2020-07-26T09:26:56.818Z</time>
      </trkpt>
      <trkpt lat="61.03004" lon="5.18302">
        <ele>191.141662</ele>
        <time>2020-07-26T09:28:25.802Z</time>
      </trkpt>
      <trkpt lat="61.03216" lon="5.18159">
        <ele>192.082516</ele>
        <time>2020-07-26T09:29:33.791Z</time>
      </trkpt>
      <trkpt lat="61.03418" lon="5.1804">
        <ele>196.249751</ele>
        <time>2020-07-26T09:30:38.840Z</time>
      </trkpt>
      <trkpt lat="61.03633" lon="5.18095">
        <ele>195.816092</ele>
        <time>2020-07-26T09:31:44.806Z</time>
      </trkpt>
      <trkpt lat="61.03831" lon="5.18061">
        <ele>212.261581</ele>
        <time>2020-07-26T09:33:58.806Z</time>
      </trkpt>
      <trkpt lat="61.03961" lon="5.1781">
        <ele>225.393554</ele>
        <time>2020-07-26T09:36:34.811Z</time>
      </trkpt>
      <trkpt lat="61.0416" lon="5.17831">
        <ele>239.760144</ele>
        <time>2020-07-26T09:39:16.822Z</time>
      </trkpt>
      <trkpt lat="61.04347" lon="5.17924">
        <ele>259.912474</ele>
        <time>2020-07-26T09:41:33.828Z</time>
      </trkpt>
      <trkpt lat="61.04525" lon="5.1811">
        <ele>273.493183</ele>
        <time>2020-07-26T09:44:15.827Z</time>
      </trkpt>
      <trkpt lat="61.04685" lon="5.18446">
        <ele>268.096063</ele>
        <time>2020-07-26T09:45:42.836Z</time>
      </trkpt>
      <trkpt lat="61.04887" lon="5.18646">
        <ele>255.292417</ele>
        <time>2020-07-26T09:46:06.806Z</time>
      </trkpt>
      <trkpt lat="61.05102" lon="5.18441">
        <ele>238.736119</ele>
        <time>2020-07-26T09:46:27.810Z</time>
      </trkpt>
      <trkpt lat="61.05351" lon="5.18453">
        <ele>219.217153</ele>
        <time>2020-07-26T09:46:47.800Z</time>
      </trkpt>
      <trkpt lat="61.05621" lon="5.18362">
        <ele>194.656332</ele>
        <time>2020-07-26T09:47:08.817Z</time>
      </trkpt>
      <trkpt lat="61.05868" lon="5.18226">
        <ele>168.911321</ele>
        <time>2020-07-26T09:47:29.807Z</time>
      </trkpt>
      <trkpt lat="61.06141" lon="5.18345">
        <ele>152.414459</ele>
        <time>2020-07-26T09:47:49.813Z</time>
      </trkpt>
      <trkpt lat="61.06434" lon="5.18476">
        <ele>127.936697</ele>
        <time>2020-07-26T09:48:24.810Z</time>
      </trkpt>
      <trkpt lat="61.06647" lon="5.18744">
        <ele>109.70905</ele>
        <time>2020-07-26T09:50:04.812Z</time>
      </trkpt>
      <trkpt lat="61.0692" lon="5.1887">
        <ele>90.86427</ele>
        <time>2020-07-26T09:50:38.811Z</time>
      </trkpt>
      <trkpt lat="61.07214" lon="5.18813">
        <ele>56.101064</ele>
        <time>2020-07-26T09:51:14.796Z</time>
      </trkpt>
      <trkpt lat="61.07405" lon="5.18939">
        <ele>50.865168</ele>
        <time>2020-07-26T09:52:59.825Z</time>
      </trkpt>
      <trkpt lat="61.0781" lon="5.19268">
        <ele>70.095056</ele>
        <time>2020-07-26T10:31:24.347Z</time>
      </trkpt>
      <trkpt lat="61.07959" lon="5.1964">
        <ele>67.781649</ele>
        <time>2020-07-26T10:32:23.356Z</time>
      </trkpt>
      <trkpt lat="61.08116" lon="5.20042">
        <ele>75.560341</ele>
        <time>2020-07-26T10:33:22.331Z</time>
      </trkpt>
      <trkpt lat="61.08254" lon="5.20431">
        <ele>73.545018</ele>
        <time>2020-07-26T10:34:19.333Z</time>
      </trkpt>
      <trkpt lat="61.08409" lon="5.20871">
        <ele>73.731544</ele>
        <time>2020-07-26T10:35:21.328Z</time>
      </trkpt>
      <trkpt lat="61.08558" lon="5.21269">
        <ele>63.626299</ele>
        <time>2020-07-26T10:36:20.326Z</time>
      </trkpt>
      <trkpt lat="61.08715" lon="5.21676">
        <ele>60.525602</ele>
        <time>2020-07-26T10:37:23.333Z</time>
      </trkpt>
      <trkpt lat="61.08871" lon="5.22051">
        <ele>66.105369</ele>
        <time>2020-07-26T10:38:26.328Z</time>
      </trkpt>
      <trkpt lat="61.09011" lon="5.22399">
        <ele>63.559488</ele>
        <time>2020-07-26T10:39:26.328Z</time>
      </trkpt>
      <trkpt lat="61.09168" lon="5.22759">
        <ele>65.821542</ele>
        <time>2020-07-26T10:40:29.344Z</time>
      </trkpt>
      <trkpt lat="61.09321" lon="5.23111">
        <ele>64.415836</ele>
        <time>2020-07-26T10:41:29.353Z</time>
      </trkpt>
      <trkpt lat="61.09485" lon="5.23474">
        <ele>70.464562</ele>
        <time>2020-07-26T10:42:31.309Z</time>
      </trkpt>
      <trkpt lat="61.09648" lon="5.23827">
        <ele>73.354164</ele>
        <time>2020-07-26T10:43:34.325Z</time>
      </trkpt>
      <trkpt lat="61.09797" lon="5.24192">
        <ele>77.175439</ele>
        <time>2020-07-26T10:44:34.343Z</time>
      </trkpt>
      <trkpt lat="61.09945" lon="5.24571">
        <ele>73.644511</ele>
        <time>2020-07-26T10:45:35.401Z</time>
      </trkpt>
      <trkpt lat="61.10089" lon="5.24933">
        <ele>72.777758</ele>
        <time>2020-07-26T10:46:35.312Z</time>
      </trkpt>
      <trkpt lat="61.1024" lon="5.25335">
        <ele>71.015669</ele>
        <time>2020-07-26T10:47:38.338Z</time>
      </trkpt>
      <trkpt lat="61.10383" lon="5.25738">
        <ele>63.678101</ele>
        <time>2020-07-26T10:48:38.329Z</time>
      </trkpt>
      <trkpt lat="61.10532" lon="5.26153">
        <ele>64.973368</ele>
        <time>2020-07-26T10:49:39.321Z</time>
      </trkpt>
      <trkpt lat="61.10679" lon="5.26577">
        <ele>66.690379</ele>
        <time>2020-07-26T10:50:39.318Z</time>
      </trkpt>
      <trkpt lat="61.1081" lon="5.26928">
        <ele>72.201939</ele>
        <time>2020-07-26T10:51:28.329Z</time>
      </trkpt>
      <trkpt lat="61.10984" lon="5.27327">
        <ele>72.800917</ele>
        <time>2020-07-26T10:52:29.329Z</time>
      </trkpt>
      <trkpt lat="61.11141" lon="5.27655">
        <ele>72.2486</ele>
        <time>2020-07-26T10:53:23.330Z</time>
      </trkpt>
      <trkpt lat="61.11278" lon="5.27975">
        <ele>72.405442</ele>
        <time>2020-07-26T10:54:54.343Z</time>
      </trkpt>
      <trkpt lat="61.11404" lon="5.28393">
        <ele>64.099849</ele>
        <time>2020-07-26T11:00:13.313Z</time>
      </trkpt>
      <trkpt lat="61.11264" lon="5.28598">
        <ele>70.133328</ele>
        <time>2020-07-26T11:02:04.329Z</time>
      </trkpt>
      <trkpt lat="61.11367" lon="5.28851">
        <ele>87.596071</ele>
        <time>2020-07-26T11:04:27.304Z</time>
      </trkpt>
      <trkpt lat="61.11463" lon="5.29256">
        <ele>87.95709</ele>
        <time>2020-07-26T11:06:12.328Z</time>
      </trkpt>
      <trkpt lat="61.1149" lon="5.29756">
        <ele>75.413966</ele>
        <time>2020-07-26T11:06:42.354Z</time>
      </trkpt>
      <trkpt lat="61.11504" lon="5.30232">
        <ele>67.461085</ele>
        <time>2020-07-26T11:07:29.328Z</time>
      </trkpt>
      <trkpt lat="61.11605" lon="5.30821">
        <ele>58.497254</ele>
        <time>2020-07-26T11:08:11.334Z</time>
      </trkpt>
      <trkpt lat="61.11679" lon="5.31265">
        <ele>59.618446</ele>
        <time>2020-07-26T11:09:23.360Z</time>
      </trkpt>
      <trkpt lat="61.11796" lon="5.3161">
        <ele>64.204086</ele>
        <time>2020-07-26T11:10:31.315Z</time>
      </trkpt>
      <trkpt lat="61.1191" lon="5.31992">
        <ele>62.85631</ele>
        <time>2020-07-26T11:11:38.309Z</time>
      </trkpt>
      <trkpt lat="61.12017" lon="5.32357">
        <ele>60.375962</ele>
        <time>2020-07-26T11:12:31.331Z</time>
      </trkpt>
      <trkpt lat="61.12218" lon="5.32452">
        <ele>60.101429</ele>
        <time>2020-07-26T11:13:41.328Z</time>
      </trkpt>
      <trkpt lat="61.12431" lon="5.32537">
        <ele>61.96887</ele>
        <time>2020-07-26T11:14:37.323Z</time>
      </trkpt>
      <trkpt lat="61.12656" lon="5.32478">
        <ele>54.718367</ele>
        <time>2020-07-26T11:15:24.340Z</time>
      </trkpt>
      <trkpt lat="61.12858" lon="5.32411">
        <ele>54.149174</ele>
        <time>2020-07-26T11:16:16.324Z</time>
      </trkpt>
      <trkpt lat="61.13032" lon="5.324">
        <ele>64.083166</ele>
        <time>2020-07-26T11:17:57.331Z</time>
      </trkpt>
      <trkpt lat="61.13179" lon="5.32784">
        <ele>67.392692</ele>
        <time>2020-07-26T11:19:02.302Z</time>
      </trkpt>
      <trkpt lat="61.13152" lon="5.33195">
        <ele>72.75914</ele>
        <time>2020-07-26T11:20:22.312Z</time>
      </trkpt>
      <trkpt lat="61.13225" lon="5.33615">
        <ele>75.519323</ele>
        <time>2020-07-26T11:21:32.310Z</time>
      </trkpt>
      <trkpt lat="61.13455" lon="5.3389">
        <ele>67.399557</ele>
        <time>2020-07-26T11:22:10.358Z</time>
      </trkpt>
      <trkpt lat="61.13683" lon="5.33814">
        <ele>62.585303</ele>
        <time>2020-07-26T11:22:51.335Z</time>
      </trkpt>
      <trkpt lat="61.13875" lon="5.33968">
        <ele>64.114387</ele>
        <time>2020-07-26T11:24:07.318Z</time>
      </trkpt>
      <trkpt lat="61.13974" lon="5.34383">
        <ele>68.930794</ele>
        <time>2020-07-26T11:25:08.364Z</time>
      </trkpt>
      <trkpt lat="61.14114" lon="5.3474">
        <ele>67.914676</ele>
        <time>2020-07-26T11:26:11.325Z</time>
      </trkpt>
      <trkpt lat="61.14166" lon="5.35135">
        <ele>69.462641</ele>
        <time>2020-07-26T11:27:18.324Z</time>
      </trkpt>
      <trkpt lat="61.14302" lon="5.35517">
        <ele>72.17953</ele>
        <time>2020-07-26T11:28:15.311Z</time>
      </trkpt>
      <trkpt lat="61.14473" lon="5.35214">
        <ele>73.056298</ele>
        <time>2020-07-26T11:29:07.324Z</time>
      </trkpt>
      <trkpt lat="61.14591" lon="5.34807">
        <ele>73.038167</ele>
        <time>2020-07-26T11:30:03.333Z</time>
      </trkpt>
      <trkpt lat="61.1478" lon="5.34612">
        <ele>74.174633</ele>
        <time>2020-07-26T11:31:06.348Z</time>
      </trkpt>
      <trkpt lat="61.14966" lon="5.34397">
        <ele>74.074462</ele>
        <time>2020-07-26T11:31:59.319Z</time>
      </trkpt>
      <trkpt lat="61.15159" lon="5.34457">
        <ele>78.849407</ele>
        <time>2020-07-26T11:33:01.324Z</time>
      </trkpt>
      <trkpt lat="61.1532" lon="5.34787">
        <ele>78.374979</ele>
        <time>2020-07-26T11:33:53.337Z</time>
      </trkpt>
      <trkpt lat="61.15533" lon="5.35001">
        <ele>72.818088</ele>
        <time>2020-07-26T11:34:52.335Z</time>
      </trkpt>
      <trkpt lat="61.15659" lon="5.34769">
        <ele>78.891722</ele>
        <time>2020-07-26T11:35:53.319Z</time>
      </trkpt>
      <trkpt lat="61.15601" lon="5.344">
        <ele>98.44923</ele>
        <time>2020-07-26T11:37:51.320Z</time>
      </trkpt>
      <trkpt lat="61.15579" lon="5.34282">
        <ele>113.985469</ele>
        <time>2020-07-26T11:40:10.341Z</time>
      </trkpt>
      <trkpt lat="61.15717" lon="5.34505">
        <ele>129.826389</ele>
        <time>2020-07-26T11:42:34.331Z</time>
      </trkpt>
      <trkpt lat="61.15747" lon="5.343">
        <ele>149.725815</ele>
        <time>2020-07-26T11:44:56.333Z</time>
      </trkpt>
      <trkpt lat="61.15916" lon="5.34213">
        <ele>161.195087</ele>
        <time>2020-07-26T11:47:18.334Z</time>
      </trkpt>
      <trkpt lat="61.16005" lon="5.33865">
        <ele>161.593501</ele>
        <time>2020-07-26T11:48:30.337Z</time>
      </trkpt>
      <trkpt lat="61.16178" lon="5.33626">
        <ele>170.978562</ele>
        <time>2020-07-26T11:50:09.349Z</time>
      </trkpt>
      <trkpt lat="61.16226" lon="5.33183">
        <ele>166.30103</ele>
        <time>2020-07-26T11:51:07.310Z</time>
      </trkpt>
      <trkpt lat="61.1621" lon="5.32763">
        <ele>149.708454</ele>
        <time>2020-07-26T11:51:28.308Z</time>
      </trkpt>
      <trkpt lat="61.16229" lon="5.32337">
        <ele>140.713949</ele>
        <time>2020-07-26T11:51:48.333Z</time>
      </trkpt>
      <trkpt lat="61.1625" lon="5.31851">
        <ele>131.251435</ele>
        <time>2020-07-26T11:52:09.353Z</time>
      </trkpt>
      <trkpt lat="61.16341" lon="5.31413">
        <ele>135.556017</ele>
        <time>2020-07-26T11:52:56.305Z</time>
      </trkpt>
      <trkpt lat="61.16443" lon="5.31007">
        <ele>136.702513</ele>
        <time>2020-07-26T11:53:48.341Z</time>
      </trkpt>
      <trkpt lat="61.16368" lon="5.30553">
        <ele>123.527148</ele>
        <time>2020-07-26T11:54:11.331Z</time>
      </trkpt>
      <trkpt lat="61.16523" lon="5.30195">
        <ele>111.49379</ele>
        <time>2020-07-26T11:54:31.321Z</time>
      </trkpt>
      <trkpt lat="61.16746" lon="5.29915">
        <ele>97.22561</ele>
        <time>2020-07-26T11:54:52.317Z</time>
      </trkpt>
      <trkpt lat="61.17002" lon="5.29777">
        <ele>91.229008</ele>
        <time>2020-07-26T11:55:34.315Z</time>
      </trkpt>
      <trkpt lat="61.17219" lon="5.29626">
        <ele>81.844896</ele>
        <time>2020-07-26T11:59:35.311Z</time>
      </trkpt>
      <trkpt lat="61.17378" lon="5.29947">
        <ele>70.008917</ele>
        <time>2020-07-26T12:00:03.338Z</time>
      </trkpt>
      <trkpt lat="61.1751" lon="5.29787">
        <ele>70.342818</ele>
        <time>2020-07-26T12:00:58.329Z</time>
      </trkpt>
      <trkpt lat="61.17718" lon="5.29863">
        <ele>71.499231</ele>
        <time>2020-07-26T12:02:09.337Z</time>
      </trkpt>
      <trkpt lat="61.17914" lon="5.29992">
        <ele>74.487346</ele>
        <time>2020-07-26T12:03:27.337Z</time>
      </trkpt>
      <trkpt lat="61.18111" lon="5.30223">
        <ele>74.052221</ele>
        <time>2020-07-26T12:04:28.331Z</time>
      </trkpt>
      <trkpt lat="61.18206" lon="5.30682">
        <ele>63.739595</ele>
        <time>2020-07-26T12:05:02.328Z</time>
      </trkpt>
      <trkpt lat="61.18324" lon="5.3101">
        <ele>55.815141</ele>
        <time>2020-07-26T12:05:24.324Z</time>
      </trkpt>
      <trkpt lat="61.18476" lon="5.31401">
        <ele>56.859122</ele>
        <time>2020-07-26T12:06:06.338Z</time>
      </trkpt>
      <trkpt lat="61.18688" lon="5.31397">
        <ele>64.018306</ele>
        <time>2020-07-26T12:07:46.345Z</time>
      </trkpt>
      <trkpt lat="61.1892" lon="5.31199">
        <ele>58.194853</ele>
        <time>2020-07-26T12:08:24.325Z</time>
      </trkpt>
      <trkpt lat="61.18941" lon="5.3076">
        <ele>56.038914</ele>
        <time>2020-07-26T12:09:13.319Z</time>
      </trkpt>
      <trkpt lat="61.19004" lon="5.30364">
        <ele>68.166951</ele>
        <time>2020-07-26T12:11:01.342Z</time>
      </trkpt>
      <trkpt lat="61.19124" lon="5.29998">
        <ele>78.696823</ele>
        <time>2020-07-26T12:12:36.365Z</time>
      </trkpt>
      <trkpt lat="61.19269" lon="5.29691">
        <ele>80.969395</ele>
        <time>2020-07-26T12:13:57.325Z</time>
      </trkpt>
      <trkpt lat="61.19436" lon="5.29386">
        <ele>68.467279</ele>
        <time>2020-07-26T12:14:59.327Z</time>
      </trkpt>
      <trkpt lat="61.19588" lon="5.29018">
        <ele>82.236755</ele>
        <time>2020-07-26T12:15:41.304Z</time>
      </trkpt>
      <trkpt lat="61.19734" lon="5.28647">
        <ele>84.980736</ele>
        <time>2020-07-26T12:16:47.369Z</time>
      </trkpt>
      <trkpt lat="61.19898" lon="5.28232">
        <ele>70.935329</ele>
        <time>2020-07-26T12:17:26.339Z</time>
      </trkpt>
      <trkpt lat="61.20025" lon="5.27829">
        <ele>59.825952</ele>
        <time>2020-07-26T12:17:52.341Z</time>
      </trkpt>
      <trkpt lat="61.20139" lon="5.27404">
        <ele>60.876288</ele>
        <time>2020-07-26T12:18:35.332Z</time>
      </trkpt>
      <trkpt lat="61.20274" lon="5.27084">
        <ele>62.176313</ele>
        <time>2020-07-26T12:19:16.314Z</time>
      </trkpt>
      <trkpt lat="61.20416" lon="5.26701">
        <ele>56.944036</ele>
        <time>2020-07-26T12:20:04.318Z</time>
      </trkpt>
      <trkpt lat="61.20528" lon="5.26312">
        <ele>63.59184</ele>
        <time>2020-07-26T12:20:57.321Z</time>
      </trkpt>
      <trkpt lat="61.20611" lon="5.25906">
        <ele>69.10075</ele>
        <time>2020-07-26T12:22:17.338Z</time>
      </trkpt>
      <trkpt lat="61.20722" lon="5.25467">
        <ele>57.062291</ele>
        <time>2020-07-26T12:23:09.321Z</time>
      </trkpt>
      <trkpt lat="61.2083" lon="5.25033">
        <ele>60.955893</ele>
        <time>2020-07-26T12:24:07.356Z</time>
      </trkpt>
      <trkpt lat="61.20965" lon="5.24638">
        <ele>58.785307</ele>
        <time>2020-07-26T12:25:02.350Z</time>
      </trkpt>
      <trkpt lat="61.21049" lon="5.2425">
        <ele>55.091122</ele>
        <time>2020-07-26T12:25:44.345Z</time>
      </trkpt>
      <trkpt lat="61.21158" lon="5.23829">
        <ele>60.076135</ele>
        <time>2020-07-26T12:26:35.358Z</time>
      </trkpt>
      <trkpt lat="61.2127" lon="5.23458">
        <ele>66.027512</ele>
        <time>2020-07-26T12:27:43.359Z</time>
      </trkpt>
      <trkpt lat="61.2137" lon="5.23057">
        <ele>66.92407</ele>
        <time>2020-07-26T12:28:59.334Z</time>
      </trkpt>
      <trkpt lat="61.21494" lon="5.22668">
        <ele>67.549825</ele>
        <time>2020-07-26T12:29:53.302Z</time>
      </trkpt>
      <trkpt lat="61.21683" lon="5.22559">
        <ele>77.921905</ele>
        <time>2020-07-26T12:31:49.330Z</time>
      </trkpt>
      <trkpt lat="61.21833" lon="5.22284">
        <ele>85.386244</ele>
        <time>2020-07-26T12:33:21.305Z</time>
      </trkpt>
      <trkpt lat="61.21997" lon="5.22049">
        <ele>87.486202</ele>
        <time>2020-07-26T12:34:39.339Z</time>
      </trkpt>
      <trkpt lat="61.22084" lon="5.2155">
        <ele>84.246798</ele>
        <time>2020-07-26T12:35:30.321Z</time>
      </trkpt>
      <trkpt lat="61.22191" lon="5.21032">
        <ele>82.523572</ele>
        <time>2020-07-26T12:36:15.308Z</time>
      </trkpt>
      <trkpt lat="61.22263" lon="5.20618">
        <ele>83.662298</ele>
        <time>2020-07-26T12:37:18.327Z</time>
      </trkpt>
      <trkpt lat="61.22357" lon="5.20238">
        <ele>79.250429</ele>
        <time>2020-07-26T12:38:24.321Z</time>
      </trkpt>
    </trkseg>
  </trk>
  <trk>
    <name><![CDATA[Tour d'Europe: étape 029]]></name>
    <trkseg>
      <trkpt lat="61.22339" lon="5.20263">
        <ele>84.156036</ele>
        <time>2020-07-27T07:53:44.422Z</time>
      </trkpt>
      <trkpt lat="61.22461" lon="5.20494">
        <ele>90.970795</ele>
        <time>2020-07-27T07:55:29.377Z</time>
      </trkpt>
      <trkpt lat="61.2248" lon="5.20927">
        <ele>95.219433</ele>
        <time>2020-07-27T07:56:45.379Z</time>
      </trkpt>
      <trkpt lat="61.22513" lon="5.21389">
        <ele>103.851945</ele>
        <time>2020-07-27T07:58:06.375Z</time>
      </trkpt>
      <trkpt lat="61.22552" lon="5.21809">
        <ele>110.064469</ele>
        <time>2020-07-27T07:59:25.356Z</time>
      </trkpt>
      <trkpt lat="61.22569" lon="5.22239">
        <ele>117.35481</ele>
        <time>2020-07-27T08:00:44.361Z</time>
      </trkpt>
      <trkpt lat="61.22709" lon="5.22498">
        <ele>120.110488</ele>
        <time>2020-07-27T08:02:02.380Z</time>
      </trkpt>
      <trkpt lat="61.22913" lon="5.22528">
        <ele>127.541306</ele>
        <time>2020-07-27T08:03:16.381Z</time>
      </trkpt>
      <trkpt lat="61.23112" lon="5.22665">
        <ele>139.243249</ele>
        <time>2020-07-27T08:04:46.398Z</time>
      </trkpt>
      <trkpt lat="61.23191" lon="5.22338">
        <ele>161.120837</ele>
        <time>2020-07-27T08:07:09.367Z</time>
      </trkpt>
      <trkpt lat="61.23371" lon="5.22329">
        <ele>173.036315</ele>
        <time>2020-07-27T08:08:55.368Z</time>
      </trkpt>
      <trkpt lat="61.23562" lon="5.22483">
        <ele>170.188188</ele>
        <time>2020-07-27T08:10:25.370Z</time>
      </trkpt>
      <trkpt lat="61.23767" lon="5.22473">
        <ele>173.333404</ele>
        <time>2020-07-27T08:11:37.358Z</time>
      </trkpt>
      <trkpt lat="61.23952" lon="5.22604">
        <ele>177.769976</ele>
        <time>2020-07-27T08:12:50.371Z</time>
      </trkpt>
      <trkpt lat="61.24152" lon="5.22684">
        <ele>191.245192</ele>
        <time>2020-07-27T08:14:34.355Z</time>
      </trkpt>
      <trkpt lat="61.24346" lon="5.2255">
        <ele>196.654951</ele>
        <time>2020-07-27T08:16:02.351Z</time>
      </trkpt>
      <trkpt lat="61.24539" lon="5.22421">
        <ele>192.670838</ele>
        <time>2020-07-27T08:17:03.396Z</time>
      </trkpt>
      <trkpt lat="61.24672" lon="5.22103">
        <ele>202.085041</ele>
        <time>2020-07-27T08:18:02.378Z</time>
      </trkpt>
      <trkpt lat="61.24704" lon="5.21672">
        <ele>198.651273</ele>
        <time>2020-07-27T08:18:45.382Z</time>
      </trkpt>
      <trkpt lat="61.24953" lon="5.21645">
        <ele>192.763311</ele>
        <time>2020-07-27T08:19:48.376Z</time>
      </trkpt>
      <trkpt lat="61.25155" lon="5.2182">
        <ele>195.728394</ele>
        <time>2020-07-27T08:20:39.374Z</time>
      </trkpt>
      <trkpt lat="61.25322" lon="5.22131">
        <ele>195.55717</ele>
        <time>2020-07-27T08:21:31.367Z</time>
      </trkpt>
      <trkpt lat="61.25466" lon="5.22448">
        <ele>195.243944</ele>
        <time>2020-07-27T08:22:22.395Z</time>
      </trkpt>
      <trkpt lat="61.25672" lon="5.22567">
        <ele>197.081204</ele>
        <time>2020-07-27T08:23:10.384Z</time>
      </trkpt>
      <trkpt lat="61.25903" lon="5.22588">
        <ele>201.345317</ele>
        <time>2020-07-27T08:24:11.373Z</time>
      </trkpt>
      <trkpt lat="61.26088" lon="5.22731">
        <ele>195.590409</ele>
        <time>2020-07-27T08:24:52.355Z</time>
      </trkpt>
      <trkpt lat="61.26264" lon="5.22953">
        <ele>189.077085</ele>
        <time>2020-07-27T08:25:33.360Z</time>
      </trkpt>
      <trkpt lat="61.26471" lon="5.23012">
        <ele>183.051829</ele>
        <time>2020-07-27T08:26:16.368Z</time>
      </trkpt>
      <trkpt lat="61.26694" lon="5.22753">
        <ele>173.847328</ele>
        <time>2020-07-27T08:26:49.379Z</time>
      </trkpt>
      <trkpt lat="61.26852" lon="5.22402">
        <ele>162.215298</ele>
        <time>2020-07-27T08:27:09.367Z</time>
      </trkpt>
      <trkpt lat="61.27118" lon="5.22195">
        <ele>147.337379</ele>
        <time>2020-07-27T08:27:44.393Z</time>
      </trkpt>
      <trkpt lat="61.2724" lon="5.21791">
        <ele>151.342628</ele>
        <time>2020-07-27T08:28:30.385Z</time>
      </trkpt>
      <trkpt lat="61.27403" lon="5.21515">
        <ele>150.665379</ele>
        <time>2020-07-27T08:29:27.374Z</time>
      </trkpt>
      <trkpt lat="61.27632" lon="5.21371">
        <ele>125.164452</ele>
        <time>2020-07-27T08:29:54.378Z</time>
      </trkpt>
      <trkpt lat="61.27772" lon="5.21095">
        <ele>112.141902</ele>
        <time>2020-07-27T08:30:16.379Z</time>
      </trkpt>
      <trkpt lat="61.27998" lon="5.20912">
        <ele>99.460546</ele>
        <time>2020-07-27T08:30:45.361Z</time>
      </trkpt>
      <trkpt lat="61.28137" lon="5.20443">
        <ele>92.330272</ele>
        <time>2020-07-27T08:31:24.372Z</time>
      </trkpt>
      <trkpt lat="61.28289" lon="5.20057">
        <ele>90.123729</ele>
        <time>2020-07-27T08:31:56.361Z</time>
      </trkpt>
      <trkpt lat="61.28388" lon="5.19585">
        <ele>86.688568</ele>
        <time>2020-07-27T08:32:38.400Z</time>
      </trkpt>
      <trkpt lat="61.28478" lon="5.19169">
        <ele>86.879711</ele>
        <time>2020-07-27T08:33:20.392Z</time>
      </trkpt>
      <trkpt lat="61.28611" lon="5.18839">
        <ele>87.008575</ele>
        <time>2020-07-27T08:34:02.360Z</time>
      </trkpt>
      <trkpt lat="61.28825" lon="5.18687">
        <ele>75.102232</ele>
        <time>2020-07-27T08:34:35.373Z</time>
      </trkpt>
      <trkpt lat="61.28882" lon="5.18237">
        <ele>61.219787</ele>
        <time>2020-07-27T08:34:56.400Z</time>
      </trkpt>
      <trkpt lat="61.29052" lon="5.17838">
        <ele>51.344835</ele>
        <time>2020-07-27T08:35:26.381Z</time>
      </trkpt>
      <trkpt lat="61.29252" lon="5.17673">
        <ele>52.856824</ele>
        <time>2020-07-27T08:36:03.375Z</time>
      </trkpt>
      <trkpt lat="61.29451" lon="5.17765">
        <ele>62.586697</ele>
        <time>2020-07-27T08:37:15.400Z</time>
      </trkpt>
      <trkpt lat="61.29645" lon="5.17623">
        <ele>74.96335</ele>
        <time>2020-07-27T08:38:37.369Z</time>
      </trkpt>
      <trkpt lat="61.2982" lon="5.17476">
        <ele>90.395642</ele>
        <time>2020-07-27T08:40:18.373Z</time>
      </trkpt>
      <trkpt lat="61.30025" lon="5.17389">
        <ele>80.995838</ele>
        <time>2020-07-27T08:41:36.379Z</time>
      </trkpt>
      <trkpt lat="61.30113" lon="5.16985">
        <ele>65.901182</ele>
        <time>2020-07-27T08:42:13.376Z</time>
      </trkpt>
      <trkpt lat="61.30209" lon="5.16621">
        <ele>70.752862</ele>
        <time>2020-07-27T08:43:25.365Z</time>
      </trkpt>
      <trkpt lat="61.30189" lon="5.16166">
        <ele>76.157082</ele>
        <time>2020-07-27T08:44:48.397Z</time>
      </trkpt>
      <trkpt lat="61.30089" lon="5.15782">
        <ele>79.327563</ele>
        <time>2020-07-27T08:45:52.399Z</time>
      </trkpt>
      <trkpt lat="61.29913" lon="5.15472">
        <ele>76.985453</ele>
        <time>2020-07-27T08:46:42.406Z</time>
      </trkpt>
      <trkpt lat="61.29687" lon="5.15346">
        <ele>76.299817</ele>
        <time>2020-07-27T08:47:30.399Z</time>
      </trkpt>
      <trkpt lat="61.29536" lon="5.14998">
        <ele>76.675371</ele>
        <time>2020-07-27T08:48:31.362Z</time>
      </trkpt>
      <trkpt lat="61.2939" lon="5.14621">
        <ele>64.636654</ele>
        <time>2020-07-27T08:49:00.367Z</time>
      </trkpt>
      <trkpt lat="61.29209" lon="5.14228">
        <ele>52.436606</ele>
        <time>2020-07-27T08:49:30.382Z</time>
      </trkpt>
      <trkpt lat="61.29095" lon="5.13827">
        <ele>54.297157</ele>
        <time>2020-07-27T08:50:28.374Z</time>
      </trkpt>
      <trkpt lat="61.28952" lon="5.1349">
        <ele>60.719403</ele>
        <time>2020-07-27T08:51:52.416Z</time>
      </trkpt>
      <trkpt lat="61.28996" lon="5.13054">
        <ele>55.293701</ele>
        <time>2020-07-27T08:52:26.385Z</time>
      </trkpt>
      <trkpt lat="61.29095" lon="5.1265">
        <ele>57.125602</ele>
        <time>2020-07-27T08:53:20.388Z</time>
      </trkpt>
      <trkpt lat="61.29197" lon="5.12227">
        <ele>68.121593</ele>
        <time>2020-07-27T08:58:00.377Z</time>
      </trkpt>
      <trkpt lat="61.29294" lon="5.11851">
        <ele>77.145725</ele>
        <time>2020-07-27T08:59:32.390Z</time>
      </trkpt>
      <trkpt lat="61.29387" lon="5.11475">
        <ele>79.703764</ele>
        <time>2020-07-27T09:01:07.383Z</time>
      </trkpt>
      <trkpt lat="61.29385" lon="5.10996">
        <ele>76.297737</ele>
        <time>2020-07-27T09:01:48.377Z</time>
      </trkpt>
      <trkpt lat="61.29304" lon="5.1051">
        <ele>71.838325</ele>
        <time>2020-07-27T09:02:30.422Z</time>
      </trkpt>
      <trkpt lat="61.29386" lon="5.10165">
        <ele>73.016564</ele>
        <time>2020-07-27T09:03:25.376Z</time>
      </trkpt>
      <trkpt lat="61.29408" lon="5.09598">
        <ele>71.092667</ele>
        <time>2020-07-27T09:04:12.383Z</time>
      </trkpt>
      <trkpt lat="61.29449" lon="5.09129">
        <ele>70.24811</ele>
        <time>2020-07-27T09:05:09.415Z</time>
      </trkpt>
      <trkpt lat="61.29486" lon="5.08655">
        <ele>62.998028</ele>
        <time>2020-07-27T09:05:42.371Z</time>
      </trkpt>
      <trkpt lat="61.29705" lon="5.08457">
        <ele>54.368993</ele>
        <time>2020-07-27T09:06:22.374Z</time>
      </trkpt>
      <trkpt lat="61.34428" lon="5.06531">
        <ele>40.032402</ele>
        <time>2020-07-27T10:13:40.358Z</time>
      </trkpt>
      <trkpt lat="61.34635" lon="5.06264">
        <ele>50.689672</ele>
        <time>2020-07-27T10:16:51.357Z</time>
      </trkpt>
      <trkpt lat="61.34738" lon="5.06577">
        <ele>53.56943</ele>
        <time>2020-07-27T10:17:54.354Z</time>
      </trkpt>
      <trkpt lat="61.34776" lon="5.07014">
        <ele>50.041029</ele>
        <time>2020-07-27T10:18:46.341Z</time>
      </trkpt>
      <trkpt lat="61.3473" lon="5.07483">
        <ele>51.740251</ele>
        <time>2020-07-27T10:19:42.368Z</time>
      </trkpt>
      <trkpt lat="61.34617" lon="5.07803">
        <ele>62.239868</ele>
        <time>2020-07-27T10:20:55.379Z</time>
      </trkpt>
      <trkpt lat="61.34604" lon="5.08245">
        <ele>74.382733</ele>
        <time>2020-07-27T10:22:35.362Z</time>
      </trkpt>
      <trkpt lat="61.34576" lon="5.0867">
        <ele>75.765562</ele>
        <time>2020-07-27T10:23:38.348Z</time>
      </trkpt>
      <trkpt lat="61.34622" lon="5.09127">
        <ele>69.058731</ele>
        <time>2020-07-27T10:24:28.386Z</time>
      </trkpt>
      <trkpt lat="61.3469" lon="5.09538">
        <ele>65.271234</ele>
        <time>2020-07-27T10:25:08.381Z</time>
      </trkpt>
      <trkpt lat="61.34748" lon="5.09963">
        <ele>63.02261</ele>
        <time>2020-07-27T10:25:48.349Z</time>
      </trkpt>
      <trkpt lat="61.34947" lon="5.10433">
        <ele>51.644104</ele>
        <time>2020-07-27T10:26:28.378Z</time>
      </trkpt>
      <trkpt lat="61.35107" lon="5.10754">
        <ele>54.700607</ele>
        <time>2020-07-27T10:27:20.364Z</time>
      </trkpt>
      <trkpt lat="61.35284" lon="5.11055">
        <ele>61.107269</ele>
        <time>2020-07-27T10:28:22.360Z</time>
      </trkpt>
      <trkpt lat="61.35459" lon="5.11269">
        <ele>72.749277</ele>
        <time>2020-07-27T10:29:56.363Z</time>
      </trkpt>
      <trkpt lat="61.35655" lon="5.11331">
        <ele>78.313898</ele>
        <time>2020-07-27T10:31:27.353Z</time>
      </trkpt>
      <trkpt lat="61.35758" lon="5.11687">
        <ele>82.634119</ele>
        <time>2020-07-27T10:32:31.362Z</time>
      </trkpt>
      <trkpt lat="61.35971" lon="5.1181">
        <ele>81.752968</ele>
        <time>2020-07-27T10:33:36.363Z</time>
      </trkpt>
      <trkpt lat="61.36188" lon="5.11775">
        <ele>81.191878</ele>
        <time>2020-07-27T10:34:32.357Z</time>
      </trkpt>
      <trkpt lat="61.3633" lon="5.11365">
        <ele>75.37705</ele>
        <time>2020-07-27T10:35:12.393Z</time>
      </trkpt>
      <trkpt lat="61.36526" lon="5.11464">
        <ele>65.314302</ele>
        <time>2020-07-27T10:35:34.355Z</time>
      </trkpt>
      <trkpt lat="61.36688" lon="5.11293">
        <ele>62.107239</ele>
        <time>2020-07-27T10:36:09.363Z</time>
      </trkpt>
      <trkpt lat="61.36851" lon="5.10923">
        <ele>59.628841</ele>
        <time>2020-07-27T10:36:50.370Z</time>
      </trkpt>
      <trkpt lat="61.37069" lon="5.10931">
        <ele>59.545427</ele>
        <time>2020-07-27T10:37:45.363Z</time>
      </trkpt>
      <trkpt lat="61.37228" lon="5.10703">
        <ele>70.517898</ele>
        <time>2020-07-27T10:39:24.370Z</time>
      </trkpt>
      <trkpt lat="61.37436" lon="5.10637">
        <ele>73.985913</ele>
        <time>2020-07-27T10:40:40.358Z</time>
      </trkpt>
      <trkpt lat="61.37652" lon="5.10703">
        <ele>72.647611</ele>
        <time>2020-07-27T10:41:37.395Z</time>
      </trkpt>
      <trkpt lat="61.3786" lon="5.10922">
        <ele>68.109457</ele>
        <time>2020-07-27T10:42:04.354Z</time>
      </trkpt>
      <trkpt lat="61.38082" lon="5.109">
        <ele>72.929473</ele>
        <time>2020-07-27T10:43:21.351Z</time>
      </trkpt>
      <trkpt lat="61.38301" lon="5.10912">
        <ele>76.324257</ele>
        <time>2020-07-27T10:44:20.363Z</time>
      </trkpt>
      <trkpt lat="61.38468" lon="5.10689">
        <ele>79.295696</ele>
        <time>2020-07-27T10:45:29.395Z</time>
      </trkpt>
      <trkpt lat="61.38672" lon="5.10845">
        <ele>76.117776</ele>
        <time>2020-07-27T10:46:30.363Z</time>
      </trkpt>
      <trkpt lat="61.38915" lon="5.10762">
        <ele>79.887441</ele>
        <time>2020-07-27T10:47:31.372Z</time>
      </trkpt>
      <trkpt lat="61.3913" lon="5.1092">
        <ele>82.264609</ele>
        <time>2020-07-27T10:48:44.384Z</time>
      </trkpt>
      <trkpt lat="61.3935" lon="5.10978">
        <ele>82.415239</ele>
        <time>2020-07-27T10:49:49.376Z</time>
      </trkpt>
      <trkpt lat="61.39546" lon="5.10976">
        <ele>88.460298</ele>
        <time>2020-07-27T10:51:02.384Z</time>
      </trkpt>
      <trkpt lat="61.39751" lon="5.10956">
        <ele>92.799273</ele>
        <time>2020-07-27T10:52:27.377Z</time>
      </trkpt>
      <trkpt lat="61.39945" lon="5.10829">
        <ele>103.277834</ele>
        <time>2020-07-27T10:53:52.375Z</time>
      </trkpt>
      <trkpt lat="61.40213" lon="5.10717">
        <ele>82.902191</ele>
        <time>2020-07-27T10:54:33.355Z</time>
      </trkpt>
      <trkpt lat="61.40428" lon="5.10796">
        <ele>84.31346</ele>
        <time>2020-07-27T10:55:49.358Z</time>
      </trkpt>
      <trkpt lat="61.40648" lon="5.10711">
        <ele>84.808405</ele>
        <time>2020-07-27T10:56:44.369Z</time>
      </trkpt>
      <trkpt lat="61.40852" lon="5.10915">
        <ele>77.729891</ele>
        <time>2020-07-27T10:57:29.370Z</time>
      </trkpt>
      <trkpt lat="61.41057" lon="5.10975">
        <ele>75.367197</ele>
        <time>2020-07-27T10:58:28.367Z</time>
      </trkpt>
      <trkpt lat="61.41197" lon="5.11311">
        <ele>73.986424</ele>
        <time>2020-07-27T10:59:27.359Z</time>
      </trkpt>
      <trkpt lat="61.41387" lon="5.11618">
        <ele>73.402986</ele>
        <time>2020-07-27T11:00:25.365Z</time>
      </trkpt>
      <trkpt lat="61.41453" lon="5.12043">
        <ele>73.913266</ele>
        <time>2020-07-27T11:01:25.367Z</time>
      </trkpt>
      <trkpt lat="61.41531" lon="5.1249">
        <ele>73.064354</ele>
        <time>2020-07-27T11:02:14.363Z</time>
      </trkpt>
      <trkpt lat="61.41636" lon="5.12941">
        <ele>73.915146</ele>
        <time>2020-07-27T11:03:12.420Z</time>
      </trkpt>
      <trkpt lat="61.4176" lon="5.13367">
        <ele>74.841386</ele>
        <time>2020-07-27T11:04:11.360Z</time>
      </trkpt>
      <trkpt lat="61.41983" lon="5.13458">
        <ele>75.047632</ele>
        <time>2020-07-27T11:05:09.394Z</time>
      </trkpt>
      <trkpt lat="61.42116" lon="5.13821">
        <ele>75.605655</ele>
        <time>2020-07-27T11:06:06.368Z</time>
      </trkpt>
      <trkpt lat="61.42143" lon="5.14266">
        <ele>76.661136</ele>
        <time>2020-07-27T11:07:06.358Z</time>
      </trkpt>
      <trkpt lat="61.42153" lon="5.14722">
        <ele>77.903706</ele>
        <time>2020-07-27T11:08:05.365Z</time>
      </trkpt>
      <trkpt lat="61.42227" lon="5.15128">
        <ele>76.267114</ele>
        <time>2020-07-27T11:08:49.369Z</time>
      </trkpt>
      <trkpt lat="61.42427" lon="5.15237">
        <ele>77.155478</ele>
        <time>2020-07-27T11:09:39.375Z</time>
      </trkpt>
      <trkpt lat="61.42589" lon="5.15586">
        <ele>70.65016</ele>
        <time>2020-07-27T11:10:26.377Z</time>
      </trkpt>
      <trkpt lat="61.42633" lon="5.16105">
        <ele>60.47731</ele>
        <time>2020-07-27T11:11:06.391Z</time>
      </trkpt>
      <trkpt lat="61.42696" lon="5.16588">
        <ele>54.702562</ele>
        <time>2020-07-27T11:11:34.409Z</time>
      </trkpt>
      <trkpt lat="61.42899" lon="5.16755">
        <ele>56.029948</ele>
        <time>2020-07-27T11:12:26.372Z</time>
      </trkpt>
      <trkpt lat="61.43087" lon="5.1657">
        <ele>61.596668</ele>
        <time>2020-07-27T11:13:26.377Z</time>
      </trkpt>
      <trkpt lat="61.43121" lon="5.16606">
        <ele>76.415687</ele>
        <time>2020-07-27T11:15:25.354Z</time>
      </trkpt>
      <trkpt lat="61.43095" lon="5.17021">
        <ele>93.203939</ele>
        <time>2020-07-27T11:17:46.372Z</time>
      </trkpt>
      <trkpt lat="61.43032" lon="5.17398">
        <ele>107.869471</ele>
        <time>2020-07-27T11:20:06.367Z</time>
      </trkpt>
      <trkpt lat="61.43006" lon="5.17809">
        <ele>120.356473</ele>
        <time>2020-07-27T11:22:02.380Z</time>
      </trkpt>
      <trkpt lat="61.42945" lon="5.18193">
        <ele>130.3661</ele>
        <time>2020-07-27T11:23:48.358Z</time>
      </trkpt>
      <trkpt lat="61.42873" lon="5.18557">
        <ele>144.246702</ele>
        <time>2020-07-27T11:26:05.387Z</time>
      </trkpt>
      <trkpt lat="61.42922" lon="5.18948">
        <ele>154.063086</ele>
        <time>2020-07-27T11:27:56.373Z</time>
      </trkpt>
      <trkpt lat="61.43006" lon="5.19342">
        <ele>156.174678</ele>
        <time>2020-07-27T11:31:17.388Z</time>
      </trkpt>
      <trkpt lat="61.43053" lon="5.19753">
        <ele>160.7565</ele>
        <time>2020-07-27T11:32:33.357Z</time>
      </trkpt>
      <trkpt lat="61.43009" lon="5.20121">
        <ele>162.55284</ele>
        <time>2020-07-27T11:33:49.382Z</time>
      </trkpt>
      <trkpt lat="61.43023" lon="5.20746">
        <ele>173.014074</ele>
        <time>2020-07-27T11:35:44.407Z</time>
      </trkpt>
      <trkpt lat="61.43125" lon="5.21173">
        <ele>175.713947</ele>
        <time>2020-07-27T11:36:56.381Z</time>
      </trkpt>
      <trkpt lat="61.43283" lon="5.21428">
        <ele>176.980474</ele>
        <time>2020-07-27T11:37:46.381Z</time>
      </trkpt>
      <trkpt lat="61.43472" lon="5.21542">
        <ele>183.567009</ele>
        <time>2020-07-27T11:39:18.357Z</time>
      </trkpt>
      <trkpt lat="61.43659" lon="5.2165">
        <ele>185.4724</ele>
        <time>2020-07-27T11:40:48.382Z</time>
      </trkpt>
      <trkpt lat="61.43862" lon="5.21767">
        <ele>185.213151</ele>
        <time>2020-07-27T11:41:40.417Z</time>
      </trkpt>
      <trkpt lat="61.44066" lon="5.21893">
        <ele>187.613079</ele>
        <time>2020-07-27T11:42:28.395Z</time>
      </trkpt>
      <trkpt lat="61.44302" lon="5.21854">
        <ele>187.814957</ele>
        <time>2020-07-27T11:43:13.393Z</time>
      </trkpt>
      <trkpt lat="61.44539" lon="5.22013">
        <ele>179.691257</ele>
        <time>2020-07-27T11:43:42.399Z</time>
      </trkpt>
      <trkpt lat="61.44752" lon="5.22127">
        <ele>163.441616</ele>
        <time>2020-07-27T11:44:02.398Z</time>
      </trkpt>
      <trkpt lat="61.44963" lon="5.2205">
        <ele>138.975166</ele>
        <time>2020-07-27T11:44:23.367Z</time>
      </trkpt>
      <trkpt lat="61.45068" lon="5.2161">
        <ele>113.380067</ele>
        <time>2020-07-27T11:44:49.416Z</time>
      </trkpt>
      <trkpt lat="61.45155" lon="5.21661">
        <ele>95.026945</ele>
        <time>2020-07-27T11:45:32.400Z</time>
      </trkpt>
      <trkpt lat="61.45324" lon="5.22057">
        <ele>85.481913</ele>
        <time>2020-07-27T11:46:15.369Z</time>
      </trkpt>
      <trkpt lat="61.45394" lon="5.22557">
        <ele>77.558048</ele>
        <time>2020-07-27T11:46:51.361Z</time>
      </trkpt>
      <trkpt lat="61.45382" lon="5.23058">
        <ele>73.064756</ele>
        <time>2020-07-27T11:47:34.365Z</time>
      </trkpt>
      <trkpt lat="61.45413" lon="5.23565">
        <ele>68.987961</ele>
        <time>2020-07-27T11:48:14.398Z</time>
      </trkpt>
      <trkpt lat="61.45522" lon="5.23996">
        <ele>69.218788</ele>
        <time>2020-07-27T11:49:07.369Z</time>
      </trkpt>
      <trkpt lat="61.45641" lon="5.24375">
        <ele>75.601472</ele>
        <time>2020-07-27T11:50:29.384Z</time>
      </trkpt>
      <trkpt lat="61.45817" lon="5.24624">
        <ele>81.298113</ele>
        <time>2020-07-27T11:51:54.396Z</time>
      </trkpt>
      <trkpt lat="61.45993" lon="5.24849">
        <ele>86.878974</ele>
        <time>2020-07-27T11:53:17.391Z</time>
      </trkpt>
      <trkpt lat="61.46193" lon="5.25108">
        <ele>77.295654</ele>
        <time>2020-07-27T11:53:46.368Z</time>
      </trkpt>
      <trkpt lat="61.46415" lon="5.2541">
        <ele>72.058765</ele>
        <time>2020-07-27T11:54:27.378Z</time>
      </trkpt>
      <trkpt lat="61.46614" lon="5.25546">
        <ele>78.027517</ele>
        <time>2020-07-27T11:55:53.368Z</time>
      </trkpt>
      <trkpt lat="61.46829" lon="5.25676">
        <ele>72.307407</ele>
        <time>2020-07-27T11:56:25.406Z</time>
      </trkpt>
      <trkpt lat="61.46977" lon="5.26073">
        <ele>67.697057</ele>
        <time>2020-07-27T11:56:58.394Z</time>
      </trkpt>
      <trkpt lat="61.47047" lon="5.26501">
        <ele>75.934915</ele>
        <time>2020-07-27T11:57:59.375Z</time>
      </trkpt>
      <trkpt lat="61.47072" lon="5.26948">
        <ele>81.169026</ele>
        <time>2020-07-27T11:59:12.394Z</time>
      </trkpt>
      <trkpt lat="61.47033" lon="5.27444">
        <ele>74.304729</ele>
        <time>2020-07-27T11:59:54.429Z</time>
      </trkpt>
      <trkpt lat="61.46983" lon="5.27915">
        <ele>70.64825</ele>
        <time>2020-07-27T12:00:46.370Z</time>
      </trkpt>
      <trkpt lat="61.46934" lon="5.2839">
        <ele>73.960603</ele>
        <time>2020-07-27T12:01:40.371Z</time>
      </trkpt>
      <trkpt lat="61.46902" lon="5.28834">
        <ele>83.153628</ele>
        <time>2020-07-27T12:02:50.397Z</time>
      </trkpt>
      <trkpt lat="61.46824" lon="5.29198">
        <ele>99.402825</ele>
        <time>2020-07-27T12:04:47.381Z</time>
      </trkpt>
      <trkpt lat="61.4671" lon="5.29519">
        <ele>107.904432</ele>
        <time>2020-07-27T12:06:58.434Z</time>
      </trkpt>
      <trkpt lat="61.46588" lon="5.29869">
        <ele>126.217057</ele>
        <time>2020-07-27T12:09:26.370Z</time>
      </trkpt>
      <trkpt lat="61.46485" lon="5.30209">
        <ele>144.281979</ele>
        <time>2020-07-27T12:11:40.384Z</time>
      </trkpt>
      <trkpt lat="61.46356" lon="5.30722">
        <ele>130.227891</ele>
        <time>2020-07-27T12:12:21.373Z</time>
      </trkpt>
      <trkpt lat="61.46269" lon="5.31147">
        <ele>111.627485</ele>
        <time>2020-07-27T12:12:43.373Z</time>
      </trkpt>
      <trkpt lat="61.4615" lon="5.31569">
        <ele>92.913468</ele>
        <time>2020-07-27T12:13:07.386Z</time>
      </trkpt>
      <trkpt lat="61.46035" lon="5.31975">
        <ele>87.470472</ele>
        <time>2020-07-27T12:14:44.380Z</time>
      </trkpt>
      <trkpt lat="61.46097" lon="5.33453">
        <ele>-1.990962</ele>
        <time>2020-07-27T12:16:39.402Z</time>
      </trkpt>
      <trkpt lat="61.46061" lon="5.33865">
        <ele>28.756429</ele>
        <time>2020-07-27T12:17:00.390Z</time>
      </trkpt>
      <trkpt lat="61.46007" lon="5.34318">
        <ele>53.523936</ele>
        <time>2020-07-27T12:17:35.381Z</time>
      </trkpt>
      <trkpt lat="61.45992" lon="5.34771">
        <ele>58.321132</ele>
        <time>2020-07-27T12:18:07.391Z</time>
      </trkpt>
      <trkpt lat="61.46008" lon="5.35284">
        <ele>56.529865</ele>
        <time>2020-07-27T12:18:44.371Z</time>
      </trkpt>
      <trkpt lat="61.46049" lon="5.357">
        <ele>68.418427</ele>
        <time>2020-07-27T12:20:41.370Z</time>
      </trkpt>
      <trkpt lat="61.46055" lon="5.36121">
        <ele>77.698895</ele>
        <time>2020-07-27T12:22:27.380Z</time>
      </trkpt>
      <trkpt lat="61.46042" lon="5.36582">
        <ele>72.404741</ele>
        <time>2020-07-27T12:23:15.407Z</time>
      </trkpt>
      <trkpt lat="61.4602" lon="5.37051">
        <ele>75.963667</ele>
        <time>2020-07-27T12:24:20.383Z</time>
      </trkpt>
      <trkpt lat="61.46036" lon="5.3748">
        <ele>82.055961</ele>
        <time>2020-07-27T12:25:38.374Z</time>
      </trkpt>
      <trkpt lat="61.45977" lon="5.37982">
        <ele>81.711007</ele>
        <time>2020-07-27T12:26:41.396Z</time>
      </trkpt>
      <trkpt lat="61.45914" lon="5.38404">
        <ele>71.822778</ele>
        <time>2020-07-27T12:27:28.407Z</time>
      </trkpt>
      <trkpt lat="61.45821" lon="5.38776">
        <ele>79.909248</ele>
        <time>2020-07-27T12:29:19.380Z</time>
      </trkpt>
      <trkpt lat="61.45733" lon="5.39139">
        <ele>106.837844</ele>
        <time>2020-07-27T12:31:33.399Z</time>
      </trkpt>
      <trkpt lat="61.45619" lon="5.39467">
        <ele>128.607984</ele>
        <time>2020-07-27T12:33:35.389Z</time>
      </trkpt>
      <trkpt lat="61.45493" lon="5.39799">
        <ele>138.834207</ele>
        <time>2020-07-27T12:35:26.387Z</time>
      </trkpt>
      <trkpt lat="61.45394" lon="5.40146">
        <ele>145.169654</ele>
        <time>2020-07-27T12:37:08.389Z</time>
      </trkpt>
      <trkpt lat="61.45323" lon="5.40543">
        <ele>145.821441</ele>
        <time>2020-07-27T12:38:43.404Z</time>
      </trkpt>
      <trkpt lat="61.45299" lon="5.40943">
        <ele>154.21076</ele>
        <time>2020-07-27T12:40:09.399Z</time>
      </trkpt>
      <trkpt lat="61.45272" lon="5.41363">
        <ele>165.024645</ele>
        <time>2020-07-27T12:41:38.377Z</time>
      </trkpt>
      <trkpt lat="61.45214" lon="5.41749">
        <ele>166.867872</ele>
        <time>2020-07-27T12:43:00.379Z</time>
      </trkpt>
      <trkpt lat="61.45212" lon="5.42257">
        <ele>162.476074</ele>
        <time>2020-07-27T12:44:03.402Z</time>
      </trkpt>
      <trkpt lat="61.45151" lon="5.42778">
        <ele>146.585035</ele>
        <time>2020-07-27T12:44:23.387Z</time>
      </trkpt>
      <trkpt lat="61.45062" lon="5.43226">
        <ele>132.896877</ele>
        <time>2020-07-27T12:44:43.413Z</time>
      </trkpt>
      <trkpt lat="61.44992" lon="5.43791">
        <ele>110.238866</ele>
        <time>2020-07-27T12:45:03.376Z</time>
      </trkpt>
      <trkpt lat="61.44902" lon="5.44277">
        <ele>95.691515</ele>
        <time>2020-07-27T12:45:23.396Z</time>
      </trkpt>
      <trkpt lat="61.44835" lon="5.44706">
        <ele>78.26868</ele>
        <time>2020-07-27T12:45:44.394Z</time>
      </trkpt>
      <trkpt lat="61.44769" lon="5.45176">
        <ele>57.152074</ele>
        <time>2020-07-27T12:46:04.393Z</time>
      </trkpt>
      <trkpt lat="61.44678" lon="5.45674">
        <ele>45.774075</ele>
        <time>2020-07-27T12:46:29.394Z</time>
      </trkpt>
      <trkpt lat="61.44594" lon="5.46053">
        <ele>75.05708</ele>
        <time>2020-07-27T12:48:10.391Z</time>
      </trkpt>
      <trkpt lat="61.44471" lon="5.46399">
        <ele>78.801332</ele>
        <time>2020-07-27T13:03:22.384Z</time>
      </trkpt>
      <trkpt lat="61.44357" lon="5.46775">
        <ele>82.532123</ele>
        <time>2020-07-27T13:04:22.381Z</time>
      </trkpt>
      <trkpt lat="61.44321" lon="5.4721">
        <ele>83.294147</ele>
        <time>2020-07-27T13:05:04.383Z</time>
      </trkpt>
      <trkpt lat="61.44283" lon="5.47658">
        <ele>81.26526</ele>
        <time>2020-07-27T13:06:03.394Z</time>
      </trkpt>
      <trkpt lat="61.44238" lon="5.48169">
        <ele>79.59404</ele>
        <time>2020-07-27T13:06:50.403Z</time>
      </trkpt>
      <trkpt lat="61.44216" lon="5.48653">
        <ele>77.424203</ele>
        <time>2020-07-27T13:07:22.385Z</time>
      </trkpt>
      <trkpt lat="61.44191" lon="5.4913">
        <ele>78.124354</ele>
        <time>2020-07-27T13:08:26.383Z</time>
      </trkpt>
      <trkpt lat="61.44144" lon="5.49619">
        <ele>78.252243</ele>
        <time>2020-07-27T13:09:22.398Z</time>
      </trkpt>
      <trkpt lat="61.44177" lon="5.50043">
        <ele>82.490261</ele>
        <time>2020-07-27T13:10:34.401Z</time>
      </trkpt>
      <trkpt lat="61.44181" lon="5.50489">
        <ele>84.437787</ele>
        <time>2020-07-27T13:11:37.416Z</time>
      </trkpt>
      <trkpt lat="61.44155" lon="5.50973">
        <ele>76.139316</ele>
        <time>2020-07-27T13:11:57.417Z</time>
      </trkpt>
      <trkpt lat="61.44121" lon="5.51452">
        <ele>62.293414</ele>
        <time>2020-07-27T13:12:20.398Z</time>
      </trkpt>
      <trkpt lat="61.44109" lon="5.51935">
        <ele>63.966429</ele>
        <time>2020-07-27T13:13:10.396Z</time>
      </trkpt>
      <trkpt lat="61.44104" lon="5.52529">
        <ele>68.1744</ele>
        <time>2020-07-27T13:13:54.398Z</time>
      </trkpt>
      <trkpt lat="61.44047" lon="5.52977">
        <ele>55.44639</ele>
        <time>2020-07-27T13:14:34.395Z</time>
      </trkpt>
      <trkpt lat="61.44014" lon="5.53391">
        <ele>50.934078</ele>
        <time>2020-07-27T13:15:14.419Z</time>
      </trkpt>
      <trkpt lat="61.44062" lon="5.53853">
        <ele>53.571786</ele>
        <time>2020-07-27T13:15:54.410Z</time>
      </trkpt>
      <trkpt lat="61.4406" lon="5.54303">
        <ele>53.272315</ele>
        <time>2020-07-27T13:16:34.393Z</time>
      </trkpt>
      <trkpt lat="61.4402" lon="5.54743">
        <ele>59.263517</ele>
        <time>2020-07-27T13:17:37.392Z</time>
      </trkpt>
      <trkpt lat="61.43989" lon="5.55165">
        <ele>71.11727</ele>
        <time>2020-07-27T13:19:15.404Z</time>
      </trkpt>
      <trkpt lat="61.43965" lon="5.55572">
        <ele>80.448407</ele>
        <time>2020-07-27T13:20:49.380Z</time>
      </trkpt>
      <trkpt lat="61.43988" lon="5.55971">
        <ele>99.126917</ele>
        <time>2020-07-27T13:23:03.394Z</time>
      </trkpt>
      <trkpt lat="61.44024" lon="5.56362">
        <ele>123.130898</ele>
        <time>2020-07-27T13:25:24.413Z</time>
      </trkpt>
      <trkpt lat="61.44041" lon="5.56779">
        <ele>134.014095</ele>
        <time>2020-07-27T13:27:49.391Z</time>
      </trkpt>
      <trkpt lat="61.44057" lon="5.57187">
        <ele>150.52009</ele>
        <time>2020-07-27T13:29:53.421Z</time>
      </trkpt>
      <trkpt lat="61.44052" lon="5.57587">
        <ele>166.535407</ele>
        <time>2020-07-27T13:32:04.372Z</time>
      </trkpt>
      <trkpt lat="61.44057" lon="5.58001">
        <ele>174.495571</ele>
        <time>2020-07-27T13:33:57.399Z</time>
      </trkpt>
      <trkpt lat="61.44027" lon="5.58403">
        <ele>186.998283</ele>
        <time>2020-07-27T13:36:07.405Z</time>
      </trkpt>
      <trkpt lat="61.43987" lon="5.58797">
        <ele>202.388954</ele>
        <time>2020-07-27T13:38:26.420Z</time>
      </trkpt>
      <trkpt lat="61.43921" lon="5.59188">
        <ele>218.525995</ele>
        <time>2020-07-27T13:40:52.405Z</time>
      </trkpt>
      <trkpt lat="61.43865" lon="5.59579">
        <ele>232.00989</ele>
        <time>2020-07-27T13:42:47.418Z</time>
      </trkpt>
      <trkpt lat="61.43839" lon="5.59995">
        <ele>242.903372</ele>
        <time>2020-07-27T13:44:35.403Z</time>
      </trkpt>
      <trkpt lat="61.43821" lon="5.60408">
        <ele>249.343862</ele>
        <time>2020-07-27T13:46:15.404Z</time>
      </trkpt>
      <trkpt lat="61.43763" lon="5.60808">
        <ele>256.583463</ele>
        <time>2020-07-27T13:47:55.405Z</time>
      </trkpt>
      <trkpt lat="61.43739" lon="5.61235">
        <ele>266.054038</ele>
        <time>2020-07-27T13:49:46.415Z</time>
      </trkpt>
      <trkpt lat="61.43733" lon="5.61662">
        <ele>265.772702</ele>
        <time>2020-07-27T13:51:01.432Z</time>
      </trkpt>
      <trkpt lat="61.43691" lon="5.62089">
        <ele>273.773677</ele>
        <time>2020-07-27T13:52:14.405Z</time>
      </trkpt>
      <trkpt lat="61.43686" lon="5.62495">
        <ele>284.693508</ele>
        <time>2020-07-27T13:54:20.406Z</time>
      </trkpt>
      <trkpt lat="61.43646" lon="5.62915">
        <ele>290.313252</ele>
        <time>2020-07-27T13:55:54.422Z</time>
      </trkpt>
      <trkpt lat="61.43598" lon="5.63354">
        <ele>289.656631</ele>
        <time>2020-07-27T13:57:07.439Z</time>
      </trkpt>
      <trkpt lat="61.43624" lon="5.63852">
        <ele>287.839962</ele>
        <time>2020-07-27T13:58:13.388Z</time>
      </trkpt>
      <trkpt lat="61.43613" lon="5.64316">
        <ele>285.010004</ele>
        <time>2020-07-27T13:59:16.414Z</time>
      </trkpt>
      <trkpt lat="61.43644" lon="5.6475">
        <ele>271.892164</ele>
        <time>2020-07-27T13:59:38.401Z</time>
      </trkpt>
      <trkpt lat="61.43735" lon="5.65192">
        <ele>259.167258</ele>
        <time>2020-07-27T13:59:58.398Z</time>
      </trkpt>
      <trkpt lat="61.43779" lon="5.6563">
        <ele>255.217941</ele>
        <time>2020-07-27T14:00:39.407Z</time>
      </trkpt>
      <trkpt lat="61.43971" lon="5.65578">
        <ele>262.999217</ele>
        <time>2020-07-27T14:01:50.400Z</time>
      </trkpt>
      <trkpt lat="61.44105" lon="5.65225">
        <ele>263.677622</ele>
        <time>2020-07-27T14:05:21.426Z</time>
      </trkpt>
      <trkpt lat="61.44309" lon="5.65199">
        <ele>272.870429</ele>
        <time>2020-07-27T14:06:38.404Z</time>
      </trkpt>
      <trkpt lat="61.44499" lon="5.65274">
        <ele>287.622662</ele>
        <time>2020-07-27T14:08:45.398Z</time>
      </trkpt>
      <trkpt lat="61.44694" lon="5.6531">
        <ele>304.904975</ele>
        <time>2020-07-27T14:10:41.438Z</time>
      </trkpt>
      <trkpt lat="61.44887" lon="5.65384">
        <ele>317.36316</ele>
        <time>2020-07-27T14:13:03.408Z</time>
      </trkpt>
      <trkpt lat="61.44976" lon="5.6568">
        <ele>333.599224</ele>
        <time>2020-07-27T14:15:37.404Z</time>
      </trkpt>
      <trkpt lat="61.45112" lon="5.65868">
        <ele>352.831556</ele>
        <time>2020-07-27T14:18:07.405Z</time>
      </trkpt>
      <trkpt lat="61.45209" lon="5.66265">
        <ele>343.936686</ele>
        <time>2020-07-27T14:19:00.402Z</time>
      </trkpt>
      <trkpt lat="61.45277" lon="5.66641">
        <ele>327.625179</ele>
        <time>2020-07-27T14:19:20.430Z</time>
      </trkpt>
      <trkpt lat="61.45349" lon="5.67067">
        <ele>315.663402</ele>
        <time>2020-07-27T14:19:43.435Z</time>
      </trkpt>
      <trkpt lat="61.45431" lon="5.67503">
        <ele>308.00234</ele>
        <time>2020-07-27T14:20:04.423Z</time>
      </trkpt>
      <trkpt lat="61.45541" lon="5.67902">
        <ele>320.438068</ele>
        <time>2020-07-27T14:21:06.431Z</time>
      </trkpt>
      <trkpt lat="61.45493" lon="5.68571">
        <ele>357.944023</ele>
        <time>2020-07-27T14:29:50.408Z</time>
      </trkpt>
      <trkpt lat="61.45554" lon="5.68944">
        <ele>369.815059</ele>
        <time>2020-07-27T14:32:10.417Z</time>
      </trkpt>
      <trkpt lat="61.45695" lon="5.6915">
        <ele>376.059062</ele>
        <time>2020-07-27T14:34:20.401Z</time>
      </trkpt>
      <trkpt lat="61.45885" lon="5.68987">
        <ele>392.645643</ele>
        <time>2020-07-27T14:36:49.460Z</time>
      </trkpt>
      <trkpt lat="61.46075" lon="5.68942">
        <ele>408.395897</ele>
        <time>2020-07-27T14:39:06.440Z</time>
      </trkpt>
      <trkpt lat="61.46255" lon="5.69042">
        <ele>426.404643</ele>
        <time>2020-07-27T14:41:43.431Z</time>
      </trkpt>
      <trkpt lat="61.46287" lon="5.69396">
        <ele>443.254497</ele>
        <time>2020-07-27T14:44:28.431Z</time>
      </trkpt>
      <trkpt lat="61.46204" lon="5.69752">
        <ele>458.663107</ele>
        <time>2020-07-27T14:47:01.432Z</time>
      </trkpt>
      <trkpt lat="61.46194" lon="5.70153">
        <ele>474.786926</ele>
        <time>2020-07-27T14:49:44.446Z</time>
      </trkpt>
      <trkpt lat="61.4632" lon="5.70467">
        <ele>487.964681</ele>
        <time>2020-07-27T14:51:38.431Z</time>
      </trkpt>
      <trkpt lat="61.46425" lon="5.70795">
        <ele>499.319377</ele>
        <time>2020-07-27T14:53:34.432Z</time>
      </trkpt>
      <trkpt lat="61.4668" lon="5.71872">
        <ele>514.592857</ele>
        <time>2020-07-27T14:58:11.407Z</time>
      </trkpt>
      <trkpt lat="61.46863" lon="5.72137">
        <ele>492.27281</ele>
        <time>2020-07-27T14:58:37.446Z</time>
      </trkpt>
      <trkpt lat="61.47074" lon="5.72359">
        <ele>470.790434</ele>
        <time>2020-07-27T14:58:57.458Z</time>
      </trkpt>
      <trkpt lat="61.47238" lon="5.727">
        <ele>445.641376</ele>
        <time>2020-07-27T14:59:18.407Z</time>
      </trkpt>
      <trkpt lat="61.4736" lon="5.73172">
        <ele>422.069986</ele>
        <time>2020-07-27T14:59:38.424Z</time>
      </trkpt>
      <trkpt lat="61.47531" lon="5.73584">
        <ele>402.031434</ele>
        <time>2020-07-27T14:59:58.430Z</time>
      </trkpt>
      <trkpt lat="61.47705" lon="5.73899">
        <ele>395.747939</ele>
        <time>2020-07-27T15:00:33.418Z</time>
      </trkpt>
      <trkpt lat="61.47802" lon="5.74245">
        <ele>414.800806</ele>
        <time>2020-07-27T15:02:41.411Z</time>
      </trkpt>
      <trkpt lat="61.4782" lon="5.747">
        <ele>424.23158</ele>
        <time>2020-07-27T15:04:10.447Z</time>
      </trkpt>
      <trkpt lat="61.47781" lon="5.75159">
        <ele>409.151374</ele>
        <time>2020-07-27T15:04:33.451Z</time>
      </trkpt>
      <trkpt lat="61.47743" lon="5.75586">
        <ele>386.599001</ele>
        <time>2020-07-27T15:04:54.442Z</time>
      </trkpt>
      <trkpt lat="61.47715" lon="5.75981">
        <ele>360.547747</ele>
        <time>2020-07-27T15:05:14.415Z</time>
      </trkpt>
      <trkpt lat="61.47815" lon="5.76384">
        <ele>338.326807</ele>
        <time>2020-07-27T15:05:34.422Z</time>
      </trkpt>
      <trkpt lat="61.47755" lon="5.76834">
        <ele>319.348327</ele>
        <time>2020-07-27T15:05:54.460Z</time>
      </trkpt>
      <trkpt lat="61.47733" lon="5.77419">
        <ele>292.609526</ele>
        <time>2020-07-27T15:06:15.434Z</time>
      </trkpt>
      <trkpt lat="61.47777" lon="5.77888">
        <ele>268.578697</ele>
        <time>2020-07-27T15:06:35.407Z</time>
      </trkpt>
      <trkpt lat="61.4786" lon="5.78299">
        <ele>248.715518</ele>
        <time>2020-07-27T15:06:56.411Z</time>
      </trkpt>
      <trkpt lat="61.47765" lon="5.78795">
        <ele>222.676584</ele>
        <time>2020-07-27T15:07:38.408Z</time>
      </trkpt>
      <trkpt lat="61.47581" lon="5.79075">
        <ele>203.987729</ele>
        <time>2020-07-27T15:08:04.411Z</time>
      </trkpt>
      <trkpt lat="61.47324" lon="5.79214">
        <ele>188.992539</ele>
        <time>2020-07-27T15:10:16.438Z</time>
      </trkpt>
      <trkpt lat="61.47131" lon="5.79437">
        <ele>170.036986</ele>
        <time>2020-07-27T15:10:42.421Z</time>
      </trkpt>
      <trkpt lat="61.46918" lon="5.79457">
        <ele>151.292162</ele>
        <time>2020-07-27T15:11:05.420Z</time>
      </trkpt>
      <trkpt lat="61.46727" lon="5.79632">
        <ele>130.639398</ele>
        <time>2020-07-27T15:11:25.431Z</time>
      </trkpt>
      <trkpt lat="61.46573" lon="5.7996">
        <ele>99.419349</ele>
        <time>2020-07-27T15:11:55.418Z</time>
      </trkpt>
      <trkpt lat="61.46469" lon="5.80295">
        <ele>81.824326</ele>
        <time>2020-07-27T15:12:15.427Z</time>
      </trkpt>
      <trkpt lat="61.46382" lon="5.80801">
        <ele>64.710113</ele>
        <time>2020-07-27T15:12:46.442Z</time>
      </trkpt>
      <trkpt lat="61.46161" lon="5.81136">
        <ele>65.907683</ele>
        <time>2020-07-27T15:13:18.423Z</time>
      </trkpt>
      <trkpt lat="61.46007" lon="5.81463">
        <ele>69.115373</ele>
        <time>2020-07-27T15:14:02.430Z</time>
      </trkpt>
      <trkpt lat="61.45992" lon="5.82175">
        <ele>71.403458</ele>
        <time>2020-07-27T15:15:50.440Z</time>
      </trkpt>
      <trkpt lat="61.45915" lon="5.8263">
        <ele>67.769838</ele>
        <time>2020-07-27T15:16:31.419Z</time>
      </trkpt>
      <trkpt lat="61.4577" lon="5.82898">
        <ele>66.707867</ele>
        <time>2020-07-27T15:17:48.456Z</time>
      </trkpt>
      <trkpt lat="61.456" lon="5.83146">
        <ele>65.327242</ele>
        <time>2020-07-27T15:18:46.435Z</time>
      </trkpt>
      <trkpt lat="61.45552" lon="5.8357">
        <ele>57.198561</ele>
        <time>2020-07-27T15:19:38.419Z</time>
      </trkpt>
      <trkpt lat="61.45459" lon="5.83923">
        <ele>62.398812</ele>
        <time>2020-07-27T15:20:22.435Z</time>
      </trkpt>
      <trkpt lat="61.45327" lon="5.84235">
        <ele>62.304202</ele>
        <time>2020-07-27T15:21:06.439Z</time>
      </trkpt>
      <trkpt lat="61.4518" lon="5.84598">
        <ele>63.831892</ele>
        <time>2020-07-27T15:22:27.425Z</time>
      </trkpt>
      <trkpt lat="61.45022" lon="5.8494">
        <ele>57.050821</ele>
        <time>2020-07-27T15:23:16.440Z</time>
      </trkpt>
      <trkpt lat="61.4515" lon="5.84873">
        <ele>49.481564</ele>
        <time>2020-07-27T15:47:37.422Z</time>
      </trkpt>
      <trkpt lat="61.45016" lon="5.85072">
        <ele>53.642755</ele>
        <time>2020-07-27T15:52:29.423Z</time>
      </trkpt>
      <trkpt lat="61.45018" lon="5.8552">
        <ele>63.505112</ele>
        <time>2020-07-27T15:53:36.436Z</time>
      </trkpt>
      <trkpt lat="61.44942" lon="5.85788">
        <ele>62.147606</ele>
        <time>2020-07-27T15:55:00.422Z</time>
      </trkpt>
      <trkpt lat="61.44952" lon="5.8628">
        <ele>57.689307</ele>
        <time>2020-07-27T15:55:54.419Z</time>
      </trkpt>
      <trkpt lat="61.44937" lon="5.86721">
        <ele>57.350349</ele>
        <time>2020-07-27T15:56:37.443Z</time>
      </trkpt>
      <trkpt lat="61.44875" lon="5.87098">
        <ele>54.378668</ele>
        <time>2020-07-27T15:57:17.441Z</time>
      </trkpt>
      <trkpt lat="61.44842" lon="5.87586">
        <ele>52.529984</ele>
        <time>2020-07-27T15:57:57.427Z</time>
      </trkpt>
      <trkpt lat="61.44803" lon="5.88024">
        <ele>49.862984</ele>
        <time>2020-07-27T15:58:37.460Z</time>
      </trkpt>
      <trkpt lat="61.44792" lon="5.88425">
        <ele>52.454261</ele>
        <time>2020-07-27T15:59:28.447Z</time>
      </trkpt>
      <trkpt lat="61.44931" lon="5.88702">
        <ele>54.580006</ele>
        <time>2020-07-27T16:00:08.439Z</time>
      </trkpt>
      <trkpt lat="61.44933" lon="5.89">
        <ele>55.026561</ele>
        <time>2020-07-27T16:00:54.426Z</time>
      </trkpt>
    </trkseg>
  </trk>
  <trk>
    <name><![CDATA[Tour d'Europe: étape 030]]></name>
    <trkseg>
      <trkpt lat="61.44946" lon="5.89219">
        <ele>50.576668</ele>
        <time>2020-07-28T06:59:17.186Z</time>
      </trkpt>
      <trkpt lat="61.45006" lon="5.8883">
        <ele>55.878991</ele>
        <time>2020-07-28T07:01:30.177Z</time>
      </trkpt>
      <trkpt lat="61.44834" lon="5.885">
        <ele>56.832977</ele>
        <time>2020-07-28T07:02:31.193Z</time>
      </trkpt>
      <trkpt lat="61.44801" lon="5.8809">
        <ele>58.242197</ele>
        <time>2020-07-28T07:03:31.176Z</time>
      </trkpt>
      <trkpt lat="61.44856" lon="5.87599">
        <ele>54.205855</ele>
        <time>2020-07-28T07:04:13.181Z</time>
      </trkpt>
      <trkpt lat="61.44896" lon="5.87108">
        <ele>52.683235</ele>
        <time>2020-07-28T07:04:53.185Z</time>
      </trkpt>
      <trkpt lat="61.44953" lon="5.86616">
        <ele>57.194337</ele>
        <time>2020-07-28T07:05:49.165Z</time>
      </trkpt>
      <trkpt lat="61.44969" lon="5.86187">
        <ele>59.398505</ele>
        <time>2020-07-28T07:06:34.204Z</time>
      </trkpt>
      <trkpt lat="61.44954" lon="5.85773">
        <ele>56.211522</ele>
        <time>2020-07-28T07:07:26.180Z</time>
      </trkpt>
      <trkpt lat="61.45021" lon="5.85482">
        <ele>68.254182</ele>
        <time>2020-07-28T07:08:32.201Z</time>
      </trkpt>
      <trkpt lat="61.45023" lon="5.85003">
        <ele>64.80889</ele>
        <time>2020-07-28T07:09:35.168Z</time>
      </trkpt>
      <trkpt lat="61.45229" lon="5.85033">
        <ele>69.896969</ele>
        <time>2020-07-28T07:10:35.163Z</time>
      </trkpt>
      <trkpt lat="61.45449" lon="5.85021">
        <ele>66.419216</ele>
        <time>2020-07-28T07:11:34.205Z</time>
      </trkpt>
      <trkpt lat="61.45662" lon="5.8503">
        <ele>50.461835</ele>
        <time>2020-07-28T07:12:32.173Z</time>
      </trkpt>
      <trkpt lat="61.45869" lon="5.84931">
        <ele>54.729246</ele>
        <time>2020-07-28T07:13:37.195Z</time>
      </trkpt>
      <trkpt lat="61.46223" lon="5.84346">
        <ele>69.164655</ele>
        <time>2020-07-28T07:16:57.186Z</time>
      </trkpt>
      <trkpt lat="61.46366" lon="5.83998">
        <ele>70.232704</ele>
        <time>2020-07-28T07:17:51.197Z</time>
      </trkpt>
      <trkpt lat="61.46453" lon="5.83615">
        <ele>72.041696</ele>
        <time>2020-07-28T07:19:04.187Z</time>
      </trkpt>
      <trkpt lat="61.46528" lon="5.83282">
        <ele>71.351204</ele>
        <time>2020-07-28T07:19:58.176Z</time>
      </trkpt>
      <trkpt lat="61.4658" lon="5.82615">
        <ele>61.949023</ele>
        <time>2020-07-28T07:20:40.173Z</time>
      </trkpt>
      <trkpt lat="61.46825" lon="5.82443">
        <ele>59.962878</ele>
        <time>2020-07-28T07:21:16.186Z</time>
      </trkpt>
      <trkpt lat="61.46987" lon="5.82161">
        <ele>74.40288</ele>
        <time>2020-07-28T07:22:34.192Z</time>
      </trkpt>
      <trkpt lat="61.47067" lon="5.81777">
        <ele>78.906009</ele>
        <time>2020-07-28T07:24:03.172Z</time>
      </trkpt>
      <trkpt lat="61.47313" lon="5.81218">
        <ele>91.489609</ele>
        <time>2020-07-28T07:25:53.181Z</time>
      </trkpt>
      <trkpt lat="61.47794" lon="5.80718">
        <ele>68.606659</ele>
        <time>2020-07-28T07:27:03.180Z</time>
      </trkpt>
      <trkpt lat="61.47946" lon="5.80963">
        <ele>67.197677</ele>
        <time>2020-07-28T07:27:43.215Z</time>
      </trkpt>
      <trkpt lat="61.48071" lon="5.81352">
        <ele>63.119355</ele>
        <time>2020-07-28T07:28:23.188Z</time>
      </trkpt>
      <trkpt lat="61.48292" lon="5.8139">
        <ele>60.181262</ele>
        <time>2020-07-28T07:29:08.189Z</time>
      </trkpt>
      <trkpt lat="61.48509" lon="5.81553">
        <ele>61.729091</ele>
        <time>2020-07-28T07:29:56.226Z</time>
      </trkpt>
      <trkpt lat="61.48711" lon="5.81705">
        <ele>65.023094</ele>
        <time>2020-07-28T07:31:03.190Z</time>
      </trkpt>
      <trkpt lat="61.48905" lon="5.81605">
        <ele>65.045779</ele>
        <time>2020-07-28T07:31:46.177Z</time>
      </trkpt>
      <trkpt lat="61.49034" lon="5.81282">
        <ele>71.160434</ele>
        <time>2020-07-28T07:32:28.178Z</time>
      </trkpt>
      <trkpt lat="61.49132" lon="5.80934">
        <ele>69.428096</ele>
        <time>2020-07-28T07:33:09.171Z</time>
      </trkpt>
      <trkpt lat="61.4919" lon="5.80503">
        <ele>65.909024</ele>
        <time>2020-07-28T07:33:51.192Z</time>
      </trkpt>
      <trkpt lat="61.49361" lon="5.80303">
        <ele>67.083365</ele>
        <time>2020-07-28T07:34:34.182Z</time>
      </trkpt>
      <trkpt lat="61.49495" lon="5.80017">
        <ele>67.921717</ele>
        <time>2020-07-28T07:35:14.178Z</time>
      </trkpt>
      <trkpt lat="61.496" lon="5.79574">
        <ele>66.769776</ele>
        <time>2020-07-28T07:35:56.242Z</time>
      </trkpt>
      <trkpt lat="61.49566" lon="5.79063">
        <ele>64.117868</ele>
        <time>2020-07-28T07:36:36.179Z</time>
      </trkpt>
      <trkpt lat="61.49682" lon="5.78773">
        <ele>62.355749</ele>
        <time>2020-07-28T07:37:17.176Z</time>
      </trkpt>
      <trkpt lat="61.49864" lon="5.7852">
        <ele>61.792796</ele>
        <time>2020-07-28T07:37:57.183Z</time>
      </trkpt>
      <trkpt lat="61.49884" lon="5.78052">
        <ele>66.572466</ele>
        <time>2020-07-28T07:38:53.172Z</time>
      </trkpt>
      <trkpt lat="61.49885" lon="5.77582">
        <ele>62.9253</ele>
        <time>2020-07-28T07:39:43.197Z</time>
      </trkpt>
      <trkpt lat="61.50023" lon="5.77202">
        <ele>55.586832</ele>
        <time>2020-07-28T07:40:23.178Z</time>
      </trkpt>
      <trkpt lat="61.50162" lon="5.76912">
        <ele>56.488468</ele>
        <time>2020-07-28T07:41:03.174Z</time>
      </trkpt>
      <trkpt lat="61.50207" lon="5.76456">
        <ele>61.792579</ele>
        <time>2020-07-28T07:41:51.199Z</time>
      </trkpt>
      <trkpt lat="61.50322" lon="5.76075">
        <ele>62.438048</ele>
        <time>2020-07-28T07:42:32.182Z</time>
      </trkpt>
      <trkpt lat="61.50383" lon="5.75676">
        <ele>61.974669</ele>
        <time>2020-07-28T07:43:12.175Z</time>
      </trkpt>
      <trkpt lat="61.50429" lon="5.75269">
        <ele>61.02356</ele>
        <time>2020-07-28T07:43:52.198Z</time>
      </trkpt>
      <trkpt lat="61.50428" lon="5.74823">
        <ele>62.136168</ele>
        <time>2020-07-28T07:44:36.185Z</time>
      </trkpt>
      <trkpt lat="61.50424" lon="5.74366">
        <ele>61.106209</ele>
        <time>2020-07-28T07:45:17.178Z</time>
      </trkpt>
      <trkpt lat="61.50381" lon="5.7388">
        <ele>59.959253</ele>
        <time>2020-07-28T07:45:57.214Z</time>
      </trkpt>
      <trkpt lat="61.50367" lon="5.73452">
        <ele>60.863952</ele>
        <time>2020-07-28T07:46:37.179Z</time>
      </trkpt>
      <trkpt lat="61.50348" lon="5.7295">
        <ele>57.956835</ele>
        <time>2020-07-28T07:47:19.177Z</time>
      </trkpt>
      <trkpt lat="61.50335" lon="5.72505">
        <ele>57.153355</ele>
        <time>2020-07-28T07:48:05.192Z</time>
      </trkpt>
      <trkpt lat="61.50463" lon="5.72179">
        <ele>58.982578</ele>
        <time>2020-07-28T07:48:48.216Z</time>
      </trkpt>
      <trkpt lat="61.50627" lon="5.71961">
        <ele>57.994078</ele>
        <time>2020-07-28T07:49:28.187Z</time>
      </trkpt>
      <trkpt lat="61.50813" lon="5.71916">
        <ele>51.791986</ele>
        <time>2020-07-28T07:50:10.189Z</time>
      </trkpt>
      <trkpt lat="61.51038" lon="5.71967">
        <ele>51.285821</ele>
        <time>2020-07-28T07:51:01.197Z</time>
      </trkpt>
      <trkpt lat="61.51266" lon="5.71949">
        <ele>52.131129</ele>
        <time>2020-07-28T07:51:54.214Z</time>
      </trkpt>
      <trkpt lat="61.51476" lon="5.71887">
        <ele>54.360623</ele>
        <time>2020-07-28T07:52:54.215Z</time>
      </trkpt>
      <trkpt lat="61.51682" lon="5.71878">
        <ele>59.976005</ele>
        <time>2020-07-28T07:54:03.186Z</time>
      </trkpt>
      <trkpt lat="61.5185" lon="5.72204">
        <ele>62.313756</ele>
        <time>2020-07-28T07:55:09.182Z</time>
      </trkpt>
      <trkpt lat="61.51989" lon="5.72564">
        <ele>61.445906</ele>
        <time>2020-07-28T07:56:06.209Z</time>
      </trkpt>
      <trkpt lat="61.52046" lon="5.73045">
        <ele>63.241613</ele>
        <time>2020-07-28T07:57:01.182Z</time>
      </trkpt>
      <trkpt lat="61.52162" lon="5.73438">
        <ele>65.66329</ele>
        <time>2020-07-28T07:58:05.179Z</time>
      </trkpt>
      <trkpt lat="61.52326" lon="5.73746">
        <ele>72.770368</ele>
        <time>2020-07-28T07:59:29.184Z</time>
      </trkpt>
      <trkpt lat="61.52497" lon="5.74015">
        <ele>74.228949</ele>
        <time>2020-07-28T08:00:21.180Z</time>
      </trkpt>
      <trkpt lat="61.52651" lon="5.74341">
        <ele>73.810371</ele>
        <time>2020-07-28T08:01:31.183Z</time>
      </trkpt>
      <trkpt lat="61.52836" lon="5.7455">
        <ele>76.099334</ele>
        <time>2020-07-28T08:02:45.224Z</time>
      </trkpt>
      <trkpt lat="61.53025" lon="5.74812">
        <ele>82.99743</ele>
        <time>2020-07-28T08:04:10.201Z</time>
      </trkpt>
      <trkpt lat="61.53224" lon="5.74991">
        <ele>80.971138</ele>
        <time>2020-07-28T08:05:19.198Z</time>
      </trkpt>
      <trkpt lat="61.53376" lon="5.75313">
        <ele>80.857644</ele>
        <time>2020-07-28T08:06:14.201Z</time>
      </trkpt>
      <trkpt lat="61.53532" lon="5.75594">
        <ele>82.459021</ele>
        <time>2020-07-28T08:07:27.177Z</time>
      </trkpt>
      <trkpt lat="61.53782" lon="5.75721">
        <ele>81.257305</ele>
        <time>2020-07-28T08:08:28.206Z</time>
      </trkpt>
      <trkpt lat="61.53883" lon="5.76046">
        <ele>79.847358</ele>
        <time>2020-07-28T08:09:09.196Z</time>
      </trkpt>
      <trkpt lat="61.53858" lon="5.7652">
        <ele>79.257297</ele>
        <time>2020-07-28T08:10:02.201Z</time>
      </trkpt>
      <trkpt lat="61.53826" lon="5.77019">
        <ele>79.721012</ele>
        <time>2020-07-28T08:11:01.191Z</time>
      </trkpt>
      <trkpt lat="61.53914" lon="5.77499">
        <ele>79.927608</ele>
        <time>2020-07-28T08:11:59.188Z</time>
      </trkpt>
      <trkpt lat="61.54018" lon="5.77961">
        <ele>80.768733</ele>
        <time>2020-07-28T08:13:02.186Z</time>
      </trkpt>
      <trkpt lat="61.54117" lon="5.78394">
        <ele>82.524921</ele>
        <time>2020-07-28T08:14:02.181Z</time>
      </trkpt>
      <trkpt lat="61.54294" lon="5.78607">
        <ele>89.746131</ele>
        <time>2020-07-28T08:15:07.194Z</time>
      </trkpt>
      <trkpt lat="61.54476" lon="5.78435">
        <ele>100.483551</ele>
        <time>2020-07-28T08:23:07.191Z</time>
      </trkpt>
      <trkpt lat="61.54637" lon="5.78173">
        <ele>114.116635</ele>
        <time>2020-07-28T08:25:03.231Z</time>
      </trkpt>
      <trkpt lat="61.54793" lon="5.77932">
        <ele>125.617647</ele>
        <time>2020-07-28T08:26:59.197Z</time>
      </trkpt>
      <trkpt lat="61.54982" lon="5.77895">
        <ele>145.861252</ele>
        <time>2020-07-28T08:29:23.209Z</time>
      </trkpt>
      <trkpt lat="61.55169" lon="5.77976">
        <ele>164.987789</ele>
        <time>2020-07-28T08:31:45.193Z</time>
      </trkpt>
      <trkpt lat="61.55369" lon="5.78048">
        <ele>178.823652</ele>
        <time>2020-07-28T08:34:11.201Z</time>
      </trkpt>
      <trkpt lat="61.55557" lon="5.77991">
        <ele>189.895814</ele>
        <time>2020-07-28T08:36:40.216Z</time>
      </trkpt>
      <trkpt lat="61.55733" lon="5.77821">
        <ele>205.377838</ele>
        <time>2020-07-28T08:39:06.195Z</time>
      </trkpt>
      <trkpt lat="61.55886" lon="5.776">
        <ele>224.237808</ele>
        <time>2020-07-28T08:41:38.235Z</time>
      </trkpt>
      <trkpt lat="61.56088" lon="5.77657">
        <ele>244.42318</ele>
        <time>2020-07-28T08:44:28.194Z</time>
      </trkpt>
      <trkpt lat="61.5628" lon="5.77613">
        <ele>256.268921</ele>
        <time>2020-07-28T08:46:31.188Z</time>
      </trkpt>
      <trkpt lat="61.56485" lon="5.77427">
        <ele>259.022548</ele>
        <time>2020-07-28T08:47:34.238Z</time>
      </trkpt>
      <trkpt lat="61.56671" lon="5.77214">
        <ele>261.971068</ele>
        <time>2020-07-28T08:48:59.192Z</time>
      </trkpt>
      <trkpt lat="61.56774" lon="5.76814">
        <ele>264.146957</ele>
        <time>2020-07-28T08:50:17.192Z</time>
      </trkpt>
      <trkpt lat="61.56837" lon="5.76435">
        <ele>276.103548</ele>
        <time>2020-07-28T08:52:37.231Z</time>
      </trkpt>
      <trkpt lat="61.56966" lon="5.76149">
        <ele>292.433247</ele>
        <time>2020-07-28T08:55:10.207Z</time>
      </trkpt>
      <trkpt lat="61.57147" lon="5.76141">
        <ele>310.932391</ele>
        <time>2020-07-28T08:57:25.222Z</time>
      </trkpt>
      <trkpt lat="61.57321" lon="5.76015">
        <ele>317.365451</ele>
        <time>2020-07-28T08:59:24.195Z</time>
      </trkpt>
      <trkpt lat="61.57481" lon="5.75757">
        <ele>332.908853</ele>
        <time>2020-07-28T09:02:08.196Z</time>
      </trkpt>
      <trkpt lat="61.57615" lon="5.75488">
        <ele>348.051069</ele>
        <time>2020-07-28T09:04:43.208Z</time>
      </trkpt>
      <trkpt lat="61.5779" lon="5.75568">
        <ele>357.466383</ele>
        <time>2020-07-28T09:07:16.224Z</time>
      </trkpt>
      <trkpt lat="61.5784" lon="5.75563">
        <ele>373.073571</ele>
        <time>2020-07-28T09:09:50.211Z</time>
      </trkpt>
      <trkpt lat="61.5785" lon="5.75157">
        <ele>392.442702</ele>
        <time>2020-07-28T09:12:49.215Z</time>
      </trkpt>
      <trkpt lat="61.57769" lon="5.74792">
        <ele>406.342086</ele>
        <time>2020-07-28T09:15:37.244Z</time>
      </trkpt>
      <trkpt lat="61.57713" lon="5.74421">
        <ele>420.380734</ele>
        <time>2020-07-28T09:18:24.185Z</time>
      </trkpt>
      <trkpt lat="61.57632" lon="5.74065">
        <ele>437.395951</ele>
        <time>2020-07-28T09:21:12.185Z</time>
      </trkpt>
      <trkpt lat="61.57663" lon="5.73651">
        <ele>450.750427</ele>
        <time>2020-07-28T09:29:08.184Z</time>
      </trkpt>
      <trkpt lat="61.5764" lon="5.7326">
        <ele>464.795636</ele>
        <time>2020-07-28T09:31:52.223Z</time>
      </trkpt>
      <trkpt lat="61.57648" lon="5.72861">
        <ele>480.348547</ele>
        <time>2020-07-28T09:34:36.244Z</time>
      </trkpt>
      <trkpt lat="61.57552" lon="5.72557">
        <ele>499.177282</ele>
        <time>2020-07-28T09:37:22.195Z</time>
      </trkpt>
      <trkpt lat="61.57266" lon="5.7206">
        <ele>528.573942</ele>
        <time>2020-07-28T09:46:25.219Z</time>
      </trkpt>
      <trkpt lat="61.57133" lon="5.71697">
        <ele>524.971237</ele>
        <time>2020-07-28T09:48:29.214Z</time>
      </trkpt>
      <trkpt lat="61.57044" lon="5.71213">
        <ele>510.885729</ele>
        <time>2020-07-28T09:48:58.193Z</time>
      </trkpt>
      <trkpt lat="61.5701" lon="5.7082">
        <ele>492.83833</ele>
        <time>2020-07-28T09:49:18.191Z</time>
      </trkpt>
      <trkpt lat="61.57101" lon="5.70424">
        <ele>473.267246</ele>
        <time>2020-07-28T09:49:41.217Z</time>
      </trkpt>
      <trkpt lat="61.57314" lon="5.70201">
        <ele>452.567144</ele>
        <time>2020-07-28T09:50:14.209Z</time>
      </trkpt>
      <trkpt lat="61.57435" lon="5.69832">
        <ele>434.584304</ele>
        <time>2020-07-28T09:50:39.223Z</time>
      </trkpt>
      <trkpt lat="61.57403" lon="5.69333">
        <ele>405.579908</ele>
        <time>2020-07-28T09:51:12.200Z</time>
      </trkpt>
      <trkpt lat="61.57257" lon="5.69563">
        <ele>383.252393</ele>
        <time>2020-07-28T09:51:52.201Z</time>
      </trkpt>
      <trkpt lat="61.57055" lon="5.6966">
        <ele>356.958359</ele>
        <time>2020-07-28T09:52:34.243Z</time>
      </trkpt>
      <trkpt lat="61.5689" lon="5.69576">
        <ele>334.823393</ele>
        <time>2020-07-28T09:53:13.202Z</time>
      </trkpt>
      <trkpt lat="61.56892" lon="5.69076">
        <ele>315.447976</ele>
        <time>2020-07-28T09:53:41.200Z</time>
      </trkpt>
      <trkpt lat="61.56952" lon="5.68491">
        <ele>293.356735</ele>
        <time>2020-07-28T09:54:18.190Z</time>
      </trkpt>
      <trkpt lat="61.56885" lon="5.67991">
        <ele>274.227557</ele>
        <time>2020-07-28T09:54:40.191Z</time>
      </trkpt>
      <trkpt lat="61.56744" lon="5.67457">
        <ele>258.749848</ele>
        <time>2020-07-28T09:55:16.203Z</time>
      </trkpt>
      <trkpt lat="61.56653" lon="5.67015">
        <ele>247.42003</ele>
        <time>2020-07-28T09:55:41.209Z</time>
      </trkpt>
      <trkpt lat="61.56664" lon="5.66508">
        <ele>234.751986</ele>
        <time>2020-07-28T09:56:11.201Z</time>
      </trkpt>
      <trkpt lat="61.56713" lon="5.65972">
        <ele>230.37705</ele>
        <time>2020-07-28T09:56:59.215Z</time>
      </trkpt>
      <trkpt lat="61.56759" lon="5.65531">
        <ele>227.806848</ele>
        <time>2020-07-28T09:57:43.199Z</time>
      </trkpt>
      <trkpt lat="61.56855" lon="5.65074">
        <ele>214.21495</ele>
        <time>2020-07-28T09:58:03.207Z</time>
      </trkpt>
      <trkpt lat="61.56831" lon="5.64603">
        <ele>205.166402</ele>
        <time>2020-07-28T09:58:28.216Z</time>
      </trkpt>
      <trkpt lat="61.56746" lon="5.64109">
        <ele>207.318914</ele>
        <time>2020-07-28T09:59:19.208Z</time>
      </trkpt>
      <trkpt lat="61.56734" lon="5.63648">
        <ele>209.545987</ele>
        <time>2020-07-28T10:00:09.204Z</time>
      </trkpt>
      <trkpt lat="61.5683" lon="5.63232">
        <ele>203.905664</ele>
        <time>2020-07-28T10:00:50.212Z</time>
      </trkpt>
      <trkpt lat="61.56806" lon="5.62793">
        <ele>207.596223</ele>
        <time>2020-07-28T10:01:56.196Z</time>
      </trkpt>
      <trkpt lat="61.5689" lon="5.62245">
        <ele>205.877976</ele>
        <time>2020-07-28T10:02:43.223Z</time>
      </trkpt>
      <trkpt lat="61.56818" lon="5.61835">
        <ele>213.124727</ele>
        <time>2020-07-28T10:03:53.208Z</time>
      </trkpt>
      <trkpt lat="61.56812" lon="5.6142">
        <ele>217.201849</ele>
        <time>2020-07-28T10:05:17.204Z</time>
      </trkpt>
      <trkpt lat="61.56912" lon="5.6101">
        <ele>215.517855</ele>
        <time>2020-07-28T10:06:15.242Z</time>
      </trkpt>
      <trkpt lat="61.56909" lon="5.60458">
        <ele>200.809192</ele>
        <time>2020-07-28T10:06:48.194Z</time>
      </trkpt>
      <trkpt lat="61.56919" lon="5.59985">
        <ele>190.244253</ele>
        <time>2020-07-28T10:07:09.200Z</time>
      </trkpt>
      <trkpt lat="61.56849" lon="5.59522">
        <ele>180.567512</ele>
        <time>2020-07-28T10:07:29.220Z</time>
      </trkpt>
      <trkpt lat="61.56865" lon="5.5903">
        <ele>171.489788</ele>
        <time>2020-07-28T10:07:49.205Z</time>
      </trkpt>
      <trkpt lat="61.5685" lon="5.58607">
        <ele>166.079058</ele>
        <time>2020-07-28T10:08:09.195Z</time>
      </trkpt>
      <trkpt lat="61.56867" lon="5.58065">
        <ele>156.412003</ele>
        <time>2020-07-28T10:08:30.202Z</time>
      </trkpt>
      <trkpt lat="61.56917" lon="5.57484">
        <ele>138.403743</ele>
        <time>2020-07-28T10:08:50.201Z</time>
      </trkpt>
      <trkpt lat="61.56961" lon="5.56925">
        <ele>117.348038</ele>
        <time>2020-07-28T10:09:10.221Z</time>
      </trkpt>
      <trkpt lat="61.57011" lon="5.56457">
        <ele>107.409229</ele>
        <time>2020-07-28T10:09:30.230Z</time>
      </trkpt>
      <trkpt lat="61.56948" lon="5.55847">
        <ele>109.345232</ele>
        <time>2020-07-28T10:10:12.205Z</time>
      </trkpt>
      <trkpt lat="61.57025" lon="5.55345">
        <ele>121.913996</ele>
        <time>2020-07-28T10:10:56.219Z</time>
      </trkpt>
      <trkpt lat="61.57111" lon="5.54949">
        <ele>120.837217</ele>
        <time>2020-07-28T10:11:47.194Z</time>
      </trkpt>
      <trkpt lat="61.57281" lon="5.54663">
        <ele>112.898326</ele>
        <time>2020-07-28T10:12:35.190Z</time>
      </trkpt>
      <trkpt lat="61.57428" lon="5.54258">
        <ele>104.311225</ele>
        <time>2020-07-28T10:13:20.253Z</time>
      </trkpt>
      <trkpt lat="61.57477" lon="5.53809">
        <ele>111.535422</ele>
        <time>2020-07-28T10:14:29.237Z</time>
      </trkpt>
      <trkpt lat="61.57543" lon="5.53407">
        <ele>119.544438</ele>
        <time>2020-07-28T10:15:53.207Z</time>
      </trkpt>
      <trkpt lat="61.57564" lon="5.52986">
        <ele>125.423454</ele>
        <time>2020-07-28T10:17:26.198Z</time>
      </trkpt>
      <trkpt lat="61.57585" lon="5.52558">
        <ele>135.746747</ele>
        <time>2020-07-28T10:19:21.203Z</time>
      </trkpt>
      <trkpt lat="61.57545" lon="5.52169">
        <ele>142.644269</ele>
        <time>2020-07-28T10:21:17.195Z</time>
      </trkpt>
      <trkpt lat="61.57482" lon="5.51776">
        <ele>154.577503</ele>
        <time>2020-07-28T10:23:18.203Z</time>
      </trkpt>
      <trkpt lat="61.57469" lon="5.51368">
        <ele>163.698783</ele>
        <time>2020-07-28T10:25:09.202Z</time>
      </trkpt>
      <trkpt lat="61.57588" lon="5.50975">
        <ele>165.374505</ele>
        <time>2020-07-28T10:26:08.212Z</time>
      </trkpt>
      <trkpt lat="61.57727" lon="5.5056">
        <ele>155.687247</ele>
        <time>2020-07-28T10:26:33.209Z</time>
      </trkpt>
      <trkpt lat="61.57832" lon="5.50123">
        <ele>146.62071</ele>
        <time>2020-07-28T10:26:53.222Z</time>
      </trkpt>
      <trkpt lat="61.57941" lon="5.49672">
        <ele>134.041196</ele>
        <time>2020-07-28T10:27:13.240Z</time>
      </trkpt>
      <trkpt lat="61.58109" lon="5.49333">
        <ele>127.774872</ele>
        <time>2020-07-28T10:27:39.219Z</time>
      </trkpt>
      <trkpt lat="61.5827" lon="5.49007">
        <ele>133.940413</ele>
        <time>2020-07-28T10:28:34.222Z</time>
      </trkpt>
      <trkpt lat="61.58421" lon="5.48672">
        <ele>137.282894</ele>
        <time>2020-07-28T10:29:34.202Z</time>
      </trkpt>
      <trkpt lat="61.58502" lon="5.48298">
        <ele>133.641907</ele>
        <time>2020-07-28T10:30:25.212Z</time>
      </trkpt>
      <trkpt lat="61.58692" lon="5.47971">
        <ele>121.904085</ele>
        <time>2020-07-28T10:30:56.219Z</time>
      </trkpt>
      <trkpt lat="61.58761" lon="5.47552">
        <ele>99.422645</ele>
        <time>2020-07-28T10:31:18.211Z</time>
      </trkpt>
      <trkpt lat="61.58765" lon="5.47126">
        <ele>74.48131</ele>
        <time>2020-07-28T10:31:40.219Z</time>
      </trkpt>
      <trkpt lat="61.58796" lon="5.46566">
        <ele>53.528661</ele>
        <time>2020-07-28T10:32:13.243Z</time>
      </trkpt>
      <trkpt lat="61.58856" lon="5.46162">
        <ele>43.878524</ele>
        <time>2020-07-28T10:33:02.253Z</time>
      </trkpt>
      <trkpt lat="61.59017" lon="5.46015">
        <ele>54.262092</ele>
        <time>2020-07-28T11:18:21.229Z</time>
      </trkpt>
      <trkpt lat="61.59097" lon="5.45628">
        <ele>65.349023</ele>
        <time>2020-07-28T11:19:59.227Z</time>
      </trkpt>
      <trkpt lat="61.5918" lon="5.45231">
        <ele>76.626396</ele>
        <time>2020-07-28T11:21:42.207Z</time>
      </trkpt>
      <trkpt lat="61.5927" lon="5.44839">
        <ele>77.774962</ele>
        <time>2020-07-28T11:23:17.225Z</time>
      </trkpt>
      <trkpt lat="61.59367" lon="5.44351">
        <ele>76.761965</ele>
        <time>2020-07-28T11:24:12.222Z</time>
      </trkpt>
      <trkpt lat="61.59488" lon="5.43981">
        <ele>82.583819</ele>
        <time>2020-07-28T11:25:45.211Z</time>
      </trkpt>
      <trkpt lat="61.59602" lon="5.4365">
        <ele>82.828182</ele>
        <time>2020-07-28T11:28:56.206Z</time>
      </trkpt>
      <trkpt lat="61.59704" lon="5.43189">
        <ele>72.903427</ele>
        <time>2020-07-28T11:29:21.218Z</time>
      </trkpt>
      <trkpt lat="61.5982" lon="5.42745">
        <ele>69.909222</ele>
        <time>2020-07-28T11:29:59.242Z</time>
      </trkpt>
      <trkpt lat="61.59883" lon="5.4232">
        <ele>80.880737</ele>
        <time>2020-07-28T11:31:21.218Z</time>
      </trkpt>
      <trkpt lat="61.59963" lon="5.41919">
        <ele>81.118297</ele>
        <time>2020-07-28T11:32:27.212Z</time>
      </trkpt>
      <trkpt lat="61.60117" lon="5.41625">
        <ele>77.854994</ele>
        <time>2020-07-28T11:33:07.242Z</time>
      </trkpt>
      <trkpt lat="61.60239" lon="5.41251">
        <ele>75.986546</ele>
        <time>2020-07-28T11:33:54.221Z</time>
      </trkpt>
      <trkpt lat="61.6038" lon="5.40751">
        <ele>73.175267</ele>
        <time>2020-07-28T11:34:37.212Z</time>
      </trkpt>
      <trkpt lat="61.60463" lon="5.40347">
        <ele>83.598092</ele>
        <time>2020-07-28T11:35:47.256Z</time>
      </trkpt>
      <trkpt lat="61.60531" lon="5.39919">
        <ele>77.575471</ele>
        <time>2020-07-28T11:36:41.215Z</time>
      </trkpt>
      <trkpt lat="61.60674" lon="5.39438">
        <ele>69.34863</ele>
        <time>2020-07-28T11:37:14.218Z</time>
      </trkpt>
      <trkpt lat="61.60768" lon="5.39014">
        <ele>81.672823</ele>
        <time>2020-07-28T11:38:23.203Z</time>
      </trkpt>
      <trkpt lat="61.60865" lon="5.3864">
        <ele>91.848062</ele>
        <time>2020-07-28T11:39:43.205Z</time>
      </trkpt>
      <trkpt lat="61.60866" lon="5.38141">
        <ele>83.097831</ele>
        <time>2020-07-28T11:40:16.236Z</time>
      </trkpt>
      <trkpt lat="61.60871" lon="5.37685">
        <ele>80.27477</ele>
        <time>2020-07-28T11:41:06.208Z</time>
      </trkpt>
      <trkpt lat="61.60949" lon="5.37216">
        <ele>76.162468</ele>
        <time>2020-07-28T11:41:41.215Z</time>
      </trkpt>
      <trkpt lat="61.60995" lon="5.36753">
        <ele>69.758269</ele>
        <time>2020-07-28T11:42:06.216Z</time>
      </trkpt>
      <trkpt lat="61.6104" lon="5.36334">
        <ele>61.965516</ele>
        <time>2020-07-28T11:42:27.216Z</time>
      </trkpt>
      <trkpt lat="61.61056" lon="5.35867">
        <ele>58.664445</ele>
        <time>2020-07-28T11:43:22.209Z</time>
      </trkpt>
      <trkpt lat="61.61136" lon="5.35454">
        <ele>60.676211</ele>
        <time>2020-07-28T11:44:14.219Z</time>
      </trkpt>
      <trkpt lat="61.61224" lon="5.35031">
        <ele>59.037549</ele>
        <time>2020-07-28T11:45:09.217Z</time>
      </trkpt>
      <trkpt lat="61.61278" lon="5.34601">
        <ele>63.41718</ele>
        <time>2020-07-28T11:47:45.263Z</time>
      </trkpt>
      <trkpt lat="61.6135" lon="5.3411">
        <ele>68.18352</ele>
        <time>2020-07-28T11:50:50.226Z</time>
      </trkpt>
      <trkpt lat="61.61332" lon="5.33619">
        <ele>70.330043</ele>
        <time>2020-07-28T11:51:42.222Z</time>
      </trkpt>
      <trkpt lat="61.61359" lon="5.33179">
        <ele>71.848667</ele>
        <time>2020-07-28T11:52:46.221Z</time>
      </trkpt>
      <trkpt lat="61.61341" lon="5.32773">
        <ele>81.36523</ele>
        <time>2020-07-28T11:54:00.235Z</time>
      </trkpt>
      <trkpt lat="61.61384" lon="5.32383">
        <ele>96.472286</ele>
        <time>2020-07-28T11:56:10.238Z</time>
      </trkpt>
      <trkpt lat="61.61392" lon="5.31984">
        <ele>101.485206</ele>
        <time>2020-07-28T11:57:29.218Z</time>
      </trkpt>
      <trkpt lat="61.61391" lon="5.31558">
        <ele>103.835793</ele>
        <time>2020-07-28T11:58:53.226Z</time>
      </trkpt>
      <trkpt lat="61.61557" lon="5.31356">
        <ele>124.396023</ele>
        <time>2020-07-28T12:01:14.212Z</time>
      </trkpt>
      <trkpt lat="61.6173" lon="5.31189">
        <ele>146.040061</ele>
        <time>2020-07-28T12:03:29.265Z</time>
      </trkpt>
      <trkpt lat="61.61893" lon="5.31458">
        <ele>145.653691</ele>
        <time>2020-07-28T12:04:19.225Z</time>
      </trkpt>
      <trkpt lat="61.62117" lon="5.31384">
        <ele>121.849273</ele>
        <time>2020-07-28T12:04:40.217Z</time>
      </trkpt>
      <trkpt lat="61.62314" lon="5.31137">
        <ele>118.028505</ele>
        <time>2020-07-28T12:05:23.218Z</time>
      </trkpt>
      <trkpt lat="61.62452" lon="5.30881">
        <ele>134.501841</ele>
        <time>2020-07-28T12:07:49.249Z</time>
      </trkpt>
      <trkpt lat="61.62591" lon="5.3112">
        <ele>146.627289</ele>
        <time>2020-07-28T12:10:05.213Z</time>
      </trkpt>
      <trkpt lat="61.62642" lon="5.31557">
        <ele>150.012849</ele>
        <time>2020-07-28T12:11:32.217Z</time>
      </trkpt>
      <trkpt lat="61.62783" lon="5.31929">
        <ele>140.453257</ele>
        <time>2020-07-28T12:12:21.253Z</time>
      </trkpt>
      <trkpt lat="61.62968" lon="5.3219">
        <ele>125.619416</ele>
        <time>2020-07-28T12:12:41.197Z</time>
      </trkpt>
      <trkpt lat="61.62944" lon="5.32729">
        <ele>109.345541</ele>
        <time>2020-07-28T12:13:01.206Z</time>
      </trkpt>
      <trkpt lat="61.62999" lon="5.33186">
        <ele>92.932442</ele>
        <time>2020-07-28T12:13:22.224Z</time>
      </trkpt>
      <trkpt lat="61.63183" lon="5.33397">
        <ele>79.585153</ele>
        <time>2020-07-28T12:13:42.213Z</time>
      </trkpt>
      <trkpt lat="61.63377" lon="5.33503">
        <ele>65.380653</ele>
        <time>2020-07-28T12:14:02.230Z</time>
      </trkpt>
      <trkpt lat="61.63581" lon="5.3329">
        <ele>60.954917</ele>
        <time>2020-07-28T12:14:36.220Z</time>
      </trkpt>
      <trkpt lat="61.63735" lon="5.33055">
        <ele>79.669666</ele>
        <time>2020-07-28T12:16:42.205Z</time>
      </trkpt>
      <trkpt lat="61.63798" lon="5.32659">
        <ele>97.557812</ele>
        <time>2020-07-28T12:19:13.252Z</time>
      </trkpt>
      <trkpt lat="61.63942" lon="5.32474">
        <ele>108.104603</ele>
        <time>2020-07-28T12:21:29.209Z</time>
      </trkpt>
      <trkpt lat="61.64029" lon="5.32827">
        <ele>123.409657</ele>
        <time>2020-07-28T12:23:46.233Z</time>
      </trkpt>
      <trkpt lat="61.64194" lon="5.33025">
        <ele>136.931604</ele>
        <time>2020-07-28T12:25:34.205Z</time>
      </trkpt>
      <trkpt lat="61.64365" lon="5.32671">
        <ele>127.383382</ele>
        <time>2020-07-28T12:26:22.218Z</time>
      </trkpt>
      <trkpt lat="61.64332" lon="5.32186">
        <ele>129.498067</ele>
        <time>2020-07-28T12:27:17.224Z</time>
      </trkpt>
      <trkpt lat="61.64286" lon="5.31779">
        <ele>141.393796</ele>
        <time>2020-07-28T12:28:45.246Z</time>
      </trkpt>
      <trkpt lat="61.64296" lon="5.31362">
        <ele>141.357972</ele>
        <time>2020-07-28T12:29:53.231Z</time>
      </trkpt>
      <trkpt lat="61.64324" lon="5.30873">
        <ele>141.181052</ele>
        <time>2020-07-28T12:30:56.230Z</time>
      </trkpt>
      <trkpt lat="61.64155" lon="5.30634">
        <ele>143.82726</ele>
        <time>2020-07-28T12:31:51.219Z</time>
      </trkpt>
      <trkpt lat="61.63989" lon="5.30365">
        <ele>138.348768</ele>
        <time>2020-07-28T12:32:42.236Z</time>
      </trkpt>
      <trkpt lat="61.63985" lon="5.29871">
        <ele>127.516502</ele>
        <time>2020-07-28T12:33:10.252Z</time>
      </trkpt>
      <trkpt lat="61.641" lon="5.29406">
        <ele>125.541696</ele>
        <time>2020-07-28T12:33:42.221Z</time>
      </trkpt>
      <trkpt lat="61.64104" lon="5.2899">
        <ele>128.278014</ele>
        <time>2020-07-28T12:35:25.236Z</time>
      </trkpt>
      <trkpt lat="61.64045" lon="5.28595">
        <ele>133.362496</ele>
        <time>2020-07-28T12:44:34.226Z</time>
      </trkpt>
      <trkpt lat="61.63969" lon="5.28192">
        <ele>129.904377</ele>
        <time>2020-07-28T12:45:14.292Z</time>
      </trkpt>
      <trkpt lat="61.63862" lon="5.27152">
        <ele>128.1589</ele>
        <time>2020-07-28T12:46:57.211Z</time>
      </trkpt>
      <trkpt lat="61.63848" lon="5.26688">
        <ele>118.075753</ele>
        <time>2020-07-28T12:47:54.219Z</time>
      </trkpt>
      <trkpt lat="61.63831" lon="5.26082">
        <ele>110.6838</ele>
        <time>2020-07-28T12:48:34.230Z</time>
      </trkpt>
      <trkpt lat="61.63806" lon="5.25521">
        <ele>104.791795</ele>
        <time>2020-07-28T12:49:13.226Z</time>
      </trkpt>
      <trkpt lat="61.63765" lon="5.25092">
        <ele>97.595526</ele>
        <time>2020-07-28T12:49:33.230Z</time>
      </trkpt>
      <trkpt lat="61.63696" lon="5.24626">
        <ele>88.647245</ele>
        <time>2020-07-28T12:49:54.228Z</time>
      </trkpt>
      <trkpt lat="61.63624" lon="5.24116">
        <ele>80.019155</ele>
        <time>2020-07-28T12:50:14.218Z</time>
      </trkpt>
      <trkpt lat="61.63589" lon="5.23618">
        <ele>74.495467</ele>
        <time>2020-07-28T12:50:41.235Z</time>
      </trkpt>
      <trkpt lat="61.63592" lon="5.23187">
        <ele>81.32475</ele>
        <time>2020-07-28T12:51:55.218Z</time>
      </trkpt>
      <trkpt lat="61.63553" lon="5.2275">
        <ele>91.74385</ele>
        <time>2020-07-28T12:53:39.210Z</time>
      </trkpt>
      <trkpt lat="61.63557" lon="5.22162">
        <ele>116.810421</ele>
        <time>2020-07-28T12:56:58.246Z</time>
      </trkpt>
      <trkpt lat="61.63524" lon="5.21779">
        <ele>133.802673</ele>
        <time>2020-07-28T12:59:01.223Z</time>
      </trkpt>
      <trkpt lat="61.63554" lon="5.21433">
        <ele>141.610109</ele>
        <time>2020-07-28T13:01:16.223Z</time>
      </trkpt>
      <trkpt lat="61.63686" lon="5.21701">
        <ele>157.061154</ele>
        <time>2020-07-28T13:03:51.238Z</time>
      </trkpt>
      <trkpt lat="61.63754" lon="5.21359">
        <ele>185.391128</ele>
        <time>2020-07-28T13:06:34.245Z</time>
      </trkpt>
      <trkpt lat="61.63756" lon="5.20976">
        <ele>193.109924</ele>
        <time>2020-07-28T13:09:01.217Z</time>
      </trkpt>
      <trkpt lat="61.6377" lon="5.20579">
        <ele>209.992463</ele>
        <time>2020-07-28T13:11:37.226Z</time>
      </trkpt>
      <trkpt lat="61.63812" lon="5.20165">
        <ele>219.619949</ele>
        <time>2020-07-28T13:14:12.227Z</time>
      </trkpt>
      <trkpt lat="61.63975" lon="5.1994">
        <ele>230.441111</ele>
        <time>2020-07-28T13:26:53.221Z</time>
      </trkpt>
      <trkpt lat="61.64154" lon="5.19844">
        <ele>246.001051</ele>
        <time>2020-07-28T13:28:57.244Z</time>
      </trkpt>
      <trkpt lat="61.64342" lon="5.19785">
        <ele>260.583137</ele>
        <time>2020-07-28T13:31:10.221Z</time>
      </trkpt>
      <trkpt lat="61.64534" lon="5.19668">
        <ele>274.029538</ele>
        <time>2020-07-28T13:33:33.229Z</time>
      </trkpt>
      <trkpt lat="61.64722" lon="5.19589">
        <ele>296.551392</ele>
        <time>2020-07-28T13:35:51.249Z</time>
      </trkpt>
      <trkpt lat="61.64901" lon="5.19467">
        <ele>316.813857</ele>
        <time>2020-07-28T13:38:08.220Z</time>
      </trkpt>
      <trkpt lat="61.65076" lon="5.19322">
        <ele>340.714086</ele>
        <time>2020-07-28T13:40:29.229Z</time>
      </trkpt>
      <trkpt lat="61.65264" lon="5.19313">
        <ele>352.663493</ele>
        <time>2020-07-28T13:42:59.239Z</time>
      </trkpt>
      <trkpt lat="61.65465" lon="5.19293">
        <ele>367.97013</ele>
        <time>2020-07-28T13:45:40.222Z</time>
      </trkpt>
      <trkpt lat="61.65654" lon="5.19291">
        <ele>373.874404</ele>
        <time>2020-07-28T13:48:14.228Z</time>
      </trkpt>
      <trkpt lat="61.66462" lon="5.19543">
        <ele>441.279724</ele>
        <time>2020-07-28T14:05:16.259Z</time>
      </trkpt>
      <trkpt lat="61.69296" lon="5.19706">
        <ele>370.233668</ele>
        <time>2020-07-28T14:21:38.222Z</time>
      </trkpt>
      <trkpt lat="61.69532" lon="5.19936">
        <ele>304.381978</ele>
        <time>2020-07-28T14:26:46.231Z</time>
      </trkpt>
      <trkpt lat="61.69756" lon="5.19876">
        <ele>287.098418</ele>
        <time>2020-07-28T14:27:06.236Z</time>
      </trkpt>
      <trkpt lat="61.70004" lon="5.19666">
        <ele>261.646166</ele>
        <time>2020-07-28T14:27:26.236Z</time>
      </trkpt>
      <trkpt lat="61.70224" lon="5.19468">
        <ele>237.146818</ele>
        <time>2020-07-28T14:27:46.271Z</time>
      </trkpt>
      <trkpt lat="61.70423" lon="5.19206">
        <ele>216.828336</ele>
        <time>2020-07-28T14:28:07.227Z</time>
      </trkpt>
      <trkpt lat="61.70665" lon="5.1916">
        <ele>201.307912</ele>
        <time>2020-07-28T14:28:27.251Z</time>
      </trkpt>
      <trkpt lat="61.709" lon="5.19296">
        <ele>183.856949</ele>
        <time>2020-07-28T14:28:47.238Z</time>
      </trkpt>
      <trkpt lat="61.71144" lon="5.19262">
        <ele>164.262836</ele>
        <time>2020-07-28T14:29:07.224Z</time>
      </trkpt>
      <trkpt lat="61.71433" lon="5.19143">
        <ele>140.399596</ele>
        <time>2020-07-28T14:29:28.236Z</time>
      </trkpt>
      <trkpt lat="61.71682" lon="5.1904">
        <ele>127.590431</ele>
        <time>2020-07-28T14:29:48.258Z</time>
      </trkpt>
      <trkpt lat="61.71904" lon="5.18967">
        <ele>115.73092</ele>
        <time>2020-07-28T14:30:08.237Z</time>
      </trkpt>
      <trkpt lat="61.71922" lon="5.19386">
        <ele>98.048472</ele>
        <time>2020-07-28T14:30:28.250Z</time>
      </trkpt>
      <trkpt lat="61.72" lon="5.19847">
        <ele>78.984131</ele>
        <time>2020-07-28T14:30:49.241Z</time>
      </trkpt>
      <trkpt lat="61.72107" lon="5.20308">
        <ele>57.923058</ele>
        <time>2020-07-28T14:31:09.253Z</time>
      </trkpt>
      <trkpt lat="61.72313" lon="5.20547">
        <ele>49.278756</ele>
        <time>2020-07-28T14:31:44.221Z</time>
      </trkpt>
      <trkpt lat="61.72217" lon="5.2098">
        <ele>45.865483</ele>
        <time>2020-07-28T14:32:30.240Z</time>
      </trkpt>
      <trkpt lat="61.72108" lon="5.21368">
        <ele>38.551277</ele>
        <time>2020-07-28T14:32:56.237Z</time>
      </trkpt>
      <trkpt lat="61.72249" lon="5.21761">
        <ele>53.753759</ele>
        <time>2020-07-28T14:34:09.232Z</time>
      </trkpt>
      <trkpt lat="61.72462" lon="5.21926">
        <ele>55.471393</ele>
        <time>2020-07-28T14:34:53.238Z</time>
      </trkpt>
      <trkpt lat="61.72562" lon="5.22335">
        <ele>48.511292</ele>
        <time>2020-07-28T14:35:33.235Z</time>
      </trkpt>
      <trkpt lat="61.72759" lon="5.22298">
        <ele>50.483105</ele>
        <time>2020-07-28T14:36:14.230Z</time>
      </trkpt>
      <trkpt lat="61.72925" lon="5.21944">
        <ele>53.890708</ele>
        <time>2020-07-28T14:37:11.245Z</time>
      </trkpt>
      <trkpt lat="61.73012" lon="5.21508">
        <ele>54.0038</ele>
        <time>2020-07-28T14:38:02.229Z</time>
      </trkpt>
      <trkpt lat="61.73146" lon="5.21122">
        <ele>51.565276</ele>
        <time>2020-07-28T14:38:51.274Z</time>
      </trkpt>
      <trkpt lat="61.73243" lon="5.20761">
        <ele>59.720632</ele>
        <time>2020-07-28T14:40:46.260Z</time>
      </trkpt>
      <trkpt lat="61.73377" lon="5.20427">
        <ele>65.967321</ele>
        <time>2020-07-28T14:42:44.259Z</time>
      </trkpt>
      <trkpt lat="61.73556" lon="5.20178">
        <ele>70.945205</ele>
        <time>2020-07-28T14:43:50.231Z</time>
      </trkpt>
      <trkpt lat="61.73675" lon="5.19809">
        <ele>68.091556</ele>
        <time>2020-07-28T14:44:41.249Z</time>
      </trkpt>
      <trkpt lat="61.73723" lon="5.19396">
        <ele>63.810259</ele>
        <time>2020-07-28T14:45:27.256Z</time>
      </trkpt>
      <trkpt lat="61.73722" lon="5.18916">
        <ele>66.159418</ele>
        <time>2020-07-28T14:46:23.267Z</time>
      </trkpt>
      <trkpt lat="61.73793" lon="5.18483">
        <ele>62.680763</ele>
        <time>2020-07-28T14:47:10.263Z</time>
      </trkpt>
      <trkpt lat="61.73781" lon="5.18048">
        <ele>56.970902</ele>
        <time>2020-07-28T14:47:41.233Z</time>
      </trkpt>
      <trkpt lat="61.73882" lon="5.1764">
        <ele>58.703926</ele>
        <time>2020-07-28T14:48:38.227Z</time>
      </trkpt>
      <trkpt lat="61.73908" lon="5.17171">
        <ele>63.632539</ele>
        <time>2020-07-28T14:49:53.248Z</time>
      </trkpt>
      <trkpt lat="61.73905" lon="5.16697">
        <ele>61.644479</ele>
        <time>2020-07-28T14:50:56.249Z</time>
      </trkpt>
      <trkpt lat="61.74012" lon="5.16231">
        <ele>53.658074</ele>
        <time>2020-07-28T14:51:26.244Z</time>
      </trkpt>
      <trkpt lat="61.74108" lon="5.15829">
        <ele>63.961955</ele>
        <time>2020-07-28T14:52:58.252Z</time>
      </trkpt>
      <trkpt lat="61.74289" lon="5.15688">
        <ele>73.783667</ele>
        <time>2020-07-28T14:54:26.233Z</time>
      </trkpt>
      <trkpt lat="61.74513" lon="5.15644">
        <ele>71.087981</ele>
        <time>2020-07-28T14:55:20.249Z</time>
      </trkpt>
      <trkpt lat="61.74636" lon="5.15225">
        <ele>60.722824</ele>
        <time>2020-07-28T14:55:51.295Z</time>
      </trkpt>
      <trkpt lat="61.74803" lon="5.15024">
        <ele>66.394507</ele>
        <time>2020-07-28T14:56:46.273Z</time>
      </trkpt>
      <trkpt lat="61.75009" lon="5.15084">
        <ele>88.697964</ele>
        <time>2020-07-28T14:57:57.229Z</time>
      </trkpt>
      <trkpt lat="61.75229" lon="5.15094">
        <ele>86.237224</ele>
        <time>2020-07-28T14:59:17.232Z</time>
      </trkpt>
      <trkpt lat="61.75429" lon="5.15434">
        <ele>80.766186</ele>
        <time>2020-07-28T14:59:59.255Z</time>
      </trkpt>
      <trkpt lat="61.7557" lon="5.15913">
        <ele>77.804309</ele>
        <time>2020-07-28T15:00:39.228Z</time>
      </trkpt>
      <trkpt lat="61.7575" lon="5.16246">
        <ele>73.326156</ele>
        <time>2020-07-28T15:01:08.252Z</time>
      </trkpt>
      <trkpt lat="61.75899" lon="5.16629">
        <ele>72.417371</ele>
        <time>2020-07-28T15:02:18.233Z</time>
      </trkpt>
      <trkpt lat="61.7585" lon="5.16949">
        <ele>74.345706</ele>
        <time>2020-07-28T15:03:44.232Z</time>
      </trkpt>
      <trkpt lat="61.75798" lon="5.17415">
        <ele>64.502308</ele>
        <time>2020-07-28T15:04:16.262Z</time>
      </trkpt>
      <trkpt lat="61.75872" lon="5.17813">
        <ele>68.479993</ele>
        <time>2020-07-28T15:05:38.237Z</time>
      </trkpt>
      <trkpt lat="61.75951" lon="5.18272">
        <ele>66.868423</ele>
        <time>2020-07-28T15:06:31.241Z</time>
      </trkpt>
      <trkpt lat="61.75933" lon="5.18612">
        <ele>67.176527</ele>
        <time>2020-07-28T15:07:16.239Z</time>
      </trkpt>
      <trkpt lat="61.75932" lon="5.19096">
        <ele>68.226858</ele>
        <time>2020-07-28T15:08:06.270Z</time>
      </trkpt>
      <trkpt lat="61.75805" lon="5.19556">
        <ele>57.932625</ele>
        <time>2020-07-28T15:08:56.271Z</time>
      </trkpt>
      <trkpt lat="61.75731" lon="5.20034">
        <ele>60.148488</ele>
        <time>2020-07-28T15:09:38.218Z</time>
      </trkpt>
      <trkpt lat="61.75761" lon="5.20452">
        <ele>69.025665</ele>
        <time>2020-07-28T15:10:54.253Z</time>
      </trkpt>
      <trkpt lat="61.75877" lon="5.20792">
        <ele>80.521638</ele>
        <time>2020-07-28T15:12:16.234Z</time>
      </trkpt>
      <trkpt lat="61.7592" lon="5.21226">
        <ele>70.989968</ele>
        <time>2020-07-28T15:13:04.250Z</time>
      </trkpt>
      <trkpt lat="61.7595" lon="5.21659">
        <ele>69.556459</ele>
        <time>2020-07-28T15:13:47.260Z</time>
      </trkpt>
      <trkpt lat="61.76067" lon="5.22028">
        <ele>79.887543</ele>
        <time>2020-07-28T15:15:35.244Z</time>
      </trkpt>
      <trkpt lat="61.76166" lon="5.22449">
        <ele>81.191127</ele>
        <time>2020-07-28T15:16:17.269Z</time>
      </trkpt>
      <trkpt lat="61.76152" lon="5.22998">
        <ele>75.978659</ele>
        <time>2020-07-28T15:17:01.259Z</time>
      </trkpt>
      <trkpt lat="61.76133" lon="5.23431">
        <ele>79.586673</ele>
        <time>2020-07-28T15:18:22.234Z</time>
      </trkpt>
      <trkpt lat="61.76076" lon="5.24034">
        <ele>87.300732</ele>
        <time>2020-07-28T15:19:49.246Z</time>
      </trkpt>
      <trkpt lat="61.76119" lon="5.24437">
        <ele>89.810447</ele>
        <time>2020-07-28T15:21:07.236Z</time>
      </trkpt>
      <trkpt lat="61.76196" lon="5.24846">
        <ele>98.987625</ele>
        <time>2020-07-28T15:22:31.238Z</time>
      </trkpt>
      <trkpt lat="61.76253" lon="5.25237">
        <ele>108.440251</ele>
        <time>2020-07-28T15:24:27.239Z</time>
      </trkpt>
      <trkpt lat="61.76414" lon="5.25444">
        <ele>115.661294</ele>
        <time>2020-07-28T15:26:36.249Z</time>
      </trkpt>
      <trkpt lat="61.76531" lon="5.25681">
        <ele>116.952619</ele>
        <time>2020-07-28T15:28:37.255Z</time>
      </trkpt>
    </trkseg>
  </trk>
  <trk>
    <name><![CDATA[Tour d'Europe: étape 031 bis]]></name>
    <trkseg>
      <trkpt lat="61.76432" lon="5.25878">
        <ele>119.629022</ele>
        <time>2020-07-29T07:02:50.779Z</time>
      </trkpt>
      <trkpt lat="61.76312" lon="5.26265">
        <ele>104.728452</ele>
        <time>2020-07-29T07:03:32.820Z</time>
      </trkpt>
      <trkpt lat="61.76222" lon="5.26694">
        <ele>79.174311</ele>
        <time>2020-07-29T07:04:14.769Z</time>
      </trkpt>
      <trkpt lat="61.76239" lon="5.2719">
        <ele>70.746389</ele>
        <time>2020-07-29T07:05:09.779Z</time>
      </trkpt>
      <trkpt lat="61.76294" lon="5.27642">
        <ele>75.134222</ele>
        <time>2020-07-29T07:06:00.848Z</time>
      </trkpt>
      <trkpt lat="61.76421" lon="5.28064">
        <ele>71.361506</ele>
        <time>2020-07-29T07:06:50.812Z</time>
      </trkpt>
      <trkpt lat="61.76621" lon="5.28487">
        <ele>60.388164</ele>
        <time>2020-07-29T07:07:32.815Z</time>
      </trkpt>
      <trkpt lat="61.76767" lon="5.28874">
        <ele>56.386471</ele>
        <time>2020-07-29T07:08:05.789Z</time>
      </trkpt>
      <trkpt lat="61.76878" lon="5.29264">
        <ele>59.281155</ele>
        <time>2020-07-29T07:08:53.785Z</time>
      </trkpt>
      <trkpt lat="61.76832" lon="5.29198">
        <ele>55.713523</ele>
        <time>2020-07-29T07:09:59.764Z</time>
      </trkpt>
      <trkpt lat="61.76734" lon="5.29261">
        <ele>69.474505</ele>
        <time>2020-07-29T07:11:57.778Z</time>
      </trkpt>
      <trkpt lat="61.76542" lon="5.29352">
        <ele>91.550493</ele>
        <time>2020-07-29T07:14:52.779Z</time>
      </trkpt>
      <trkpt lat="61.76672" lon="5.29553">
        <ele>117.644213</ele>
        <time>2020-07-29T07:17:52.769Z</time>
      </trkpt>
      <trkpt lat="61.76778" lon="5.29925">
        <ele>142.400818</ele>
        <time>2020-07-29T07:21:00.801Z</time>
      </trkpt>
      <trkpt lat="61.76926" lon="5.30411">
        <ele>159.339924</ele>
        <time>2020-07-29T07:25:07.773Z</time>
      </trkpt>
      <trkpt lat="61.77117" lon="5.30527">
        <ele>169.540071</ele>
        <time>2020-07-29T07:27:38.775Z</time>
      </trkpt>
      <trkpt lat="61.77321" lon="5.30649">
        <ele>186.824571</ele>
        <time>2020-07-29T07:30:35.784Z</time>
      </trkpt>
      <trkpt lat="61.7751" lon="5.30779">
        <ele>203.942525</ele>
        <time>2020-07-29T07:33:43.829Z</time>
      </trkpt>
      <trkpt lat="61.77697" lon="5.3092">
        <ele>223.710863</ele>
        <time>2020-07-29T07:36:49.835Z</time>
      </trkpt>
      <trkpt lat="61.77647" lon="5.31238">
        <ele>246.968038</ele>
        <time>2020-07-29T07:39:59.792Z</time>
      </trkpt>
      <trkpt lat="61.77341" lon="5.31481">
        <ele>261.03984</ele>
        <time>2020-07-29T07:43:52.794Z</time>
      </trkpt>
      <trkpt lat="61.77391" lon="5.31847">
        <ele>273.185783</ele>
        <time>2020-07-29T07:46:39.773Z</time>
      </trkpt>
      <trkpt lat="61.77427" lon="5.32238">
        <ele>288.936237</ele>
        <time>2020-07-29T07:49:18.793Z</time>
      </trkpt>
      <trkpt lat="61.77579" lon="5.32532">
        <ele>304.729882</ele>
        <time>2020-07-29T07:52:21.805Z</time>
      </trkpt>
      <trkpt lat="61.77741" lon="5.32775">
        <ele>317.176041</ele>
        <time>2020-07-29T07:55:13.794Z</time>
      </trkpt>
      <trkpt lat="61.77869" lon="5.33145">
        <ele>317.912973</ele>
        <time>2020-07-29T07:56:05.777Z</time>
      </trkpt>
      <trkpt lat="61.78045" lon="5.33477">
        <ele>295.42879</ele>
        <time>2020-07-29T07:56:27.787Z</time>
      </trkpt>
      <trkpt lat="61.78238" lon="5.33674">
        <ele>279.921237</ele>
        <time>2020-07-29T07:56:48.778Z</time>
      </trkpt>
      <trkpt lat="61.78475" lon="5.33625">
        <ele>292.743189</ele>
        <time>2020-07-29T07:58:02.776Z</time>
      </trkpt>
      <trkpt lat="61.78709" lon="5.33726">
        <ele>295.971797</ele>
        <time>2020-07-29T07:59:48.791Z</time>
      </trkpt>
      <trkpt lat="61.78895" lon="5.33872">
        <ele>302.7759</ele>
        <time>2020-07-29T08:02:09.793Z</time>
      </trkpt>
      <trkpt lat="61.79011" lon="5.34356">
        <ele>297.733166</ele>
        <time>2020-07-29T08:02:47.788Z</time>
      </trkpt>
      <trkpt lat="61.79132" lon="5.34837">
        <ele>286.087133</ele>
        <time>2020-07-29T08:03:12.809Z</time>
      </trkpt>
      <trkpt lat="61.79172" lon="5.35299">
        <ele>285.660834</ele>
        <time>2020-07-29T08:04:30.811Z</time>
      </trkpt>
      <trkpt lat="61.79219" lon="5.35707">
        <ele>303.393589</ele>
        <time>2020-07-29T08:06:45.798Z</time>
      </trkpt>
      <trkpt lat="61.79281" lon="5.36086">
        <ele>318.482271</ele>
        <time>2020-07-29T08:09:32.795Z</time>
      </trkpt>
      <trkpt lat="61.79428" lon="5.36421">
        <ele>328.701045</ele>
        <time>2020-07-29T08:11:22.788Z</time>
      </trkpt>
      <trkpt lat="61.79623" lon="5.36695">
        <ele>330.222914</ele>
        <time>2020-07-29T08:12:34.814Z</time>
      </trkpt>
      <trkpt lat="61.79781" lon="5.36636">
        <ele>333.037595</ele>
        <time>2020-07-29T08:14:09.822Z</time>
      </trkpt>
      <trkpt lat="61.79934" lon="5.36523">
        <ele>321.420303</ele>
        <time>2020-07-29T08:15:00.779Z</time>
      </trkpt>
      <trkpt lat="61.80033" lon="5.3692">
        <ele>333.248987</ele>
        <time>2020-07-29T08:16:42.807Z</time>
      </trkpt>
      <trkpt lat="61.80163" lon="5.37359">
        <ele>329.976228</ele>
        <time>2020-07-29T08:17:27.787Z</time>
      </trkpt>
      <trkpt lat="61.80289" lon="5.37778">
        <ele>328.678222</ele>
        <time>2020-07-29T08:18:16.792Z</time>
      </trkpt>
      <trkpt lat="61.80326" lon="5.38204">
        <ele>336.924855</ele>
        <time>2020-07-29T08:19:47.797Z</time>
      </trkpt>
      <trkpt lat="61.8047" lon="5.38599">
        <ele>341.653699</ele>
        <time>2020-07-29T08:20:56.788Z</time>
      </trkpt>
      <trkpt lat="61.80537" lon="5.39089">
        <ele>341.667428</ele>
        <time>2020-07-29T08:22:00.774Z</time>
      </trkpt>
      <trkpt lat="61.80671" lon="5.3941">
        <ele>352.363691</ele>
        <time>2020-07-29T08:24:04.788Z</time>
      </trkpt>
      <trkpt lat="61.80823" lon="5.397">
        <ele>362.109607</ele>
        <time>2020-07-29T08:26:07.801Z</time>
      </trkpt>
      <trkpt lat="61.80958" lon="5.40017">
        <ele>377.887919</ele>
        <time>2020-07-29T08:28:34.803Z</time>
      </trkpt>
      <trkpt lat="61.8111" lon="5.40321">
        <ele>391.772199</ele>
        <time>2020-07-29T08:31:17.805Z</time>
      </trkpt>
      <trkpt lat="61.81252" lon="5.40644">
        <ele>398.104452</ele>
        <time>2020-07-29T08:33:30.796Z</time>
      </trkpt>
      <trkpt lat="61.81414" lon="5.40925">
        <ele>402.427044</ele>
        <time>2020-07-29T08:34:41.772Z</time>
      </trkpt>
      <trkpt lat="61.81588" lon="5.41217">
        <ele>406.014398</ele>
        <time>2020-07-29T08:36:19.793Z</time>
      </trkpt>
      <trkpt lat="61.81763" lon="5.41446">
        <ele>411.774812</ele>
        <time>2020-07-29T08:37:56.809Z</time>
      </trkpt>
      <trkpt lat="61.81906" lon="5.41748">
        <ele>424.768482</ele>
        <time>2020-07-29T08:40:16.805Z</time>
      </trkpt>
      <trkpt lat="61.82087" lon="5.41982">
        <ele>428.764632</ele>
        <time>2020-07-29T08:42:25.815Z</time>
      </trkpt>
      <trkpt lat="61.82356" lon="5.41962">
        <ele>419.314583</ele>
        <time>2020-07-29T08:47:47.782Z</time>
      </trkpt>
      <trkpt lat="61.82555" lon="5.42219">
        <ele>422.252996</ele>
        <time>2020-07-29T08:48:31.792Z</time>
      </trkpt>
      <trkpt lat="61.82611" lon="5.42706">
        <ele>426.595518</ele>
        <time>2020-07-29T08:49:23.834Z</time>
      </trkpt>
      <trkpt lat="61.827" lon="5.43182">
        <ele>427.118882</ele>
        <time>2020-07-29T08:50:26.803Z</time>
      </trkpt>
      <trkpt lat="61.82784" lon="5.43621">
        <ele>427.084629</ele>
        <time>2020-07-29T08:51:09.827Z</time>
      </trkpt>
      <trkpt lat="61.82898" lon="5.44073">
        <ele>423.846219</ele>
        <time>2020-07-29T08:51:51.801Z</time>
      </trkpt>
      <trkpt lat="61.8297" lon="5.4454">
        <ele>435.566791</ele>
        <time>2020-07-29T08:53:09.810Z</time>
      </trkpt>
      <trkpt lat="61.83048" lon="5.44936">
        <ele>442.686939</ele>
        <time>2020-07-29T08:55:07.773Z</time>
      </trkpt>
      <trkpt lat="61.83107" lon="5.45406">
        <ele>440.272018</ele>
        <time>2020-07-29T08:56:07.789Z</time>
      </trkpt>
      <trkpt lat="61.83247" lon="5.45856">
        <ele>429.804881</ele>
        <time>2020-07-29T08:56:40.791Z</time>
      </trkpt>
      <trkpt lat="61.83322" lon="5.46365">
        <ele>421.645856</ele>
        <time>2020-07-29T08:57:13.809Z</time>
      </trkpt>
      <trkpt lat="61.83345" lon="5.46869">
        <ele>420.508377</ele>
        <time>2020-07-29T08:58:00.788Z</time>
      </trkpt>
      <trkpt lat="61.83373" lon="5.47441">
        <ele>415.37328</ele>
        <time>2020-07-29T08:58:54.796Z</time>
      </trkpt>
      <trkpt lat="61.8331" lon="5.47952">
        <ele>417.964226</ele>
        <time>2020-07-29T09:00:24.805Z</time>
      </trkpt>
      <trkpt lat="61.83218" lon="5.48434">
        <ele>418.001425</ele>
        <time>2020-07-29T09:01:26.800Z</time>
      </trkpt>
      <trkpt lat="61.83132" lon="5.48888">
        <ele>404.655664</ele>
        <time>2020-07-29T09:01:48.813Z</time>
      </trkpt>
      <trkpt lat="61.83033" lon="5.494">
        <ele>394.418027</ele>
        <time>2020-07-29T09:02:21.789Z</time>
      </trkpt>
      <trkpt lat="61.82935" lon="5.49912">
        <ele>382.072887</ele>
        <time>2020-07-29T09:02:42.791Z</time>
      </trkpt>
      <trkpt lat="61.82877" lon="5.5048">
        <ele>365.862913</ele>
        <time>2020-07-29T09:03:03.789Z</time>
      </trkpt>
      <trkpt lat="61.82906" lon="5.51108">
        <ele>348.428</ele>
        <time>2020-07-29T09:03:25.788Z</time>
      </trkpt>
      <trkpt lat="61.8286" lon="5.51728">
        <ele>325.824729</ele>
        <time>2020-07-29T09:03:46.788Z</time>
      </trkpt>
      <trkpt lat="61.82907" lon="5.52167">
        <ele>333.838319</ele>
        <time>2020-07-29T09:04:51.805Z</time>
      </trkpt>
      <trkpt lat="61.83024" lon="5.52629">
        <ele>340.940217</ele>
        <time>2020-07-29T09:06:06.800Z</time>
      </trkpt>
      <trkpt lat="61.83064" lon="5.53091">
        <ele>342.624364</ele>
        <time>2020-07-29T09:07:06.787Z</time>
      </trkpt>
      <trkpt lat="61.8312" lon="5.53601">
        <ele>333.737862</ele>
        <time>2020-07-29T09:07:35.791Z</time>
      </trkpt>
      <trkpt lat="61.8317" lon="5.54126">
        <ele>325.631008</ele>
        <time>2020-07-29T09:08:16.805Z</time>
      </trkpt>
      <trkpt lat="61.8325" lon="5.54672">
        <ele>323.015303</ele>
        <time>2020-07-29T09:08:58.832Z</time>
      </trkpt>
      <trkpt lat="61.83272" lon="5.55174">
        <ele>328.620345</ele>
        <time>2020-07-29T09:09:46.793Z</time>
      </trkpt>
      <trkpt lat="61.83338" lon="5.55703">
        <ele>332.460192</ele>
        <time>2020-07-29T09:10:30.807Z</time>
      </trkpt>
      <trkpt lat="61.83293" lon="5.56249">
        <ele>316.108725</ele>
        <time>2020-07-29T09:11:12.820Z</time>
      </trkpt>
      <trkpt lat="61.83241" lon="5.56789">
        <ele>304.704815</ele>
        <time>2020-07-29T09:11:48.794Z</time>
      </trkpt>
      <trkpt lat="61.83219" lon="5.57319">
        <ele>297.561537</ele>
        <time>2020-07-29T09:12:14.801Z</time>
      </trkpt>
      <trkpt lat="61.8333" lon="5.57762">
        <ele>306.685326</ele>
        <time>2020-07-29T09:13:15.789Z</time>
      </trkpt>
      <trkpt lat="61.83439" lon="5.5822">
        <ele>312.110223</ele>
        <time>2020-07-29T09:14:16.812Z</time>
      </trkpt>
      <trkpt lat="61.8344" lon="5.58738">
        <ele>300.321361</ele>
        <time>2020-07-29T09:14:47.795Z</time>
      </trkpt>
      <trkpt lat="61.8337" lon="5.59253">
        <ele>295.202534</ele>
        <time>2020-07-29T09:15:25.788Z</time>
      </trkpt>
      <trkpt lat="61.83376" lon="5.59767">
        <ele>296.471329</ele>
        <time>2020-07-29T09:16:25.811Z</time>
      </trkpt>
      <trkpt lat="61.83416" lon="5.60282">
        <ele>288.508903</ele>
        <time>2020-07-29T09:16:51.811Z</time>
      </trkpt>
      <trkpt lat="61.83468" lon="5.6082">
        <ele>271.599939</ele>
        <time>2020-07-29T09:17:15.797Z</time>
      </trkpt>
      <trkpt lat="61.83507" lon="5.61281">
        <ele>260.461594</ele>
        <time>2020-07-29T09:17:57.802Z</time>
      </trkpt>
      <trkpt lat="61.83546" lon="5.61787">
        <ele>255.994718</ele>
        <time>2020-07-29T09:18:25.805Z</time>
      </trkpt>
      <trkpt lat="61.83598" lon="5.62512">
        <ele>250.187011</ele>
        <time>2020-07-29T09:22:40.810Z</time>
      </trkpt>
      <trkpt lat="61.83552" lon="5.63039">
        <ele>250.531493</ele>
        <time>2020-07-29T09:23:28.806Z</time>
      </trkpt>
      <trkpt lat="61.83578" lon="5.63545">
        <ele>246.537507</ele>
        <time>2020-07-29T09:24:10.796Z</time>
      </trkpt>
      <trkpt lat="61.83625" lon="5.64116">
        <ele>230.126111</ele>
        <time>2020-07-29T09:24:51.806Z</time>
      </trkpt>
      <trkpt lat="61.83595" lon="5.6459">
        <ele>220.946836</ele>
        <time>2020-07-29T09:25:13.838Z</time>
      </trkpt>
      <trkpt lat="61.83609" lon="5.65112">
        <ele>206.068221</ele>
        <time>2020-07-29T09:25:40.795Z</time>
      </trkpt>
      <trkpt lat="61.83673" lon="5.65657">
        <ele>182.364421</ele>
        <time>2020-07-29T09:26:19.801Z</time>
      </trkpt>
      <trkpt lat="61.83826" lon="5.66158">
        <ele>148.472661</ele>
        <time>2020-07-29T09:27:00.816Z</time>
      </trkpt>
      <trkpt lat="61.83884" lon="5.66736">
        <ele>111.349332</ele>
        <time>2020-07-29T09:27:43.796Z</time>
      </trkpt>
      <trkpt lat="61.8375" lon="5.67076">
        <ele>81.828071</ele>
        <time>2020-07-29T09:28:37.818Z</time>
      </trkpt>
      <trkpt lat="61.83887" lon="5.67548">
        <ele>73.051158</ele>
        <time>2020-07-29T09:29:23.815Z</time>
      </trkpt>
      <trkpt lat="61.83922" lon="5.67921">
        <ele>56.247722</ele>
        <time>2020-07-29T09:30:21.793Z</time>
      </trkpt>
      <trkpt lat="61.84022" lon="5.68346">
        <ele>53.275652</ele>
        <time>2020-07-29T09:31:13.801Z</time>
      </trkpt>
      <trkpt lat="61.84148" lon="5.68813">
        <ele>57.205884</ele>
        <time>2020-07-29T09:32:18.804Z</time>
      </trkpt>
      <trkpt lat="61.84264" lon="5.69243">
        <ele>62.854264</ele>
        <time>2020-07-29T09:33:20.798Z</time>
      </trkpt>
      <trkpt lat="61.84344" lon="5.69648">
        <ele>75.482082</ele>
        <time>2020-07-29T09:35:07.792Z</time>
      </trkpt>
      <trkpt lat="61.8438" lon="5.70078">
        <ele>86.115828</ele>
        <time>2020-07-29T09:37:15.802Z</time>
      </trkpt>
      <trkpt lat="61.84422" lon="5.70538">
        <ele>94.235446</ele>
        <time>2020-07-29T09:38:43.805Z</time>
      </trkpt>
      <trkpt lat="61.84474" lon="5.7101">
        <ele>89.829622</ele>
        <time>2020-07-29T09:40:04.809Z</time>
      </trkpt>
      <trkpt lat="61.84574" lon="5.71406">
        <ele>96.585401</ele>
        <time>2020-07-29T09:41:45.805Z</time>
      </trkpt>
      <trkpt lat="61.84721" lon="5.71778">
        <ele>100.103069</ele>
        <time>2020-07-29T09:43:11.826Z</time>
      </trkpt>
      <trkpt lat="61.8479" lon="5.72168">
        <ele>112.050097</ele>
        <time>2020-07-29T09:45:15.824Z</time>
      </trkpt>
      <trkpt lat="61.86356" lon="5.73176">
        <ele>74.726248</ele>
        <time>2020-07-29T09:50:58.825Z</time>
      </trkpt>
      <trkpt lat="61.86615" lon="5.73001">
        <ele>52.32572</ele>
        <time>2020-07-29T09:51:20.811Z</time>
      </trkpt>
      <trkpt lat="61.86868" lon="5.72896">
        <ele>51.466244</ele>
        <time>2020-07-29T09:51:54.816Z</time>
      </trkpt>
      <trkpt lat="61.87062" lon="5.72643">
        <ele>51.50398</ele>
        <time>2020-07-29T09:52:48.831Z</time>
      </trkpt>
      <trkpt lat="61.87279" lon="5.72332">
        <ele>53.400811</ele>
        <time>2020-07-29T09:53:53.817Z</time>
      </trkpt>
      <trkpt lat="61.87453" lon="5.72079">
        <ele>55.813178</ele>
        <time>2020-07-29T09:54:56.808Z</time>
      </trkpt>
      <trkpt lat="61.87649" lon="5.71834">
        <ele>59.195677</ele>
        <time>2020-07-29T09:56:04.806Z</time>
      </trkpt>
      <trkpt lat="61.87851" lon="5.71647">
        <ele>61.342633</ele>
        <time>2020-07-29T09:57:30.823Z</time>
      </trkpt>
      <trkpt lat="61.88079" lon="5.71543">
        <ele>55.179829</ele>
        <time>2020-07-29T09:58:29.837Z</time>
      </trkpt>
      <trkpt lat="61.91403" lon="5.72514">
        <ele>62.51615</ele>
        <time>2020-07-29T10:39:08.813Z</time>
      </trkpt>
      <trkpt lat="61.91501" lon="5.72945">
        <ele>56.970743</ele>
        <time>2020-07-29T10:41:30.825Z</time>
      </trkpt>
      <trkpt lat="61.91469" lon="5.72561">
        <ele>66.90256</ele>
        <time>2020-07-29T10:43:14.828Z</time>
      </trkpt>
      <trkpt lat="61.91358" lon="5.72187">
        <ele>77.302524</ele>
        <time>2020-07-29T10:45:00.825Z</time>
      </trkpt>
      <trkpt lat="61.91303" lon="5.71773">
        <ele>81.418314</ele>
        <time>2020-07-29T10:46:42.813Z</time>
      </trkpt>
      <trkpt lat="61.91431" lon="5.71359">
        <ele>78.30568</ele>
        <time>2020-07-29T10:47:45.816Z</time>
      </trkpt>
      <trkpt lat="61.91473" lon="5.70928">
        <ele>82.892526</ele>
        <time>2020-07-29T10:48:52.827Z</time>
      </trkpt>
      <trkpt lat="61.9142" lon="5.7049">
        <ele>87.168243</ele>
        <time>2020-07-29T10:50:00.826Z</time>
      </trkpt>
      <trkpt lat="61.91334" lon="5.70012">
        <ele>85.657321</ele>
        <time>2020-07-29T10:51:06.820Z</time>
      </trkpt>
      <trkpt lat="61.9127" lon="5.69541">
        <ele>88.088801</ele>
        <time>2020-07-29T10:52:09.823Z</time>
      </trkpt>
      <trkpt lat="61.91229" lon="5.69073">
        <ele>86.777876</ele>
        <time>2020-07-29T10:52:55.818Z</time>
      </trkpt>
      <trkpt lat="61.91176" lon="5.68636">
        <ele>81.836626</ele>
        <time>2020-07-29T10:53:38.818Z</time>
      </trkpt>
      <trkpt lat="61.91246" lon="5.68122">
        <ele>84.835671</ele>
        <time>2020-07-29T10:54:45.817Z</time>
      </trkpt>
      <trkpt lat="61.91362" lon="5.67747">
        <ele>88.665725</ele>
        <time>2020-07-29T10:55:55.821Z</time>
      </trkpt>
      <trkpt lat="61.91493" lon="5.67329">
        <ele>85.984528</ele>
        <time>2020-07-29T10:56:58.863Z</time>
      </trkpt>
      <trkpt lat="61.91603" lon="5.66806">
        <ele>84.852974</ele>
        <time>2020-07-29T10:58:04.834Z</time>
      </trkpt>
      <trkpt lat="61.91553" lon="5.6634">
        <ele>81.304533</ele>
        <time>2020-07-29T10:58:52.831Z</time>
      </trkpt>
      <trkpt lat="61.91481" lon="5.65786">
        <ele>69.115008</ele>
        <time>2020-07-29T10:59:25.815Z</time>
      </trkpt>
      <trkpt lat="61.91457" lon="5.65302">
        <ele>61.635223</ele>
        <time>2020-07-29T10:59:48.841Z</time>
      </trkpt>
      <trkpt lat="61.9141" lon="5.64778">
        <ele>57.081138</ele>
        <time>2020-07-29T11:00:34.811Z</time>
      </trkpt>
      <trkpt lat="61.91495" lon="5.64359">
        <ele>65.799625</ele>
        <time>2020-07-29T11:01:52.808Z</time>
      </trkpt>
      <trkpt lat="61.91561" lon="5.6393">
        <ele>84.791103</ele>
        <time>2020-07-29T11:04:35.809Z</time>
      </trkpt>
      <trkpt lat="61.91638" lon="5.63498">
        <ele>86.686919</ele>
        <time>2020-07-29T11:06:18.848Z</time>
      </trkpt>
      <trkpt lat="61.91669" lon="5.62965">
        <ele>63.23898</ele>
        <time>2020-07-29T11:07:09.820Z</time>
      </trkpt>
      <trkpt lat="61.91706" lon="5.62528">
        <ele>57.516474</ele>
        <time>2020-07-29T11:07:54.843Z</time>
      </trkpt>
      <trkpt lat="61.91836" lon="5.62147">
        <ele>62.345939</ele>
        <time>2020-07-29T11:08:55.825Z</time>
      </trkpt>
      <trkpt lat="61.91909" lon="5.61678">
        <ele>67.35337</ele>
        <time>2020-07-29T11:10:02.842Z</time>
      </trkpt>
      <trkpt lat="61.92337" lon="5.60297">
        <ele>60.344905</ele>
        <time>2020-07-29T11:13:27.826Z</time>
      </trkpt>
      <trkpt lat="61.92369" lon="5.59779">
        <ele>61.928017</ele>
        <time>2020-07-29T11:14:27.817Z</time>
      </trkpt>
      <trkpt lat="61.92239" lon="5.59364">
        <ele>61.331687</ele>
        <time>2020-07-29T11:15:12.849Z</time>
      </trkpt>
      <trkpt lat="61.92202" lon="5.58899">
        <ele>63.368097</ele>
        <time>2020-07-29T11:16:12.828Z</time>
      </trkpt>
      <trkpt lat="61.92225" lon="5.58432">
        <ele>62.76212</ele>
        <time>2020-07-29T11:16:56.821Z</time>
      </trkpt>
      <trkpt lat="61.92259" lon="5.57942">
        <ele>59.087867</ele>
        <time>2020-07-29T11:17:38.830Z</time>
      </trkpt>
      <trkpt lat="61.92262" lon="5.57429">
        <ele>58.634506</ele>
        <time>2020-07-29T11:18:26.819Z</time>
      </trkpt>
      <trkpt lat="61.92265" lon="5.56952">
        <ele>68.254446</ele>
        <time>2020-07-29T11:19:33.806Z</time>
      </trkpt>
      <trkpt lat="61.92293" lon="5.56458">
        <ele>67.083135</ele>
        <time>2020-07-29T11:20:36.820Z</time>
      </trkpt>
      <trkpt lat="61.92278" lon="5.56009">
        <ele>64.439594</ele>
        <time>2020-07-29T11:21:38.835Z</time>
      </trkpt>
      <trkpt lat="61.92734" lon="5.53765">
        <ele>69.983912</ele>
        <time>2020-07-29T11:30:57.816Z</time>
      </trkpt>
      <trkpt lat="61.92787" lon="5.53178">
        <ele>67.481842</ele>
        <time>2020-07-29T11:31:43.811Z</time>
      </trkpt>
      <trkpt lat="61.92735" lon="5.52651">
        <ele>59.600096</ele>
        <time>2020-07-29T11:32:25.819Z</time>
      </trkpt>
      <trkpt lat="61.92646" lon="5.52234">
        <ele>58.797351</ele>
        <time>2020-07-29T11:33:09.817Z</time>
      </trkpt>
      <trkpt lat="61.92629" lon="5.51796">
        <ele>61.346298</ele>
        <time>2020-07-29T11:33:54.838Z</time>
      </trkpt>
      <trkpt lat="61.92685" lon="5.51342">
        <ele>62.285047</ele>
        <time>2020-07-29T11:34:56.852Z</time>
      </trkpt>
      <trkpt lat="61.92843" lon="5.5103">
        <ele>55.254334</ele>
        <time>2020-07-29T11:35:47.837Z</time>
      </trkpt>
      <trkpt lat="61.93039" lon="5.50787">
        <ele>53.621143</ele>
        <time>2020-07-29T11:36:31.838Z</time>
      </trkpt>
      <trkpt lat="61.93221" lon="5.50484">
        <ele>53.487331</ele>
        <time>2020-07-29T11:37:22.828Z</time>
      </trkpt>
      <trkpt lat="61.93322" lon="5.50044">
        <ele>56.82136</ele>
        <time>2020-07-29T11:38:18.838Z</time>
      </trkpt>
      <trkpt lat="61.9323" lon="5.49596">
        <ele>54.522266</ele>
        <time>2020-07-29T11:39:02.830Z</time>
      </trkpt>
      <trkpt lat="61.93082" lon="5.4928">
        <ele>56.434025</ele>
        <time>2020-07-29T11:39:47.828Z</time>
      </trkpt>
      <trkpt lat="61.92905" lon="5.49002">
        <ele>57.30159</ele>
        <time>2020-07-29T11:40:37.836Z</time>
      </trkpt>
      <trkpt lat="61.92785" lon="5.48526">
        <ele>57.394671</ele>
        <time>2020-07-29T11:41:38.845Z</time>
      </trkpt>
      <trkpt lat="61.92803" lon="5.47979">
        <ele>57.636202</ele>
        <time>2020-07-29T11:42:44.855Z</time>
      </trkpt>
      <trkpt lat="61.92773" lon="5.47495">
        <ele>53.523266</ele>
        <time>2020-07-29T11:43:39.821Z</time>
      </trkpt>
      <trkpt lat="61.92774" lon="5.47082">
        <ele>52.65404</ele>
        <time>2020-07-29T11:44:22.842Z</time>
      </trkpt>
      <trkpt lat="61.92725" lon="5.46545">
        <ele>53.090455</ele>
        <time>2020-07-29T11:45:23.819Z</time>
      </trkpt>
      <trkpt lat="61.92708" lon="5.46059">
        <ele>57.407086</ele>
        <time>2020-07-29T11:46:33.844Z</time>
      </trkpt>
      <trkpt lat="61.92841" lon="5.45739">
        <ele>56.304064</ele>
        <time>2020-07-29T11:47:33.832Z</time>
      </trkpt>
      <trkpt lat="61.93075" lon="5.45767">
        <ele>61.036594</ele>
        <time>2020-07-29T11:48:54.830Z</time>
      </trkpt>
      <trkpt lat="61.93281" lon="5.45722">
        <ele>73.525155</ele>
        <time>2020-07-29T11:50:29.814Z</time>
      </trkpt>
      <trkpt lat="61.93459" lon="5.46024">
        <ele>69.692426</ele>
        <time>2020-07-29T11:51:15.848Z</time>
      </trkpt>
      <trkpt lat="61.93688" lon="5.46335">
        <ele>60.635341</ele>
        <time>2020-07-29T11:51:59.844Z</time>
      </trkpt>
      <trkpt lat="61.93907" lon="5.46216">
        <ele>62.341788</ele>
        <time>2020-07-29T11:52:58.836Z</time>
      </trkpt>
      <trkpt lat="61.94035" lon="5.45862">
        <ele>68.298765</ele>
        <time>2020-07-29T11:54:13.837Z</time>
      </trkpt>
      <trkpt lat="61.94143" lon="5.45467">
        <ele>71.489305</ele>
        <time>2020-07-29T11:55:40.852Z</time>
      </trkpt>
      <trkpt lat="61.94276" lon="5.45329">
        <ele>80.976158</ele>
        <time>2020-07-29T11:57:41.852Z</time>
      </trkpt>
      <trkpt lat="61.94412" lon="5.4565">
        <ele>98.03555</ele>
        <time>2020-07-29T11:59:55.892Z</time>
      </trkpt>
      <trkpt lat="61.94585" lon="5.45921">
        <ele>100.532031</ele>
        <time>2020-07-29T12:01:23.822Z</time>
      </trkpt>
      <trkpt lat="61.94715" lon="5.46307">
        <ele>105.192671</ele>
        <time>2020-07-29T12:02:51.832Z</time>
      </trkpt>
      <trkpt lat="61.94713" lon="5.46744">
        <ele>115.70763</ele>
        <time>2020-07-29T12:04:53.838Z</time>
      </trkpt>
      <trkpt lat="61.94787" lon="5.47146">
        <ele>127.332264</ele>
        <time>2020-07-29T12:06:57.833Z</time>
      </trkpt>
      <trkpt lat="61.94869" lon="5.4757">
        <ele>142.532113</ele>
        <time>2020-07-29T12:09:08.862Z</time>
      </trkpt>
      <trkpt lat="61.94973" lon="5.47932">
        <ele>152.727818</ele>
        <time>2020-07-29T12:11:18.821Z</time>
      </trkpt>
      <trkpt lat="61.95136" lon="5.48148">
        <ele>162.429979</ele>
        <time>2020-07-29T12:13:06.893Z</time>
      </trkpt>
      <trkpt lat="61.95326" lon="5.48373">
        <ele>172.464425</ele>
        <time>2020-07-29T12:15:05.815Z</time>
      </trkpt>
      <trkpt lat="61.95456" lon="5.48726">
        <ele>175.172527</ele>
        <time>2020-07-29T12:16:52.827Z</time>
      </trkpt>
      <trkpt lat="61.95581" lon="5.49092">
        <ele>176.438149</ele>
        <time>2020-07-29T12:18:06.872Z</time>
      </trkpt>
      <trkpt lat="61.95753" lon="5.49336">
        <ele>181.13443</ele>
        <time>2020-07-29T12:19:19.823Z</time>
      </trkpt>
      <trkpt lat="61.96036" lon="5.49525">
        <ele>180.266939</ele>
        <time>2020-07-29T12:25:33.865Z</time>
      </trkpt>
      <trkpt lat="61.96134" lon="5.49933">
        <ele>177.15093</ele>
        <time>2020-07-29T12:26:38.839Z</time>
      </trkpt>
      <trkpt lat="61.9623" lon="5.50393">
        <ele>178.633807</ele>
        <time>2020-07-29T12:27:38.862Z</time>
      </trkpt>
      <trkpt lat="61.9643" lon="5.50611">
        <ele>177.926713</ele>
        <time>2020-07-29T12:28:46.832Z</time>
      </trkpt>
      <trkpt lat="61.96651" lon="5.50796">
        <ele>179.442912</ele>
        <time>2020-07-29T12:29:49.829Z</time>
      </trkpt>
      <trkpt lat="61.96863" lon="5.50894">
        <ele>193.441449</ele>
        <time>2020-07-29T12:31:17.847Z</time>
      </trkpt>
      <trkpt lat="61.97057" lon="5.51059">
        <ele>210.711271</ele>
        <time>2020-07-29T12:33:53.843Z</time>
      </trkpt>
      <trkpt lat="61.97244" lon="5.51185">
        <ele>224.532602</ele>
        <time>2020-07-29T12:36:36.864Z</time>
      </trkpt>
      <trkpt lat="61.97385" lon="5.51485">
        <ele>238.633677</ele>
        <time>2020-07-29T12:39:20.846Z</time>
      </trkpt>
      <trkpt lat="61.97579" lon="5.51519">
        <ele>253.600884</ele>
        <time>2020-07-29T12:41:57.849Z</time>
      </trkpt>
      <trkpt lat="61.97691" lon="5.51176">
        <ele>254.168666</ele>
        <time>2020-07-29T12:47:20.836Z</time>
      </trkpt>
      <trkpt lat="61.97836" lon="5.50838">
        <ele>256.116583</ele>
        <time>2020-07-29T12:48:22.835Z</time>
      </trkpt>
      <trkpt lat="61.97954" lon="5.50479">
        <ele>265.624459</ele>
        <time>2020-07-29T12:50:18.841Z</time>
      </trkpt>
      <trkpt lat="61.98153" lon="5.50596">
        <ele>272.626445</ele>
        <time>2020-07-29T12:52:24.836Z</time>
      </trkpt>
      <trkpt lat="61.98316" lon="5.5064">
        <ele>283.732401</ele>
        <time>2020-07-29T12:54:21.847Z</time>
      </trkpt>
      <trkpt lat="61.98345" lon="5.50199">
        <ele>283.112997</ele>
        <time>2020-07-29T12:55:10.844Z</time>
      </trkpt>
      <trkpt lat="61.986" lon="5.50113">
        <ele>280.272481</ele>
        <time>2020-07-29T12:56:14.859Z</time>
      </trkpt>
      <trkpt lat="61.98796" lon="5.50364">
        <ele>280.171746</ele>
        <time>2020-07-29T12:57:06.833Z</time>
      </trkpt>
      <trkpt lat="61.98987" lon="5.50661">
        <ele>279.110151</ele>
        <time>2020-07-29T12:57:55.851Z</time>
      </trkpt>
      <trkpt lat="61.99157" lon="5.51">
        <ele>282.028136</ele>
        <time>2020-07-29T12:58:49.868Z</time>
      </trkpt>
      <trkpt lat="61.99318" lon="5.51334">
        <ele>281.159585</ele>
        <time>2020-07-29T12:59:37.850Z</time>
      </trkpt>
      <trkpt lat="61.99537" lon="5.51433">
        <ele>279.016949</ele>
        <time>2020-07-29T13:00:25.856Z</time>
      </trkpt>
      <trkpt lat="61.99758" lon="5.51413">
        <ele>281.407798</ele>
        <time>2020-07-29T13:01:18.862Z</time>
      </trkpt>
      <trkpt lat="61.99976" lon="5.51523">
        <ele>285.13526</ele>
        <time>2020-07-29T13:02:29.844Z</time>
      </trkpt>
      <trkpt lat="62.00143" lon="5.51752">
        <ele>288.960146</ele>
        <time>2020-07-29T13:03:33.848Z</time>
      </trkpt>
      <trkpt lat="62.00323" lon="5.51995">
        <ele>289.314973</ele>
        <time>2020-07-29T13:04:33.863Z</time>
      </trkpt>
      <trkpt lat="62.00521" lon="5.52246">
        <ele>287.265786</ele>
        <time>2020-07-29T13:05:20.838Z</time>
      </trkpt>
      <trkpt lat="62.00712" lon="5.52544">
        <ele>285.191979</ele>
        <time>2020-07-29T13:06:02.838Z</time>
      </trkpt>
      <trkpt lat="62.00862" lon="5.52948">
        <ele>282.490526</ele>
        <time>2020-07-29T13:06:47.837Z</time>
      </trkpt>
      <trkpt lat="62.01036" lon="5.53255">
        <ele>281.287926</ele>
        <time>2020-07-29T13:07:34.881Z</time>
      </trkpt>
      <trkpt lat="62.01287" lon="5.53386">
        <ele>263.54397</ele>
        <time>2020-07-29T13:08:08.839Z</time>
      </trkpt>
      <trkpt lat="62.01391" lon="5.53694">
        <ele>240.246549</ele>
        <time>2020-07-29T13:08:37.836Z</time>
      </trkpt>
      <trkpt lat="62.01596" lon="5.53865">
        <ele>222.651301</ele>
        <time>2020-07-29T13:09:06.852Z</time>
      </trkpt>
      <trkpt lat="62.01733" lon="5.53521">
        <ele>202.793303</ele>
        <time>2020-07-29T13:09:28.837Z</time>
      </trkpt>
      <trkpt lat="62.01842" lon="5.53529">
        <ele>176.255411</ele>
        <time>2020-07-29T13:10:08.855Z</time>
      </trkpt>
      <trkpt lat="62.02034" lon="5.5355">
        <ele>156.451086</ele>
        <time>2020-07-29T13:10:50.850Z</time>
      </trkpt>
      <trkpt lat="62.02249" lon="5.5334">
        <ele>135.142466</ele>
        <time>2020-07-29T13:11:22.863Z</time>
      </trkpt>
      <trkpt lat="62.02487" lon="5.53104">
        <ele>103.128289</ele>
        <time>2020-07-29T13:12:02.853Z</time>
      </trkpt>
      <trkpt lat="62.02665" lon="5.52974">
        <ele>82.34664</ele>
        <time>2020-07-29T13:12:30.856Z</time>
      </trkpt>
      <trkpt lat="62.02855" lon="5.52919">
        <ele>65.557505</ele>
        <time>2020-07-29T13:12:52.851Z</time>
      </trkpt>
      <trkpt lat="62.03077" lon="5.52789">
        <ele>49.244193</ele>
        <time>2020-07-29T13:13:14.834Z</time>
      </trkpt>
      <trkpt lat="62.03335" lon="5.52727">
        <ele>43.546834</ele>
        <time>2020-07-29T13:13:44.846Z</time>
      </trkpt>
      <trkpt lat="62.03541" lon="5.53008">
        <ele>52.772852</ele>
        <time>2020-07-29T13:14:38.831Z</time>
      </trkpt>
      <trkpt lat="62.03724" lon="5.52916">
        <ele>56.836611</ele>
        <time>2020-07-29T13:15:38.867Z</time>
      </trkpt>
      <trkpt lat="62.03869" lon="5.5249">
        <ele>59.019765</ele>
        <time>2020-07-29T13:16:41.832Z</time>
      </trkpt>
    </trkseg>
  </trk>
  <trk>
    <name><![CDATA[Tour d'Europe: étape 032]]></name>
    <trkseg>
      <trkpt lat="62.03897" lon="5.52371">
        <ele>46.829046</ele>
        <time>2020-07-30T07:10:41.018Z</time>
      </trkpt>
      <trkpt lat="62.03776" lon="5.52758">
        <ele>50.072359</ele>
        <time>2020-07-30T07:11:41.026Z</time>
      </trkpt>
      <trkpt lat="62.03611" lon="5.53114">
        <ele>55.030064</ele>
        <time>2020-07-30T07:12:47.020Z</time>
      </trkpt>
      <trkpt lat="62.03785" lon="5.5295">
        <ele>62.646629</ele>
        <time>2020-07-30T07:14:20.028Z</time>
      </trkpt>
      <trkpt lat="62.0396" lon="5.52747">
        <ele>67.128205</ele>
        <time>2020-07-30T07:15:33.044Z</time>
      </trkpt>
      <trkpt lat="62.04167" lon="5.52715">
        <ele>76.904745</ele>
        <time>2020-07-30T07:17:10.037Z</time>
      </trkpt>
      <trkpt lat="62.04398" lon="5.52906">
        <ele>70.409132</ele>
        <time>2020-07-30T07:18:06.051Z</time>
      </trkpt>
      <trkpt lat="62.04657" lon="5.53039">
        <ele>60.81589</ele>
        <time>2020-07-30T07:18:46.022Z</time>
      </trkpt>
      <trkpt lat="62.0487" lon="5.52921">
        <ele>57.61512</ele>
        <time>2020-07-30T07:19:32.015Z</time>
      </trkpt>
      <trkpt lat="62.05071" lon="5.5274">
        <ele>57.364935</ele>
        <time>2020-07-30T07:20:20.069Z</time>
      </trkpt>
      <trkpt lat="62.05281" lon="5.52748">
        <ele>60.362466</ele>
        <time>2020-07-30T07:21:08.035Z</time>
      </trkpt>
      <trkpt lat="62.05494" lon="5.52667">
        <ele>58.530192</ele>
        <time>2020-07-30T07:21:48.018Z</time>
      </trkpt>
      <trkpt lat="62.0569" lon="5.52503">
        <ele>57.114885</ele>
        <time>2020-07-30T07:22:28.013Z</time>
      </trkpt>
      <trkpt lat="62.059" lon="5.52454">
        <ele>57.123449</ele>
        <time>2020-07-30T07:23:10.035Z</time>
      </trkpt>
      <trkpt lat="62.06121" lon="5.52421">
        <ele>58.40511</ele>
        <time>2020-07-30T07:23:59.040Z</time>
      </trkpt>
      <trkpt lat="62.0632" lon="5.52457">
        <ele>60.770737</ele>
        <time>2020-07-30T07:24:40.018Z</time>
      </trkpt>
      <trkpt lat="62.06533" lon="5.52379">
        <ele>62.561906</ele>
        <time>2020-07-30T07:25:29.041Z</time>
      </trkpt>
      <trkpt lat="62.06772" lon="5.52365">
        <ele>67.499841</ele>
        <time>2020-07-30T07:26:24.033Z</time>
      </trkpt>
      <trkpt lat="62.06979" lon="5.5241">
        <ele>61.062302</ele>
        <time>2020-07-30T07:27:10.055Z</time>
      </trkpt>
      <trkpt lat="62.07187" lon="5.52487">
        <ele>59.767021</ele>
        <time>2020-07-30T07:28:05.050Z</time>
      </trkpt>
      <trkpt lat="62.07397" lon="5.52509">
        <ele>63.541482</ele>
        <time>2020-07-30T07:29:03.021Z</time>
      </trkpt>
      <trkpt lat="62.07394" lon="5.52943">
        <ele>65.914269</ele>
        <time>2020-07-30T07:29:59.072Z</time>
      </trkpt>
      <trkpt lat="62.07412" lon="5.53402">
        <ele>65.446833</ele>
        <time>2020-07-30T07:30:50.033Z</time>
      </trkpt>
      <trkpt lat="62.0742" lon="5.53883">
        <ele>68.98047</ele>
        <time>2020-07-30T07:31:50.020Z</time>
      </trkpt>
      <trkpt lat="62.07475" lon="5.54312">
        <ele>79.918869</ele>
        <time>2020-07-30T07:33:45.035Z</time>
      </trkpt>
      <trkpt lat="62.07361" lon="5.54688">
        <ele>85.354294</ele>
        <time>2020-07-30T07:36:05.043Z</time>
      </trkpt>
      <trkpt lat="62.072" lon="5.552">
        <ele>72.921535</ele>
        <time>2020-07-30T07:36:45.023Z</time>
      </trkpt>
      <trkpt lat="62.07099" lon="5.55648">
        <ele>64.72426</ele>
        <time>2020-07-30T07:37:15.044Z</time>
      </trkpt>
      <trkpt lat="62.06916" lon="5.55854">
        <ele>74.132561</ele>
        <time>2020-07-30T07:38:37.077Z</time>
      </trkpt>
      <trkpt lat="62.0679" lon="5.56074">
        <ele>79.912076</ele>
        <time>2020-07-30T07:40:10.073Z</time>
      </trkpt>
      <trkpt lat="62.06707" lon="5.56537">
        <ele>76.239593</ele>
        <time>2020-07-30T07:41:01.064Z</time>
      </trkpt>
      <trkpt lat="62.06638" lon="5.57049">
        <ele>78.649905</ele>
        <time>2020-07-30T07:42:00.038Z</time>
      </trkpt>
      <trkpt lat="62.06622" lon="5.57541">
        <ele>75.554202</ele>
        <time>2020-07-30T07:42:45.023Z</time>
      </trkpt>
      <trkpt lat="62.06643" lon="5.58014">
        <ele>71.283409</ele>
        <time>2020-07-30T07:43:25.033Z</time>
      </trkpt>
      <trkpt lat="62.06694" lon="5.58432">
        <ele>72.426458</ele>
        <time>2020-07-30T07:44:09.032Z</time>
      </trkpt>
      <trkpt lat="62.06779" lon="5.58845">
        <ele>81.064388</ele>
        <time>2020-07-30T07:45:27.033Z</time>
      </trkpt>
      <trkpt lat="62.06828" lon="5.59238">
        <ele>90.095323</ele>
        <time>2020-07-30T07:47:11.022Z</time>
      </trkpt>
      <trkpt lat="62.06678" lon="5.59562">
        <ele>92.287763</ele>
        <time>2020-07-30T07:48:10.033Z</time>
      </trkpt>
      <trkpt lat="62.06377" lon="5.59708">
        <ele>83.156725</ele>
        <time>2020-07-30T07:48:50.040Z</time>
      </trkpt>
      <trkpt lat="62.06063" lon="5.59874">
        <ele>73.031627</ele>
        <time>2020-07-30T07:49:32.037Z</time>
      </trkpt>
      <trkpt lat="62.05851" lon="5.59937">
        <ele>70.698304</ele>
        <time>2020-07-30T07:50:12.020Z</time>
      </trkpt>
      <trkpt lat="62.05659" lon="5.59995">
        <ele>69.043721</ele>
        <time>2020-07-30T07:50:52.033Z</time>
      </trkpt>
      <trkpt lat="62.05436" lon="5.6008">
        <ele>69.859358</ele>
        <time>2020-07-30T07:51:46.025Z</time>
      </trkpt>
      <trkpt lat="62.05231" lon="5.60231">
        <ele>74.194215</ele>
        <time>2020-07-30T07:52:58.054Z</time>
      </trkpt>
      <trkpt lat="62.05042" lon="5.60428">
        <ele>74.2683</ele>
        <time>2020-07-30T07:53:58.032Z</time>
      </trkpt>
      <trkpt lat="62.0495" lon="5.60849">
        <ele>72.328829</ele>
        <time>2020-07-30T07:54:45.021Z</time>
      </trkpt>
      <trkpt lat="62.04894" lon="5.61367">
        <ele>70.176441</ele>
        <time>2020-07-30T07:55:31.032Z</time>
      </trkpt>
      <trkpt lat="62.04963" lon="5.6188">
        <ele>70.357671</ele>
        <time>2020-07-30T07:56:17.044Z</time>
      </trkpt>
      <trkpt lat="62.05186" lon="5.62049">
        <ele>62.761213</ele>
        <time>2020-07-30T07:56:44.045Z</time>
      </trkpt>
      <trkpt lat="62.0538" lon="5.62295">
        <ele>55.355334</ele>
        <time>2020-07-30T07:57:11.045Z</time>
      </trkpt>
      <trkpt lat="62.05572" lon="5.6218">
        <ele>59.82913</ele>
        <time>2020-07-30T07:58:27.038Z</time>
      </trkpt>
      <trkpt lat="62.05765" lon="5.62035">
        <ele>74.930154</ele>
        <time>2020-07-30T08:00:24.035Z</time>
      </trkpt>
      <trkpt lat="62.05974" lon="5.62106">
        <ele>78.553662</ele>
        <time>2020-07-30T08:01:37.020Z</time>
      </trkpt>
      <trkpt lat="62.06202" lon="5.62219">
        <ele>70.103789</ele>
        <time>2020-07-30T08:02:04.026Z</time>
      </trkpt>
      <trkpt lat="62.06406" lon="5.62325">
        <ele>62.519765</ele>
        <time>2020-07-30T08:02:25.025Z</time>
      </trkpt>
      <trkpt lat="62.06646" lon="5.62418">
        <ele>54.432542</ele>
        <time>2020-07-30T08:03:02.021Z</time>
      </trkpt>
      <trkpt lat="62.0687" lon="5.62332">
        <ele>56.628405</ele>
        <time>2020-07-30T08:03:50.083Z</time>
      </trkpt>
      <trkpt lat="62.07079" lon="5.6224">
        <ele>62.197946</ele>
        <time>2020-07-30T08:05:05.051Z</time>
      </trkpt>
      <trkpt lat="62.07363" lon="5.62088">
        <ele>52.592754</ele>
        <time>2020-07-30T08:05:57.030Z</time>
      </trkpt>
      <trkpt lat="62.07557" lon="5.6187">
        <ele>51.56542</ele>
        <time>2020-07-30T08:06:38.037Z</time>
      </trkpt>
      <trkpt lat="62.0773" lon="5.61556">
        <ele>54.52812</ele>
        <time>2020-07-30T08:07:29.038Z</time>
      </trkpt>
      <trkpt lat="62.07892" lon="5.61238">
        <ele>52.651663</ele>
        <time>2020-07-30T08:08:09.041Z</time>
      </trkpt>
      <trkpt lat="62.08024" lon="5.60904">
        <ele>51.936829</ele>
        <time>2020-07-30T08:08:51.018Z</time>
      </trkpt>
      <trkpt lat="62.08131" lon="5.6056">
        <ele>50.730959</ele>
        <time>2020-07-30T08:09:31.054Z</time>
      </trkpt>
      <trkpt lat="62.0822" lon="5.60181">
        <ele>52.762988</ele>
        <time>2020-07-30T08:10:12.032Z</time>
      </trkpt>
      <trkpt lat="62.083" lon="5.5972">
        <ele>55.886654</ele>
        <time>2020-07-30T08:11:05.035Z</time>
      </trkpt>
      <trkpt lat="62.08364" lon="5.59285">
        <ele>64.890113</ele>
        <time>2020-07-30T08:12:43.036Z</time>
      </trkpt>
      <trkpt lat="62.08427" lon="5.5888">
        <ele>72.950996</ele>
        <time>2020-07-30T08:14:22.041Z</time>
      </trkpt>
      <trkpt lat="62.08492" lon="5.5846">
        <ele>78.181754</ele>
        <time>2020-07-30T08:15:34.038Z</time>
      </trkpt>
      <trkpt lat="62.08587" lon="5.58056">
        <ele>80.879957</ele>
        <time>2020-07-30T08:16:42.054Z</time>
      </trkpt>
      <trkpt lat="62.08711" lon="5.57673">
        <ele>85.756837</ele>
        <time>2020-07-30T08:17:49.046Z</time>
      </trkpt>
      <trkpt lat="62.08888" lon="5.57428">
        <ele>83.814107</ele>
        <time>2020-07-30T08:18:29.047Z</time>
      </trkpt>
      <trkpt lat="62.09116" lon="5.57412">
        <ele>70.880963</ele>
        <time>2020-07-30T08:18:53.058Z</time>
      </trkpt>
      <trkpt lat="62.09342" lon="5.57336">
        <ele>62.07938</ele>
        <time>2020-07-30T08:19:14.074Z</time>
      </trkpt>
      <trkpt lat="62.09553" lon="5.57441">
        <ele>65.87534</ele>
        <time>2020-07-30T08:20:10.032Z</time>
      </trkpt>
      <trkpt lat="62.09668" lon="5.5778">
        <ele>75.66953</ele>
        <time>2020-07-30T08:21:39.056Z</time>
      </trkpt>
      <trkpt lat="62.09741" lon="5.58177">
        <ele>83.70397</ele>
        <time>2020-07-30T08:23:15.024Z</time>
      </trkpt>
      <trkpt lat="62.09798" lon="5.58614">
        <ele>87.19192</ele>
        <time>2020-07-30T08:24:37.056Z</time>
      </trkpt>
      <trkpt lat="62.09831" lon="5.59073">
        <ele>91.256083</ele>
        <time>2020-07-30T08:25:37.041Z</time>
      </trkpt>
      <trkpt lat="62.0986" lon="5.59485">
        <ele>97.909345</ele>
        <time>2020-07-30T08:26:58.066Z</time>
      </trkpt>
      <trkpt lat="62.09893" lon="5.59911">
        <ele>105.270011</ele>
        <time>2020-07-30T08:28:23.032Z</time>
      </trkpt>
      <trkpt lat="62.09957" lon="5.60357">
        <ele>110.242081</ele>
        <time>2020-07-30T08:29:44.068Z</time>
      </trkpt>
      <trkpt lat="62.10016" lon="5.60754">
        <ele>113.395307</ele>
        <time>2020-07-30T08:30:48.034Z</time>
      </trkpt>
      <trkpt lat="62.10059" lon="5.61205">
        <ele>120.671349</ele>
        <time>2020-07-30T08:32:01.039Z</time>
      </trkpt>
      <trkpt lat="62.10111" lon="5.6166">
        <ele>123.186535</ele>
        <time>2020-07-30T08:33:16.033Z</time>
      </trkpt>
      <trkpt lat="62.10151" lon="5.62112">
        <ele>126.03066</ele>
        <time>2020-07-30T08:34:17.026Z</time>
      </trkpt>
      <trkpt lat="62.10159" lon="5.62571">
        <ele>129.726985</ele>
        <time>2020-07-30T08:35:17.045Z</time>
      </trkpt>
      <trkpt lat="62.1016" lon="5.62991">
        <ele>135.287214</ele>
        <time>2020-07-30T08:36:17.057Z</time>
      </trkpt>
      <trkpt lat="62.10164" lon="5.63483">
        <ele>139.392664</ele>
        <time>2020-07-30T08:37:20.037Z</time>
      </trkpt>
      <trkpt lat="62.10181" lon="5.63959">
        <ele>141.423973</ele>
        <time>2020-07-30T08:38:20.071Z</time>
      </trkpt>
      <trkpt lat="62.10206" lon="5.64444">
        <ele>138.56833</ele>
        <time>2020-07-30T08:39:16.049Z</time>
      </trkpt>
      <trkpt lat="62.10276" lon="5.64856">
        <ele>133.482761</ele>
        <time>2020-07-30T08:39:56.030Z</time>
      </trkpt>
      <trkpt lat="62.10399" lon="5.65297">
        <ele>130.069266</ele>
        <time>2020-07-30T08:40:38.041Z</time>
      </trkpt>
      <trkpt lat="62.10527" lon="5.65759">
        <ele>124.598654</ele>
        <time>2020-07-30T08:41:18.029Z</time>
      </trkpt>
      <trkpt lat="62.10662" lon="5.66251">
        <ele>118.117689</ele>
        <time>2020-07-30T08:41:58.024Z</time>
      </trkpt>
      <trkpt lat="62.1081" lon="5.66739">
        <ele>107.92118</ele>
        <time>2020-07-30T08:42:31.053Z</time>
      </trkpt>
      <trkpt lat="62.1101" lon="5.66988">
        <ele>94.07663</ele>
        <time>2020-07-30T08:42:52.035Z</time>
      </trkpt>
      <trkpt lat="62.1129" lon="5.67111">
        <ele>71.379901</ele>
        <time>2020-07-30T08:43:12.023Z</time>
      </trkpt>
      <trkpt lat="62.11526" lon="5.67206">
        <ele>57.387763</ele>
        <time>2020-07-30T08:43:32.053Z</time>
      </trkpt>
      <trkpt lat="62.11821" lon="5.67266">
        <ele>52.868091</ele>
        <time>2020-07-30T08:44:09.032Z</time>
      </trkpt>
      <trkpt lat="62.12057" lon="5.67273">
        <ele>51.465638</ele>
        <time>2020-07-30T08:44:49.058Z</time>
      </trkpt>
      <trkpt lat="62.12291" lon="5.67287">
        <ele>52.643599</ele>
        <time>2020-07-30T08:45:46.040Z</time>
      </trkpt>
      <trkpt lat="62.12498" lon="5.67268">
        <ele>52.475134</ele>
        <time>2020-07-30T08:46:30.052Z</time>
      </trkpt>
      <trkpt lat="62.12697" lon="5.67297">
        <ele>52.93369</ele>
        <time>2020-07-30T08:47:12.051Z</time>
      </trkpt>
      <trkpt lat="62.12935" lon="5.67388">
        <ele>54.163937</ele>
        <time>2020-07-30T08:48:07.056Z</time>
      </trkpt>
      <trkpt lat="62.13134" lon="5.67453">
        <ele>54.659146</ele>
        <time>2020-07-30T08:48:51.031Z</time>
      </trkpt>
      <trkpt lat="62.1332" lon="5.67516">
        <ele>53.181348</ele>
        <time>2020-07-30T08:49:31.048Z</time>
      </trkpt>
      <trkpt lat="62.13567" lon="5.67613">
        <ele>55.469207</ele>
        <time>2020-07-30T08:50:30.040Z</time>
      </trkpt>
      <trkpt lat="62.13797" lon="5.6756">
        <ele>55.595831</ele>
        <time>2020-07-30T08:51:29.052Z</time>
      </trkpt>
      <trkpt lat="62.13959" lon="5.67333">
        <ele>52.51424</ele>
        <time>2020-07-30T08:52:09.030Z</time>
      </trkpt>
      <trkpt lat="62.14163" lon="5.6716">
        <ele>53.115949</ele>
        <time>2020-07-30T08:52:58.051Z</time>
      </trkpt>
      <trkpt lat="62.14407" lon="5.67059">
        <ele>53.529769</ele>
        <time>2020-07-30T08:53:55.038Z</time>
      </trkpt>
      <trkpt lat="62.1461" lon="5.66849">
        <ele>54.765477</ele>
        <time>2020-07-30T08:54:53.060Z</time>
      </trkpt>
      <trkpt lat="62.14793" lon="5.66449">
        <ele>54.377186</ele>
        <time>2020-07-30T08:55:33.082Z</time>
      </trkpt>
      <trkpt lat="62.15036" lon="5.66255">
        <ele>53.740568</ele>
        <time>2020-07-30T08:56:15.026Z</time>
      </trkpt>
      <trkpt lat="62.15251" lon="5.66038">
        <ele>51.124403</ele>
        <time>2020-07-30T08:56:55.065Z</time>
      </trkpt>
      <trkpt lat="62.15463" lon="5.6581">
        <ele>51.498113</ele>
        <time>2020-07-30T08:57:35.064Z</time>
      </trkpt>
      <trkpt lat="62.1569" lon="5.65587">
        <ele>53.008601</ele>
        <time>2020-07-30T08:58:15.047Z</time>
      </trkpt>
      <trkpt lat="62.15917" lon="5.65349">
        <ele>53.841363</ele>
        <time>2020-07-30T08:58:57.027Z</time>
      </trkpt>
      <trkpt lat="62.16129" lon="5.65131">
        <ele>52.842086</ele>
        <time>2020-07-30T08:59:37.040Z</time>
      </trkpt>
      <trkpt lat="62.16312" lon="5.64836">
        <ele>55.656392</ele>
        <time>2020-07-30T09:00:17.069Z</time>
      </trkpt>
      <trkpt lat="62.16517" lon="5.64594">
        <ele>55.832494</ele>
        <time>2020-07-30T09:00:57.055Z</time>
      </trkpt>
      <trkpt lat="62.16716" lon="5.64445">
        <ele>55.638675</ele>
        <time>2020-07-30T09:01:57.032Z</time>
      </trkpt>
      <trkpt lat="62.16918" lon="5.64304">
        <ele>52.919947</ele>
        <time>2020-07-30T09:02:57.043Z</time>
      </trkpt>
      <trkpt lat="62.17069" lon="5.64518">
        <ele>55.669897</ele>
        <time>2020-07-30T09:31:23.452Z</time>
      </trkpt>
      <trkpt lat="62.173" lon="5.64564">
        <ele>63.925935</ele>
        <time>2020-07-30T09:32:31.448Z</time>
      </trkpt>
      <trkpt lat="62.17535" lon="5.64531">
        <ele>64.874797</ele>
        <time>2020-07-30T09:33:29.468Z</time>
      </trkpt>
      <trkpt lat="62.19135" lon="5.63451">
        <ele>58.348474</ele>
        <time>2020-07-30T09:42:54.379Z</time>
      </trkpt>
      <trkpt lat="62.19184" lon="5.63056">
        <ele>57.802159</ele>
        <time>2020-07-30T09:44:33.383Z</time>
      </trkpt>
      <trkpt lat="62.19189" lon="5.62577">
        <ele>66.078706</ele>
        <time>2020-07-30T09:45:47.381Z</time>
      </trkpt>
      <trkpt lat="62.19066" lon="5.62176">
        <ele>67.77175</ele>
        <time>2020-07-30T09:46:57.390Z</time>
      </trkpt>
      <trkpt lat="62.19049" lon="5.61726">
        <ele>66.5481</ele>
        <time>2020-07-30T09:47:36.393Z</time>
      </trkpt>
      <trkpt lat="62.19091" lon="5.61297">
        <ele>63.227951</ele>
        <time>2020-07-30T09:48:14.419Z</time>
      </trkpt>
      <trkpt lat="62.19042" lon="5.60856">
        <ele>68.721047</ele>
        <time>2020-07-30T09:49:16.369Z</time>
      </trkpt>
      <trkpt lat="62.1905" lon="5.60425">
        <ele>86.640207</ele>
        <time>2020-07-30T09:50:38.407Z</time>
      </trkpt>
      <trkpt lat="62.19148" lon="5.60059">
        <ele>88.012816</ele>
        <time>2020-07-30T09:52:19.401Z</time>
      </trkpt>
      <trkpt lat="62.19171" lon="5.59626">
        <ele>92.494657</ele>
        <time>2020-07-30T09:53:44.372Z</time>
      </trkpt>
      <trkpt lat="62.19155" lon="5.59126">
        <ele>83.795997</ele>
        <time>2020-07-30T09:54:27.404Z</time>
      </trkpt>
      <trkpt lat="62.19318" lon="5.59121">
        <ele>67.187982</ele>
        <time>2020-07-30T09:54:49.448Z</time>
      </trkpt>
      <trkpt lat="62.19341" lon="5.58637">
        <ele>71.351469</ele>
        <time>2020-07-30T09:55:39.413Z</time>
      </trkpt>
      <trkpt lat="62.19488" lon="5.58398">
        <ele>65.910572</ele>
        <time>2020-07-30T09:56:27.406Z</time>
      </trkpt>
      <trkpt lat="62.19695" lon="5.58183">
        <ele>62.168726</ele>
        <time>2020-07-30T09:57:14.379Z</time>
      </trkpt>
      <trkpt lat="62.19835" lon="5.57837">
        <ele>62.459189</ele>
        <time>2020-07-30T09:58:03.419Z</time>
      </trkpt>
      <trkpt lat="62.20038" lon="5.57635">
        <ele>63.083363</ele>
        <time>2020-07-30T09:58:48.421Z</time>
      </trkpt>
      <trkpt lat="62.20247" lon="5.57457">
        <ele>56.029861</ele>
        <time>2020-07-30T09:59:32.376Z</time>
      </trkpt>
      <trkpt lat="62.20437" lon="5.57532">
        <ele>57.230923</ele>
        <time>2020-07-30T10:00:24.389Z</time>
      </trkpt>
      <trkpt lat="62.20623" lon="5.57295">
        <ele>60.119291</ele>
        <time>2020-07-30T10:01:27.385Z</time>
      </trkpt>
      <trkpt lat="62.20701" lon="5.57331">
        <ele>62.976628</ele>
        <time>2020-07-30T10:02:51.397Z</time>
      </trkpt>
      <trkpt lat="62.20791" lon="5.57707">
        <ele>77.729511</ele>
        <time>2020-07-30T10:04:46.402Z</time>
      </trkpt>
      <trkpt lat="62.20955" lon="5.57864">
        <ele>90.646451</ele>
        <time>2020-07-30T10:06:33.425Z</time>
      </trkpt>
      <trkpt lat="62.21147" lon="5.57829">
        <ele>106.336824</ele>
        <time>2020-07-30T10:08:57.390Z</time>
      </trkpt>
      <trkpt lat="62.21332" lon="5.57906">
        <ele>124.280364</ele>
        <time>2020-07-30T10:11:35.414Z</time>
      </trkpt>
      <trkpt lat="62.21506" lon="5.57822">
        <ele>144.291472</ele>
        <time>2020-07-30T10:14:16.384Z</time>
      </trkpt>
      <trkpt lat="62.21637" lon="5.577">
        <ele>158.175717</ele>
        <time>2020-07-30T10:16:50.439Z</time>
      </trkpt>
      <trkpt lat="62.2158" lon="5.58097">
        <ele>173.252002</ele>
        <time>2020-07-30T10:19:20.405Z</time>
      </trkpt>
      <trkpt lat="62.21492" lon="5.58461">
        <ele>189.425749</ele>
        <time>2020-07-30T10:21:50.397Z</time>
      </trkpt>
      <trkpt lat="62.2149" lon="5.59239">
        <ele>220.417032</ele>
        <time>2020-07-30T10:31:30.397Z</time>
      </trkpt>
      <trkpt lat="62.21723" lon="5.60177">
        <ele>239.249207</ele>
        <time>2020-07-30T10:36:05.392Z</time>
      </trkpt>
      <trkpt lat="62.21751" lon="5.60742">
        <ele>222.692048</ele>
        <time>2020-07-30T10:36:25.391Z</time>
      </trkpt>
      <trkpt lat="62.21782" lon="5.61421">
        <ele>188.998404</ele>
        <time>2020-07-30T10:36:46.401Z</time>
      </trkpt>
      <trkpt lat="62.21865" lon="5.62017">
        <ele>157.932412</ele>
        <time>2020-07-30T10:37:06.384Z</time>
      </trkpt>
      <trkpt lat="62.21846" lon="5.62598">
        <ele>131.185441</ele>
        <time>2020-07-30T10:37:26.390Z</time>
      </trkpt>
      <trkpt lat="62.21782" lon="5.63137">
        <ele>108.013466</ele>
        <time>2020-07-30T10:37:46.391Z</time>
      </trkpt>
      <trkpt lat="62.21722" lon="5.63749">
        <ele>81.458027</ele>
        <time>2020-07-30T10:38:07.408Z</time>
      </trkpt>
      <trkpt lat="62.2167" lon="5.64305">
        <ele>62.443386</ele>
        <time>2020-07-30T10:38:27.396Z</time>
      </trkpt>
      <trkpt lat="62.21592" lon="5.64806">
        <ele>52.296006</ele>
        <time>2020-07-30T10:38:47.398Z</time>
      </trkpt>
      <trkpt lat="62.21588" lon="5.65322">
        <ele>53.161846</ele>
        <time>2020-07-30T10:39:14.399Z</time>
      </trkpt>
      <trkpt lat="62.21577" lon="5.65805">
        <ele>58.989876</ele>
        <time>2020-07-30T10:40:21.384Z</time>
      </trkpt>
      <trkpt lat="62.21549" lon="5.6625">
        <ele>70.588302</ele>
        <time>2020-07-30T10:41:44.384Z</time>
      </trkpt>
      <trkpt lat="62.21528" lon="5.66667">
        <ele>84.285206</ele>
        <time>2020-07-30T10:43:53.424Z</time>
      </trkpt>
      <trkpt lat="62.21503" lon="5.67085">
        <ele>93.735089</ele>
        <time>2020-07-30T10:45:49.410Z</time>
      </trkpt>
      <trkpt lat="62.21475" lon="5.67541">
        <ele>103.481101</ele>
        <time>2020-07-30T10:47:37.391Z</time>
      </trkpt>
      <trkpt lat="62.21452" lon="5.67946">
        <ele>116.223512</ele>
        <time>2020-07-30T10:49:46.401Z</time>
      </trkpt>
      <trkpt lat="62.21427" lon="5.68363">
        <ele>129.697995</ele>
        <time>2020-07-30T10:51:39.399Z</time>
      </trkpt>
      <trkpt lat="62.21476" lon="5.68783">
        <ele>149.631879</ele>
        <time>2020-07-30T10:54:02.397Z</time>
      </trkpt>
      <trkpt lat="62.21556" lon="5.69155">
        <ele>162.048627</ele>
        <time>2020-07-30T10:56:17.396Z</time>
      </trkpt>
      <trkpt lat="62.21747" lon="5.69354">
        <ele>160.343547</ele>
        <time>2020-07-30T10:57:27.404Z</time>
      </trkpt>
      <trkpt lat="62.2192" lon="5.69649">
        <ele>149.330216</ele>
        <time>2020-07-30T10:58:10.405Z</time>
      </trkpt>
      <trkpt lat="62.22034" lon="5.70047">
        <ele>159.911311</ele>
        <time>2020-07-30T10:59:36.397Z</time>
      </trkpt>
      <trkpt lat="62.22124" lon="5.7041">
        <ele>174.197768</ele>
        <time>2020-07-30T11:02:02.391Z</time>
      </trkpt>
      <trkpt lat="62.22221" lon="5.70765">
        <ele>183.715211</ele>
        <time>2020-07-30T11:04:14.402Z</time>
      </trkpt>
      <trkpt lat="62.22373" lon="5.71023">
        <ele>192.633451</ele>
        <time>2020-07-30T11:05:50.401Z</time>
      </trkpt>
      <trkpt lat="62.22541" lon="5.71295">
        <ele>202.016348</ele>
        <time>2020-07-30T11:07:44.382Z</time>
      </trkpt>
      <trkpt lat="62.22667" lon="5.71623">
        <ele>212.069868</ele>
        <time>2020-07-30T11:09:41.408Z</time>
      </trkpt>
      <trkpt lat="62.22787" lon="5.71954">
        <ele>231.106443</ele>
        <time>2020-07-30T11:11:50.396Z</time>
      </trkpt>
      <trkpt lat="62.22901" lon="5.72282">
        <ele>240.908009</ele>
        <time>2020-07-30T11:14:19.406Z</time>
      </trkpt>
      <trkpt lat="62.23003" lon="5.72651">
        <ele>252.583422</ele>
        <time>2020-07-30T11:16:53.390Z</time>
      </trkpt>
      <trkpt lat="62.23132" lon="5.72975">
        <ele>258.180719</ele>
        <time>2020-07-30T11:18:53.419Z</time>
      </trkpt>
      <trkpt lat="62.23289" lon="5.73336">
        <ele>252.305198</ele>
        <time>2020-07-30T11:19:43.405Z</time>
      </trkpt>
      <trkpt lat="62.2344" lon="5.73673">
        <ele>244.03196</ele>
        <time>2020-07-30T11:20:04.387Z</time>
      </trkpt>
      <trkpt lat="62.23573" lon="5.73971">
        <ele>237.409206</ele>
        <time>2020-07-30T11:20:24.387Z</time>
      </trkpt>
      <trkpt lat="62.23748" lon="5.74289">
        <ele>227.383844</ele>
        <time>2020-07-30T11:20:48.410Z</time>
      </trkpt>
      <trkpt lat="62.23922" lon="5.74614">
        <ele>213.598623</ele>
        <time>2020-07-30T11:21:08.401Z</time>
      </trkpt>
      <trkpt lat="62.24076" lon="5.75049">
        <ele>197.845321</ele>
        <time>2020-07-30T11:21:29.400Z</time>
      </trkpt>
      <trkpt lat="62.24234" lon="5.755">
        <ele>189.857643</ele>
        <time>2020-07-30T11:22:11.389Z</time>
      </trkpt>
      <trkpt lat="62.24398" lon="5.75964">
        <ele>185.164301</ele>
        <time>2020-07-30T11:22:51.392Z</time>
      </trkpt>
      <trkpt lat="62.24513" lon="5.7638">
        <ele>172.221004</ele>
        <time>2020-07-30T11:23:19.404Z</time>
      </trkpt>
      <trkpt lat="62.24563" lon="5.7686">
        <ele>149.404361</ele>
        <time>2020-07-30T11:23:40.397Z</time>
      </trkpt>
      <trkpt lat="62.24601" lon="5.77299">
        <ele>126.388666</ele>
        <time>2020-07-30T11:24:00.409Z</time>
      </trkpt>
      <trkpt lat="62.24701" lon="5.77689">
        <ele>101.564191</ele>
        <time>2020-07-30T11:24:20.421Z</time>
      </trkpt>
      <trkpt lat="62.24889" lon="5.78036">
        <ele>75.708695</ele>
        <time>2020-07-30T11:24:40.396Z</time>
      </trkpt>
      <trkpt lat="62.25075" lon="5.78409">
        <ele>57.515782</ele>
        <time>2020-07-30T11:25:01.397Z</time>
      </trkpt>
      <trkpt lat="62.25256" lon="5.78754">
        <ele>51.13985</ele>
        <time>2020-07-30T11:25:30.389Z</time>
      </trkpt>
      <trkpt lat="62.2542" lon="5.79067">
        <ele>57.321511</ele>
        <time>2020-07-30T11:26:32.398Z</time>
      </trkpt>
      <trkpt lat="62.25576" lon="5.79347">
        <ele>66.459994</ele>
        <time>2020-07-30T11:28:28.400Z</time>
      </trkpt>
      <trkpt lat="62.25757" lon="5.79571">
        <ele>68.931992</ele>
        <time>2020-07-30T11:29:27.413Z</time>
      </trkpt>
      <trkpt lat="62.25942" lon="5.79689">
        <ele>72.137673</ele>
        <time>2020-07-30T11:30:54.406Z</time>
      </trkpt>
      <trkpt lat="62.26146" lon="5.79507">
        <ele>69.736636</ele>
        <time>2020-07-30T11:31:50.397Z</time>
      </trkpt>
      <trkpt lat="62.26345" lon="5.79769">
        <ele>70.137446</ele>
        <time>2020-07-30T11:32:55.432Z</time>
      </trkpt>
      <trkpt lat="62.2653" lon="5.80108">
        <ele>66.224962</ele>
        <time>2020-07-30T11:33:33.415Z</time>
      </trkpt>
      <trkpt lat="62.26707" lon="5.80386">
        <ele>73.102965</ele>
        <time>2020-07-30T11:35:09.439Z</time>
      </trkpt>
      <trkpt lat="62.26885" lon="5.80602">
        <ele>76.202593</ele>
        <time>2020-07-30T11:36:31.410Z</time>
      </trkpt>
      <trkpt lat="62.26974" lon="5.804">
        <ele>76.108909</ele>
        <time>2020-07-30T11:37:38.408Z</time>
      </trkpt>
      <trkpt lat="62.2707" lon="5.80264">
        <ele>82.828107</ele>
        <time>2020-07-30T11:46:28.418Z</time>
      </trkpt>
      <trkpt lat="62.2699" lon="5.79803">
        <ele>70.376779</ele>
        <time>2020-07-30T11:47:19.400Z</time>
      </trkpt>
      <trkpt lat="62.27109" lon="5.7942">
        <ele>65.716981</ele>
        <time>2020-07-30T11:48:07.447Z</time>
      </trkpt>
      <trkpt lat="62.27321" lon="5.79434">
        <ele>72.969006</ele>
        <time>2020-07-30T11:49:12.404Z</time>
      </trkpt>
      <trkpt lat="62.27487" lon="5.79748">
        <ele>74.498017</ele>
        <time>2020-07-30T11:50:11.405Z</time>
      </trkpt>
      <trkpt lat="62.27645" lon="5.79839">
        <ele>64.017433</ele>
        <time>2020-07-30T11:50:58.410Z</time>
      </trkpt>
      <trkpt lat="62.27801" lon="5.79995">
        <ele>64.522325</ele>
        <time>2020-07-30T11:52:23.399Z</time>
      </trkpt>
      <trkpt lat="62.27872" lon="5.80395">
        <ele>72.057157</ele>
        <time>2020-07-30T11:53:46.414Z</time>
      </trkpt>
      <trkpt lat="62.27915" lon="5.80826">
        <ele>77.950815</ele>
        <time>2020-07-30T11:55:03.423Z</time>
      </trkpt>
      <trkpt lat="62.27948" lon="5.81316">
        <ele>76.93503</ele>
        <time>2020-07-30T11:55:59.439Z</time>
      </trkpt>
      <trkpt lat="62.28003" lon="5.8176">
        <ele>73.862771</ele>
        <time>2020-07-30T11:56:41.409Z</time>
      </trkpt>
      <trkpt lat="62.28127" lon="5.82144">
        <ele>69.530083</ele>
        <time>2020-07-30T11:57:31.427Z</time>
      </trkpt>
      <trkpt lat="62.28169" lon="5.82634">
        <ele>57.5508</ele>
        <time>2020-07-30T11:58:04.416Z</time>
      </trkpt>
      <trkpt lat="62.28183" lon="5.83009">
        <ele>63.880412</ele>
        <time>2020-07-30T11:59:36.402Z</time>
      </trkpt>
      <trkpt lat="62.28309" lon="5.83461">
        <ele>63.801963</ele>
        <time>2020-07-30T12:00:33.438Z</time>
      </trkpt>
      <trkpt lat="62.28443" lon="5.83859">
        <ele>60.895893</ele>
        <time>2020-07-30T12:01:15.384Z</time>
      </trkpt>
      <trkpt lat="62.286" lon="5.84127">
        <ele>68.105254</ele>
        <time>2020-07-30T12:02:31.405Z</time>
      </trkpt>
      <trkpt lat="62.28737" lon="5.8447">
        <ele>65.164687</ele>
        <time>2020-07-30T12:03:27.394Z</time>
      </trkpt>
      <trkpt lat="62.2893" lon="5.84791">
        <ele>63.573498</ele>
        <time>2020-07-30T12:04:21.410Z</time>
      </trkpt>
      <trkpt lat="62.29095" lon="5.85097">
        <ele>67.713863</ele>
        <time>2020-07-30T12:05:13.389Z</time>
      </trkpt>
      <trkpt lat="62.2928" lon="5.85047">
        <ele>72.107591</ele>
        <time>2020-07-30T12:06:10.394Z</time>
      </trkpt>
      <trkpt lat="62.29455" lon="5.84796">
        <ele>77.562951</ele>
        <time>2020-07-30T12:06:53.381Z</time>
      </trkpt>
      <trkpt lat="62.2961" lon="5.84522">
        <ele>72.71875</ele>
        <time>2020-07-30T12:07:34.396Z</time>
      </trkpt>
      <trkpt lat="62.29763" lon="5.84237">
        <ele>71.036565</ele>
        <time>2020-07-30T12:08:15.391Z</time>
      </trkpt>
      <trkpt lat="62.29922" lon="5.83983">
        <ele>67.630249</ele>
        <time>2020-07-30T12:08:59.398Z</time>
      </trkpt>
      <trkpt lat="62.3014" lon="5.84453">
        <ele>59.78524</ele>
        <time>2020-07-30T12:10:06.397Z</time>
      </trkpt>
      <trkpt lat="62.30203" lon="5.84909">
        <ele>65.67955</ele>
        <time>2020-07-30T12:10:53.432Z</time>
      </trkpt>
      <trkpt lat="62.30347" lon="5.85275">
        <ele>69.011721</ele>
        <time>2020-07-30T12:11:53.413Z</time>
      </trkpt>
      <trkpt lat="62.3053" lon="5.85597">
        <ele>68.998701</ele>
        <time>2020-07-30T12:12:50.398Z</time>
      </trkpt>
      <trkpt lat="62.3072" lon="5.8545">
        <ele>70.565684</ele>
        <time>2020-07-30T12:13:50.392Z</time>
      </trkpt>
      <trkpt lat="62.30817" lon="5.85065">
        <ele>68.026873</ele>
        <time>2020-07-30T12:14:39.421Z</time>
      </trkpt>
      <trkpt lat="62.31017" lon="5.85053">
        <ele>62.605298</ele>
        <time>2020-07-30T12:15:37.410Z</time>
      </trkpt>
      <trkpt lat="62.31079" lon="5.85479">
        <ele>63.414285</ele>
        <time>2020-07-30T12:16:36.389Z</time>
      </trkpt>
      <trkpt lat="62.31234" lon="5.85828">
        <ele>64.837181</ele>
        <time>2020-07-30T12:17:40.403Z</time>
      </trkpt>
      <trkpt lat="62.31404" lon="5.86054">
        <ele>67.572837</ele>
        <time>2020-07-30T12:18:58.420Z</time>
      </trkpt>
      <trkpt lat="62.31589" lon="5.8581">
        <ele>64.518569</ele>
        <time>2020-07-30T12:19:49.436Z</time>
      </trkpt>
      <trkpt lat="62.31738" lon="5.85728">
        <ele>62.988925</ele>
        <time>2020-07-30T12:21:06.399Z</time>
      </trkpt>
      <trkpt lat="62.31884" lon="5.86072">
        <ele>59.692103</ele>
        <time>2020-07-30T12:21:58.396Z</time>
      </trkpt>
      <trkpt lat="62.32013" lon="5.86469">
        <ele>59.983896</ele>
        <time>2020-07-30T12:22:55.417Z</time>
      </trkpt>
      <trkpt lat="62.3223" lon="5.86637">
        <ele>66.710832</ele>
        <time>2020-07-30T12:23:54.405Z</time>
      </trkpt>
      <trkpt lat="62.32471" lon="5.86557">
        <ele>74.708097</ele>
        <time>2020-07-30T12:24:47.401Z</time>
      </trkpt>
      <trkpt lat="62.32692" lon="5.86498">
        <ele>73.875235</ele>
        <time>2020-07-30T12:25:50.420Z</time>
      </trkpt>
      <trkpt lat="62.32907" lon="5.86338">
        <ele>78.233357</ele>
        <time>2020-07-30T12:27:11.400Z</time>
      </trkpt>
      <trkpt lat="62.33105" lon="5.8615">
        <ele>81.184816</ele>
        <time>2020-07-30T12:28:15.406Z</time>
      </trkpt>
      <trkpt lat="62.33286" lon="5.85831">
        <ele>73.906097</ele>
        <time>2020-07-30T12:29:10.406Z</time>
      </trkpt>
      <trkpt lat="62.33539" lon="5.85576">
        <ele>62.580444</ele>
        <time>2020-07-30T12:29:53.387Z</time>
      </trkpt>
      <trkpt lat="62.33724" lon="5.85434">
        <ele>59.608969</ele>
        <time>2020-07-30T12:32:24.438Z</time>
      </trkpt>
      <trkpt lat="62.33729" lon="5.85375">
        <ele>50.995869</ele>
        <time>2020-07-30T13:11:51.388Z</time>
      </trkpt>
      <trkpt lat="62.33937" lon="5.85216">
        <ele>52.471632</ele>
        <time>2020-07-30T13:13:05.397Z</time>
      </trkpt>
      <trkpt lat="62.34099" lon="5.85062">
        <ele>51.565001</ele>
        <time>2020-07-30T13:14:13.393Z</time>
      </trkpt>
      <trkpt lat="62.34049" lon="5.85255">
        <ele>55.428795</ele>
        <time>2020-07-30T13:23:38.425Z</time>
      </trkpt>
      <trkpt lat="62.34112" lon="5.85669">
        <ele>65.222588</ele>
        <time>2020-07-30T13:25:18.399Z</time>
      </trkpt>
      <trkpt lat="62.34037" lon="5.8604">
        <ele>76.974813</ele>
        <time>2020-07-30T13:27:12.386Z</time>
      </trkpt>
      <trkpt lat="62.33899" lon="5.86321">
        <ele>87.321705</ele>
        <time>2020-07-30T13:29:07.425Z</time>
      </trkpt>
      <trkpt lat="62.339" lon="5.86722">
        <ele>99.857053</ele>
        <time>2020-07-30T13:31:08.406Z</time>
      </trkpt>
      <trkpt lat="62.33897" lon="5.871">
        <ele>114.630261</ele>
        <time>2020-07-30T13:33:20.434Z</time>
      </trkpt>
      <trkpt lat="62.33899" lon="5.8744">
        <ele>120.896473</ele>
        <time>2020-07-30T13:35:45.383Z</time>
      </trkpt>
    </trkseg>
  </trk>
  <trk>
    <name><![CDATA[Tour d'Europe: étape 033]]></name>
    <trkseg>
      <trkpt lat="62.33873" lon="5.87569">
        <ele>131.643359</ele>
        <time>2020-07-31T07:58:34.211Z</time>
      </trkpt>
      <trkpt lat="62.33804" lon="5.87973">
        <ele>135.262444</ele>
        <time>2020-07-31T08:00:25.189Z</time>
      </trkpt>
      <trkpt lat="62.33892" lon="5.88317">
        <ele>146.962222</ele>
        <time>2020-07-31T08:02:26.176Z</time>
      </trkpt>
      <trkpt lat="62.33976" lon="5.88669">
        <ele>156.436186</ele>
        <time>2020-07-31T08:04:16.209Z</time>
      </trkpt>
      <trkpt lat="62.3404" lon="5.89094">
        <ele>164.251333</ele>
        <time>2020-07-31T08:06:04.176Z</time>
      </trkpt>
      <trkpt lat="62.34109" lon="5.89495">
        <ele>173.499508</ele>
        <time>2020-07-31T08:07:47.172Z</time>
      </trkpt>
      <trkpt lat="62.34187" lon="5.89876">
        <ele>186.986062</ele>
        <time>2020-07-31T08:09:48.177Z</time>
      </trkpt>
      <trkpt lat="62.34265" lon="5.90267">
        <ele>198.194362</ele>
        <time>2020-07-31T08:11:47.162Z</time>
      </trkpt>
      <trkpt lat="62.34354" lon="5.90638">
        <ele>205.099015</ele>
        <time>2020-07-31T08:13:37.175Z</time>
      </trkpt>
      <trkpt lat="62.34502" lon="5.90997">
        <ele>199.557079</ele>
        <time>2020-07-31T08:14:38.195Z</time>
      </trkpt>
      <trkpt lat="62.34673" lon="5.91352">
        <ele>184.526572</ele>
        <time>2020-07-31T08:15:01.157Z</time>
      </trkpt>
      <trkpt lat="62.34796" lon="5.91796">
        <ele>169.957353</ele>
        <time>2020-07-31T08:15:21.154Z</time>
      </trkpt>
      <trkpt lat="62.34909" lon="5.92313">
        <ele>151.382844</ele>
        <time>2020-07-31T08:15:42.195Z</time>
      </trkpt>
      <trkpt lat="62.35006" lon="5.92752">
        <ele>135.695012</ele>
        <time>2020-07-31T08:16:04.160Z</time>
      </trkpt>
      <trkpt lat="62.35098" lon="5.93187">
        <ele>123.288385</ele>
        <time>2020-07-31T08:16:24.182Z</time>
      </trkpt>
      <trkpt lat="62.35183" lon="5.93556">
        <ele>115.991247</ele>
        <time>2020-07-31T08:16:44.177Z</time>
      </trkpt>
      <trkpt lat="62.3529" lon="5.94015">
        <ele>109.955899</ele>
        <time>2020-07-31T08:17:14.199Z</time>
      </trkpt>
      <trkpt lat="62.35343" lon="5.94615">
        <ele>98.158057</ele>
        <time>2020-07-31T08:17:49.169Z</time>
      </trkpt>
      <trkpt lat="62.35426" lon="5.95166">
        <ele>92.18748</ele>
        <time>2020-07-31T08:18:29.170Z</time>
      </trkpt>
      <trkpt lat="62.35504" lon="5.95643">
        <ele>89.345201</ele>
        <time>2020-07-31T08:19:13.192Z</time>
      </trkpt>
      <trkpt lat="62.35554" lon="5.96151">
        <ele>85.560414</ele>
        <time>2020-07-31T08:19:53.156Z</time>
      </trkpt>
      <trkpt lat="62.3561" lon="5.966">
        <ele>85.066395</ele>
        <time>2020-07-31T08:20:43.178Z</time>
      </trkpt>
      <trkpt lat="62.35746" lon="5.96953">
        <ele>80.994409</ele>
        <time>2020-07-31T08:21:25.212Z</time>
      </trkpt>
      <trkpt lat="62.35903" lon="5.97354">
        <ele>77.035395</ele>
        <time>2020-07-31T08:22:06.162Z</time>
      </trkpt>
      <trkpt lat="62.36039" lon="5.97699">
        <ele>75.752838</ele>
        <time>2020-07-31T08:22:50.178Z</time>
      </trkpt>
      <trkpt lat="62.36172" lon="5.98038">
        <ele>81.00815</ele>
        <time>2020-07-31T08:24:03.156Z</time>
      </trkpt>
      <trkpt lat="62.36297" lon="5.98445">
        <ele>81.333601</ele>
        <time>2020-07-31T08:25:10.174Z</time>
      </trkpt>
      <trkpt lat="62.36411" lon="5.98824">
        <ele>79.958187</ele>
        <time>2020-07-31T08:25:54.176Z</time>
      </trkpt>
      <trkpt lat="62.36538" lon="5.99243">
        <ele>77.479251</ele>
        <time>2020-07-31T08:26:49.211Z</time>
      </trkpt>
      <trkpt lat="62.36619" lon="5.99678">
        <ele>72.916659</ele>
        <time>2020-07-31T08:27:29.193Z</time>
      </trkpt>
      <trkpt lat="62.36687" lon="6.00109">
        <ele>70.125204</ele>
        <time>2020-07-31T08:28:09.171Z</time>
      </trkpt>
      <trkpt lat="62.36778" lon="6.00482">
        <ele>70.545691</ele>
        <time>2020-07-31T08:28:49.196Z</time>
      </trkpt>
      <trkpt lat="62.36885" lon="6.00861">
        <ele>72.691375</ele>
        <time>2020-07-31T08:29:46.172Z</time>
      </trkpt>
      <trkpt lat="62.37003" lon="6.01288">
        <ele>74.287584</ele>
        <time>2020-07-31T08:30:41.176Z</time>
      </trkpt>
      <trkpt lat="62.36939" lon="6.01735">
        <ele>71.068007</ele>
        <time>2020-07-31T08:31:26.172Z</time>
      </trkpt>
      <trkpt lat="62.36949" lon="6.02192">
        <ele>66.623353</ele>
        <time>2020-07-31T08:32:10.148Z</time>
      </trkpt>
      <trkpt lat="62.37004" lon="6.02697">
        <ele>60.539234</ele>
        <time>2020-07-31T08:32:56.174Z</time>
      </trkpt>
      <trkpt lat="62.3694" lon="6.03014">
        <ele>54.047207</ele>
        <time>2020-07-31T08:34:01.181Z</time>
      </trkpt>
      <trkpt lat="62.37022" lon="6.03057">
        <ele>54.048677</ele>
        <time>2020-07-31T08:40:23.155Z</time>
      </trkpt>
      <trkpt lat="62.39472" lon="6.16139">
        <ele>53.825389</ele>
        <time>2020-07-31T09:04:34.104Z</time>
      </trkpt>
      <trkpt lat="62.39531" lon="6.16658">
        <ele>59.376139</ele>
        <time>2020-07-31T09:09:27.112Z</time>
      </trkpt>
      <trkpt lat="62.39574" lon="6.17061">
        <ele>63.455429</ele>
        <time>2020-07-31T09:11:23.138Z</time>
      </trkpt>
      <trkpt lat="62.39581" lon="6.17488">
        <ele>70.029155</ele>
        <time>2020-07-31T09:12:53.089Z</time>
      </trkpt>
      <trkpt lat="62.39585" lon="6.17963">
        <ele>71.970034</ele>
        <time>2020-07-31T09:14:04.090Z</time>
      </trkpt>
      <trkpt lat="62.39616" lon="6.18449">
        <ele>73.891937</ele>
        <time>2020-07-31T09:15:04.101Z</time>
      </trkpt>
      <trkpt lat="62.39642" lon="6.189">
        <ele>67.563718</ele>
        <time>2020-07-31T09:15:48.103Z</time>
      </trkpt>
      <trkpt lat="62.39613" lon="6.19479">
        <ele>60.710316</ele>
        <time>2020-07-31T09:16:28.120Z</time>
      </trkpt>
      <trkpt lat="62.39646" lon="6.19917">
        <ele>65.05607</ele>
        <time>2020-07-31T09:17:11.105Z</time>
      </trkpt>
      <trkpt lat="62.39708" lon="6.20401">
        <ele>70.386988</ele>
        <time>2020-07-31T09:18:11.088Z</time>
      </trkpt>
      <trkpt lat="62.3976" lon="6.20843">
        <ele>72.94444</ele>
        <time>2020-07-31T09:19:19.112Z</time>
      </trkpt>
      <trkpt lat="62.39822" lon="6.21318">
        <ele>76.645847</ele>
        <time>2020-07-31T09:20:22.094Z</time>
      </trkpt>
      <trkpt lat="62.3985" lon="6.2176">
        <ele>74.91194</ele>
        <time>2020-07-31T09:21:09.120Z</time>
      </trkpt>
      <trkpt lat="62.39934" lon="6.22198">
        <ele>69.437599</ele>
        <time>2020-07-31T09:21:58.087Z</time>
      </trkpt>
      <trkpt lat="62.40026" lon="6.22597">
        <ele>70.871568</ele>
        <time>2020-07-31T09:22:40.113Z</time>
      </trkpt>
      <trkpt lat="62.40127" lon="6.2306">
        <ele>75.352799</ele>
        <time>2020-07-31T09:23:40.134Z</time>
      </trkpt>
      <trkpt lat="62.40184" lon="6.23502">
        <ele>80.810375</ele>
        <time>2020-07-31T09:24:52.160Z</time>
      </trkpt>
      <trkpt lat="62.40298" lon="6.23859">
        <ele>93.767034</ele>
        <time>2020-07-31T09:26:33.152Z</time>
      </trkpt>
      <trkpt lat="62.40427" lon="6.24188">
        <ele>100.918239</ele>
        <time>2020-07-31T09:28:15.104Z</time>
      </trkpt>
      <trkpt lat="62.40497" lon="6.24671">
        <ele>99.682997</ele>
        <time>2020-07-31T09:29:21.091Z</time>
      </trkpt>
      <trkpt lat="62.40651" lon="6.24974">
        <ele>104.610632</ele>
        <time>2020-07-31T09:30:32.088Z</time>
      </trkpt>
      <trkpt lat="62.40818" lon="6.25278">
        <ele>104.862472</ele>
        <time>2020-07-31T09:31:33.126Z</time>
      </trkpt>
      <trkpt lat="62.40977" lon="6.2565">
        <ele>97.734197</ele>
        <time>2020-07-31T09:32:13.103Z</time>
      </trkpt>
      <trkpt lat="62.41163" lon="6.25907">
        <ele>96.594918</ele>
        <time>2020-07-31T09:33:04.098Z</time>
      </trkpt>
      <trkpt lat="62.41357" lon="6.26089">
        <ele>99.947314</ele>
        <time>2020-07-31T09:34:01.122Z</time>
      </trkpt>
      <trkpt lat="62.41569" lon="6.2618">
        <ele>98.051435</ele>
        <time>2020-07-31T09:35:06.137Z</time>
      </trkpt>
      <trkpt lat="62.41754" lon="6.26368">
        <ele>100.853686</ele>
        <time>2020-07-31T09:35:54.088Z</time>
      </trkpt>
      <trkpt lat="62.41887" lon="6.26762">
        <ele>98.666752</ele>
        <time>2020-07-31T09:37:32.132Z</time>
      </trkpt>
      <trkpt lat="62.42067" lon="6.27045">
        <ele>79.216459</ele>
        <time>2020-07-31T09:38:15.124Z</time>
      </trkpt>
      <trkpt lat="62.42079" lon="6.27375">
        <ele>61.120548</ele>
        <time>2020-07-31T09:39:06.097Z</time>
      </trkpt>
      <trkpt lat="62.42219" lon="6.277">
        <ele>64.831485</ele>
        <time>2020-07-31T09:40:13.148Z</time>
      </trkpt>
      <trkpt lat="62.4225" lon="6.28157">
        <ele>69.139657</ele>
        <time>2020-07-31T09:41:14.164Z</time>
      </trkpt>
      <trkpt lat="62.42204" lon="6.2857">
        <ele>75.704564</ele>
        <time>2020-07-31T09:42:29.138Z</time>
      </trkpt>
      <trkpt lat="62.42177" lon="6.29017">
        <ele>75.96194</ele>
        <time>2020-07-31T09:43:35.133Z</time>
      </trkpt>
      <trkpt lat="62.42216" lon="6.29481">
        <ele>80.659737</ele>
        <time>2020-07-31T09:44:24.089Z</time>
      </trkpt>
      <trkpt lat="62.42365" lon="6.29834">
        <ele>79.387241</ele>
        <time>2020-07-31T09:45:15.122Z</time>
      </trkpt>
      <trkpt lat="62.42516" lon="6.30344">
        <ele>70.93675</ele>
        <time>2020-07-31T09:45:55.085Z</time>
      </trkpt>
      <trkpt lat="62.42586" lon="6.30743">
        <ele>73.683652</ele>
        <time>2020-07-31T09:47:07.102Z</time>
      </trkpt>
      <trkpt lat="62.42703" lon="6.31108">
        <ele>78.427457</ele>
        <time>2020-07-31T09:48:15.105Z</time>
      </trkpt>
      <trkpt lat="62.42785" lon="6.31554">
        <ele>75.065491</ele>
        <time>2020-07-31T09:49:24.125Z</time>
      </trkpt>
      <trkpt lat="62.42742" lon="6.32037">
        <ele>71.450448</ele>
        <time>2020-07-31T09:50:09.101Z</time>
      </trkpt>
      <trkpt lat="62.42763" lon="6.3245">
        <ele>77.126855</ele>
        <time>2020-07-31T09:51:09.103Z</time>
      </trkpt>
      <trkpt lat="62.42891" lon="6.32805">
        <ele>78.264437</ele>
        <time>2020-07-31T09:51:53.155Z</time>
      </trkpt>
      <trkpt lat="62.42936" lon="6.33282">
        <ele>62.662608</ele>
        <time>2020-07-31T09:52:38.109Z</time>
      </trkpt>
      <trkpt lat="62.42943" lon="6.33891">
        <ele>52.276555</ele>
        <time>2020-07-31T09:53:17.114Z</time>
      </trkpt>
      <trkpt lat="62.43021" lon="6.34369">
        <ele>54.062489</ele>
        <time>2020-07-31T09:54:06.135Z</time>
      </trkpt>
      <trkpt lat="62.43099" lon="6.3479">
        <ele>58.183936</ele>
        <time>2020-07-31T09:55:02.095Z</time>
      </trkpt>
      <trkpt lat="62.43087" lon="6.35261">
        <ele>57.984812</ele>
        <time>2020-07-31T09:55:53.111Z</time>
      </trkpt>
      <trkpt lat="62.43164" lon="6.35586">
        <ele>68.43627</ele>
        <time>2020-07-31T09:57:38.136Z</time>
      </trkpt>
      <trkpt lat="62.43361" lon="6.35728">
        <ele>75.806408</ele>
        <time>2020-07-31T09:59:04.117Z</time>
      </trkpt>
      <trkpt lat="62.43565" lon="6.3585">
        <ele>77.937237</ele>
        <time>2020-07-31T10:00:32.097Z</time>
      </trkpt>
      <trkpt lat="62.43771" lon="6.35962">
        <ele>77.412679</ele>
        <time>2020-07-31T10:01:20.128Z</time>
      </trkpt>
      <trkpt lat="62.43961" lon="6.3615">
        <ele>74.39934</ele>
        <time>2020-07-31T10:02:19.136Z</time>
      </trkpt>
      <trkpt lat="62.44188" lon="6.36243">
        <ele>71.38442</ele>
        <time>2020-07-31T10:03:17.144Z</time>
      </trkpt>
      <trkpt lat="62.44339" lon="6.36437">
        <ele>69.004339</ele>
        <time>2020-07-31T10:04:24.166Z</time>
      </trkpt>
      <trkpt lat="62.44471" lon="6.36481">
        <ele>73.435937</ele>
        <time>2020-07-31T10:05:47.109Z</time>
      </trkpt>
      <trkpt lat="62.44601" lon="6.36192">
        <ele>79.868073</ele>
        <time>2020-07-31T10:07:37.132Z</time>
      </trkpt>
      <trkpt lat="62.44743" lon="6.35854">
        <ele>82.518386</ele>
        <time>2020-07-31T10:08:43.106Z</time>
      </trkpt>
      <trkpt lat="62.44906" lon="6.35537">
        <ele>87.595017</ele>
        <time>2020-07-31T10:10:03.139Z</time>
      </trkpt>
      <trkpt lat="62.4511" lon="6.35441">
        <ele>88.814797</ele>
        <time>2020-07-31T10:11:03.102Z</time>
      </trkpt>
      <trkpt lat="62.45288" lon="6.35637">
        <ele>90.952438</ele>
        <time>2020-07-31T10:12:11.109Z</time>
      </trkpt>
      <trkpt lat="62.4548" lon="6.35911">
        <ele>84.533801</ele>
        <time>2020-07-31T10:12:55.132Z</time>
      </trkpt>
      <trkpt lat="62.45682" lon="6.36271">
        <ele>75.903621</ele>
        <time>2020-07-31T10:13:35.119Z</time>
      </trkpt>
      <trkpt lat="62.45923" lon="6.36277">
        <ele>73.169512</ele>
        <time>2020-07-31T10:14:18.123Z</time>
      </trkpt>
      <trkpt lat="62.46122" lon="6.36298">
        <ele>73.881015</ele>
        <time>2020-07-31T10:15:26.142Z</time>
      </trkpt>
      <trkpt lat="62.46329" lon="6.36506">
        <ele>80.804738</ele>
        <time>2020-07-31T10:16:25.121Z</time>
      </trkpt>
      <trkpt lat="62.46488" lon="6.36305">
        <ele>78.241752</ele>
        <time>2020-07-31T10:19:12.126Z</time>
      </trkpt>
      <trkpt lat="62.4665" lon="6.36046">
        <ele>87.630753</ele>
        <time>2020-07-31T10:20:42.141Z</time>
      </trkpt>
      <trkpt lat="62.4674" lon="6.36236">
        <ele>95.962177</ele>
        <time>2020-07-31T10:22:07.144Z</time>
      </trkpt>
      <trkpt lat="62.46829" lon="6.36585">
        <ele>101.678969</ele>
        <time>2020-07-31T10:23:27.135Z</time>
      </trkpt>
      <trkpt lat="62.47034" lon="6.36516">
        <ele>101.333488</ele>
        <time>2020-07-31T10:24:36.120Z</time>
      </trkpt>
      <trkpt lat="62.47227" lon="6.36488">
        <ele>93.590168</ele>
        <time>2020-07-31T10:26:26.103Z</time>
      </trkpt>
      <trkpt lat="62.47386" lon="6.3679">
        <ele>89.520635</ele>
        <time>2020-07-31T10:27:26.133Z</time>
      </trkpt>
      <trkpt lat="62.47492" lon="6.36956">
        <ele>80.050778</ele>
        <time>2020-07-31T10:31:17.115Z</time>
      </trkpt>
      <trkpt lat="62.47541" lon="6.37408">
        <ele>76.211507</ele>
        <time>2020-07-31T10:32:31.102Z</time>
      </trkpt>
      <trkpt lat="62.47671" lon="6.3778">
        <ele>72.130354</ele>
        <time>2020-07-31T10:33:28.155Z</time>
      </trkpt>
      <trkpt lat="62.47848" lon="6.37746">
        <ele>77.142251</ele>
        <time>2020-07-31T10:34:57.112Z</time>
      </trkpt>
      <trkpt lat="62.47987" lon="6.37957">
        <ele>81.407814</ele>
        <time>2020-07-31T10:36:35.106Z</time>
      </trkpt>
      <trkpt lat="62.47938" lon="6.38061">
        <ele>81.266132</ele>
        <time>2020-07-31T10:37:51.102Z</time>
      </trkpt>
      <trkpt lat="62.48129" lon="6.38376">
        <ele>77.626315</ele>
        <time>2020-07-31T10:38:32.133Z</time>
      </trkpt>
      <trkpt lat="62.48358" lon="6.38621">
        <ele>69.385898</ele>
        <time>2020-07-31T10:39:12.145Z</time>
      </trkpt>
      <trkpt lat="62.48381" lon="6.39143">
        <ele>56.171067</ele>
        <time>2020-07-31T10:39:38.152Z</time>
      </trkpt>
      <trkpt lat="62.48465" lon="6.3957">
        <ele>61.840367</ele>
        <time>2020-07-31T10:40:37.103Z</time>
      </trkpt>
      <trkpt lat="62.48473" lon="6.39974">
        <ele>77.713328</ele>
        <time>2020-07-31T10:42:29.089Z</time>
      </trkpt>
      <trkpt lat="62.485" lon="6.40406">
        <ele>83.474141</ele>
        <time>2020-07-31T10:43:54.134Z</time>
      </trkpt>
      <trkpt lat="62.48685" lon="6.40452">
        <ele>86.550802</ele>
        <time>2020-07-31T10:44:58.129Z</time>
      </trkpt>
      <trkpt lat="62.48852" lon="6.40596">
        <ele>94.986258</ele>
        <time>2020-07-31T10:46:29.121Z</time>
      </trkpt>
      <trkpt lat="62.48863" lon="6.41114">
        <ele>89.056213</ele>
        <time>2020-07-31T10:47:16.186Z</time>
      </trkpt>
      <trkpt lat="62.48906" lon="6.41634">
        <ele>80.359899</ele>
        <time>2020-07-31T10:47:48.109Z</time>
      </trkpt>
      <trkpt lat="62.49015" lon="6.42115">
        <ele>80.635131</ele>
        <time>2020-07-31T10:48:39.095Z</time>
      </trkpt>
      <trkpt lat="62.49163" lon="6.4251">
        <ele>79.682701</ele>
        <time>2020-07-31T10:49:37.113Z</time>
      </trkpt>
      <trkpt lat="62.49204" lon="6.42981">
        <ele>77.953261</ele>
        <time>2020-07-31T10:50:26.147Z</time>
      </trkpt>
      <trkpt lat="62.49221" lon="6.43481">
        <ele>71.848714</ele>
        <time>2020-07-31T10:51:02.086Z</time>
      </trkpt>
      <trkpt lat="62.49255" lon="6.44002">
        <ele>64.227501</ele>
        <time>2020-07-31T10:51:42.102Z</time>
      </trkpt>
      <trkpt lat="62.49272" lon="6.44512">
        <ele>60.718657</ele>
        <time>2020-07-31T10:52:24.137Z</time>
      </trkpt>
      <trkpt lat="62.4928" lon="6.45041">
        <ele>64.703351</ele>
        <time>2020-07-31T10:53:24.133Z</time>
      </trkpt>
      <trkpt lat="62.49328" lon="6.45479">
        <ele>78.891214</ele>
        <time>2020-07-31T10:55:04.115Z</time>
      </trkpt>
      <trkpt lat="62.49453" lon="6.45787">
        <ele>88.561523</ele>
        <time>2020-07-31T10:56:52.118Z</time>
      </trkpt>
      <trkpt lat="62.49694" lon="6.45943">
        <ele>76.790002</ele>
        <time>2020-07-31T10:57:37.115Z</time>
      </trkpt>
      <trkpt lat="62.49811" lon="6.46372">
        <ele>59.079357</ele>
        <time>2020-07-31T10:57:57.099Z</time>
      </trkpt>
      <trkpt lat="62.49875" lon="6.46814">
        <ele>61.883832</ele>
        <time>2020-07-31T10:58:46.116Z</time>
      </trkpt>
      <trkpt lat="62.49997" lon="6.47119">
        <ele>79.276723</ele>
        <time>2020-07-31T11:01:08.128Z</time>
      </trkpt>
      <trkpt lat="62.50128" lon="6.47416">
        <ele>83.92744</ele>
        <time>2020-07-31T11:06:31.151Z</time>
      </trkpt>
      <trkpt lat="62.50108" lon="6.47889">
        <ele>73.766554</ele>
        <time>2020-07-31T11:06:59.100Z</time>
      </trkpt>
      <trkpt lat="62.50024" lon="6.48404">
        <ele>59.574189</ele>
        <time>2020-07-31T11:07:21.115Z</time>
      </trkpt>
      <trkpt lat="62.49991" lon="6.48897">
        <ele>55.325503</ele>
        <time>2020-07-31T11:08:09.131Z</time>
      </trkpt>
      <trkpt lat="62.49878" lon="6.49318">
        <ele>57.917728</ele>
        <time>2020-07-31T11:09:02.121Z</time>
      </trkpt>
      <trkpt lat="62.49892" lon="6.49776">
        <ele>55.640696</ele>
        <time>2020-07-31T11:09:47.147Z</time>
      </trkpt>
      <trkpt lat="62.4978" lon="6.5017">
        <ele>51.781653</ele>
        <time>2020-07-31T11:10:27.119Z</time>
      </trkpt>
      <trkpt lat="62.4986" lon="6.50489">
        <ele>55.86369</ele>
        <time>2020-07-31T11:11:13.149Z</time>
      </trkpt>
      <trkpt lat="62.49987" lon="6.5086">
        <ele>59.234111</ele>
        <time>2020-07-31T11:12:07.126Z</time>
      </trkpt>
      <trkpt lat="62.50042" lon="6.51263">
        <ele>67.649856</ele>
        <time>2020-07-31T11:13:40.114Z</time>
      </trkpt>
      <trkpt lat="62.50152" lon="6.51612">
        <ele>82.279237</ele>
        <time>2020-07-31T11:15:31.112Z</time>
      </trkpt>
      <trkpt lat="62.50163" lon="6.52034">
        <ele>84.352077</ele>
        <time>2020-07-31T11:16:56.120Z</time>
      </trkpt>
      <trkpt lat="62.50145" lon="6.52557">
        <ele>83.123943</ele>
        <time>2020-07-31T11:17:50.154Z</time>
      </trkpt>
      <trkpt lat="62.5001" lon="6.52889">
        <ele>89.229194</ele>
        <time>2020-07-31T11:22:43.115Z</time>
      </trkpt>
      <trkpt lat="62.4983" lon="6.53266">
        <ele>85.784991</ele>
        <time>2020-07-31T11:23:36.090Z</time>
      </trkpt>
      <trkpt lat="62.49701" lon="6.53671">
        <ele>83.188071</ele>
        <time>2020-07-31T11:24:17.130Z</time>
      </trkpt>
      <trkpt lat="62.49588" lon="6.54041">
        <ele>90.585588</ele>
        <time>2020-07-31T11:25:25.100Z</time>
      </trkpt>
      <trkpt lat="62.49504" lon="6.54561">
        <ele>94.43359</ele>
        <time>2020-07-31T11:26:21.105Z</time>
      </trkpt>
      <trkpt lat="62.49487" lon="6.55029">
        <ele>85.408824</ele>
        <time>2020-07-31T11:27:03.102Z</time>
      </trkpt>
      <trkpt lat="62.49563" lon="6.55522">
        <ele>82.825516</ele>
        <time>2020-07-31T11:27:46.113Z</time>
      </trkpt>
      <trkpt lat="62.49635" lon="6.5605">
        <ele>78.871719</ele>
        <time>2020-07-31T11:28:29.118Z</time>
      </trkpt>
      <trkpt lat="62.49677" lon="6.56552">
        <ele>77.005057</ele>
        <time>2020-07-31T11:29:17.161Z</time>
      </trkpt>
      <trkpt lat="62.49632" lon="6.57113">
        <ele>55.639817</ele>
        <time>2020-07-31T11:29:38.125Z</time>
      </trkpt>
      <trkpt lat="62.49691" lon="6.57613">
        <ele>49.549801</ele>
        <time>2020-07-31T11:30:11.117Z</time>
      </trkpt>
      <trkpt lat="62.49745" lon="6.58033">
        <ele>63.020714</ele>
        <time>2020-07-31T11:31:39.102Z</time>
      </trkpt>
      <trkpt lat="62.49796" lon="6.58607">
        <ele>69.864781</ele>
        <time>2020-07-31T11:32:33.189Z</time>
      </trkpt>
      <trkpt lat="62.499" lon="6.58982">
        <ele>73.998974</ele>
        <time>2020-07-31T11:34:36.130Z</time>
      </trkpt>
      <trkpt lat="62.49885" lon="6.59437">
        <ele>80.036226</ele>
        <time>2020-07-31T11:35:44.111Z</time>
      </trkpt>
      <trkpt lat="62.49719" lon="6.59593">
        <ele>95.24789</ele>
        <time>2020-07-31T11:37:46.120Z</time>
      </trkpt>
      <trkpt lat="62.49534" lon="6.59587">
        <ele>89.84159</ele>
        <time>2020-07-31T11:38:48.102Z</time>
      </trkpt>
      <trkpt lat="62.49424" lon="6.60015">
        <ele>81.847268</ele>
        <time>2020-07-31T11:39:54.094Z</time>
      </trkpt>
      <trkpt lat="62.49206" lon="6.6033">
        <ele>74.065725</ele>
        <time>2020-07-31T11:40:38.134Z</time>
      </trkpt>
      <trkpt lat="62.49074" lon="6.60538">
        <ele>81.993909</ele>
        <time>2020-07-31T11:42:30.111Z</time>
      </trkpt>
      <trkpt lat="62.48991" lon="6.61075">
        <ele>79.916848</ele>
        <time>2020-07-31T11:43:33.117Z</time>
      </trkpt>
      <trkpt lat="62.48978" lon="6.6154">
        <ele>84.660245</ele>
        <time>2020-07-31T11:44:11.176Z</time>
      </trkpt>
      <trkpt lat="62.48891" lon="6.61927">
        <ele>97.644945</ele>
        <time>2020-07-31T11:45:48.119Z</time>
      </trkpt>
      <trkpt lat="62.48853" lon="6.62384">
        <ele>96.225063</ele>
        <time>2020-07-31T11:46:44.109Z</time>
      </trkpt>
      <trkpt lat="62.4883" lon="6.62892">
        <ele>87.994698</ele>
        <time>2020-07-31T11:47:28.122Z</time>
      </trkpt>
      <trkpt lat="62.48706" lon="6.63283">
        <ele>84.082454</ele>
        <time>2020-07-31T11:50:32.114Z</time>
      </trkpt>
      <trkpt lat="62.48612" lon="6.63714">
        <ele>79.392611</ele>
        <time>2020-07-31T11:51:30.088Z</time>
      </trkpt>
      <trkpt lat="62.48418" lon="6.64082">
        <ele>72.117588</ele>
        <time>2020-07-31T11:52:06.090Z</time>
      </trkpt>
      <trkpt lat="62.48272" lon="6.64515">
        <ele>60.90521</ele>
        <time>2020-07-31T11:52:36.094Z</time>
      </trkpt>
      <trkpt lat="62.48153" lon="6.6496">
        <ele>59.105464</ele>
        <time>2020-07-31T11:53:22.145Z</time>
      </trkpt>
      <trkpt lat="62.48071" lon="6.65375">
        <ele>61.481117</ele>
        <time>2020-07-31T11:54:18.096Z</time>
      </trkpt>
      <trkpt lat="62.47998" lon="6.65813">
        <ele>68.727376</ele>
        <time>2020-07-31T11:55:05.129Z</time>
      </trkpt>
      <trkpt lat="62.47941" lon="6.6624">
        <ele>70.503288</ele>
        <time>2020-07-31T11:56:10.120Z</time>
      </trkpt>
      <trkpt lat="62.47916" lon="6.66689">
        <ele>71.023964</ele>
        <time>2020-07-31T11:57:07.116Z</time>
      </trkpt>
      <trkpt lat="62.48062" lon="6.66992">
        <ele>75.815641</ele>
        <time>2020-07-31T11:58:28.114Z</time>
      </trkpt>
      <trkpt lat="62.48187" lon="6.6734">
        <ele>81.546681</ele>
        <time>2020-07-31T11:59:57.152Z</time>
      </trkpt>
      <trkpt lat="62.48226" lon="6.67802">
        <ele>77.804672</ele>
        <time>2020-07-31T12:00:57.163Z</time>
      </trkpt>
      <trkpt lat="62.4835" lon="6.68252">
        <ele>58.323263</ele>
        <time>2020-07-31T12:01:40.133Z</time>
      </trkpt>
      <trkpt lat="62.48449" lon="6.68679">
        <ele>53.77629</ele>
        <time>2020-07-31T12:02:28.116Z</time>
      </trkpt>
      <trkpt lat="62.48635" lon="6.6898">
        <ele>52.695559</ele>
        <time>2020-07-31T12:03:17.097Z</time>
      </trkpt>
      <trkpt lat="62.48827" lon="6.69128">
        <ele>52.196581</ele>
        <time>2020-07-31T12:04:29.098Z</time>
      </trkpt>
      <trkpt lat="62.48919" lon="6.69521">
        <ele>54.89841</ele>
        <time>2020-07-31T12:05:27.090Z</time>
      </trkpt>
      <trkpt lat="62.48929" lon="6.69965">
        <ele>63.919619</ele>
        <time>2020-07-31T12:06:59.138Z</time>
      </trkpt>
      <trkpt lat="62.48958" lon="6.70411">
        <ele>73.231651</ele>
        <time>2020-07-31T12:08:45.198Z</time>
      </trkpt>
      <trkpt lat="62.4907" lon="6.7077">
        <ele>77.0245</ele>
        <time>2020-07-31T12:10:12.117Z</time>
      </trkpt>
      <trkpt lat="62.49083" lon="6.7126">
        <ele>73.401004</ele>
        <time>2020-07-31T12:10:49.105Z</time>
      </trkpt>
      <trkpt lat="62.49142" lon="6.71768">
        <ele>62.17144</ele>
        <time>2020-07-31T12:11:11.116Z</time>
      </trkpt>
      <trkpt lat="62.49138" lon="6.72245">
        <ele>51.071602</ele>
        <time>2020-07-31T12:11:32.096Z</time>
      </trkpt>
      <trkpt lat="62.4905" lon="6.72711">
        <ele>53.051743</ele>
        <time>2020-07-31T12:12:11.142Z</time>
      </trkpt>
      <trkpt lat="62.48832" lon="6.72714">
        <ele>64.854138</ele>
        <time>2020-07-31T12:13:20.143Z</time>
      </trkpt>
      <trkpt lat="62.48658" lon="6.72849">
        <ele>60.691507</ele>
        <time>2020-07-31T12:16:20.147Z</time>
      </trkpt>
      <trkpt lat="62.48493" lon="6.72688">
        <ele>79.950595</ele>
        <time>2020-07-31T12:19:17.156Z</time>
      </trkpt>
      <trkpt lat="62.48405" lon="6.72297">
        <ele>89.238877</ele>
        <time>2020-07-31T12:21:00.108Z</time>
      </trkpt>
      <trkpt lat="62.48306" lon="6.71912">
        <ele>97.984024</ele>
        <time>2020-07-31T12:22:28.149Z</time>
      </trkpt>
      <trkpt lat="62.48172" lon="6.71592">
        <ele>106.112134</ele>
        <time>2020-07-31T12:23:53.102Z</time>
      </trkpt>
      <trkpt lat="62.48072" lon="6.71203">
        <ele>119.277511</ele>
        <time>2020-07-31T12:25:21.114Z</time>
      </trkpt>
      <trkpt lat="62.47933" lon="6.70908">
        <ele>95.555727</ele>
        <time>2020-07-31T12:26:22.127Z</time>
      </trkpt>
      <trkpt lat="62.47829" lon="6.71276">
        <ele>85.140383</ele>
        <time>2020-07-31T12:27:29.112Z</time>
      </trkpt>
      <trkpt lat="62.47764" lon="6.71711">
        <ele>89.998588</ele>
        <time>2020-07-31T12:29:40.171Z</time>
      </trkpt>
      <trkpt lat="62.47758" lon="6.72231">
        <ele>94.87423</ele>
        <time>2020-07-31T12:30:37.092Z</time>
      </trkpt>
      <trkpt lat="62.47743" lon="6.72752">
        <ele>97.600731</ele>
        <time>2020-07-31T12:31:35.108Z</time>
      </trkpt>
      <trkpt lat="62.4775" lon="6.73185">
        <ele>101.41575</ele>
        <time>2020-07-31T12:32:15.139Z</time>
      </trkpt>
      <trkpt lat="62.47756" lon="6.73627">
        <ele>99.107679</ele>
        <time>2020-07-31T12:32:56.132Z</time>
      </trkpt>
      <trkpt lat="62.47767" lon="6.74066">
        <ele>92.796387</ele>
        <time>2020-07-31T12:33:39.178Z</time>
      </trkpt>
      <trkpt lat="62.47727" lon="6.74508">
        <ele>86.458905</ele>
        <time>2020-07-31T12:34:19.148Z</time>
      </trkpt>
      <trkpt lat="62.47741" lon="6.75082">
        <ele>79.326132</ele>
        <time>2020-07-31T12:34:51.122Z</time>
      </trkpt>
      <trkpt lat="62.47745" lon="6.75552">
        <ele>74.548225</ele>
        <time>2020-07-31T12:35:16.139Z</time>
      </trkpt>
      <trkpt lat="62.47776" lon="6.7608">
        <ele>72.58925</ele>
        <time>2020-07-31T12:36:13.111Z</time>
      </trkpt>
      <trkpt lat="62.47872" lon="6.76552">
        <ele>71.526251</ele>
        <time>2020-07-31T12:36:50.132Z</time>
      </trkpt>
      <trkpt lat="62.47981" lon="6.76964">
        <ele>62.352085</ele>
        <time>2020-07-31T12:37:10.093Z</time>
      </trkpt>
      <trkpt lat="62.48097" lon="6.77468">
        <ele>57.416871</ele>
        <time>2020-07-31T12:37:46.161Z</time>
      </trkpt>
      <trkpt lat="62.48137" lon="6.77934">
        <ele>60.362725</ele>
        <time>2020-07-31T12:38:34.101Z</time>
      </trkpt>
      <trkpt lat="62.48104" lon="6.7838">
        <ele>60.079356</ele>
        <time>2020-07-31T12:39:18.111Z</time>
      </trkpt>
      <trkpt lat="62.48087" lon="6.78829">
        <ele>58.580036</ele>
        <time>2020-07-31T12:40:01.143Z</time>
      </trkpt>
      <trkpt lat="62.4813" lon="6.79339">
        <ele>58.878939</ele>
        <time>2020-07-31T12:41:04.109Z</time>
      </trkpt>
      <trkpt lat="62.4815" lon="6.798">
        <ele>59.029765</ele>
        <time>2020-07-31T12:41:52.175Z</time>
      </trkpt>
      <trkpt lat="62.482" lon="6.80379">
        <ele>51.034398</ele>
        <time>2020-07-31T12:42:36.130Z</time>
      </trkpt>
      <trkpt lat="62.48266" lon="6.80869">
        <ele>47.920644</ele>
        <time>2020-07-31T12:43:17.118Z</time>
      </trkpt>
      <trkpt lat="62.48268" lon="6.8135">
        <ele>50.258178</ele>
        <time>2020-07-31T12:44:15.116Z</time>
      </trkpt>
      <trkpt lat="62.48219" lon="6.81709">
        <ele>52.128734</ele>
        <time>2020-07-31T12:47:06.125Z</time>
      </trkpt>
      <trkpt lat="62.48131" lon="6.81445">
        <ele>50.389684</ele>
        <time>2020-07-31T13:05:21.126Z</time>
      </trkpt>
      <trkpt lat="62.47943" lon="6.81404">
        <ele>54.517931</ele>
        <time>2020-07-31T13:06:31.118Z</time>
      </trkpt>
      <trkpt lat="62.47837" lon="6.81773">
        <ele>53.174706</ele>
        <time>2020-07-31T13:07:39.124Z</time>
      </trkpt>
      <trkpt lat="62.47624" lon="6.81706">
        <ele>59.824945</ele>
        <time>2020-07-31T13:08:48.128Z</time>
      </trkpt>
      <trkpt lat="62.47435" lon="6.81682">
        <ele>72.098269</ele>
        <time>2020-07-31T13:10:49.129Z</time>
      </trkpt>
      <trkpt lat="62.47291" lon="6.81356">
        <ele>74.642676</ele>
        <time>2020-07-31T13:22:07.569Z</time>
      </trkpt>
    </trkseg>
  </trk>
  <trk>
    <name><![CDATA[Tour d'Europe: étape 034]]></name>
    <trkseg>
      <trkpt lat="62.47288" lon="6.8134">
        <ele>72.944351</ele>
        <time>2020-08-01T07:04:27.588Z</time>
      </trkpt>
      <trkpt lat="62.47422" lon="6.81678">
        <ele>78.194098</ele>
        <time>2020-08-01T07:07:32.605Z</time>
      </trkpt>
      <trkpt lat="62.47658" lon="6.81697">
        <ele>61.037752</ele>
        <time>2020-08-01T07:07:57.609Z</time>
      </trkpt>
      <trkpt lat="62.47853" lon="6.81731">
        <ele>51.190979</ele>
        <time>2020-08-01T07:09:05.578Z</time>
      </trkpt>
      <trkpt lat="62.47983" lon="6.81404">
        <ele>51.393274</ele>
        <time>2020-08-01T07:10:08.595Z</time>
      </trkpt>
      <trkpt lat="62.48193" lon="6.81397">
        <ele>56.012099</ele>
        <time>2020-08-01T07:10:58.600Z</time>
      </trkpt>
      <trkpt lat="62.48353" lon="6.81437">
        <ele>57.447522</ele>
        <time>2020-08-01T07:12:15.592Z</time>
      </trkpt>
      <trkpt lat="62.48361" lon="6.81025">
        <ele>71.627387</ele>
        <time>2020-08-01T07:14:29.591Z</time>
      </trkpt>
      <trkpt lat="62.48462" lon="6.81163">
        <ele>90.529204</ele>
        <time>2020-08-01T07:17:03.597Z</time>
      </trkpt>
      <trkpt lat="62.48535" lon="6.81311">
        <ele>105.854062</ele>
        <time>2020-08-01T07:19:22.602Z</time>
      </trkpt>
      <trkpt lat="62.48605" lon="6.81455">
        <ele>120.959709</ele>
        <time>2020-08-01T07:21:47.598Z</time>
      </trkpt>
      <trkpt lat="62.48698" lon="6.8112">
        <ele>136.74478</ele>
        <time>2020-08-01T07:24:19.589Z</time>
      </trkpt>
      <trkpt lat="62.4888" lon="6.81239">
        <ele>153.039586</ele>
        <time>2020-08-01T07:26:52.587Z</time>
      </trkpt>
      <trkpt lat="62.49056" lon="6.81404">
        <ele>166.347144</ele>
        <time>2020-08-01T07:29:12.620Z</time>
      </trkpt>
      <trkpt lat="62.49252" lon="6.81522">
        <ele>167.993095</ele>
        <time>2020-08-01T07:30:33.596Z</time>
      </trkpt>
      <trkpt lat="62.4945" lon="6.81648">
        <ele>166.61029</ele>
        <time>2020-08-01T07:31:35.592Z</time>
      </trkpt>
      <trkpt lat="62.49642" lon="6.81799">
        <ele>181.291228</ele>
        <time>2020-08-01T07:33:11.604Z</time>
      </trkpt>
      <trkpt lat="62.49821" lon="6.81936">
        <ele>201.85282</ele>
        <time>2020-08-01T07:36:16.595Z</time>
      </trkpt>
      <trkpt lat="62.50009" lon="6.82029">
        <ele>209.875157</ele>
        <time>2020-08-01T07:38:05.620Z</time>
      </trkpt>
      <trkpt lat="62.50158" lon="6.81848">
        <ele>199.6802</ele>
        <time>2020-08-01T07:38:30.593Z</time>
      </trkpt>
      <trkpt lat="62.49979" lon="6.81621">
        <ele>181.883844</ele>
        <time>2020-08-01T07:39:26.586Z</time>
      </trkpt>
      <trkpt lat="62.50006" lon="6.81138">
        <ele>163.262673</ele>
        <time>2020-08-01T07:39:49.602Z</time>
      </trkpt>
      <trkpt lat="62.49953" lon="6.80631">
        <ele>146.001762</ele>
        <time>2020-08-01T07:40:09.608Z</time>
      </trkpt>
      <trkpt lat="62.49905" lon="6.80154">
        <ele>128.595863</ele>
        <time>2020-08-01T07:40:31.613Z</time>
      </trkpt>
      <trkpt lat="62.49872" lon="6.79679">
        <ele>116.204761</ele>
        <time>2020-08-01T07:40:51.586Z</time>
      </trkpt>
      <trkpt lat="62.49884" lon="6.79212">
        <ele>119.485463</ele>
        <time>2020-08-01T07:41:24.588Z</time>
      </trkpt>
      <trkpt lat="62.49914" lon="6.7878">
        <ele>132.351042</ele>
        <time>2020-08-01T07:42:50.601Z</time>
      </trkpt>
      <trkpt lat="62.49862" lon="6.78219">
        <ele>121.965398</ele>
        <time>2020-08-01T07:43:32.605Z</time>
      </trkpt>
      <trkpt lat="62.49853" lon="6.77746">
        <ele>120.760437</ele>
        <time>2020-08-01T07:44:14.598Z</time>
      </trkpt>
      <trkpt lat="62.49873" lon="6.77249">
        <ele>125.546697</ele>
        <time>2020-08-01T07:44:54.601Z</time>
      </trkpt>
      <trkpt lat="62.49895" lon="6.76766">
        <ele>126.863835</ele>
        <time>2020-08-01T07:45:54.630Z</time>
      </trkpt>
      <trkpt lat="62.49916" lon="6.76296">
        <ele>130.51811</ele>
        <time>2020-08-01T07:47:05.589Z</time>
      </trkpt>
      <trkpt lat="62.4988" lon="6.75848">
        <ele>132.774657</ele>
        <time>2020-08-01T07:47:52.637Z</time>
      </trkpt>
      <trkpt lat="62.49915" lon="6.75384">
        <ele>120.578502</ele>
        <time>2020-08-01T07:48:33.589Z</time>
      </trkpt>
      <trkpt lat="62.49926" lon="6.74926">
        <ele>115.003915</ele>
        <time>2020-08-01T07:49:22.584Z</time>
      </trkpt>
      <trkpt lat="62.49922" lon="6.7439">
        <ele>108.048221</ele>
        <time>2020-08-01T07:50:02.605Z</time>
      </trkpt>
      <trkpt lat="62.49921" lon="6.73904">
        <ele>115.403091</ele>
        <time>2020-08-01T07:50:59.600Z</time>
      </trkpt>
      <trkpt lat="62.49865" lon="6.73445">
        <ele>119.171265</ele>
        <time>2020-08-01T07:51:41.598Z</time>
      </trkpt>
      <trkpt lat="62.49826" lon="6.72936">
        <ele>115.451353</ele>
        <time>2020-08-01T07:52:21.599Z</time>
      </trkpt>
      <trkpt lat="62.49784" lon="6.72397">
        <ele>96.40933</ele>
        <time>2020-08-01T07:52:46.595Z</time>
      </trkpt>
      <trkpt lat="62.49844" lon="6.71933">
        <ele>73.016394</ele>
        <time>2020-08-01T07:53:09.592Z</time>
      </trkpt>
      <trkpt lat="62.49919" lon="6.71506">
        <ele>76.128982</ele>
        <time>2020-08-01T07:54:20.600Z</time>
      </trkpt>
      <trkpt lat="62.50012" lon="6.71128">
        <ele>82.042223</ele>
        <time>2020-08-01T07:56:04.596Z</time>
      </trkpt>
      <trkpt lat="62.50115" lon="6.70722">
        <ele>82.224269</ele>
        <time>2020-08-01T07:57:10.611Z</time>
      </trkpt>
      <trkpt lat="62.5021" lon="6.70329">
        <ele>84.684943</ele>
        <time>2020-08-01T07:58:15.621Z</time>
      </trkpt>
      <trkpt lat="62.50303" lon="6.69932">
        <ele>90.228008</ele>
        <time>2020-08-01T07:59:31.603Z</time>
      </trkpt>
      <trkpt lat="62.50409" lon="6.69567">
        <ele>95.086908</ele>
        <time>2020-08-01T08:00:51.606Z</time>
      </trkpt>
      <trkpt lat="62.50489" lon="6.69118">
        <ele>95.750443</ele>
        <time>2020-08-01T08:01:50.604Z</time>
      </trkpt>
      <trkpt lat="62.50512" lon="6.6867">
        <ele>102.45799</ele>
        <time>2020-08-01T08:03:04.598Z</time>
      </trkpt>
      <trkpt lat="62.50542" lon="6.68232">
        <ele>105.341517</ele>
        <time>2020-08-01T08:04:23.617Z</time>
      </trkpt>
      <trkpt lat="62.50568" lon="6.67773">
        <ele>107.498421</ele>
        <time>2020-08-01T08:05:42.591Z</time>
      </trkpt>
      <trkpt lat="62.50575" lon="6.67315">
        <ele>107.128069</ele>
        <time>2020-08-01T08:06:35.626Z</time>
      </trkpt>
      <trkpt lat="62.50504" lon="6.66849">
        <ele>99.669697</ele>
        <time>2020-08-01T08:07:21.586Z</time>
      </trkpt>
      <trkpt lat="62.5048" lon="6.66351">
        <ele>92.114765</ele>
        <time>2020-08-01T08:07:59.613Z</time>
      </trkpt>
      <trkpt lat="62.50481" lon="6.65792">
        <ele>86.974251</ele>
        <time>2020-08-01T08:08:39.584Z</time>
      </trkpt>
      <trkpt lat="62.50422" lon="6.65269">
        <ele>80.299679</ele>
        <time>2020-08-01T08:09:19.603Z</time>
      </trkpt>
      <trkpt lat="62.50428" lon="6.64745">
        <ele>76.759465</ele>
        <time>2020-08-01T08:10:01.588Z</time>
      </trkpt>
      <trkpt lat="62.50442" lon="6.64268">
        <ele>75.942047</ele>
        <time>2020-08-01T08:10:42.608Z</time>
      </trkpt>
      <trkpt lat="62.50464" lon="6.63756">
        <ele>74.380719</ele>
        <time>2020-08-01T08:11:22.581Z</time>
      </trkpt>
      <trkpt lat="62.50456" lon="6.63281">
        <ele>71.679377</ele>
        <time>2020-08-01T08:12:02.600Z</time>
      </trkpt>
      <trkpt lat="62.50471" lon="6.62803">
        <ele>69.510431</ele>
        <time>2020-08-01T08:12:42.619Z</time>
      </trkpt>
      <trkpt lat="62.50428" lon="6.62342">
        <ele>73.757926</ele>
        <time>2020-08-01T08:13:38.611Z</time>
      </trkpt>
      <trkpt lat="62.50494" lon="6.62763">
        <ele>78.90401</ele>
        <time>2020-08-01T08:15:05.607Z</time>
      </trkpt>
      <trkpt lat="62.50592" lon="6.62805">
        <ele>87.906591</ele>
        <time>2020-08-01T08:17:31.598Z</time>
      </trkpt>
      <trkpt lat="62.50771" lon="6.62697">
        <ele>99.245395</ele>
        <time>2020-08-01T08:19:40.611Z</time>
      </trkpt>
      <trkpt lat="62.50934" lon="6.62436">
        <ele>100.895467</ele>
        <time>2020-08-01T08:20:52.588Z</time>
      </trkpt>
      <trkpt lat="62.51068" lon="6.62117">
        <ele>95.83234</ele>
        <time>2020-08-01T08:21:55.587Z</time>
      </trkpt>
      <trkpt lat="62.51125" lon="6.61691">
        <ele>104.165076</ele>
        <time>2020-08-01T08:23:18.586Z</time>
      </trkpt>
      <trkpt lat="62.51271" lon="6.61511">
        <ele>108.734022</ele>
        <time>2020-08-01T08:24:31.611Z</time>
      </trkpt>
      <trkpt lat="62.51431" lon="6.61845">
        <ele>100.836884</ele>
        <time>2020-08-01T08:25:08.618Z</time>
      </trkpt>
      <trkpt lat="62.51608" lon="6.62166">
        <ele>95.174404</ele>
        <time>2020-08-01T08:25:42.593Z</time>
      </trkpt>
      <trkpt lat="62.51742" lon="6.62508">
        <ele>94.458218</ele>
        <time>2020-08-01T08:26:43.588Z</time>
      </trkpt>
      <trkpt lat="62.51868" lon="6.62817">
        <ele>95.143389</ele>
        <time>2020-08-01T08:27:23.624Z</time>
      </trkpt>
      <trkpt lat="62.52044" lon="6.63076">
        <ele>95.495939</ele>
        <time>2020-08-01T08:28:20.609Z</time>
      </trkpt>
      <trkpt lat="62.5224" lon="6.63133">
        <ele>100.690544</ele>
        <time>2020-08-01T08:29:56.617Z</time>
      </trkpt>
      <trkpt lat="62.52444" lon="6.63041">
        <ele>103.760221</ele>
        <time>2020-08-01T08:31:17.598Z</time>
      </trkpt>
      <trkpt lat="62.52656" lon="6.63061">
        <ele>103.481707</ele>
        <time>2020-08-01T08:32:03.604Z</time>
      </trkpt>
      <trkpt lat="62.52866" lon="6.63112">
        <ele>111.856054</ele>
        <time>2020-08-01T08:32:43.601Z</time>
      </trkpt>
      <trkpt lat="62.53058" lon="6.63033">
        <ele>112.378089</ele>
        <time>2020-08-01T08:33:45.616Z</time>
      </trkpt>
      <trkpt lat="62.53118" lon="6.62531">
        <ele>93.659364</ele>
        <time>2020-08-01T08:34:25.637Z</time>
      </trkpt>
      <trkpt lat="62.53105" lon="6.62095">
        <ele>87.114995</ele>
        <time>2020-08-01T08:35:09.597Z</time>
      </trkpt>
      <trkpt lat="62.5317" lon="6.61663">
        <ele>94.923889</ele>
        <time>2020-08-01T08:35:59.603Z</time>
      </trkpt>
      <trkpt lat="62.53308" lon="6.61349">
        <ele>106.811012</ele>
        <time>2020-08-01T08:37:12.583Z</time>
      </trkpt>
      <trkpt lat="62.53443" lon="6.61031">
        <ele>111.506004</ele>
        <time>2020-08-01T08:38:17.598Z</time>
      </trkpt>
      <trkpt lat="62.53485" lon="6.60588">
        <ele>106.218338</ele>
        <time>2020-08-01T08:39:18.605Z</time>
      </trkpt>
      <trkpt lat="62.53468" lon="6.60102">
        <ele>94.608129</ele>
        <time>2020-08-01T08:39:40.612Z</time>
      </trkpt>
      <trkpt lat="62.5345" lon="6.5958">
        <ele>85.871564</ele>
        <time>2020-08-01T08:40:08.599Z</time>
      </trkpt>
      <trkpt lat="62.53389" lon="6.591">
        <ele>79.745911</ele>
        <time>2020-08-01T08:40:51.626Z</time>
      </trkpt>
      <trkpt lat="62.53487" lon="6.58745">
        <ele>79.66255</ele>
        <time>2020-08-01T08:41:50.599Z</time>
      </trkpt>
      <trkpt lat="62.53649" lon="6.58496">
        <ele>91.672916</ele>
        <time>2020-08-01T08:43:35.601Z</time>
      </trkpt>
      <trkpt lat="62.53826" lon="6.58279">
        <ele>91.70427</ele>
        <time>2020-08-01T08:44:52.610Z</time>
      </trkpt>
      <trkpt lat="62.54058" lon="6.58091">
        <ele>75.837967</ele>
        <time>2020-08-01T08:45:25.592Z</time>
      </trkpt>
      <trkpt lat="62.54274" lon="6.57898">
        <ele>72.485917</ele>
        <time>2020-08-01T08:45:52.604Z</time>
      </trkpt>
      <trkpt lat="62.54388" lon="6.57534">
        <ele>80.308179</ele>
        <time>2020-08-01T08:47:47.581Z</time>
      </trkpt>
      <trkpt lat="62.54443" lon="6.57129">
        <ele>87.592415</ele>
        <time>2020-08-01T08:49:31.617Z</time>
      </trkpt>
      <trkpt lat="62.54444" lon="6.56652">
        <ele>88.121827</ele>
        <time>2020-08-01T08:50:27.589Z</time>
      </trkpt>
      <trkpt lat="62.54441" lon="6.56177">
        <ele>88.025477</ele>
        <time>2020-08-01T09:01:38.603Z</time>
      </trkpt>
      <trkpt lat="62.54422" lon="6.55733">
        <ele>87.759581</ele>
        <time>2020-08-01T09:02:49.599Z</time>
      </trkpt>
      <trkpt lat="62.54411" lon="6.55257">
        <ele>83.438362</ele>
        <time>2020-08-01T09:03:50.600Z</time>
      </trkpt>
      <trkpt lat="62.54408" lon="6.54738">
        <ele>80.645113</ele>
        <time>2020-08-01T09:04:49.598Z</time>
      </trkpt>
      <trkpt lat="62.54377" lon="6.54239">
        <ele>86.987227</ele>
        <time>2020-08-01T09:05:44.602Z</time>
      </trkpt>
      <trkpt lat="62.54345" lon="6.53811">
        <ele>81.215935</ele>
        <time>2020-08-01T09:06:25.608Z</time>
      </trkpt>
      <trkpt lat="62.54328" lon="6.53386">
        <ele>79.027801</ele>
        <time>2020-08-01T09:07:12.604Z</time>
      </trkpt>
      <trkpt lat="62.54346" lon="6.52899">
        <ele>84.830518</ele>
        <time>2020-08-01T09:08:12.596Z</time>
      </trkpt>
      <trkpt lat="62.54362" lon="6.52445">
        <ele>86.86068</ele>
        <time>2020-08-01T09:09:17.597Z</time>
      </trkpt>
      <trkpt lat="62.54346" lon="6.51974">
        <ele>89.271745</ele>
        <time>2020-08-01T09:10:21.606Z</time>
      </trkpt>
      <trkpt lat="62.543" lon="6.51468">
        <ele>90.013591</ele>
        <time>2020-08-01T09:11:21.596Z</time>
      </trkpt>
      <trkpt lat="62.542" lon="6.51056">
        <ele>94.925242</ele>
        <time>2020-08-01T09:12:37.609Z</time>
      </trkpt>
      <trkpt lat="62.541" lon="6.50684">
        <ele>98.877648</ele>
        <time>2020-08-01T09:13:56.597Z</time>
      </trkpt>
      <trkpt lat="62.53962" lon="6.50194">
        <ele>90.40355</ele>
        <time>2020-08-01T09:14:43.586Z</time>
      </trkpt>
      <trkpt lat="62.53909" lon="6.49785">
        <ele>84.739634</ele>
        <time>2020-08-01T09:15:03.610Z</time>
      </trkpt>
      <trkpt lat="62.53857" lon="6.4932">
        <ele>89.663878</ele>
        <time>2020-08-01T09:15:47.605Z</time>
      </trkpt>
      <trkpt lat="62.53836" lon="6.48887">
        <ele>93.024961</ele>
        <time>2020-08-01T09:16:40.612Z</time>
      </trkpt>
      <trkpt lat="62.5383" lon="6.48403">
        <ele>99.84354</ele>
        <time>2020-08-01T09:18:44.597Z</time>
      </trkpt>
      <trkpt lat="62.53816" lon="6.47942">
        <ele>101.185071</ele>
        <time>2020-08-01T09:20:10.637Z</time>
      </trkpt>
      <trkpt lat="62.5371" lon="6.47437">
        <ele>83.303382</ele>
        <time>2020-08-01T09:20:43.616Z</time>
      </trkpt>
      <trkpt lat="62.53622" lon="6.46906">
        <ele>80.985123</ele>
        <time>2020-08-01T09:22:28.622Z</time>
      </trkpt>
      <trkpt lat="62.53562" lon="6.46498">
        <ele>89.677645</ele>
        <time>2020-08-01T09:24:14.601Z</time>
      </trkpt>
      <trkpt lat="62.53528" lon="6.46051">
        <ele>91.418654</ele>
        <time>2020-08-01T09:25:25.638Z</time>
      </trkpt>
      <trkpt lat="62.53466" lon="6.45622">
        <ele>89.922152</ele>
        <time>2020-08-01T09:26:06.588Z</time>
      </trkpt>
      <trkpt lat="62.53406" lon="6.45073">
        <ele>85.353196</ele>
        <time>2020-08-01T09:26:46.601Z</time>
      </trkpt>
      <trkpt lat="62.53393" lon="6.4465">
        <ele>89.161263</ele>
        <time>2020-08-01T09:27:54.588Z</time>
      </trkpt>
      <trkpt lat="62.53397" lon="6.44174">
        <ele>90.883506</ele>
        <time>2020-08-01T09:28:49.625Z</time>
      </trkpt>
      <trkpt lat="62.53429" lon="6.43735">
        <ele>94.017936</ele>
        <time>2020-08-01T09:29:57.596Z</time>
      </trkpt>
      <trkpt lat="62.53433" lon="6.43204">
        <ele>92.328003</ele>
        <time>2020-08-01T09:30:46.585Z</time>
      </trkpt>
      <trkpt lat="62.53435" lon="6.42753">
        <ele>94.267466</ele>
        <time>2020-08-01T09:31:36.594Z</time>
      </trkpt>
      <trkpt lat="62.53446" lon="6.42261">
        <ele>88.47515</ele>
        <time>2020-08-01T09:32:19.612Z</time>
      </trkpt>
      <trkpt lat="62.53492" lon="6.41732">
        <ele>85.690731</ele>
        <time>2020-08-01T09:33:05.598Z</time>
      </trkpt>
      <trkpt lat="62.53502" lon="6.41257">
        <ele>87.842692</ele>
        <time>2020-08-01T09:34:03.608Z</time>
      </trkpt>
      <trkpt lat="62.5351" lon="6.40735">
        <ele>79.669615</ele>
        <time>2020-08-01T09:34:44.600Z</time>
      </trkpt>
      <trkpt lat="62.53514" lon="6.40135">
        <ele>75.879093</ele>
        <time>2020-08-01T09:35:24.593Z</time>
      </trkpt>
      <trkpt lat="62.5353" lon="6.39675">
        <ele>83.139344</ele>
        <time>2020-08-01T09:36:12.603Z</time>
      </trkpt>
      <trkpt lat="62.53541" lon="6.39196">
        <ele>84.490149</ele>
        <time>2020-08-01T09:37:01.605Z</time>
      </trkpt>
      <trkpt lat="62.53554" lon="6.38721">
        <ele>83.465431</ele>
        <time>2020-08-01T09:37:51.629Z</time>
      </trkpt>
      <trkpt lat="62.53584" lon="6.38205">
        <ele>78.288835</ele>
        <time>2020-08-01T09:38:39.623Z</time>
      </trkpt>
      <trkpt lat="62.53556" lon="6.37741">
        <ele>79.668223</ele>
        <time>2020-08-01T09:39:47.672Z</time>
      </trkpt>
      <trkpt lat="62.53533" lon="6.37294">
        <ele>78.789599</ele>
        <time>2020-08-01T09:40:51.585Z</time>
      </trkpt>
      <trkpt lat="62.53516" lon="6.36846">
        <ele>61.415523</ele>
        <time>2020-08-01T09:41:12.601Z</time>
      </trkpt>
      <trkpt lat="62.53455" lon="6.36408">
        <ele>58.924862</ele>
        <time>2020-08-01T09:42:08.599Z</time>
      </trkpt>
      <trkpt lat="62.53483" lon="6.36006">
        <ele>67.612775</ele>
        <time>2020-08-01T09:43:52.579Z</time>
      </trkpt>
      <trkpt lat="62.53442" lon="6.35598">
        <ele>72.098709</ele>
        <time>2020-08-01T09:45:14.576Z</time>
      </trkpt>
      <trkpt lat="62.53403" lon="6.35149">
        <ele>73.921077</ele>
        <time>2020-08-01T09:46:14.578Z</time>
      </trkpt>
      <trkpt lat="62.53333" lon="6.34743">
        <ele>77.835893</ele>
        <time>2020-08-01T09:47:31.584Z</time>
      </trkpt>
      <trkpt lat="62.5328" lon="6.34317">
        <ele>84.863209</ele>
        <time>2020-08-01T09:49:08.570Z</time>
      </trkpt>
      <trkpt lat="62.53264" lon="6.3383">
        <ele>79.783012</ele>
        <time>2020-08-01T09:49:50.581Z</time>
      </trkpt>
      <trkpt lat="62.53259" lon="6.33325">
        <ele>72.676741</ele>
        <time>2020-08-01T09:50:15.607Z</time>
      </trkpt>
      <trkpt lat="62.53259" lon="6.32879">
        <ele>80.55575</ele>
        <time>2020-08-01T09:51:42.582Z</time>
      </trkpt>
      <trkpt lat="62.53224" lon="6.32359">
        <ele>77.046141</ele>
        <time>2020-08-01T09:54:35.591Z</time>
      </trkpt>
      <trkpt lat="62.53205" lon="6.31912">
        <ele>80.909582</ele>
        <time>2020-08-01T09:55:55.583Z</time>
      </trkpt>
      <trkpt lat="62.53182" lon="6.31456">
        <ele>83.332109</ele>
        <time>2020-08-01T09:57:10.579Z</time>
      </trkpt>
      <trkpt lat="62.53174" lon="6.31022">
        <ele>81.137482</ele>
        <time>2020-08-01T09:57:52.586Z</time>
      </trkpt>
      <trkpt lat="62.53149" lon="6.30568">
        <ele>87.513998</ele>
        <time>2020-08-01T09:58:58.584Z</time>
      </trkpt>
      <trkpt lat="62.53171" lon="6.30076">
        <ele>86.371142</ele>
        <time>2020-08-01T09:59:52.576Z</time>
      </trkpt>
      <trkpt lat="62.53203" lon="6.29623">
        <ele>89.669197</ele>
        <time>2020-08-01T10:00:54.574Z</time>
      </trkpt>
      <trkpt lat="62.53273" lon="6.29222">
        <ele>95.161786</ele>
        <time>2020-08-01T10:02:16.572Z</time>
      </trkpt>
      <trkpt lat="62.53237" lon="6.28766">
        <ele>94.457619</ele>
        <time>2020-08-01T10:03:26.578Z</time>
      </trkpt>
      <trkpt lat="62.53165" lon="6.28239">
        <ele>84.020697</ele>
        <time>2020-08-01T10:04:12.572Z</time>
      </trkpt>
      <trkpt lat="62.53129" lon="6.27758">
        <ele>84.541578</ele>
        <time>2020-08-01T10:05:12.584Z</time>
      </trkpt>
      <trkpt lat="62.53253" lon="6.27403">
        <ele>82.671672</ele>
        <time>2020-08-01T10:06:08.579Z</time>
      </trkpt>
      <trkpt lat="62.53476" lon="6.27288">
        <ele>67.775276</ele>
        <time>2020-08-01T10:06:35.581Z</time>
      </trkpt>
      <trkpt lat="62.53633" lon="6.2758">
        <ele>55.473055</ele>
        <time>2020-08-01T10:06:57.577Z</time>
      </trkpt>
      <trkpt lat="62.538" lon="6.27948">
        <ele>48.940826</ele>
        <time>2020-08-01T10:07:34.595Z</time>
      </trkpt>
      <trkpt lat="62.53921" lon="6.28282">
        <ele>52.218295</ele>
        <time>2020-08-01T10:08:16.575Z</time>
      </trkpt>
      <trkpt lat="62.54083" lon="6.28642">
        <ele>55.030733</ele>
        <time>2020-08-01T10:09:13.571Z</time>
      </trkpt>
      <trkpt lat="62.54192" lon="6.29035">
        <ele>59.530308</ele>
        <time>2020-08-01T10:10:29.576Z</time>
      </trkpt>
      <trkpt lat="62.54386" lon="6.28981">
        <ele>59.750941</ele>
        <time>2020-08-01T10:11:32.579Z</time>
      </trkpt>
      <trkpt lat="62.54531" lon="6.28665">
        <ele>64.672027</ele>
        <time>2020-08-01T10:12:59.573Z</time>
      </trkpt>
      <trkpt lat="62.54618" lon="6.28268">
        <ele>67.602569</ele>
        <time>2020-08-01T10:13:54.576Z</time>
      </trkpt>
      <trkpt lat="62.54736" lon="6.27924">
        <ele>68.807542</ele>
        <time>2020-08-01T10:14:57.617Z</time>
      </trkpt>
      <trkpt lat="62.54952" lon="6.2792">
        <ele>62.665821</ele>
        <time>2020-08-01T10:15:43.610Z</time>
      </trkpt>
      <trkpt lat="62.55161" lon="6.27788">
        <ele>60.756835</ele>
        <time>2020-08-01T10:16:23.583Z</time>
      </trkpt>
      <trkpt lat="62.55352" lon="6.27562">
        <ele>58.712437</ele>
        <time>2020-08-01T10:17:03.572Z</time>
      </trkpt>
      <trkpt lat="62.55564" lon="6.27389">
        <ele>53.284198</ele>
        <time>2020-08-01T10:17:49.574Z</time>
      </trkpt>
      <trkpt lat="62.55772" lon="6.27362">
        <ele>59.316687</ele>
        <time>2020-08-01T10:19:08.587Z</time>
      </trkpt>
      <trkpt lat="62.55936" lon="6.27602">
        <ele>65.778831</ele>
        <time>2020-08-01T10:20:43.571Z</time>
      </trkpt>
      <trkpt lat="62.56092" lon="6.27952">
        <ele>63.08722</ele>
        <time>2020-08-01T10:21:32.577Z</time>
      </trkpt>
      <trkpt lat="62.5629" lon="6.27888">
        <ele>64.824789</ele>
        <time>2020-08-01T10:22:41.576Z</time>
      </trkpt>
      <trkpt lat="62.5648" lon="6.27667">
        <ele>64.924634</ele>
        <time>2020-08-01T10:23:46.582Z</time>
      </trkpt>
      <trkpt lat="62.56682" lon="6.27566">
        <ele>64.485575</ele>
        <time>2020-08-01T10:24:30.589Z</time>
      </trkpt>
      <trkpt lat="62.56868" lon="6.27445">
        <ele>60.617651</ele>
        <time>2020-08-01T10:25:16.614Z</time>
      </trkpt>
      <trkpt lat="62.57086" lon="6.27382">
        <ele>58.201783</ele>
        <time>2020-08-01T10:26:06.595Z</time>
      </trkpt>
      <trkpt lat="62.57306" lon="6.27334">
        <ele>57.065836</ele>
        <time>2020-08-01T10:26:50.618Z</time>
      </trkpt>
      <trkpt lat="62.57546" lon="6.27285">
        <ele>57.545718</ele>
        <time>2020-08-01T10:27:45.580Z</time>
      </trkpt>
      <trkpt lat="62.57766" lon="6.27132">
        <ele>59.524103</ele>
        <time>2020-08-01T10:28:39.602Z</time>
      </trkpt>
      <trkpt lat="62.57924" lon="6.2689">
        <ele>59.978806</ele>
        <time>2020-08-01T10:29:19.582Z</time>
      </trkpt>
      <trkpt lat="62.58095" lon="6.26625">
        <ele>59.031382</ele>
        <time>2020-08-01T10:30:05.588Z</time>
      </trkpt>
      <trkpt lat="62.58314" lon="6.26506">
        <ele>56.676466</ele>
        <time>2020-08-01T10:30:58.585Z</time>
      </trkpt>
      <trkpt lat="62.58518" lon="6.26705">
        <ele>53.445766</ele>
        <time>2020-08-01T10:31:48.607Z</time>
      </trkpt>
      <trkpt lat="62.58588" lon="6.2717">
        <ele>50.710707</ele>
        <time>2020-08-01T10:32:43.608Z</time>
      </trkpt>
      <trkpt lat="62.58615" lon="6.2764">
        <ele>52.075196</ele>
        <time>2020-08-01T10:33:40.675Z</time>
      </trkpt>
      <trkpt lat="62.58761" lon="6.27939">
        <ele>57.97279</ele>
        <time>2020-08-01T10:34:50.586Z</time>
      </trkpt>
      <trkpt lat="62.5895" lon="6.28138">
        <ele>60.877005</ele>
        <time>2020-08-01T10:35:50.604Z</time>
      </trkpt>
      <trkpt lat="62.59154" lon="6.28362">
        <ele>60.299046</ele>
        <time>2020-08-01T10:36:50.601Z</time>
      </trkpt>
      <trkpt lat="62.59284" lon="6.28747">
        <ele>58.134123</ele>
        <time>2020-08-01T10:37:50.600Z</time>
      </trkpt>
      <trkpt lat="62.59392" lon="6.29198">
        <ele>59.078954</ele>
        <time>2020-08-01T10:38:50.615Z</time>
      </trkpt>
      <trkpt lat="62.59467" lon="6.29635">
        <ele>61.157845</ele>
        <time>2020-08-01T10:39:55.623Z</time>
      </trkpt>
      <trkpt lat="62.59613" lon="6.29965">
        <ele>59.655138</ele>
        <time>2020-08-01T10:40:44.619Z</time>
      </trkpt>
      <trkpt lat="62.59777" lon="6.30213">
        <ele>58.917819</ele>
        <time>2020-08-01T10:41:44.629Z</time>
      </trkpt>
      <trkpt lat="62.59836" lon="6.30677">
        <ele>58.455388</ele>
        <time>2020-08-01T10:42:42.584Z</time>
      </trkpt>
      <trkpt lat="62.5987" lon="6.31123">
        <ele>58.896124</ele>
        <time>2020-08-01T10:43:42.598Z</time>
      </trkpt>
      <trkpt lat="62.60014" lon="6.31459">
        <ele>58.792526</ele>
        <time>2020-08-01T10:44:33.599Z</time>
      </trkpt>
      <trkpt lat="62.60178" lon="6.31796">
        <ele>58.415653</ele>
        <time>2020-08-01T10:45:33.609Z</time>
      </trkpt>
      <trkpt lat="62.60378" lon="6.32021">
        <ele>61.227135</ele>
        <time>2020-08-01T10:46:29.586Z</time>
      </trkpt>
      <trkpt lat="62.60551" lon="6.32269">
        <ele>59.544418</ele>
        <time>2020-08-01T10:47:31.601Z</time>
      </trkpt>
      <trkpt lat="62.60644" lon="6.32684">
        <ele>59.100674</ele>
        <time>2020-08-01T10:48:32.586Z</time>
      </trkpt>
      <trkpt lat="62.60819" lon="6.32934">
        <ele>59.918445</ele>
        <time>2020-08-01T10:49:26.606Z</time>
      </trkpt>
      <trkpt lat="62.60971" lon="6.33295">
        <ele>59.476778</ele>
        <time>2020-08-01T10:50:26.587Z</time>
      </trkpt>
      <trkpt lat="62.61114" lon="6.3366">
        <ele>59.988718</ele>
        <time>2020-08-01T10:51:29.628Z</time>
      </trkpt>
      <trkpt lat="62.61023" lon="6.34096">
        <ele>59.929029</ele>
        <time>2020-08-01T10:52:20.626Z</time>
      </trkpt>
      <trkpt lat="62.60892" lon="6.345">
        <ele>61.108517</ele>
        <time>2020-08-01T10:53:19.599Z</time>
      </trkpt>
      <trkpt lat="62.60736" lon="6.34851">
        <ele>59.960586</ele>
        <time>2020-08-01T10:54:19.634Z</time>
      </trkpt>
      <trkpt lat="62.60703" lon="6.35314">
        <ele>60.637996</ele>
        <time>2020-08-01T10:55:17.599Z</time>
      </trkpt>
      <trkpt lat="62.60683" lon="6.35775">
        <ele>62.970014</ele>
        <time>2020-08-01T10:56:19.647Z</time>
      </trkpt>
      <trkpt lat="62.60577" lon="6.36198">
        <ele>61.156676</ele>
        <time>2020-08-01T10:57:23.599Z</time>
      </trkpt>
      <trkpt lat="62.6046" lon="6.3662">
        <ele>62.327916</ele>
        <time>2020-08-01T10:58:29.621Z</time>
      </trkpt>
      <trkpt lat="62.60424" lon="6.37051">
        <ele>64.926936</ele>
        <time>2020-08-01T10:59:51.622Z</time>
      </trkpt>
      <trkpt lat="62.60432" lon="6.3749">
        <ele>65.55471</ele>
        <time>2020-08-01T11:00:51.598Z</time>
      </trkpt>
      <trkpt lat="62.60429" lon="6.37954">
        <ele>65.416973</ele>
        <time>2020-08-01T11:01:47.600Z</time>
      </trkpt>
      <trkpt lat="62.60345" lon="6.38358">
        <ele>65.209144</ele>
        <time>2020-08-01T11:02:38.613Z</time>
      </trkpt>
      <trkpt lat="62.60357" lon="6.38786">
        <ele>71.823474</ele>
        <time>2020-08-01T11:04:01.590Z</time>
      </trkpt>
      <trkpt lat="62.60426" lon="6.39187">
        <ele>73.268801</ele>
        <time>2020-08-01T11:05:20.609Z</time>
      </trkpt>
      <trkpt lat="62.60491" lon="6.396">
        <ele>72.472298</ele>
        <time>2020-08-01T11:06:21.606Z</time>
      </trkpt>
      <trkpt lat="62.6061" lon="6.40039">
        <ele>66.142655</ele>
        <time>2020-08-01T11:07:08.588Z</time>
      </trkpt>
      <trkpt lat="62.60676" lon="6.40494">
        <ele>69.608611</ele>
        <time>2020-08-01T11:10:18.632Z</time>
      </trkpt>
      <trkpt lat="62.60706" lon="6.40916">
        <ele>75.661194</ele>
        <time>2020-08-01T11:12:07.590Z</time>
      </trkpt>
      <trkpt lat="62.60763" lon="6.4137">
        <ele>76.078248</ele>
        <time>2020-08-01T11:13:00.585Z</time>
      </trkpt>
      <trkpt lat="62.60857" lon="6.41901">
        <ele>65.26605</ele>
        <time>2020-08-01T11:13:31.586Z</time>
      </trkpt>
      <trkpt lat="62.60943" lon="6.42366">
        <ele>58.01109</ele>
        <time>2020-08-01T11:14:12.604Z</time>
      </trkpt>
      <trkpt lat="62.61007" lon="6.42792">
        <ele>55.043305</ele>
        <time>2020-08-01T11:14:55.602Z</time>
      </trkpt>
      <trkpt lat="62.60979" lon="6.43218">
        <ele>65.078314</ele>
        <time>2020-08-01T11:16:28.580Z</time>
      </trkpt>
      <trkpt lat="62.60963" lon="6.43641">
        <ele>75.418977</ele>
        <time>2020-08-01T11:18:33.585Z</time>
      </trkpt>
      <trkpt lat="62.60784" lon="6.43897">
        <ele>70.683037</ele>
        <time>2020-08-01T11:19:28.636Z</time>
      </trkpt>
      <trkpt lat="62.60569" lon="6.44026">
        <ele>57.512125</ele>
        <time>2020-08-01T11:20:40.624Z</time>
      </trkpt>
      <trkpt lat="62.60617" lon="6.44122">
        <ele>59.725158</ele>
        <time>2020-08-01T11:21:43.596Z</time>
      </trkpt>
      <trkpt lat="62.60741" lon="6.44513">
        <ele>61.500147</ele>
        <time>2020-08-01T11:22:29.593Z</time>
      </trkpt>
      <trkpt lat="62.60786" lon="6.44866">
        <ele>50.502411</ele>
        <time>2020-08-01T11:55:08.932Z</time>
      </trkpt>
      <trkpt lat="62.63928" lon="6.52641">
        <ele>50.667331</ele>
        <time>2020-08-01T12:16:59.524Z</time>
      </trkpt>
      <trkpt lat="62.64003" lon="6.52392">
        <ele>48.618317</ele>
        <time>2020-08-01T12:20:46.547Z</time>
      </trkpt>
      <trkpt lat="62.6408" lon="6.52876">
        <ele>55.015704</ele>
        <time>2020-08-01T12:21:44.556Z</time>
      </trkpt>
      <trkpt lat="62.6417" lon="6.53299">
        <ele>56.284753</ele>
        <time>2020-08-01T12:22:44.551Z</time>
      </trkpt>
      <trkpt lat="62.64288" lon="6.53698">
        <ele>55.621183</ele>
        <time>2020-08-01T12:23:43.563Z</time>
      </trkpt>
      <trkpt lat="62.64394" lon="6.54107">
        <ele>52.865676</ele>
        <time>2020-08-01T12:24:25.541Z</time>
      </trkpt>
      <trkpt lat="62.64492" lon="6.54524">
        <ele>51.832858</ele>
        <time>2020-08-01T12:25:11.523Z</time>
      </trkpt>
      <trkpt lat="62.64579" lon="6.54941">
        <ele>51.148393</ele>
        <time>2020-08-01T12:25:56.517Z</time>
      </trkpt>
      <trkpt lat="62.64722" lon="6.55315">
        <ele>54.175747</ele>
        <time>2020-08-01T12:26:53.539Z</time>
      </trkpt>
      <trkpt lat="62.64835" lon="6.55701">
        <ele>53.742934</ele>
        <time>2020-08-01T12:27:36.550Z</time>
      </trkpt>
      <trkpt lat="62.64991" lon="6.55947">
        <ele>48.549563</ele>
        <time>2020-08-01T12:28:16.572Z</time>
      </trkpt>
      <trkpt lat="62.65215" lon="6.55931">
        <ele>52.389279</ele>
        <time>2020-08-01T12:29:05.564Z</time>
      </trkpt>
      <trkpt lat="62.65325" lon="6.56266">
        <ele>54.534012</ele>
        <time>2020-08-01T12:29:48.543Z</time>
      </trkpt>
      <trkpt lat="62.65224" lon="6.56694">
        <ele>53.551858</ele>
        <time>2020-08-01T12:30:37.567Z</time>
      </trkpt>
      <trkpt lat="62.65197" lon="6.57158">
        <ele>53.925</ele>
        <time>2020-08-01T12:31:24.530Z</time>
      </trkpt>
      <trkpt lat="62.65344" lon="6.57526">
        <ele>54.76525</ele>
        <time>2020-08-01T12:32:13.549Z</time>
      </trkpt>
      <trkpt lat="62.65455" lon="6.57885">
        <ele>62.201581</ele>
        <time>2020-08-01T12:33:49.519Z</time>
      </trkpt>
      <trkpt lat="62.65517" lon="6.58295">
        <ele>67.463738</ele>
        <time>2020-08-01T12:35:09.521Z</time>
      </trkpt>
      <trkpt lat="62.65579" lon="6.58689">
        <ele>72.024741</ele>
        <time>2020-08-01T12:36:31.525Z</time>
      </trkpt>
      <trkpt lat="62.65673" lon="6.59081">
        <ele>74.225957</ele>
        <time>2020-08-01T12:37:56.539Z</time>
      </trkpt>
      <trkpt lat="62.65825" lon="6.59436">
        <ele>74.472129</ele>
        <time>2020-08-01T12:38:35.526Z</time>
      </trkpt>
      <trkpt lat="62.66028" lon="6.59665">
        <ele>66.683593</ele>
        <time>2020-08-01T12:39:15.566Z</time>
      </trkpt>
      <trkpt lat="62.6593" lon="6.60061">
        <ele>67.035226</ele>
        <time>2020-08-01T12:40:05.528Z</time>
      </trkpt>
      <trkpt lat="62.65781" lon="6.60403">
        <ele>70.766357</ele>
        <time>2020-08-01T12:40:51.527Z</time>
      </trkpt>
      <trkpt lat="62.65653" lon="6.60726">
        <ele>79.322238</ele>
        <time>2020-08-01T12:42:58.522Z</time>
      </trkpt>
      <trkpt lat="62.65723" lon="6.61229">
        <ele>77.616988</ele>
        <time>2020-08-01T12:43:48.587Z</time>
      </trkpt>
      <trkpt lat="62.65711" lon="6.61716">
        <ele>75.480037</ele>
        <time>2020-08-01T12:44:27.528Z</time>
      </trkpt>
      <trkpt lat="62.65653" lon="6.62156">
        <ele>72.889654</ele>
        <time>2020-08-01T12:45:14.544Z</time>
      </trkpt>
      <trkpt lat="62.65677" lon="6.62627">
        <ele>71.377229</ele>
        <time>2020-08-01T12:46:02.528Z</time>
      </trkpt>
      <trkpt lat="62.65649" lon="6.63094">
        <ele>75.715275</ele>
        <time>2020-08-01T12:46:52.558Z</time>
      </trkpt>
      <trkpt lat="62.65647" lon="6.63518">
        <ele>78.948725</ele>
        <time>2020-08-01T12:48:04.524Z</time>
      </trkpt>
      <trkpt lat="62.65706" lon="6.63936">
        <ele>84.571932</ele>
        <time>2020-08-01T12:49:17.539Z</time>
      </trkpt>
      <trkpt lat="62.65804" lon="6.64324">
        <ele>88.747825</ele>
        <time>2020-08-01T12:50:28.541Z</time>
      </trkpt>
      <trkpt lat="62.65901" lon="6.64731">
        <ele>90.214915</ele>
        <time>2020-08-01T12:51:29.537Z</time>
      </trkpt>
      <trkpt lat="62.65995" lon="6.65139">
        <ele>95.89979</ele>
        <time>2020-08-01T12:52:39.568Z</time>
      </trkpt>
      <trkpt lat="62.66076" lon="6.65546">
        <ele>100.861856</ele>
        <time>2020-08-01T12:54:11.597Z</time>
      </trkpt>
      <trkpt lat="62.66162" lon="6.66039">
        <ele>88.912678</ele>
        <time>2020-08-01T12:54:46.525Z</time>
      </trkpt>
      <trkpt lat="62.66266" lon="6.6648">
        <ele>70.143796</ele>
        <time>2020-08-01T12:55:06.552Z</time>
      </trkpt>
      <trkpt lat="62.66472" lon="6.66377">
        <ele>55.660235</ele>
        <time>2020-08-01T12:55:30.562Z</time>
      </trkpt>
      <trkpt lat="62.66647" lon="6.66188">
        <ele>67.221364</ele>
        <time>2020-08-01T12:57:23.574Z</time>
      </trkpt>
      <trkpt lat="62.66825" lon="6.66019">
        <ele>78.740976</ele>
        <time>2020-08-01T13:01:25.559Z</time>
      </trkpt>
      <trkpt lat="62.6701" lon="6.65776">
        <ele>78.177509</ele>
        <time>2020-08-01T13:15:40.531Z</time>
      </trkpt>
      <trkpt lat="62.6708" lon="6.6543">
        <ele>69.830874</ele>
        <time>2020-08-01T13:16:14.561Z</time>
      </trkpt>
      <trkpt lat="62.67182" lon="6.65894">
        <ele>63.247494</ele>
        <time>2020-08-01T13:16:43.544Z</time>
      </trkpt>
      <trkpt lat="62.67271" lon="6.66423">
        <ele>59.39328</ele>
        <time>2020-08-01T13:17:31.530Z</time>
      </trkpt>
      <trkpt lat="62.67283" lon="6.66908">
        <ele>49.762127</ele>
        <time>2020-08-01T13:17:55.555Z</time>
      </trkpt>
      <trkpt lat="62.67395" lon="6.67365">
        <ele>49.085856</ele>
        <time>2020-08-01T13:18:43.528Z</time>
      </trkpt>
      <trkpt lat="62.67309" lon="6.67507">
        <ele>57.441781</ele>
        <time>2020-08-01T13:51:27.535Z</time>
      </trkpt>
      <trkpt lat="62.67271" lon="6.6788">
        <ele>75.951624</ele>
        <time>2020-08-01T13:53:56.532Z</time>
      </trkpt>
      <trkpt lat="62.67477" lon="6.67858">
        <ele>80.9789</ele>
        <time>2020-08-01T13:54:46.566Z</time>
      </trkpt>
      <trkpt lat="62.67697" lon="6.67774">
        <ele>80.336561</ele>
        <time>2020-08-01T13:55:33.527Z</time>
      </trkpt>
      <trkpt lat="62.67879" lon="6.67622">
        <ele>84.216699</ele>
        <time>2020-08-01T13:57:09.523Z</time>
      </trkpt>
      <trkpt lat="62.68077" lon="6.67455">
        <ele>83.088532</ele>
        <time>2020-08-01T13:58:06.528Z</time>
      </trkpt>
      <trkpt lat="62.68264" lon="6.67212">
        <ele>82.830253</ele>
        <time>2020-08-01T13:58:59.542Z</time>
      </trkpt>
      <trkpt lat="62.68469" lon="6.67259">
        <ele>86.721527</ele>
        <time>2020-08-01T13:59:57.531Z</time>
      </trkpt>
      <trkpt lat="62.68643" lon="6.67502">
        <ele>84.405647</ele>
        <time>2020-08-01T14:01:00.529Z</time>
      </trkpt>
      <trkpt lat="62.68818" lon="6.67812">
        <ele>82.222667</ele>
        <time>2020-08-01T14:01:53.525Z</time>
      </trkpt>
      <trkpt lat="62.69042" lon="6.67951">
        <ele>80.593996</ele>
        <time>2020-08-01T14:02:46.538Z</time>
      </trkpt>
      <trkpt lat="62.69202" lon="6.68187">
        <ele>79.702318</ele>
        <time>2020-08-01T14:03:36.548Z</time>
      </trkpt>
      <trkpt lat="62.69269" lon="6.68635">
        <ele>76.99695</ele>
        <time>2020-08-01T14:04:26.530Z</time>
      </trkpt>
      <trkpt lat="62.69429" lon="6.68983">
        <ele>69.582224</ele>
        <time>2020-08-01T14:04:55.529Z</time>
      </trkpt>
      <trkpt lat="62.69602" lon="6.69267">
        <ele>63.327834</ele>
        <time>2020-08-01T14:05:18.522Z</time>
      </trkpt>
      <trkpt lat="62.69757" lon="6.69754">
        <ele>53.427712</ele>
        <time>2020-08-01T14:05:48.540Z</time>
      </trkpt>
      <trkpt lat="62.69906" lon="6.69936">
        <ele>49.990201</ele>
        <time>2020-08-01T14:10:39.549Z</time>
      </trkpt>
    </trkseg>
  </trk>
  <trk>
    <name><![CDATA[Tour d'Europe: étape 035]]></name>
    <trkseg>
      <trkpt lat="62.69869" lon="6.70057">
        <ele>50.010767</ele>
        <time>2020-08-02T07:46:46.899Z</time>
      </trkpt>
      <trkpt lat="62.70016" lon="6.70437">
        <ele>53.311317</ele>
        <time>2020-08-02T07:47:37.865Z</time>
      </trkpt>
      <trkpt lat="62.70203" lon="6.70688">
        <ele>60.625888</ele>
        <time>2020-08-02T07:48:46.876Z</time>
      </trkpt>
      <trkpt lat="62.70416" lon="6.70988">
        <ele>61.520303</ele>
        <time>2020-08-02T07:50:03.874Z</time>
      </trkpt>
      <trkpt lat="62.70629" lon="6.71234">
        <ele>62.11216</ele>
        <time>2020-08-02T07:50:51.865Z</time>
      </trkpt>
      <trkpt lat="62.70834" lon="6.71524">
        <ele>62.910519</ele>
        <time>2020-08-02T07:51:41.867Z</time>
      </trkpt>
      <trkpt lat="62.71019" lon="6.71896">
        <ele>61.803485</ele>
        <time>2020-08-02T07:52:33.865Z</time>
      </trkpt>
      <trkpt lat="62.71148" lon="6.72407">
        <ele>55.582612</ele>
        <time>2020-08-02T07:53:19.860Z</time>
      </trkpt>
      <trkpt lat="62.7114" lon="6.72951">
        <ele>56.812764</ele>
        <time>2020-08-02T07:54:05.860Z</time>
      </trkpt>
      <trkpt lat="62.71157" lon="6.73401">
        <ele>81.424969</ele>
        <time>2020-08-02T07:55:50.857Z</time>
      </trkpt>
      <trkpt lat="62.71246" lon="6.7383">
        <ele>72.969148</ele>
        <time>2020-08-02T07:57:02.901Z</time>
      </trkpt>
      <trkpt lat="62.71349" lon="6.74289">
        <ele>73.330222</ele>
        <time>2020-08-02T07:57:50.876Z</time>
      </trkpt>
      <trkpt lat="62.71495" lon="6.74689">
        <ele>74.381457</ele>
        <time>2020-08-02T07:58:47.870Z</time>
      </trkpt>
      <trkpt lat="62.71676" lon="6.74965">
        <ele>78.059387</ele>
        <time>2020-08-02T07:59:53.912Z</time>
      </trkpt>
      <trkpt lat="62.71879" lon="6.75143">
        <ele>84.182577</ele>
        <time>2020-08-02T08:01:07.869Z</time>
      </trkpt>
      <trkpt lat="62.72095" lon="6.75211">
        <ele>89.678289</ele>
        <time>2020-08-02T08:02:22.890Z</time>
      </trkpt>
      <trkpt lat="62.72305" lon="6.75346">
        <ele>88.210762</ele>
        <time>2020-08-02T08:03:21.877Z</time>
      </trkpt>
      <trkpt lat="62.72499" lon="6.75665">
        <ele>80.876928</ele>
        <time>2020-08-02T08:04:03.869Z</time>
      </trkpt>
      <trkpt lat="62.72651" lon="6.75963">
        <ele>81.694933</ele>
        <time>2020-08-02T08:04:45.875Z</time>
      </trkpt>
      <trkpt lat="62.72789" lon="6.76346">
        <ele>83.179287</ele>
        <time>2020-08-02T08:05:33.865Z</time>
      </trkpt>
      <trkpt lat="62.72928" lon="6.76766">
        <ele>82.929099</ele>
        <time>2020-08-02T08:06:27.899Z</time>
      </trkpt>
      <trkpt lat="62.73035" lon="6.77215">
        <ele>82.864152</ele>
        <time>2020-08-02T08:07:12.860Z</time>
      </trkpt>
      <trkpt lat="62.73097" lon="6.77659">
        <ele>81.728803</ele>
        <time>2020-08-02T08:07:55.870Z</time>
      </trkpt>
      <trkpt lat="62.73135" lon="6.78126">
        <ele>85.906038</ele>
        <time>2020-08-02T08:08:40.880Z</time>
      </trkpt>
      <trkpt lat="62.73152" lon="6.78636">
        <ele>100.685208</ele>
        <time>2020-08-02T08:09:44.876Z</time>
      </trkpt>
      <trkpt lat="62.73167" lon="6.79086">
        <ele>93.87973</ele>
        <time>2020-08-02T08:10:28.857Z</time>
      </trkpt>
      <trkpt lat="62.73182" lon="6.7955">
        <ele>90.286709</ele>
        <time>2020-08-02T08:11:13.860Z</time>
      </trkpt>
      <trkpt lat="62.73213" lon="6.8002">
        <ele>91.711025</ele>
        <time>2020-08-02T08:11:55.870Z</time>
      </trkpt>
      <trkpt lat="62.7325" lon="6.80697">
        <ele>85.60047</ele>
        <time>2020-08-02T08:12:37.894Z</time>
      </trkpt>
      <trkpt lat="62.73285" lon="6.812">
        <ele>88.739671</ele>
        <time>2020-08-02T08:13:49.874Z</time>
      </trkpt>
      <trkpt lat="62.73264" lon="6.81725">
        <ele>90.025658</ele>
        <time>2020-08-02T08:14:55.880Z</time>
      </trkpt>
      <trkpt lat="62.73249" lon="6.82268">
        <ele>84.605583</ele>
        <time>2020-08-02T08:15:49.852Z</time>
      </trkpt>
      <trkpt lat="62.7324" lon="6.8283">
        <ele>77.764987</ele>
        <time>2020-08-02T08:16:55.864Z</time>
      </trkpt>
      <trkpt lat="62.73297" lon="6.83325">
        <ele>77.87111</ele>
        <time>2020-08-02T08:17:37.872Z</time>
      </trkpt>
      <trkpt lat="62.73441" lon="6.83852">
        <ele>70.683579</ele>
        <time>2020-08-02T08:18:12.894Z</time>
      </trkpt>
      <trkpt lat="62.73608" lon="6.84288">
        <ele>60.574139</ele>
        <time>2020-08-02T08:18:45.860Z</time>
      </trkpt>
      <trkpt lat="62.73728" lon="6.84771">
        <ele>57.744247</ele>
        <time>2020-08-02T08:19:27.877Z</time>
      </trkpt>
      <trkpt lat="62.73829" lon="6.85306">
        <ele>60.37677</ele>
        <time>2020-08-02T08:20:10.862Z</time>
      </trkpt>
      <trkpt lat="62.73911" lon="6.85803">
        <ele>59.385437</ele>
        <time>2020-08-02T08:20:55.875Z</time>
      </trkpt>
      <trkpt lat="62.7399" lon="6.86277">
        <ele>59.037683</ele>
        <time>2020-08-02T08:21:38.855Z</time>
      </trkpt>
      <trkpt lat="62.74083" lon="6.86727">
        <ele>71.320159</ele>
        <time>2020-08-02T08:22:58.872Z</time>
      </trkpt>
      <trkpt lat="62.74223" lon="6.8709">
        <ele>77.386511</ele>
        <time>2020-08-02T08:24:26.851Z</time>
      </trkpt>
      <trkpt lat="62.74274" lon="6.87636">
        <ele>73.34798</ele>
        <time>2020-08-02T08:25:19.902Z</time>
      </trkpt>
      <trkpt lat="62.74332" lon="6.88142">
        <ele>67.272196</ele>
        <time>2020-08-02T08:25:46.861Z</time>
      </trkpt>
      <trkpt lat="62.74412" lon="6.88659">
        <ele>60.412656</ele>
        <time>2020-08-02T08:26:32.902Z</time>
      </trkpt>
      <trkpt lat="62.74471" lon="6.89186">
        <ele>60.097947</ele>
        <time>2020-08-02T08:27:16.866Z</time>
      </trkpt>
      <trkpt lat="62.74526" lon="6.89666">
        <ele>64.669498</ele>
        <time>2020-08-02T08:27:59.865Z</time>
      </trkpt>
      <trkpt lat="62.74605" lon="6.90235">
        <ele>61.573166</ele>
        <time>2020-08-02T08:28:41.869Z</time>
      </trkpt>
      <trkpt lat="62.74581" lon="6.90709">
        <ele>69.799017</ele>
        <time>2020-08-02T08:30:05.868Z</time>
      </trkpt>
      <trkpt lat="62.74576" lon="6.91151">
        <ele>94.484001</ele>
        <time>2020-08-02T08:31:53.862Z</time>
      </trkpt>
      <trkpt lat="62.74629" lon="6.91594">
        <ele>100.689152</ele>
        <time>2020-08-02T08:34:27.873Z</time>
      </trkpt>
      <trkpt lat="62.74547" lon="6.92003">
        <ele>95.86695</ele>
        <time>2020-08-02T08:35:53.874Z</time>
      </trkpt>
      <trkpt lat="62.7429" lon="6.92128">
        <ele>91.030347</ele>
        <time>2020-08-02T08:36:24.894Z</time>
      </trkpt>
      <trkpt lat="62.74114" lon="6.92626">
        <ele>85.720738</ele>
        <time>2020-08-02T08:37:07.864Z</time>
      </trkpt>
      <trkpt lat="62.73911" lon="6.92751">
        <ele>94.038958</ele>
        <time>2020-08-02T08:38:13.891Z</time>
      </trkpt>
      <trkpt lat="62.73699" lon="6.92779">
        <ele>96.023412</ele>
        <time>2020-08-02T08:39:54.880Z</time>
      </trkpt>
      <trkpt lat="62.73446" lon="6.92947">
        <ele>93.023613</ele>
        <time>2020-08-02T08:40:47.869Z</time>
      </trkpt>
      <trkpt lat="62.73284" lon="6.93257">
        <ele>100.094163</ele>
        <time>2020-08-02T08:41:55.886Z</time>
      </trkpt>
      <trkpt lat="62.73089" lon="6.93372">
        <ele>99.262945</ele>
        <time>2020-08-02T08:43:35.883Z</time>
      </trkpt>
      <trkpt lat="62.72878" lon="6.932">
        <ele>85.897057</ele>
        <time>2020-08-02T08:43:57.874Z</time>
      </trkpt>
      <trkpt lat="62.72633" lon="6.93228">
        <ele>72.582233</ele>
        <time>2020-08-02T08:44:18.892Z</time>
      </trkpt>
      <trkpt lat="62.72394" lon="6.93417">
        <ele>59.298582</ele>
        <time>2020-08-02T08:44:41.916Z</time>
      </trkpt>
      <trkpt lat="62.72133" lon="6.93567">
        <ele>54.952</ele>
        <time>2020-08-02T08:45:16.863Z</time>
      </trkpt>
      <trkpt lat="62.71925" lon="6.93788">
        <ele>63.362243</ele>
        <time>2020-08-02T09:11:17.831Z</time>
      </trkpt>
      <trkpt lat="62.71898" lon="6.94345">
        <ele>71.050035</ele>
        <time>2020-08-02T09:13:20.851Z</time>
      </trkpt>
      <trkpt lat="62.72017" lon="6.94776">
        <ele>67.542855</ele>
        <time>2020-08-02T09:14:15.857Z</time>
      </trkpt>
      <trkpt lat="62.7292" lon="6.98969">
        <ele>62.173522</ele>
        <time>2020-08-02T09:26:36.660Z</time>
      </trkpt>
      <trkpt lat="62.73022" lon="6.99405">
        <ele>68.104607</ele>
        <time>2020-08-02T09:27:41.663Z</time>
      </trkpt>
      <trkpt lat="62.73087" lon="6.99835">
        <ele>81.595965</ele>
        <time>2020-08-02T09:29:11.654Z</time>
      </trkpt>
      <trkpt lat="62.73018" lon="7.00292">
        <ele>92.647788</ele>
        <time>2020-08-02T09:30:52.676Z</time>
      </trkpt>
      <trkpt lat="62.72964" lon="7.0074">
        <ele>91.60391</ele>
        <time>2020-08-02T09:32:19.669Z</time>
      </trkpt>
      <trkpt lat="62.72985" lon="7.01207">
        <ele>109.248315</ele>
        <time>2020-08-02T09:35:55.675Z</time>
      </trkpt>
      <trkpt lat="62.73179" lon="7.01142">
        <ele>113.023917</ele>
        <time>2020-08-02T09:37:02.655Z</time>
      </trkpt>
      <trkpt lat="62.73262" lon="7.00622">
        <ele>97.822896</ele>
        <time>2020-08-02T09:37:42.678Z</time>
      </trkpt>
      <trkpt lat="62.73245" lon="7.00119">
        <ele>95.396423</ele>
        <time>2020-08-02T09:38:26.663Z</time>
      </trkpt>
      <trkpt lat="62.7321" lon="6.99586">
        <ele>94.220476</ele>
        <time>2020-08-02T09:39:08.691Z</time>
      </trkpt>
      <trkpt lat="62.7319" lon="6.99053">
        <ele>95.751089</ele>
        <time>2020-08-02T09:39:50.658Z</time>
      </trkpt>
      <trkpt lat="62.73188" lon="6.98553">
        <ele>100.231981</ele>
        <time>2020-08-02T09:40:51.654Z</time>
      </trkpt>
      <trkpt lat="62.73418" lon="6.98615">
        <ele>94.150665</ele>
        <time>2020-08-02T09:41:37.697Z</time>
      </trkpt>
      <trkpt lat="62.73687" lon="6.98778">
        <ele>82.071614</ele>
        <time>2020-08-02T09:42:21.663Z</time>
      </trkpt>
      <trkpt lat="62.73959" lon="6.98983">
        <ele>80.692935</ele>
        <time>2020-08-02T09:43:03.666Z</time>
      </trkpt>
      <trkpt lat="62.74166" lon="6.99179">
        <ele>85.74369</ele>
        <time>2020-08-02T09:43:45.650Z</time>
      </trkpt>
      <trkpt lat="62.74398" lon="6.99293">
        <ele>88.571624</ele>
        <time>2020-08-02T09:44:31.674Z</time>
      </trkpt>
      <trkpt lat="62.74563" lon="6.99593">
        <ele>97.096342</ele>
        <time>2020-08-02T09:45:49.686Z</time>
      </trkpt>
      <trkpt lat="62.7477" lon="6.99652">
        <ele>105.320562</ele>
        <time>2020-08-02T09:47:09.662Z</time>
      </trkpt>
      <trkpt lat="62.74996" lon="6.9948">
        <ele>97.464883</ele>
        <time>2020-08-02T09:47:55.692Z</time>
      </trkpt>
      <trkpt lat="62.75237" lon="6.99427">
        <ele>94.917187</ele>
        <time>2020-08-02T09:48:51.680Z</time>
      </trkpt>
      <trkpt lat="62.75426" lon="6.99653">
        <ele>94.868234</ele>
        <time>2020-08-02T09:49:35.671Z</time>
      </trkpt>
      <trkpt lat="62.75577" lon="6.9993">
        <ele>90.934097</ele>
        <time>2020-08-02T09:50:33.684Z</time>
      </trkpt>
      <trkpt lat="62.75792" lon="7.00111">
        <ele>94.421078</ele>
        <time>2020-08-02T09:51:41.677Z</time>
      </trkpt>
      <trkpt lat="62.76037" lon="7.00064">
        <ele>96.074735</ele>
        <time>2020-08-02T09:52:46.676Z</time>
      </trkpt>
      <trkpt lat="62.76303" lon="6.99892">
        <ele>87.727834</ele>
        <time>2020-08-02T09:53:28.674Z</time>
      </trkpt>
      <trkpt lat="62.76512" lon="6.99659">
        <ele>87.34483</ele>
        <time>2020-08-02T09:54:22.677Z</time>
      </trkpt>
      <trkpt lat="62.76742" lon="6.99477">
        <ele>84.509821</ele>
        <time>2020-08-02T09:55:09.681Z</time>
      </trkpt>
      <trkpt lat="62.76951" lon="6.99363">
        <ele>82.609477</ele>
        <time>2020-08-02T09:55:52.674Z</time>
      </trkpt>
      <trkpt lat="62.77157" lon="6.99271">
        <ele>89.208306</ele>
        <time>2020-08-02T09:57:13.667Z</time>
      </trkpt>
      <trkpt lat="62.77314" lon="6.99222">
        <ele>92.257804</ele>
        <time>2020-08-02T09:58:32.671Z</time>
      </trkpt>
      <trkpt lat="62.77541" lon="6.99179">
        <ele>84.303724</ele>
        <time>2020-08-02T09:59:23.662Z</time>
      </trkpt>
      <trkpt lat="62.7775" lon="6.99227">
        <ele>86.340373</ele>
        <time>2020-08-02T10:01:53.705Z</time>
      </trkpt>
      <trkpt lat="62.77937" lon="6.99458">
        <ele>91.526161</ele>
        <time>2020-08-02T10:03:05.675Z</time>
      </trkpt>
      <trkpt lat="62.7809" lon="6.99791">
        <ele>97.465636</ele>
        <time>2020-08-02T10:04:23.673Z</time>
      </trkpt>
      <trkpt lat="62.78272" lon="7.00278">
        <ele>90.680975</ele>
        <time>2020-08-02T10:05:10.656Z</time>
      </trkpt>
      <trkpt lat="62.7841" lon="7.00691">
        <ele>91.360431</ele>
        <time>2020-08-02T10:06:07.659Z</time>
      </trkpt>
      <trkpt lat="62.78569" lon="7.0108">
        <ele>94.388091</ele>
        <time>2020-08-02T10:06:59.664Z</time>
      </trkpt>
      <trkpt lat="62.78723" lon="7.0135">
        <ele>91.708014</ele>
        <time>2020-08-02T10:07:51.692Z</time>
      </trkpt>
      <trkpt lat="62.78937" lon="7.01154">
        <ele>92.292419</ele>
        <time>2020-08-02T10:08:51.672Z</time>
      </trkpt>
      <trkpt lat="62.791" lon="7.00799">
        <ele>92.138189</ele>
        <time>2020-08-02T10:10:03.657Z</time>
      </trkpt>
      <trkpt lat="62.79274" lon="7.00406">
        <ele>94.282377</ele>
        <time>2020-08-02T10:11:06.658Z</time>
      </trkpt>
      <trkpt lat="62.79415" lon="6.99976">
        <ele>100.109503</ele>
        <time>2020-08-02T10:12:06.706Z</time>
      </trkpt>
      <trkpt lat="62.79518" lon="6.9949">
        <ele>100.542057</ele>
        <time>2020-08-02T10:13:03.674Z</time>
      </trkpt>
      <trkpt lat="62.79693" lon="6.99433">
        <ele>96.865754</ele>
        <time>2020-08-02T10:13:49.675Z</time>
      </trkpt>
      <trkpt lat="62.79911" lon="6.99619">
        <ele>100.527768</ele>
        <time>2020-08-02T10:15:09.676Z</time>
      </trkpt>
      <trkpt lat="62.80011" lon="7.00139">
        <ele>92.486966</ele>
        <time>2020-08-02T10:15:57.667Z</time>
      </trkpt>
      <trkpt lat="62.80201" lon="7.00485">
        <ele>89.017171</ele>
        <time>2020-08-02T10:16:38.674Z</time>
      </trkpt>
      <trkpt lat="62.80422" lon="7.00856">
        <ele>83.08607</ele>
        <time>2020-08-02T10:17:24.671Z</time>
      </trkpt>
      <trkpt lat="62.80623" lon="7.01248">
        <ele>75.44006</ele>
        <time>2020-08-02T10:18:01.686Z</time>
      </trkpt>
      <trkpt lat="62.80863" lon="7.0145">
        <ele>66.040389</ele>
        <time>2020-08-02T10:18:30.686Z</time>
      </trkpt>
      <trkpt lat="62.81067" lon="7.01745">
        <ele>56.4843</ele>
        <time>2020-08-02T10:18:55.673Z</time>
      </trkpt>
      <trkpt lat="62.81213" lon="7.02097">
        <ele>54.389093</ele>
        <time>2020-08-02T10:19:37.675Z</time>
      </trkpt>
      <trkpt lat="62.81394" lon="7.02428">
        <ele>54.427578</ele>
        <time>2020-08-02T10:20:21.657Z</time>
      </trkpt>
      <trkpt lat="62.81507" lon="7.02835">
        <ele>56.42933</ele>
        <time>2020-08-02T10:21:16.712Z</time>
      </trkpt>
      <trkpt lat="62.81614" lon="7.03239">
        <ele>61.603314</ele>
        <time>2020-08-02T10:22:20.681Z</time>
      </trkpt>
      <trkpt lat="62.81632" lon="7.03827">
        <ele>55.789494</ele>
        <time>2020-08-02T10:23:24.675Z</time>
      </trkpt>
      <trkpt lat="62.81644" lon="7.04423">
        <ele>51.28482</ele>
        <time>2020-08-02T10:24:01.698Z</time>
      </trkpt>
      <trkpt lat="62.81708" lon="7.04908">
        <ele>55.897837</ele>
        <time>2020-08-02T10:25:03.686Z</time>
      </trkpt>
      <trkpt lat="62.81729" lon="7.05379">
        <ele>63.650379</ele>
        <time>2020-08-02T10:26:31.658Z</time>
      </trkpt>
      <trkpt lat="62.81753" lon="7.05878">
        <ele>68.129656</ele>
        <time>2020-08-02T10:27:48.675Z</time>
      </trkpt>
      <trkpt lat="62.81778" lon="7.06359">
        <ele>66.139576</ele>
        <time>2020-08-02T10:28:32.661Z</time>
      </trkpt>
      <trkpt lat="62.81648" lon="7.06815">
        <ele>60.972004</ele>
        <time>2020-08-02T10:29:11.662Z</time>
      </trkpt>
      <trkpt lat="62.81585" lon="7.07292">
        <ele>65.199577</ele>
        <time>2020-08-02T10:30:08.728Z</time>
      </trkpt>
      <trkpt lat="62.8149" lon="7.0783">
        <ele>56.40488</ele>
        <time>2020-08-02T10:30:48.660Z</time>
      </trkpt>
      <trkpt lat="62.81467" lon="7.08373">
        <ele>52.674022</ele>
        <time>2020-08-02T10:31:23.661Z</time>
      </trkpt>
      <trkpt lat="62.81612" lon="7.08799">
        <ele>55.156436</ele>
        <time>2020-08-02T10:32:08.669Z</time>
      </trkpt>
      <trkpt lat="62.81754" lon="7.09177">
        <ele>54.803642</ele>
        <time>2020-08-02T10:32:55.660Z</time>
      </trkpt>
      <trkpt lat="62.8179" lon="7.097">
        <ele>51.465922</ele>
        <time>2020-08-02T10:33:56.674Z</time>
      </trkpt>
      <trkpt lat="62.81656" lon="7.10134">
        <ele>50.789259</ele>
        <time>2020-08-02T10:34:46.666Z</time>
      </trkpt>
      <trkpt lat="62.81449" lon="7.10131">
        <ele>53.595442</ele>
        <time>2020-08-02T10:35:34.679Z</time>
      </trkpt>
      <trkpt lat="62.81271" lon="7.10298">
        <ele>56.947017</ele>
        <time>2020-08-02T10:36:44.689Z</time>
      </trkpt>
      <trkpt lat="62.81289" lon="7.10787">
        <ele>66.826713</ele>
        <time>2020-08-02T10:38:21.671Z</time>
      </trkpt>
      <trkpt lat="62.8131" lon="7.11227">
        <ele>79.513356</ele>
        <time>2020-08-02T10:40:33.657Z</time>
      </trkpt>
      <trkpt lat="62.81338" lon="7.11717">
        <ele>81.560701</ele>
        <time>2020-08-02T10:41:56.684Z</time>
      </trkpt>
      <trkpt lat="62.81398" lon="7.12216">
        <ele>85.471569</ele>
        <time>2020-08-02T10:43:02.667Z</time>
      </trkpt>
      <trkpt lat="62.81452" lon="7.12684">
        <ele>90.37277</ele>
        <time>2020-08-02T10:44:10.673Z</time>
      </trkpt>
      <trkpt lat="62.81534" lon="7.13166">
        <ele>89.151921</ele>
        <time>2020-08-02T10:45:04.666Z</time>
      </trkpt>
      <trkpt lat="62.81629" lon="7.13616">
        <ele>95.414903</ele>
        <time>2020-08-02T10:46:20.665Z</time>
      </trkpt>
      <trkpt lat="62.81717" lon="7.14036">
        <ele>100.52297</ele>
        <time>2020-08-02T10:47:27.678Z</time>
      </trkpt>
      <trkpt lat="62.81764" lon="7.14567">
        <ele>101.143966</ele>
        <time>2020-08-02T10:48:34.677Z</time>
      </trkpt>
      <trkpt lat="62.81737" lon="7.15067">
        <ele>99.192433</ele>
        <time>2020-08-02T10:49:30.710Z</time>
      </trkpt>
      <trkpt lat="62.81412" lon="7.15221">
        <ele>87.587632</ele>
        <time>2020-08-02T10:50:14.708Z</time>
      </trkpt>
      <trkpt lat="62.81181" lon="7.15359">
        <ele>78.795028</ele>
        <time>2020-08-02T10:50:38.671Z</time>
      </trkpt>
      <trkpt lat="62.80972" lon="7.15509">
        <ele>70.677336</ele>
        <time>2020-08-02T10:50:59.670Z</time>
      </trkpt>
      <trkpt lat="62.80758" lon="7.15799">
        <ele>60.194072</ele>
        <time>2020-08-02T10:51:21.657Z</time>
      </trkpt>
      <trkpt lat="62.80595" lon="7.16161">
        <ele>51.466334</ele>
        <time>2020-08-02T10:51:42.665Z</time>
      </trkpt>
      <trkpt lat="62.80432" lon="7.16667">
        <ele>48.031275</ele>
        <time>2020-08-02T10:52:24.684Z</time>
      </trkpt>
      <trkpt lat="62.80343" lon="7.17161">
        <ele>50.155333</ele>
        <time>2020-08-02T10:53:17.685Z</time>
      </trkpt>
      <trkpt lat="62.80308" lon="7.17646">
        <ele>49.81896</ele>
        <time>2020-08-02T10:54:05.679Z</time>
      </trkpt>
      <trkpt lat="62.80274" lon="7.18124">
        <ele>52.009721</ele>
        <time>2020-08-02T10:54:52.685Z</time>
      </trkpt>
      <trkpt lat="62.80255" lon="7.18576">
        <ele>60.515102</ele>
        <time>2020-08-02T10:56:14.685Z</time>
      </trkpt>
      <trkpt lat="62.80262" lon="7.19064">
        <ele>61.418606</ele>
        <time>2020-08-02T10:57:13.673Z</time>
      </trkpt>
      <trkpt lat="62.80313" lon="7.19691">
        <ele>52.819488</ele>
        <time>2020-08-02T10:57:57.663Z</time>
      </trkpt>
      <trkpt lat="62.80396" lon="7.20246">
        <ele>50.662261</ele>
        <time>2020-08-02T10:58:39.674Z</time>
      </trkpt>
      <trkpt lat="62.80469" lon="7.2072">
        <ele>58.86475</ele>
        <time>2020-08-02T10:59:42.697Z</time>
      </trkpt>
      <trkpt lat="62.80541" lon="7.21156">
        <ele>64.764306</ele>
        <time>2020-08-02T11:00:46.700Z</time>
      </trkpt>
      <trkpt lat="62.80601" lon="7.21679">
        <ele>60.966981</ele>
        <time>2020-08-02T11:01:36.689Z</time>
      </trkpt>
      <trkpt lat="62.80592" lon="7.22236">
        <ele>55.814546</ele>
        <time>2020-08-02T11:02:32.699Z</time>
      </trkpt>
      <trkpt lat="62.80498" lon="7.22669">
        <ele>55.44229</ele>
        <time>2020-08-02T11:03:31.717Z</time>
      </trkpt>
      <trkpt lat="62.80324" lon="7.22998">
        <ele>58.752248</ele>
        <time>2020-08-02T11:04:26.674Z</time>
      </trkpt>
      <trkpt lat="62.80258" lon="7.23425">
        <ele>73.548838</ele>
        <time>2020-08-02T11:06:53.673Z</time>
      </trkpt>
      <trkpt lat="62.80318" lon="7.2384">
        <ele>78.003084</ele>
        <time>2020-08-02T11:08:47.704Z</time>
      </trkpt>
      <trkpt lat="62.80527" lon="7.24155">
        <ele>68.749465</ele>
        <time>2020-08-02T11:09:31.680Z</time>
      </trkpt>
      <trkpt lat="62.80619" lon="7.24543">
        <ele>71.797634</ele>
        <time>2020-08-02T11:11:10.692Z</time>
      </trkpt>
      <trkpt lat="62.80806" lon="7.24661">
        <ele>80.820661</ele>
        <time>2020-08-02T11:13:05.692Z</time>
      </trkpt>
      <trkpt lat="62.81023" lon="7.24624">
        <ele>87.492082</ele>
        <time>2020-08-02T11:14:16.666Z</time>
      </trkpt>
      <trkpt lat="62.81225" lon="7.24614">
        <ele>98.215129</ele>
        <time>2020-08-02T11:16:45.670Z</time>
      </trkpt>
      <trkpt lat="62.81422" lon="7.24412">
        <ele>101.469683</ele>
        <time>2020-08-02T11:18:04.713Z</time>
      </trkpt>
      <trkpt lat="62.81615" lon="7.24118">
        <ele>102.369743</ele>
        <time>2020-08-02T11:19:11.677Z</time>
      </trkpt>
      <trkpt lat="62.81764" lon="7.23803">
        <ele>99.2602</ele>
        <time>2020-08-02T11:20:16.670Z</time>
      </trkpt>
      <trkpt lat="62.81987" lon="7.23695">
        <ele>100.545557</ele>
        <time>2020-08-02T11:21:33.683Z</time>
      </trkpt>
      <trkpt lat="62.82202" lon="7.23766">
        <ele>103.49256</ele>
        <time>2020-08-02T11:22:36.687Z</time>
      </trkpt>
      <trkpt lat="62.82426" lon="7.23704">
        <ele>99.80542</ele>
        <time>2020-08-02T11:23:34.687Z</time>
      </trkpt>
      <trkpt lat="62.82746" lon="7.23595">
        <ele>89.487261</ele>
        <time>2020-08-02T11:24:18.679Z</time>
      </trkpt>
      <trkpt lat="62.83024" lon="7.23504">
        <ele>79.91257</ele>
        <time>2020-08-02T11:25:00.673Z</time>
      </trkpt>
      <trkpt lat="62.83301" lon="7.23459">
        <ele>73.301721</ele>
        <time>2020-08-02T11:25:42.704Z</time>
      </trkpt>
      <trkpt lat="62.83518" lon="7.23517">
        <ele>78.906624</ele>
        <time>2020-08-02T11:27:35.699Z</time>
      </trkpt>
      <trkpt lat="62.83708" lon="7.23706">
        <ele>81.80182</ele>
        <time>2020-08-02T11:48:06.558Z</time>
      </trkpt>
      <trkpt lat="62.83906" lon="7.23478">
        <ele>81.525929</ele>
        <time>2020-08-02T11:49:20.552Z</time>
      </trkpt>
      <trkpt lat="62.84124" lon="7.2315">
        <ele>73.346203</ele>
        <time>2020-08-02T11:50:01.545Z</time>
      </trkpt>
      <trkpt lat="62.84311" lon="7.2288">
        <ele>73.567199</ele>
        <time>2020-08-02T11:51:15.529Z</time>
      </trkpt>
      <trkpt lat="62.84514" lon="7.22652">
        <ele>74.986395</ele>
        <time>2020-08-02T11:52:22.530Z</time>
      </trkpt>
      <trkpt lat="62.84694" lon="7.22346">
        <ele>77.065668</ele>
        <time>2020-08-02T11:53:20.547Z</time>
      </trkpt>
      <trkpt lat="62.84884" lon="7.22077">
        <ele>81.191986</ele>
        <time>2020-08-02T11:54:20.557Z</time>
      </trkpt>
      <trkpt lat="62.85044" lon="7.21732">
        <ele>86.062562</ele>
        <time>2020-08-02T11:55:26.541Z</time>
      </trkpt>
      <trkpt lat="62.85186" lon="7.21301">
        <ele>84.684716</ele>
        <time>2020-08-02T11:56:24.564Z</time>
      </trkpt>
      <trkpt lat="62.85318" lon="7.20737">
        <ele>74.727522</ele>
        <time>2020-08-02T11:57:08.540Z</time>
      </trkpt>
      <trkpt lat="62.85412" lon="7.20241">
        <ele>68.248961</ele>
        <time>2020-08-02T11:57:44.562Z</time>
      </trkpt>
      <trkpt lat="62.85518" lon="7.19777">
        <ele>70.948319</ele>
        <time>2020-08-02T11:58:38.514Z</time>
      </trkpt>
      <trkpt lat="62.85578" lon="7.19203">
        <ele>73.131014</ele>
        <time>2020-08-02T11:59:44.544Z</time>
      </trkpt>
      <trkpt lat="62.85555" lon="7.18693">
        <ele>73.578565</ele>
        <time>2020-08-02T12:00:50.523Z</time>
      </trkpt>
      <trkpt lat="62.85524" lon="7.18235">
        <ele>76.648829</ele>
        <time>2020-08-02T12:01:53.538Z</time>
      </trkpt>
      <trkpt lat="62.85476" lon="7.17741">
        <ele>81.977504</ele>
        <time>2020-08-02T12:03:20.523Z</time>
      </trkpt>
      <trkpt lat="62.85417" lon="7.17285">
        <ele>86.848014</ele>
        <time>2020-08-02T12:04:33.572Z</time>
      </trkpt>
      <trkpt lat="62.85404" lon="7.16716">
        <ele>87.228384</ele>
        <time>2020-08-02T12:05:39.552Z</time>
      </trkpt>
      <trkpt lat="62.85377" lon="7.16224">
        <ele>88.460683</ele>
        <time>2020-08-02T12:06:45.554Z</time>
      </trkpt>
      <trkpt lat="62.8535" lon="7.15686">
        <ele>86.444583</ele>
        <time>2020-08-02T12:07:48.532Z</time>
      </trkpt>
      <trkpt lat="62.85351" lon="7.15166">
        <ele>88.475417</ele>
        <time>2020-08-02T12:08:52.569Z</time>
      </trkpt>
      <trkpt lat="62.85384" lon="7.14616">
        <ele>85.525607</ele>
        <time>2020-08-02T12:09:52.533Z</time>
      </trkpt>
      <trkpt lat="62.85404" lon="7.14086">
        <ele>84.719385</ele>
        <time>2020-08-02T12:10:46.544Z</time>
      </trkpt>
      <trkpt lat="62.85429" lon="7.13547">
        <ele>85.030197</ele>
        <time>2020-08-02T12:11:49.551Z</time>
      </trkpt>
      <trkpt lat="62.85322" lon="7.1304">
        <ele>76.981121</ele>
        <time>2020-08-02T12:12:52.541Z</time>
      </trkpt>
      <trkpt lat="62.85245" lon="7.12596">
        <ele>78.288499</ele>
        <time>2020-08-02T12:13:38.552Z</time>
      </trkpt>
      <trkpt lat="62.85219" lon="7.12132">
        <ele>85.812348</ele>
        <time>2020-08-02T12:14:53.564Z</time>
      </trkpt>
      <trkpt lat="62.85156" lon="7.11624">
        <ele>89.029551</ele>
        <time>2020-08-02T12:16:02.536Z</time>
      </trkpt>
      <trkpt lat="62.85072" lon="7.11065">
        <ele>79.458582</ele>
        <time>2020-08-02T12:16:50.568Z</time>
      </trkpt>
      <trkpt lat="62.84991" lon="7.10579">
        <ele>75.310883</ele>
        <time>2020-08-02T12:20:58.550Z</time>
      </trkpt>
      <trkpt lat="62.84895" lon="7.10159">
        <ele>74.844686</ele>
        <time>2020-08-02T12:21:43.544Z</time>
      </trkpt>
      <trkpt lat="62.84815" lon="7.09728">
        <ele>80.576788</ele>
        <time>2020-08-02T12:22:34.573Z</time>
      </trkpt>
      <trkpt lat="62.84761" lon="7.09273">
        <ele>84.436857</ele>
        <time>2020-08-02T12:23:40.556Z</time>
      </trkpt>
      <trkpt lat="62.84709" lon="7.08739">
        <ele>82.299716</ele>
        <time>2020-08-02T12:24:35.586Z</time>
      </trkpt>
      <trkpt lat="62.84617" lon="7.08214">
        <ele>80.476748</ele>
        <time>2020-08-02T12:25:18.565Z</time>
      </trkpt>
      <trkpt lat="62.84485" lon="7.07817">
        <ele>84.029433</ele>
        <time>2020-08-02T12:26:28.561Z</time>
      </trkpt>
      <trkpt lat="62.84324" lon="7.07338">
        <ele>85.389729</ele>
        <time>2020-08-02T12:27:19.546Z</time>
      </trkpt>
      <trkpt lat="62.84188" lon="7.06935">
        <ele>93.401363</ele>
        <time>2020-08-02T12:28:26.547Z</time>
      </trkpt>
      <trkpt lat="62.84103" lon="7.06445">
        <ele>89.60634</ele>
        <time>2020-08-02T12:29:22.552Z</time>
      </trkpt>
      <trkpt lat="62.84047" lon="7.05862">
        <ele>80.816596</ele>
        <time>2020-08-02T12:30:04.543Z</time>
      </trkpt>
      <trkpt lat="62.83994" lon="7.05386">
        <ele>81.967229</ele>
        <time>2020-08-02T12:30:49.533Z</time>
      </trkpt>
      <trkpt lat="62.83936" lon="7.04793">
        <ele>75.78192</ele>
        <time>2020-08-02T12:31:31.542Z</time>
      </trkpt>
      <trkpt lat="62.83975" lon="7.04174">
        <ele>64.805132</ele>
        <time>2020-08-02T12:32:08.549Z</time>
      </trkpt>
      <trkpt lat="62.84121" lon="7.03584">
        <ele>52.762097</ele>
        <time>2020-08-02T12:32:46.534Z</time>
      </trkpt>
      <trkpt lat="62.84251" lon="7.03144">
        <ele>56.823958</ele>
        <time>2020-08-02T12:34:01.560Z</time>
      </trkpt>
      <trkpt lat="62.84375" lon="7.02809">
        <ele>63.600253</ele>
        <time>2020-08-02T12:35:10.548Z</time>
      </trkpt>
      <trkpt lat="62.84583" lon="7.02548">
        <ele>69.912314</ele>
        <time>2020-08-02T12:36:31.581Z</time>
      </trkpt>
      <trkpt lat="62.84858" lon="7.02233">
        <ele>60.523581</ele>
        <time>2020-08-02T12:37:13.540Z</time>
      </trkpt>
      <trkpt lat="62.85103" lon="7.01955">
        <ele>56.855793</ele>
        <time>2020-08-02T12:37:55.548Z</time>
      </trkpt>
      <trkpt lat="62.85311" lon="7.01716">
        <ele>60.152771</ele>
        <time>2020-08-02T12:38:57.543Z</time>
      </trkpt>
      <trkpt lat="62.85491" lon="7.01517">
        <ele>65.058828</ele>
        <time>2020-08-02T12:40:00.548Z</time>
      </trkpt>
      <trkpt lat="62.85696" lon="7.01419">
        <ele>63.160128</ele>
        <time>2020-08-02T12:41:04.550Z</time>
      </trkpt>
      <trkpt lat="62.85945" lon="7.01407">
        <ele>65.003232</ele>
        <time>2020-08-02T12:42:04.551Z</time>
      </trkpt>
      <trkpt lat="62.86186" lon="7.01387">
        <ele>62.666511</ele>
        <time>2020-08-02T12:42:52.563Z</time>
      </trkpt>
      <trkpt lat="62.86416" lon="7.01385">
        <ele>69.0779</ele>
        <time>2020-08-02T12:44:09.560Z</time>
      </trkpt>
      <trkpt lat="62.86626" lon="7.01383">
        <ele>73.601252</ele>
        <time>2020-08-02T12:45:19.544Z</time>
      </trkpt>
      <trkpt lat="62.86847" lon="7.0138">
        <ele>81.393077</ele>
        <time>2020-08-02T12:46:42.547Z</time>
      </trkpt>
      <trkpt lat="62.8707" lon="7.01335">
        <ele>78.892382</ele>
        <time>2020-08-02T12:47:28.552Z</time>
      </trkpt>
      <trkpt lat="62.87319" lon="7.0099">
        <ele>74.141681</ele>
        <time>2020-08-02T12:48:10.561Z</time>
      </trkpt>
      <trkpt lat="62.87446" lon="7.00606">
        <ele>67.340185</ele>
        <time>2020-08-02T12:48:52.563Z</time>
      </trkpt>
      <trkpt lat="62.87581" lon="7.0023">
        <ele>57.995163</ele>
        <time>2020-08-02T12:49:38.560Z</time>
      </trkpt>
      <trkpt lat="62.8763" lon="6.99735">
        <ele>55.229281</ele>
        <time>2020-08-02T12:50:21.550Z</time>
      </trkpt>
      <trkpt lat="62.87644" lon="6.9914">
        <ele>59.342005</ele>
        <time>2020-08-02T12:51:11.570Z</time>
      </trkpt>
      <trkpt lat="62.87656" lon="6.98675">
        <ele>64.698829</ele>
        <time>2020-08-02T12:52:29.541Z</time>
      </trkpt>
      <trkpt lat="62.87726" lon="6.98174">
        <ele>62.916721</ele>
        <time>2020-08-02T12:53:28.588Z</time>
      </trkpt>
      <trkpt lat="62.8786" lon="6.97562">
        <ele>54.595293</ele>
        <time>2020-08-02T12:54:13.535Z</time>
      </trkpt>
      <trkpt lat="62.88085" lon="6.97236">
        <ele>48.58354</ele>
        <time>2020-08-02T12:55:00.533Z</time>
      </trkpt>
      <trkpt lat="62.88309" lon="6.97113">
        <ele>46.015469</ele>
        <time>2020-08-02T12:55:44.547Z</time>
      </trkpt>
      <trkpt lat="62.8851" lon="6.97174">
        <ele>52.581629</ele>
        <time>2020-08-02T12:56:30.540Z</time>
      </trkpt>
      <trkpt lat="62.88653" lon="6.97569">
        <ele>54.514216</ele>
        <time>2020-08-02T12:57:25.554Z</time>
      </trkpt>
      <trkpt lat="62.88841" lon="6.97973">
        <ele>51.319295</ele>
        <time>2020-08-02T12:58:14.556Z</time>
      </trkpt>
      <trkpt lat="62.89033" lon="6.98259">
        <ele>51.968993</ele>
        <time>2020-08-02T12:59:04.550Z</time>
      </trkpt>
      <trkpt lat="62.89234" lon="6.98269">
        <ele>49.673528</ele>
        <time>2020-08-02T12:59:53.548Z</time>
      </trkpt>
      <trkpt lat="62.89383" lon="6.97879">
        <ele>46.730258</ele>
        <time>2020-08-02T13:00:44.539Z</time>
      </trkpt>
      <trkpt lat="62.89595" lon="6.97769">
        <ele>43.705699</ele>
        <time>2020-08-02T13:01:26.550Z</time>
      </trkpt>
      <trkpt lat="62.89784" lon="6.97539">
        <ele>45.72895</ele>
        <time>2020-08-02T13:02:11.543Z</time>
      </trkpt>
      <trkpt lat="62.89918" lon="6.97201">
        <ele>46.499003</ele>
        <time>2020-08-02T13:02:55.563Z</time>
      </trkpt>
      <trkpt lat="62.90047" lon="6.96847">
        <ele>45.472801</ele>
        <time>2020-08-02T13:03:42.552Z</time>
      </trkpt>
      <trkpt lat="62.90144" lon="6.96354">
        <ele>48.890061</ele>
        <time>2020-08-02T13:04:43.554Z</time>
      </trkpt>
      <trkpt lat="62.90264" lon="6.95954">
        <ele>55.439306</ele>
        <time>2020-08-02T13:05:47.561Z</time>
      </trkpt>
      <trkpt lat="62.90243" lon="6.95498">
        <ele>64.608642</ele>
        <time>2020-08-02T13:07:27.550Z</time>
      </trkpt>
      <trkpt lat="62.90291" lon="6.95027">
        <ele>68.618863</ele>
        <time>2020-08-02T13:08:50.582Z</time>
      </trkpt>
      <trkpt lat="62.90402" lon="6.94426">
        <ele>61.326928</ele>
        <time>2020-08-02T13:09:32.542Z</time>
      </trkpt>
      <trkpt lat="62.90445" lon="6.93849">
        <ele>58.132656</ele>
        <time>2020-08-02T13:10:16.549Z</time>
      </trkpt>
      <trkpt lat="62.90448" lon="6.93351">
        <ele>55.793582</ele>
        <time>2020-08-02T13:10:58.548Z</time>
      </trkpt>
      <trkpt lat="62.90426" lon="6.92898">
        <ele>55.302283</ele>
        <time>2020-08-02T13:11:59.539Z</time>
      </trkpt>
    </trkseg>
  </trk>
  <trk>
    <name><![CDATA[Tour d'Europe: étape 036]]></name>
    <trkseg>
      <trkpt lat="62.90388" lon="6.92892">
        <ele>67.913083</ele>
        <time>2020-08-03T08:18:38.067Z</time>
      </trkpt>
      <trkpt lat="62.90514" lon="6.92628">
        <ele>58.082102</ele>
        <time>2020-08-03T08:24:51.130Z</time>
      </trkpt>
      <trkpt lat="62.90559" lon="6.92162">
        <ele>57.125509</ele>
        <time>2020-08-03T08:25:36.107Z</time>
      </trkpt>
      <trkpt lat="62.9064" lon="6.91735">
        <ele>57.447654</ele>
        <time>2020-08-03T08:26:20.098Z</time>
      </trkpt>
      <trkpt lat="62.90749" lon="6.91586">
        <ele>60.521118</ele>
        <time>2020-08-03T08:27:16.092Z</time>
      </trkpt>
      <trkpt lat="62.90884" lon="6.91951">
        <ele>59.844067</ele>
        <time>2020-08-03T08:28:16.092Z</time>
      </trkpt>
      <trkpt lat="62.91063" lon="6.92292">
        <ele>60.793229</ele>
        <time>2020-08-03T08:29:12.086Z</time>
      </trkpt>
      <trkpt lat="62.91237" lon="6.92608">
        <ele>64.686779</ele>
        <time>2020-08-03T08:30:04.132Z</time>
      </trkpt>
      <trkpt lat="62.91407" lon="6.92939">
        <ele>58.523129</ele>
        <time>2020-08-03T08:30:49.116Z</time>
      </trkpt>
      <trkpt lat="62.91587" lon="6.93142">
        <ele>58.271467</ele>
        <time>2020-08-03T08:31:56.113Z</time>
      </trkpt>
      <trkpt lat="62.91708" lon="6.93511">
        <ele>59.78001</ele>
        <time>2020-08-03T08:32:39.108Z</time>
      </trkpt>
      <trkpt lat="62.91837" lon="6.93904">
        <ele>57.980843</ele>
        <time>2020-08-03T08:33:21.074Z</time>
      </trkpt>
      <trkpt lat="62.91975" lon="6.94352">
        <ele>54.500261</ele>
        <time>2020-08-03T08:34:01.085Z</time>
      </trkpt>
      <trkpt lat="62.92152" lon="6.94611">
        <ele>56.481799</ele>
        <time>2020-08-03T08:34:41.071Z</time>
      </trkpt>
      <trkpt lat="62.92247" lon="6.9503">
        <ele>59.082704</ele>
        <time>2020-08-03T08:35:23.123Z</time>
      </trkpt>
      <trkpt lat="62.9232" lon="6.95459">
        <ele>63.809967</ele>
        <time>2020-08-03T08:36:31.088Z</time>
      </trkpt>
      <trkpt lat="62.92407" lon="6.95943">
        <ele>64.448267</ele>
        <time>2020-08-03T08:37:32.092Z</time>
      </trkpt>
      <trkpt lat="62.92538" lon="6.9635">
        <ele>66.990807</ele>
        <time>2020-08-03T08:38:32.109Z</time>
      </trkpt>
      <trkpt lat="62.92667" lon="6.96709">
        <ele>65.544704</ele>
        <time>2020-08-03T08:39:14.086Z</time>
      </trkpt>
      <trkpt lat="62.92808" lon="6.9711">
        <ele>63.287305</ele>
        <time>2020-08-03T08:39:56.075Z</time>
      </trkpt>
      <trkpt lat="62.92951" lon="6.97519">
        <ele>64.947238</ele>
        <time>2020-08-03T08:40:36.114Z</time>
      </trkpt>
      <trkpt lat="62.93093" lon="6.98107">
        <ele>55.273447</ele>
        <time>2020-08-03T08:41:13.075Z</time>
      </trkpt>
      <trkpt lat="62.93266" lon="6.98409">
        <ele>57.100052</ele>
        <time>2020-08-03T08:42:06.076Z</time>
      </trkpt>
      <trkpt lat="62.93447" lon="6.98818">
        <ele>56.847549</ele>
        <time>2020-08-03T08:42:55.097Z</time>
      </trkpt>
      <trkpt lat="62.93594" lon="6.99327">
        <ele>50.854327</ele>
        <time>2020-08-03T08:43:37.075Z</time>
      </trkpt>
      <trkpt lat="62.93756" lon="6.9963">
        <ele>50.354853</ele>
        <time>2020-08-03T08:44:22.087Z</time>
      </trkpt>
      <trkpt lat="62.93967" lon="6.9975">
        <ele>54.037108</ele>
        <time>2020-08-03T08:45:17.083Z</time>
      </trkpt>
      <trkpt lat="62.94103" lon="7.00094">
        <ele>54.64718</ele>
        <time>2020-08-03T08:45:57.076Z</time>
      </trkpt>
      <trkpt lat="62.94208" lon="7.00478">
        <ele>60.5927</ele>
        <time>2020-08-03T08:46:50.119Z</time>
      </trkpt>
      <trkpt lat="62.94339" lon="7.00827">
        <ele>67.928793</ele>
        <time>2020-08-03T08:48:33.091Z</time>
      </trkpt>
      <trkpt lat="62.94426" lon="7.01277">
        <ele>67.89291</ele>
        <time>2020-08-03T08:51:25.087Z</time>
      </trkpt>
      <trkpt lat="62.94549" lon="7.01716">
        <ele>59.645722</ele>
        <time>2020-08-03T08:52:02.077Z</time>
      </trkpt>
      <trkpt lat="62.94673" lon="7.02146">
        <ele>51.819602</ele>
        <time>2020-08-03T08:52:32.077Z</time>
      </trkpt>
      <trkpt lat="62.94725" lon="7.02602">
        <ele>50.266626</ele>
        <time>2020-08-03T08:53:12.097Z</time>
      </trkpt>
      <trkpt lat="62.94794" lon="7.03031">
        <ele>51.795099</ele>
        <time>2020-08-03T08:53:54.143Z</time>
      </trkpt>
      <trkpt lat="62.94887" lon="7.03405">
        <ele>50.385663</ele>
        <time>2020-08-03T08:54:35.106Z</time>
      </trkpt>
      <trkpt lat="62.95012" lon="7.03768">
        <ele>51.725103</ele>
        <time>2020-08-03T08:55:22.085Z</time>
      </trkpt>
      <trkpt lat="62.95095" lon="7.04169">
        <ele>56.676766</ele>
        <time>2020-08-03T08:56:51.109Z</time>
      </trkpt>
      <trkpt lat="62.95167" lon="7.04676">
        <ele>56.340963</ele>
        <time>2020-08-03T08:57:44.078Z</time>
      </trkpt>
      <trkpt lat="62.95285" lon="7.05107">
        <ele>53.957875</ele>
        <time>2020-08-03T08:58:56.091Z</time>
      </trkpt>
      <trkpt lat="62.95418" lon="7.05506">
        <ele>57.224284</ele>
        <time>2020-08-03T09:00:01.085Z</time>
      </trkpt>
      <trkpt lat="62.95514" lon="7.05944">
        <ele>59.478824</ele>
        <time>2020-08-03T09:01:27.087Z</time>
      </trkpt>
      <trkpt lat="62.95581" lon="7.06381">
        <ele>65.194029</ele>
        <time>2020-08-03T09:02:34.079Z</time>
      </trkpt>
      <trkpt lat="62.95737" lon="7.0669">
        <ele>66.369669</ele>
        <time>2020-08-03T09:03:39.089Z</time>
      </trkpt>
      <trkpt lat="62.95892" lon="7.07059">
        <ele>64.047506</ele>
        <time>2020-08-03T09:04:39.111Z</time>
      </trkpt>
      <trkpt lat="62.96022" lon="7.07421">
        <ele>62.481577</ele>
        <time>2020-08-03T09:05:34.097Z</time>
      </trkpt>
      <trkpt lat="62.96179" lon="7.07854">
        <ele>59.646056</ele>
        <time>2020-08-03T09:06:28.103Z</time>
      </trkpt>
      <trkpt lat="62.96187" lon="7.08432">
        <ele>51.02727</ele>
        <time>2020-08-03T09:07:08.110Z</time>
      </trkpt>
      <trkpt lat="62.95993" lon="7.08637">
        <ele>54.305561</ele>
        <time>2020-08-03T09:08:10.084Z</time>
      </trkpt>
      <trkpt lat="62.95799" lon="7.08839">
        <ele>58.511476</ele>
        <time>2020-08-03T09:09:34.092Z</time>
      </trkpt>
      <trkpt lat="62.95565" lon="7.08994">
        <ele>51.772924</ele>
        <time>2020-08-03T09:10:20.104Z</time>
      </trkpt>
      <trkpt lat="62.95415" lon="7.09315">
        <ele>55.592904</ele>
        <time>2020-08-03T09:11:23.095Z</time>
      </trkpt>
      <trkpt lat="62.95498" lon="7.09607">
        <ele>58.936473</ele>
        <time>2020-08-03T09:12:41.115Z</time>
      </trkpt>
      <trkpt lat="62.95615" lon="7.10019">
        <ele>57.607819</ele>
        <time>2020-08-03T09:13:31.084Z</time>
      </trkpt>
      <trkpt lat="62.95672" lon="7.10513">
        <ele>60.082843</ele>
        <time>2020-08-03T09:14:34.078Z</time>
      </trkpt>
      <trkpt lat="62.95767" lon="7.10972">
        <ele>60.452472</ele>
        <time>2020-08-03T09:15:33.094Z</time>
      </trkpt>
      <trkpt lat="62.9592" lon="7.11351">
        <ele>64.537218</ele>
        <time>2020-08-03T09:16:28.088Z</time>
      </trkpt>
      <trkpt lat="62.96067" lon="7.11672">
        <ele>70.665959</ele>
        <time>2020-08-03T09:17:36.092Z</time>
      </trkpt>
      <trkpt lat="62.96225" lon="7.11996">
        <ele>76.520466</ele>
        <time>2020-08-03T09:18:49.087Z</time>
      </trkpt>
      <trkpt lat="62.96376" lon="7.12414">
        <ele>75.587763</ele>
        <time>2020-08-03T09:19:52.108Z</time>
      </trkpt>
      <trkpt lat="62.96481" lon="7.12828">
        <ele>72.374677</ele>
        <time>2020-08-03T09:20:43.091Z</time>
      </trkpt>
      <trkpt lat="62.96561" lon="7.13294">
        <ele>70.048318</ele>
        <time>2020-08-03T09:21:35.087Z</time>
      </trkpt>
      <trkpt lat="62.96613" lon="7.13722">
        <ele>70.485125</ele>
        <time>2020-08-03T09:22:15.125Z</time>
      </trkpt>
      <trkpt lat="62.96665" lon="7.14184">
        <ele>74.605994</ele>
        <time>2020-08-03T09:23:06.092Z</time>
      </trkpt>
      <trkpt lat="62.96782" lon="7.14614">
        <ele>72.49909</ele>
        <time>2020-08-03T09:23:51.098Z</time>
      </trkpt>
      <trkpt lat="62.96889" lon="7.15069">
        <ele>60.900282</ele>
        <time>2020-08-03T09:24:18.127Z</time>
      </trkpt>
      <trkpt lat="62.96992" lon="7.15515">
        <ele>56.142682</ele>
        <time>2020-08-03T09:25:00.110Z</time>
      </trkpt>
      <trkpt lat="62.97119" lon="7.15854">
        <ele>58.982647</ele>
        <time>2020-08-03T09:25:49.107Z</time>
      </trkpt>
      <trkpt lat="62.97291" lon="7.16097">
        <ele>60.279641</ele>
        <time>2020-08-03T09:26:34.112Z</time>
      </trkpt>
      <trkpt lat="62.97503" lon="7.16174">
        <ele>59.029297</ele>
        <time>2020-08-03T09:27:42.113Z</time>
      </trkpt>
      <trkpt lat="62.9771" lon="7.16099">
        <ele>62.244136</ele>
        <time>2020-08-03T09:28:45.089Z</time>
      </trkpt>
      <trkpt lat="62.97943" lon="7.16003">
        <ele>62.417944</ele>
        <time>2020-08-03T09:29:37.091Z</time>
      </trkpt>
      <trkpt lat="62.98159" lon="7.15986">
        <ele>62.838305</ele>
        <time>2020-08-03T09:30:23.113Z</time>
      </trkpt>
      <trkpt lat="62.98369" lon="7.16079">
        <ele>64.244341</ele>
        <time>2020-08-03T09:31:15.093Z</time>
      </trkpt>
      <trkpt lat="62.98567" lon="7.16242">
        <ele>61.722259</ele>
        <time>2020-08-03T09:31:57.097Z</time>
      </trkpt>
      <trkpt lat="62.98739" lon="7.16488">
        <ele>62.250694</ele>
        <time>2020-08-03T09:32:37.092Z</time>
      </trkpt>
      <trkpt lat="62.9888" lon="7.16808">
        <ele>62.040826</ele>
        <time>2020-08-03T09:33:21.097Z</time>
      </trkpt>
      <trkpt lat="62.99002" lon="7.17248">
        <ele>60.640248</ele>
        <time>2020-08-03T09:34:14.087Z</time>
      </trkpt>
      <trkpt lat="62.9907" lon="7.1775">
        <ele>64.729959</ele>
        <time>2020-08-03T09:35:08.104Z</time>
      </trkpt>
      <trkpt lat="62.99076" lon="7.18215">
        <ele>65.057151</ele>
        <time>2020-08-03T09:35:54.087Z</time>
      </trkpt>
      <trkpt lat="62.99136" lon="7.18708">
        <ele>64.769381</ele>
        <time>2020-08-03T09:36:50.103Z</time>
      </trkpt>
      <trkpt lat="62.99147" lon="7.19178">
        <ele>65.238515</ele>
        <time>2020-08-03T09:38:09.117Z</time>
      </trkpt>
      <trkpt lat="62.99107" lon="7.19646">
        <ele>65.486386</ele>
        <time>2020-08-03T09:39:03.098Z</time>
      </trkpt>
      <trkpt lat="62.98997" lon="7.20035">
        <ele>63.912431</ele>
        <time>2020-08-03T09:39:44.107Z</time>
      </trkpt>
      <trkpt lat="62.98895" lon="7.2048">
        <ele>65.127389</ele>
        <time>2020-08-03T09:40:47.093Z</time>
      </trkpt>
      <trkpt lat="62.98845" lon="7.20933">
        <ele>65.725136</ele>
        <time>2020-08-03T09:41:48.133Z</time>
      </trkpt>
      <trkpt lat="62.99034" lon="7.21269">
        <ele>60.037516</ele>
        <time>2020-08-03T09:42:31.083Z</time>
      </trkpt>
      <trkpt lat="62.99125" lon="7.21744">
        <ele>60.92147</ele>
        <time>2020-08-03T09:43:15.084Z</time>
      </trkpt>
      <trkpt lat="62.99283" lon="7.22009">
        <ele>60.985986</ele>
        <time>2020-08-03T09:44:00.104Z</time>
      </trkpt>
      <trkpt lat="62.99506" lon="7.22109">
        <ele>59.895116</ele>
        <time>2020-08-03T09:44:51.095Z</time>
      </trkpt>
      <trkpt lat="62.99722" lon="7.22375">
        <ele>57.865905</ele>
        <time>2020-08-03T09:45:38.117Z</time>
      </trkpt>
      <trkpt lat="62.99821" lon="7.22792">
        <ele>56.18421</ele>
        <time>2020-08-03T09:46:20.108Z</time>
      </trkpt>
      <trkpt lat="62.9984" lon="7.2327">
        <ele>54.981114</ele>
        <time>2020-08-03T09:47:09.090Z</time>
      </trkpt>
      <trkpt lat="62.99893" lon="7.23728">
        <ele>59.335398</ele>
        <time>2020-08-03T09:48:09.139Z</time>
      </trkpt>
      <trkpt lat="62.99963" lon="7.2422">
        <ele>60.841162</ele>
        <time>2020-08-03T09:49:14.114Z</time>
      </trkpt>
      <trkpt lat="63.00035" lon="7.247">
        <ele>61.488471</ele>
        <time>2020-08-03T09:50:00.111Z</time>
      </trkpt>
      <trkpt lat="63.00103" lon="7.25172">
        <ele>62.39325</ele>
        <time>2020-08-03T09:51:01.121Z</time>
      </trkpt>
      <trkpt lat="63.0017" lon="7.25624">
        <ele>62.494361</ele>
        <time>2020-08-03T09:51:50.090Z</time>
      </trkpt>
      <trkpt lat="63.00259" lon="7.261">
        <ele>58.836356</ele>
        <time>2020-08-03T09:52:30.129Z</time>
      </trkpt>
      <trkpt lat="63.0035" lon="7.26596">
        <ele>54.406408</ele>
        <time>2020-08-03T09:53:12.109Z</time>
      </trkpt>
      <trkpt lat="63.0043" lon="7.2704">
        <ele>55.464094</ele>
        <time>2020-08-03T09:53:54.113Z</time>
      </trkpt>
      <trkpt lat="63.00512" lon="7.27517">
        <ele>57.180021</ele>
        <time>2020-08-03T09:54:49.097Z</time>
      </trkpt>
      <trkpt lat="63.00573" lon="7.27972">
        <ele>57.852992</ele>
        <time>2020-08-03T09:55:49.095Z</time>
      </trkpt>
      <trkpt lat="63.00633" lon="7.28473">
        <ele>56.088068</ele>
        <time>2020-08-03T09:56:42.091Z</time>
      </trkpt>
      <trkpt lat="63.00652" lon="7.28944">
        <ele>58.924501</ele>
        <time>2020-08-03T09:58:06.127Z</time>
      </trkpt>
      <trkpt lat="63.00623" lon="7.29374">
        <ele>59.829593</ele>
        <time>2020-08-03T09:58:53.106Z</time>
      </trkpt>
      <trkpt lat="63.00744" lon="7.29738">
        <ele>61.983192</ele>
        <time>2020-08-03T10:00:12.133Z</time>
      </trkpt>
      <trkpt lat="63.0081" lon="7.30263">
        <ele>56.762207</ele>
        <time>2020-08-03T10:00:52.107Z</time>
      </trkpt>
      <trkpt lat="63.00914" lon="7.307">
        <ele>58.805601</ele>
        <time>2020-08-03T10:01:58.106Z</time>
      </trkpt>
      <trkpt lat="63.01054" lon="7.31139">
        <ele>53.971392</ele>
        <time>2020-08-03T10:02:32.119Z</time>
      </trkpt>
      <trkpt lat="63.01062" lon="7.3161">
        <ele>51.875056</ele>
        <time>2020-08-03T10:03:14.130Z</time>
      </trkpt>
      <trkpt lat="63.01181" lon="7.32089">
        <ele>50.426128</ele>
        <time>2020-08-03T10:03:56.117Z</time>
      </trkpt>
      <trkpt lat="63.0125" lon="7.32524">
        <ele>51.451088</ele>
        <time>2020-08-03T10:04:36.109Z</time>
      </trkpt>
      <trkpt lat="63.0131" lon="7.32952">
        <ele>52.112863</ele>
        <time>2020-08-03T10:05:16.107Z</time>
      </trkpt>
      <trkpt lat="63.01411" lon="7.33312">
        <ele>53.927896</ele>
        <time>2020-08-03T10:21:40.109Z</time>
      </trkpt>
      <trkpt lat="63.01507" lon="7.33724">
        <ele>55.677781</ele>
        <time>2020-08-03T10:22:20.111Z</time>
      </trkpt>
      <trkpt lat="63.01569" lon="7.34234">
        <ele>60.634426</ele>
        <time>2020-08-03T10:23:19.106Z</time>
      </trkpt>
      <trkpt lat="63.01676" lon="7.34594">
        <ele>60.024325</ele>
        <time>2020-08-03T10:24:00.110Z</time>
      </trkpt>
      <trkpt lat="63.01651" lon="7.35029">
        <ele>65.995709</ele>
        <time>2020-08-03T10:24:53.112Z</time>
      </trkpt>
      <trkpt lat="63.01684" lon="7.35478">
        <ele>77.201197</ele>
        <time>2020-08-03T10:26:53.124Z</time>
      </trkpt>
      <trkpt lat="63.01776" lon="7.3595">
        <ele>66.402072</ele>
        <time>2020-08-03T10:27:26.119Z</time>
      </trkpt>
      <trkpt lat="63.01822" lon="7.36488">
        <ele>56.669838</ele>
        <time>2020-08-03T10:27:49.130Z</time>
      </trkpt>
      <trkpt lat="63.0198" lon="7.37001">
        <ele>55.252807</ele>
        <time>2020-08-03T10:28:29.118Z</time>
      </trkpt>
      <trkpt lat="63.02133" lon="7.37391">
        <ele>59.758796</ele>
        <time>2020-08-03T10:29:18.111Z</time>
      </trkpt>
      <trkpt lat="63.02206" lon="7.37929">
        <ele>53.447673</ele>
        <time>2020-08-03T10:30:00.153Z</time>
      </trkpt>
      <trkpt lat="63.02079" lon="7.38285">
        <ele>53.153661</ele>
        <time>2020-08-03T10:30:44.104Z</time>
      </trkpt>
      <trkpt lat="63.01923" lon="7.38693">
        <ele>52.651292</ele>
        <time>2020-08-03T10:31:48.194Z</time>
      </trkpt>
      <trkpt lat="63.01784" lon="7.39053">
        <ele>50.51916</ele>
        <time>2020-08-03T10:32:30.098Z</time>
      </trkpt>
      <trkpt lat="63.01664" lon="7.39418">
        <ele>53.020663</ele>
        <time>2020-08-03T10:33:29.128Z</time>
      </trkpt>
      <trkpt lat="63.01506" lon="7.39802">
        <ele>54.3793</ele>
        <time>2020-08-03T10:34:20.101Z</time>
      </trkpt>
      <trkpt lat="63.01382" lon="7.40169">
        <ele>52.350647</ele>
        <time>2020-08-03T10:35:13.123Z</time>
      </trkpt>
      <trkpt lat="63.01401" lon="7.40685">
        <ele>53.761435</ele>
        <time>2020-08-03T10:36:06.105Z</time>
      </trkpt>
      <trkpt lat="63.01406" lon="7.41158">
        <ele>53.624851</ele>
        <time>2020-08-03T10:36:46.114Z</time>
      </trkpt>
      <trkpt lat="63.01337" lon="7.41585">
        <ele>57.001482</ele>
        <time>2020-08-03T10:37:59.102Z</time>
      </trkpt>
      <trkpt lat="63.01236" lon="7.42119">
        <ele>53.07368</ele>
        <time>2020-08-03T10:38:51.128Z</time>
      </trkpt>
      <trkpt lat="63.01152" lon="7.42544">
        <ele>57.535156</ele>
        <time>2020-08-03T10:39:58.108Z</time>
      </trkpt>
      <trkpt lat="63.01009" lon="7.42906">
        <ele>61.64063</ele>
        <time>2020-08-03T10:41:05.130Z</time>
      </trkpt>
      <trkpt lat="63.0098" lon="7.43281">
        <ele>64.317142</ele>
        <time>2020-08-03T10:42:08.135Z</time>
      </trkpt>
      <trkpt lat="63.01117" lon="7.43708">
        <ele>64.597424</ele>
        <time>2020-08-03T10:43:05.113Z</time>
      </trkpt>
      <trkpt lat="63.0125" lon="7.44113">
        <ele>68.033404</ele>
        <time>2020-08-03T10:44:10.131Z</time>
      </trkpt>
      <trkpt lat="63.01364" lon="7.44471">
        <ele>73.657295</ele>
        <time>2020-08-03T10:45:33.114Z</time>
      </trkpt>
      <trkpt lat="63.01491" lon="7.44875">
        <ele>73.004432</ele>
        <time>2020-08-03T10:46:38.104Z</time>
      </trkpt>
      <trkpt lat="63.0155" lon="7.4537">
        <ele>67.633979</ele>
        <time>2020-08-03T10:47:10.104Z</time>
      </trkpt>
      <trkpt lat="63.01574" lon="7.45834">
        <ele>71.090457</ele>
        <time>2020-08-03T10:48:06.148Z</time>
      </trkpt>
      <trkpt lat="63.01592" lon="7.46317">
        <ele>80.722236</ele>
        <time>2020-08-03T10:49:43.112Z</time>
      </trkpt>
      <trkpt lat="63.01611" lon="7.4675">
        <ele>86.102849</ele>
        <time>2020-08-03T10:50:54.131Z</time>
      </trkpt>
      <trkpt lat="63.01598" lon="7.47207">
        <ele>85.878499</ele>
        <time>2020-08-03T10:52:02.125Z</time>
      </trkpt>
      <trkpt lat="63.01586" lon="7.47663">
        <ele>90.037158</ele>
        <time>2020-08-03T10:53:16.109Z</time>
      </trkpt>
      <trkpt lat="63.01568" lon="7.48107">
        <ele>100.193257</ele>
        <time>2020-08-03T10:54:35.128Z</time>
      </trkpt>
      <trkpt lat="63.01607" lon="7.48568">
        <ele>97.764863</ele>
        <time>2020-08-03T10:55:38.105Z</time>
      </trkpt>
      <trkpt lat="63.01741" lon="7.48958">
        <ele>98.732459</ele>
        <time>2020-08-03T10:56:27.130Z</time>
      </trkpt>
      <trkpt lat="63.01862" lon="7.49348">
        <ele>104.377306</ele>
        <time>2020-08-03T10:57:35.114Z</time>
      </trkpt>
      <trkpt lat="63.01954" lon="7.49773">
        <ele>106.548048</ele>
        <time>2020-08-03T10:58:27.124Z</time>
      </trkpt>
      <trkpt lat="63.02028" lon="7.50187">
        <ele>106.587266</ele>
        <time>2020-08-03T10:59:08.116Z</time>
      </trkpt>
      <trkpt lat="63.02042" lon="7.50706">
        <ele>101.303855</ele>
        <time>2020-08-03T10:59:50.137Z</time>
      </trkpt>
      <trkpt lat="63.02056" lon="7.51238">
        <ele>96.039553</ele>
        <time>2020-08-03T11:00:26.115Z</time>
      </trkpt>
      <trkpt lat="63.02073" lon="7.51831">
        <ele>86.604626</ele>
        <time>2020-08-03T11:00:57.117Z</time>
      </trkpt>
      <trkpt lat="63.02034" lon="7.52292">
        <ele>86.002755</ele>
        <time>2020-08-03T11:01:37.147Z</time>
      </trkpt>
      <trkpt lat="63.01955" lon="7.52686">
        <ele>101.652199</ele>
        <time>2020-08-03T11:04:12.128Z</time>
      </trkpt>
      <trkpt lat="63.01775" lon="7.52999">
        <ele>110.264293</ele>
        <time>2020-08-03T11:05:46.124Z</time>
      </trkpt>
      <trkpt lat="63.01612" lon="7.53349">
        <ele>98.91571</ele>
        <time>2020-08-03T11:06:11.115Z</time>
      </trkpt>
      <trkpt lat="63.01453" lon="7.53759">
        <ele>92.648402</ele>
        <time>2020-08-03T11:07:01.113Z</time>
      </trkpt>
      <trkpt lat="63.01337" lon="7.5418">
        <ele>92.224743</ele>
        <time>2020-08-03T11:07:50.118Z</time>
      </trkpt>
      <trkpt lat="63.01251" lon="7.54624">
        <ele>93.237198</ele>
        <time>2020-08-03T11:08:35.127Z</time>
      </trkpt>
      <trkpt lat="63.01172" lon="7.55097">
        <ele>94.207499</ele>
        <time>2020-08-03T11:09:25.134Z</time>
      </trkpt>
      <trkpt lat="63.01092" lon="7.55599">
        <ele>88.483403</ele>
        <time>2020-08-03T11:10:08.111Z</time>
      </trkpt>
      <trkpt lat="63.00961" lon="7.56031">
        <ele>77.803402</ele>
        <time>2020-08-03T11:10:32.130Z</time>
      </trkpt>
      <trkpt lat="63.00924" lon="7.5654">
        <ele>65.432588</ele>
        <time>2020-08-03T11:10:52.127Z</time>
      </trkpt>
      <trkpt lat="63.00915" lon="7.57076">
        <ele>55.791087</ele>
        <time>2020-08-03T11:11:15.130Z</time>
      </trkpt>
      <trkpt lat="63.00855" lon="7.5756">
        <ele>60.671096</ele>
        <time>2020-08-03T11:12:20.162Z</time>
      </trkpt>
      <trkpt lat="63.00911" lon="7.57981">
        <ele>76.111276</ele>
        <time>2020-08-03T11:14:14.124Z</time>
      </trkpt>
      <trkpt lat="63.01032" lon="7.58351">
        <ele>82.213802</ele>
        <time>2020-08-03T11:15:52.157Z</time>
      </trkpt>
      <trkpt lat="63.01188" lon="7.58678">
        <ele>81.159903</ele>
        <time>2020-08-03T11:17:00.130Z</time>
      </trkpt>
      <trkpt lat="63.0135" lon="7.59031">
        <ele>73.214345</ele>
        <time>2020-08-03T11:17:24.117Z</time>
      </trkpt>
      <trkpt lat="63.01611" lon="7.58941">
        <ele>61.770779</ele>
        <time>2020-08-03T11:17:55.129Z</time>
      </trkpt>
      <trkpt lat="63.01838" lon="7.58819">
        <ele>58.528109</ele>
        <time>2020-08-03T11:18:32.145Z</time>
      </trkpt>
      <trkpt lat="63.02024" lon="7.58974">
        <ele>63.59648</ele>
        <time>2020-08-03T11:19:23.136Z</time>
      </trkpt>
      <trkpt lat="63.02118" lon="7.59402">
        <ele>64.499017</ele>
        <time>2020-08-03T11:20:23.126Z</time>
      </trkpt>
      <trkpt lat="63.02241" lon="7.59777">
        <ele>63.335916</ele>
        <time>2020-08-03T11:21:14.113Z</time>
      </trkpt>
      <trkpt lat="63.02458" lon="7.59768">
        <ele>64.52686</ele>
        <time>2020-08-03T11:22:00.130Z</time>
      </trkpt>
      <trkpt lat="63.02664" lon="7.59696">
        <ele>71.057891</ele>
        <time>2020-08-03T11:23:12.135Z</time>
      </trkpt>
      <trkpt lat="63.02861" lon="7.59753">
        <ele>82.737087</ele>
        <time>2020-08-03T11:24:55.129Z</time>
      </trkpt>
      <trkpt lat="63.02986" lon="7.60099">
        <ele>87.387012</ele>
        <time>2020-08-03T11:26:07.137Z</time>
      </trkpt>
      <trkpt lat="63.03154" lon="7.60353">
        <ele>86.764818</ele>
        <time>2020-08-03T11:27:02.137Z</time>
      </trkpt>
      <trkpt lat="63.033" lon="7.60693">
        <ele>84.605376</ele>
        <time>2020-08-03T11:27:45.135Z</time>
      </trkpt>
      <trkpt lat="63.03518" lon="7.60851">
        <ele>82.014205</ele>
        <time>2020-08-03T11:28:34.124Z</time>
      </trkpt>
      <trkpt lat="63.03731" lon="7.61097">
        <ele>79.219186</ele>
        <time>2020-08-03T11:29:23.118Z</time>
      </trkpt>
      <trkpt lat="63.03936" lon="7.61301">
        <ele>81.184343</ele>
        <time>2020-08-03T11:30:11.154Z</time>
      </trkpt>
      <trkpt lat="63.04043" lon="7.61729">
        <ele>85.892652</ele>
        <time>2020-08-03T11:31:05.117Z</time>
      </trkpt>
      <trkpt lat="63.04234" lon="7.61876">
        <ele>92.2978</ele>
        <time>2020-08-03T11:32:18.130Z</time>
      </trkpt>
      <trkpt lat="63.04383" lon="7.61595">
        <ele>95.101282</ele>
        <time>2020-08-03T11:33:45.126Z</time>
      </trkpt>
      <trkpt lat="63.04576" lon="7.61924">
        <ele>91.838194</ele>
        <time>2020-08-03T11:34:41.118Z</time>
      </trkpt>
      <trkpt lat="63.04809" lon="7.61905">
        <ele>89.682363</ele>
        <time>2020-08-03T11:35:21.116Z</time>
      </trkpt>
      <trkpt lat="63.04999" lon="7.62153">
        <ele>79.555942</ele>
        <time>2020-08-03T11:35:55.122Z</time>
      </trkpt>
      <trkpt lat="63.05152" lon="7.62532">
        <ele>61.424059</ele>
        <time>2020-08-03T11:36:21.128Z</time>
      </trkpt>
      <trkpt lat="63.05165" lon="7.63008">
        <ele>49.399785</ele>
        <time>2020-08-03T11:36:49.128Z</time>
      </trkpt>
      <trkpt lat="63.0527" lon="7.63415">
        <ele>48.161431</ele>
        <time>2020-08-03T11:45:24.157Z</time>
      </trkpt>
      <trkpt lat="63.05419" lon="7.63249">
        <ele>53.163252</ele>
        <time>2020-08-03T11:46:16.147Z</time>
      </trkpt>
      <trkpt lat="63.056" lon="7.63475">
        <ele>65.608361</ele>
        <time>2020-08-03T11:47:02.151Z</time>
      </trkpt>
      <trkpt lat="63.0579" lon="7.63845">
        <ele>77.19791</ele>
        <time>2020-08-03T11:47:23.127Z</time>
      </trkpt>
      <trkpt lat="63.0609" lon="7.64067">
        <ele>85.336025</ele>
        <time>2020-08-03T11:47:43.149Z</time>
      </trkpt>
      <trkpt lat="63.06396" lon="7.64284">
        <ele>83.132241</ele>
        <time>2020-08-03T11:48:04.150Z</time>
      </trkpt>
      <trkpt lat="63.06687" lon="7.64454">
        <ele>73.118062</ele>
        <time>2020-08-03T11:48:24.134Z</time>
      </trkpt>
      <trkpt lat="63.06934" lon="7.64616">
        <ele>71.830716</ele>
        <time>2020-08-03T11:49:09.138Z</time>
      </trkpt>
      <trkpt lat="63.07221" lon="7.64403">
        <ele>64.379754</ele>
        <time>2020-08-03T11:49:30.155Z</time>
      </trkpt>
      <trkpt lat="63.07419" lon="7.64835">
        <ele>55.494605</ele>
        <time>2020-08-03T11:49:50.142Z</time>
      </trkpt>
      <trkpt lat="63.07668" lon="7.65373">
        <ele>50.624919</ele>
        <time>2020-08-03T11:50:11.141Z</time>
      </trkpt>
      <trkpt lat="63.07839" lon="7.65777">
        <ele>60.539913</ele>
        <time>2020-08-03T11:50:58.141Z</time>
      </trkpt>
      <trkpt lat="63.08099" lon="7.66014">
        <ele>68.47729</ele>
        <time>2020-08-03T11:51:18.150Z</time>
      </trkpt>
      <trkpt lat="63.08344" lon="7.66214">
        <ele>67.556123</ele>
        <time>2020-08-03T11:52:24.199Z</time>
      </trkpt>
      <trkpt lat="63.08574" lon="7.6598">
        <ele>68.453271</ele>
        <time>2020-08-03T11:53:12.156Z</time>
      </trkpt>
      <trkpt lat="63.08659" lon="7.65326">
        <ele>74.237335</ele>
        <time>2020-08-03T11:53:33.132Z</time>
      </trkpt>
      <trkpt lat="63.08848" lon="7.64476">
        <ele>70.376739</ele>
        <time>2020-08-03T11:53:53.122Z</time>
      </trkpt>
      <trkpt lat="63.09081" lon="7.63748">
        <ele>71.823254</ele>
        <time>2020-08-03T11:54:13.138Z</time>
      </trkpt>
      <trkpt lat="63.09465" lon="7.63364">
        <ele>62.132757</ele>
        <time>2020-08-03T11:54:34.150Z</time>
      </trkpt>
      <trkpt lat="63.09759" lon="7.6283">
        <ele>54.595989</ele>
        <time>2020-08-03T11:54:54.152Z</time>
      </trkpt>
      <trkpt lat="63.10116" lon="7.62708">
        <ele>61.359147</ele>
        <time>2020-08-03T11:55:15.126Z</time>
      </trkpt>
      <trkpt lat="63.10346" lon="7.62755">
        <ele>65.947518</ele>
        <time>2020-08-03T11:56:06.123Z</time>
      </trkpt>
      <trkpt lat="63.10561" lon="7.62914">
        <ele>67.706781</ele>
        <time>2020-08-03T11:56:26.131Z</time>
      </trkpt>
      <trkpt lat="63.10898" lon="7.63316">
        <ele>63.883783</ele>
        <time>2020-08-03T11:56:47.116Z</time>
      </trkpt>
    </trkseg>
  </trk>
  <trk>
    <name><![CDATA[à Kristiansund]]></name>
    <trkseg>
      <trkpt lat="63.12461" lon="7.72748">
        <ele>63.583456</ele>
        <time>2020-08-03T12:21:37.560Z</time>
      </trkpt>
      <trkpt lat="63.12328" lon="7.72941">
        <ele>67.488174</ele>
        <time>2020-08-03T12:23:21.619Z</time>
      </trkpt>
      <trkpt lat="63.12319" lon="7.7337">
        <ele>76.361002</ele>
        <time>2020-08-03T12:24:55.572Z</time>
      </trkpt>
      <trkpt lat="63.12267" lon="7.73816">
        <ele>81.347454</ele>
        <time>2020-08-03T12:26:07.585Z</time>
      </trkpt>
      <trkpt lat="63.12183" lon="7.74201">
        <ele>87.664397</ele>
        <time>2020-08-03T12:27:33.608Z</time>
      </trkpt>
      <trkpt lat="63.1208" lon="7.7459">
        <ele>91.98653</ele>
        <time>2020-08-03T12:29:05.570Z</time>
      </trkpt>
      <trkpt lat="63.11828" lon="7.7485">
        <ele>72.04637</ele>
        <time>2020-08-03T12:29:47.577Z</time>
      </trkpt>
      <trkpt lat="63.11632" lon="7.75082">
        <ele>71.700261</ele>
        <time>2020-08-03T12:30:56.594Z</time>
      </trkpt>
      <trkpt lat="63.11457" lon="7.75279">
        <ele>79.562329</ele>
        <time>2020-08-03T12:32:34.588Z</time>
      </trkpt>
      <trkpt lat="63.11276" lon="7.75475">
        <ele>81.373553</ele>
        <time>2020-08-03T12:33:38.581Z</time>
      </trkpt>
      <trkpt lat="63.11203" lon="7.75777">
        <ele>88.80624</ele>
        <time>2020-08-03T12:35:18.595Z</time>
      </trkpt>
      <trkpt lat="63.11011" lon="7.75781">
        <ele>97.572563</ele>
        <time>2020-08-03T12:37:12.600Z</time>
      </trkpt>
      <trkpt lat="63.10969" lon="7.76085">
        <ele>89.458063</ele>
        <time>2020-08-03T12:38:19.584Z</time>
      </trkpt>
      <trkpt lat="63.10958" lon="7.76658">
        <ele>67.320843</ele>
        <time>2020-08-03T12:38:54.576Z</time>
      </trkpt>
      <trkpt lat="63.1084" lon="7.76929">
        <ele>52.283746</ele>
        <time>2020-08-03T12:39:40.599Z</time>
      </trkpt>
      <trkpt lat="63.10893" lon="7.77345">
        <ele>68.66353</ele>
        <time>2020-08-03T12:41:09.559Z</time>
      </trkpt>
      <trkpt lat="63.10922" lon="7.77769">
        <ele>73.41782</ele>
        <time>2020-08-03T12:42:38.566Z</time>
      </trkpt>
      <trkpt lat="63.10752" lon="7.77863">
        <ele>66.122234</ele>
        <time>2020-08-03T12:44:09.559Z</time>
      </trkpt>
      <trkpt lat="63.10811" lon="7.78296">
        <ele>70.608797</ele>
        <time>2020-08-03T12:45:53.581Z</time>
      </trkpt>
      <trkpt lat="63.10788" lon="7.78731">
        <ele>77.926388</ele>
        <time>2020-08-03T12:47:25.574Z</time>
      </trkpt>
      <trkpt lat="63.10815" lon="7.79168">
        <ele>84.823131</ele>
        <time>2020-08-03T12:48:45.598Z</time>
      </trkpt>
      <trkpt lat="63.10729" lon="7.79582">
        <ele>84.539869</ele>
        <time>2020-08-03T12:49:50.583Z</time>
      </trkpt>
      <trkpt lat="63.10755" lon="7.80044">
        <ele>73.906647</ele>
        <time>2020-08-03T12:50:52.611Z</time>
      </trkpt>
      <trkpt lat="63.1079" lon="7.80488">
        <ele>69.999191</ele>
        <time>2020-08-03T12:52:11.597Z</time>
      </trkpt>
      <trkpt lat="63.10789" lon="7.80902">
        <ele>74.435504</ele>
        <time>2020-08-03T12:55:43.601Z</time>
      </trkpt>
      <trkpt lat="63.10781" lon="7.8133">
        <ele>79.987794</ele>
        <time>2020-08-03T12:57:31.577Z</time>
      </trkpt>
      <trkpt lat="63.10837" lon="7.81818">
        <ele>75.808987</ele>
        <time>2020-08-03T12:58:30.584Z</time>
      </trkpt>
      <trkpt lat="63.10893" lon="7.82246">
        <ele>71.384636</ele>
        <time>2020-08-03T13:01:19.609Z</time>
      </trkpt>
      <trkpt lat="63.10966" lon="7.82655">
        <ele>77.371249</ele>
        <time>2020-08-03T13:02:35.603Z</time>
      </trkpt>
      <trkpt lat="63.11103" lon="7.83006">
        <ele>81.331501</ele>
        <time>2020-08-03T13:03:48.605Z</time>
      </trkpt>
    </trkseg>
  </trk>
  <trk>
    <name><![CDATA[Tour d'Europe: étape 037]]></name>
    <trkseg>
      <trkpt lat="63.11101" lon="7.82971">
        <ele>86.037642</ele>
        <time>2020-08-04T07:14:42.443Z</time>
      </trkpt>
      <trkpt lat="63.10931" lon="7.82435">
        <ele>76.927179</ele>
        <time>2020-08-04T07:15:27.416Z</time>
      </trkpt>
      <trkpt lat="63.10755" lon="7.82328">
        <ele>70.889511</ele>
        <time>2020-08-04T07:16:26.509Z</time>
      </trkpt>
      <trkpt lat="63.10708" lon="7.82816">
        <ele>83.243538</ele>
        <time>2020-08-04T07:17:49.438Z</time>
      </trkpt>
      <trkpt lat="63.10792" lon="7.83267">
        <ele>90.060882</ele>
        <time>2020-08-04T07:19:19.449Z</time>
      </trkpt>
      <trkpt lat="63.1081" lon="7.8379">
        <ele>85.32409</ele>
        <time>2020-08-04T07:20:12.456Z</time>
      </trkpt>
      <trkpt lat="63.10876" lon="7.84359">
        <ele>74.218421</ele>
        <time>2020-08-04T07:20:44.476Z</time>
      </trkpt>
      <trkpt lat="63.10904" lon="7.84895">
        <ele>63.166982</ele>
        <time>2020-08-04T07:21:07.452Z</time>
      </trkpt>
      <trkpt lat="63.10929" lon="7.85508">
        <ele>63.33295</ele>
        <time>2020-08-04T07:21:53.462Z</time>
      </trkpt>
      <trkpt lat="63.11031" lon="7.86043">
        <ele>67.440793</ele>
        <time>2020-08-04T07:22:58.455Z</time>
      </trkpt>
      <trkpt lat="63.11123" lon="7.86604">
        <ele>61.299533</ele>
        <time>2020-08-04T07:23:47.461Z</time>
      </trkpt>
      <trkpt lat="63.11276" lon="7.87448">
        <ele>41.025348</ele>
        <time>2020-08-04T07:32:44.441Z</time>
      </trkpt>
      <trkpt lat="63.1277" lon="7.89964">
        <ele>31.368291</ele>
        <time>2020-08-04T07:39:01.605Z</time>
      </trkpt>
      <trkpt lat="63.12965" lon="7.9029">
        <ele>34.062921</ele>
        <time>2020-08-04T07:39:45.585Z</time>
      </trkpt>
      <trkpt lat="63.13161" lon="7.90572">
        <ele>34.347254</ele>
        <time>2020-08-04T07:40:30.590Z</time>
      </trkpt>
      <trkpt lat="63.13384" lon="7.90809">
        <ele>43.549115</ele>
        <time>2020-08-04T07:41:17.619Z</time>
      </trkpt>
      <trkpt lat="63.13642" lon="7.91029">
        <ele>48.405983</ele>
        <time>2020-08-04T07:42:03.614Z</time>
      </trkpt>
      <trkpt lat="63.13874" lon="7.91216">
        <ele>58.344299</ele>
        <time>2020-08-04T07:42:49.595Z</time>
      </trkpt>
      <trkpt lat="63.14094" lon="7.91404">
        <ele>54.605265</ele>
        <time>2020-08-04T07:43:34.614Z</time>
      </trkpt>
      <trkpt lat="63.14332" lon="7.91593">
        <ele>56.394932</ele>
        <time>2020-08-04T07:44:18.598Z</time>
      </trkpt>
      <trkpt lat="63.14565" lon="7.91771">
        <ele>53.416176</ele>
        <time>2020-08-04T07:45:02.632Z</time>
      </trkpt>
      <trkpt lat="63.14804" lon="7.91957">
        <ele>41.305432</ele>
        <time>2020-08-04T07:45:49.591Z</time>
      </trkpt>
      <trkpt lat="63.14961" lon="7.92372">
        <ele>28.780967</ele>
        <time>2020-08-04T07:46:36.711Z</time>
      </trkpt>
      <trkpt lat="63.15032" lon="7.92879">
        <ele>14.693089</ele>
        <time>2020-08-04T07:47:19.603Z</time>
      </trkpt>
      <trkpt lat="63.15121" lon="7.93413">
        <ele>9.087757</ele>
        <time>2020-08-04T07:48:12.622Z</time>
      </trkpt>
      <trkpt lat="63.15192" lon="7.94047">
        <ele>16.359659</ele>
        <time>2020-08-04T07:49:13.612Z</time>
      </trkpt>
      <trkpt lat="63.15209" lon="7.94668">
        <ele>16.044388</ele>
        <time>2020-08-04T07:50:09.617Z</time>
      </trkpt>
      <trkpt lat="63.15454" lon="7.95693">
        <ele>52.516853</ele>
        <time>2020-08-04T07:55:41.831Z</time>
      </trkpt>
      <trkpt lat="63.15682" lon="7.95553">
        <ele>52.65437</ele>
        <time>2020-08-04T07:56:38.881Z</time>
      </trkpt>
      <trkpt lat="63.15866" lon="7.95301">
        <ele>65.710826</ele>
        <time>2020-08-04T07:58:17.835Z</time>
      </trkpt>
      <trkpt lat="63.16086" lon="7.95086">
        <ele>70.384281</ele>
        <time>2020-08-04T07:59:52.849Z</time>
      </trkpt>
      <trkpt lat="63.16303" lon="7.94786">
        <ele>71.241745</ele>
        <time>2020-08-04T08:00:55.820Z</time>
      </trkpt>
      <trkpt lat="63.16523" lon="7.94577">
        <ele>76.169993</ele>
        <time>2020-08-04T08:02:11.839Z</time>
      </trkpt>
      <trkpt lat="63.16653" lon="7.94054">
        <ele>73.145398</ele>
        <time>2020-08-04T08:03:01.829Z</time>
      </trkpt>
      <trkpt lat="63.16799" lon="7.93677">
        <ele>77.46575</ele>
        <time>2020-08-04T08:04:06.832Z</time>
      </trkpt>
      <trkpt lat="63.17057" lon="7.93626">
        <ele>67.304138</ele>
        <time>2020-08-04T08:04:39.837Z</time>
      </trkpt>
      <trkpt lat="63.17313" lon="7.93514">
        <ele>67.745933</ele>
        <time>2020-08-04T08:05:29.809Z</time>
      </trkpt>
      <trkpt lat="63.17518" lon="7.93706">
        <ele>76.003655</ele>
        <time>2020-08-04T08:06:54.830Z</time>
      </trkpt>
      <trkpt lat="63.17636" lon="7.94173">
        <ele>76.07081</ele>
        <time>2020-08-04T08:10:18.832Z</time>
      </trkpt>
      <trkpt lat="63.178" lon="7.94645">
        <ele>61.507547</ele>
        <time>2020-08-04T08:10:47.838Z</time>
      </trkpt>
      <trkpt lat="63.18012" lon="7.94988">
        <ele>58.193876</ele>
        <time>2020-08-04T08:13:25.832Z</time>
      </trkpt>
      <trkpt lat="63.18108" lon="7.95468">
        <ele>63.176186</ele>
        <time>2020-08-04T08:14:36.837Z</time>
      </trkpt>
      <trkpt lat="63.18281" lon="7.95801">
        <ele>72.163729</ele>
        <time>2020-08-04T08:15:57.832Z</time>
      </trkpt>
      <trkpt lat="63.18424" lon="7.9617">
        <ele>84.33002</ele>
        <time>2020-08-04T08:17:53.839Z</time>
      </trkpt>
      <trkpt lat="63.18576" lon="7.96567">
        <ele>88.828201</ele>
        <time>2020-08-04T08:19:08.859Z</time>
      </trkpt>
      <trkpt lat="63.18665" lon="7.97034">
        <ele>94.385323</ele>
        <time>2020-08-04T08:20:33.822Z</time>
      </trkpt>
      <trkpt lat="63.18699" lon="7.97533">
        <ele>94.048255</ele>
        <time>2020-08-04T08:21:35.851Z</time>
      </trkpt>
      <trkpt lat="63.18849" lon="7.97981">
        <ele>91.649351</ele>
        <time>2020-08-04T08:22:23.855Z</time>
      </trkpt>
      <trkpt lat="63.19029" lon="7.98288">
        <ele>86.206604</ele>
        <time>2020-08-04T08:22:47.862Z</time>
      </trkpt>
      <trkpt lat="63.19208" lon="7.98594">
        <ele>70.935146</ele>
        <time>2020-08-04T08:23:11.874Z</time>
      </trkpt>
      <trkpt lat="63.19406" lon="7.98956">
        <ele>67.161896</ele>
        <time>2020-08-04T08:23:44.852Z</time>
      </trkpt>
      <trkpt lat="63.19533" lon="7.99462">
        <ele>67.868625</ele>
        <time>2020-08-04T08:24:28.841Z</time>
      </trkpt>
      <trkpt lat="63.19667" lon="8.00074">
        <ele>58.996414</ele>
        <time>2020-08-04T08:25:12.817Z</time>
      </trkpt>
      <trkpt lat="63.19815" lon="8.00556">
        <ele>57.155971</ele>
        <time>2020-08-04T08:25:58.820Z</time>
      </trkpt>
      <trkpt lat="63.19895" lon="8.0108">
        <ele>63.00407</ele>
        <time>2020-08-04T08:27:04.839Z</time>
      </trkpt>
      <trkpt lat="63.20023" lon="8.01513">
        <ele>67.779455</ele>
        <time>2020-08-04T08:28:15.878Z</time>
      </trkpt>
      <trkpt lat="63.20072" lon="8.02055">
        <ele>58.884761</ele>
        <time>2020-08-04T08:28:57.831Z</time>
      </trkpt>
      <trkpt lat="63.20176" lon="8.02549">
        <ele>52.353795</ele>
        <time>2020-08-04T08:29:37.826Z</time>
      </trkpt>
      <trkpt lat="63.20269" lon="8.03081">
        <ele>59.35897</ele>
        <time>2020-08-04T08:30:53.825Z</time>
      </trkpt>
      <trkpt lat="63.20377" lon="8.03529">
        <ele>70.036143</ele>
        <time>2020-08-04T08:32:22.863Z</time>
      </trkpt>
      <trkpt lat="63.20513" lon="8.0395">
        <ele>74.135948</ele>
        <time>2020-08-04T08:33:54.839Z</time>
      </trkpt>
      <trkpt lat="63.20668" lon="8.04353">
        <ele>83.382532</ele>
        <time>2020-08-04T08:35:22.856Z</time>
      </trkpt>
      <trkpt lat="63.20808" lon="8.04761">
        <ele>94.301598</ele>
        <time>2020-08-04T08:36:56.841Z</time>
      </trkpt>
      <trkpt lat="63.20982" lon="8.0511">
        <ele>91.69083</ele>
        <time>2020-08-04T08:37:57.859Z</time>
      </trkpt>
      <trkpt lat="63.21139" lon="8.05499">
        <ele>93.42026</ele>
        <time>2020-08-04T08:38:54.843Z</time>
      </trkpt>
      <trkpt lat="63.21252" lon="8.05963">
        <ele>98.979966</ele>
        <time>2020-08-04T08:40:17.847Z</time>
      </trkpt>
      <trkpt lat="63.21362" lon="8.06444">
        <ele>103.795606</ele>
        <time>2020-08-04T08:41:25.855Z</time>
      </trkpt>
      <trkpt lat="63.21462" lon="8.06924">
        <ele>114.405632</ele>
        <time>2020-08-04T08:43:13.861Z</time>
      </trkpt>
      <trkpt lat="63.21549" lon="8.07381">
        <ele>125.608453</ele>
        <time>2020-08-04T08:44:59.846Z</time>
      </trkpt>
      <trkpt lat="63.21656" lon="8.07921">
        <ele>118.497125</ele>
        <time>2020-08-04T08:45:48.854Z</time>
      </trkpt>
      <trkpt lat="63.21748" lon="8.08422">
        <ele>103.997186</ele>
        <time>2020-08-04T08:46:10.835Z</time>
      </trkpt>
      <trkpt lat="63.21842" lon="8.0903">
        <ele>97.375947</ele>
        <time>2020-08-04T08:46:48.847Z</time>
      </trkpt>
      <trkpt lat="63.2199" lon="8.09596">
        <ele>89.328696</ele>
        <time>2020-08-04T08:47:25.852Z</time>
      </trkpt>
      <trkpt lat="63.22127" lon="8.10068">
        <ele>81.39042</ele>
        <time>2020-08-04T08:47:53.861Z</time>
      </trkpt>
      <trkpt lat="63.22335" lon="8.10572">
        <ele>83.282301</ele>
        <time>2020-08-04T08:48:37.854Z</time>
      </trkpt>
      <trkpt lat="63.22481" lon="8.11025">
        <ele>90.657729</ele>
        <time>2020-08-04T08:49:35.836Z</time>
      </trkpt>
      <trkpt lat="63.2258" lon="8.11555">
        <ele>88.245424</ele>
        <time>2020-08-04T08:50:34.841Z</time>
      </trkpt>
      <trkpt lat="63.22563" lon="8.12197">
        <ele>84.16926</ele>
        <time>2020-08-04T08:51:19.851Z</time>
      </trkpt>
      <trkpt lat="63.22513" lon="8.12813">
        <ele>81.297453</ele>
        <time>2020-08-04T08:52:03.829Z</time>
      </trkpt>
      <trkpt lat="63.22349" lon="8.13153">
        <ele>84.932993</ele>
        <time>2020-08-04T08:52:56.867Z</time>
      </trkpt>
      <trkpt lat="63.22124" lon="8.13303">
        <ele>94.587469</ele>
        <time>2020-08-04T08:54:21.845Z</time>
      </trkpt>
      <trkpt lat="63.21913" lon="8.13453">
        <ele>106.259559</ele>
        <time>2020-08-04T08:56:32.852Z</time>
      </trkpt>
      <trkpt lat="63.21926" lon="8.13953">
        <ele>108.966579</ele>
        <time>2020-08-04T08:57:52.832Z</time>
      </trkpt>
      <trkpt lat="63.21698" lon="8.1393">
        <ele>97.968351</ele>
        <time>2020-08-04T08:58:37.823Z</time>
      </trkpt>
      <trkpt lat="63.21456" lon="8.13787">
        <ele>100.41077</ele>
        <time>2020-08-04T08:59:35.843Z</time>
      </trkpt>
      <trkpt lat="63.21198" lon="8.14015">
        <ele>96.550713</ele>
        <time>2020-08-04T09:00:21.846Z</time>
      </trkpt>
      <trkpt lat="63.2097" lon="8.14446">
        <ele>88.893869</ele>
        <time>2020-08-04T09:01:04.856Z</time>
      </trkpt>
      <trkpt lat="63.20691" lon="8.14734">
        <ele>74.57062</ele>
        <time>2020-08-04T09:01:43.840Z</time>
      </trkpt>
      <trkpt lat="63.20602" lon="8.15239">
        <ele>60.899141</ele>
        <time>2020-08-04T09:02:11.839Z</time>
      </trkpt>
      <trkpt lat="63.20663" lon="8.15747">
        <ele>65.82266</ele>
        <time>2020-08-04T09:03:07.858Z</time>
      </trkpt>
      <trkpt lat="63.20805" lon="8.16138">
        <ele>76.604683</ele>
        <time>2020-08-04T09:04:38.884Z</time>
      </trkpt>
      <trkpt lat="63.20961" lon="8.16535">
        <ele>73.523041</ele>
        <time>2020-08-04T09:05:38.862Z</time>
      </trkpt>
      <trkpt lat="63.21083" lon="8.16961">
        <ele>69.862796</ele>
        <time>2020-08-04T09:06:50.864Z</time>
      </trkpt>
      <trkpt lat="63.21108" lon="8.17509">
        <ele>66.096783</ele>
        <time>2020-08-04T09:07:45.832Z</time>
      </trkpt>
      <trkpt lat="63.21253" lon="8.18062">
        <ele>68.855836</ele>
        <time>2020-08-04T09:08:42.847Z</time>
      </trkpt>
      <trkpt lat="63.21399" lon="8.18461">
        <ele>72.29912</ele>
        <time>2020-08-04T09:09:48.847Z</time>
      </trkpt>
      <trkpt lat="63.2149" lon="8.18935">
        <ele>73.031135</ele>
        <time>2020-08-04T09:10:54.833Z</time>
      </trkpt>
      <trkpt lat="63.21599" lon="8.19376">
        <ele>83.055322</ele>
        <time>2020-08-04T09:12:05.838Z</time>
      </trkpt>
      <trkpt lat="63.21773" lon="8.19552">
        <ele>103.175654</ele>
        <time>2020-08-04T09:14:13.881Z</time>
      </trkpt>
      <trkpt lat="63.21883" lon="8.1999">
        <ele>123.524222</ele>
        <time>2020-08-04T09:16:55.831Z</time>
      </trkpt>
      <trkpt lat="63.21974" lon="8.20446">
        <ele>126.897732</ele>
        <time>2020-08-04T09:18:38.853Z</time>
      </trkpt>
      <trkpt lat="63.22073" lon="8.21014">
        <ele>112.821293</ele>
        <time>2020-08-04T09:19:05.853Z</time>
      </trkpt>
      <trkpt lat="63.22315" lon="8.21351">
        <ele>88.074931</ele>
        <time>2020-08-04T09:19:27.872Z</time>
      </trkpt>
      <trkpt lat="63.22564" lon="8.2166">
        <ele>66.756032</ele>
        <time>2020-08-04T09:19:49.834Z</time>
      </trkpt>
      <trkpt lat="63.22671" lon="8.22211">
        <ele>53.669251</ele>
        <time>2020-08-04T09:20:20.880Z</time>
      </trkpt>
      <trkpt lat="63.22728" lon="8.22767">
        <ele>52.414289</ele>
        <time>2020-08-04T09:21:04.868Z</time>
      </trkpt>
      <trkpt lat="63.2279" lon="8.23248">
        <ele>57.385535</ele>
        <time>2020-08-04T09:22:13.858Z</time>
      </trkpt>
      <trkpt lat="63.22735" lon="8.23717">
        <ele>63.369725</ele>
        <time>2020-08-04T09:23:55.884Z</time>
      </trkpt>
      <trkpt lat="63.22689" lon="8.24227">
        <ele>60.890477</ele>
        <time>2020-08-04T09:24:56.857Z</time>
      </trkpt>
      <trkpt lat="63.22786" lon="8.24669">
        <ele>67.095437</ele>
        <time>2020-08-04T09:25:52.843Z</time>
      </trkpt>
      <trkpt lat="63.22924" lon="8.25071">
        <ele>73.820993</ele>
        <time>2020-08-04T09:27:00.842Z</time>
      </trkpt>
      <trkpt lat="63.22988" lon="8.25588">
        <ele>71.837705</ele>
        <time>2020-08-04T09:28:07.841Z</time>
      </trkpt>
      <trkpt lat="63.23096" lon="8.26013">
        <ele>82.387377</ele>
        <time>2020-08-04T09:30:01.848Z</time>
      </trkpt>
      <trkpt lat="63.23209" lon="8.26444">
        <ele>95.989738</ele>
        <time>2020-08-04T09:32:26.877Z</time>
      </trkpt>
      <trkpt lat="63.23386" lon="8.26804">
        <ele>95.666832</ele>
        <time>2020-08-04T09:33:28.856Z</time>
      </trkpt>
      <trkpt lat="63.23592" lon="8.27172">
        <ele>92.085088</ele>
        <time>2020-08-04T09:34:26.840Z</time>
      </trkpt>
      <trkpt lat="63.23812" lon="8.27405">
        <ele>74.969738</ele>
        <time>2020-08-04T09:34:49.852Z</time>
      </trkpt>
      <trkpt lat="63.24034" lon="8.27854">
        <ele>58.968373</ele>
        <time>2020-08-04T09:35:12.890Z</time>
      </trkpt>
      <trkpt lat="63.24183" lon="8.28316">
        <ele>55.588093</ele>
        <time>2020-08-04T09:35:55.850Z</time>
      </trkpt>
      <trkpt lat="63.24401" lon="8.28643">
        <ele>56.232941</ele>
        <time>2020-08-04T09:36:41.837Z</time>
      </trkpt>
      <trkpt lat="63.24567" lon="8.29192">
        <ele>52.390438</ele>
        <time>2020-08-04T09:37:26.851Z</time>
      </trkpt>
      <trkpt lat="63.24643" lon="8.29675">
        <ele>63.455572</ele>
        <time>2020-08-04T09:38:49.847Z</time>
      </trkpt>
      <trkpt lat="63.24755" lon="8.30102">
        <ele>81.263104</ele>
        <time>2020-08-04T09:41:01.852Z</time>
      </trkpt>
      <trkpt lat="63.24857" lon="8.30518">
        <ele>83.39711</ele>
        <time>2020-08-04T09:42:58.843Z</time>
      </trkpt>
      <trkpt lat="63.24954" lon="8.30978">
        <ele>81.980972</ele>
        <time>2020-08-04T09:44:06.856Z</time>
      </trkpt>
      <trkpt lat="63.25123" lon="8.31569">
        <ele>74.279664</ele>
        <time>2020-08-04T09:44:50.853Z</time>
      </trkpt>
      <trkpt lat="63.25294" lon="8.31948">
        <ele>76.74392</ele>
        <time>2020-08-04T09:45:42.849Z</time>
      </trkpt>
      <trkpt lat="63.25373" lon="8.32453">
        <ele>72.791726</ele>
        <time>2020-08-04T09:46:28.851Z</time>
      </trkpt>
      <trkpt lat="63.25345" lon="8.3307">
        <ele>59.157214</ele>
        <time>2020-08-04T09:47:02.901Z</time>
      </trkpt>
      <trkpt lat="63.25505" lon="8.3353">
        <ele>55.541711</ele>
        <time>2020-08-04T09:47:39.864Z</time>
      </trkpt>
      <trkpt lat="63.25563" lon="8.34012">
        <ele>61.770635</ele>
        <time>2020-08-04T09:49:00.894Z</time>
      </trkpt>
      <trkpt lat="63.25665" lon="8.34483">
        <ele>69.685816</ele>
        <time>2020-08-04T09:50:21.858Z</time>
      </trkpt>
      <trkpt lat="63.25679" lon="8.34962">
        <ele>78.198137</ele>
        <time>2020-08-04T09:52:07.855Z</time>
      </trkpt>
      <trkpt lat="63.25688" lon="8.35445">
        <ele>86.404905</ele>
        <time>2020-08-04T09:54:01.843Z</time>
      </trkpt>
      <trkpt lat="63.25764" lon="8.35901">
        <ele>94.091328</ele>
        <time>2020-08-04T09:55:51.883Z</time>
      </trkpt>
      <trkpt lat="63.25746" lon="8.36443">
        <ele>86.60857</ele>
        <time>2020-08-04T09:56:43.856Z</time>
      </trkpt>
      <trkpt lat="63.25786" lon="8.37037">
        <ele>73.838037</ele>
        <time>2020-08-04T09:57:06.851Z</time>
      </trkpt>
      <trkpt lat="63.25899" lon="8.3751">
        <ele>78.330406</ele>
        <time>2020-08-04T09:58:12.851Z</time>
      </trkpt>
      <trkpt lat="63.26057" lon="8.37956">
        <ele>75.785769</ele>
        <time>2020-08-04T09:59:12.904Z</time>
      </trkpt>
      <trkpt lat="63.2602" lon="8.38436">
        <ele>65.625903</ele>
        <time>2020-08-04T10:32:34.864Z</time>
      </trkpt>
      <trkpt lat="63.25994" lon="8.39058">
        <ele>51.52254</ele>
        <time>2020-08-04T10:33:17.862Z</time>
      </trkpt>
      <trkpt lat="63.25965" lon="8.39575">
        <ele>64.19995</ele>
        <time>2020-08-04T10:35:14.874Z</time>
      </trkpt>
      <trkpt lat="63.26054" lon="8.39998">
        <ele>85.708994</ele>
        <time>2020-08-04T10:37:41.870Z</time>
      </trkpt>
      <trkpt lat="63.26096" lon="8.40461">
        <ele>97.012838</ele>
        <time>2020-08-04T10:39:47.874Z</time>
      </trkpt>
      <trkpt lat="63.26162" lon="8.40918">
        <ele>103.624563</ele>
        <time>2020-08-04T10:41:36.854Z</time>
      </trkpt>
      <trkpt lat="63.26237" lon="8.41415">
        <ele>110.560127</ele>
        <time>2020-08-04T10:43:09.866Z</time>
      </trkpt>
      <trkpt lat="63.26303" lon="8.41876">
        <ele>122.448136</ele>
        <time>2020-08-04T10:44:49.863Z</time>
      </trkpt>
      <trkpt lat="63.26345" lon="8.42364">
        <ele>123.314712</ele>
        <time>2020-08-04T10:46:26.863Z</time>
      </trkpt>
      <trkpt lat="63.26414" lon="8.42915">
        <ele>124.682438</ele>
        <time>2020-08-04T10:47:32.866Z</time>
      </trkpt>
      <trkpt lat="63.2644" lon="8.43403">
        <ele>133.002201</ele>
        <time>2020-08-04T10:49:12.863Z</time>
      </trkpt>
      <trkpt lat="63.26438" lon="8.43991">
        <ele>131.740727</ele>
        <time>2020-08-04T10:50:20.870Z</time>
      </trkpt>
      <trkpt lat="63.26412" lon="8.44518">
        <ele>135.949963</ele>
        <time>2020-08-04T10:51:20.855Z</time>
      </trkpt>
      <trkpt lat="63.26314" lon="8.44937">
        <ele>155.521486</ele>
        <time>2020-08-04T10:53:33.886Z</time>
      </trkpt>
      <trkpt lat="63.26188" lon="8.45398">
        <ele>154.298877</ele>
        <time>2020-08-04T10:54:51.871Z</time>
      </trkpt>
      <trkpt lat="63.26035" lon="8.46129">
        <ele>139.022075</ele>
        <time>2020-08-04T10:55:37.893Z</time>
      </trkpt>
      <trkpt lat="63.25866" lon="8.46477">
        <ele>145.852076</ele>
        <time>2020-08-04T10:56:33.867Z</time>
      </trkpt>
      <trkpt lat="63.25667" lon="8.46698">
        <ele>151.016078</ele>
        <time>2020-08-04T10:57:37.901Z</time>
      </trkpt>
      <trkpt lat="63.2555" lon="8.47233">
        <ele>130.459483</ele>
        <time>2020-08-04T10:58:03.895Z</time>
      </trkpt>
      <trkpt lat="63.25296" lon="8.47593">
        <ele>102.262568</ele>
        <time>2020-08-04T10:58:25.853Z</time>
      </trkpt>
      <trkpt lat="63.25029" lon="8.47807">
        <ele>77.583151</ele>
        <time>2020-08-04T10:58:49.862Z</time>
      </trkpt>
      <trkpt lat="63.25026" lon="8.48288">
        <ele>74.814932</ele>
        <time>2020-08-04T11:00:06.895Z</time>
      </trkpt>
      <trkpt lat="63.25092" lon="8.48782">
        <ele>71.89585</ele>
        <time>2020-08-04T11:03:25.886Z</time>
      </trkpt>
      <trkpt lat="63.25253" lon="8.49178">
        <ele>71.375216</ele>
        <time>2020-08-04T11:04:19.874Z</time>
      </trkpt>
      <trkpt lat="63.25491" lon="8.4956">
        <ele>62.965993</ele>
        <time>2020-08-04T11:05:05.874Z</time>
      </trkpt>
      <trkpt lat="63.25704" lon="8.49871">
        <ele>58.878625</ele>
        <time>2020-08-04T11:05:42.878Z</time>
      </trkpt>
      <trkpt lat="63.25973" lon="8.49903">
        <ele>57.683234</ele>
        <time>2020-08-04T11:06:35.859Z</time>
      </trkpt>
      <trkpt lat="63.26224" lon="8.49896">
        <ele>56.62899</ele>
        <time>2020-08-04T11:07:25.854Z</time>
      </trkpt>
      <trkpt lat="63.26518" lon="8.49681">
        <ele>70.520867</ele>
        <time>2020-08-04T11:09:07.892Z</time>
      </trkpt>
      <trkpt lat="63.2704" lon="8.49699">
        <ele>65.391876</ele>
        <time>2020-08-04T11:10:41.861Z</time>
      </trkpt>
      <trkpt lat="63.27255" lon="8.49928">
        <ele>59.154654</ele>
        <time>2020-08-04T11:11:54.881Z</time>
      </trkpt>
      <trkpt lat="63.27491" lon="8.50115">
        <ele>60.780124</ele>
        <time>2020-08-04T11:13:03.900Z</time>
      </trkpt>
      <trkpt lat="63.27633" lon="8.50532">
        <ele>51.869916</ele>
        <time>2020-08-04T11:13:27.859Z</time>
      </trkpt>
      <trkpt lat="63.27693" lon="8.51051">
        <ele>59.761294</ele>
        <time>2020-08-04T11:14:40.870Z</time>
      </trkpt>
      <trkpt lat="63.27817" lon="8.51483">
        <ele>64.061162</ele>
        <time>2020-08-04T11:16:06.878Z</time>
      </trkpt>
      <trkpt lat="63.27971" lon="8.51874">
        <ele>67.700691</ele>
        <time>2020-08-04T11:17:19.878Z</time>
      </trkpt>
      <trkpt lat="63.28033" lon="8.52336">
        <ele>81.011206</ele>
        <time>2020-08-04T11:19:47.872Z</time>
      </trkpt>
      <trkpt lat="63.2798" lon="8.52791">
        <ele>95.893542</ele>
        <time>2020-08-04T11:22:15.858Z</time>
      </trkpt>
      <trkpt lat="63.27941" lon="8.532">
        <ele>102.815162</ele>
        <time>2020-08-04T11:24:25.873Z</time>
      </trkpt>
      <trkpt lat="63.28144" lon="8.53556">
        <ele>94.329579</ele>
        <time>2020-08-04T11:25:00.875Z</time>
      </trkpt>
      <trkpt lat="63.28356" lon="8.53952">
        <ele>74.694293</ele>
        <time>2020-08-04T11:25:22.890Z</time>
      </trkpt>
      <trkpt lat="63.2861" lon="8.54048">
        <ele>52.310575</ele>
        <time>2020-08-04T11:25:44.863Z</time>
      </trkpt>
      <trkpt lat="63.2885" lon="8.53848">
        <ele>48.61631</ele>
        <time>2020-08-04T11:26:23.883Z</time>
      </trkpt>
      <trkpt lat="63.29089" lon="8.5366">
        <ele>54.906487</ele>
        <time>2020-08-04T11:27:23.882Z</time>
      </trkpt>
      <trkpt lat="63.29311" lon="8.53528">
        <ele>63.40598</ele>
        <time>2020-08-04T11:28:42.855Z</time>
      </trkpt>
      <trkpt lat="63.29565" lon="8.53445">
        <ele>56.561904</ele>
        <time>2020-08-04T11:29:25.876Z</time>
      </trkpt>
      <trkpt lat="63.29813" lon="8.53456">
        <ele>55.268766</ele>
        <time>2020-08-04T11:30:26.882Z</time>
      </trkpt>
      <trkpt lat="63.30045" lon="8.53691">
        <ele>53.707139</ele>
        <time>2020-08-04T11:31:04.883Z</time>
      </trkpt>
      <trkpt lat="63.30178" lon="8.54198">
        <ele>55.899647</ele>
        <time>2020-08-04T11:32:00.913Z</time>
      </trkpt>
      <trkpt lat="63.30277" lon="8.5462">
        <ele>72.014168</ele>
        <time>2020-08-04T11:33:56.871Z</time>
      </trkpt>
      <trkpt lat="63.30385" lon="8.55042">
        <ele>78.666066</ele>
        <time>2020-08-04T11:35:24.875Z</time>
      </trkpt>
      <trkpt lat="63.3051" lon="8.55444">
        <ele>86.604086</ele>
        <time>2020-08-04T11:37:11.891Z</time>
      </trkpt>
      <trkpt lat="63.3062" lon="8.55908">
        <ele>86.488413</ele>
        <time>2020-08-04T11:38:34.867Z</time>
      </trkpt>
      <trkpt lat="63.3069" lon="8.56417">
        <ele>92.003136</ele>
        <time>2020-08-04T11:39:47.915Z</time>
      </trkpt>
      <trkpt lat="63.30714" lon="8.56932">
        <ele>93.912751</ele>
        <time>2020-08-04T11:40:46.860Z</time>
      </trkpt>
      <trkpt lat="63.30754" lon="8.57426">
        <ele>90.779223</ele>
        <time>2020-08-04T11:41:31.872Z</time>
      </trkpt>
      <trkpt lat="63.30797" lon="8.57962">
        <ele>95.11826</ele>
        <time>2020-08-04T11:42:32.893Z</time>
      </trkpt>
      <trkpt lat="63.30811" lon="8.58656">
        <ele>86.638172</ele>
        <time>2020-08-04T11:43:18.869Z</time>
      </trkpt>
      <trkpt lat="63.309" lon="8.59077">
        <ele>76.291503</ele>
        <time>2020-08-04T11:43:40.877Z</time>
      </trkpt>
      <trkpt lat="63.30969" lon="8.59569">
        <ele>70.032321</ele>
        <time>2020-08-04T11:44:04.861Z</time>
      </trkpt>
      <trkpt lat="63.31076" lon="8.60079">
        <ele>70.223862</ele>
        <time>2020-08-04T11:44:54.880Z</time>
      </trkpt>
      <trkpt lat="63.31269" lon="8.60478">
        <ele>67.629733</ele>
        <time>2020-08-04T11:45:42.862Z</time>
      </trkpt>
      <trkpt lat="63.31494" lon="8.60586">
        <ele>59.729371</ele>
        <time>2020-08-04T11:46:16.877Z</time>
      </trkpt>
      <trkpt lat="63.3171" lon="8.60422">
        <ele>64.934799</ele>
        <time>2020-08-04T11:47:57.870Z</time>
      </trkpt>
      <trkpt lat="63.31877" lon="8.60474">
        <ele>67.793603</ele>
        <time>2020-08-04T11:49:32.850Z</time>
      </trkpt>
      <trkpt lat="63.31925" lon="8.60948">
        <ele>65.594178</ele>
        <time>2020-08-04T11:50:20.890Z</time>
      </trkpt>
      <trkpt lat="63.32024" lon="8.61477">
        <ele>59.291603</ele>
        <time>2020-08-04T11:51:04.859Z</time>
      </trkpt>
      <trkpt lat="63.32207" lon="8.61916">
        <ele>47.610282</ele>
        <time>2020-08-04T11:51:35.852Z</time>
      </trkpt>
      <trkpt lat="63.32375" lon="8.62363">
        <ele>47.815995</ele>
        <time>2020-08-04T11:52:24.852Z</time>
      </trkpt>
      <trkpt lat="63.32435" lon="8.62877">
        <ele>48.830142</ele>
        <time>2020-08-04T11:53:12.898Z</time>
      </trkpt>
      <trkpt lat="63.32525" lon="8.63356">
        <ele>48.681982</ele>
        <time>2020-08-04T11:53:58.852Z</time>
      </trkpt>
      <trkpt lat="63.32625" lon="8.6383">
        <ele>47.248003</ele>
        <time>2020-08-04T11:54:44.882Z</time>
      </trkpt>
      <trkpt lat="63.32695" lon="8.64315">
        <ele>50.081091</ele>
        <time>2020-08-04T11:55:35.890Z</time>
      </trkpt>
      <trkpt lat="63.32741" lon="8.64812">
        <ele>55.017134</ele>
        <time>2020-08-04T11:56:53.886Z</time>
      </trkpt>
      <trkpt lat="63.32778" lon="8.65334">
        <ele>58.839038</ele>
        <time>2020-08-04T11:57:54.882Z</time>
      </trkpt>
      <trkpt lat="63.32825" lon="8.65846">
        <ele>61.992878</ele>
        <time>2020-08-04T11:59:27.857Z</time>
      </trkpt>
      <trkpt lat="63.32887" lon="8.66394">
        <ele>61.591208</ele>
        <time>2020-08-04T12:00:21.852Z</time>
      </trkpt>
      <trkpt lat="63.32962" lon="8.66906">
        <ele>64.395065</ele>
        <time>2020-08-04T12:01:26.901Z</time>
      </trkpt>
      <trkpt lat="63.33084" lon="8.67353">
        <ele>63.96711</ele>
        <time>2020-08-04T12:02:36.884Z</time>
      </trkpt>
      <trkpt lat="63.3314" lon="8.67948">
        <ele>55.413131</ele>
        <time>2020-08-04T12:03:09.871Z</time>
      </trkpt>
      <trkpt lat="63.3319" lon="8.68554">
        <ele>48.764829</ele>
        <time>2020-08-04T12:03:40.861Z</time>
      </trkpt>
      <trkpt lat="63.333" lon="8.69117">
        <ele>46.995791</ele>
        <time>2020-08-04T12:04:21.877Z</time>
      </trkpt>
      <trkpt lat="63.33447" lon="8.69422">
        <ele>58.434556</ele>
        <time>2020-08-04T12:05:44.870Z</time>
      </trkpt>
      <trkpt lat="63.33646" lon="8.6922">
        <ele>74.276153</ele>
        <time>2020-08-04T12:07:42.880Z</time>
      </trkpt>
      <trkpt lat="63.33877" lon="8.69154">
        <ele>82.358466</ele>
        <time>2020-08-04T12:09:40.880Z</time>
      </trkpt>
      <trkpt lat="63.34082" lon="8.68699">
        <ele>70.158644</ele>
        <time>2020-08-04T12:10:24.880Z</time>
      </trkpt>
      <trkpt lat="63.34333" lon="8.68749">
        <ele>66.724938</ele>
        <time>2020-08-04T12:11:08.876Z</time>
      </trkpt>
      <trkpt lat="63.34551" lon="8.68909">
        <ele>67.021087</ele>
        <time>2020-08-04T12:12:04.885Z</time>
      </trkpt>
      <trkpt lat="63.3471" lon="8.68635">
        <ele>67.324052</ele>
        <time>2020-08-04T12:12:57.898Z</time>
      </trkpt>
      <trkpt lat="63.34951" lon="8.68464">
        <ele>66.823332</ele>
        <time>2020-08-04T12:13:52.889Z</time>
      </trkpt>
      <trkpt lat="63.3518" lon="8.68409">
        <ele>66.854332</ele>
        <time>2020-08-04T12:14:45.875Z</time>
      </trkpt>
      <trkpt lat="63.35449" lon="8.68486">
        <ele>64.860884</ele>
        <time>2020-08-04T12:15:35.879Z</time>
      </trkpt>
      <trkpt lat="63.35679" lon="8.68611">
        <ele>63.070556</ele>
        <time>2020-08-04T12:16:35.869Z</time>
      </trkpt>
      <trkpt lat="63.35779" lon="8.69146">
        <ele>53.420703</ele>
        <time>2020-08-04T12:17:09.876Z</time>
      </trkpt>
      <trkpt lat="63.35872" lon="8.69642">
        <ele>53.205775</ele>
        <time>2020-08-04T12:18:13.870Z</time>
      </trkpt>
      <trkpt lat="63.36029" lon="8.69994">
        <ele>60.946915</ele>
        <time>2020-08-04T12:20:05.907Z</time>
      </trkpt>
      <trkpt lat="63.36186" lon="8.70429">
        <ele>49.157348</ele>
        <time>2020-08-04T12:20:35.911Z</time>
      </trkpt>
      <trkpt lat="63.36371" lon="8.70152">
        <ele>51.816341</ele>
        <time>2020-08-04T12:21:28.883Z</time>
      </trkpt>
      <trkpt lat="63.36589" lon="8.69998">
        <ele>51.256062</ele>
        <time>2020-08-04T12:22:27.900Z</time>
      </trkpt>
      <trkpt lat="63.36748" lon="8.69598">
        <ele>53.727722</ele>
        <time>2020-08-04T12:23:21.895Z</time>
      </trkpt>
      <trkpt lat="63.36891" lon="8.69374">
        <ele>71.174618</ele>
        <time>2020-08-04T12:26:29.880Z</time>
      </trkpt>
      <trkpt lat="63.37089" lon="8.69329">
        <ele>89.706209</ele>
        <time>2020-08-04T12:28:58.867Z</time>
      </trkpt>
      <trkpt lat="63.37254" lon="8.69629">
        <ele>104.342043</ele>
        <time>2020-08-04T12:31:25.884Z</time>
      </trkpt>
      <trkpt lat="63.37437" lon="8.69879">
        <ele>118.00763</ele>
        <time>2020-08-04T12:33:51.893Z</time>
      </trkpt>
      <trkpt lat="63.37644" lon="8.69833">
        <ele>134.9748</ele>
        <time>2020-08-04T12:36:30.885Z</time>
      </trkpt>
      <trkpt lat="63.37857" lon="8.69927">
        <ele>143.15554</ele>
        <time>2020-08-04T12:38:27.893Z</time>
      </trkpt>
      <trkpt lat="63.38099" lon="8.69875">
        <ele>143.037283</ele>
        <time>2020-08-04T12:39:27.890Z</time>
      </trkpt>
      <trkpt lat="63.38351" lon="8.69879">
        <ele>133.654573</ele>
        <time>2020-08-04T12:39:57.910Z</time>
      </trkpt>
      <trkpt lat="63.38631" lon="8.69866">
        <ele>118.751011</ele>
        <time>2020-08-04T12:40:19.904Z</time>
      </trkpt>
      <trkpt lat="63.38829" lon="8.69437">
        <ele>109.574636</ele>
        <time>2020-08-04T12:40:46.870Z</time>
      </trkpt>
      <trkpt lat="63.38994" lon="8.69142">
        <ele>123.628606</ele>
        <time>2020-08-04T12:42:41.884Z</time>
      </trkpt>
      <trkpt lat="63.39229" lon="8.69095">
        <ele>128.545723</ele>
        <time>2020-08-04T12:43:50.899Z</time>
      </trkpt>
      <trkpt lat="63.39413" lon="8.69403">
        <ele>134.733967</ele>
        <time>2020-08-04T12:45:24.895Z</time>
      </trkpt>
      <trkpt lat="63.39544" lon="8.69873">
        <ele>132.816115</ele>
        <time>2020-08-04T12:46:23.872Z</time>
      </trkpt>
      <trkpt lat="63.39719" lon="8.70249">
        <ele>129.57428</ele>
        <time>2020-08-04T12:47:09.883Z</time>
      </trkpt>
      <trkpt lat="63.39953" lon="8.70681">
        <ele>118.282848</ele>
        <time>2020-08-04T12:47:49.892Z</time>
      </trkpt>
      <trkpt lat="63.40191" lon="8.7101">
        <ele>114.212836</ele>
        <time>2020-08-04T12:48:33.869Z</time>
      </trkpt>
      <trkpt lat="63.40422" lon="8.71262">
        <ele>117.445291</ele>
        <time>2020-08-04T12:49:30.881Z</time>
      </trkpt>
      <trkpt lat="63.40667" lon="8.71264">
        <ele>115.612968</ele>
        <time>2020-08-04T12:50:12.906Z</time>
      </trkpt>
      <trkpt lat="63.40951" lon="8.71501">
        <ele>88.875319</ele>
        <time>2020-08-04T12:50:34.924Z</time>
      </trkpt>
      <trkpt lat="63.41163" lon="8.72006">
        <ele>63.317975</ele>
        <time>2020-08-04T12:50:56.876Z</time>
      </trkpt>
      <trkpt lat="63.41115" lon="8.72491">
        <ele>55.800217</ele>
        <time>2020-08-04T12:51:19.889Z</time>
      </trkpt>
      <trkpt lat="63.41142" lon="8.73065">
        <ele>53.527632</ele>
        <time>2020-08-04T12:51:55.900Z</time>
      </trkpt>
      <trkpt lat="63.41207" lon="8.73565">
        <ele>60.170291</ele>
        <time>2020-08-04T12:53:14.869Z</time>
      </trkpt>
      <trkpt lat="63.41298" lon="8.74036">
        <ele>66.850927</ele>
        <time>2020-08-04T12:54:44.873Z</time>
      </trkpt>
      <trkpt lat="63.41468" lon="8.74321">
        <ele>79.90677</ele>
        <time>2020-08-04T12:56:43.883Z</time>
      </trkpt>
      <trkpt lat="63.41593" lon="8.74713">
        <ele>98.043835</ele>
        <time>2020-08-04T12:59:33.876Z</time>
      </trkpt>
      <trkpt lat="63.41748" lon="8.75112">
        <ele>110.874859</ele>
        <time>2020-08-04T13:12:57.872Z</time>
      </trkpt>
      <trkpt lat="63.41926" lon="8.75483">
        <ele>106.540022</ele>
        <time>2020-08-04T13:14:06.884Z</time>
      </trkpt>
      <trkpt lat="63.41963" lon="8.76077">
        <ele>91.940606</ele>
        <time>2020-08-04T13:14:28.905Z</time>
      </trkpt>
      <trkpt lat="63.42102" lon="8.76597">
        <ele>96.426027</ele>
        <time>2020-08-04T13:15:32.880Z</time>
      </trkpt>
      <trkpt lat="63.42211" lon="8.77004">
        <ele>104.925713</ele>
        <time>2020-08-04T13:17:30.869Z</time>
      </trkpt>
      <trkpt lat="63.42262" lon="8.776">
        <ele>91.638886</ele>
        <time>2020-08-04T13:18:06.921Z</time>
      </trkpt>
      <trkpt lat="63.42348" lon="8.7828">
        <ele>69.613306</ele>
        <time>2020-08-04T13:18:28.873Z</time>
      </trkpt>
      <trkpt lat="63.42337" lon="8.78912">
        <ele>56.768616</ele>
        <time>2020-08-04T13:18:50.911Z</time>
      </trkpt>
      <trkpt lat="63.42365" lon="8.79521">
        <ele>58.187857</ele>
        <time>2020-08-04T13:19:31.873Z</time>
      </trkpt>
      <trkpt lat="63.42443" lon="8.79972">
        <ele>68.965369</ele>
        <time>2020-08-04T13:21:15.885Z</time>
      </trkpt>
      <trkpt lat="63.42557" lon="8.80438">
        <ele>71.338862</ele>
        <time>2020-08-04T13:22:23.915Z</time>
      </trkpt>
      <trkpt lat="63.42687" lon="8.81064">
        <ele>59.180253</ele>
        <time>2020-08-04T13:23:05.887Z</time>
      </trkpt>
      <trkpt lat="63.42785" lon="8.81561">
        <ele>54.770357</ele>
        <time>2020-08-04T13:23:33.877Z</time>
      </trkpt>
      <trkpt lat="63.42796" lon="8.8212">
        <ele>59.078516</ele>
        <time>2020-08-04T13:24:34.879Z</time>
      </trkpt>
      <trkpt lat="63.42756" lon="8.82745">
        <ele>53.880731</ele>
        <time>2020-08-04T13:25:18.875Z</time>
      </trkpt>
      <trkpt lat="63.42724" lon="8.83274">
        <ele>60.013773</ele>
        <time>2020-08-04T13:26:25.898Z</time>
      </trkpt>
      <trkpt lat="63.42647" lon="8.83699">
        <ele>62.686039</ele>
        <time>2020-08-04T13:27:47.879Z</time>
      </trkpt>
      <trkpt lat="63.42547" lon="8.84293">
        <ele>54.682653</ele>
        <time>2020-08-04T13:28:33.898Z</time>
      </trkpt>
      <trkpt lat="63.42512" lon="8.8481">
        <ele>61.173626</ele>
        <time>2020-08-04T13:29:46.887Z</time>
      </trkpt>
      <trkpt lat="63.42443" lon="8.85397">
        <ele>54.640489</ele>
        <time>2020-08-04T13:30:36.874Z</time>
      </trkpt>
      <trkpt lat="63.4246" lon="8.85889">
        <ele>59.174599</ele>
        <time>2020-08-04T13:31:39.878Z</time>
      </trkpt>
      <trkpt lat="63.42572" lon="8.86309">
        <ele>66.245945</ele>
        <time>2020-08-04T13:33:05.875Z</time>
      </trkpt>
      <trkpt lat="63.4249" lon="8.86727">
        <ele>76.772471</ele>
        <time>2020-08-04T13:34:50.888Z</time>
      </trkpt>
      <trkpt lat="63.42278" lon="8.86825">
        <ele>82.586512</ele>
        <time>2020-08-04T13:35:54.910Z</time>
      </trkpt>
      <trkpt lat="63.42248" lon="8.87414">
        <ele>76.020132</ele>
        <time>2020-08-04T13:36:48.930Z</time>
      </trkpt>
      <trkpt lat="63.42058" lon="8.87726">
        <ele>65.974091</ele>
        <time>2020-08-04T13:37:32.883Z</time>
      </trkpt>
      <trkpt lat="63.41743" lon="8.87789">
        <ele>60.015328</ele>
        <time>2020-08-04T13:38:18.881Z</time>
      </trkpt>
      <trkpt lat="63.41537" lon="8.87699">
        <ele>74.041211</ele>
        <time>2020-08-04T13:39:43.914Z</time>
      </trkpt>
      <trkpt lat="63.41389" lon="8.87303">
        <ele>81.527043</ele>
        <time>2020-08-04T13:40:55.888Z</time>
      </trkpt>
      <trkpt lat="63.41156" lon="8.87056">
        <ele>73.401816</ele>
        <time>2020-08-04T13:41:55.879Z</time>
      </trkpt>
      <trkpt lat="63.40938" lon="8.87035">
        <ele>71.60337</ele>
        <time>2020-08-04T13:42:41.924Z</time>
      </trkpt>
      <trkpt lat="63.40712" lon="8.87036">
        <ele>69.40972</ele>
        <time>2020-08-04T13:43:29.871Z</time>
      </trkpt>
      <trkpt lat="63.40492" lon="8.87312">
        <ele>69.085145</ele>
        <time>2020-08-04T13:44:29.912Z</time>
      </trkpt>
      <trkpt lat="63.40304" lon="8.8766">
        <ele>72.109313</ele>
        <time>2020-08-04T13:45:27.925Z</time>
      </trkpt>
      <trkpt lat="63.40128" lon="8.87957">
        <ele>71.672573</ele>
        <time>2020-08-04T13:46:15.915Z</time>
      </trkpt>
      <trkpt lat="63.39934" lon="8.8824">
        <ele>78.930244</ele>
        <time>2020-08-04T13:47:41.879Z</time>
      </trkpt>
      <trkpt lat="63.3971" lon="8.88353">
        <ele>89.123659</ele>
        <time>2020-08-04T13:49:40.893Z</time>
      </trkpt>
      <trkpt lat="63.39452" lon="8.88311">
        <ele>79.164427</ele>
        <time>2020-08-04T13:50:17.897Z</time>
      </trkpt>
      <trkpt lat="63.39266" lon="8.8868">
        <ele>73.112003</ele>
        <time>2020-08-04T13:50:54.900Z</time>
      </trkpt>
      <trkpt lat="63.39015" lon="8.8907">
        <ele>65.199175</ele>
        <time>2020-08-04T13:51:53.888Z</time>
      </trkpt>
      <trkpt lat="63.38827" lon="8.89306">
        <ele>75.15231</ele>
        <time>2020-08-04T13:53:33.912Z</time>
      </trkpt>
      <trkpt lat="63.38672" lon="8.89623">
        <ele>94.854425</ele>
        <time>2020-08-04T13:56:07.893Z</time>
      </trkpt>
      <trkpt lat="63.3858" lon="8.90022">
        <ele>111.273686</ele>
        <time>2020-08-04T13:58:42.904Z</time>
      </trkpt>
      <trkpt lat="63.38452" lon="8.90337">
        <ele>122.569255</ele>
        <time>2020-08-04T14:00:42.875Z</time>
      </trkpt>
      <trkpt lat="63.38315" lon="8.90693">
        <ele>135.077282</ele>
        <time>2020-08-04T14:03:02.877Z</time>
      </trkpt>
      <trkpt lat="63.38376" lon="8.91156">
        <ele>140.641407</ele>
        <time>2020-08-04T14:04:43.885Z</time>
      </trkpt>
      <trkpt lat="63.38591" lon="8.91159">
        <ele>144.218723</ele>
        <time>2020-08-04T14:06:12.884Z</time>
      </trkpt>
      <trkpt lat="63.38724" lon="8.91712">
        <ele>138.038443</ele>
        <time>2020-08-04T14:07:00.927Z</time>
      </trkpt>
      <trkpt lat="63.38797" lon="8.92222">
        <ele>134.181839</ele>
        <time>2020-08-04T14:07:58.894Z</time>
      </trkpt>
      <trkpt lat="63.3857" lon="8.92573">
        <ele>125.642813</ele>
        <time>2020-08-04T14:08:30.878Z</time>
      </trkpt>
      <trkpt lat="63.38374" lon="8.92917">
        <ele>123.320833</ele>
        <time>2020-08-04T14:09:20.900Z</time>
      </trkpt>
      <trkpt lat="63.3816" lon="8.9316">
        <ele>118.695736</ele>
        <time>2020-08-04T14:09:55.902Z</time>
      </trkpt>
      <trkpt lat="63.37987" lon="8.93478">
        <ele>99.592155</ele>
        <time>2020-08-04T14:10:17.922Z</time>
      </trkpt>
      <trkpt lat="63.37904" lon="8.93865">
        <ele>90.720114</ele>
        <time>2020-08-04T14:11:14.903Z</time>
      </trkpt>
      <trkpt lat="63.38022" lon="8.94358">
        <ele>91.098313</ele>
        <time>2020-08-04T14:12:08.879Z</time>
      </trkpt>
      <trkpt lat="63.38113" lon="8.94835">
        <ele>96.059672</ele>
        <time>2020-08-04T14:12:53.910Z</time>
      </trkpt>
      <trkpt lat="63.3827" lon="8.95271">
        <ele>98.079103</ele>
        <time>2020-08-04T14:13:37.901Z</time>
      </trkpt>
      <trkpt lat="63.38404" lon="8.95698">
        <ele>104.45495</ele>
        <time>2020-08-04T14:14:50.895Z</time>
      </trkpt>
      <trkpt lat="63.38558" lon="8.9612">
        <ele>99.150039</ele>
        <time>2020-08-04T14:15:34.896Z</time>
      </trkpt>
      <trkpt lat="63.38632" lon="8.96581">
        <ele>92.349918</ele>
        <time>2020-08-04T14:16:20.902Z</time>
      </trkpt>
      <trkpt lat="63.38706" lon="8.97014">
        <ele>92.221679</ele>
        <time>2020-08-04T14:17:13.888Z</time>
      </trkpt>
      <trkpt lat="63.3887" lon="8.97364">
        <ele>90.635857</ele>
        <time>2020-08-04T14:18:01.906Z</time>
      </trkpt>
      <trkpt lat="63.38969" lon="8.97838">
        <ele>84.269871</ele>
        <time>2020-08-04T14:18:46.890Z</time>
      </trkpt>
      <trkpt lat="63.38958" lon="8.98348">
        <ele>86.69108</ele>
        <time>2020-08-04T14:19:41.913Z</time>
      </trkpt>
      <trkpt lat="63.38923" lon="8.98471">
        <ele>87.976796</ele>
        <time>2020-08-04T14:20:32.903Z</time>
      </trkpt>
      <trkpt lat="63.39097" lon="8.98783">
        <ele>77.489814</ele>
        <time>2020-08-04T14:20:56.923Z</time>
      </trkpt>
      <trkpt lat="63.39176" lon="8.99452">
        <ele>64.411585</ele>
        <time>2020-08-04T14:21:39.891Z</time>
      </trkpt>
      <trkpt lat="63.39315" lon="8.99863">
        <ele>57.439989</ele>
        <time>2020-08-04T14:22:23.897Z</time>
      </trkpt>
      <trkpt lat="63.39483" lon="9.00337">
        <ele>55.714124</ele>
        <time>2020-08-04T14:23:09.896Z</time>
      </trkpt>
      <trkpt lat="63.39721" lon="9.00733">
        <ele>50.27718</ele>
        <time>2020-08-04T14:23:53.884Z</time>
      </trkpt>
      <trkpt lat="63.39932" lon="9.00965">
        <ele>50.020707</ele>
        <time>2020-08-04T14:24:37.919Z</time>
      </trkpt>
      <trkpt lat="63.40119" lon="9.00711">
        <ele>62.685595</ele>
        <time>2020-08-04T14:25:58.908Z</time>
      </trkpt>
      <trkpt lat="63.40388" lon="9.00572">
        <ele>62.91253</ele>
        <time>2020-08-04T14:26:50.905Z</time>
      </trkpt>
      <trkpt lat="63.40592" lon="9.00319">
        <ele>60.090593</ele>
        <time>2020-08-04T14:27:53.916Z</time>
      </trkpt>
      <trkpt lat="63.40814" lon="9.00185">
        <ele>60.93552</ele>
        <time>2020-08-04T14:28:57.891Z</time>
      </trkpt>
      <trkpt lat="63.40835" lon="9.00576">
        <ele>74.213636</ele>
        <time>2020-08-04T14:30:20.921Z</time>
      </trkpt>
      <trkpt lat="63.4069" lon="9.01009">
        <ele>83.285397</ele>
        <time>2020-08-04T14:31:17.889Z</time>
      </trkpt>
      <trkpt lat="63.40941" lon="9.00883">
        <ele>64.716673</ele>
        <time>2020-08-04T14:32:00.890Z</time>
      </trkpt>
      <trkpt lat="63.41089" lon="9.01074">
        <ele>65.695217</ele>
        <time>2020-08-04T14:33:28.907Z</time>
      </trkpt>
      <trkpt lat="63.41164" lon="9.01546">
        <ele>70.704239</ele>
        <time>2020-08-04T14:34:53.921Z</time>
      </trkpt>
      <trkpt lat="63.41134" lon="9.02104">
        <ele>75.889057</ele>
        <time>2020-08-04T14:35:44.925Z</time>
      </trkpt>
      <trkpt lat="63.41149" lon="9.02637">
        <ele>81.872998</ele>
        <time>2020-08-04T14:37:05.909Z</time>
      </trkpt>
      <trkpt lat="63.41303" lon="9.02876">
        <ele>68.431288</ele>
        <time>2020-08-04T14:38:02.900Z</time>
      </trkpt>
      <trkpt lat="63.41528" lon="9.0254">
        <ele>65.070829</ele>
        <time>2020-08-04T14:39:09.893Z</time>
      </trkpt>
    </trkseg>
  </trk>
  <trk>
    <name><![CDATA[Tour d'Europe: étape 038]]></name>
    <trkseg>
      <trkpt lat="63.41558" lon="9.0252">
        <ele>63.032022</ele>
        <time>2020-08-05T07:48:48.317Z</time>
      </trkpt>
      <trkpt lat="63.41378" lon="9.02811">
        <ele>63.944425</ele>
        <time>2020-08-05T07:49:35.314Z</time>
      </trkpt>
      <trkpt lat="63.41197" lon="9.02869">
        <ele>76.288946</ele>
        <time>2020-08-05T07:51:20.323Z</time>
      </trkpt>
      <trkpt lat="63.41144" lon="9.02339">
        <ele>88.47172</ele>
        <time>2020-08-05T07:52:25.320Z</time>
      </trkpt>
      <trkpt lat="63.41141" lon="9.01815">
        <ele>83.226822</ele>
        <time>2020-08-05T07:53:05.348Z</time>
      </trkpt>
      <trkpt lat="63.41154" lon="9.01349">
        <ele>81.914141</ele>
        <time>2020-08-05T07:54:05.312Z</time>
      </trkpt>
      <trkpt lat="63.41017" lon="9.0081">
        <ele>73.01052</ele>
        <time>2020-08-05T07:54:47.318Z</time>
      </trkpt>
      <trkpt lat="63.40808" lon="9.01022">
        <ele>59.430631</ele>
        <time>2020-08-05T07:55:16.314Z</time>
      </trkpt>
      <trkpt lat="63.40676" lon="9.0085">
        <ele>74.082061</ele>
        <time>2020-08-05T07:56:24.311Z</time>
      </trkpt>
      <trkpt lat="63.40848" lon="9.00576">
        <ele>83.899052</ele>
        <time>2020-08-05T07:57:39.321Z</time>
      </trkpt>
      <trkpt lat="63.40757" lon="9.00159">
        <ele>63.824034</ele>
        <time>2020-08-05T07:58:19.318Z</time>
      </trkpt>
      <trkpt lat="63.40526" lon="9.00385">
        <ele>58.419003</ele>
        <time>2020-08-05T07:59:02.306Z</time>
      </trkpt>
      <trkpt lat="63.40298" lon="9.00605">
        <ele>56.525129</ele>
        <time>2020-08-05T07:59:49.347Z</time>
      </trkpt>
      <trkpt lat="63.4011" lon="9.00707">
        <ele>55.835006</ele>
        <time>2020-08-05T08:00:53.332Z</time>
      </trkpt>
      <trkpt lat="63.39909" lon="9.00953">
        <ele>53.338127</ele>
        <time>2020-08-05T08:01:27.303Z</time>
      </trkpt>
      <trkpt lat="63.39712" lon="9.0071">
        <ele>55.745707</ele>
        <time>2020-08-05T08:02:20.302Z</time>
      </trkpt>
      <trkpt lat="63.39534" lon="9.00444">
        <ele>58.360291</ele>
        <time>2020-08-05T08:03:20.299Z</time>
      </trkpt>
      <trkpt lat="63.39398" lon="9.0008">
        <ele>61.275501</ele>
        <time>2020-08-05T08:04:40.311Z</time>
      </trkpt>
      <trkpt lat="63.39274" lon="8.99722">
        <ele>64.19518</ele>
        <time>2020-08-05T08:05:43.308Z</time>
      </trkpt>
      <trkpt lat="63.39153" lon="8.99327">
        <ele>68.001156</ele>
        <time>2020-08-05T08:06:43.299Z</time>
      </trkpt>
      <trkpt lat="63.39116" lon="8.98872">
        <ele>81.121241</ele>
        <time>2020-08-05T08:07:50.309Z</time>
      </trkpt>
      <trkpt lat="63.3898" lon="8.98542">
        <ele>81.855722</ele>
        <time>2020-08-05T08:09:06.313Z</time>
      </trkpt>
      <trkpt lat="63.38809" lon="8.98598">
        <ele>95.453786</ele>
        <time>2020-08-05T08:10:44.333Z</time>
      </trkpt>
      <trkpt lat="63.38658" lon="8.98936">
        <ele>96.410394</ele>
        <time>2020-08-05T08:11:39.354Z</time>
      </trkpt>
      <trkpt lat="63.38606" lon="8.99368">
        <ele>95.483258</ele>
        <time>2020-08-05T08:12:48.353Z</time>
      </trkpt>
      <trkpt lat="63.38477" lon="8.99699">
        <ele>98.931367</ele>
        <time>2020-08-05T08:14:01.319Z</time>
      </trkpt>
      <trkpt lat="63.3831" lon="8.99989">
        <ele>102.391176</ele>
        <time>2020-08-05T08:15:21.330Z</time>
      </trkpt>
      <trkpt lat="63.38103" lon="9.00112">
        <ele>98.867246</ele>
        <time>2020-08-05T08:16:23.311Z</time>
      </trkpt>
      <trkpt lat="63.37884" lon="9.00061">
        <ele>96.967086</ele>
        <time>2020-08-05T08:17:23.303Z</time>
      </trkpt>
      <trkpt lat="63.37679" lon="9.00008">
        <ele>98.740709</ele>
        <time>2020-08-05T08:18:25.323Z</time>
      </trkpt>
      <trkpt lat="63.37469" lon="8.99982">
        <ele>101.056132</ele>
        <time>2020-08-05T08:19:17.342Z</time>
      </trkpt>
      <trkpt lat="63.37283" lon="9.00168">
        <ele>108.737037</ele>
        <time>2020-08-05T08:20:41.363Z</time>
      </trkpt>
      <trkpt lat="63.37099" lon="9.00359">
        <ele>114.046208</ele>
        <time>2020-08-05T08:22:00.335Z</time>
      </trkpt>
      <trkpt lat="63.36878" lon="9.00438">
        <ele>109.256631</ele>
        <time>2020-08-05T08:22:53.342Z</time>
      </trkpt>
      <trkpt lat="63.3666" lon="9.00485">
        <ele>105.211171</ele>
        <time>2020-08-05T08:23:23.317Z</time>
      </trkpt>
      <trkpt lat="63.36449" lon="9.00701">
        <ele>101.68315</ele>
        <time>2020-08-05T08:23:57.320Z</time>
      </trkpt>
      <trkpt lat="63.36318" lon="9.01003">
        <ele>101.545122</ele>
        <time>2020-08-05T08:24:37.344Z</time>
      </trkpt>
      <trkpt lat="63.36237" lon="9.01382">
        <ele>101.103632</ele>
        <time>2020-08-05T08:25:19.311Z</time>
      </trkpt>
      <trkpt lat="63.36074" lon="9.01648">
        <ele>110.458204</ele>
        <time>2020-08-05T08:26:45.331Z</time>
      </trkpt>
      <trkpt lat="63.35921" lon="9.01915">
        <ele>121.062052</ele>
        <time>2020-08-05T08:28:50.333Z</time>
      </trkpt>
      <trkpt lat="63.35725" lon="9.01918">
        <ele>130.200177</ele>
        <time>2020-08-05T08:30:38.318Z</time>
      </trkpt>
      <trkpt lat="63.35577" lon="9.01656">
        <ele>138.97389</ele>
        <time>2020-08-05T08:32:53.355Z</time>
      </trkpt>
      <trkpt lat="63.35438" lon="9.01273">
        <ele>141.304513</ele>
        <time>2020-08-05T08:33:55.312Z</time>
      </trkpt>
      <trkpt lat="63.35271" lon="9.0102">
        <ele>146.198803</ele>
        <time>2020-08-05T08:35:14.334Z</time>
      </trkpt>
      <trkpt lat="63.35097" lon="9.00825">
        <ele>154.280857</ele>
        <time>2020-08-05T08:37:03.355Z</time>
      </trkpt>
      <trkpt lat="63.34923" lon="9.00561">
        <ele>152.990507</ele>
        <time>2020-08-05T08:38:05.342Z</time>
      </trkpt>
      <trkpt lat="63.34719" lon="9.00236">
        <ele>151.826985</ele>
        <time>2020-08-05T08:38:55.342Z</time>
      </trkpt>
      <trkpt lat="63.34556" lon="8.99988">
        <ele>156.125176</ele>
        <time>2020-08-05T08:39:50.333Z</time>
      </trkpt>
      <trkpt lat="63.3436" lon="8.9985">
        <ele>157.916991</ele>
        <time>2020-08-05T08:40:40.314Z</time>
      </trkpt>
      <trkpt lat="63.34151" lon="8.99753">
        <ele>158.088736</ele>
        <time>2020-08-05T08:41:47.335Z</time>
      </trkpt>
      <trkpt lat="63.33936" lon="8.99714">
        <ele>162.267828</ele>
        <time>2020-08-05T08:42:47.342Z</time>
      </trkpt>
      <trkpt lat="63.33766" lon="8.99953">
        <ele>168.105111</ele>
        <time>2020-08-05T08:44:15.322Z</time>
      </trkpt>
      <trkpt lat="63.336" lon="9.00266">
        <ele>167.113774</ele>
        <time>2020-08-05T08:45:04.326Z</time>
      </trkpt>
      <trkpt lat="63.33408" lon="9.00606">
        <ele>166.110842</ele>
        <time>2020-08-05T08:46:04.309Z</time>
      </trkpt>
      <trkpt lat="63.33211" lon="9.00834">
        <ele>167.525996</ele>
        <time>2020-08-05T08:47:04.327Z</time>
      </trkpt>
      <trkpt lat="63.32996" lon="9.00956">
        <ele>167.638484</ele>
        <time>2020-08-05T08:48:04.328Z</time>
      </trkpt>
      <trkpt lat="63.32795" lon="9.00773">
        <ele>172.164443</ele>
        <time>2020-08-05T08:49:07.373Z</time>
      </trkpt>
      <trkpt lat="63.32599" lon="9.00677">
        <ele>178.143905</ele>
        <time>2020-08-05T08:50:27.302Z</time>
      </trkpt>
      <trkpt lat="63.32408" lon="9.00785">
        <ele>189.458955</ele>
        <time>2020-08-05T08:51:56.313Z</time>
      </trkpt>
      <trkpt lat="63.32233" lon="9.00962">
        <ele>201.393063</ele>
        <time>2020-08-05T08:53:56.324Z</time>
      </trkpt>
      <trkpt lat="63.32057" lon="9.01179">
        <ele>207.777599</ele>
        <time>2020-08-05T08:55:45.334Z</time>
      </trkpt>
      <trkpt lat="63.31893" lon="9.01465">
        <ele>207.993636</ele>
        <time>2020-08-05T08:57:07.347Z</time>
      </trkpt>
      <trkpt lat="63.31704" lon="9.01523">
        <ele>224.072053</ele>
        <time>2020-08-05T08:59:22.335Z</time>
      </trkpt>
      <trkpt lat="63.31533" lon="9.01693">
        <ele>236.2986</ele>
        <time>2020-08-05T09:01:43.309Z</time>
      </trkpt>
      <trkpt lat="63.3137" lon="9.01941">
        <ele>246.215011</ele>
        <time>2020-08-05T09:03:36.314Z</time>
      </trkpt>
      <trkpt lat="63.31175" lon="9.02">
        <ele>258.11061</ele>
        <time>2020-08-05T09:05:30.370Z</time>
      </trkpt>
      <trkpt lat="63.30996" lon="9.02194">
        <ele>255.36952</ele>
        <time>2020-08-05T09:06:57.379Z</time>
      </trkpt>
      <trkpt lat="63.30796" lon="9.02459">
        <ele>240.005649</ele>
        <time>2020-08-05T09:07:23.375Z</time>
      </trkpt>
      <trkpt lat="63.30568" lon="9.02697">
        <ele>217.029759</ele>
        <time>2020-08-05T09:07:43.311Z</time>
      </trkpt>
      <trkpt lat="63.30385" lon="9.02918">
        <ele>201.477059</ele>
        <time>2020-08-05T09:08:03.331Z</time>
      </trkpt>
      <trkpt lat="63.30207" lon="9.03217">
        <ele>188.710572</ele>
        <time>2020-08-05T09:08:23.322Z</time>
      </trkpt>
      <trkpt lat="63.30044" lon="9.0365">
        <ele>176.610872</ele>
        <time>2020-08-05T09:09:04.323Z</time>
      </trkpt>
      <trkpt lat="63.29887" lon="9.04147">
        <ele>167.737747</ele>
        <time>2020-08-05T09:09:37.323Z</time>
      </trkpt>
      <trkpt lat="63.29839" lon="9.04703">
        <ele>151.406468</ele>
        <time>2020-08-05T09:09:57.362Z</time>
      </trkpt>
      <trkpt lat="63.29859" lon="9.05186">
        <ele>138.957681</ele>
        <time>2020-08-05T09:10:20.306Z</time>
      </trkpt>
      <trkpt lat="63.29763" lon="9.05671">
        <ele>125.002443</ele>
        <time>2020-08-05T09:10:50.341Z</time>
      </trkpt>
      <trkpt lat="63.29716" lon="9.0612">
        <ele>110.303436</ele>
        <time>2020-08-05T09:11:10.341Z</time>
      </trkpt>
      <trkpt lat="63.29625" lon="9.06538">
        <ele>95.939391</ele>
        <time>2020-08-05T09:11:30.365Z</time>
      </trkpt>
      <trkpt lat="63.29504" lon="9.0702">
        <ele>83.961978</ele>
        <time>2020-08-05T09:12:01.318Z</time>
      </trkpt>
      <trkpt lat="63.29487" lon="9.07492">
        <ele>69.932334</ele>
        <time>2020-08-05T09:12:21.369Z</time>
      </trkpt>
      <trkpt lat="63.29416" lon="9.07985">
        <ele>54.26599</ele>
        <time>2020-08-05T09:12:57.327Z</time>
      </trkpt>
      <trkpt lat="63.29266" lon="9.08237">
        <ele>58.397022</ele>
        <time>2020-08-05T09:14:11.326Z</time>
      </trkpt>
      <trkpt lat="63.2926" lon="9.08154">
        <ele>64.383072</ele>
        <time>2020-08-05T09:15:57.311Z</time>
      </trkpt>
      <trkpt lat="63.29166" lon="9.08597">
        <ele>51.626925</ele>
        <time>2020-08-05T09:16:44.322Z</time>
      </trkpt>
      <trkpt lat="63.29029" lon="9.08966">
        <ele>49.279779</ele>
        <time>2020-08-05T09:17:44.330Z</time>
      </trkpt>
      <trkpt lat="63.28846" lon="9.09112">
        <ele>53.18283</ele>
        <time>2020-08-05T09:18:48.348Z</time>
      </trkpt>
      <trkpt lat="63.28659" lon="9.09295">
        <ele>47.632645</ele>
        <time>2020-08-05T09:19:39.336Z</time>
      </trkpt>
      <trkpt lat="63.28613" lon="9.09718">
        <ele>49.050547</ele>
        <time>2020-08-05T09:20:54.361Z</time>
      </trkpt>
      <trkpt lat="63.28717" lon="9.10201">
        <ele>49.628044</ele>
        <time>2020-08-05T09:21:39.342Z</time>
      </trkpt>
      <trkpt lat="63.28882" lon="9.1057">
        <ele>48.773249</ele>
        <time>2020-08-05T09:22:32.312Z</time>
      </trkpt>
      <trkpt lat="63.29021" lon="9.10877">
        <ele>48.51389</ele>
        <time>2020-08-05T09:23:15.331Z</time>
      </trkpt>
      <trkpt lat="63.2912" lon="9.11338">
        <ele>48.515889</ele>
        <time>2020-08-05T09:24:11.325Z</time>
      </trkpt>
      <trkpt lat="63.29328" lon="9.11452">
        <ele>51.422832</ele>
        <time>2020-08-05T09:25:11.333Z</time>
      </trkpt>
      <trkpt lat="63.29417" lon="9.11859">
        <ele>52.127796</ele>
        <time>2020-08-05T09:26:11.322Z</time>
      </trkpt>
      <trkpt lat="63.29562" lon="9.12242">
        <ele>56.50779</ele>
        <time>2020-08-05T09:27:11.317Z</time>
      </trkpt>
      <trkpt lat="63.29737" lon="9.12535">
        <ele>59.040669</ele>
        <time>2020-08-05T09:28:21.301Z</time>
      </trkpt>
      <trkpt lat="63.29927" lon="9.12732">
        <ele>58.694962</ele>
        <time>2020-08-05T09:29:14.355Z</time>
      </trkpt>
      <trkpt lat="63.30121" lon="9.13111">
        <ele>52.982794</ele>
        <time>2020-08-05T09:30:04.323Z</time>
      </trkpt>
      <trkpt lat="63.30324" lon="9.13173">
        <ele>51.585522</ele>
        <time>2020-08-05T09:30:58.321Z</time>
      </trkpt>
      <trkpt lat="63.3051" lon="9.13251">
        <ele>54.064563</ele>
        <time>2020-08-05T09:32:11.343Z</time>
      </trkpt>
      <trkpt lat="63.30742" lon="9.13178">
        <ele>50.674284</ele>
        <time>2020-08-05T09:32:54.339Z</time>
      </trkpt>
      <trkpt lat="63.3094" lon="9.13146">
        <ele>57.070524</ele>
        <time>2020-08-05T09:34:17.327Z</time>
      </trkpt>
      <trkpt lat="63.31061" lon="9.13458">
        <ele>65.799338</ele>
        <time>2020-08-05T09:36:24.332Z</time>
      </trkpt>
      <trkpt lat="63.31146" lon="9.13902">
        <ele>62.991355</ele>
        <time>2020-08-05T09:37:35.356Z</time>
      </trkpt>
      <trkpt lat="63.3123" lon="9.14328">
        <ele>73.352305</ele>
        <time>2020-08-05T09:39:32.338Z</time>
      </trkpt>
      <trkpt lat="63.31378" lon="9.14571">
        <ele>80.197073</ele>
        <time>2020-08-05T09:56:09.323Z</time>
      </trkpt>
      <trkpt lat="63.31577" lon="9.14832">
        <ele>68.228157</ele>
        <time>2020-08-05T09:56:38.341Z</time>
      </trkpt>
      <trkpt lat="63.31794" lon="9.15134">
        <ele>58.888692</ele>
        <time>2020-08-05T09:57:02.358Z</time>
      </trkpt>
      <trkpt lat="63.31905" lon="9.15578">
        <ele>54.601224</ele>
        <time>2020-08-05T09:57:53.332Z</time>
      </trkpt>
      <trkpt lat="63.31991" lon="9.16052">
        <ele>57.307928</ele>
        <time>2020-08-05T09:58:46.327Z</time>
      </trkpt>
      <trkpt lat="63.32058" lon="9.16483">
        <ele>67.044679</ele>
        <time>2020-08-05T09:59:51.319Z</time>
      </trkpt>
      <trkpt lat="63.32138" lon="9.16945">
        <ele>64.568223</ele>
        <time>2020-08-05T10:00:55.325Z</time>
      </trkpt>
      <trkpt lat="63.32279" lon="9.17391">
        <ele>55.920422</ele>
        <time>2020-08-05T10:01:27.347Z</time>
      </trkpt>
      <trkpt lat="63.32423" lon="9.17701">
        <ele>59.018738</ele>
        <time>2020-08-05T10:02:27.336Z</time>
      </trkpt>
      <trkpt lat="63.32525" lon="9.18099">
        <ele>66.322866</ele>
        <time>2020-08-05T10:06:10.332Z</time>
      </trkpt>
      <trkpt lat="63.32859" lon="9.18648">
        <ele>55.638268</ele>
        <time>2020-08-05T10:07:55.345Z</time>
      </trkpt>
      <trkpt lat="63.33045" lon="9.1885">
        <ele>62.616658</ele>
        <time>2020-08-05T10:09:08.332Z</time>
      </trkpt>
      <trkpt lat="63.33206" lon="9.19095">
        <ele>79.183031</ele>
        <time>2020-08-05T10:11:18.312Z</time>
      </trkpt>
      <trkpt lat="63.33285" lon="9.19491">
        <ele>90.625578</ele>
        <time>2020-08-05T10:12:50.348Z</time>
      </trkpt>
      <trkpt lat="63.33296" lon="9.19899">
        <ele>91.763006</ele>
        <time>2020-08-05T10:14:40.329Z</time>
      </trkpt>
      <trkpt lat="63.33376" lon="9.20396">
        <ele>87.001311</ele>
        <time>2020-08-05T10:15:22.351Z</time>
      </trkpt>
      <trkpt lat="63.33564" lon="9.20514">
        <ele>92.33015</ele>
        <time>2020-08-05T10:16:41.313Z</time>
      </trkpt>
      <trkpt lat="63.33652" lon="9.20897">
        <ele>98.573523</ele>
        <time>2020-08-05T10:18:18.317Z</time>
      </trkpt>
      <trkpt lat="63.33723" lon="9.2139">
        <ele>91.091742</ele>
        <time>2020-08-05T10:18:56.323Z</time>
      </trkpt>
      <trkpt lat="63.33734" lon="9.21951">
        <ele>74.803757</ele>
        <time>2020-08-05T10:19:16.353Z</time>
      </trkpt>
      <trkpt lat="63.33604" lon="9.22379">
        <ele>64.377338</ele>
        <time>2020-08-05T10:19:41.335Z</time>
      </trkpt>
      <trkpt lat="63.33367" lon="9.2269">
        <ele>56.967765</ele>
        <time>2020-08-05T10:20:21.304Z</time>
      </trkpt>
      <trkpt lat="63.33154" lon="9.2305">
        <ele>48.932993</ele>
        <time>2020-08-05T10:20:52.351Z</time>
      </trkpt>
      <trkpt lat="63.33126" lon="9.23505">
        <ele>43.318916</ele>
        <time>2020-08-05T10:21:21.313Z</time>
      </trkpt>
      <trkpt lat="63.33228" lon="9.23933">
        <ele>49.256248</ele>
        <time>2020-08-05T10:22:17.354Z</time>
      </trkpt>
      <trkpt lat="63.33389" lon="9.2426">
        <ele>56.588012</ele>
        <time>2020-08-05T10:23:25.338Z</time>
      </trkpt>
      <trkpt lat="63.33579" lon="9.24281">
        <ele>67.709667</ele>
        <time>2020-08-05T10:25:35.326Z</time>
      </trkpt>
      <trkpt lat="63.33773" lon="9.24418">
        <ele>85.421397</ele>
        <time>2020-08-05T10:28:08.403Z</time>
      </trkpt>
      <trkpt lat="63.33935" lon="9.24634">
        <ele>92.978178</ele>
        <time>2020-08-05T10:29:43.364Z</time>
      </trkpt>
      <trkpt lat="63.34194" lon="9.24412">
        <ele>110.568568</ele>
        <time>2020-08-05T10:33:22.352Z</time>
      </trkpt>
      <trkpt lat="63.34365" lon="9.24241">
        <ele>117.244058</ele>
        <time>2020-08-05T10:35:08.344Z</time>
      </trkpt>
      <trkpt lat="63.34529" lon="9.24459">
        <ele>126.483626</ele>
        <time>2020-08-05T10:36:45.349Z</time>
      </trkpt>
      <trkpt lat="63.34691" lon="9.24803">
        <ele>111.07279</ele>
        <time>2020-08-05T10:37:30.337Z</time>
      </trkpt>
      <trkpt lat="63.34868" lon="9.25107">
        <ele>91.179538</ele>
        <time>2020-08-05T10:37:50.351Z</time>
      </trkpt>
      <trkpt lat="63.34857" lon="9.25586">
        <ele>68.382997</ele>
        <time>2020-08-05T10:38:11.329Z</time>
      </trkpt>
      <trkpt lat="63.34646" lon="9.25741">
        <ele>49.404217</ele>
        <time>2020-08-05T10:38:31.314Z</time>
      </trkpt>
      <trkpt lat="63.3464" lon="9.26148">
        <ele>42.679862</ele>
        <time>2020-08-05T10:38:51.395Z</time>
      </trkpt>
      <trkpt lat="63.34781" lon="9.26523">
        <ele>49.235655</ele>
        <time>2020-08-05T10:39:48.364Z</time>
      </trkpt>
      <trkpt lat="63.34911" lon="9.2689">
        <ele>52.119658</ele>
        <time>2020-08-05T10:41:12.335Z</time>
      </trkpt>
      <trkpt lat="63.35064" lon="9.27342">
        <ele>46.723958</ele>
        <time>2020-08-05T10:41:53.339Z</time>
      </trkpt>
      <trkpt lat="63.35253" lon="9.27529">
        <ele>48.448344</ele>
        <time>2020-08-05T10:42:37.348Z</time>
      </trkpt>
      <trkpt lat="63.35331" lon="9.27953">
        <ele>50.607263</ele>
        <time>2020-08-05T10:43:45.372Z</time>
      </trkpt>
      <trkpt lat="63.35342" lon="9.28396">
        <ele>47.606962</ele>
        <time>2020-08-05T10:44:35.319Z</time>
      </trkpt>
      <trkpt lat="63.3552" lon="9.28611">
        <ele>53.322383</ele>
        <time>2020-08-05T10:45:55.343Z</time>
      </trkpt>
      <trkpt lat="63.35692" lon="9.28634">
        <ele>60.981847</ele>
        <time>2020-08-05T10:48:56.358Z</time>
      </trkpt>
      <trkpt lat="63.35552" lon="9.2897">
        <ele>63.803954</ele>
        <time>2020-08-05T10:50:14.361Z</time>
      </trkpt>
      <trkpt lat="63.35442" lon="9.29367">
        <ele>64.452929</ele>
        <time>2020-08-05T10:51:11.336Z</time>
      </trkpt>
      <trkpt lat="63.35534" lon="9.29893">
        <ele>58.604261</ele>
        <time>2020-08-05T10:51:51.369Z</time>
      </trkpt>
      <trkpt lat="63.35646" lon="9.30271">
        <ele>64.971504</ele>
        <time>2020-08-05T10:53:02.336Z</time>
      </trkpt>
      <trkpt lat="63.35722" lon="9.30687">
        <ele>75.58741</ele>
        <time>2020-08-05T10:54:45.332Z</time>
      </trkpt>
      <trkpt lat="63.3568" lon="9.31098">
        <ele>84.710776</ele>
        <time>2020-08-05T10:56:17.359Z</time>
      </trkpt>
      <trkpt lat="63.35584" lon="9.31466">
        <ele>87.700412</ele>
        <time>2020-08-05T10:57:28.391Z</time>
      </trkpt>
      <trkpt lat="63.35623" lon="9.3192">
        <ele>87.408877</ele>
        <time>2020-08-05T10:58:32.346Z</time>
      </trkpt>
      <trkpt lat="63.35723" lon="9.32346">
        <ele>87.711227</ele>
        <time>2020-08-05T10:59:41.353Z</time>
      </trkpt>
      <trkpt lat="63.35733" lon="9.32824">
        <ele>84.143017</ele>
        <time>2020-08-05T11:00:38.330Z</time>
      </trkpt>
      <trkpt lat="63.35634" lon="9.33259">
        <ele>85.290733</ele>
        <time>2020-08-05T11:22:51.395Z</time>
      </trkpt>
      <trkpt lat="63.3566" lon="9.33687">
        <ele>83.256524</ele>
        <time>2020-08-05T11:23:33.339Z</time>
      </trkpt>
      <trkpt lat="63.35621" lon="9.34128">
        <ele>89.802978</ele>
        <time>2020-08-05T11:24:40.325Z</time>
      </trkpt>
      <trkpt lat="63.35562" lon="9.34528">
        <ele>107.810434</ele>
        <time>2020-08-05T11:26:51.344Z</time>
      </trkpt>
      <trkpt lat="63.35661" lon="9.34892">
        <ele>125.588631</ele>
        <time>2020-08-05T11:29:13.347Z</time>
      </trkpt>
      <trkpt lat="63.35653" lon="9.35311">
        <ele>143.999522</ele>
        <time>2020-08-05T11:31:23.397Z</time>
      </trkpt>
      <trkpt lat="63.35569" lon="9.3569">
        <ele>152.833386</ele>
        <time>2020-08-05T11:33:24.342Z</time>
      </trkpt>
      <trkpt lat="63.35404" lon="9.35893">
        <ele>170.816417</ele>
        <time>2020-08-05T11:35:59.338Z</time>
      </trkpt>
      <trkpt lat="63.35566" lon="9.36067">
        <ele>181.746499</ele>
        <time>2020-08-05T11:38:18.363Z</time>
      </trkpt>
      <trkpt lat="63.3563" lon="9.36526">
        <ele>185.272337</ele>
        <time>2020-08-05T11:39:22.359Z</time>
      </trkpt>
      <trkpt lat="63.35668" lon="9.37071">
        <ele>176.712663</ele>
        <time>2020-08-05T11:39:48.354Z</time>
      </trkpt>
      <trkpt lat="63.35624" lon="9.37527">
        <ele>165.387728</ele>
        <time>2020-08-05T11:40:08.334Z</time>
      </trkpt>
      <trkpt lat="63.35552" lon="9.3798">
        <ele>153.308793</ele>
        <time>2020-08-05T11:40:40.336Z</time>
      </trkpt>
      <trkpt lat="63.35566" lon="9.38493">
        <ele>151.623497</ele>
        <time>2020-08-05T11:41:21.375Z</time>
      </trkpt>
      <trkpt lat="63.35527" lon="9.3899">
        <ele>144.458069</ele>
        <time>2020-08-05T11:41:41.337Z</time>
      </trkpt>
      <trkpt lat="63.35436" lon="9.39383">
        <ele>158.9904</ele>
        <time>2020-08-05T11:43:00.334Z</time>
      </trkpt>
      <trkpt lat="63.35277" lon="9.39629">
        <ele>173.025474</ele>
        <time>2020-08-05T11:45:04.341Z</time>
      </trkpt>
      <trkpt lat="63.35083" lon="9.39835">
        <ele>171.203765</ele>
        <time>2020-08-05T11:46:01.323Z</time>
      </trkpt>
      <trkpt lat="63.34956" lon="9.40236">
        <ele>163.023853</ele>
        <time>2020-08-05T11:46:57.326Z</time>
      </trkpt>
      <trkpt lat="63.34784" lon="9.40448">
        <ele>172.520665</ele>
        <time>2020-08-05T11:48:13.350Z</time>
      </trkpt>
      <trkpt lat="63.34659" lon="9.40815">
        <ele>193.875592</ele>
        <time>2020-08-05T11:49:45.352Z</time>
      </trkpt>
      <trkpt lat="63.34513" lon="9.41112">
        <ele>192.942626</ele>
        <time>2020-08-05T11:50:58.346Z</time>
      </trkpt>
      <trkpt lat="63.34399" lon="9.41498">
        <ele>177.457605</ele>
        <time>2020-08-05T11:51:58.330Z</time>
      </trkpt>
      <trkpt lat="63.34294" lon="9.41865">
        <ele>180.545265</ele>
        <time>2020-08-05T11:53:01.334Z</time>
      </trkpt>
      <trkpt lat="63.34156" lon="9.42166">
        <ele>191.529198</ele>
        <time>2020-08-05T11:54:40.346Z</time>
      </trkpt>
      <trkpt lat="63.33997" lon="9.42432">
        <ele>199.542547</ele>
        <time>2020-08-05T11:56:09.330Z</time>
      </trkpt>
      <trkpt lat="63.33811" lon="9.42562">
        <ele>213.496343</ele>
        <time>2020-08-05T11:58:10.357Z</time>
      </trkpt>
      <trkpt lat="63.33632" lon="9.42701">
        <ele>218.542509</ele>
        <time>2020-08-05T11:59:51.334Z</time>
      </trkpt>
      <trkpt lat="63.33438" lon="9.4278">
        <ele>221.62581</ele>
        <time>2020-08-05T12:01:04.362Z</time>
      </trkpt>
      <trkpt lat="63.33242" lon="9.43024">
        <ele>229.687334</ele>
        <time>2020-08-05T12:02:08.376Z</time>
      </trkpt>
      <trkpt lat="63.33045" lon="9.43226">
        <ele>231.627747</ele>
        <time>2020-08-05T12:03:14.322Z</time>
      </trkpt>
      <trkpt lat="63.32816" lon="9.43317">
        <ele>231.939829</ele>
        <time>2020-08-05T12:04:13.320Z</time>
      </trkpt>
      <trkpt lat="63.32635" lon="9.43538">
        <ele>233.86622</ele>
        <time>2020-08-05T12:05:31.322Z</time>
      </trkpt>
      <trkpt lat="63.32441" lon="9.43517">
        <ele>237.471874</ele>
        <time>2020-08-05T12:10:33.333Z</time>
      </trkpt>
      <trkpt lat="63.32234" lon="9.43483">
        <ele>237.357284</ele>
        <time>2020-08-05T12:11:46.373Z</time>
      </trkpt>
      <trkpt lat="63.32015" lon="9.43446">
        <ele>244.1259</ele>
        <time>2020-08-05T12:13:05.332Z</time>
      </trkpt>
      <trkpt lat="63.31802" lon="9.43367">
        <ele>252.182313</ele>
        <time>2020-08-05T12:14:25.379Z</time>
      </trkpt>
      <trkpt lat="63.316" lon="9.43289">
        <ele>253.959538</ele>
        <time>2020-08-05T12:15:48.339Z</time>
      </trkpt>
      <trkpt lat="63.31463" lon="9.43584">
        <ele>266.109284</ele>
        <time>2020-08-05T12:17:30.359Z</time>
      </trkpt>
      <trkpt lat="63.31324" lon="9.43616">
        <ele>287.480705</ele>
        <time>2020-08-05T12:20:04.325Z</time>
      </trkpt>
      <trkpt lat="63.31184" lon="9.43412">
        <ele>306.443015</ele>
        <time>2020-08-05T12:22:33.336Z</time>
      </trkpt>
      <trkpt lat="63.31004" lon="9.43283">
        <ele>320.143518</ele>
        <time>2020-08-05T12:25:03.334Z</time>
      </trkpt>
      <trkpt lat="63.30886" lon="9.43592">
        <ele>334.2035</ele>
        <time>2020-08-05T12:27:28.394Z</time>
      </trkpt>
      <trkpt lat="63.30818" lon="9.43983">
        <ele>346.189378</ele>
        <time>2020-08-05T12:29:38.358Z</time>
      </trkpt>
      <trkpt lat="63.30744" lon="9.44378">
        <ele>358.033525</ele>
        <time>2020-08-05T12:32:01.354Z</time>
      </trkpt>
      <trkpt lat="63.30662" lon="9.44766">
        <ele>369.230319</ele>
        <time>2020-08-05T12:34:25.354Z</time>
      </trkpt>
      <trkpt lat="63.30686" lon="9.45199">
        <ele>379.018258</ele>
        <time>2020-08-05T12:36:21.346Z</time>
      </trkpt>
      <trkpt lat="63.30724" lon="9.45631">
        <ele>393.532796</ele>
        <time>2020-08-05T12:38:35.336Z</time>
      </trkpt>
      <trkpt lat="63.30773" lon="9.46041">
        <ele>408.828802</ele>
        <time>2020-08-05T12:40:31.335Z</time>
      </trkpt>
      <trkpt lat="63.30846" lon="9.46446">
        <ele>420.514163</ele>
        <time>2020-08-05T12:42:51.357Z</time>
      </trkpt>
      <trkpt lat="63.30855" lon="9.46863">
        <ele>435.34531</ele>
        <time>2020-08-05T12:45:23.366Z</time>
      </trkpt>
      <trkpt lat="63.30913" lon="9.47273">
        <ele>446.996563</ele>
        <time>2020-08-05T12:47:33.352Z</time>
      </trkpt>
      <trkpt lat="63.31034" lon="9.47605">
        <ele>457.768598</ele>
        <time>2020-08-05T12:49:33.326Z</time>
      </trkpt>
      <trkpt lat="63.31105" lon="9.48047">
        <ele>460.293953</ele>
        <time>2020-08-05T12:51:01.356Z</time>
      </trkpt>
      <trkpt lat="63.31177" lon="9.48491">
        <ele>455.184433</ele>
        <time>2020-08-05T12:51:43.386Z</time>
      </trkpt>
      <trkpt lat="63.31262" lon="9.49079">
        <ele>448.326637</ele>
        <time>2020-08-05T12:52:23.337Z</time>
      </trkpt>
      <trkpt lat="63.31302" lon="9.49685">
        <ele>442.449676</ele>
        <time>2020-08-05T12:53:03.371Z</time>
      </trkpt>
      <trkpt lat="63.31344" lon="9.50172">
        <ele>439.618313</ele>
        <time>2020-08-05T12:57:59.360Z</time>
      </trkpt>
      <trkpt lat="63.31414" lon="9.50664">
        <ele>434.967144</ele>
        <time>2020-08-05T12:58:42.333Z</time>
      </trkpt>
      <trkpt lat="63.31489" lon="9.51175">
        <ele>426.448921</ele>
        <time>2020-08-05T12:59:07.392Z</time>
      </trkpt>
      <trkpt lat="63.31559" lon="9.51666">
        <ele>414.141275</ele>
        <time>2020-08-05T12:59:27.363Z</time>
      </trkpt>
      <trkpt lat="63.31729" lon="9.51993">
        <ele>396.331288</ele>
        <time>2020-08-05T12:59:47.325Z</time>
      </trkpt>
      <trkpt lat="63.31957" lon="9.52285">
        <ele>371.609703</ele>
        <time>2020-08-05T13:00:07.362Z</time>
      </trkpt>
      <trkpt lat="63.32089" lon="9.52671">
        <ele>350.320606</ele>
        <time>2020-08-05T13:00:27.342Z</time>
      </trkpt>
      <trkpt lat="63.32051" lon="9.53029">
        <ele>348.7143</ele>
        <time>2020-08-05T13:01:05.362Z</time>
      </trkpt>
      <trkpt lat="63.31902" lon="9.53371">
        <ele>356.569247</ele>
        <time>2020-08-05T13:02:05.363Z</time>
      </trkpt>
      <trkpt lat="63.31796" lon="9.53789">
        <ele>351.731046</ele>
        <time>2020-08-05T13:02:50.333Z</time>
      </trkpt>
      <trkpt lat="63.31708" lon="9.54249">
        <ele>349.719761</ele>
        <time>2020-08-05T13:03:35.367Z</time>
      </trkpt>
      <trkpt lat="63.31648" lon="9.54712">
        <ele>351.223014</ele>
        <time>2020-08-05T13:04:38.343Z</time>
      </trkpt>
      <trkpt lat="63.31586" lon="9.55182">
        <ele>350.670641</ele>
        <time>2020-08-05T13:05:32.388Z</time>
      </trkpt>
      <trkpt lat="63.31467" lon="9.55594">
        <ele>352.437968</ele>
        <time>2020-08-05T13:06:24.366Z</time>
      </trkpt>
      <trkpt lat="63.31247" lon="9.55722">
        <ele>350.142003</ele>
        <time>2020-08-05T13:07:10.422Z</time>
      </trkpt>
      <trkpt lat="63.31095" lon="9.56022">
        <ele>353.730456</ele>
        <time>2020-08-05T13:08:17.345Z</time>
      </trkpt>
      <trkpt lat="63.31027" lon="9.56459">
        <ele>354.53846</ele>
        <time>2020-08-05T13:09:29.364Z</time>
      </trkpt>
      <trkpt lat="63.30931" lon="9.56865">
        <ele>354.550287</ele>
        <time>2020-08-05T13:10:43.363Z</time>
      </trkpt>
      <trkpt lat="63.30804" lon="9.57279">
        <ele>352.580668</ele>
        <time>2020-08-05T13:11:39.345Z</time>
      </trkpt>
      <trkpt lat="63.30683" lon="9.57674">
        <ele>347.676217</ele>
        <time>2020-08-05T13:12:19.324Z</time>
      </trkpt>
      <trkpt lat="63.30557" lon="9.58221">
        <ele>337.216444</ele>
        <time>2020-08-05T13:12:52.366Z</time>
      </trkpt>
      <trkpt lat="63.30467" lon="9.58629">
        <ele>327.923882</ele>
        <time>2020-08-05T13:13:14.364Z</time>
      </trkpt>
      <trkpt lat="63.30328" lon="9.58954">
        <ele>317.46712</ele>
        <time>2020-08-05T13:13:34.366Z</time>
      </trkpt>
      <trkpt lat="63.302" lon="9.59285">
        <ele>308.340768</ele>
        <time>2020-08-05T13:13:54.363Z</time>
      </trkpt>
      <trkpt lat="63.29941" lon="9.59686">
        <ele>299.196036</ele>
        <time>2020-08-05T13:14:32.328Z</time>
      </trkpt>
      <trkpt lat="63.29741" lon="9.59927">
        <ele>296.568054</ele>
        <time>2020-08-05T13:15:12.351Z</time>
      </trkpt>
      <trkpt lat="63.29554" lon="9.60214">
        <ele>290.079823</ele>
        <time>2020-08-05T13:15:52.342Z</time>
      </trkpt>
      <trkpt lat="63.29297" lon="9.60672">
        <ele>282.904801</ele>
        <time>2020-08-05T13:16:32.337Z</time>
      </trkpt>
      <trkpt lat="63.29042" lon="9.60912">
        <ele>272.159306</ele>
        <time>2020-08-05T13:17:06.358Z</time>
      </trkpt>
      <trkpt lat="63.28937" lon="9.61244">
        <ele>261.715323</ele>
        <time>2020-08-05T13:17:27.367Z</time>
      </trkpt>
      <trkpt lat="63.28854" lon="9.6162">
        <ele>253.802672</ele>
        <time>2020-08-05T13:17:47.388Z</time>
      </trkpt>
      <trkpt lat="63.28795" lon="9.62064">
        <ele>246.656244</ele>
        <time>2020-08-05T13:18:07.382Z</time>
      </trkpt>
      <trkpt lat="63.28819" lon="9.62577">
        <ele>231.37318</ele>
        <time>2020-08-05T13:18:27.338Z</time>
      </trkpt>
      <trkpt lat="63.28724" lon="9.63004">
        <ele>223.064394</ele>
        <time>2020-08-05T13:18:50.342Z</time>
      </trkpt>
      <trkpt lat="63.28617" lon="9.6342">
        <ele>215.835467</ele>
        <time>2020-08-05T13:19:37.400Z</time>
      </trkpt>
      <trkpt lat="63.28545" lon="9.63891">
        <ele>211.579337</ele>
        <time>2020-08-05T13:20:06.361Z</time>
      </trkpt>
      <trkpt lat="63.28427" lon="9.64268">
        <ele>208.53512</ele>
        <time>2020-08-05T13:21:09.323Z</time>
      </trkpt>
      <trkpt lat="63.28291" lon="9.64793">
        <ele>204.024904</ele>
        <time>2020-08-05T13:22:02.375Z</time>
      </trkpt>
      <trkpt lat="63.28161" lon="9.64521">
        <ele>218.995129</ele>
        <time>2020-08-05T13:23:52.326Z</time>
      </trkpt>
      <trkpt lat="63.28004" lon="9.64273">
        <ele>230.477988</ele>
        <time>2020-08-05T13:30:02.362Z</time>
      </trkpt>
      <trkpt lat="63.27844" lon="9.64017">
        <ele>234.945653</ele>
        <time>2020-08-05T13:31:42.381Z</time>
      </trkpt>
      <trkpt lat="63.27673" lon="9.64067">
        <ele>236.575612</ele>
        <time>2020-08-05T13:32:54.345Z</time>
      </trkpt>
      <trkpt lat="63.27641" lon="9.64513">
        <ele>234.803321</ele>
        <time>2020-08-05T13:33:52.356Z</time>
      </trkpt>
      <trkpt lat="63.27687" lon="9.64974">
        <ele>231.509747</ele>
        <time>2020-08-05T13:34:32.354Z</time>
      </trkpt>
      <trkpt lat="63.27799" lon="9.65384">
        <ele>228.703185</ele>
        <time>2020-08-05T13:35:12.411Z</time>
      </trkpt>
      <trkpt lat="63.27955" lon="9.65876">
        <ele>224.075916</ele>
        <time>2020-08-05T13:35:52.358Z</time>
      </trkpt>
      <trkpt lat="63.28102" lon="9.66357">
        <ele>219.420761</ele>
        <time>2020-08-05T13:36:34.364Z</time>
      </trkpt>
      <trkpt lat="63.28234" lon="9.66737">
        <ele>224.754727</ele>
        <time>2020-08-05T13:37:29.367Z</time>
      </trkpt>
      <trkpt lat="63.28302" lon="9.67202">
        <ele>215.023392</ele>
        <time>2020-08-05T13:38:12.366Z</time>
      </trkpt>
      <trkpt lat="63.28414" lon="9.67773">
        <ele>204.295655</ele>
        <time>2020-08-05T13:38:50.329Z</time>
      </trkpt>
      <trkpt lat="63.28482" lon="9.68198">
        <ele>200.134384</ele>
        <time>2020-08-05T13:39:12.381Z</time>
      </trkpt>
      <trkpt lat="63.28603" lon="9.68669">
        <ele>200.902942</ele>
        <time>2020-08-05T13:39:52.355Z</time>
      </trkpt>
      <trkpt lat="63.28646" lon="9.69172">
        <ele>199.681446</ele>
        <time>2020-08-05T13:40:37.350Z</time>
      </trkpt>
      <trkpt lat="63.28673" lon="9.69596">
        <ele>198.830522</ele>
        <time>2020-08-05T13:41:19.399Z</time>
      </trkpt>
      <trkpt lat="63.28605" lon="9.69943">
        <ele>216.275228</ele>
        <time>2020-08-05T13:43:11.357Z</time>
      </trkpt>
      <trkpt lat="63.2862" lon="9.7036">
        <ele>232.697245</ele>
        <time>2020-08-05T13:45:36.350Z</time>
      </trkpt>
      <trkpt lat="63.28531" lon="9.70744">
        <ele>247.451917</ele>
        <time>2020-08-05T13:47:49.360Z</time>
      </trkpt>
      <trkpt lat="63.28347" lon="9.71067">
        <ele>247.470928</ele>
        <time>2020-08-05T13:48:50.335Z</time>
      </trkpt>
      <trkpt lat="63.28131" lon="9.71209">
        <ele>244.518896</ele>
        <time>2020-08-05T13:49:37.343Z</time>
      </trkpt>
      <trkpt lat="63.27939" lon="9.7144">
        <ele>239.188065</ele>
        <time>2020-08-05T13:50:27.397Z</time>
      </trkpt>
      <trkpt lat="63.2772" lon="9.71627">
        <ele>229.424548</ele>
        <time>2020-08-05T13:50:53.379Z</time>
      </trkpt>
      <trkpt lat="63.27582" lon="9.72052">
        <ele>215.445621</ele>
        <time>2020-08-05T13:51:19.362Z</time>
      </trkpt>
      <trkpt lat="63.27542" lon="9.7256">
        <ele>205.436956</ele>
        <time>2020-08-05T13:51:44.340Z</time>
      </trkpt>
      <trkpt lat="63.27607" lon="9.73073">
        <ele>194.99761</ele>
        <time>2020-08-05T13:52:06.356Z</time>
      </trkpt>
      <trkpt lat="63.27647" lon="9.73642">
        <ele>193.325679</ele>
        <time>2020-08-05T13:52:46.370Z</time>
      </trkpt>
      <trkpt lat="63.27798" lon="9.73977">
        <ele>195.276729</ele>
        <time>2020-08-05T13:53:48.355Z</time>
      </trkpt>
      <trkpt lat="63.27807" lon="9.74439">
        <ele>196.301106</ele>
        <time>2020-08-05T13:54:46.379Z</time>
      </trkpt>
      <trkpt lat="63.27772" lon="9.75004">
        <ele>191.539321</ele>
        <time>2020-08-05T13:55:37.359Z</time>
      </trkpt>
      <trkpt lat="63.2772" lon="9.75511">
        <ele>187.808001</ele>
        <time>2020-08-05T13:56:23.383Z</time>
      </trkpt>
      <trkpt lat="63.2773" lon="9.76001">
        <ele>189.196694</ele>
        <time>2020-08-05T13:57:13.353Z</time>
      </trkpt>
      <trkpt lat="63.27799" lon="9.76426">
        <ele>194.142255</ele>
        <time>2020-08-05T13:58:22.414Z</time>
      </trkpt>
      <trkpt lat="63.27838" lon="9.76895">
        <ele>193.968086</ele>
        <time>2020-08-05T13:59:17.360Z</time>
      </trkpt>
      <trkpt lat="63.27924" lon="9.77346">
        <ele>189.904925</ele>
        <time>2020-08-05T14:00:05.380Z</time>
      </trkpt>
      <trkpt lat="63.27988" lon="9.77785">
        <ele>195.06266</ele>
        <time>2020-08-05T14:01:06.366Z</time>
      </trkpt>
      <trkpt lat="63.28155" lon="9.78004">
        <ele>189.257276</ele>
        <time>2020-08-05T14:01:48.351Z</time>
      </trkpt>
      <trkpt lat="63.28227" lon="9.78457">
        <ele>181.49863</ele>
        <time>2020-08-05T14:02:28.406Z</time>
      </trkpt>
      <trkpt lat="63.28224" lon="9.79013">
        <ele>165.91867</ele>
        <time>2020-08-05T14:03:08.362Z</time>
      </trkpt>
      <trkpt lat="63.28109" lon="9.79508">
        <ele>138.125016</ele>
        <time>2020-08-05T14:03:47.364Z</time>
      </trkpt>
      <trkpt lat="63.28063" lon="9.80077">
        <ele>111.753436</ele>
        <time>2020-08-05T14:04:28.372Z</time>
      </trkpt>
      <trkpt lat="63.28077" lon="9.80566">
        <ele>81.21912</ele>
        <time>2020-08-05T14:05:08.380Z</time>
      </trkpt>
      <trkpt lat="63.2809" lon="9.81003">
        <ele>59.802913</ele>
        <time>2020-08-05T14:06:16.389Z</time>
      </trkpt>
      <trkpt lat="63.28294" lon="9.81247">
        <ele>54.066974</ele>
        <time>2020-08-05T14:06:56.379Z</time>
      </trkpt>
      <trkpt lat="63.28541" lon="9.81266">
        <ele>52.881209</ele>
        <time>2020-08-05T14:07:36.349Z</time>
      </trkpt>
      <trkpt lat="63.28739" lon="9.81535">
        <ele>49.805213</ele>
        <time>2020-08-05T14:08:16.346Z</time>
      </trkpt>
      <trkpt lat="63.28889" lon="9.81887">
        <ele>46.626136</ele>
        <time>2020-08-05T14:08:56.368Z</time>
      </trkpt>
      <trkpt lat="63.29027" lon="9.82232">
        <ele>50.555271</ele>
        <time>2020-08-05T14:09:39.353Z</time>
      </trkpt>
      <trkpt lat="63.29164" lon="9.82644">
        <ele>48.807481</ele>
        <time>2020-08-05T14:10:33.401Z</time>
      </trkpt>
      <trkpt lat="63.29373" lon="9.82842">
        <ele>46.746377</ele>
        <time>2020-08-05T14:11:15.359Z</time>
      </trkpt>
      <trkpt lat="63.29603" lon="9.82845">
        <ele>44.196154</ele>
        <time>2020-08-05T14:11:55.399Z</time>
      </trkpt>
      <trkpt lat="63.29764" lon="9.82954">
        <ele>42.992699</ele>
        <time>2020-08-05T14:12:48.363Z</time>
      </trkpt>
      <trkpt lat="63.29736" lon="9.83469">
        <ele>45.117027</ele>
        <time>2020-08-05T14:13:43.379Z</time>
      </trkpt>
      <trkpt lat="63.29711" lon="9.8396">
        <ele>48.077134</ele>
        <time>2020-08-05T14:14:43.361Z</time>
      </trkpt>
      <trkpt lat="63.29686" lon="9.84412">
        <ele>51.563454</ele>
        <time>2020-08-05T14:15:43.371Z</time>
      </trkpt>
      <trkpt lat="63.29787" lon="9.84546">
        <ele>47.913508</ele>
        <time>2020-08-05T14:17:51.361Z</time>
      </trkpt>
      <trkpt lat="63.29683" lon="9.84467">
        <ele>52.274802</ele>
        <time>2020-08-05T15:39:08.578Z</time>
      </trkpt>
      <trkpt lat="63.2971" lon="9.83987">
        <ele>55.610299</ele>
        <time>2020-08-05T15:40:05.575Z</time>
      </trkpt>
      <trkpt lat="63.29775" lon="9.8357">
        <ele>52.1333</ele>
        <time>2020-08-05T15:40:56.577Z</time>
      </trkpt>
      <trkpt lat="63.29932" lon="9.83693">
        <ele>50.193042</ele>
        <time>2020-08-05T15:42:03.602Z</time>
      </trkpt>
    </trkseg>
  </trk>
  <trk>
    <name><![CDATA[Tour d'Europe: étape 039]]></name>
    <trkseg>
      <trkpt lat="63.29744" lon="9.83999">
        <ele>46.670233</ele>
        <time>2020-08-06T08:19:09.102Z</time>
      </trkpt>
      <trkpt lat="63.29685" lon="9.84386">
        <ele>56.198024</ele>
        <time>2020-08-06T08:20:31.161Z</time>
      </trkpt>
      <trkpt lat="63.2976" lon="9.84693">
        <ele>61.509894</ele>
        <time>2020-08-06T08:21:43.144Z</time>
      </trkpt>
      <trkpt lat="63.29941" lon="9.84618">
        <ele>60.954898</ele>
        <time>2020-08-06T08:22:48.133Z</time>
      </trkpt>
      <trkpt lat="63.30031" lon="9.84711">
        <ele>62.293134</ele>
        <time>2020-08-06T08:28:48.094Z</time>
      </trkpt>
      <trkpt lat="63.3023" lon="9.8482">
        <ele>64.964073</ele>
        <time>2020-08-06T08:32:36.130Z</time>
      </trkpt>
      <trkpt lat="63.30445" lon="9.84893">
        <ele>64.786662</ele>
        <time>2020-08-06T08:33:37.137Z</time>
      </trkpt>
      <trkpt lat="63.30669" lon="9.85034">
        <ele>64.896232</ele>
        <time>2020-08-06T08:34:31.134Z</time>
      </trkpt>
      <trkpt lat="63.30853" lon="9.85319">
        <ele>63.606406</ele>
        <time>2020-08-06T08:35:37.128Z</time>
      </trkpt>
      <trkpt lat="63.30964" lon="9.85698">
        <ele>66.582462</ele>
        <time>2020-08-06T08:36:41.138Z</time>
      </trkpt>
      <trkpt lat="63.31123" lon="9.86069">
        <ele>60.782974</ele>
        <time>2020-08-06T08:37:21.116Z</time>
      </trkpt>
      <trkpt lat="63.31288" lon="9.86502">
        <ele>52.32984</ele>
        <time>2020-08-06T08:38:03.125Z</time>
      </trkpt>
      <trkpt lat="63.31466" lon="9.86723">
        <ele>49.51414</ele>
        <time>2020-08-06T08:38:43.124Z</time>
      </trkpt>
      <trkpt lat="63.31579" lon="9.87081">
        <ele>63.284808</ele>
        <time>2020-08-06T08:40:15.118Z</time>
      </trkpt>
      <trkpt lat="63.31729" lon="9.87448">
        <ele>69.262491</ele>
        <time>2020-08-06T08:41:23.134Z</time>
      </trkpt>
      <trkpt lat="63.31826" lon="9.87856">
        <ele>79.197035</ele>
        <time>2020-08-06T08:43:12.103Z</time>
      </trkpt>
      <trkpt lat="63.31973" lon="9.88197">
        <ele>84.259868</ele>
        <time>2020-08-06T08:44:24.142Z</time>
      </trkpt>
      <trkpt lat="63.32111" lon="9.88531">
        <ele>91.621188</ele>
        <time>2020-08-06T08:45:06.121Z</time>
      </trkpt>
      <trkpt lat="63.32293" lon="9.88942">
        <ele>90.259189</ele>
        <time>2020-08-06T08:45:46.133Z</time>
      </trkpt>
      <trkpt lat="63.32465" lon="9.89337">
        <ele>81.079638</ele>
        <time>2020-08-06T08:46:43.105Z</time>
      </trkpt>
      <trkpt lat="63.32591" lon="9.89686">
        <ele>79.810077</ele>
        <time>2020-08-06T08:47:47.108Z</time>
      </trkpt>
      <trkpt lat="63.32751" lon="9.90175">
        <ele>74.978526</ele>
        <time>2020-08-06T08:48:33.117Z</time>
      </trkpt>
      <trkpt lat="63.32886" lon="9.90684">
        <ele>67.484201</ele>
        <time>2020-08-06T08:49:13.113Z</time>
      </trkpt>
      <trkpt lat="63.33022" lon="9.9125">
        <ele>59.959349</ele>
        <time>2020-08-06T08:49:53.119Z</time>
      </trkpt>
      <trkpt lat="63.33139" lon="9.91708">
        <ele>61.610846</ele>
        <time>2020-08-06T08:50:35.112Z</time>
      </trkpt>
      <trkpt lat="63.33251" lon="9.92108">
        <ele>78.464477</ele>
        <time>2020-08-06T08:51:38.122Z</time>
      </trkpt>
      <trkpt lat="63.33351" lon="9.92571">
        <ele>73.035275</ele>
        <time>2020-08-06T08:52:34.110Z</time>
      </trkpt>
      <trkpt lat="63.33521" lon="9.93026">
        <ele>65.990247</ele>
        <time>2020-08-06T08:53:13.105Z</time>
      </trkpt>
      <trkpt lat="63.33634" lon="9.93485">
        <ele>64.168988</ele>
        <time>2020-08-06T08:54:16.137Z</time>
      </trkpt>
      <trkpt lat="63.33744" lon="9.93897">
        <ele>69.270166</ele>
        <time>2020-08-06T08:55:16.132Z</time>
      </trkpt>
      <trkpt lat="63.3388" lon="9.94249">
        <ele>82.552994</ele>
        <time>2020-08-06T08:56:24.142Z</time>
      </trkpt>
      <trkpt lat="63.33992" lon="9.94635">
        <ele>90.482666</ele>
        <time>2020-08-06T08:57:35.113Z</time>
      </trkpt>
      <trkpt lat="63.34119" lon="9.95029">
        <ele>96.777514</ele>
        <time>2020-08-06T08:58:59.112Z</time>
      </trkpt>
      <trkpt lat="63.34251" lon="9.95388">
        <ele>93.028906</ele>
        <time>2020-08-06T09:00:01.127Z</time>
      </trkpt>
      <trkpt lat="63.34432" lon="9.95683">
        <ele>90.957568</ele>
        <time>2020-08-06T09:00:57.129Z</time>
      </trkpt>
      <trkpt lat="63.34589" lon="9.96016">
        <ele>81.801838</ele>
        <time>2020-08-06T09:01:37.145Z</time>
      </trkpt>
      <trkpt lat="63.34726" lon="9.96506">
        <ele>69.794889</ele>
        <time>2020-08-06T09:02:19.117Z</time>
      </trkpt>
      <trkpt lat="63.34869" lon="9.96988">
        <ele>61.617216</ele>
        <time>2020-08-06T09:02:59.112Z</time>
      </trkpt>
      <trkpt lat="63.34819" lon="9.97441">
        <ele>59.296236</ele>
        <time>2020-08-06T09:03:39.124Z</time>
      </trkpt>
      <trkpt lat="63.34736" lon="9.97856">
        <ele>59.126354</ele>
        <time>2020-08-06T09:04:26.132Z</time>
      </trkpt>
      <trkpt lat="63.34732" lon="9.98399">
        <ele>65.876612</ele>
        <time>2020-08-06T09:05:23.140Z</time>
      </trkpt>
      <trkpt lat="63.34609" lon="9.98836">
        <ele>59.846772</ele>
        <time>2020-08-06T09:06:16.113Z</time>
      </trkpt>
      <trkpt lat="63.34535" lon="9.99364">
        <ele>51.271418</ele>
        <time>2020-08-06T09:06:59.135Z</time>
      </trkpt>
      <trkpt lat="63.34508" lon="9.99872">
        <ele>52.791307</ele>
        <time>2020-08-06T09:07:52.123Z</time>
      </trkpt>
      <trkpt lat="63.34506" lon="10.00364">
        <ele>55.412898</ele>
        <time>2020-08-06T09:08:41.127Z</time>
      </trkpt>
      <trkpt lat="63.34545" lon="10.00841">
        <ele>60.804297</ele>
        <time>2020-08-06T09:09:45.133Z</time>
      </trkpt>
      <trkpt lat="63.34591" lon="10.01298">
        <ele>64.892702</ele>
        <time>2020-08-06T09:10:45.133Z</time>
      </trkpt>
      <trkpt lat="63.34615" lon="10.01754">
        <ele>58.818943</ele>
        <time>2020-08-06T09:11:45.138Z</time>
      </trkpt>
      <trkpt lat="63.34642" lon="10.02218">
        <ele>66.746895</ele>
        <time>2020-08-06T09:12:45.111Z</time>
      </trkpt>
      <trkpt lat="63.3466" lon="10.0269">
        <ele>69.925608</ele>
        <time>2020-08-06T09:13:48.121Z</time>
      </trkpt>
      <trkpt lat="63.34671" lon="10.03152">
        <ele>76.970583</ele>
        <time>2020-08-06T09:15:00.162Z</time>
      </trkpt>
      <trkpt lat="63.34673" lon="10.03582">
        <ele>89.351881</ele>
        <time>2020-08-06T09:16:20.128Z</time>
      </trkpt>
      <trkpt lat="63.34625" lon="10.04002">
        <ele>93.67007</ele>
        <time>2020-08-06T09:17:40.132Z</time>
      </trkpt>
      <trkpt lat="63.34574" lon="10.04456">
        <ele>104.533794</ele>
        <time>2020-08-06T09:18:55.128Z</time>
      </trkpt>
      <trkpt lat="63.34461" lon="10.04946">
        <ele>104.478612</ele>
        <time>2020-08-06T09:19:49.149Z</time>
      </trkpt>
      <trkpt lat="63.34265" lon="10.05444">
        <ele>92.434358</ele>
        <time>2020-08-06T09:20:29.128Z</time>
      </trkpt>
      <trkpt lat="63.34055" lon="10.05688">
        <ele>81.552134</ele>
        <time>2020-08-06T09:21:01.138Z</time>
      </trkpt>
      <trkpt lat="63.33854" lon="10.05838">
        <ele>74.859142</ele>
        <time>2020-08-06T09:21:21.129Z</time>
      </trkpt>
      <trkpt lat="63.33673" lon="10.06099">
        <ele>65.966773</ele>
        <time>2020-08-06T09:21:42.161Z</time>
      </trkpt>
      <trkpt lat="63.3351" lon="10.06468">
        <ele>63.433983</ele>
        <time>2020-08-06T09:22:16.132Z</time>
      </trkpt>
      <trkpt lat="63.33332" lon="10.06783">
        <ele>63.832722</ele>
        <time>2020-08-06T09:23:08.120Z</time>
      </trkpt>
      <trkpt lat="63.33113" lon="10.06963">
        <ele>63.797031</ele>
        <time>2020-08-06T09:24:03.135Z</time>
      </trkpt>
      <trkpt lat="63.3286" lon="10.06892">
        <ele>59.395702</ele>
        <time>2020-08-06T09:24:51.144Z</time>
      </trkpt>
      <trkpt lat="63.32704" lon="10.07003">
        <ele>53.738726</ele>
        <time>2020-08-06T09:25:53.135Z</time>
      </trkpt>
      <trkpt lat="63.32532" lon="10.07099">
        <ele>51.875919</ele>
        <time>2020-08-06T09:27:01.120Z</time>
      </trkpt>
      <trkpt lat="63.32458" lon="10.07528">
        <ele>57.775492</ele>
        <time>2020-08-06T09:28:24.120Z</time>
      </trkpt>
      <trkpt lat="63.32416" lon="10.08005">
        <ele>58.666496</ele>
        <time>2020-08-06T09:29:35.115Z</time>
      </trkpt>
      <trkpt lat="63.32529" lon="10.08405">
        <ele>61.221343</ele>
        <time>2020-08-06T09:30:42.132Z</time>
      </trkpt>
      <trkpt lat="63.32548" lon="10.08937">
        <ele>60.366675</ele>
        <time>2020-08-06T09:31:29.153Z</time>
      </trkpt>
      <trkpt lat="63.3262" lon="10.09433">
        <ele>52.201735</ele>
        <time>2020-08-06T09:32:01.114Z</time>
      </trkpt>
      <trkpt lat="63.3277" lon="10.0982">
        <ele>49.560127</ele>
        <time>2020-08-06T09:34:26.136Z</time>
      </trkpt>
      <trkpt lat="63.32882" lon="10.10184">
        <ele>52.341928</ele>
        <time>2020-08-06T09:35:25.118Z</time>
      </trkpt>
      <trkpt lat="63.3278" lon="10.10526">
        <ele>58.205843</ele>
        <time>2020-08-06T09:36:11.151Z</time>
      </trkpt>
      <trkpt lat="63.32709" lon="10.10923">
        <ele>55.599249</ele>
        <time>2020-08-06T09:36:58.144Z</time>
      </trkpt>
      <trkpt lat="63.32577" lon="10.11344">
        <ele>47.163281</ele>
        <time>2020-08-06T09:37:38.131Z</time>
      </trkpt>
      <trkpt lat="63.32456" lon="10.11711">
        <ele>52.201263</ele>
        <time>2020-08-06T09:38:20.124Z</time>
      </trkpt>
      <trkpt lat="63.32354" lon="10.1216">
        <ele>57.466419</ele>
        <time>2020-08-06T09:39:06.133Z</time>
      </trkpt>
      <trkpt lat="63.32255" lon="10.12594">
        <ele>56.778584</ele>
        <time>2020-08-06T09:39:46.133Z</time>
      </trkpt>
      <trkpt lat="63.32283" lon="10.13096">
        <ele>54.944326</ele>
        <time>2020-08-06T09:40:36.147Z</time>
      </trkpt>
      <trkpt lat="63.32114" lon="10.13383">
        <ele>51.146794</ele>
        <time>2020-08-06T09:41:29.111Z</time>
      </trkpt>
      <trkpt lat="63.3207" lon="10.13876">
        <ele>54.242571</ele>
        <time>2020-08-06T09:42:14.170Z</time>
      </trkpt>
      <trkpt lat="63.3195" lon="10.14279">
        <ele>60.638403</ele>
        <time>2020-08-06T09:43:17.137Z</time>
      </trkpt>
      <trkpt lat="63.31861" lon="10.14729">
        <ele>55.317456</ele>
        <time>2020-08-06T09:43:57.115Z</time>
      </trkpt>
      <trkpt lat="63.31711" lon="10.15083">
        <ele>49.550361</ele>
        <time>2020-08-06T09:44:37.124Z</time>
      </trkpt>
      <trkpt lat="63.31501" lon="10.15273">
        <ele>48.869597</ele>
        <time>2020-08-06T09:45:19.138Z</time>
      </trkpt>
      <trkpt lat="63.31389" lon="10.15663">
        <ele>60.543095</ele>
        <time>2020-08-06T09:46:19.146Z</time>
      </trkpt>
      <trkpt lat="63.31224" lon="10.15903">
        <ele>62.103074</ele>
        <time>2020-08-06T09:47:04.137Z</time>
      </trkpt>
      <trkpt lat="63.31162" lon="10.16337">
        <ele>66.064546</ele>
        <time>2020-08-06T09:47:59.118Z</time>
      </trkpt>
      <trkpt lat="63.31053" lon="10.16897">
        <ele>53.478932</ele>
        <time>2020-08-06T09:48:41.148Z</time>
      </trkpt>
      <trkpt lat="63.31092" lon="10.17356">
        <ele>47.515018</ele>
        <time>2020-08-06T09:49:21.127Z</time>
      </trkpt>
      <trkpt lat="63.3115" lon="10.17799">
        <ele>48.798795</ele>
        <time>2020-08-06T09:50:03.141Z</time>
      </trkpt>
      <trkpt lat="63.31203" lon="10.18277">
        <ele>50.230244</ele>
        <time>2020-08-06T09:50:55.161Z</time>
      </trkpt>
      <trkpt lat="63.31353" lon="10.18702">
        <ele>50.549107</ele>
        <time>2020-08-06T09:51:55.154Z</time>
      </trkpt>
      <trkpt lat="63.31475" lon="10.19041">
        <ele>46.250575</ele>
        <time>2020-08-06T09:52:35.169Z</time>
      </trkpt>
      <trkpt lat="63.31625" lon="10.19345">
        <ele>46.908218</ele>
        <time>2020-08-06T09:53:19.123Z</time>
      </trkpt>
      <trkpt lat="63.31825" lon="10.19305">
        <ele>49.777747</ele>
        <time>2020-08-06T09:54:07.123Z</time>
      </trkpt>
      <trkpt lat="63.32046" lon="10.19425">
        <ele>51.495875</ele>
        <time>2020-08-06T09:54:57.124Z</time>
      </trkpt>
      <trkpt lat="63.32085" lon="10.19807">
        <ele>49.367947</ele>
        <time>2020-08-06T09:55:40.136Z</time>
      </trkpt>
      <trkpt lat="63.32167" lon="10.20191">
        <ele>51.976812</ele>
        <time>2020-08-06T09:56:22.124Z</time>
      </trkpt>
      <trkpt lat="63.32273" lon="10.20638">
        <ele>49.203565</ele>
        <time>2020-08-06T09:57:06.123Z</time>
      </trkpt>
      <trkpt lat="63.32281" lon="10.21129">
        <ele>45.572997</ele>
        <time>2020-08-06T09:57:46.124Z</time>
      </trkpt>
      <trkpt lat="63.3241" lon="10.21514">
        <ele>43.915966</ele>
        <time>2020-08-06T09:58:28.147Z</time>
      </trkpt>
      <trkpt lat="63.32454" lon="10.22013">
        <ele>46.463831</ele>
        <time>2020-08-06T09:59:11.170Z</time>
      </trkpt>
      <trkpt lat="63.32481" lon="10.2255">
        <ele>51.771938</ele>
        <time>2020-08-06T10:00:11.142Z</time>
      </trkpt>
      <trkpt lat="63.32475" lon="10.2307">
        <ele>53.772656</ele>
        <time>2020-08-06T10:01:10.132Z</time>
      </trkpt>
      <trkpt lat="63.32442" lon="10.2351">
        <ele>54.177439</ele>
        <time>2020-08-06T10:01:52.140Z</time>
      </trkpt>
      <trkpt lat="63.32408" lon="10.23949">
        <ele>55.727529</ele>
        <time>2020-08-06T10:02:35.139Z</time>
      </trkpt>
      <trkpt lat="63.32377" lon="10.24375">
        <ele>56.703166</ele>
        <time>2020-08-06T10:03:15.157Z</time>
      </trkpt>
      <trkpt lat="63.32344" lon="10.24807">
        <ele>56.463584</ele>
        <time>2020-08-06T10:03:56.152Z</time>
      </trkpt>
      <trkpt lat="63.32305" lon="10.2529">
        <ele>57.397006</ele>
        <time>2020-08-06T10:04:43.124Z</time>
      </trkpt>
      <trkpt lat="63.32255" lon="10.25764">
        <ele>58.503746</ele>
        <time>2020-08-06T10:05:33.140Z</time>
      </trkpt>
      <trkpt lat="63.32226" lon="10.263">
        <ele>53.112303</ele>
        <time>2020-08-06T10:06:13.135Z</time>
      </trkpt>
      <trkpt lat="63.32258" lon="10.26808">
        <ele>50.414284</ele>
        <time>2020-08-06T10:06:46.155Z</time>
      </trkpt>
      <trkpt lat="63.32349" lon="10.27322">
        <ele>54.650747</ele>
        <time>2020-08-06T10:07:44.141Z</time>
      </trkpt>
      <trkpt lat="63.32432" lon="10.27804">
        <ele>56.832538</ele>
        <time>2020-08-06T10:14:58.183Z</time>
      </trkpt>
      <trkpt lat="63.32453" lon="10.28292">
        <ele>56.804907</ele>
        <time>2020-08-06T10:15:58.180Z</time>
      </trkpt>
      <trkpt lat="63.32471" lon="10.28738">
        <ele>60.355274</ele>
        <time>2020-08-06T10:16:58.152Z</time>
      </trkpt>
      <trkpt lat="63.32435" lon="10.29192">
        <ele>66.090361</ele>
        <time>2020-08-06T10:18:08.135Z</time>
      </trkpt>
      <trkpt lat="63.32384" lon="10.29564">
        <ele>71.870082</ele>
        <time>2020-08-06T10:19:39.163Z</time>
      </trkpt>
      <trkpt lat="63.32342" lon="10.29967">
        <ele>71.135645</ele>
        <time>2020-08-06T10:20:45.127Z</time>
      </trkpt>
      <trkpt lat="63.32357" lon="10.3035">
        <ele>69.012644</ele>
        <time>2020-08-06T10:21:38.137Z</time>
      </trkpt>
      <trkpt lat="63.3246" lon="10.30727">
        <ele>74.282616</ele>
        <time>2020-08-06T10:22:49.153Z</time>
      </trkpt>
      <trkpt lat="63.32477" lon="10.31208">
        <ele>77.964249</ele>
        <time>2020-08-06T10:24:01.137Z</time>
      </trkpt>
      <trkpt lat="63.32485" lon="10.31633">
        <ele>79.504981</ele>
        <time>2020-08-06T10:25:02.135Z</time>
      </trkpt>
      <trkpt lat="63.32581" lon="10.32003">
        <ele>86.026258</ele>
        <time>2020-08-06T10:26:19.124Z</time>
      </trkpt>
      <trkpt lat="63.32752" lon="10.32269">
        <ele>91.905358</ele>
        <time>2020-08-06T10:27:34.123Z</time>
      </trkpt>
      <trkpt lat="63.32853" lon="10.32698">
        <ele>92.509812</ele>
        <time>2020-08-06T10:28:34.126Z</time>
      </trkpt>
      <trkpt lat="63.33027" lon="10.32868">
        <ele>98.055727</ele>
        <time>2020-08-06T10:29:42.138Z</time>
      </trkpt>
      <trkpt lat="63.33183" lon="10.33128">
        <ele>108.64635</ele>
        <time>2020-08-06T10:31:14.129Z</time>
      </trkpt>
      <trkpt lat="63.33355" lon="10.33275">
        <ele>115.137046</ele>
        <time>2020-08-06T10:32:38.128Z</time>
      </trkpt>
      <trkpt lat="63.33509" lon="10.33469">
        <ele>123.746731</ele>
        <time>2020-08-06T10:34:10.147Z</time>
      </trkpt>
      <trkpt lat="63.33707" lon="10.33591">
        <ele>135.834311</ele>
        <time>2020-08-06T10:35:54.136Z</time>
      </trkpt>
      <trkpt lat="63.33836" lon="10.33926">
        <ele>144.743928</ele>
        <time>2020-08-06T10:37:29.154Z</time>
      </trkpt>
      <trkpt lat="63.34016" lon="10.33868">
        <ele>152.314038</ele>
        <time>2020-08-06T10:38:56.127Z</time>
      </trkpt>
      <trkpt lat="63.34154" lon="10.34116">
        <ele>160.244897</ele>
        <time>2020-08-06T10:40:18.153Z</time>
      </trkpt>
      <trkpt lat="63.34322" lon="10.34453">
        <ele>162.803899</ele>
        <time>2020-08-06T10:41:41.137Z</time>
      </trkpt>
      <trkpt lat="63.34451" lon="10.34801">
        <ele>165.141742</ele>
        <time>2020-08-06T10:42:56.156Z</time>
      </trkpt>
      <trkpt lat="63.34574" lon="10.35155">
        <ele>169.643944</ele>
        <time>2020-08-06T10:44:08.160Z</time>
      </trkpt>
      <trkpt lat="63.34754" lon="10.35384">
        <ele>177.117854</ele>
        <time>2020-08-06T10:45:29.127Z</time>
      </trkpt>
      <trkpt lat="63.34955" lon="10.35518">
        <ele>190.711196</ele>
        <time>2020-08-06T10:47:02.126Z</time>
      </trkpt>
      <trkpt lat="63.35148" lon="10.35673">
        <ele>199.198269</ele>
        <time>2020-08-06T10:49:09.123Z</time>
      </trkpt>
      <trkpt lat="63.3536" lon="10.35748">
        <ele>193.684164</ele>
        <time>2020-08-06T10:50:05.140Z</time>
      </trkpt>
      <trkpt lat="63.3557" lon="10.35858">
        <ele>188.552529</ele>
        <time>2020-08-06T10:50:58.136Z</time>
      </trkpt>
      <trkpt lat="63.35812" lon="10.35971">
        <ele>177.214985</ele>
        <time>2020-08-06T10:51:38.141Z</time>
      </trkpt>
      <trkpt lat="63.36087" lon="10.36111">
        <ele>162.529603</ele>
        <time>2020-08-06T10:52:12.132Z</time>
      </trkpt>
      <trkpt lat="63.36292" lon="10.36375">
        <ele>153.633336</ele>
        <time>2020-08-06T10:52:53.137Z</time>
      </trkpt>
      <trkpt lat="63.36552" lon="10.3652">
        <ele>145.067465</ele>
        <time>2020-08-06T10:53:27.124Z</time>
      </trkpt>
      <trkpt lat="63.36843" lon="10.36703">
        <ele>135.348681</ele>
        <time>2020-08-06T10:54:03.140Z</time>
      </trkpt>
      <trkpt lat="63.37088" lon="10.3682">
        <ele>124.994327</ele>
        <time>2020-08-06T10:54:51.158Z</time>
      </trkpt>
      <trkpt lat="63.37356" lon="10.36701">
        <ele>111.573062</ele>
        <time>2020-08-06T10:55:28.157Z</time>
      </trkpt>
      <trkpt lat="63.3757" lon="10.36591">
        <ele>103.55922</ele>
        <time>2020-08-06T10:56:07.143Z</time>
      </trkpt>
      <trkpt lat="63.37845" lon="10.36821">
        <ele>100.924566</ele>
        <time>2020-08-06T10:56:47.124Z</time>
      </trkpt>
      <trkpt lat="63.38117" lon="10.37046">
        <ele>93.075054</ele>
        <time>2020-08-06T10:57:29.176Z</time>
      </trkpt>
      <trkpt lat="63.3836" lon="10.37147">
        <ele>82.028661</ele>
        <time>2020-08-06T10:58:16.142Z</time>
      </trkpt>
      <trkpt lat="63.38531" lon="10.37333">
        <ele>74.219758</ele>
        <time>2020-08-06T10:59:01.122Z</time>
      </trkpt>
      <trkpt lat="63.38708" lon="10.37594">
        <ele>70.511779</ele>
        <time>2020-08-06T10:59:45.139Z</time>
      </trkpt>
      <trkpt lat="63.38922" lon="10.37916">
        <ele>68.585369</ele>
        <time>2020-08-06T11:00:33.126Z</time>
      </trkpt>
      <trkpt lat="63.3913" lon="10.38187">
        <ele>63.311275</ele>
        <time>2020-08-06T11:01:13.143Z</time>
      </trkpt>
      <trkpt lat="63.39347" lon="10.38341">
        <ele>60.975289</ele>
        <time>2020-08-06T11:01:53.156Z</time>
      </trkpt>
      <trkpt lat="63.3955" lon="10.38521">
        <ele>57.327262</ele>
        <time>2020-08-06T11:02:46.161Z</time>
      </trkpt>
      <trkpt lat="63.39684" lon="10.38867">
        <ele>64.802845</ele>
        <time>2020-08-06T11:05:07.165Z</time>
      </trkpt>
      <trkpt lat="63.3986" lon="10.39157">
        <ele>70.576908</ele>
        <time>2020-08-06T11:06:37.145Z</time>
      </trkpt>
      <trkpt lat="63.40043" lon="10.39403">
        <ele>79.339477</ele>
        <time>2020-08-06T11:07:55.122Z</time>
      </trkpt>
      <trkpt lat="63.40243" lon="10.39522">
        <ele>81.018471</ele>
        <time>2020-08-06T11:09:07.135Z</time>
      </trkpt>
      <trkpt lat="63.4046" lon="10.39634">
        <ele>79.539877</ele>
        <time>2020-08-06T11:10:00.138Z</time>
      </trkpt>
      <trkpt lat="63.40701" lon="10.39707">
        <ele>84.304279</ele>
        <time>2020-08-06T11:10:42.119Z</time>
      </trkpt>
      <trkpt lat="63.40913" lon="10.39751">
        <ele>83.481803</ele>
        <time>2020-08-06T11:11:27.137Z</time>
      </trkpt>
      <trkpt lat="63.41135" lon="10.39797">
        <ele>77.50566</ele>
        <time>2020-08-06T11:12:15.135Z</time>
      </trkpt>
      <trkpt lat="63.41364" lon="10.39743">
        <ele>77.997889</ele>
        <time>2020-08-06T11:13:10.121Z</time>
      </trkpt>
      <trkpt lat="63.41505" lon="10.39929">
        <ele>96.992179</ele>
        <time>2020-08-06T11:15:27.141Z</time>
      </trkpt>
      <trkpt lat="63.41713" lon="10.39846">
        <ele>100.232463</ele>
        <time>2020-08-06T11:16:20.127Z</time>
      </trkpt>
      <trkpt lat="63.41934" lon="10.39763">
        <ele>86.685046</ele>
        <time>2020-08-06T11:17:17.125Z</time>
      </trkpt>
      <trkpt lat="63.42142" lon="10.39889">
        <ele>80.042572</ele>
        <time>2020-08-06T11:18:10.182Z</time>
      </trkpt>
      <trkpt lat="63.42343" lon="10.40082">
        <ele>74.521177</ele>
        <time>2020-08-06T11:19:01.141Z</time>
      </trkpt>
      <trkpt lat="63.4256" lon="10.40354">
        <ele>59.73582</ele>
        <time>2020-08-06T11:19:37.155Z</time>
      </trkpt>
      <trkpt lat="63.42779" lon="10.40312">
        <ele>54.605844</ele>
        <time>2020-08-06T11:32:45.123Z</time>
      </trkpt>
      <trkpt lat="63.42897" lon="10.40061">
        <ele>56.174786</ele>
        <time>2020-08-06T11:34:08.163Z</time>
      </trkpt>
      <trkpt lat="63.43104" lon="10.40212">
        <ele>63.384723</ele>
        <time>2020-08-06T11:35:03.135Z</time>
      </trkpt>
      <trkpt lat="63.43308" lon="10.4037">
        <ele>63.584253</ele>
        <time>2020-08-06T11:35:52.127Z</time>
      </trkpt>
      <trkpt lat="63.43383" lon="10.40019">
        <ele>62.972657</ele>
        <time>2020-08-06T11:37:07.122Z</time>
      </trkpt>
    </trkseg>
  </trk>
  <trk>
    <name><![CDATA[Tour d'Europe: étape 041]]></name>
    <trkseg>
      <trkpt lat="63.43365" lon="10.40012">
        <ele>56.97887</ele>
        <time>2020-08-08T06:59:14.228Z</time>
      </trkpt>
      <trkpt lat="63.4332" lon="10.39552">
        <ele>81.081337</ele>
        <time>2020-08-08T07:00:10.208Z</time>
      </trkpt>
      <trkpt lat="63.43275" lon="10.3907">
        <ele>80.874053</ele>
        <time>2020-08-08T07:01:05.210Z</time>
      </trkpt>
      <trkpt lat="63.43176" lon="10.38662">
        <ele>72.590745</ele>
        <time>2020-08-08T07:01:46.268Z</time>
      </trkpt>
      <trkpt lat="63.43129" lon="10.38167">
        <ele>64.621889</ele>
        <time>2020-08-08T07:02:28.253Z</time>
      </trkpt>
      <trkpt lat="63.43097" lon="10.37716">
        <ele>61.199934</ele>
        <time>2020-08-08T07:03:14.206Z</time>
      </trkpt>
      <trkpt lat="63.42978" lon="10.37345">
        <ele>66.587184</ele>
        <time>2020-08-08T07:04:42.241Z</time>
      </trkpt>
      <trkpt lat="63.42868" lon="10.36937">
        <ele>69.187962</ele>
        <time>2020-08-08T07:05:42.204Z</time>
      </trkpt>
      <trkpt lat="63.42824" lon="10.36664">
        <ele>71.582474</ele>
        <time>2020-08-08T07:07:06.208Z</time>
      </trkpt>
      <trkpt lat="63.42947" lon="10.36454">
        <ele>64.173785</ele>
        <time>2020-08-08T07:07:51.211Z</time>
      </trkpt>
      <trkpt lat="63.42985" lon="10.36005">
        <ele>77.776731</ele>
        <time>2020-08-08T07:09:04.224Z</time>
      </trkpt>
      <trkpt lat="63.43093" lon="10.35612">
        <ele>73.933931</ele>
        <time>2020-08-08T07:10:01.248Z</time>
      </trkpt>
      <trkpt lat="63.43222" lon="10.35193">
        <ele>55.784025</ele>
        <time>2020-08-08T07:11:02.226Z</time>
      </trkpt>
      <trkpt lat="63.43423" lon="10.35042">
        <ele>58.003496</ele>
        <time>2020-08-08T07:11:51.246Z</time>
      </trkpt>
      <trkpt lat="63.4365" lon="10.34974">
        <ele>58.180637</ele>
        <time>2020-08-08T07:12:46.233Z</time>
      </trkpt>
      <trkpt lat="63.43845" lon="10.34838">
        <ele>62.89252</ele>
        <time>2020-08-08T07:13:53.233Z</time>
      </trkpt>
      <trkpt lat="63.44043" lon="10.34731">
        <ele>66.547712</ele>
        <time>2020-08-08T07:15:01.239Z</time>
      </trkpt>
      <trkpt lat="63.44246" lon="10.34677">
        <ele>73.521663</ele>
        <time>2020-08-08T07:16:21.213Z</time>
      </trkpt>
      <trkpt lat="63.44362" lon="10.34297">
        <ele>81.589229</ele>
        <time>2020-08-08T07:17:41.217Z</time>
      </trkpt>
      <trkpt lat="63.44453" lon="10.33891">
        <ele>95.120937</ele>
        <time>2020-08-08T07:19:02.214Z</time>
      </trkpt>
      <trkpt lat="63.44616" lon="10.33574">
        <ele>107.022678</ele>
        <time>2020-08-08T07:20:29.227Z</time>
      </trkpt>
      <trkpt lat="63.44605" lon="10.33054">
        <ele>93.384751</ele>
        <time>2020-08-08T07:21:18.234Z</time>
      </trkpt>
      <trkpt lat="63.44718" lon="10.32644">
        <ele>76.896455</ele>
        <time>2020-08-08T07:21:39.223Z</time>
      </trkpt>
      <trkpt lat="63.44872" lon="10.32323">
        <ele>67.052909</ele>
        <time>2020-08-08T07:21:59.246Z</time>
      </trkpt>
      <trkpt lat="63.44919" lon="10.31881">
        <ele>64.81136</ele>
        <time>2020-08-08T07:23:03.218Z</time>
      </trkpt>
      <trkpt lat="63.45056" lon="10.31491">
        <ele>73.471583</ele>
        <time>2020-08-08T07:23:50.237Z</time>
      </trkpt>
      <trkpt lat="63.45178" lon="10.30945">
        <ele>63.532271</ele>
        <time>2020-08-08T07:24:30.208Z</time>
      </trkpt>
      <trkpt lat="63.45317" lon="10.30604">
        <ele>58.906755</ele>
        <time>2020-08-08T07:25:15.215Z</time>
      </trkpt>
      <trkpt lat="63.45422" lon="10.30146">
        <ele>60.092926</ele>
        <time>2020-08-08T07:25:57.557Z</time>
      </trkpt>
      <trkpt lat="63.45354" lon="10.29713">
        <ele>63.284608</ele>
        <time>2020-08-08T07:26:37.220Z</time>
      </trkpt>
      <trkpt lat="63.45303" lon="10.29251">
        <ele>66.814486</ele>
        <time>2020-08-08T07:27:19.225Z</time>
      </trkpt>
      <trkpt lat="63.4523" lon="10.28807">
        <ele>68.54677</ele>
        <time>2020-08-08T07:27:59.240Z</time>
      </trkpt>
      <trkpt lat="63.45137" lon="10.28358">
        <ele>65.755149</ele>
        <time>2020-08-08T07:28:39.218Z</time>
      </trkpt>
      <trkpt lat="63.45157" lon="10.2766">
        <ele>52.022959</ele>
        <time>2020-08-08T07:29:21.224Z</time>
      </trkpt>
      <trkpt lat="63.4521" lon="10.27067">
        <ele>41.750199</ele>
        <time>2020-08-08T07:30:01.216Z</time>
      </trkpt>
      <trkpt lat="63.45304" lon="10.2663">
        <ele>45.375762</ele>
        <time>2020-08-08T07:30:41.217Z</time>
      </trkpt>
      <trkpt lat="63.45295" lon="10.26127">
        <ele>48.470844</ele>
        <time>2020-08-08T07:31:23.244Z</time>
      </trkpt>
      <trkpt lat="63.45292" lon="10.25641">
        <ele>42.838251</ele>
        <time>2020-08-08T07:32:03.260Z</time>
      </trkpt>
      <trkpt lat="63.45248" lon="10.25149">
        <ele>43.893679</ele>
        <time>2020-08-08T07:32:45.228Z</time>
      </trkpt>
      <trkpt lat="63.45292" lon="10.24703">
        <ele>47.471368</ele>
        <time>2020-08-08T07:33:29.244Z</time>
      </trkpt>
      <trkpt lat="63.45198" lon="10.24345">
        <ele>52.450533</ele>
        <time>2020-08-08T07:34:14.218Z</time>
      </trkpt>
      <trkpt lat="63.45198" lon="10.23899">
        <ele>53.632769</ele>
        <time>2020-08-08T07:35:00.205Z</time>
      </trkpt>
      <trkpt lat="63.45244" lon="10.23455">
        <ele>51.911651</ele>
        <time>2020-08-08T07:35:46.255Z</time>
      </trkpt>
      <trkpt lat="63.45349" lon="10.23025">
        <ele>55.193445</ele>
        <time>2020-08-08T07:36:47.241Z</time>
      </trkpt>
      <trkpt lat="63.45192" lon="10.2265">
        <ele>64.391115</ele>
        <time>2020-08-08T07:37:46.235Z</time>
      </trkpt>
      <trkpt lat="63.45101" lon="10.22189">
        <ele>67.738531</ele>
        <time>2020-08-08T07:38:39.200Z</time>
      </trkpt>
      <trkpt lat="63.44989" lon="10.21715">
        <ele>65.73712</ele>
        <time>2020-08-08T07:39:42.212Z</time>
      </trkpt>
      <trkpt lat="63.44928" lon="10.21239">
        <ele>69.454332</ele>
        <time>2020-08-08T07:40:42.227Z</time>
      </trkpt>
      <trkpt lat="63.44864" lon="10.20786">
        <ele>76.504926</ele>
        <time>2020-08-08T07:41:35.274Z</time>
      </trkpt>
      <trkpt lat="63.44679" lon="10.20352">
        <ele>79.351402</ele>
        <time>2020-08-08T07:42:38.219Z</time>
      </trkpt>
      <trkpt lat="63.44585" lon="10.19869">
        <ele>73.819048</ele>
        <time>2020-08-08T07:43:38.217Z</time>
      </trkpt>
      <trkpt lat="63.44528" lon="10.1941">
        <ele>71.476039</ele>
        <time>2020-08-08T07:44:19.210Z</time>
      </trkpt>
      <trkpt lat="63.44763" lon="10.19271">
        <ele>63.348498</ele>
        <time>2020-08-08T07:45:01.207Z</time>
      </trkpt>
      <trkpt lat="63.44957" lon="10.19576">
        <ele>49.325265</ele>
        <time>2020-08-08T07:45:32.240Z</time>
      </trkpt>
      <trkpt lat="63.45115" lon="10.20099">
        <ele>45.461828</ele>
        <time>2020-08-08T07:54:49.222Z</time>
      </trkpt>
      <trkpt lat="63.50854" lon="10.14">
        <ele>57.024782</ele>
        <time>2020-08-08T08:20:49.456Z</time>
      </trkpt>
      <trkpt lat="63.50927" lon="10.13618">
        <ele>53.594474</ele>
        <time>2020-08-08T08:24:58.490Z</time>
      </trkpt>
      <trkpt lat="63.50795" lon="10.13263">
        <ele>60.565012</ele>
        <time>2020-08-08T08:26:26.484Z</time>
      </trkpt>
      <trkpt lat="63.50584" lon="10.13077">
        <ele>55.743825</ele>
        <time>2020-08-08T08:27:08.440Z</time>
      </trkpt>
      <trkpt lat="63.50372" lon="10.12882">
        <ele>46.779347</ele>
        <time>2020-08-08T08:27:33.435Z</time>
      </trkpt>
      <trkpt lat="63.50214" lon="10.12522">
        <ele>44.16122</ele>
        <time>2020-08-08T08:28:15.465Z</time>
      </trkpt>
      <trkpt lat="63.50062" lon="10.12143">
        <ele>44.166854</ele>
        <time>2020-08-08T08:28:55.447Z</time>
      </trkpt>
      <trkpt lat="63.49963" lon="10.1169">
        <ele>44.279042</ele>
        <time>2020-08-08T08:29:37.433Z</time>
      </trkpt>
      <trkpt lat="63.49858" lon="10.11244">
        <ele>44.080517</ele>
        <time>2020-08-08T08:30:17.449Z</time>
      </trkpt>
      <trkpt lat="63.4975" lon="10.10807">
        <ele>45.60991</ele>
        <time>2020-08-08T08:30:57.457Z</time>
      </trkpt>
      <trkpt lat="63.49692" lon="10.10333">
        <ele>57.253024</ele>
        <time>2020-08-08T08:32:15.488Z</time>
      </trkpt>
      <trkpt lat="63.49673" lon="10.099">
        <ele>75.545812</ele>
        <time>2020-08-08T08:34:06.494Z</time>
      </trkpt>
      <trkpt lat="63.49737" lon="10.09467">
        <ele>90.173848</ele>
        <time>2020-08-08T08:36:27.501Z</time>
      </trkpt>
      <trkpt lat="63.49715" lon="10.09082">
        <ele>98.564119</ele>
        <time>2020-08-08T08:38:41.432Z</time>
      </trkpt>
      <trkpt lat="63.4966" lon="10.08608">
        <ele>90.750274</ele>
        <time>2020-08-08T08:39:32.442Z</time>
      </trkpt>
      <trkpt lat="63.4964" lon="10.08102">
        <ele>80.929488</ele>
        <time>2020-08-08T08:40:15.464Z</time>
      </trkpt>
      <trkpt lat="63.49586" lon="10.07636">
        <ele>77.164123</ele>
        <time>2020-08-08T08:41:04.455Z</time>
      </trkpt>
      <trkpt lat="63.49465" lon="10.07243">
        <ele>78.308215</ele>
        <time>2020-08-08T08:42:08.437Z</time>
      </trkpt>
      <trkpt lat="63.49441" lon="10.0679">
        <ele>93.769324</ele>
        <time>2020-08-08T08:44:39.473Z</time>
      </trkpt>
      <trkpt lat="63.49432" lon="10.06354">
        <ele>109.67146</ele>
        <time>2020-08-08T08:46:33.469Z</time>
      </trkpt>
      <trkpt lat="63.49382" lon="10.059">
        <ele>118.312022</ele>
        <time>2020-08-08T08:48:14.437Z</time>
      </trkpt>
      <trkpt lat="63.49255" lon="10.05508">
        <ele>114.482609</ele>
        <time>2020-08-08T08:49:15.444Z</time>
      </trkpt>
      <trkpt lat="63.49158" lon="10.05063">
        <ele>95.375777</ele>
        <time>2020-08-08T08:50:04.441Z</time>
      </trkpt>
      <trkpt lat="63.49165" lon="10.04572">
        <ele>69.006161</ele>
        <time>2020-08-08T08:50:57.443Z</time>
      </trkpt>
      <trkpt lat="63.49228" lon="10.04047">
        <ele>53.04697</ele>
        <time>2020-08-08T08:51:43.499Z</time>
      </trkpt>
      <trkpt lat="63.49294" lon="10.03606">
        <ele>48.530335</ele>
        <time>2020-08-08T08:52:28.490Z</time>
      </trkpt>
      <trkpt lat="63.49445" lon="10.032">
        <ele>50.271687</ele>
        <time>2020-08-08T08:53:41.434Z</time>
      </trkpt>
      <trkpt lat="63.49488" lon="10.02738">
        <ele>53.518452</ele>
        <time>2020-08-08T08:54:32.489Z</time>
      </trkpt>
      <trkpt lat="63.49471" lon="10.02209">
        <ele>48.421679</ele>
        <time>2020-08-08T08:55:14.435Z</time>
      </trkpt>
      <trkpt lat="63.49528" lon="10.01719">
        <ele>47.07467</ele>
        <time>2020-08-08T08:55:59.481Z</time>
      </trkpt>
      <trkpt lat="63.49614" lon="10.01379">
        <ele>51.337653</ele>
        <time>2020-08-08T08:57:08.432Z</time>
      </trkpt>
      <trkpt lat="63.49734" lon="10.01053">
        <ele>52.094522</ele>
        <time>2020-08-08T08:58:12.450Z</time>
      </trkpt>
      <trkpt lat="63.49762" lon="10.00582">
        <ele>51.406021</ele>
        <time>2020-08-08T08:59:03.471Z</time>
      </trkpt>
      <trkpt lat="63.49779" lon="10.00102">
        <ele>54.235614</ele>
        <time>2020-08-08T08:59:52.479Z</time>
      </trkpt>
      <trkpt lat="63.49809" lon="9.99651">
        <ele>58.409189</ele>
        <time>2020-08-08T09:00:56.469Z</time>
      </trkpt>
      <trkpt lat="63.49866" lon="9.99175">
        <ele>56.291247</ele>
        <time>2020-08-08T09:01:53.454Z</time>
      </trkpt>
      <trkpt lat="63.49948" lon="9.98686">
        <ele>52.994794</ele>
        <time>2020-08-08T09:02:35.443Z</time>
      </trkpt>
      <trkpt lat="63.50015" lon="9.98206">
        <ele>56.804038</ele>
        <time>2020-08-08T09:03:30.455Z</time>
      </trkpt>
      <trkpt lat="63.50031" lon="9.97746">
        <ele>59.68334</ele>
        <time>2020-08-08T09:04:30.451Z</time>
      </trkpt>
      <trkpt lat="63.50039" lon="9.97291">
        <ele>60.883997</ele>
        <time>2020-08-08T09:05:33.436Z</time>
      </trkpt>
      <trkpt lat="63.50047" lon="9.96841">
        <ele>63.909444</ele>
        <time>2020-08-08T09:06:33.458Z</time>
      </trkpt>
      <trkpt lat="63.50053" lon="9.96379">
        <ele>69.994326</ele>
        <time>2020-08-08T09:07:40.474Z</time>
      </trkpt>
      <trkpt lat="63.50046" lon="9.95914">
        <ele>80.49478</ele>
        <time>2020-08-08T09:09:34.441Z</time>
      </trkpt>
      <trkpt lat="63.50048" lon="9.95471">
        <ele>95.808251</ele>
        <time>2020-08-08T09:11:30.472Z</time>
      </trkpt>
      <trkpt lat="63.50128" lon="9.95047">
        <ele>111.384669</ele>
        <time>2020-08-08T09:13:35.447Z</time>
      </trkpt>
      <trkpt lat="63.50232" lon="9.94682">
        <ele>118.308467</ele>
        <time>2020-08-08T09:15:15.460Z</time>
      </trkpt>
      <trkpt lat="63.50334" lon="9.94323">
        <ele>122.523691</ele>
        <time>2020-08-08T09:16:35.450Z</time>
      </trkpt>
      <trkpt lat="63.50455" lon="9.93922">
        <ele>130.293917</ele>
        <time>2020-08-08T09:18:00.459Z</time>
      </trkpt>
      <trkpt lat="63.50599" lon="9.93634">
        <ele>135.12003</ele>
        <time>2020-08-08T09:19:21.473Z</time>
      </trkpt>
      <trkpt lat="63.5079" lon="9.9352">
        <ele>141.166295</ele>
        <time>2020-08-08T09:20:45.454Z</time>
      </trkpt>
      <trkpt lat="63.51003" lon="9.93441">
        <ele>150.376934</ele>
        <time>2020-08-08T09:22:29.470Z</time>
      </trkpt>
      <trkpt lat="63.51194" lon="9.933">
        <ele>159.662676</ele>
        <time>2020-08-08T09:24:01.436Z</time>
      </trkpt>
      <trkpt lat="63.5135" lon="9.92989">
        <ele>162.771734</ele>
        <time>2020-08-08T09:25:26.446Z</time>
      </trkpt>
      <trkpt lat="63.51542" lon="9.92804">
        <ele>160.310895</ele>
        <time>2020-08-08T09:26:22.472Z</time>
      </trkpt>
      <trkpt lat="63.51754" lon="9.92716">
        <ele>161.33011</ele>
        <time>2020-08-08T09:27:09.441Z</time>
      </trkpt>
      <trkpt lat="63.51961" lon="9.92724">
        <ele>171.408235</ele>
        <time>2020-08-08T09:28:30.477Z</time>
      </trkpt>
      <trkpt lat="63.52143" lon="9.92961">
        <ele>175.120318</ele>
        <time>2020-08-08T09:29:47.432Z</time>
      </trkpt>
      <trkpt lat="63.52352" lon="9.93169">
        <ele>170.968692</ele>
        <time>2020-08-08T09:30:33.491Z</time>
      </trkpt>
      <trkpt lat="63.5261" lon="9.93333">
        <ele>167.387976</ele>
        <time>2020-08-08T09:31:13.444Z</time>
      </trkpt>
      <trkpt lat="63.5281" lon="9.93061">
        <ele>162.320768</ele>
        <time>2020-08-08T09:31:56.453Z</time>
      </trkpt>
      <trkpt lat="63.53001" lon="9.92797">
        <ele>163.442524</ele>
        <time>2020-08-08T09:32:38.477Z</time>
      </trkpt>
      <trkpt lat="63.53187" lon="9.92619">
        <ele>170.268929</ele>
        <time>2020-08-08T09:33:54.483Z</time>
      </trkpt>
      <trkpt lat="63.53406" lon="9.92634">
        <ele>169.143414</ele>
        <time>2020-08-08T09:35:01.450Z</time>
      </trkpt>
      <trkpt lat="63.53671" lon="9.92634">
        <ele>156.737641</ele>
        <time>2020-08-08T09:35:32.487Z</time>
      </trkpt>
      <trkpt lat="63.53912" lon="9.92593">
        <ele>140.009316</ele>
        <time>2020-08-08T09:35:52.468Z</time>
      </trkpt>
      <trkpt lat="63.54218" lon="9.92625">
        <ele>106.076816</ele>
        <time>2020-08-08T09:36:13.499Z</time>
      </trkpt>
      <trkpt lat="63.54545" lon="9.92619">
        <ele>65.739366</ele>
        <time>2020-08-08T09:36:33.461Z</time>
      </trkpt>
      <trkpt lat="63.54819" lon="9.9255">
        <ele>48.367213</ele>
        <time>2020-08-08T09:36:53.477Z</time>
      </trkpt>
      <trkpt lat="63.5508" lon="9.92498">
        <ele>48.259122</ele>
        <time>2020-08-08T09:37:28.447Z</time>
      </trkpt>
      <trkpt lat="63.55294" lon="9.92456">
        <ele>50.777974</ele>
        <time>2020-08-08T09:38:16.451Z</time>
      </trkpt>
      <trkpt lat="63.55491" lon="9.92407">
        <ele>50.912126</ele>
        <time>2020-08-08T09:38:58.485Z</time>
      </trkpt>
      <trkpt lat="63.55727" lon="9.92332">
        <ele>53.67842</ele>
        <time>2020-08-08T09:39:53.489Z</time>
      </trkpt>
      <trkpt lat="63.55929" lon="9.92266">
        <ele>59.20648</ele>
        <time>2020-08-08T09:41:01.504Z</time>
      </trkpt>
      <trkpt lat="63.5615" lon="9.92183">
        <ele>64.460122</ele>
        <time>2020-08-08T09:42:07.466Z</time>
      </trkpt>
      <trkpt lat="63.56359" lon="9.92145">
        <ele>71.545292</ele>
        <time>2020-08-08T09:43:22.459Z</time>
      </trkpt>
      <trkpt lat="63.56487" lon="9.92538">
        <ele>75.141663</ele>
        <time>2020-08-08T09:48:18.469Z</time>
      </trkpt>
      <trkpt lat="63.56674" lon="9.9284">
        <ele>66.839022</ele>
        <time>2020-08-08T09:48:49.495Z</time>
      </trkpt>
      <trkpt lat="63.56869" lon="9.93186">
        <ele>55.076086</ele>
        <time>2020-08-08T09:49:19.481Z</time>
      </trkpt>
      <trkpt lat="63.57134" lon="9.93286">
        <ele>49.546339</ele>
        <time>2020-08-08T09:49:59.462Z</time>
      </trkpt>
      <trkpt lat="63.57369" lon="9.93379">
        <ele>46.909868</ele>
        <time>2020-08-08T09:50:47.481Z</time>
      </trkpt>
      <trkpt lat="63.5761" lon="9.93476">
        <ele>43.246872</ele>
        <time>2020-08-08T09:51:27.457Z</time>
      </trkpt>
      <trkpt lat="63.57834" lon="9.9356">
        <ele>47.476482</ele>
        <time>2020-08-08T09:52:17.449Z</time>
      </trkpt>
      <trkpt lat="63.58033" lon="9.93604">
        <ele>50.11382</ele>
        <time>2020-08-08T09:53:33.466Z</time>
      </trkpt>
      <trkpt lat="63.58159" lon="9.93248">
        <ele>49.972292</ele>
        <time>2020-08-08T09:54:14.479Z</time>
      </trkpt>
      <trkpt lat="63.58055" lon="9.93562">
        <ele>50.888377</ele>
        <time>2020-08-08T09:55:18.471Z</time>
      </trkpt>
      <trkpt lat="63.58093" lon="9.9401">
        <ele>53.506479</ele>
        <time>2020-08-08T09:56:17.492Z</time>
      </trkpt>
      <trkpt lat="63.58181" lon="9.94522">
        <ele>57.441637</ele>
        <time>2020-08-08T09:57:14.459Z</time>
      </trkpt>
      <trkpt lat="63.58262" lon="9.95051">
        <ele>59.983463</ele>
        <time>2020-08-08T09:58:17.468Z</time>
      </trkpt>
      <trkpt lat="63.58348" lon="9.95538">
        <ele>65.097446</ele>
        <time>2020-08-08T09:59:16.450Z</time>
      </trkpt>
      <trkpt lat="63.58446" lon="9.95993">
        <ele>63.047603</ele>
        <time>2020-08-08T10:00:17.500Z</time>
      </trkpt>
      <trkpt lat="63.58539" lon="9.96438">
        <ele>69.100998</ele>
        <time>2020-08-08T10:01:22.510Z</time>
      </trkpt>
      <trkpt lat="63.58635" lon="9.96842">
        <ele>73.654747</ele>
        <time>2020-08-08T10:02:33.483Z</time>
      </trkpt>
      <trkpt lat="63.58727" lon="9.97274">
        <ele>76.78377</ele>
        <time>2020-08-08T10:03:45.462Z</time>
      </trkpt>
      <trkpt lat="63.5882" lon="9.97703">
        <ele>80.110804</ele>
        <time>2020-08-08T10:05:05.482Z</time>
      </trkpt>
      <trkpt lat="63.58917" lon="9.98113">
        <ele>83.868405</ele>
        <time>2020-08-08T10:06:07.476Z</time>
      </trkpt>
      <trkpt lat="63.59135" lon="9.98441">
        <ele>72.271811</ele>
        <time>2020-08-08T10:06:56.450Z</time>
      </trkpt>
      <trkpt lat="63.59334" lon="9.98666">
        <ele>60.258698</ele>
        <time>2020-08-08T10:07:20.526Z</time>
      </trkpt>
      <trkpt lat="63.59523" lon="9.98971">
        <ele>50.552695</ele>
        <time>2020-08-08T10:07:44.469Z</time>
      </trkpt>
      <trkpt lat="63.59705" lon="9.99454">
        <ele>46.154038</ele>
        <time>2020-08-08T10:08:24.496Z</time>
      </trkpt>
      <trkpt lat="63.59838" lon="9.99795">
        <ele>56.68929</ele>
        <time>2020-08-08T10:09:24.453Z</time>
      </trkpt>
      <trkpt lat="63.60008" lon="10.00057">
        <ele>56.782869</ele>
        <time>2020-08-08T10:10:31.464Z</time>
      </trkpt>
      <trkpt lat="63.60163" lon="10.00335">
        <ele>65.618591</ele>
        <time>2020-08-08T10:12:03.458Z</time>
      </trkpt>
      <trkpt lat="63.60313" lon="10.00727">
        <ele>68.491766</ele>
        <time>2020-08-08T10:13:26.453Z</time>
      </trkpt>
      <trkpt lat="63.60456" lon="10.01098">
        <ele>75.38654</ele>
        <time>2020-08-08T10:14:43.484Z</time>
      </trkpt>
      <trkpt lat="63.6059" lon="10.01435">
        <ele>83.12149</ele>
        <time>2020-08-08T10:16:26.452Z</time>
      </trkpt>
      <trkpt lat="63.60758" lon="10.01761">
        <ele>86.697775</ele>
        <time>2020-08-08T10:17:35.471Z</time>
      </trkpt>
      <trkpt lat="63.60933" lon="10.02082">
        <ele>86.60334</ele>
        <time>2020-08-08T10:18:33.457Z</time>
      </trkpt>
      <trkpt lat="63.61098" lon="10.02386">
        <ele>91.530083</ele>
        <time>2020-08-08T10:19:44.461Z</time>
      </trkpt>
      <trkpt lat="63.61282" lon="10.02723">
        <ele>93.617973</ele>
        <time>2020-08-08T10:20:47.457Z</time>
      </trkpt>
      <trkpt lat="63.61468" lon="10.03071">
        <ele>93.725402</ele>
        <time>2020-08-08T10:21:43.449Z</time>
      </trkpt>
      <trkpt lat="63.61656" lon="10.03397">
        <ele>82.080706</ele>
        <time>2020-08-08T10:22:16.458Z</time>
      </trkpt>
      <trkpt lat="63.61836" lon="10.03699">
        <ele>66.836553</ele>
        <time>2020-08-08T10:22:36.483Z</time>
      </trkpt>
      <trkpt lat="63.62033" lon="10.04029">
        <ele>60.298957</ele>
        <time>2020-08-08T10:23:06.450Z</time>
      </trkpt>
      <trkpt lat="63.62231" lon="10.04182">
        <ele>64.016968</ele>
        <time>2020-08-08T10:23:52.452Z</time>
      </trkpt>
      <trkpt lat="63.62405" lon="10.04486">
        <ele>64.108508</ele>
        <time>2020-08-08T10:24:52.506Z</time>
      </trkpt>
      <trkpt lat="63.62567" lon="10.04825">
        <ele>61.870723</ele>
        <time>2020-08-08T10:25:39.500Z</time>
      </trkpt>
      <trkpt lat="63.62743" lon="10.05218">
        <ele>60.718242</ele>
        <time>2020-08-08T10:26:35.453Z</time>
      </trkpt>
      <trkpt lat="63.62883" lon="10.05584">
        <ele>63.036291</ele>
        <time>2020-08-08T10:27:33.481Z</time>
      </trkpt>
      <trkpt lat="63.63042" lon="10.05977">
        <ele>60.333178</ele>
        <time>2020-08-08T10:28:23.468Z</time>
      </trkpt>
      <trkpt lat="63.63146" lon="10.06409">
        <ele>59.522478</ele>
        <time>2020-08-08T10:29:03.464Z</time>
      </trkpt>
      <trkpt lat="63.63262" lon="10.06811">
        <ele>61.874708</ele>
        <time>2020-08-08T10:29:57.463Z</time>
      </trkpt>
      <trkpt lat="63.63376" lon="10.07228">
        <ele>63.530905</ele>
        <time>2020-08-08T10:30:39.498Z</time>
      </trkpt>
      <trkpt lat="63.63457" lon="10.07617">
        <ele>64.879974</ele>
        <time>2020-08-08T10:31:23.449Z</time>
      </trkpt>
      <trkpt lat="63.63563" lon="10.08041">
        <ele>64.029705</ele>
        <time>2020-08-08T10:32:07.486Z</time>
      </trkpt>
      <trkpt lat="63.63681" lon="10.08427">
        <ele>61.015175</ele>
        <time>2020-08-08T10:32:52.461Z</time>
      </trkpt>
      <trkpt lat="63.63836" lon="10.08781">
        <ele>62.726456</ele>
        <time>2020-08-08T10:33:42.469Z</time>
      </trkpt>
      <trkpt lat="63.6399" lon="10.09139">
        <ele>67.263442</ele>
        <time>2020-08-08T10:34:47.452Z</time>
      </trkpt>
      <trkpt lat="63.64133" lon="10.09535">
        <ele>69.206296</ele>
        <time>2020-08-08T10:35:39.469Z</time>
      </trkpt>
      <trkpt lat="63.64251" lon="10.09884">
        <ele>68.985125</ele>
        <time>2020-08-08T10:36:20.462Z</time>
      </trkpt>
      <trkpt lat="63.64357" lon="10.10322">
        <ele>69.61411</ele>
        <time>2020-08-08T10:37:33.455Z</time>
      </trkpt>
      <trkpt lat="63.64356" lon="10.10776">
        <ele>74.587614</ele>
        <time>2020-08-08T10:38:44.455Z</time>
      </trkpt>
      <trkpt lat="63.64338" lon="10.11229">
        <ele>80.888438</ele>
        <time>2020-08-08T10:40:21.483Z</time>
      </trkpt>
      <trkpt lat="63.64397" lon="10.11677">
        <ele>94.588328</ele>
        <time>2020-08-08T10:42:04.478Z</time>
      </trkpt>
      <trkpt lat="63.64557" lon="10.11917">
        <ele>111.275457</ele>
        <time>2020-08-08T10:44:12.492Z</time>
      </trkpt>
      <trkpt lat="63.64667" lon="10.12309">
        <ele>118.386634</ele>
        <time>2020-08-08T10:45:44.491Z</time>
      </trkpt>
      <trkpt lat="63.64794" lon="10.12775">
        <ele>105.726471</ele>
        <time>2020-08-08T10:46:24.466Z</time>
      </trkpt>
      <trkpt lat="63.64951" lon="10.1328">
        <ele>93.747354</ele>
        <time>2020-08-08T10:46:57.473Z</time>
      </trkpt>
      <trkpt lat="63.65069" lon="10.13763">
        <ele>86.574195</ele>
        <time>2020-08-08T10:47:29.452Z</time>
      </trkpt>
      <trkpt lat="63.65128" lon="10.14303">
        <ele>83.755384</ele>
        <time>2020-08-08T10:48:09.479Z</time>
      </trkpt>
      <trkpt lat="63.65243" lon="10.14754">
        <ele>81.628081</ele>
        <time>2020-08-08T10:48:50.474Z</time>
      </trkpt>
      <trkpt lat="63.65426" lon="10.15168">
        <ele>76.017094</ele>
        <time>2020-08-08T10:49:32.510Z</time>
      </trkpt>
      <trkpt lat="63.65623" lon="10.15561">
        <ele>69.579001</ele>
        <time>2020-08-08T10:50:12.473Z</time>
      </trkpt>
      <trkpt lat="63.65784" lon="10.1597">
        <ele>70.725017</ele>
        <time>2020-08-08T10:51:07.465Z</time>
      </trkpt>
      <trkpt lat="63.65915" lon="10.16298">
        <ele>70.751801</ele>
        <time>2020-08-08T10:51:48.488Z</time>
      </trkpt>
      <trkpt lat="63.6609" lon="10.16635">
        <ele>71.458973</ele>
        <time>2020-08-08T10:52:42.465Z</time>
      </trkpt>
      <trkpt lat="63.66239" lon="10.17079">
        <ele>75.114292</ele>
        <time>2020-08-08T10:53:44.479Z</time>
      </trkpt>
      <trkpt lat="63.66337" lon="10.17509">
        <ele>78.30272</ele>
        <time>2020-08-08T11:05:50.492Z</time>
      </trkpt>
      <trkpt lat="63.66469" lon="10.17918">
        <ele>81.108642</ele>
        <time>2020-08-08T11:06:56.473Z</time>
      </trkpt>
      <trkpt lat="63.6659" lon="10.18273">
        <ele>80.86819</ele>
        <time>2020-08-08T11:07:43.441Z</time>
      </trkpt>
      <trkpt lat="63.66618" lon="10.18794">
        <ele>75.253858</ele>
        <time>2020-08-08T11:08:36.465Z</time>
      </trkpt>
      <trkpt lat="63.66693" lon="10.19286">
        <ele>77.542154</ele>
        <time>2020-08-08T11:09:35.490Z</time>
      </trkpt>
      <trkpt lat="63.66824" lon="10.19678">
        <ele>82.616996</ele>
        <time>2020-08-08T11:10:36.478Z</time>
      </trkpt>
      <trkpt lat="63.66954" lon="10.20051">
        <ele>84.402581</ele>
        <time>2020-08-08T11:11:44.526Z</time>
      </trkpt>
      <trkpt lat="63.67089" lon="10.20454">
        <ele>83.083575</ele>
        <time>2020-08-08T11:12:26.481Z</time>
      </trkpt>
      <trkpt lat="63.67231" lon="10.20806">
        <ele>86.970715</ele>
        <time>2020-08-08T11:13:27.475Z</time>
      </trkpt>
      <trkpt lat="63.67318" lon="10.21258">
        <ele>88.574534</ele>
        <time>2020-08-08T11:14:21.490Z</time>
      </trkpt>
      <trkpt lat="63.67488" lon="10.21533">
        <ele>99.563966</ele>
        <time>2020-08-08T11:15:40.503Z</time>
      </trkpt>
      <trkpt lat="63.67606" lon="10.21874">
        <ele>117.22147</ele>
        <time>2020-08-08T11:17:31.441Z</time>
      </trkpt>
      <trkpt lat="63.67722" lon="10.22244">
        <ele>129.73366</ele>
        <time>2020-08-08T11:19:39.491Z</time>
      </trkpt>
      <trkpt lat="63.67847" lon="10.2257">
        <ele>144.916561</ele>
        <time>2020-08-08T11:21:57.445Z</time>
      </trkpt>
      <trkpt lat="63.67975" lon="10.22892">
        <ele>159.328832</ele>
        <time>2020-08-08T11:24:30.449Z</time>
      </trkpt>
      <trkpt lat="63.68092" lon="10.23264">
        <ele>169.354365</ele>
        <time>2020-08-08T11:26:33.502Z</time>
      </trkpt>
      <trkpt lat="63.68206" lon="10.23632">
        <ele>177.682801</ele>
        <time>2020-08-08T11:28:15.457Z</time>
      </trkpt>
      <trkpt lat="63.6834" lon="10.24009">
        <ele>187.495858</ele>
        <time>2020-08-08T11:29:43.491Z</time>
      </trkpt>
      <trkpt lat="63.68507" lon="10.24234">
        <ele>202.309649</ele>
        <time>2020-08-08T11:31:29.478Z</time>
      </trkpt>
      <trkpt lat="63.68692" lon="10.2437">
        <ele>216.555711</ele>
        <time>2020-08-08T11:33:27.451Z</time>
      </trkpt>
      <trkpt lat="63.6889" lon="10.24461">
        <ele>229.929538</ele>
        <time>2020-08-08T11:35:58.454Z</time>
      </trkpt>
      <trkpt lat="63.69084" lon="10.24488">
        <ele>240.472126</ele>
        <time>2020-08-08T11:38:10.477Z</time>
      </trkpt>
      <trkpt lat="63.69278" lon="10.24427">
        <ele>256.740297</ele>
        <time>2020-08-08T11:40:18.461Z</time>
      </trkpt>
      <trkpt lat="63.69478" lon="10.24337">
        <ele>269.829096</ele>
        <time>2020-08-08T11:42:44.481Z</time>
      </trkpt>
      <trkpt lat="63.69674" lon="10.2423">
        <ele>274.339114</ele>
        <time>2020-08-08T11:46:48.479Z</time>
      </trkpt>
      <trkpt lat="63.69855" lon="10.2397">
        <ele>273.185501</ele>
        <time>2020-08-08T11:47:45.454Z</time>
      </trkpt>
      <trkpt lat="63.70045" lon="10.23839">
        <ele>274.354184</ele>
        <time>2020-08-08T11:48:28.456Z</time>
      </trkpt>
      <trkpt lat="63.70234" lon="10.23753">
        <ele>274.528879</ele>
        <time>2020-08-08T11:49:08.457Z</time>
      </trkpt>
      <trkpt lat="63.70436" lon="10.23634">
        <ele>272.457742</ele>
        <time>2020-08-08T11:49:53.473Z</time>
      </trkpt>
      <trkpt lat="63.70632" lon="10.23522">
        <ele>273.05811</ele>
        <time>2020-08-08T11:50:33.448Z</time>
      </trkpt>
      <trkpt lat="63.70833" lon="10.23545">
        <ele>273.450327</ele>
        <time>2020-08-08T11:51:13.480Z</time>
      </trkpt>
      <trkpt lat="63.71039" lon="10.2358">
        <ele>275.95012</ele>
        <time>2020-08-08T11:51:55.459Z</time>
      </trkpt>
      <trkpt lat="63.71243" lon="10.23671">
        <ele>273.748211</ele>
        <time>2020-08-08T11:52:36.506Z</time>
      </trkpt>
      <trkpt lat="63.71484" lon="10.23562">
        <ele>273.800032</ele>
        <time>2020-08-08T11:53:18.466Z</time>
      </trkpt>
      <trkpt lat="63.71725" lon="10.23444">
        <ele>267.569888</ele>
        <time>2020-08-08T11:53:58.471Z</time>
      </trkpt>
      <trkpt lat="63.71964" lon="10.2324">
        <ele>263.412654</ele>
        <time>2020-08-08T11:54:38.507Z</time>
      </trkpt>
      <trkpt lat="63.72243" lon="10.23316">
        <ele>255.173867</ele>
        <time>2020-08-08T11:55:18.478Z</time>
      </trkpt>
      <trkpt lat="63.72474" lon="10.23442">
        <ele>241.659263</ele>
        <time>2020-08-08T11:55:43.501Z</time>
      </trkpt>
      <trkpt lat="63.7271" lon="10.23512">
        <ele>228.065971</ele>
        <time>2020-08-08T11:56:03.463Z</time>
      </trkpt>
      <trkpt lat="63.72932" lon="10.23483">
        <ele>217.105103</ele>
        <time>2020-08-08T11:56:27.491Z</time>
      </trkpt>
      <trkpt lat="63.73165" lon="10.23446">
        <ele>199.018046</ele>
        <time>2020-08-08T11:56:47.477Z</time>
      </trkpt>
      <trkpt lat="63.73386" lon="10.23429">
        <ele>188.953083</ele>
        <time>2020-08-08T11:57:08.450Z</time>
      </trkpt>
      <trkpt lat="63.73627" lon="10.23324">
        <ele>183.813871</ele>
        <time>2020-08-08T11:57:46.497Z</time>
      </trkpt>
      <trkpt lat="63.7383" lon="10.2346">
        <ele>191.335462</ele>
        <time>2020-08-08T11:58:34.459Z</time>
      </trkpt>
      <trkpt lat="63.74034" lon="10.23629">
        <ele>191.250309</ele>
        <time>2020-08-08T11:59:16.456Z</time>
      </trkpt>
      <trkpt lat="63.74245" lon="10.23742">
        <ele>191.415449</ele>
        <time>2020-08-08T12:00:01.467Z</time>
      </trkpt>
      <trkpt lat="63.74482" lon="10.23809">
        <ele>192.804912</ele>
        <time>2020-08-08T12:00:53.487Z</time>
      </trkpt>
      <trkpt lat="63.74719" lon="10.23713">
        <ele>188.677636</ele>
        <time>2020-08-08T12:01:33.501Z</time>
      </trkpt>
      <trkpt lat="63.74987" lon="10.23676">
        <ele>181.432919</ele>
        <time>2020-08-08T12:02:13.477Z</time>
      </trkpt>
      <trkpt lat="63.75259" lon="10.23726">
        <ele>171.944495</ele>
        <time>2020-08-08T12:02:53.484Z</time>
      </trkpt>
      <trkpt lat="63.75496" lon="10.23702">
        <ele>162.432199</ele>
        <time>2020-08-08T12:03:22.469Z</time>
      </trkpt>
      <trkpt lat="63.75745" lon="10.23778">
        <ele>150.830844</ele>
        <time>2020-08-08T12:04:02.494Z</time>
      </trkpt>
      <trkpt lat="63.75957" lon="10.23936">
        <ele>158.133289</ele>
        <time>2020-08-08T12:05:00.444Z</time>
      </trkpt>
      <trkpt lat="63.76191" lon="10.23893">
        <ele>161.859859</ele>
        <time>2020-08-08T12:05:52.460Z</time>
      </trkpt>
      <trkpt lat="63.76417" lon="10.23957">
        <ele>165.461188</ele>
        <time>2020-08-08T12:07:07.481Z</time>
      </trkpt>
      <trkpt lat="63.76617" lon="10.23995">
        <ele>176.986773</ele>
        <time>2020-08-08T12:08:37.453Z</time>
      </trkpt>
      <trkpt lat="63.76803" lon="10.23852">
        <ele>188.045373</ele>
        <time>2020-08-08T12:10:40.459Z</time>
      </trkpt>
      <trkpt lat="63.76992" lon="10.23677">
        <ele>203.4101</ele>
        <time>2020-08-08T12:13:02.450Z</time>
      </trkpt>
      <trkpt lat="63.77198" lon="10.23662">
        <ele>205.645927</ele>
        <time>2020-08-08T12:14:46.452Z</time>
      </trkpt>
      <trkpt lat="63.77439" lon="10.2363">
        <ele>191.988324</ele>
        <time>2020-08-08T12:15:16.477Z</time>
      </trkpt>
      <trkpt lat="63.77675" lon="10.23278">
        <ele>177.585558</ele>
        <time>2020-08-08T12:15:39.470Z</time>
      </trkpt>
      <trkpt lat="63.77723" lon="10.22667">
        <ele>166.062941</ele>
        <time>2020-08-08T12:16:12.493Z</time>
      </trkpt>
      <trkpt lat="63.77751" lon="10.22185">
        <ele>167.150564</ele>
        <time>2020-08-08T12:16:54.447Z</time>
      </trkpt>
      <trkpt lat="63.77914" lon="10.21802">
        <ele>165.751193</ele>
        <time>2020-08-08T12:17:34.462Z</time>
      </trkpt>
      <trkpt lat="63.78126" lon="10.21937">
        <ele>164.712064</ele>
        <time>2020-08-08T12:18:14.469Z</time>
      </trkpt>
      <trkpt lat="63.7831" lon="10.22292">
        <ele>162.169046</ele>
        <time>2020-08-08T12:18:57.476Z</time>
      </trkpt>
      <trkpt lat="63.78473" lon="10.22694">
        <ele>162.253252</ele>
        <time>2020-08-08T12:19:37.479Z</time>
      </trkpt>
      <trkpt lat="63.78645" lon="10.23106">
        <ele>163.342262</ele>
        <time>2020-08-08T12:20:18.447Z</time>
      </trkpt>
      <trkpt lat="63.78876" lon="10.23166">
        <ele>171.684304</ele>
        <time>2020-08-08T12:21:25.484Z</time>
      </trkpt>
      <trkpt lat="63.79063" lon="10.23356">
        <ele>173.308473</ele>
        <time>2020-08-08T12:22:37.442Z</time>
      </trkpt>
      <trkpt lat="63.79284" lon="10.23274">
        <ele>164.710347</ele>
        <time>2020-08-08T12:23:29.474Z</time>
      </trkpt>
      <trkpt lat="63.79584" lon="10.23282">
        <ele>159.869957</ele>
        <time>2020-08-08T12:24:09.451Z</time>
      </trkpt>
      <trkpt lat="63.79872" lon="10.23184">
        <ele>152.887843</ele>
        <time>2020-08-08T12:24:49.473Z</time>
      </trkpt>
      <trkpt lat="63.80108" lon="10.23138">
        <ele>146.265948</ele>
        <time>2020-08-08T12:25:12.449Z</time>
      </trkpt>
      <trkpt lat="63.80286" lon="10.22771">
        <ele>138.782729</ele>
        <time>2020-08-08T12:25:51.463Z</time>
      </trkpt>
      <trkpt lat="63.80401" lon="10.22968">
        <ele>138.733568</ele>
        <time>2020-08-08T12:26:39.490Z</time>
      </trkpt>
      <trkpt lat="63.80503" lon="10.23376">
        <ele>140.764383</ele>
        <time>2020-08-08T12:27:21.451Z</time>
      </trkpt>
      <trkpt lat="63.80703" lon="10.23395">
        <ele>149.056234</ele>
        <time>2020-08-08T12:28:14.453Z</time>
      </trkpt>
      <trkpt lat="63.80913" lon="10.23498">
        <ele>162.425496</ele>
        <time>2020-08-08T12:30:11.484Z</time>
      </trkpt>
      <trkpt lat="63.8111" lon="10.23549">
        <ele>171.560709</ele>
        <time>2020-08-08T12:31:50.500Z</time>
      </trkpt>
      <trkpt lat="63.8131" lon="10.23558">
        <ele>175.443897</ele>
        <time>2020-08-08T12:33:23.492Z</time>
      </trkpt>
      <trkpt lat="63.81533" lon="10.23499">
        <ele>167.932608</ele>
        <time>2020-08-08T12:34:05.459Z</time>
      </trkpt>
      <trkpt lat="63.81741" lon="10.23413">
        <ele>173.400488</ele>
        <time>2020-08-08T12:34:47.447Z</time>
      </trkpt>
      <trkpt lat="63.81933" lon="10.23228">
        <ele>171.597972</ele>
        <time>2020-08-08T12:35:28.451Z</time>
      </trkpt>
      <trkpt lat="63.82108" lon="10.23004">
        <ele>171.89458</ele>
        <time>2020-08-08T12:36:11.494Z</time>
      </trkpt>
      <trkpt lat="63.82312" lon="10.23036">
        <ele>169.060549</ele>
        <time>2020-08-08T12:36:51.486Z</time>
      </trkpt>
      <trkpt lat="63.82533" lon="10.23022">
        <ele>168.537778</ele>
        <time>2020-08-08T12:37:33.457Z</time>
      </trkpt>
      <trkpt lat="63.8274" lon="10.22881">
        <ele>172.109414</ele>
        <time>2020-08-08T12:38:19.483Z</time>
      </trkpt>
      <trkpt lat="63.82947" lon="10.22823">
        <ele>168.193322</ele>
        <time>2020-08-08T12:39:03.486Z</time>
      </trkpt>
      <trkpt lat="63.83159" lon="10.22953">
        <ele>170.581998</ele>
        <time>2020-08-08T12:39:47.467Z</time>
      </trkpt>
      <trkpt lat="63.83357" lon="10.23081">
        <ele>181.49628</ele>
        <time>2020-08-08T12:40:58.503Z</time>
      </trkpt>
      <trkpt lat="63.83564" lon="10.23019">
        <ele>186.82488</ele>
        <time>2020-08-08T12:42:25.500Z</time>
      </trkpt>
      <trkpt lat="63.83759" lon="10.22869">
        <ele>188.544443</ele>
        <time>2020-08-08T12:48:18.435Z</time>
      </trkpt>
      <trkpt lat="63.83957" lon="10.22915">
        <ele>197.133181</ele>
        <time>2020-08-08T12:49:50.495Z</time>
      </trkpt>
      <trkpt lat="63.84169" lon="10.22926">
        <ele>204.364881</ele>
        <time>2020-08-08T12:51:31.474Z</time>
      </trkpt>
      <trkpt lat="63.84357" lon="10.22742">
        <ele>202.874243</ele>
        <time>2020-08-08T12:52:49.486Z</time>
      </trkpt>
      <trkpt lat="63.84585" lon="10.22618">
        <ele>200.961145</ele>
        <time>2020-08-08T12:53:33.445Z</time>
      </trkpt>
      <trkpt lat="63.84812" lon="10.22507">
        <ele>202.535411</ele>
        <time>2020-08-08T12:54:29.475Z</time>
      </trkpt>
      <trkpt lat="63.85033" lon="10.2247">
        <ele>199.132929</ele>
        <time>2020-08-08T12:55:24.468Z</time>
      </trkpt>
      <trkpt lat="63.85263" lon="10.22456">
        <ele>199.526191</ele>
        <time>2020-08-08T12:56:20.490Z</time>
      </trkpt>
      <trkpt lat="63.8546" lon="10.22591">
        <ele>210.180245</ele>
        <time>2020-08-08T12:57:29.462Z</time>
      </trkpt>
      <trkpt lat="63.85648" lon="10.22672">
        <ele>218.154597</ele>
        <time>2020-08-08T12:59:10.533Z</time>
      </trkpt>
      <trkpt lat="63.85862" lon="10.22552">
        <ele>213.766548</ele>
        <time>2020-08-08T13:00:04.474Z</time>
      </trkpt>
      <trkpt lat="63.86064" lon="10.22382">
        <ele>210.359527</ele>
        <time>2020-08-08T13:00:44.526Z</time>
      </trkpt>
      <trkpt lat="63.86276" lon="10.22334">
        <ele>210.635896</ele>
        <time>2020-08-08T13:01:38.466Z</time>
      </trkpt>
      <trkpt lat="63.86493" lon="10.22225">
        <ele>206.724019</ele>
        <time>2020-08-08T13:02:30.462Z</time>
      </trkpt>
      <trkpt lat="63.86698" lon="10.22087">
        <ele>207.402812</ele>
        <time>2020-08-08T13:03:20.496Z</time>
      </trkpt>
      <trkpt lat="63.86918" lon="10.2192">
        <ele>214.672084</ele>
        <time>2020-08-08T13:04:11.480Z</time>
      </trkpt>
      <trkpt lat="63.87117" lon="10.21886">
        <ele>223.066278</ele>
        <time>2020-08-08T13:05:42.480Z</time>
      </trkpt>
      <trkpt lat="63.87339" lon="10.21817">
        <ele>226.259442</ele>
        <time>2020-08-08T13:06:47.463Z</time>
      </trkpt>
      <trkpt lat="63.87564" lon="10.2166">
        <ele>223.166106</ele>
        <time>2020-08-08T13:07:49.479Z</time>
      </trkpt>
      <trkpt lat="63.87832" lon="10.21619">
        <ele>212.428146</ele>
        <time>2020-08-08T13:08:22.510Z</time>
      </trkpt>
      <trkpt lat="63.88055" lon="10.21659">
        <ele>207.65405</ele>
        <time>2020-08-08T13:09:09.461Z</time>
      </trkpt>
      <trkpt lat="63.88272" lon="10.21585">
        <ele>208.885364</ele>
        <time>2020-08-08T13:09:55.495Z</time>
      </trkpt>
      <trkpt lat="63.885" lon="10.21598">
        <ele>208.418901</ele>
        <time>2020-08-08T13:10:47.468Z</time>
      </trkpt>
      <trkpt lat="63.88763" lon="10.21536">
        <ele>204.611006</ele>
        <time>2020-08-08T13:11:30.459Z</time>
      </trkpt>
      <trkpt lat="63.89019" lon="10.21543">
        <ele>195.336658</ele>
        <time>2020-08-08T13:12:02.462Z</time>
      </trkpt>
      <trkpt lat="63.89155" lon="10.21837">
        <ele>184.662387</ele>
        <time>2020-08-08T13:12:22.459Z</time>
      </trkpt>
      <trkpt lat="63.89299" lon="10.22205">
        <ele>168.219571</ele>
        <time>2020-08-08T13:12:45.480Z</time>
      </trkpt>
      <trkpt lat="63.89486" lon="10.22602">
        <ele>154.822852</ele>
        <time>2020-08-08T13:13:14.482Z</time>
      </trkpt>
      <trkpt lat="63.89681" lon="10.2282">
        <ele>142.640486</ele>
        <time>2020-08-08T13:13:34.490Z</time>
      </trkpt>
      <trkpt lat="63.89912" lon="10.22929">
        <ele>129.519294</ele>
        <time>2020-08-08T13:13:55.481Z</time>
      </trkpt>
      <trkpt lat="63.90112" lon="10.23164">
        <ele>113.713957</ele>
        <time>2020-08-08T13:14:15.492Z</time>
      </trkpt>
      <trkpt lat="63.90324" lon="10.23218">
        <ele>99.039988</ele>
        <time>2020-08-08T13:14:36.481Z</time>
      </trkpt>
      <trkpt lat="63.90379" lon="10.23693">
        <ele>82.14236</ele>
        <time>2020-08-08T13:14:56.508Z</time>
      </trkpt>
      <trkpt lat="63.90409" lon="10.24184">
        <ele>65.93907</ele>
        <time>2020-08-08T13:15:16.449Z</time>
      </trkpt>
      <trkpt lat="63.90596" lon="10.24508">
        <ele>54.037358</ele>
        <time>2020-08-08T13:15:38.462Z</time>
      </trkpt>
      <trkpt lat="63.90773" lon="10.24791">
        <ele>56.858346</ele>
        <time>2020-08-08T13:16:30.485Z</time>
      </trkpt>
      <trkpt lat="63.90979" lon="10.25065">
        <ele>55.685091</ele>
        <time>2020-08-08T13:17:10.469Z</time>
      </trkpt>
      <trkpt lat="63.91101" lon="10.24696">
        <ele>55.225767</ele>
        <time>2020-08-08T13:18:04.478Z</time>
      </trkpt>
      <trkpt lat="63.91088" lon="10.24143">
        <ele>56.552753</ele>
        <time>2020-08-08T13:19:02.502Z</time>
      </trkpt>
      <trkpt lat="63.91005" lon="10.23675">
        <ele>67.682673</ele>
        <time>2020-08-08T13:20:21.452Z</time>
      </trkpt>
      <trkpt lat="63.91141" lon="10.23286">
        <ele>62.018567</ele>
        <time>2020-08-08T13:21:09.459Z</time>
      </trkpt>
      <trkpt lat="63.91315" lon="10.23037">
        <ele>65.905721</ele>
        <time>2020-08-08T13:22:24.477Z</time>
      </trkpt>
      <trkpt lat="63.91529" lon="10.23085">
        <ele>64.683722</ele>
        <time>2020-08-08T13:23:36.456Z</time>
      </trkpt>
      <trkpt lat="63.91724" lon="10.23112">
        <ele>66.456495</ele>
        <time>2020-08-08T13:24:23.471Z</time>
      </trkpt>
      <trkpt lat="63.91956" lon="10.22968">
        <ele>66.920226</ele>
        <time>2020-08-08T13:25:27.489Z</time>
      </trkpt>
      <trkpt lat="63.921" lon="10.22604">
        <ele>61.626162</ele>
        <time>2020-08-08T13:26:11.473Z</time>
      </trkpt>
      <trkpt lat="63.92085" lon="10.22101">
        <ele>61.398767</ele>
        <time>2020-08-08T13:26:58.452Z</time>
      </trkpt>
      <trkpt lat="63.92031" lon="10.21627">
        <ele>66.507896</ele>
        <time>2020-08-08T13:28:03.506Z</time>
      </trkpt>
      <trkpt lat="63.92205" lon="10.21543">
        <ele>68.694557</ele>
        <time>2020-08-08T13:29:22.468Z</time>
      </trkpt>
      <trkpt lat="63.92413" lon="10.21712">
        <ele>69.634372</ele>
        <time>2020-08-08T13:30:31.456Z</time>
      </trkpt>
      <trkpt lat="63.92584" lon="10.22102">
        <ele>60.581415</ele>
        <time>2020-08-08T13:31:06.470Z</time>
      </trkpt>
      <trkpt lat="63.92755" lon="10.22485">
        <ele>51.473409</ele>
        <time>2020-08-08T13:31:31.479Z</time>
      </trkpt>
      <trkpt lat="63.93085" lon="10.22545">
        <ele>67.837445</ele>
        <time>2020-08-08T13:33:39.470Z</time>
      </trkpt>
      <trkpt lat="63.93263" lon="10.22208">
        <ele>58.712115</ele>
        <time>2020-08-08T13:34:22.448Z</time>
      </trkpt>
      <trkpt lat="63.935" lon="10.22197">
        <ele>55.21166</ele>
        <time>2020-08-08T13:35:07.474Z</time>
      </trkpt>
      <trkpt lat="63.93713" lon="10.22339">
        <ele>56.220752</ele>
        <time>2020-08-08T13:35:49.452Z</time>
      </trkpt>
      <trkpt lat="63.93911" lon="10.22274">
        <ele>61.628439</ele>
        <time>2020-08-08T13:36:51.480Z</time>
      </trkpt>
      <trkpt lat="63.94109" lon="10.2226">
        <ele>69.310777</ele>
        <time>2020-08-08T13:38:25.503Z</time>
      </trkpt>
      <trkpt lat="63.94328" lon="10.22324">
        <ele>70.757582</ele>
        <time>2020-08-08T13:39:41.461Z</time>
      </trkpt>
      <trkpt lat="63.94581" lon="10.22456">
        <ele>58.813103</ele>
        <time>2020-08-08T13:40:21.499Z</time>
      </trkpt>
      <trkpt lat="63.94854" lon="10.22584">
        <ele>53.40864</ele>
        <time>2020-08-08T13:41:03.460Z</time>
      </trkpt>
      <trkpt lat="63.95055" lon="10.22667">
        <ele>56.085579</ele>
        <time>2020-08-08T13:41:44.457Z</time>
      </trkpt>
      <trkpt lat="63.9527" lon="10.22685">
        <ele>59.106899</ele>
        <time>2020-08-08T13:42:49.498Z</time>
      </trkpt>
      <trkpt lat="63.95476" lon="10.22687">
        <ele>69.004833</ele>
        <time>2020-08-08T13:44:51.482Z</time>
      </trkpt>
      <trkpt lat="63.95687" lon="10.22713">
        <ele>68.765652</ele>
        <time>2020-08-08T13:46:12.474Z</time>
      </trkpt>
      <trkpt lat="63.95892" lon="10.22629">
        <ele>50.445804</ele>
        <time>2020-08-08T13:46:54.526Z</time>
      </trkpt>
      <trkpt lat="63.9576" lon="10.22198">
        <ele>45.032728</ele>
        <time>2020-08-08T13:47:51.474Z</time>
      </trkpt>
    </trkseg>
  </trk>
  <trk>
    <name><![CDATA[Tour d'Europe: étape 042]]></name>
    <trkseg>
      <trkpt lat="63.95746" lon="10.22164">
        <ele>53.409703</ele>
        <time>2020-08-09T08:15:46.677Z</time>
      </trkpt>
      <trkpt lat="63.95862" lon="10.22552">
        <ele>51.604347</ele>
        <time>2020-08-09T08:16:50.720Z</time>
      </trkpt>
      <trkpt lat="63.96037" lon="10.22525">
        <ele>58.834173</ele>
        <time>2020-08-09T08:18:04.719Z</time>
      </trkpt>
      <trkpt lat="63.96222" lon="10.22279">
        <ele>62.045082</ele>
        <time>2020-08-09T08:19:08.675Z</time>
      </trkpt>
      <trkpt lat="63.96413" lon="10.22099">
        <ele>59.041647</ele>
        <time>2020-08-09T08:20:08.682Z</time>
      </trkpt>
      <trkpt lat="63.96586" lon="10.22099">
        <ele>63.421811</ele>
        <time>2020-08-09T08:21:17.677Z</time>
      </trkpt>
      <trkpt lat="63.96695" lon="10.22505">
        <ele>62.471842</ele>
        <time>2020-08-09T08:28:24.700Z</time>
      </trkpt>
      <trkpt lat="63.96923" lon="10.22526">
        <ele>64.565</ele>
        <time>2020-08-09T08:29:22.702Z</time>
      </trkpt>
      <trkpt lat="63.97109" lon="10.22709">
        <ele>74.960953</ele>
        <time>2020-08-09T08:30:40.716Z</time>
      </trkpt>
      <trkpt lat="63.97261" lon="10.23021">
        <ele>86.869886</ele>
        <time>2020-08-09T08:32:24.678Z</time>
      </trkpt>
      <trkpt lat="63.97397" lon="10.23327">
        <ele>100.4429</ele>
        <time>2020-08-09T08:34:39.726Z</time>
      </trkpt>
      <trkpt lat="63.97564" lon="10.23667">
        <ele>99.265127</ele>
        <time>2020-08-09T08:35:45.724Z</time>
      </trkpt>
      <trkpt lat="63.97721" lon="10.24024">
        <ele>98.478933</ele>
        <time>2020-08-09T08:36:45.719Z</time>
      </trkpt>
      <trkpt lat="63.9784" lon="10.24465">
        <ele>97.319733</ele>
        <time>2020-08-09T08:37:31.683Z</time>
      </trkpt>
      <trkpt lat="63.98001" lon="10.24999">
        <ele>87.485243</ele>
        <time>2020-08-09T08:38:11.685Z</time>
      </trkpt>
      <trkpt lat="63.98123" lon="10.25641">
        <ele>83.630189</ele>
        <time>2020-08-09T08:38:53.676Z</time>
      </trkpt>
      <trkpt lat="63.98232" lon="10.2605">
        <ele>81.544733</ele>
        <time>2020-08-09T08:39:36.722Z</time>
      </trkpt>
      <trkpt lat="63.98363" lon="10.26542">
        <ele>92.932186</ele>
        <time>2020-08-09T08:40:36.700Z</time>
      </trkpt>
      <trkpt lat="63.98461" lon="10.26986">
        <ele>93.171802</ele>
        <time>2020-08-09T08:41:25.692Z</time>
      </trkpt>
      <trkpt lat="63.98613" lon="10.27376">
        <ele>90.078023</ele>
        <time>2020-08-09T08:42:18.695Z</time>
      </trkpt>
      <trkpt lat="63.98764" lon="10.27752">
        <ele>85.625454</ele>
        <time>2020-08-09T08:43:01.671Z</time>
      </trkpt>
      <trkpt lat="63.98877" lon="10.28125">
        <ele>85.59393</ele>
        <time>2020-08-09T08:43:41.730Z</time>
      </trkpt>
      <trkpt lat="63.98983" lon="10.28526">
        <ele>91.418314</ele>
        <time>2020-08-09T08:44:35.687Z</time>
      </trkpt>
      <trkpt lat="63.99103" lon="10.2901">
        <ele>88.832079</ele>
        <time>2020-08-09T08:45:35.718Z</time>
      </trkpt>
      <trkpt lat="63.99255" lon="10.29505">
        <ele>87.629146</ele>
        <time>2020-08-09T08:46:29.680Z</time>
      </trkpt>
      <trkpt lat="63.99429" lon="10.29746">
        <ele>94.118017</ele>
        <time>2020-08-09T08:47:37.713Z</time>
      </trkpt>
      <trkpt lat="63.99585" lon="10.30063">
        <ele>95.917183</ele>
        <time>2020-08-09T08:48:49.678Z</time>
      </trkpt>
      <trkpt lat="63.99642" lon="10.30564">
        <ele>91.05354</ele>
        <time>2020-08-09T08:49:37.683Z</time>
      </trkpt>
      <trkpt lat="63.99736" lon="10.30992">
        <ele>78.744623</ele>
        <time>2020-08-09T08:49:57.681Z</time>
      </trkpt>
      <trkpt lat="63.99877" lon="10.31474">
        <ele>81.253171</ele>
        <time>2020-08-09T08:50:36.677Z</time>
      </trkpt>
      <trkpt lat="64.00048" lon="10.31841">
        <ele>84.321926</ele>
        <time>2020-08-09T08:51:32.673Z</time>
      </trkpt>
      <trkpt lat="64.00182" lon="10.32296">
        <ele>89.298001</ele>
        <time>2020-08-09T08:52:32.727Z</time>
      </trkpt>
      <trkpt lat="64.0032" lon="10.32707">
        <ele>90.043176</ele>
        <time>2020-08-09T08:53:14.673Z</time>
      </trkpt>
      <trkpt lat="64.0045" lon="10.33156">
        <ele>89.336371</ele>
        <time>2020-08-09T08:54:03.700Z</time>
      </trkpt>
      <trkpt lat="64.00587" lon="10.33513">
        <ele>90.941755</ele>
        <time>2020-08-09T08:55:08.684Z</time>
      </trkpt>
      <trkpt lat="64.00727" lon="10.33822">
        <ele>102.647478</ele>
        <time>2020-08-09T08:56:52.723Z</time>
      </trkpt>
      <trkpt lat="64.00842" lon="10.34171">
        <ele>119.364876</ele>
        <time>2020-08-09T08:59:08.695Z</time>
      </trkpt>
      <trkpt lat="64.01006" lon="10.34489">
        <ele>128.633527</ele>
        <time>2020-08-09T09:00:47.693Z</time>
      </trkpt>
      <trkpt lat="64.01132" lon="10.34822">
        <ele>134.580525</ele>
        <time>2020-08-09T09:02:39.697Z</time>
      </trkpt>
      <trkpt lat="64.01256" lon="10.35159">
        <ele>146.354276</ele>
        <time>2020-08-09T09:04:51.695Z</time>
      </trkpt>
      <trkpt lat="64.01398" lon="10.3546">
        <ele>155.424856</ele>
        <time>2020-08-09T09:06:51.684Z</time>
      </trkpt>
      <trkpt lat="64.01522" lon="10.35804">
        <ele>163.062618</ele>
        <time>2020-08-09T09:08:39.727Z</time>
      </trkpt>
      <trkpt lat="64.01653" lon="10.36205">
        <ele>167.181499</ele>
        <time>2020-08-09T09:10:06.699Z</time>
      </trkpt>
      <trkpt lat="64.01775" lon="10.36573">
        <ele>168.875223</ele>
        <time>2020-08-09T09:11:07.725Z</time>
      </trkpt>
      <trkpt lat="64.0187" lon="10.37057">
        <ele>166.757362</ele>
        <time>2020-08-09T09:11:58.720Z</time>
      </trkpt>
      <trkpt lat="64.0204" lon="10.37448">
        <ele>151.978925</ele>
        <time>2020-08-09T09:12:18.711Z</time>
      </trkpt>
      <trkpt lat="64.02249" lon="10.37885">
        <ele>129.963873</ele>
        <time>2020-08-09T09:12:40.674Z</time>
      </trkpt>
      <trkpt lat="64.02405" lon="10.3819">
        <ele>133.836337</ele>
        <time>2020-08-09T09:14:18.731Z</time>
      </trkpt>
      <trkpt lat="64.02538" lon="10.38553">
        <ele>141.275484</ele>
        <time>2020-08-09T09:15:39.709Z</time>
      </trkpt>
      <trkpt lat="64.02629" lon="10.3895">
        <ele>143.722184</ele>
        <time>2020-08-09T09:16:42.680Z</time>
      </trkpt>
      <trkpt lat="64.02772" lon="10.39313">
        <ele>150.731247</ele>
        <time>2020-08-09T09:18:07.669Z</time>
      </trkpt>
      <trkpt lat="64.02904" lon="10.39656">
        <ele>157.310951</ele>
        <time>2020-08-09T09:19:37.676Z</time>
      </trkpt>
      <trkpt lat="64.03044" lon="10.40044">
        <ele>153.308586</ele>
        <time>2020-08-09T09:20:42.718Z</time>
      </trkpt>
      <trkpt lat="64.03195" lon="10.40456">
        <ele>143.840826</ele>
        <time>2020-08-09T09:21:10.729Z</time>
      </trkpt>
      <trkpt lat="64.03347" lon="10.4084">
        <ele>146.815047</ele>
        <time>2020-08-09T09:21:51.689Z</time>
      </trkpt>
      <trkpt lat="64.03481" lon="10.41181">
        <ele>161.693301</ele>
        <time>2020-08-09T09:24:02.681Z</time>
      </trkpt>
      <trkpt lat="64.0361" lon="10.41514">
        <ele>169.942468</ele>
        <time>2020-08-09T09:26:00.709Z</time>
      </trkpt>
      <trkpt lat="64.03756" lon="10.41885">
        <ele>167.304412</ele>
        <time>2020-08-09T09:26:50.730Z</time>
      </trkpt>
      <trkpt lat="64.03898" lon="10.42245">
        <ele>169.734852</ele>
        <time>2020-08-09T09:27:54.681Z</time>
      </trkpt>
      <trkpt lat="64.04048" lon="10.42614">
        <ele>172.284658</ele>
        <time>2020-08-09T09:29:08.717Z</time>
      </trkpt>
      <trkpt lat="64.04221" lon="10.4288">
        <ele>170.979875</ele>
        <time>2020-08-09T09:29:48.679Z</time>
      </trkpt>
      <trkpt lat="64.04382" lon="10.43187">
        <ele>176.003607</ele>
        <time>2020-08-09T09:30:46.711Z</time>
      </trkpt>
      <trkpt lat="64.04509" lon="10.43528">
        <ele>186.785377</ele>
        <time>2020-08-09T09:32:30.677Z</time>
      </trkpt>
      <trkpt lat="64.04643" lon="10.43867">
        <ele>190.366801</ele>
        <time>2020-08-09T09:33:58.725Z</time>
      </trkpt>
      <trkpt lat="64.04841" lon="10.44297">
        <ele>175.666057</ele>
        <time>2020-08-09T09:34:38.685Z</time>
      </trkpt>
      <trkpt lat="64.05099" lon="10.44567">
        <ele>170.801897</ele>
        <time>2020-08-09T09:35:18.692Z</time>
      </trkpt>
      <trkpt lat="64.05289" lon="10.44774">
        <ele>178.500039</ele>
        <time>2020-08-09T09:36:36.691Z</time>
      </trkpt>
      <trkpt lat="64.05455" lon="10.45054">
        <ele>177.867871</ele>
        <time>2020-08-09T09:37:27.684Z</time>
      </trkpt>
      <trkpt lat="64.05648" lon="10.45312">
        <ele>178.999471</ele>
        <time>2020-08-09T09:38:33.686Z</time>
      </trkpt>
      <trkpt lat="64.05826" lon="10.45521">
        <ele>185.786887</ele>
        <time>2020-08-09T09:40:07.701Z</time>
      </trkpt>
      <trkpt lat="64.06007" lon="10.45716">
        <ele>193.080606</ele>
        <time>2020-08-09T09:41:34.714Z</time>
      </trkpt>
      <trkpt lat="64.06202" lon="10.45927">
        <ele>196.588942</ele>
        <time>2020-08-09T09:42:53.699Z</time>
      </trkpt>
      <trkpt lat="64.06391" lon="10.46157">
        <ele>202.750421</ele>
        <time>2020-08-09T09:44:29.716Z</time>
      </trkpt>
      <trkpt lat="64.06562" lon="10.46416">
        <ele>205.678721</ele>
        <time>2020-08-09T09:45:44.709Z</time>
      </trkpt>
      <trkpt lat="64.06734" lon="10.46693">
        <ele>209.7981</ele>
        <time>2020-08-09T09:47:00.707Z</time>
      </trkpt>
      <trkpt lat="64.0688" lon="10.47011">
        <ele>212.281286</ele>
        <time>2020-08-09T09:48:18.719Z</time>
      </trkpt>
      <trkpt lat="64.07053" lon="10.47353">
        <ele>205.975904</ele>
        <time>2020-08-09T09:48:55.697Z</time>
      </trkpt>
      <trkpt lat="64.07275" lon="10.4764">
        <ele>201.803377</ele>
        <time>2020-08-09T09:49:31.695Z</time>
      </trkpt>
      <trkpt lat="64.07441" lon="10.47928">
        <ele>206.993925</ele>
        <time>2020-08-09T09:50:45.695Z</time>
      </trkpt>
      <trkpt lat="64.07603" lon="10.48242">
        <ele>212.33909</ele>
        <time>2020-08-09T09:52:05.690Z</time>
      </trkpt>
      <trkpt lat="64.07746" lon="10.48575">
        <ele>217.767628</ele>
        <time>2020-08-09T09:53:26.687Z</time>
      </trkpt>
      <trkpt lat="64.07901" lon="10.48891">
        <ele>218.914622</ele>
        <time>2020-08-09T09:54:33.685Z</time>
      </trkpt>
      <trkpt lat="64.08009" lon="10.49286">
        <ele>223.669915</ele>
        <time>2020-08-09T09:55:40.676Z</time>
      </trkpt>
      <trkpt lat="64.08227" lon="10.49528">
        <ele>225.183378</ele>
        <time>2020-08-09T10:04:35.721Z</time>
      </trkpt>
      <trkpt lat="64.08427" lon="10.49544">
        <ele>227.91668</ele>
        <time>2020-08-09T10:06:07.684Z</time>
      </trkpt>
      <trkpt lat="64.086" lon="10.49758">
        <ele>236.568251</ele>
        <time>2020-08-09T10:07:52.723Z</time>
      </trkpt>
      <trkpt lat="64.08739" lon="10.50091">
        <ele>250.093136</ele>
        <time>2020-08-09T10:09:57.718Z</time>
      </trkpt>
      <trkpt lat="64.08868" lon="10.50412">
        <ele>262.925534</ele>
        <time>2020-08-09T10:12:29.696Z</time>
      </trkpt>
      <trkpt lat="64.09054" lon="10.50555">
        <ele>269.249491</ele>
        <time>2020-08-09T10:14:33.695Z</time>
      </trkpt>
      <trkpt lat="64.09208" lon="10.50843">
        <ele>272.056978</ele>
        <time>2020-08-09T10:15:54.724Z</time>
      </trkpt>
      <trkpt lat="64.094" lon="10.51001">
        <ele>275.603261</ele>
        <time>2020-08-09T10:17:41.688Z</time>
      </trkpt>
      <trkpt lat="64.09598" lon="10.50935">
        <ele>277.376036</ele>
        <time>2020-08-09T10:18:54.706Z</time>
      </trkpt>
      <trkpt lat="64.09761" lon="10.51197">
        <ele>275.879372</ele>
        <time>2020-08-09T10:19:55.704Z</time>
      </trkpt>
      <trkpt lat="64.09676" lon="10.51601">
        <ele>279.429207</ele>
        <time>2020-08-09T10:21:34.692Z</time>
      </trkpt>
      <trkpt lat="64.09571" lon="10.52004">
        <ele>293.558196</ele>
        <time>2020-08-09T10:23:34.707Z</time>
      </trkpt>
      <trkpt lat="64.09646" lon="10.52397">
        <ele>303.192861</ele>
        <time>2020-08-09T10:25:19.701Z</time>
      </trkpt>
      <trkpt lat="64.09816" lon="10.52621">
        <ele>308.84202</ele>
        <time>2020-08-09T10:27:01.704Z</time>
      </trkpt>
      <trkpt lat="64.09997" lon="10.52837">
        <ele>313.688342</ele>
        <time>2020-08-09T10:28:40.718Z</time>
      </trkpt>
      <trkpt lat="64.10208" lon="10.5309">
        <ele>307.203355</ele>
        <time>2020-08-09T10:29:25.696Z</time>
      </trkpt>
      <trkpt lat="64.10385" lon="10.53305">
        <ele>298.060241</ele>
        <time>2020-08-09T10:29:46.710Z</time>
      </trkpt>
      <trkpt lat="64.1058" lon="10.53541">
        <ele>302.864623</ele>
        <time>2020-08-09T10:30:44.704Z</time>
      </trkpt>
      <trkpt lat="64.10773" lon="10.53773">
        <ele>306.695744</ele>
        <time>2020-08-09T10:31:51.697Z</time>
      </trkpt>
      <trkpt lat="64.10981" lon="10.5403">
        <ele>302.28128</ele>
        <time>2020-08-09T10:32:39.707Z</time>
      </trkpt>
      <trkpt lat="64.11208" lon="10.54338">
        <ele>297.960685</ele>
        <time>2020-08-09T10:33:25.726Z</time>
      </trkpt>
      <trkpt lat="64.11397" lon="10.54606">
        <ele>296.972002</ele>
        <time>2020-08-09T10:34:05.689Z</time>
      </trkpt>
      <trkpt lat="64.11636" lon="10.54647">
        <ele>292.122765</ele>
        <time>2020-08-09T10:34:43.724Z</time>
      </trkpt>
      <trkpt lat="64.11829" lon="10.54595">
        <ele>284.09518</ele>
        <time>2020-08-09T10:35:03.722Z</time>
      </trkpt>
      <trkpt lat="64.12064" lon="10.54538">
        <ele>273.71497</ele>
        <time>2020-08-09T10:35:29.694Z</time>
      </trkpt>
      <trkpt lat="64.12284" lon="10.54463">
        <ele>263.015876</ele>
        <time>2020-08-09T10:35:49.698Z</time>
      </trkpt>
      <trkpt lat="64.125" lon="10.54483">
        <ele>255.075076</ele>
        <time>2020-08-09T10:36:09.769Z</time>
      </trkpt>
      <trkpt lat="64.12766" lon="10.54458">
        <ele>249.921568</ele>
        <time>2020-08-09T10:36:47.697Z</time>
      </trkpt>
      <trkpt lat="64.12961" lon="10.54524">
        <ele>249.798796</ele>
        <time>2020-08-09T10:37:29.702Z</time>
      </trkpt>
      <trkpt lat="64.13176" lon="10.54537">
        <ele>251.821934</ele>
        <time>2020-08-09T10:44:27.712Z</time>
      </trkpt>
      <trkpt lat="64.1337" lon="10.54426">
        <ele>264.045713</ele>
        <time>2020-08-09T10:46:10.696Z</time>
      </trkpt>
      <trkpt lat="64.1356" lon="10.54396">
        <ele>285.140552</ele>
        <time>2020-08-09T10:48:38.697Z</time>
      </trkpt>
      <trkpt lat="64.13752" lon="10.54364">
        <ele>302.750715</ele>
        <time>2020-08-09T10:51:14.708Z</time>
      </trkpt>
      <trkpt lat="64.13955" lon="10.54279">
        <ele>311.411488</ele>
        <time>2020-08-09T10:53:12.690Z</time>
      </trkpt>
      <trkpt lat="64.14141" lon="10.54145">
        <ele>326.798074</ele>
        <time>2020-08-09T10:55:35.717Z</time>
      </trkpt>
      <trkpt lat="64.14347" lon="10.54042">
        <ele>327.310987</ele>
        <time>2020-08-09T10:57:02.719Z</time>
      </trkpt>
      <trkpt lat="64.14651" lon="10.54329">
        <ele>310.455654</ele>
        <time>2020-08-09T10:57:42.718Z</time>
      </trkpt>
      <trkpt lat="64.1487" lon="10.54274">
        <ele>303.760382</ele>
        <time>2020-08-09T10:58:06.701Z</time>
      </trkpt>
      <trkpt lat="64.15084" lon="10.54065">
        <ele>292.962484</ele>
        <time>2020-08-09T10:58:29.691Z</time>
      </trkpt>
      <trkpt lat="64.15289" lon="10.53773">
        <ele>284.549627</ele>
        <time>2020-08-09T10:58:55.724Z</time>
      </trkpt>
      <trkpt lat="64.15395" lon="10.53357">
        <ele>293.149558</ele>
        <time>2020-08-09T11:00:19.703Z</time>
      </trkpt>
      <trkpt lat="64.15337" lon="10.52888">
        <ele>283.7017</ele>
        <time>2020-08-09T11:01:10.707Z</time>
      </trkpt>
      <trkpt lat="64.1533" lon="10.52315">
        <ele>260.237769</ele>
        <time>2020-08-09T11:01:52.742Z</time>
      </trkpt>
      <trkpt lat="64.15417" lon="10.51739">
        <ele>233.674306</ele>
        <time>2020-08-09T11:02:32.708Z</time>
      </trkpt>
      <trkpt lat="64.15616" lon="10.51237">
        <ele>207.081135</ele>
        <time>2020-08-09T11:03:12.720Z</time>
      </trkpt>
      <trkpt lat="64.15793" lon="10.50849">
        <ele>185.459247</ele>
        <time>2020-08-09T11:03:52.697Z</time>
      </trkpt>
      <trkpt lat="64.15963" lon="10.50338">
        <ele>173.955457</ele>
        <time>2020-08-09T11:04:38.707Z</time>
      </trkpt>
      <trkpt lat="64.16095" lon="10.49983">
        <ele>173.298493</ele>
        <time>2020-08-09T11:05:38.713Z</time>
      </trkpt>
      <trkpt lat="64.16173" lon="10.4947">
        <ele>161.961098</ele>
        <time>2020-08-09T11:06:06.702Z</time>
      </trkpt>
      <trkpt lat="64.1623" lon="10.48934">
        <ele>148.753129</ele>
        <time>2020-08-09T11:06:33.700Z</time>
      </trkpt>
      <trkpt lat="64.16283" lon="10.48411">
        <ele>135.154833</ele>
        <time>2020-08-09T11:07:11.728Z</time>
      </trkpt>
      <trkpt lat="64.16363" lon="10.47879">
        <ele>123.378009</ele>
        <time>2020-08-09T11:07:53.713Z</time>
      </trkpt>
      <trkpt lat="64.16595" lon="10.4766">
        <ele>112.350998</ele>
        <time>2020-08-09T11:08:33.700Z</time>
      </trkpt>
      <trkpt lat="64.16841" lon="10.47674">
        <ele>106.058767</ele>
        <time>2020-08-09T11:09:32.707Z</time>
      </trkpt>
      <trkpt lat="64.16998" lon="10.47383">
        <ele>111.472616</ele>
        <time>2020-08-09T11:11:23.726Z</time>
      </trkpt>
      <trkpt lat="64.17196" lon="10.4702">
        <ele>103.439237</ele>
        <time>2020-08-09T11:12:07.715Z</time>
      </trkpt>
      <trkpt lat="64.17393" lon="10.4705">
        <ele>104.149915</ele>
        <time>2020-08-09T11:12:49.702Z</time>
      </trkpt>
      <trkpt lat="64.17493" lon="10.46746">
        <ele>109.817298</ele>
        <time>2020-08-09T11:13:53.699Z</time>
      </trkpt>
      <trkpt lat="64.17547" lon="10.46356">
        <ele>119.714791</ele>
        <time>2020-08-09T11:16:01.697Z</time>
      </trkpt>
      <trkpt lat="64.17473" lon="10.45944">
        <ele>127.548792</ele>
        <time>2020-08-09T11:18:11.702Z</time>
      </trkpt>
      <trkpt lat="64.17371" lon="10.455">
        <ele>125.681343</ele>
        <time>2020-08-09T11:19:16.685Z</time>
      </trkpt>
      <trkpt lat="64.17322" lon="10.44975">
        <ele>114.019006</ele>
        <time>2020-08-09T11:19:42.728Z</time>
      </trkpt>
      <trkpt lat="64.17425" lon="10.44473">
        <ele>102.648323</ele>
        <time>2020-08-09T11:20:11.704Z</time>
      </trkpt>
      <trkpt lat="64.17573" lon="10.44164">
        <ele>96.951459</ele>
        <time>2020-08-09T11:20:51.717Z</time>
      </trkpt>
      <trkpt lat="64.17776" lon="10.43964">
        <ele>103.451128</ele>
        <time>2020-08-09T11:21:49.706Z</time>
      </trkpt>
      <trkpt lat="64.17972" lon="10.43822">
        <ele>102.284343</ele>
        <time>2020-08-09T11:22:50.735Z</time>
      </trkpt>
      <trkpt lat="64.18152" lon="10.43517">
        <ele>98.476394</ele>
        <time>2020-08-09T11:23:40.705Z</time>
      </trkpt>
      <trkpt lat="64.18339" lon="10.43186">
        <ele>96.728504</ele>
        <time>2020-08-09T11:24:39.697Z</time>
      </trkpt>
      <trkpt lat="64.18437" lon="10.42727">
        <ele>103.989086</ele>
        <time>2020-08-09T11:25:41.706Z</time>
      </trkpt>
      <trkpt lat="64.18601" lon="10.42362">
        <ele>107.605584</ele>
        <time>2020-08-09T11:26:39.704Z</time>
      </trkpt>
      <trkpt lat="64.18764" lon="10.42076">
        <ele>107.62487</ele>
        <time>2020-08-09T11:27:51.721Z</time>
      </trkpt>
      <trkpt lat="64.18952" lon="10.4183">
        <ele>104.448826</ele>
        <time>2020-08-09T11:28:51.700Z</time>
      </trkpt>
      <trkpt lat="64.1912" lon="10.41532">
        <ele>105.33399</ele>
        <time>2020-08-09T11:29:43.724Z</time>
      </trkpt>
      <trkpt lat="64.19204" lon="10.41049">
        <ele>102.204912</ele>
        <time>2020-08-09T11:30:35.705Z</time>
      </trkpt>
      <trkpt lat="64.19303" lon="10.40639">
        <ele>108.971706</ele>
        <time>2020-08-09T11:31:52.725Z</time>
      </trkpt>
      <trkpt lat="64.19492" lon="10.4052">
        <ele>109.653938</ele>
        <time>2020-08-09T11:33:19.700Z</time>
      </trkpt>
      <trkpt lat="64.19739" lon="10.4058">
        <ele>113.725717</ele>
        <time>2020-08-09T11:33:57.717Z</time>
      </trkpt>
      <trkpt lat="64.19843" lon="10.40939">
        <ele>131.101258</ele>
        <time>2020-08-09T11:36:40.704Z</time>
      </trkpt>
      <trkpt lat="64.19902" lon="10.41351">
        <ele>154.313342</ele>
        <time>2020-08-09T11:39:21.721Z</time>
      </trkpt>
      <trkpt lat="64.20013" lon="10.41693">
        <ele>173.650274</ele>
        <time>2020-08-09T11:42:04.717Z</time>
      </trkpt>
      <trkpt lat="64.20184" lon="10.41818">
        <ele>191.678651</ele>
        <time>2020-08-09T11:44:51.705Z</time>
      </trkpt>
      <trkpt lat="64.20361" lon="10.41944">
        <ele>212.528872</ele>
        <time>2020-08-09T11:47:48.723Z</time>
      </trkpt>
      <trkpt lat="64.2053" lon="10.42106">
        <ele>229.708663</ele>
        <time>2020-08-09T11:50:34.733Z</time>
      </trkpt>
      <trkpt lat="64.20706" lon="10.42212">
        <ele>252.416652</ele>
        <time>2020-08-09T11:53:21.708Z</time>
      </trkpt>
      <trkpt lat="64.2087" lon="10.42413">
        <ele>272.469847</ele>
        <time>2020-08-09T11:56:08.775Z</time>
      </trkpt>
      <trkpt lat="64.21046" lon="10.42579">
        <ele>287.191974</ele>
        <time>2020-08-09T11:58:43.715Z</time>
      </trkpt>
      <trkpt lat="64.21264" lon="10.42595">
        <ele>285.47332</ele>
        <time>2020-08-09T11:59:53.744Z</time>
      </trkpt>
      <trkpt lat="64.21475" lon="10.42482">
        <ele>286.937018</ele>
        <time>2020-08-09T12:00:53.721Z</time>
      </trkpt>
      <trkpt lat="64.21657" lon="10.42326">
        <ele>292.469162</ele>
        <time>2020-08-09T12:02:35.698Z</time>
      </trkpt>
      <trkpt lat="64.21805" lon="10.41992">
        <ele>288.741123</ele>
        <time>2020-08-09T12:03:49.717Z</time>
      </trkpt>
      <trkpt lat="64.22027" lon="10.41537">
        <ele>272.249523</ele>
        <time>2020-08-09T12:04:25.723Z</time>
      </trkpt>
      <trkpt lat="64.2223" lon="10.41137">
        <ele>249.473545</ele>
        <time>2020-08-09T12:05:00.712Z</time>
      </trkpt>
      <trkpt lat="64.22394" lon="10.40631">
        <ele>221.173129</ele>
        <time>2020-08-09T12:05:40.728Z</time>
      </trkpt>
      <trkpt lat="64.22455" lon="10.40137">
        <ele>204.228863</ele>
        <time>2020-08-09T12:07:48.721Z</time>
      </trkpt>
      <trkpt lat="64.22717" lon="10.40153">
        <ele>178.028677</ele>
        <time>2020-08-09T12:08:28.742Z</time>
      </trkpt>
      <trkpt lat="64.23005" lon="10.40168">
        <ele>163.773319</ele>
        <time>2020-08-09T12:09:06.712Z</time>
      </trkpt>
      <trkpt lat="64.23237" lon="10.40286">
        <ele>164.078078</ele>
        <time>2020-08-09T12:09:48.686Z</time>
      </trkpt>
      <trkpt lat="64.23439" lon="10.4023">
        <ele>159.636416</ele>
        <time>2020-08-09T12:10:28.753Z</time>
      </trkpt>
      <trkpt lat="64.23662" lon="10.4017">
        <ele>163.933739</ele>
        <time>2020-08-09T12:11:20.720Z</time>
      </trkpt>
      <trkpt lat="64.23886" lon="10.40181">
        <ele>164.893311</ele>
        <time>2020-08-09T12:12:12.711Z</time>
      </trkpt>
      <trkpt lat="64.24124" lon="10.40159">
        <ele>161.064231</ele>
        <time>2020-08-09T12:12:52.707Z</time>
      </trkpt>
      <trkpt lat="64.2432" lon="10.40251">
        <ele>163.08323</ele>
        <time>2020-08-09T12:14:20.710Z</time>
      </trkpt>
      <trkpt lat="64.24555" lon="10.40326">
        <ele>164.051695</ele>
        <time>2020-08-09T12:15:34.711Z</time>
      </trkpt>
      <trkpt lat="64.24812" lon="10.40392">
        <ele>163.55969</ele>
        <time>2020-08-09T12:16:41.722Z</time>
      </trkpt>
      <trkpt lat="64.25107" lon="10.40482">
        <ele>149.526246</ele>
        <time>2020-08-09T12:17:20.698Z</time>
      </trkpt>
      <trkpt lat="64.25254" lon="10.40934">
        <ele>133.910104</ele>
        <time>2020-08-09T12:17:48.740Z</time>
      </trkpt>
      <trkpt lat="64.25302" lon="10.41504">
        <ele>115.208949</ele>
        <time>2020-08-09T12:19:59.712Z</time>
      </trkpt>
      <trkpt lat="64.25272" lon="10.41965">
        <ele>96.813304</ele>
        <time>2020-08-09T12:20:19.720Z</time>
      </trkpt>
      <trkpt lat="64.25282" lon="10.42458">
        <ele>74.940098</ele>
        <time>2020-08-09T12:20:42.721Z</time>
      </trkpt>
      <trkpt lat="64.25481" lon="10.42661">
        <ele>57.899416</ele>
        <time>2020-08-09T12:21:04.726Z</time>
      </trkpt>
      <trkpt lat="64.25708" lon="10.42615">
        <ele>56.499091</ele>
        <time>2020-08-09T12:21:48.706Z</time>
      </trkpt>
      <trkpt lat="64.25894" lon="10.42368">
        <ele>64.696595</ele>
        <time>2020-08-09T12:23:00.715Z</time>
      </trkpt>
      <trkpt lat="64.26087" lon="10.42128">
        <ele>64.156329</ele>
        <time>2020-08-09T12:24:09.708Z</time>
      </trkpt>
      <trkpt lat="64.26344" lon="10.42296">
        <ele>54.572876</ele>
        <time>2020-08-09T12:24:49.720Z</time>
      </trkpt>
      <trkpt lat="64.26441" lon="10.41877">
        <ele>55.441497</ele>
        <time>2020-08-09T12:25:40.744Z</time>
      </trkpt>
      <trkpt lat="64.26503" lon="10.41435">
        <ele>56.746284</ele>
        <time>2020-08-09T12:26:48.728Z</time>
      </trkpt>
      <trkpt lat="64.26578" lon="10.41012">
        <ele>60.161047</ele>
        <time>2020-08-09T12:28:16.711Z</time>
      </trkpt>
      <trkpt lat="64.26785" lon="10.40836">
        <ele>63.635324</ele>
        <time>2020-08-09T12:29:21.724Z</time>
      </trkpt>
      <trkpt lat="64.26983" lon="10.4081">
        <ele>65.394233</ele>
        <time>2020-08-09T12:30:31.731Z</time>
      </trkpt>
      <trkpt lat="64.27111" lon="10.41225">
        <ele>59.495189</ele>
        <time>2020-08-09T12:31:21.724Z</time>
      </trkpt>
      <trkpt lat="64.2726" lon="10.4162">
        <ele>53.785125</ele>
        <time>2020-08-09T12:31:48.705Z</time>
      </trkpt>
      <trkpt lat="64.27456" lon="10.41465">
        <ele>54.192185</ele>
        <time>2020-08-09T12:32:47.703Z</time>
      </trkpt>
      <trkpt lat="64.27625" lon="10.41147">
        <ele>55.195342</ele>
        <time>2020-08-09T12:33:44.717Z</time>
      </trkpt>
      <trkpt lat="64.27792" lon="10.40833">
        <ele>55.802175</ele>
        <time>2020-08-09T12:34:44.732Z</time>
      </trkpt>
      <trkpt lat="64.27981" lon="10.40633">
        <ele>50.340286</ele>
        <time>2020-08-09T12:35:36.714Z</time>
      </trkpt>
      <trkpt lat="64.28211" lon="10.40659">
        <ele>47.950717</ele>
        <time>2020-08-09T12:36:27.737Z</time>
      </trkpt>
      <trkpt lat="64.28401" lon="10.40847">
        <ele>46.965292</ele>
        <time>2020-08-09T12:37:09.753Z</time>
      </trkpt>
      <trkpt lat="64.28484" lon="10.40428">
        <ele>47.612447</ele>
        <time>2020-08-09T12:37:53.735Z</time>
      </trkpt>
      <trkpt lat="64.28646" lon="10.40309">
        <ele>56.858095</ele>
        <time>2020-08-09T12:39:46.720Z</time>
      </trkpt>
      <trkpt lat="64.28748" lon="10.40699">
        <ele>61.854492</ele>
        <time>2020-08-09T12:41:14.703Z</time>
      </trkpt>
      <trkpt lat="64.28879" lon="10.41071">
        <ele>71.086222</ele>
        <time>2020-08-09T12:43:24.784Z</time>
      </trkpt>
      <trkpt lat="64.28936" lon="10.41514">
        <ele>78.552026</ele>
        <time>2020-08-09T12:44:47.709Z</time>
      </trkpt>
      <trkpt lat="64.28895" lon="10.42067">
        <ele>76.433811</ele>
        <time>2020-08-09T12:45:27.725Z</time>
      </trkpt>
      <trkpt lat="64.28862" lon="10.42591">
        <ele>81.845121</ele>
        <time>2020-08-09T12:46:22.716Z</time>
      </trkpt>
      <trkpt lat="64.28845" lon="10.43114">
        <ele>86.197627</ele>
        <time>2020-08-09T12:53:00.722Z</time>
      </trkpt>
      <trkpt lat="64.28878" lon="10.43636">
        <ele>71.387292</ele>
        <time>2020-08-09T12:53:57.727Z</time>
      </trkpt>
      <trkpt lat="64.28929" lon="10.44297">
        <ele>47.665913</ele>
        <time>2020-08-09T12:54:35.715Z</time>
      </trkpt>
      <trkpt lat="64.29" lon="10.44735">
        <ele>44.309487</ele>
        <time>2020-08-09T12:55:16.699Z</time>
      </trkpt>
      <trkpt lat="64.29126" lon="10.45096">
        <ele>49.409398</ele>
        <time>2020-08-09T12:56:08.721Z</time>
      </trkpt>
      <trkpt lat="64.29255" lon="10.44806">
        <ele>56.667932</ele>
        <time>2020-08-09T12:57:50.734Z</time>
      </trkpt>
      <trkpt lat="64.29407" lon="10.44553">
        <ele>64.510773</ele>
        <time>2020-08-09T12:59:29.744Z</time>
      </trkpt>
      <trkpt lat="64.29617" lon="10.44572">
        <ele>66.308961</ele>
        <time>2020-08-09T13:00:40.726Z</time>
      </trkpt>
      <trkpt lat="64.29795" lon="10.44843">
        <ele>63.723929</ele>
        <time>2020-08-09T13:01:27.737Z</time>
      </trkpt>
      <trkpt lat="64.2977" lon="10.45352">
        <ele>65.963031</ele>
        <time>2020-08-09T13:02:10.716Z</time>
      </trkpt>
      <trkpt lat="64.29973" lon="10.45471">
        <ele>64.38177</ele>
        <time>2020-08-09T13:03:00.715Z</time>
      </trkpt>
      <trkpt lat="64.30189" lon="10.45666">
        <ele>54.54499</ele>
        <time>2020-08-09T13:03:34.705Z</time>
      </trkpt>
      <trkpt lat="64.30376" lon="10.45938">
        <ele>45.662067</ele>
        <time>2020-08-09T13:03:58.719Z</time>
      </trkpt>
      <trkpt lat="64.30524" lon="10.46353">
        <ele>45.330955</ele>
        <time>2020-08-09T13:04:44.745Z</time>
      </trkpt>
      <trkpt lat="64.30586" lon="10.46804">
        <ele>49.639719</ele>
        <time>2020-08-09T13:05:33.710Z</time>
      </trkpt>
      <trkpt lat="64.30449" lon="10.47061">
        <ele>49.993441</ele>
        <time>2020-08-09T13:06:26.751Z</time>
      </trkpt>
      <trkpt lat="64.30259" lon="10.47144">
        <ele>49.724125</ele>
        <time>2020-08-09T13:07:15.722Z</time>
      </trkpt>
      <trkpt lat="64.30096" lon="10.47464">
        <ele>51.060589</ele>
        <time>2020-08-09T13:08:15.702Z</time>
      </trkpt>
      <trkpt lat="64.30107" lon="10.48005">
        <ele>48.227686</ele>
        <time>2020-08-09T13:08:59.740Z</time>
      </trkpt>
      <trkpt lat="64.30232" lon="10.48483">
        <ele>47.118491</ele>
        <time>2020-08-09T13:09:39.745Z</time>
      </trkpt>
      <trkpt lat="64.30391" lon="10.48874">
        <ele>47.313984</ele>
        <time>2020-08-09T13:10:28.754Z</time>
      </trkpt>
      <trkpt lat="64.30527" lon="10.49278">
        <ele>45.764886</ele>
        <time>2020-08-09T13:11:08.721Z</time>
      </trkpt>
      <trkpt lat="64.30561" lon="10.49769">
        <ele>44.914059</ele>
        <time>2020-08-09T13:11:50.725Z</time>
      </trkpt>
      <trkpt lat="64.3061" lon="10.50273">
        <ele>44.403216</ele>
        <time>2020-08-09T13:12:34.759Z</time>
      </trkpt>
      <trkpt lat="64.30647" lon="10.50781">
        <ele>45.423093</ele>
        <time>2020-08-09T13:13:15.716Z</time>
      </trkpt>
      <trkpt lat="64.30609" lon="10.51261">
        <ele>56.325656</ele>
        <time>2020-08-09T13:14:59.746Z</time>
      </trkpt>
      <trkpt lat="64.30406" lon="10.51389">
        <ele>60.075017</ele>
        <time>2020-08-09T13:16:23.751Z</time>
      </trkpt>
      <trkpt lat="64.30169" lon="10.51266">
        <ele>51.369144</ele>
        <time>2020-08-09T13:17:03.709Z</time>
      </trkpt>
      <trkpt lat="64.29965" lon="10.51136">
        <ele>51.129275</ele>
        <time>2020-08-09T13:17:43.762Z</time>
      </trkpt>
      <trkpt lat="64.29777" lon="10.51063">
        <ele>59.187762</ele>
        <time>2020-08-09T13:19:24.731Z</time>
      </trkpt>
      <trkpt lat="64.29873" lon="10.50575">
        <ele>49.832853</ele>
        <time>2020-08-09T13:20:07.738Z</time>
      </trkpt>
      <trkpt lat="64.29933" lon="10.50062">
        <ele>45.17624</ele>
        <time>2020-08-09T13:20:52.708Z</time>
      </trkpt>
      <trkpt lat="64.30022" lon="10.49888">
        <ele>45.052677</ele>
        <time>2020-08-09T13:34:00.734Z</time>
      </trkpt>
    </trkseg>
  </trk>
  <trk>
    <name><![CDATA[Tour d'Europe: étape 043]]></name>
    <trkseg>
      <trkpt lat="64.3001" lon="10.49877">
        <ele>46.180445</ele>
        <time>2020-08-10T07:10:49.418Z</time>
      </trkpt>
      <trkpt lat="64.29931" lon="10.50065">
        <ele>51.39359</ele>
        <time>2020-08-10T08:32:02.739Z</time>
      </trkpt>
      <trkpt lat="64.29887" lon="10.50512">
        <ele>54.383378</ele>
        <time>2020-08-10T08:33:04.718Z</time>
      </trkpt>
      <trkpt lat="64.29758" lon="10.50877">
        <ele>62.314889</ele>
        <time>2020-08-10T08:34:22.756Z</time>
      </trkpt>
      <trkpt lat="64.29634" lon="10.51298">
        <ele>65.948225</ele>
        <time>2020-08-10T08:35:32.727Z</time>
      </trkpt>
      <trkpt lat="64.29457" lon="10.51581">
        <ele>57.911633</ele>
        <time>2020-08-10T08:36:17.716Z</time>
      </trkpt>
      <trkpt lat="64.29302" lon="10.51952">
        <ele>65.578121</ele>
        <time>2020-08-10T08:37:25.731Z</time>
      </trkpt>
      <trkpt lat="64.29231" lon="10.52392">
        <ele>68.396556</ele>
        <time>2020-08-10T08:38:31.780Z</time>
      </trkpt>
      <trkpt lat="64.29159" lon="10.52836">
        <ele>70.529234</ele>
        <time>2020-08-10T08:39:35.727Z</time>
      </trkpt>
      <trkpt lat="64.29092" lon="10.5333">
        <ele>71.633077</ele>
        <time>2020-08-10T08:40:53.722Z</time>
      </trkpt>
      <trkpt lat="64.2918" lon="10.53835">
        <ele>60.467079</ele>
        <time>2020-08-10T08:41:15.763Z</time>
      </trkpt>
      <trkpt lat="64.29145" lon="10.54383">
        <ele>51.328636</ele>
        <time>2020-08-10T08:41:49.720Z</time>
      </trkpt>
      <trkpt lat="64.29117" lon="10.54868">
        <ele>57.523644</ele>
        <time>2020-08-10T08:42:50.711Z</time>
      </trkpt>
      <trkpt lat="64.29074" lon="10.55384">
        <ele>56.423289</ele>
        <time>2020-08-10T08:43:34.719Z</time>
      </trkpt>
      <trkpt lat="64.29026" lon="10.55722">
        <ele>51.528388</ele>
        <time>2020-08-10T08:49:05.716Z</time>
      </trkpt>
      <trkpt lat="64.28922" lon="10.56114">
        <ele>62.137485</ele>
        <time>2020-08-10T08:50:37.730Z</time>
      </trkpt>
      <trkpt lat="64.28808" lon="10.56448">
        <ele>72.897683</ele>
        <time>2020-08-10T08:52:23.746Z</time>
      </trkpt>
      <trkpt lat="64.28824" lon="10.56906">
        <ele>78.142333</ele>
        <time>2020-08-10T08:53:22.720Z</time>
      </trkpt>
      <trkpt lat="64.28679" lon="10.5719">
        <ele>86.64201</ele>
        <time>2020-08-10T08:54:53.719Z</time>
      </trkpt>
      <trkpt lat="64.28498" lon="10.57308">
        <ele>102.718236</ele>
        <time>2020-08-10T08:57:04.733Z</time>
      </trkpt>
      <trkpt lat="64.28323" lon="10.57514">
        <ele>110.09927</ele>
        <time>2020-08-10T08:58:53.733Z</time>
      </trkpt>
      <trkpt lat="64.28113" lon="10.57523">
        <ele>101.691785</ele>
        <time>2020-08-10T08:59:42.750Z</time>
      </trkpt>
      <trkpt lat="64.27937" lon="10.578">
        <ele>104.282445</ele>
        <time>2020-08-10T09:00:39.730Z</time>
      </trkpt>
      <trkpt lat="64.27889" lon="10.58368">
        <ele>102.832847</ele>
        <time>2020-08-10T09:01:11.726Z</time>
      </trkpt>
      <trkpt lat="64.27755" lon="10.58779">
        <ele>99.593336</ele>
        <time>2020-08-10T09:02:08.719Z</time>
      </trkpt>
      <trkpt lat="64.27606" lon="10.5923">
        <ele>89.29316</ele>
        <time>2020-08-10T09:02:59.705Z</time>
      </trkpt>
      <trkpt lat="64.27384" lon="10.59771">
        <ele>80.984798</ele>
        <time>2020-08-10T09:03:41.723Z</time>
      </trkpt>
      <trkpt lat="64.27272" lon="10.6028">
        <ele>78.789478</ele>
        <time>2020-08-10T09:04:15.719Z</time>
      </trkpt>
      <trkpt lat="64.27207" lon="10.60781">
        <ele>75.464783</ele>
        <time>2020-08-10T09:04:56.738Z</time>
      </trkpt>
      <trkpt lat="64.27039" lon="10.61116">
        <ele>72.598023</ele>
        <time>2020-08-10T09:05:42.748Z</time>
      </trkpt>
      <trkpt lat="64.26842" lon="10.61231">
        <ele>79.208861</ele>
        <time>2020-08-10T09:06:33.751Z</time>
      </trkpt>
      <trkpt lat="64.26633" lon="10.61293">
        <ele>79.667478</ele>
        <time>2020-08-10T09:07:40.737Z</time>
      </trkpt>
      <trkpt lat="64.26442" lon="10.61537">
        <ele>75.306732</ele>
        <time>2020-08-10T09:08:21.714Z</time>
      </trkpt>
      <trkpt lat="64.26251" lon="10.61826">
        <ele>80.453234</ele>
        <time>2020-08-10T09:09:14.721Z</time>
      </trkpt>
      <trkpt lat="64.26113" lon="10.62149">
        <ele>86.795635</ele>
        <time>2020-08-10T09:10:38.729Z</time>
      </trkpt>
      <trkpt lat="64.25997" lon="10.62605">
        <ele>81.60544</ele>
        <time>2020-08-10T09:11:25.744Z</time>
      </trkpt>
      <trkpt lat="64.25828" lon="10.62892">
        <ele>77.005282</ele>
        <time>2020-08-10T09:12:08.740Z</time>
      </trkpt>
      <trkpt lat="64.2562" lon="10.62806">
        <ele>86.915271</ele>
        <time>2020-08-10T09:13:45.727Z</time>
      </trkpt>
      <trkpt lat="64.25465" lon="10.63109">
        <ele>87.964129</ele>
        <time>2020-08-10T09:14:57.723Z</time>
      </trkpt>
      <trkpt lat="64.25274" lon="10.63349">
        <ele>85.656417</ele>
        <time>2020-08-10T09:15:57.732Z</time>
      </trkpt>
      <trkpt lat="64.25055" lon="10.6339">
        <ele>85.530576</ele>
        <time>2020-08-10T09:16:57.749Z</time>
      </trkpt>
      <trkpt lat="64.24863" lon="10.63598">
        <ele>86.47351</ele>
        <time>2020-08-10T09:17:57.728Z</time>
      </trkpt>
      <trkpt lat="64.24699" lon="10.63936">
        <ele>88.919825</ele>
        <time>2020-08-10T09:18:59.737Z</time>
      </trkpt>
      <trkpt lat="64.24497" lon="10.64157">
        <ele>96.660934</ele>
        <time>2020-08-10T09:20:15.722Z</time>
      </trkpt>
      <trkpt lat="64.24302" lon="10.6435">
        <ele>104.69926</ele>
        <time>2020-08-10T09:21:33.710Z</time>
      </trkpt>
      <trkpt lat="64.24126" lon="10.64565">
        <ele>111.166962</ele>
        <time>2020-08-10T09:23:13.735Z</time>
      </trkpt>
      <trkpt lat="64.23952" lon="10.64843">
        <ele>109.02741</ele>
        <time>2020-08-10T09:24:19.748Z</time>
      </trkpt>
      <trkpt lat="64.23947" lon="10.65396">
        <ele>103.991475</ele>
        <time>2020-08-10T09:24:59.722Z</time>
      </trkpt>
      <trkpt lat="64.23825" lon="10.65779">
        <ele>107.471492</ele>
        <time>2020-08-10T09:25:57.743Z</time>
      </trkpt>
      <trkpt lat="64.23788" lon="10.66186">
        <ele>118.450565</ele>
        <time>2020-08-10T09:27:38.742Z</time>
      </trkpt>
      <trkpt lat="64.23908" lon="10.66572">
        <ele>117.993618</ele>
        <time>2020-08-10T09:28:32.734Z</time>
      </trkpt>
      <trkpt lat="64.23921" lon="10.67085">
        <ele>113.984383</ele>
        <time>2020-08-10T09:29:22.732Z</time>
      </trkpt>
      <trkpt lat="64.23937" lon="10.67624">
        <ele>114.804849</ele>
        <time>2020-08-10T09:30:16.716Z</time>
      </trkpt>
      <trkpt lat="64.2404" lon="10.68072">
        <ele>114.030532</ele>
        <time>2020-08-10T09:31:03.747Z</time>
      </trkpt>
      <trkpt lat="64.24121" lon="10.68566">
        <ele>114.807037</ele>
        <time>2020-08-10T09:32:06.729Z</time>
      </trkpt>
      <trkpt lat="64.24186" lon="10.6903">
        <ele>115.871248</ele>
        <time>2020-08-10T09:33:16.739Z</time>
      </trkpt>
      <trkpt lat="64.24198" lon="10.69506">
        <ele>114.10299</ele>
        <time>2020-08-10T09:34:01.726Z</time>
      </trkpt>
      <trkpt lat="64.24207" lon="10.70053">
        <ele>113.399622</ele>
        <time>2020-08-10T09:35:00.719Z</time>
      </trkpt>
      <trkpt lat="64.24221" lon="10.70565">
        <ele>116.027433</ele>
        <time>2020-08-10T09:36:00.740Z</time>
      </trkpt>
      <trkpt lat="64.24246" lon="10.71032">
        <ele>117.467526</ele>
        <time>2020-08-10T09:37:02.731Z</time>
      </trkpt>
      <trkpt lat="64.24274" lon="10.71494">
        <ele>126.804658</ele>
        <time>2020-08-10T09:38:43.740Z</time>
      </trkpt>
      <trkpt lat="64.24218" lon="10.71921">
        <ele>141.171122</ele>
        <time>2020-08-10T09:40:56.752Z</time>
      </trkpt>
      <trkpt lat="64.24127" lon="10.72316">
        <ele>161.399911</ele>
        <time>2020-08-10T09:43:19.744Z</time>
      </trkpt>
      <trkpt lat="64.24079" lon="10.72735">
        <ele>176.686944</ele>
        <time>2020-08-10T09:45:42.735Z</time>
      </trkpt>
      <trkpt lat="64.24082" lon="10.73187">
        <ele>183.652487</ele>
        <time>2020-08-10T09:47:43.744Z</time>
      </trkpt>
      <trkpt lat="64.24134" lon="10.73785">
        <ele>173.47403</ele>
        <time>2020-08-10T09:48:29.734Z</time>
      </trkpt>
      <trkpt lat="64.24067" lon="10.74244">
        <ele>164.620787</ele>
        <time>2020-08-10T09:48:51.765Z</time>
      </trkpt>
      <trkpt lat="64.24089" lon="10.74827">
        <ele>157.973814</ele>
        <time>2020-08-10T09:49:31.722Z</time>
      </trkpt>
      <trkpt lat="64.24094" lon="10.75304">
        <ele>165.088576</ele>
        <time>2020-08-10T09:50:43.738Z</time>
      </trkpt>
      <trkpt lat="64.24074" lon="10.75762">
        <ele>173.75734</ele>
        <time>2020-08-10T09:52:22.726Z</time>
      </trkpt>
      <trkpt lat="64.24131" lon="10.76221">
        <ele>175.547078</ele>
        <time>2020-08-10T09:53:25.711Z</time>
      </trkpt>
      <trkpt lat="64.24158" lon="10.76725">
        <ele>177.262675</ele>
        <time>2020-08-10T09:54:43.725Z</time>
      </trkpt>
      <trkpt lat="64.24265" lon="10.77141">
        <ele>181.662305</ele>
        <time>2020-08-10T09:55:59.776Z</time>
      </trkpt>
      <trkpt lat="64.24327" lon="10.77624">
        <ele>182.60928</ele>
        <time>2020-08-10T09:57:15.727Z</time>
      </trkpt>
      <trkpt lat="64.24381" lon="10.78149">
        <ele>184.562374</ele>
        <time>2020-08-10T09:58:13.737Z</time>
      </trkpt>
      <trkpt lat="64.24243" lon="10.78408">
        <ele>188.236387</ele>
        <time>2020-08-10T09:59:28.783Z</time>
      </trkpt>
      <trkpt lat="64.24053" lon="10.78574">
        <ele>197.990568</ele>
        <time>2020-08-10T10:01:01.753Z</time>
      </trkpt>
      <trkpt lat="64.23846" lon="10.78598">
        <ele>210.737217</ele>
        <time>2020-08-10T10:02:56.738Z</time>
      </trkpt>
      <trkpt lat="64.23648" lon="10.78747">
        <ele>210.184451</ele>
        <time>2020-08-10T10:04:16.734Z</time>
      </trkpt>
      <trkpt lat="64.23451" lon="10.79021">
        <ele>210.20317</ele>
        <time>2020-08-10T10:05:26.726Z</time>
      </trkpt>
      <trkpt lat="64.23243" lon="10.79135">
        <ele>216.530988</ele>
        <time>2020-08-10T10:06:27.732Z</time>
      </trkpt>
      <trkpt lat="64.23045" lon="10.79127">
        <ele>216.791494</ele>
        <time>2020-08-10T10:07:30.721Z</time>
      </trkpt>
      <trkpt lat="64.22827" lon="10.79253">
        <ele>217.833088</ele>
        <time>2020-08-10T10:08:33.720Z</time>
      </trkpt>
      <trkpt lat="64.22641" lon="10.79458">
        <ele>223.661367</ele>
        <time>2020-08-10T10:09:46.759Z</time>
      </trkpt>
      <trkpt lat="64.22635" lon="10.79911">
        <ele>223.140325</ele>
        <time>2020-08-10T10:10:52.742Z</time>
      </trkpt>
      <trkpt lat="64.22689" lon="10.80356">
        <ele>222.423513</ele>
        <time>2020-08-10T10:11:56.751Z</time>
      </trkpt>
      <trkpt lat="64.22751" lon="10.80816">
        <ele>224.871765</ele>
        <time>2020-08-10T10:13:12.730Z</time>
      </trkpt>
      <trkpt lat="64.22783" lon="10.8128">
        <ele>229.261573</ele>
        <time>2020-08-10T10:14:34.733Z</time>
      </trkpt>
      <trkpt lat="64.22865" lon="10.81735">
        <ele>234.34272</ele>
        <time>2020-08-10T10:16:03.745Z</time>
      </trkpt>
      <trkpt lat="64.22997" lon="10.82117">
        <ele>236.679673</ele>
        <time>2020-08-10T10:17:18.738Z</time>
      </trkpt>
      <trkpt lat="64.23115" lon="10.82542">
        <ele>238.552321</ele>
        <time>2020-08-10T10:18:22.725Z</time>
      </trkpt>
      <trkpt lat="64.23168" lon="10.83009">
        <ele>237.990853</ele>
        <time>2020-08-10T10:27:02.744Z</time>
      </trkpt>
      <trkpt lat="64.23219" lon="10.8346">
        <ele>234.920066</ele>
        <time>2020-08-10T10:28:15.750Z</time>
      </trkpt>
      <trkpt lat="64.23295" lon="10.83908">
        <ele>238.696891</ele>
        <time>2020-08-10T10:29:15.739Z</time>
      </trkpt>
      <trkpt lat="64.23375" lon="10.84369">
        <ele>247.04108</ele>
        <time>2020-08-10T10:30:40.726Z</time>
      </trkpt>
      <trkpt lat="64.23344" lon="10.84788">
        <ele>260.042992</ele>
        <time>2020-08-10T10:32:46.758Z</time>
      </trkpt>
      <trkpt lat="64.23203" lon="10.85186">
        <ele>265.569452</ele>
        <time>2020-08-10T10:34:08.722Z</time>
      </trkpt>
      <trkpt lat="64.23139" lon="10.85633">
        <ele>271.232749</ele>
        <time>2020-08-10T10:35:27.742Z</time>
      </trkpt>
      <trkpt lat="64.23017" lon="10.86">
        <ele>271.557286</ele>
        <time>2020-08-10T10:36:32.744Z</time>
      </trkpt>
      <trkpt lat="64.22997" lon="10.86489">
        <ele>276.885351</ele>
        <time>2020-08-10T10:37:53.743Z</time>
      </trkpt>
      <trkpt lat="64.2305" lon="10.87036">
        <ele>276.500813</ele>
        <time>2020-08-10T10:38:55.758Z</time>
      </trkpt>
      <trkpt lat="64.23061" lon="10.87535">
        <ele>278.088007</ele>
        <time>2020-08-10T10:39:57.724Z</time>
      </trkpt>
      <trkpt lat="64.23012" lon="10.88088">
        <ele>279.406706</ele>
        <time>2020-08-10T10:41:07.726Z</time>
      </trkpt>
      <trkpt lat="64.2305" lon="10.88545">
        <ele>279.895118</ele>
        <time>2020-08-10T10:42:16.736Z</time>
      </trkpt>
      <trkpt lat="64.23124" lon="10.89038">
        <ele>282.355182</ele>
        <time>2020-08-10T10:43:40.754Z</time>
      </trkpt>
      <trkpt lat="64.232" lon="10.89535">
        <ele>282.235567</ele>
        <time>2020-08-10T10:44:37.783Z</time>
      </trkpt>
      <trkpt lat="64.2327" lon="10.89992">
        <ele>285.89431</ele>
        <time>2020-08-10T10:45:32.750Z</time>
      </trkpt>
      <trkpt lat="64.23357" lon="10.90444">
        <ele>289.463731</ele>
        <time>2020-08-10T10:46:54.746Z</time>
      </trkpt>
      <trkpt lat="64.2355" lon="10.90857">
        <ele>276.405564</ele>
        <time>2020-08-10T10:47:31.725Z</time>
      </trkpt>
      <trkpt lat="64.23627" lon="10.91321">
        <ele>275.951884</ele>
        <time>2020-08-10T10:48:10.727Z</time>
      </trkpt>
      <trkpt lat="64.23699" lon="10.91765">
        <ele>275.257555</ele>
        <time>2020-08-10T10:48:58.727Z</time>
      </trkpt>
      <trkpt lat="64.23714" lon="10.92306">
        <ele>272.473557</ele>
        <time>2020-08-10T10:49:40.727Z</time>
      </trkpt>
      <trkpt lat="64.23647" lon="10.92783">
        <ele>274.25919</ele>
        <time>2020-08-10T10:50:36.737Z</time>
      </trkpt>
      <trkpt lat="64.2356" lon="10.93256">
        <ele>274.505613</ele>
        <time>2020-08-10T10:51:33.759Z</time>
      </trkpt>
      <trkpt lat="64.23454" lon="10.9377">
        <ele>265.12415</ele>
        <time>2020-08-10T10:52:04.745Z</time>
      </trkpt>
      <trkpt lat="64.23408" lon="10.94335">
        <ele>257.824157</ele>
        <time>2020-08-10T10:52:41.780Z</time>
      </trkpt>
      <trkpt lat="64.23392" lon="10.94884">
        <ele>251.948222</ele>
        <time>2020-08-10T10:53:17.749Z</time>
      </trkpt>
      <trkpt lat="64.23235" lon="10.9531">
        <ele>237.01958</ele>
        <time>2020-08-10T10:53:38.737Z</time>
      </trkpt>
      <trkpt lat="64.23124" lon="10.95849">
        <ele>224.800541</ele>
        <time>2020-08-10T10:54:08.709Z</time>
      </trkpt>
      <trkpt lat="64.2301" lon="10.96445">
        <ele>216.644071</ele>
        <time>2020-08-10T10:54:48.761Z</time>
      </trkpt>
      <trkpt lat="64.22926" lon="10.97096">
        <ele>210.662623</ele>
        <time>2020-08-10T10:55:28.753Z</time>
      </trkpt>
      <trkpt lat="64.22854" lon="10.97576">
        <ele>199.607888</ele>
        <time>2020-08-10T10:55:54.732Z</time>
      </trkpt>
      <trkpt lat="64.22614" lon="10.97772">
        <ele>182.744579</ele>
        <time>2020-08-10T10:56:15.751Z</time>
      </trkpt>
      <trkpt lat="64.22465" lon="10.98187">
        <ele>173.112802</ele>
        <time>2020-08-10T10:56:42.743Z</time>
      </trkpt>
      <trkpt lat="64.22441" lon="10.98706">
        <ele>169.996888</ele>
        <time>2020-08-10T10:57:13.735Z</time>
      </trkpt>
      <trkpt lat="64.22449" lon="10.99262">
        <ele>164.47833</ele>
        <time>2020-08-10T10:57:44.739Z</time>
      </trkpt>
      <trkpt lat="64.22603" lon="10.99568">
        <ele>168.186827</ele>
        <time>2020-08-10T10:58:59.745Z</time>
      </trkpt>
      <trkpt lat="64.22739" lon="10.99954">
        <ele>172.990635</ele>
        <time>2020-08-10T10:59:58.748Z</time>
      </trkpt>
      <trkpt lat="64.2281" lon="11.00416">
        <ele>178.576501</ele>
        <time>2020-08-10T11:01:11.759Z</time>
      </trkpt>
      <trkpt lat="64.22786" lon="11.00907">
        <ele>179.20285</ele>
        <time>2020-08-10T11:02:19.784Z</time>
      </trkpt>
      <trkpt lat="64.22754" lon="11.01424">
        <ele>168.927251</ele>
        <time>2020-08-10T11:02:40.737Z</time>
      </trkpt>
      <trkpt lat="64.22731" lon="11.01932">
        <ele>163.687569</ele>
        <time>2020-08-10T11:03:20.758Z</time>
      </trkpt>
      <trkpt lat="64.22716" lon="11.02412">
        <ele>177.62876</ele>
        <time>2020-08-10T11:04:46.773Z</time>
      </trkpt>
      <trkpt lat="64.22752" lon="11.02879">
        <ele>179.456396</ele>
        <time>2020-08-10T11:06:10.780Z</time>
      </trkpt>
      <trkpt lat="64.2293" lon="11.03466">
        <ele>167.918122</ele>
        <time>2020-08-10T11:06:50.743Z</time>
      </trkpt>
      <trkpt lat="64.23061" lon="11.03942">
        <ele>168.413823</ele>
        <time>2020-08-10T11:07:53.746Z</time>
      </trkpt>
      <trkpt lat="64.23172" lon="11.0435">
        <ele>171.833619</ele>
        <time>2020-08-10T11:09:10.731Z</time>
      </trkpt>
      <trkpt lat="64.23288" lon="11.04795">
        <ele>165.879049</ele>
        <time>2020-08-10T11:09:48.738Z</time>
      </trkpt>
      <trkpt lat="64.23456" lon="11.0513">
        <ele>155.33308</ele>
        <time>2020-08-10T11:10:12.743Z</time>
      </trkpt>
      <trkpt lat="64.23642" lon="11.05476">
        <ele>151.753513</ele>
        <time>2020-08-10T11:10:54.741Z</time>
      </trkpt>
      <trkpt lat="64.23769" lon="11.05836">
        <ele>154.177764</ele>
        <time>2020-08-10T11:11:34.725Z</time>
      </trkpt>
      <trkpt lat="64.23973" lon="11.05863">
        <ele>162.103079</ele>
        <time>2020-08-10T11:12:40.762Z</time>
      </trkpt>
      <trkpt lat="64.24058" lon="11.06262">
        <ele>170.235201</ele>
        <time>2020-08-10T11:14:32.738Z</time>
      </trkpt>
      <trkpt lat="64.24123" lon="11.06697">
        <ele>173.96527</ele>
        <time>2020-08-10T11:16:11.721Z</time>
      </trkpt>
      <trkpt lat="64.24215" lon="11.07311">
        <ele>170.104692</ele>
        <time>2020-08-10T11:16:53.722Z</time>
      </trkpt>
      <trkpt lat="64.24335" lon="11.07903">
        <ele>158.044746</ele>
        <time>2020-08-10T11:17:35.744Z</time>
      </trkpt>
      <trkpt lat="64.24438" lon="11.08424">
        <ele>147.079295</ele>
        <time>2020-08-10T11:18:15.766Z</time>
      </trkpt>
      <trkpt lat="64.24587" lon="11.08785">
        <ele>152.60028</ele>
        <time>2020-08-10T11:19:02.737Z</time>
      </trkpt>
      <trkpt lat="64.24602" lon="11.09208">
        <ele>160.43017</ele>
        <time>2020-08-10T11:20:21.790Z</time>
      </trkpt>
      <trkpt lat="64.24524" lon="11.09531">
        <ele>171.874678</ele>
        <time>2020-08-10T11:22:01.768Z</time>
      </trkpt>
      <trkpt lat="64.24668" lon="11.09896">
        <ele>181.932661</ele>
        <time>2020-08-10T11:23:12.730Z</time>
      </trkpt>
      <trkpt lat="64.24595" lon="11.1032">
        <ele>175.630012</ele>
        <time>2020-08-10T11:24:29.728Z</time>
      </trkpt>
      <trkpt lat="64.24713" lon="11.10554">
        <ele>162.266839</ele>
        <time>2020-08-10T11:27:39.730Z</time>
      </trkpt>
      <trkpt lat="64.24793" lon="11.10801">
        <ele>165.155003</ele>
        <time>2020-08-10T11:29:32.760Z</time>
      </trkpt>
      <trkpt lat="64.24817" lon="11.1127">
        <ele>167.693598</ele>
        <time>2020-08-10T11:32:52.735Z</time>
      </trkpt>
      <trkpt lat="64.24878" lon="11.11761">
        <ele>173.616477</ele>
        <time>2020-08-10T11:33:51.757Z</time>
      </trkpt>
      <trkpt lat="64.24928" lon="11.12251">
        <ele>175.933196</ele>
        <time>2020-08-10T11:34:54.747Z</time>
      </trkpt>
      <trkpt lat="64.24963" lon="11.12695">
        <ele>176.178553</ele>
        <time>2020-08-10T11:36:08.753Z</time>
      </trkpt>
      <trkpt lat="64.25003" lon="11.13146">
        <ele>168.282154</ele>
        <time>2020-08-10T11:37:30.750Z</time>
      </trkpt>
      <trkpt lat="64.2494" lon="11.1369">
        <ele>160.824045</ele>
        <time>2020-08-10T11:38:17.755Z</time>
      </trkpt>
      <trkpt lat="64.24927" lon="11.1418">
        <ele>161.337291</ele>
        <time>2020-08-10T11:39:36.798Z</time>
      </trkpt>
      <trkpt lat="64.24989" lon="11.14654">
        <ele>146.964092</ele>
        <time>2020-08-10T11:40:31.763Z</time>
      </trkpt>
      <trkpt lat="64.25074" lon="11.15102">
        <ele>129.49208</ele>
        <time>2020-08-10T11:41:17.745Z</time>
      </trkpt>
      <trkpt lat="64.25058" lon="11.15611">
        <ele>123.581022</ele>
        <time>2020-08-10T11:42:15.767Z</time>
      </trkpt>
      <trkpt lat="64.25008" lon="11.16132">
        <ele>117.399421</ele>
        <time>2020-08-10T11:43:05.749Z</time>
      </trkpt>
      <trkpt lat="64.25035" lon="11.16624">
        <ele>108.53076</ele>
        <time>2020-08-10T11:43:52.738Z</time>
      </trkpt>
      <trkpt lat="64.25113" lon="11.17175">
        <ele>98.683834</ele>
        <time>2020-08-10T11:44:32.736Z</time>
      </trkpt>
      <trkpt lat="64.25098" lon="11.1768">
        <ele>92.575475</ele>
        <time>2020-08-10T11:45:28.736Z</time>
      </trkpt>
      <trkpt lat="64.24984" lon="11.18198">
        <ele>84.368377</ele>
        <time>2020-08-10T11:46:18.738Z</time>
      </trkpt>
      <trkpt lat="64.25035" lon="11.18638">
        <ele>81.341063</ele>
        <time>2020-08-10T11:46:58.753Z</time>
      </trkpt>
      <trkpt lat="64.25234" lon="11.18754">
        <ele>78.843477</ele>
        <time>2020-08-10T11:47:38.736Z</time>
      </trkpt>
      <trkpt lat="64.25474" lon="11.18832">
        <ele>65.51066</ele>
        <time>2020-08-10T11:48:03.723Z</time>
      </trkpt>
      <trkpt lat="64.25664" lon="11.18757">
        <ele>57.714651</ele>
        <time>2020-08-10T11:48:23.734Z</time>
      </trkpt>
      <trkpt lat="64.25859" lon="11.18964">
        <ele>59.607511</ele>
        <time>2020-08-10T11:48:58.727Z</time>
      </trkpt>
      <trkpt lat="64.2607" lon="11.19103">
        <ele>70.799886</ele>
        <time>2020-08-10T11:50:15.742Z</time>
      </trkpt>
      <trkpt lat="64.26125" lon="11.19576">
        <ele>65.286271</ele>
        <time>2020-08-10T11:51:11.777Z</time>
      </trkpt>
      <trkpt lat="64.26254" lon="11.19735">
        <ele>61.591024</ele>
        <time>2020-08-10T11:51:55.758Z</time>
      </trkpt>
      <trkpt lat="64.26514" lon="11.19611">
        <ele>57.142432</ele>
        <time>2020-08-10T11:52:35.755Z</time>
      </trkpt>
      <trkpt lat="64.26751" lon="11.195">
        <ele>54.292109</ele>
        <time>2020-08-10T11:53:15.730Z</time>
      </trkpt>
      <trkpt lat="64.26973" lon="11.19395">
        <ele>55.620283</ele>
        <time>2020-08-10T11:53:57.732Z</time>
      </trkpt>
      <trkpt lat="64.27196" lon="11.19314">
        <ele>55.33162</ele>
        <time>2020-08-10T11:54:37.735Z</time>
      </trkpt>
      <trkpt lat="64.27466" lon="11.19338">
        <ele>48.127085</ele>
        <time>2020-08-10T11:55:17.744Z</time>
      </trkpt>
      <trkpt lat="64.27674" lon="11.19368">
        <ele>49.1026</ele>
        <time>2020-08-10T11:55:57.733Z</time>
      </trkpt>
      <trkpt lat="64.27895" lon="11.19474">
        <ele>51.64407</ele>
        <time>2020-08-10T11:56:49.757Z</time>
      </trkpt>
      <trkpt lat="64.28095" lon="11.19501">
        <ele>52.513368</ele>
        <time>2020-08-10T11:57:31.761Z</time>
      </trkpt>
      <trkpt lat="64.28318" lon="11.19459">
        <ele>54.257674</ele>
        <time>2020-08-10T11:58:35.734Z</time>
      </trkpt>
      <trkpt lat="64.28534" lon="11.1943">
        <ele>53.320046</ele>
        <time>2020-08-10T11:59:29.740Z</time>
      </trkpt>
      <trkpt lat="64.28761" lon="11.19553">
        <ele>46.976158</ele>
        <time>2020-08-10T12:00:09.727Z</time>
      </trkpt>
      <trkpt lat="64.28972" lon="11.19727">
        <ele>45.331678</ele>
        <time>2020-08-10T12:00:49.756Z</time>
      </trkpt>
      <trkpt lat="64.29186" lon="11.19867">
        <ele>44.268722</ele>
        <time>2020-08-10T12:01:29.750Z</time>
      </trkpt>
      <trkpt lat="64.29381" lon="11.20024">
        <ele>43.807625</ele>
        <time>2020-08-10T12:02:09.752Z</time>
      </trkpt>
      <trkpt lat="64.29564" lon="11.20361">
        <ele>40.458656</ele>
        <time>2020-08-10T12:02:51.768Z</time>
      </trkpt>
      <trkpt lat="64.2973" lon="11.20713">
        <ele>39.267447</ele>
        <time>2020-08-10T12:03:31.736Z</time>
      </trkpt>
      <trkpt lat="64.29878" lon="11.21037">
        <ele>38.374933</ele>
        <time>2020-08-10T12:04:11.736Z</time>
      </trkpt>
      <trkpt lat="64.3008" lon="11.21293">
        <ele>39.931694</ele>
        <time>2020-08-10T12:05:01.723Z</time>
      </trkpt>
      <trkpt lat="64.30271" lon="11.21555">
        <ele>35.918292</ele>
        <time>2020-08-10T12:05:41.740Z</time>
      </trkpt>
      <trkpt lat="64.3046" lon="11.21787">
        <ele>35.864351</ele>
        <time>2020-08-10T12:06:23.763Z</time>
      </trkpt>
      <trkpt lat="64.30649" lon="11.22014">
        <ele>33.054972</ele>
        <time>2020-08-10T12:07:03.751Z</time>
      </trkpt>
      <trkpt lat="64.30828" lon="11.22229">
        <ele>33.652843</ele>
        <time>2020-08-10T12:07:43.726Z</time>
      </trkpt>
      <trkpt lat="64.31023" lon="11.22471">
        <ele>36.634035</ele>
        <time>2020-08-10T12:08:36.732Z</time>
      </trkpt>
      <trkpt lat="64.31219" lon="11.22705">
        <ele>39.529473</ele>
        <time>2020-08-10T12:09:28.735Z</time>
      </trkpt>
      <trkpt lat="64.31366" lon="11.23148">
        <ele>40.785277</ele>
        <time>2020-08-10T12:10:09.739Z</time>
      </trkpt>
      <trkpt lat="64.31522" lon="11.23544">
        <ele>34.996546</ele>
        <time>2020-08-10T12:10:51.736Z</time>
      </trkpt>
      <trkpt lat="64.31706" lon="11.23735">
        <ele>39.362339</ele>
        <time>2020-08-10T12:11:38.741Z</time>
      </trkpt>
      <trkpt lat="64.31896" lon="11.239">
        <ele>54.925841</ele>
        <time>2020-08-10T12:13:07.739Z</time>
      </trkpt>
      <trkpt lat="64.32099" lon="11.23941">
        <ele>57.711917</ele>
        <time>2020-08-10T12:14:31.758Z</time>
      </trkpt>
      <trkpt lat="64.32284" lon="11.24245">
        <ele>52.351091</ele>
        <time>2020-08-10T12:15:04.748Z</time>
      </trkpt>
      <trkpt lat="64.32483" lon="11.24489">
        <ele>48.401554</ele>
        <time>2020-08-10T12:15:34.725Z</time>
      </trkpt>
      <trkpt lat="64.32671" lon="11.24872">
        <ele>47.757362</ele>
        <time>2020-08-10T12:16:37.737Z</time>
      </trkpt>
      <trkpt lat="64.32897" lon="11.25009">
        <ele>52.766458</ele>
        <time>2020-08-10T12:17:32.744Z</time>
      </trkpt>
      <trkpt lat="64.33101" lon="11.25052">
        <ele>52.14801</ele>
        <time>2020-08-10T12:18:16.737Z</time>
      </trkpt>
      <trkpt lat="64.33316" lon="11.25067">
        <ele>54.890774</ele>
        <time>2020-08-10T12:19:16.757Z</time>
      </trkpt>
      <trkpt lat="64.33493" lon="11.25233">
        <ele>64.158269</ele>
        <time>2020-08-10T12:20:25.748Z</time>
      </trkpt>
      <trkpt lat="64.33616" lon="11.25638">
        <ele>67.603217</ele>
        <time>2020-08-10T12:21:47.738Z</time>
      </trkpt>
      <trkpt lat="64.33774" lon="11.25943">
        <ele>72.550944</ele>
        <time>2020-08-10T12:22:54.739Z</time>
      </trkpt>
      <trkpt lat="64.33862" lon="11.26438">
        <ele>66.727607</ele>
        <time>2020-08-10T12:23:23.734Z</time>
      </trkpt>
      <trkpt lat="64.33926" lon="11.26924">
        <ele>58.632378</ele>
        <time>2020-08-10T12:24:07.738Z</time>
      </trkpt>
      <trkpt lat="64.3398" lon="11.27371">
        <ele>66.902067</ele>
        <time>2020-08-10T12:25:27.738Z</time>
      </trkpt>
      <trkpt lat="64.34" lon="11.27816">
        <ele>77.293081</ele>
        <time>2020-08-10T12:26:48.792Z</time>
      </trkpt>
      <trkpt lat="64.33996" lon="11.28327">
        <ele>81.57264</ele>
        <time>2020-08-10T12:28:08.731Z</time>
      </trkpt>
      <trkpt lat="64.3413" lon="11.28699">
        <ele>79.31105</ele>
        <time>2020-08-10T12:29:23.753Z</time>
      </trkpt>
      <trkpt lat="64.3433" lon="11.28927">
        <ele>72.778568</ele>
        <time>2020-08-10T12:30:05.756Z</time>
      </trkpt>
      <trkpt lat="64.34547" lon="11.28891">
        <ele>63.107913</ele>
        <time>2020-08-10T12:30:52.741Z</time>
      </trkpt>
      <trkpt lat="64.34763" lon="11.28983">
        <ele>65.716621</ele>
        <time>2020-08-10T12:31:36.734Z</time>
      </trkpt>
      <trkpt lat="64.34948" lon="11.29216">
        <ele>67.701688</ele>
        <time>2020-08-10T12:32:22.731Z</time>
      </trkpt>
      <trkpt lat="64.35148" lon="11.29449">
        <ele>82.253434</ele>
        <time>2020-08-10T12:33:39.743Z</time>
      </trkpt>
      <trkpt lat="64.3534" lon="11.29546">
        <ele>96.020679</ele>
        <time>2020-08-10T12:35:26.748Z</time>
      </trkpt>
      <trkpt lat="64.35529" lon="11.29649">
        <ele>101.928403</ele>
        <time>2020-08-10T12:37:05.752Z</time>
      </trkpt>
      <trkpt lat="64.35751" lon="11.29956">
        <ele>86.733297</ele>
        <time>2020-08-10T12:37:50.747Z</time>
      </trkpt>
      <trkpt lat="64.3586" lon="11.30334">
        <ele>78.271749</ele>
        <time>2020-08-10T12:38:10.738Z</time>
      </trkpt>
      <trkpt lat="64.36028" lon="11.30936">
        <ele>66.156382</ele>
        <time>2020-08-10T12:38:51.732Z</time>
      </trkpt>
      <trkpt lat="64.36196" lon="11.31333">
        <ele>52.302396</ele>
        <time>2020-08-10T12:39:16.784Z</time>
      </trkpt>
      <trkpt lat="64.36399" lon="11.3167">
        <ele>45.44981</ele>
        <time>2020-08-10T12:39:49.737Z</time>
      </trkpt>
      <trkpt lat="64.36564" lon="11.32022">
        <ele>42.381764</ele>
        <time>2020-08-10T12:40:27.736Z</time>
      </trkpt>
      <trkpt lat="64.36614" lon="11.32533">
        <ele>43.082864</ele>
        <time>2020-08-10T12:41:00.745Z</time>
      </trkpt>
      <trkpt lat="64.36561" lon="11.3302">
        <ele>50.234408</ele>
        <time>2020-08-10T12:42:00.730Z</time>
      </trkpt>
      <trkpt lat="64.36445" lon="11.33421">
        <ele>60.669732</ele>
        <time>2020-08-10T12:43:33.757Z</time>
      </trkpt>
      <trkpt lat="64.36414" lon="11.33881">
        <ele>65.64398</ele>
        <time>2020-08-10T12:44:58.753Z</time>
      </trkpt>
      <trkpt lat="64.3644" lon="11.34348">
        <ele>71.62875</ele>
        <time>2020-08-10T12:46:24.747Z</time>
      </trkpt>
      <trkpt lat="64.3656" lon="11.34756">
        <ele>68.93628</ele>
        <time>2020-08-10T12:47:11.729Z</time>
      </trkpt>
      <trkpt lat="64.36705" lon="11.35142">
        <ele>65.607802</ele>
        <time>2020-08-10T12:47:51.759Z</time>
      </trkpt>
      <trkpt lat="64.36864" lon="11.35575">
        <ele>63.997392</ele>
        <time>2020-08-10T12:48:31.769Z</time>
      </trkpt>
      <trkpt lat="64.37019" lon="11.36009">
        <ele>62.885778</ele>
        <time>2020-08-10T12:49:13.741Z</time>
      </trkpt>
      <trkpt lat="64.37182" lon="11.36433">
        <ele>60.126042</ele>
        <time>2020-08-10T12:49:56.762Z</time>
      </trkpt>
      <trkpt lat="64.37356" lon="11.36907">
        <ele>52.111781</ele>
        <time>2020-08-10T12:50:36.745Z</time>
      </trkpt>
      <trkpt lat="64.37528" lon="11.37259">
        <ele>46.717996</ele>
        <time>2020-08-10T12:51:05.749Z</time>
      </trkpt>
      <trkpt lat="64.37693" lon="11.37607">
        <ele>52.936321</ele>
        <time>2020-08-10T12:52:05.753Z</time>
      </trkpt>
      <trkpt lat="64.37908" lon="11.37719">
        <ele>48.410742</ele>
        <time>2020-08-10T12:53:10.754Z</time>
      </trkpt>
      <trkpt lat="64.37934" lon="11.38097">
        <ele>44.848187</ele>
        <time>2020-08-10T12:53:59.730Z</time>
      </trkpt>
      <trkpt lat="64.3791" lon="11.38574">
        <ele>51.696108</ele>
        <time>2020-08-10T12:54:58.766Z</time>
      </trkpt>
      <trkpt lat="64.38055" lon="11.38813">
        <ele>47.033577</ele>
        <time>2020-08-10T12:55:56.734Z</time>
      </trkpt>
      <trkpt lat="64.38059" lon="11.3925">
        <ele>53.945598</ele>
        <time>2020-08-10T12:57:09.739Z</time>
      </trkpt>
      <trkpt lat="64.38251" lon="11.39555">
        <ele>50.381758</ele>
        <time>2020-08-10T13:08:42.736Z</time>
      </trkpt>
      <trkpt lat="64.38439" lon="11.39899">
        <ele>45.217822</ele>
        <time>2020-08-10T13:09:36.763Z</time>
      </trkpt>
      <trkpt lat="64.38654" lon="11.39936">
        <ele>42.663891</ele>
        <time>2020-08-10T13:10:25.755Z</time>
      </trkpt>
      <trkpt lat="64.38879" lon="11.3999">
        <ele>41.666952</ele>
        <time>2020-08-10T13:11:18.737Z</time>
      </trkpt>
      <trkpt lat="64.39095" lon="11.40038">
        <ele>52.875811</ele>
        <time>2020-08-10T13:12:31.759Z</time>
      </trkpt>
      <trkpt lat="64.39291" lon="11.40159">
        <ele>58.154752</ele>
        <time>2020-08-10T13:13:48.736Z</time>
      </trkpt>
      <trkpt lat="64.39504" lon="11.4027">
        <ele>55.077787</ele>
        <time>2020-08-10T13:14:28.753Z</time>
      </trkpt>
      <trkpt lat="64.39688" lon="11.40476">
        <ele>54.101288</ele>
        <time>2020-08-10T13:15:11.746Z</time>
      </trkpt>
      <trkpt lat="64.3987" lon="11.40735">
        <ele>63.51564</ele>
        <time>2020-08-10T13:16:26.754Z</time>
      </trkpt>
      <trkpt lat="64.40005" lon="11.41079">
        <ele>72.886737</ele>
        <time>2020-08-10T13:17:48.757Z</time>
      </trkpt>
      <trkpt lat="64.40017" lon="11.41547">
        <ele>78.819112</ele>
        <time>2020-08-10T13:19:19.762Z</time>
      </trkpt>
      <trkpt lat="64.40068" lon="11.42015">
        <ele>77.362246</ele>
        <time>2020-08-10T13:20:24.735Z</time>
      </trkpt>
      <trkpt lat="64.40151" lon="11.42474">
        <ele>79.224267</ele>
        <time>2020-08-10T13:21:18.735Z</time>
      </trkpt>
      <trkpt lat="64.40238" lon="11.42942">
        <ele>85.170486</ele>
        <time>2020-08-10T13:22:38.738Z</time>
      </trkpt>
      <trkpt lat="64.40349" lon="11.43372">
        <ele>84.331379</ele>
        <time>2020-08-10T13:23:27.753Z</time>
      </trkpt>
      <trkpt lat="64.40436" lon="11.43884">
        <ele>85.423582</ele>
        <time>2020-08-10T13:24:26.766Z</time>
      </trkpt>
      <trkpt lat="64.40505" lon="11.44343">
        <ele>91.963824</ele>
        <time>2020-08-10T13:25:30.764Z</time>
      </trkpt>
      <trkpt lat="64.40539" lon="11.44829">
        <ele>99.363494</ele>
        <time>2020-08-10T13:26:50.742Z</time>
      </trkpt>
      <trkpt lat="64.40554" lon="11.45346">
        <ele>98.426624</ele>
        <time>2020-08-10T13:28:02.747Z</time>
      </trkpt>
      <trkpt lat="64.4057" lon="11.45905">
        <ele>95.534809</ele>
        <time>2020-08-10T13:28:42.751Z</time>
      </trkpt>
      <trkpt lat="64.40566" lon="11.46452">
        <ele>94.380179</ele>
        <time>2020-08-10T13:29:22.741Z</time>
      </trkpt>
      <trkpt lat="64.40648" lon="11.46977">
        <ele>90.672737</ele>
        <time>2020-08-10T13:30:02.725Z</time>
      </trkpt>
      <trkpt lat="64.40769" lon="11.47357">
        <ele>93.994351</ele>
        <time>2020-08-10T13:31:12.755Z</time>
      </trkpt>
      <trkpt lat="64.40891" lon="11.47733">
        <ele>99.425083</ele>
        <time>2020-08-10T13:32:36.754Z</time>
      </trkpt>
      <trkpt lat="64.41068" lon="11.48043">
        <ele>96.839817</ele>
        <time>2020-08-10T13:33:23.741Z</time>
      </trkpt>
      <trkpt lat="64.41237" lon="11.48343">
        <ele>98.484571</ele>
        <time>2020-08-10T13:34:21.778Z</time>
      </trkpt>
      <trkpt lat="64.4141" lon="11.48598">
        <ele>102.463338</ele>
        <time>2020-08-10T13:35:33.746Z</time>
      </trkpt>
      <trkpt lat="64.41597" lon="11.48859">
        <ele>104.880977</ele>
        <time>2020-08-10T13:36:53.745Z</time>
      </trkpt>
      <trkpt lat="64.41807" lon="11.48958">
        <ele>106.265046</ele>
        <time>2020-08-10T13:37:55.746Z</time>
      </trkpt>
      <trkpt lat="64.42022" lon="11.48954">
        <ele>107.772499</ele>
        <time>2020-08-10T13:39:05.776Z</time>
      </trkpt>
      <trkpt lat="64.42235" lon="11.49072">
        <ele>112.220341</ele>
        <time>2020-08-10T13:40:10.756Z</time>
      </trkpt>
      <trkpt lat="64.42465" lon="11.49005">
        <ele>103.481941</ele>
        <time>2020-08-10T13:40:54.738Z</time>
      </trkpt>
      <trkpt lat="64.42706" lon="11.48912">
        <ele>94.843466</ele>
        <time>2020-08-10T13:41:34.761Z</time>
      </trkpt>
      <trkpt lat="64.42965" lon="11.49073">
        <ele>85.955547</ele>
        <time>2020-08-10T13:42:14.739Z</time>
      </trkpt>
      <trkpt lat="64.43154" lon="11.49498">
        <ele>73.529792</ele>
        <time>2020-08-10T13:42:47.725Z</time>
      </trkpt>
      <trkpt lat="64.43304" lon="11.49861">
        <ele>72.23686</ele>
        <time>2020-08-10T13:43:28.746Z</time>
      </trkpt>
      <trkpt lat="64.43466" lon="11.50121">
        <ele>81.111517</ele>
        <time>2020-08-10T13:45:13.785Z</time>
      </trkpt>
      <trkpt lat="64.43662" lon="11.50389">
        <ele>80.103259</ele>
        <time>2020-08-10T13:46:00.739Z</time>
      </trkpt>
      <trkpt lat="64.4378" lon="11.50744">
        <ele>91.282937</ele>
        <time>2020-08-10T13:47:45.747Z</time>
      </trkpt>
      <trkpt lat="64.43905" lon="11.51117">
        <ele>95.63669</ele>
        <time>2020-08-10T13:49:17.733Z</time>
      </trkpt>
      <trkpt lat="64.44023" lon="11.51636">
        <ele>82.894373</ele>
        <time>2020-08-10T13:49:57.740Z</time>
      </trkpt>
      <trkpt lat="64.44285" lon="11.52107">
        <ele>65.472074</ele>
        <time>2020-08-10T13:50:37.741Z</time>
      </trkpt>
      <trkpt lat="64.44513" lon="11.52012">
        <ele>53.908654</ele>
        <time>2020-08-10T13:51:11.737Z</time>
      </trkpt>
      <trkpt lat="64.447" lon="11.52295">
        <ele>44.846601</ele>
        <time>2020-08-10T13:51:57.725Z</time>
      </trkpt>
      <trkpt lat="64.44964" lon="11.5233">
        <ele>38.543191</ele>
        <time>2020-08-10T13:52:37.746Z</time>
      </trkpt>
      <trkpt lat="64.45169" lon="11.52223">
        <ele>36.081981</ele>
        <time>2020-08-10T13:53:17.744Z</time>
      </trkpt>
      <trkpt lat="64.45367" lon="11.52212">
        <ele>37.458856</ele>
        <time>2020-08-10T13:53:57.726Z</time>
      </trkpt>
      <trkpt lat="64.4552" lon="11.52539">
        <ele>38.915977</ele>
        <time>2020-08-10T13:54:39.722Z</time>
      </trkpt>
      <trkpt lat="64.45667" lon="11.52791">
        <ele>39.249281</ele>
        <time>2020-08-10T13:55:33.730Z</time>
      </trkpt>
      <trkpt lat="64.45843" lon="11.52457">
        <ele>38.301419</ele>
        <time>2020-08-10T13:56:34.758Z</time>
      </trkpt>
      <trkpt lat="64.46039" lon="11.52246">
        <ele>44.327058</ele>
        <time>2020-08-10T13:57:42.743Z</time>
      </trkpt>
      <trkpt lat="64.46235" lon="11.52087">
        <ele>49.141851</ele>
        <time>2020-08-10T13:58:54.746Z</time>
      </trkpt>
      <trkpt lat="64.46449" lon="11.51905">
        <ele>41.250379</ele>
        <time>2020-08-10T13:59:42.789Z</time>
      </trkpt>
      <trkpt lat="64.46583" lon="11.51555">
        <ele>37.684635</ele>
        <time>2020-08-10T14:00:23.751Z</time>
      </trkpt>
      <trkpt lat="64.46624" lon="11.51116">
        <ele>38.405739</ele>
        <time>2020-08-10T14:01:03.750Z</time>
      </trkpt>
      <trkpt lat="64.4665" lon="11.50644">
        <ele>37.463153</ele>
        <time>2020-08-10T14:02:03.757Z</time>
      </trkpt>
      <trkpt lat="64.46505" lon="11.5042">
        <ele>43.095345</ele>
        <time>2020-08-10T14:02:59.743Z</time>
      </trkpt>
      <trkpt lat="64.46527" lon="11.50166">
        <ele>46.350402</ele>
        <time>2020-08-10T14:04:26.745Z</time>
      </trkpt>
      <trkpt lat="64.46641" lon="11.50188">
        <ele>44.285383</ele>
        <time>2020-08-10T14:19:58.740Z</time>
      </trkpt>
      <trkpt lat="64.4666" lon="11.5075">
        <ele>55.508649</ele>
        <time>2020-08-10T14:20:58.736Z</time>
      </trkpt>
      <trkpt lat="64.46719" lon="11.50624">
        <ele>43.10356</ele>
        <time>2020-08-10T14:22:05.748Z</time>
      </trkpt>
      <trkpt lat="64.46765" lon="11.50739">
        <ele>41.011457</ele>
        <time>2020-08-10T14:28:52.734Z</time>
      </trkpt>
      <trkpt lat="64.46851" lon="11.51069">
        <ele>44.37636</ele>
        <time>2020-08-10T14:52:14.752Z</time>
      </trkpt>
      <trkpt lat="64.46908" lon="11.51508">
        <ele>53.486866</ele>
        <time>2020-08-10T14:53:51.769Z</time>
      </trkpt>
      <trkpt lat="64.46964" lon="11.51963">
        <ele>61.566278</ele>
        <time>2020-08-10T14:55:38.779Z</time>
      </trkpt>
      <trkpt lat="64.4707" lon="11.52355">
        <ele>57.152975</ele>
        <time>2020-08-10T14:56:49.793Z</time>
      </trkpt>
      <trkpt lat="64.47172" lon="11.52832">
        <ele>45.145755</ele>
        <time>2020-08-10T14:57:31.760Z</time>
      </trkpt>
      <trkpt lat="64.47163" lon="11.53303">
        <ele>43.294314</ele>
        <time>2020-08-10T14:58:16.767Z</time>
      </trkpt>
      <trkpt lat="64.47109" lon="11.53786">
        <ele>49.54899</ele>
        <time>2020-08-10T14:59:17.783Z</time>
      </trkpt>
      <trkpt lat="64.47036" lon="11.54238">
        <ele>58.883192</ele>
        <time>2020-08-10T15:00:49.783Z</time>
      </trkpt>
      <trkpt lat="64.47096" lon="11.54689">
        <ele>60.502964</ele>
        <time>2020-08-10T15:02:08.744Z</time>
      </trkpt>
      <trkpt lat="64.47072" lon="11.55213">
        <ele>53.015582</ele>
        <time>2020-08-10T15:03:07.739Z</time>
      </trkpt>
      <trkpt lat="64.47176" lon="11.55681">
        <ele>47.128696</ele>
        <time>2020-08-10T15:03:33.738Z</time>
      </trkpt>
      <trkpt lat="64.47273" lon="11.56139">
        <ele>42.637081</ele>
        <time>2020-08-10T15:04:13.735Z</time>
      </trkpt>
      <trkpt lat="64.47384" lon="11.56579">
        <ele>45.205548</ele>
        <time>2020-08-10T15:05:02.735Z</time>
      </trkpt>
      <trkpt lat="64.47318" lon="11.56988">
        <ele>43.050997</ele>
        <time>2020-08-10T15:05:49.731Z</time>
      </trkpt>
      <trkpt lat="64.47296" lon="11.5738">
        <ele>40.263253</ele>
        <time>2020-08-10T15:06:29.737Z</time>
      </trkpt>
      <trkpt lat="64.47383" lon="11.57791">
        <ele>37.877687</ele>
        <time>2020-08-10T15:07:13.746Z</time>
      </trkpt>
    </trkseg>
  </trk>
  <trk>
    <name><![CDATA[Tour d'Europe: étape 044]]></name>
    <trkseg>
      <trkpt lat="64.47421" lon="11.57829">
        <ele>51.961343</ele>
        <time>2020-08-11T07:25:09.941Z</time>
      </trkpt>
      <trkpt lat="64.47296" lon="11.57402">
        <ele>46.005006</ele>
        <time>2020-08-11T07:26:09.951Z</time>
      </trkpt>
      <trkpt lat="64.47321" lon="11.56918">
        <ele>45.964824</ele>
        <time>2020-08-11T07:27:09.946Z</time>
      </trkpt>
      <trkpt lat="64.4738" lon="11.56564">
        <ele>47.242348</ele>
        <time>2020-08-11T07:28:18.937Z</time>
      </trkpt>
      <trkpt lat="64.47272" lon="11.56136">
        <ele>47.221966</ele>
        <time>2020-08-11T07:29:09.950Z</time>
      </trkpt>
      <trkpt lat="64.47179" lon="11.55676">
        <ele>49.039801</ele>
        <time>2020-08-11T07:29:58.965Z</time>
      </trkpt>
      <trkpt lat="64.47077" lon="11.55235">
        <ele>56.207492</ele>
        <time>2020-08-11T07:31:24.958Z</time>
      </trkpt>
      <trkpt lat="64.471" lon="11.54762">
        <ele>60.909528</ele>
        <time>2020-08-11T07:32:39.972Z</time>
      </trkpt>
      <trkpt lat="64.4704" lon="11.54272">
        <ele>63.6998</ele>
        <time>2020-08-11T07:33:40.942Z</time>
      </trkpt>
      <trkpt lat="64.47126" lon="11.53725">
        <ele>49.545652</ele>
        <time>2020-08-11T07:34:20.941Z</time>
      </trkpt>
      <trkpt lat="64.47168" lon="11.53196">
        <ele>42.288629</ele>
        <time>2020-08-11T07:35:02.983Z</time>
      </trkpt>
      <trkpt lat="64.47177" lon="11.52725">
        <ele>49.678932</ele>
        <time>2020-08-11T07:35:45.988Z</time>
      </trkpt>
      <trkpt lat="64.47085" lon="11.52351">
        <ele>61.200807</ele>
        <time>2020-08-11T07:37:22.967Z</time>
      </trkpt>
      <trkpt lat="64.46995" lon="11.5196">
        <ele>68.290934</ele>
        <time>2020-08-11T07:39:02.986Z</time>
      </trkpt>
      <trkpt lat="64.46913" lon="11.51444">
        <ele>61.321713</ele>
        <time>2020-08-11T07:39:58.942Z</time>
      </trkpt>
      <trkpt lat="64.46887" lon="11.50903">
        <ele>48.718213</ele>
        <time>2020-08-11T07:40:32.957Z</time>
      </trkpt>
      <trkpt lat="64.46877" lon="11.50383">
        <ele>47.577476</ele>
        <time>2020-08-11T07:41:28.003Z</time>
      </trkpt>
      <trkpt lat="64.46825" lon="11.49922">
        <ele>49.577187</ele>
        <time>2020-08-11T07:42:35.953Z</time>
      </trkpt>
      <trkpt lat="64.46793" lon="11.49418">
        <ele>54.249234</ele>
        <time>2020-08-11T07:43:47.982Z</time>
      </trkpt>
      <trkpt lat="64.4687" lon="11.4897">
        <ele>55.167815</ele>
        <time>2020-08-11T07:44:51.980Z</time>
      </trkpt>
      <trkpt lat="64.46955" lon="11.48553">
        <ele>53.807112</ele>
        <time>2020-08-11T07:45:40.949Z</time>
      </trkpt>
      <trkpt lat="64.46962" lon="11.48086">
        <ele>44.326087</ele>
        <time>2020-08-11T07:46:23.949Z</time>
      </trkpt>
      <trkpt lat="64.46991" lon="11.47588">
        <ele>55.201234</ele>
        <time>2020-08-11T07:47:38.957Z</time>
      </trkpt>
      <trkpt lat="64.47088" lon="11.47193">
        <ele>66.013202</ele>
        <time>2020-08-11T07:49:18.976Z</time>
      </trkpt>
      <trkpt lat="64.47207" lon="11.46847">
        <ele>71.999442</ele>
        <time>2020-08-11T07:50:58.944Z</time>
      </trkpt>
      <trkpt lat="64.47385" lon="11.46633">
        <ele>74.592007</ele>
        <time>2020-08-11T07:52:20.947Z</time>
      </trkpt>
      <trkpt lat="64.47608" lon="11.46737">
        <ele>78.877267</ele>
        <time>2020-08-11T07:53:38.945Z</time>
      </trkpt>
      <trkpt lat="64.47772" lon="11.46946">
        <ele>93.771417</ele>
        <time>2020-08-11T07:55:47.964Z</time>
      </trkpt>
      <trkpt lat="64.47949" lon="11.47141">
        <ele>99.887726</ele>
        <time>2020-08-11T07:57:40.985Z</time>
      </trkpt>
      <trkpt lat="64.48073" lon="11.47531">
        <ele>92.463882</ele>
        <time>2020-08-11T07:58:05.946Z</time>
      </trkpt>
      <trkpt lat="64.48253" lon="11.47824">
        <ele>78.612218</ele>
        <time>2020-08-11T07:58:26.964Z</time>
      </trkpt>
      <trkpt lat="64.48457" lon="11.47963">
        <ele>65.768185</ele>
        <time>2020-08-11T07:58:49.976Z</time>
      </trkpt>
      <trkpt lat="64.48684" lon="11.47827">
        <ele>56.451569</ele>
        <time>2020-08-11T07:59:22.968Z</time>
      </trkpt>
      <trkpt lat="64.48912" lon="11.47649">
        <ele>61.088358</ele>
        <time>2020-08-11T07:59:57.947Z</time>
      </trkpt>
      <trkpt lat="64.49034" lon="11.47277">
        <ele>73.226068</ele>
        <time>2020-08-11T08:01:54.950Z</time>
      </trkpt>
      <trkpt lat="64.4915" lon="11.46932">
        <ele>83.634528</ele>
        <time>2020-08-11T08:03:51.945Z</time>
      </trkpt>
      <trkpt lat="64.49385" lon="11.46952">
        <ele>79.199631</ele>
        <time>2020-08-11T08:04:21.971Z</time>
      </trkpt>
      <trkpt lat="64.49625" lon="11.46984">
        <ele>68.653223</ele>
        <time>2020-08-11T08:04:50.948Z</time>
      </trkpt>
      <trkpt lat="64.49845" lon="11.4701">
        <ele>76.925298</ele>
        <time>2020-08-11T08:06:06.947Z</time>
      </trkpt>
      <trkpt lat="64.50052" lon="11.47075">
        <ele>80.889943</ele>
        <time>2020-08-11T08:07:10.968Z</time>
      </trkpt>
      <trkpt lat="64.50246" lon="11.47152">
        <ele>88.944014</ele>
        <time>2020-08-11T08:08:51.939Z</time>
      </trkpt>
      <trkpt lat="64.50382" lon="11.47476">
        <ele>97.203467</ele>
        <time>2020-08-11T08:10:12.982Z</time>
      </trkpt>
      <trkpt lat="64.50473" lon="11.47908">
        <ele>112.518463</ele>
        <time>2020-08-11T08:11:16.985Z</time>
      </trkpt>
      <trkpt lat="64.50572" lon="11.48348">
        <ele>101.426365</ele>
        <time>2020-08-11T08:12:11.985Z</time>
      </trkpt>
      <trkpt lat="64.50772" lon="11.48713">
        <ele>87.505415</ele>
        <time>2020-08-11T08:12:48.967Z</time>
      </trkpt>
      <trkpt lat="64.50987" lon="11.48765">
        <ele>79.476941</ele>
        <time>2020-08-11T08:13:12.988Z</time>
      </trkpt>
      <trkpt lat="64.51238" lon="11.48531">
        <ele>66.492492</ele>
        <time>2020-08-11T08:13:41.965Z</time>
      </trkpt>
      <trkpt lat="64.51445" lon="11.48608">
        <ele>56.120495</ele>
        <time>2020-08-11T08:14:01.972Z</time>
      </trkpt>
      <trkpt lat="64.51605" lon="11.49034">
        <ele>54.553336</ele>
        <time>2020-08-11T08:14:49.987Z</time>
      </trkpt>
      <trkpt lat="64.51658" lon="11.49532">
        <ele>47.818397</ele>
        <time>2020-08-11T08:15:25.983Z</time>
      </trkpt>
      <trkpt lat="64.51633" lon="11.50027">
        <ele>53.610865</ele>
        <time>2020-08-11T08:17:04.947Z</time>
      </trkpt>
      <trkpt lat="64.51503" lon="11.50459">
        <ele>49.121251</ele>
        <time>2020-08-11T08:17:47.978Z</time>
      </trkpt>
      <trkpt lat="64.51349" lon="11.50832">
        <ele>52.537204</ele>
        <time>2020-08-11T08:18:43.981Z</time>
      </trkpt>
      <trkpt lat="64.51318" lon="11.51307">
        <ele>46.960782</ele>
        <time>2020-08-11T08:19:34.969Z</time>
      </trkpt>
      <trkpt lat="64.51439" lon="11.51777">
        <ele>45.32497</ele>
        <time>2020-08-11T08:20:29.957Z</time>
      </trkpt>
      <trkpt lat="64.51612" lon="11.52022">
        <ele>45.318087</ele>
        <time>2020-08-11T08:21:17.994Z</time>
      </trkpt>
      <trkpt lat="64.51742" lon="11.52397">
        <ele>48.63322</ele>
        <time>2020-08-11T08:22:26.963Z</time>
      </trkpt>
      <trkpt lat="64.51724" lon="11.52883">
        <ele>52.421498</ele>
        <time>2020-08-11T08:23:13.988Z</time>
      </trkpt>
      <trkpt lat="64.51715" lon="11.53371">
        <ele>52.727866</ele>
        <time>2020-08-11T08:24:06.962Z</time>
      </trkpt>
      <trkpt lat="64.51807" lon="11.53813">
        <ele>47.879013</ele>
        <time>2020-08-11T08:24:52.991Z</time>
      </trkpt>
      <trkpt lat="64.51991" lon="11.5372">
        <ele>47.545298</ele>
        <time>2020-08-11T08:25:35.976Z</time>
      </trkpt>
      <trkpt lat="64.52184" lon="11.53693">
        <ele>51.435259</ele>
        <time>2020-08-11T08:26:30.959Z</time>
      </trkpt>
      <trkpt lat="64.52363" lon="11.53923">
        <ele>50.881765</ele>
        <time>2020-08-11T08:27:15.980Z</time>
      </trkpt>
      <trkpt lat="64.52562" lon="11.53829">
        <ele>51.447865</ele>
        <time>2020-08-11T08:28:11.983Z</time>
      </trkpt>
      <trkpt lat="64.52773" lon="11.53922">
        <ele>50.061097</ele>
        <time>2020-08-11T08:28:55.006Z</time>
      </trkpt>
      <trkpt lat="64.52984" lon="11.54043">
        <ele>49.708345</ele>
        <time>2020-08-11T08:29:47.964Z</time>
      </trkpt>
      <trkpt lat="64.5303" lon="11.54039">
        <ele>53.413935</ele>
        <time>2020-08-11T08:33:10.958Z</time>
      </trkpt>
      <trkpt lat="64.53224" lon="11.54024">
        <ele>77.175732</ele>
        <time>2020-08-11T08:35:17.985Z</time>
      </trkpt>
      <trkpt lat="64.53418" lon="11.54005">
        <ele>93.514363</ele>
        <time>2020-08-11T08:37:30.950Z</time>
      </trkpt>
      <trkpt lat="64.53604" lon="11.54163">
        <ele>96.746462</ele>
        <time>2020-08-11T08:39:10.975Z</time>
      </trkpt>
      <trkpt lat="64.53845" lon="11.54083">
        <ele>84.607699</ele>
        <time>2020-08-11T08:39:43.958Z</time>
      </trkpt>
      <trkpt lat="64.54055" lon="11.54035">
        <ele>69.067503</ele>
        <time>2020-08-11T08:40:03.956Z</time>
      </trkpt>
      <trkpt lat="64.54263" lon="11.5388">
        <ele>57.981658</ele>
        <time>2020-08-11T08:40:23.953Z</time>
      </trkpt>
      <trkpt lat="64.5451" lon="11.53914">
        <ele>43.012882</ele>
        <time>2020-08-11T08:40:43.951Z</time>
      </trkpt>
      <trkpt lat="64.54757" lon="11.53732">
        <ele>41.599273</ele>
        <time>2020-08-11T08:41:25.999Z</time>
      </trkpt>
      <trkpt lat="64.54872" lon="11.53327">
        <ele>45.666033</ele>
        <time>2020-08-11T08:42:06.003Z</time>
      </trkpt>
      <trkpt lat="64.54983" lon="11.52944">
        <ele>49.72452</ele>
        <time>2020-08-11T08:42:47.960Z</time>
      </trkpt>
      <trkpt lat="64.55191" lon="11.52674">
        <ele>51.426915</ele>
        <time>2020-08-11T08:43:46.949Z</time>
      </trkpt>
      <trkpt lat="64.5541" lon="11.52642">
        <ele>50.375632</ele>
        <time>2020-08-11T08:44:42.969Z</time>
      </trkpt>
      <trkpt lat="64.55575" lon="11.52379">
        <ele>57.311761</ele>
        <time>2020-08-11T08:45:56.969Z</time>
      </trkpt>
      <trkpt lat="64.5572" lon="11.52039">
        <ele>51.967169</ele>
        <time>2020-08-11T08:46:37.967Z</time>
      </trkpt>
      <trkpt lat="64.55908" lon="11.51839">
        <ele>60.102703</ele>
        <time>2020-08-11T08:47:38.955Z</time>
      </trkpt>
      <trkpt lat="64.56016" lon="11.51366">
        <ele>62.835781</ele>
        <time>2020-08-11T08:48:41.023Z</time>
      </trkpt>
      <trkpt lat="64.56096" lon="11.50904">
        <ele>57.136921</ele>
        <time>2020-08-11T08:49:20.990Z</time>
      </trkpt>
      <trkpt lat="64.56153" lon="11.50519">
        <ele>54.589673</ele>
        <time>2020-08-11T08:50:20.964Z</time>
      </trkpt>
      <trkpt lat="64.56253" lon="11.50135">
        <ele>65.271024</ele>
        <time>2020-08-11T08:51:53.970Z</time>
      </trkpt>
      <trkpt lat="64.5613" lon="11.4973">
        <ele>56.111823</ele>
        <time>2020-08-11T08:52:53.947Z</time>
      </trkpt>
      <trkpt lat="64.55915" lon="11.49493">
        <ele>53.422478</ele>
        <time>2020-08-11T08:53:47.975Z</time>
      </trkpt>
      <trkpt lat="64.55713" lon="11.49259">
        <ele>56.647181</ele>
        <time>2020-08-11T08:54:35.955Z</time>
      </trkpt>
      <trkpt lat="64.55528" lon="11.49002">
        <ele>58.176111</ele>
        <time>2020-08-11T08:55:43.021Z</time>
      </trkpt>
      <trkpt lat="64.55435" lon="11.48587">
        <ele>61.348316</ele>
        <time>2020-08-11T08:56:27.962Z</time>
      </trkpt>
      <trkpt lat="64.55342" lon="11.4818">
        <ele>74.349935</ele>
        <time>2020-08-11T08:57:45.959Z</time>
      </trkpt>
      <trkpt lat="64.55125" lon="11.47968">
        <ele>68.596951</ele>
        <time>2020-08-11T08:58:32.951Z</time>
      </trkpt>
      <trkpt lat="64.5502" lon="11.47518">
        <ele>60.360652</ele>
        <time>2020-08-11T08:59:34.945Z</time>
      </trkpt>
      <trkpt lat="64.55017" lon="11.47075">
        <ele>78.774683</ele>
        <time>2020-08-11T09:01:43.950Z</time>
      </trkpt>
      <trkpt lat="64.54986" lon="11.46568">
        <ele>72.357978</ele>
        <time>2020-08-11T09:02:31.020Z</time>
      </trkpt>
      <trkpt lat="64.55085" lon="11.46143">
        <ele>74.439222</ele>
        <time>2020-08-11T09:03:27.983Z</time>
      </trkpt>
      <trkpt lat="64.55273" lon="11.4603">
        <ele>90.057011</ele>
        <time>2020-08-11T09:05:18.959Z</time>
      </trkpt>
      <trkpt lat="64.55457" lon="11.46159">
        <ele>102.029655</ele>
        <time>2020-08-11T09:07:15.948Z</time>
      </trkpt>
      <trkpt lat="64.55645" lon="11.46081">
        <ele>117.119683</ele>
        <time>2020-08-11T09:09:22.952Z</time>
      </trkpt>
      <trkpt lat="64.5584" lon="11.46065">
        <ele>131.814683</ele>
        <time>2020-08-11T09:11:31.949Z</time>
      </trkpt>
      <trkpt lat="64.56044" lon="11.45972">
        <ele>137.970719</ele>
        <time>2020-08-11T09:12:56.998Z</time>
      </trkpt>
      <trkpt lat="64.5625" lon="11.45976">
        <ele>138.794174</ele>
        <time>2020-08-11T09:14:14.979Z</time>
      </trkpt>
      <trkpt lat="64.5646" lon="11.4601">
        <ele>135.348553</ele>
        <time>2020-08-11T09:15:27.984Z</time>
      </trkpt>
      <trkpt lat="64.56689" lon="11.4604">
        <ele>126.183631</ele>
        <time>2020-08-11T09:15:52.958Z</time>
      </trkpt>
      <trkpt lat="64.5692" lon="11.46046">
        <ele>118.987859</ele>
        <time>2020-08-11T09:16:17.964Z</time>
      </trkpt>
      <trkpt lat="64.57186" lon="11.46058">
        <ele>109.998694</ele>
        <time>2020-08-11T09:16:53.983Z</time>
      </trkpt>
      <trkpt lat="64.57389" lon="11.46108">
        <ele>100.140982</ele>
        <time>2020-08-11T09:17:13.961Z</time>
      </trkpt>
      <trkpt lat="64.57639" lon="11.46308">
        <ele>92.22116</ele>
        <time>2020-08-11T09:17:45.959Z</time>
      </trkpt>
      <trkpt lat="64.57884" lon="11.46337">
        <ele>94.786734</ele>
        <time>2020-08-11T09:18:37.978Z</time>
      </trkpt>
      <trkpt lat="64.58088" lon="11.46392">
        <ele>95.334444</ele>
        <time>2020-08-11T09:19:20.971Z</time>
      </trkpt>
      <trkpt lat="64.58301" lon="11.46504">
        <ele>89.81033</ele>
        <time>2020-08-11T09:19:56.971Z</time>
      </trkpt>
      <trkpt lat="64.5854" lon="11.46531">
        <ele>75.551965</ele>
        <time>2020-08-11T09:20:17.001Z</time>
      </trkpt>
      <trkpt lat="64.58793" lon="11.46462">
        <ele>67.057555</ele>
        <time>2020-08-11T09:20:46.979Z</time>
      </trkpt>
      <trkpt lat="64.59064" lon="11.46093">
        <ele>60.943488</ele>
        <time>2020-08-11T09:21:25.977Z</time>
      </trkpt>
      <trkpt lat="64.59189" lon="11.45645">
        <ele>66.139472</ele>
        <time>2020-08-11T09:22:20.970Z</time>
      </trkpt>
      <trkpt lat="64.59305" lon="11.4526">
        <ele>67.93908</ele>
        <time>2020-08-11T09:23:18.964Z</time>
      </trkpt>
      <trkpt lat="64.59247" lon="11.44721">
        <ele>55.705329</ele>
        <time>2020-08-11T09:23:49.961Z</time>
      </trkpt>
      <trkpt lat="64.59356" lon="11.44288">
        <ele>51.981247</ele>
        <time>2020-08-11T09:38:22.958Z</time>
      </trkpt>
      <trkpt lat="64.59495" lon="11.43923">
        <ele>54.974711</ele>
        <time>2020-08-11T09:39:59.027Z</time>
      </trkpt>
      <trkpt lat="64.59689" lon="11.43795">
        <ele>58.585062</ele>
        <time>2020-08-11T09:41:08.984Z</time>
      </trkpt>
      <trkpt lat="64.59902" lon="11.43658">
        <ele>59.166253</ele>
        <time>2020-08-11T09:42:13.959Z</time>
      </trkpt>
      <trkpt lat="64.60121" lon="11.43596">
        <ele>58.317303</ele>
        <time>2020-08-11T09:43:13.000Z</time>
      </trkpt>
      <trkpt lat="64.60288" lon="11.4332">
        <ele>60.084458</ele>
        <time>2020-08-11T09:44:02.968Z</time>
      </trkpt>
      <trkpt lat="64.60403" lon="11.42963">
        <ele>73.088044</ele>
        <time>2020-08-11T09:46:03.973Z</time>
      </trkpt>
      <trkpt lat="64.60527" lon="11.42523">
        <ele>77.751257</ele>
        <time>2020-08-11T09:47:33.981Z</time>
      </trkpt>
      <trkpt lat="64.60729" lon="11.42471">
        <ele>81.443961</ele>
        <time>2020-08-11T09:48:34.993Z</time>
      </trkpt>
      <trkpt lat="64.60932" lon="11.4248">
        <ele>76.379252</ele>
        <time>2020-08-11T09:49:25.958Z</time>
      </trkpt>
      <trkpt lat="64.61113" lon="11.42785">
        <ele>63.198887</ele>
        <time>2020-08-11T09:50:12.975Z</time>
      </trkpt>
      <trkpt lat="64.61328" lon="11.4286">
        <ele>50.265967</ele>
        <time>2020-08-11T09:50:36.946Z</time>
      </trkpt>
      <trkpt lat="64.6158" lon="11.42781">
        <ele>51.682932</ele>
        <time>2020-08-11T09:51:17.949Z</time>
      </trkpt>
      <trkpt lat="64.61773" lon="11.42879">
        <ele>66.284087</ele>
        <time>2020-08-11T09:53:04.017Z</time>
      </trkpt>
      <trkpt lat="64.61959" lon="11.42977">
        <ele>86.528283</ele>
        <time>2020-08-11T09:55:22.980Z</time>
      </trkpt>
      <trkpt lat="64.62091" lon="11.43352">
        <ele>92.23687</ele>
        <time>2020-08-11T09:57:36.983Z</time>
      </trkpt>
      <trkpt lat="64.62039" lon="11.43739">
        <ele>108.75045</ele>
        <time>2020-08-11T09:59:29.959Z</time>
      </trkpt>
      <trkpt lat="64.61879" lon="11.44006">
        <ele>124.541511</ele>
        <time>2020-08-11T10:01:24.984Z</time>
      </trkpt>
      <trkpt lat="64.61804" lon="11.44446">
        <ele>123.874501</ele>
        <time>2020-08-11T10:02:56.005Z</time>
      </trkpt>
      <trkpt lat="64.61727" lon="11.44927">
        <ele>125.875508</ele>
        <time>2020-08-11T10:04:20.011Z</time>
      </trkpt>
      <trkpt lat="64.61566" lon="11.45232">
        <ele>128.969011</ele>
        <time>2020-08-11T10:05:39.959Z</time>
      </trkpt>
      <trkpt lat="64.61644" lon="11.45622">
        <ele>132.12641</ele>
        <time>2020-08-11T10:06:44.970Z</time>
      </trkpt>
      <trkpt lat="64.61782" lon="11.45967">
        <ele>138.057142</ele>
        <time>2020-08-11T10:07:50.960Z</time>
      </trkpt>
      <trkpt lat="64.61878" lon="11.46379">
        <ele>150.465724</ele>
        <time>2020-08-11T10:10:09.969Z</time>
      </trkpt>
      <trkpt lat="64.62066" lon="11.46508">
        <ele>157.439814</ele>
        <time>2020-08-11T10:11:37.967Z</time>
      </trkpt>
      <trkpt lat="64.62277" lon="11.46493">
        <ele>156.915007</ele>
        <time>2020-08-11T10:12:36.010Z</time>
      </trkpt>
      <trkpt lat="64.6253" lon="11.46394">
        <ele>150.942747</ele>
        <time>2020-08-11T10:13:16.043Z</time>
      </trkpt>
      <trkpt lat="64.62824" lon="11.46239">
        <ele>143.82294</ele>
        <time>2020-08-11T10:13:56.091Z</time>
      </trkpt>
      <trkpt lat="64.63015" lon="11.45982">
        <ele>139.947136</ele>
        <time>2020-08-11T10:14:48.022Z</time>
      </trkpt>
      <trkpt lat="64.63194" lon="11.45643">
        <ele>131.414366</ele>
        <time>2020-08-11T10:15:09.012Z</time>
      </trkpt>
      <trkpt lat="64.63409" lon="11.45381">
        <ele>128.930631</ele>
        <time>2020-08-11T10:15:52.080Z</time>
      </trkpt>
      <trkpt lat="64.63619" lon="11.45109">
        <ele>133.581641</ele>
        <time>2020-08-11T10:16:48.033Z</time>
      </trkpt>
      <trkpt lat="64.63775" lon="11.44851">
        <ele>148.548074</ele>
        <time>2020-08-11T10:19:08.031Z</time>
      </trkpt>
      <trkpt lat="64.63968" lon="11.44845">
        <ele>166.235645</ele>
        <time>2020-08-11T10:21:48.046Z</time>
      </trkpt>
      <trkpt lat="64.64157" lon="11.44769">
        <ele>176.486788</ele>
        <time>2020-08-11T10:23:59.023Z</time>
      </trkpt>
      <trkpt lat="64.64379" lon="11.44826">
        <ele>174.838872</ele>
        <time>2020-08-11T10:25:17.531Z</time>
      </trkpt>
      <trkpt lat="64.64602" lon="11.44745">
        <ele>181.107534</ele>
        <time>2020-08-11T10:26:34.552Z</time>
      </trkpt>
      <trkpt lat="64.64799" lon="11.44659">
        <ele>191.110983</ele>
        <time>2020-08-11T10:28:13.504Z</time>
      </trkpt>
      <trkpt lat="64.64985" lon="11.44518">
        <ele>202.996831</ele>
        <time>2020-08-11T10:30:13.514Z</time>
      </trkpt>
      <trkpt lat="64.65192" lon="11.44552">
        <ele>209.464373</ele>
        <time>2020-08-11T10:32:08.536Z</time>
      </trkpt>
      <trkpt lat="64.65401" lon="11.4458">
        <ele>208.398652</ele>
        <time>2020-08-11T10:33:26.581Z</time>
      </trkpt>
      <trkpt lat="64.65596" lon="11.4473">
        <ele>211.33872</ele>
        <time>2020-08-11T10:34:26.519Z</time>
      </trkpt>
      <trkpt lat="64.65829" lon="11.44861">
        <ele>208.172653</ele>
        <time>2020-08-11T10:35:14.529Z</time>
      </trkpt>
      <trkpt lat="64.66062" lon="11.44809">
        <ele>203.622534</ele>
        <time>2020-08-11T10:35:37.513Z</time>
      </trkpt>
      <trkpt lat="64.66277" lon="11.44653">
        <ele>202.507435</ele>
        <time>2020-08-11T10:36:25.522Z</time>
      </trkpt>
      <trkpt lat="64.66525" lon="11.44484">
        <ele>184.933647</ele>
        <time>2020-08-11T10:36:59.512Z</time>
      </trkpt>
      <trkpt lat="64.66742" lon="11.44382">
        <ele>165.725565</ele>
        <time>2020-08-11T10:37:19.569Z</time>
      </trkpt>
      <trkpt lat="64.66994" lon="11.44332">
        <ele>144.046931</ele>
        <time>2020-08-11T10:37:40.518Z</time>
      </trkpt>
      <trkpt lat="64.67168" lon="11.44">
        <ele>123.754232</ele>
        <time>2020-08-11T10:38:00.526Z</time>
      </trkpt>
      <trkpt lat="64.67309" lon="11.43477">
        <ele>100.411457</ele>
        <time>2020-08-11T10:38:20.508Z</time>
      </trkpt>
      <trkpt lat="64.67548" lon="11.43442">
        <ele>88.357977</ele>
        <time>2020-08-11T10:38:40.511Z</time>
      </trkpt>
      <trkpt lat="64.6779" lon="11.43722">
        <ele>85.279783</ele>
        <time>2020-08-11T10:39:13.522Z</time>
      </trkpt>
      <trkpt lat="64.68" lon="11.43503">
        <ele>85.75015</ele>
        <time>2020-08-11T10:39:53.501Z</time>
      </trkpt>
      <trkpt lat="64.68228" lon="11.43288">
        <ele>81.760105</ele>
        <time>2020-08-11T10:40:33.525Z</time>
      </trkpt>
      <trkpt lat="64.68482" lon="11.43301">
        <ele>66.502625</ele>
        <time>2020-08-11T10:41:11.510Z</time>
      </trkpt>
      <trkpt lat="64.68687" lon="11.43235">
        <ele>51.907117</ele>
        <time>2020-08-11T10:41:32.519Z</time>
      </trkpt>
      <trkpt lat="64.68847" lon="11.43643">
        <ele>50.630704</ele>
        <time>2020-08-11T10:42:19.506Z</time>
      </trkpt>
      <trkpt lat="64.69012" lon="11.43872">
        <ele>54.708701</ele>
        <time>2020-08-11T10:43:19.548Z</time>
      </trkpt>
      <trkpt lat="64.69157" lon="11.44162">
        <ele>60.117841</ele>
        <time>2020-08-11T10:44:19.561Z</time>
      </trkpt>
      <trkpt lat="64.69271" lon="11.44551">
        <ele>64.163262</ele>
        <time>2020-08-11T10:45:22.542Z</time>
      </trkpt>
      <trkpt lat="64.69424" lon="11.44931">
        <ele>69.696339</ele>
        <time>2020-08-11T10:46:22.514Z</time>
      </trkpt>
      <trkpt lat="64.69602" lon="11.45256">
        <ele>67.264124</ele>
        <time>2020-08-11T10:47:16.500Z</time>
      </trkpt>
      <trkpt lat="64.69805" lon="11.44997">
        <ele>58.751085</ele>
        <time>2020-08-11T10:47:56.537Z</time>
      </trkpt>
      <trkpt lat="64.70032" lon="11.44839">
        <ele>57.982247</ele>
        <time>2020-08-11T10:48:49.520Z</time>
      </trkpt>
      <trkpt lat="64.70145" lon="11.44448">
        <ele>63.541054</ele>
        <time>2020-08-11T10:50:21.562Z</time>
      </trkpt>
      <trkpt lat="64.70306" lon="11.44199">
        <ele>72.246449</ele>
        <time>2020-08-11T10:52:25.513Z</time>
      </trkpt>
      <trkpt lat="64.7048" lon="11.44255">
        <ele>78.930673</ele>
        <time>2020-08-11T10:53:53.538Z</time>
      </trkpt>
      <trkpt lat="64.7059" lon="11.44778">
        <ele>78.362798</ele>
        <time>2020-08-11T10:54:59.510Z</time>
      </trkpt>
      <trkpt lat="64.70661" lon="11.45253">
        <ele>88.336631</ele>
        <time>2020-08-11T10:56:13.503Z</time>
      </trkpt>
      <trkpt lat="64.70745" lon="11.45686">
        <ele>100.852599</ele>
        <time>2020-08-11T10:57:45.510Z</time>
      </trkpt>
      <trkpt lat="64.7088" lon="11.46102">
        <ele>98.985208</ele>
        <time>2020-08-11T10:58:44.514Z</time>
      </trkpt>
      <trkpt lat="64.71132" lon="11.46454">
        <ele>86.761815</ele>
        <time>2020-08-11T10:59:26.553Z</time>
      </trkpt>
      <trkpt lat="64.71282" lon="11.46835">
        <ele>92.611726</ele>
        <time>2020-08-11T11:00:29.523Z</time>
      </trkpt>
      <trkpt lat="64.71432" lon="11.47143">
        <ele>103.11826</ele>
        <time>2020-08-11T11:01:59.503Z</time>
      </trkpt>
      <trkpt lat="64.71619" lon="11.47364">
        <ele>98.29577</ele>
        <time>2020-08-11T11:02:59.514Z</time>
      </trkpt>
      <trkpt lat="64.71841" lon="11.47649">
        <ele>87.178967</ele>
        <time>2020-08-11T11:03:27.519Z</time>
      </trkpt>
      <trkpt lat="64.71988" lon="11.48064">
        <ele>75.163448</ele>
        <time>2020-08-11T11:03:47.506Z</time>
      </trkpt>
      <trkpt lat="64.72107" lon="11.48461">
        <ele>62.45714</ele>
        <time>2020-08-11T11:04:07.505Z</time>
      </trkpt>
      <trkpt lat="64.72176" lon="11.48922">
        <ele>54.004528</ele>
        <time>2020-08-11T11:04:27.520Z</time>
      </trkpt>
      <trkpt lat="64.72243" lon="11.49435">
        <ele>65.911628</ele>
        <time>2020-08-11T11:05:43.513Z</time>
      </trkpt>
      <trkpt lat="64.72355" lon="11.49933">
        <ele>65.908815</ele>
        <time>2020-08-11T11:06:30.512Z</time>
      </trkpt>
      <trkpt lat="64.72456" lon="11.5037">
        <ele>61.35351</ele>
        <time>2020-08-11T11:07:10.506Z</time>
      </trkpt>
      <trkpt lat="64.72581" lon="11.50875">
        <ele>59.53105</ele>
        <time>2020-08-11T11:08:00.517Z</time>
      </trkpt>
      <trkpt lat="64.7271" lon="11.51298">
        <ele>67.94691</ele>
        <time>2020-08-11T11:09:12.527Z</time>
      </trkpt>
      <trkpt lat="64.72796" lon="11.51764">
        <ele>62.795377</ele>
        <time>2020-08-11T11:10:07.522Z</time>
      </trkpt>
      <trkpt lat="64.72955" lon="11.52243">
        <ele>55.431789</ele>
        <time>2020-08-11T11:10:47.539Z</time>
      </trkpt>
      <trkpt lat="64.73127" lon="11.52524">
        <ele>55.983664</ele>
        <time>2020-08-11T11:11:51.522Z</time>
      </trkpt>
      <trkpt lat="64.73336" lon="11.52449">
        <ele>58.779926</ele>
        <time>2020-08-11T11:13:00.513Z</time>
      </trkpt>
      <trkpt lat="64.73526" lon="11.52555">
        <ele>66.485398</ele>
        <time>2020-08-11T11:14:14.508Z</time>
      </trkpt>
      <trkpt lat="64.73654" lon="11.52896">
        <ele>80.330873</ele>
        <time>2020-08-11T11:15:50.514Z</time>
      </trkpt>
      <trkpt lat="64.73755" lon="11.53283">
        <ele>88.014444</ele>
        <time>2020-08-11T11:17:44.559Z</time>
      </trkpt>
      <trkpt lat="64.73902" lon="11.53749">
        <ele>79.59368</ele>
        <time>2020-08-11T11:18:20.544Z</time>
      </trkpt>
      <trkpt lat="64.74074" lon="11.54095">
        <ele>66.248563</ele>
        <time>2020-08-11T11:18:40.513Z</time>
      </trkpt>
      <trkpt lat="64.74304" lon="11.54245">
        <ele>60.340432</ele>
        <time>2020-08-11T11:19:03.504Z</time>
      </trkpt>
      <trkpt lat="64.7451" lon="11.54258">
        <ele>63.708042</ele>
        <time>2020-08-11T11:20:13.523Z</time>
      </trkpt>
      <trkpt lat="64.74756" lon="11.54257">
        <ele>64.099</ele>
        <time>2020-08-11T11:21:11.507Z</time>
      </trkpt>
      <trkpt lat="64.74944" lon="11.5438">
        <ele>79.377076</ele>
        <time>2020-08-11T11:23:21.508Z</time>
      </trkpt>
      <trkpt lat="64.75141" lon="11.54552">
        <ele>86.77291</ele>
        <time>2020-08-11T11:24:46.520Z</time>
      </trkpt>
      <trkpt lat="64.75287" lon="11.54924">
        <ele>80.131449</ele>
        <time>2020-08-11T11:25:46.525Z</time>
      </trkpt>
      <trkpt lat="64.75155" lon="11.55412">
        <ele>64.938173</ele>
        <time>2020-08-11T11:26:18.511Z</time>
      </trkpt>
      <trkpt lat="64.75033" lon="11.55898">
        <ele>47.331517</ele>
        <time>2020-08-11T11:26:38.505Z</time>
      </trkpt>
      <trkpt lat="64.74905" lon="11.56302">
        <ele>41.405041</ele>
        <time>2020-08-11T11:27:02.509Z</time>
      </trkpt>
      <trkpt lat="64.74994" lon="11.56768">
        <ele>47.872298</ele>
        <time>2020-08-11T11:27:58.525Z</time>
      </trkpt>
      <trkpt lat="64.75169" lon="11.57054">
        <ele>50.892908</ele>
        <time>2020-08-11T11:28:46.568Z</time>
      </trkpt>
      <trkpt lat="64.75331" lon="11.5733">
        <ele>54.043311</ele>
        <time>2020-08-11T11:30:17.514Z</time>
      </trkpt>
      <trkpt lat="64.75521" lon="11.57783">
        <ele>42.261387</ele>
        <time>2020-08-11T11:31:01.530Z</time>
      </trkpt>
      <trkpt lat="64.75715" lon="11.58037">
        <ele>43.646771</ele>
        <time>2020-08-11T11:31:42.504Z</time>
      </trkpt>
      <trkpt lat="64.75789" lon="11.58494">
        <ele>57.866624</ele>
        <time>2020-08-11T11:32:55.538Z</time>
      </trkpt>
      <trkpt lat="64.75849" lon="11.58919">
        <ele>65.742098</ele>
        <time>2020-08-11T11:34:18.505Z</time>
      </trkpt>
      <trkpt lat="64.75972" lon="11.59288">
        <ele>68.583202</ele>
        <time>2020-08-11T11:35:59.518Z</time>
      </trkpt>
      <trkpt lat="64.76103" lon="11.59686">
        <ele>76.215543</ele>
        <time>2020-08-11T11:37:19.500Z</time>
      </trkpt>
      <trkpt lat="64.76224" lon="11.60072">
        <ele>87.556864</ele>
        <time>2020-08-11T11:39:24.527Z</time>
      </trkpt>
      <trkpt lat="64.76367" lon="11.60489">
        <ele>76.871639</ele>
        <time>2020-08-11T11:40:07.513Z</time>
      </trkpt>
      <trkpt lat="64.76591" lon="11.60756">
        <ele>62.776897</ele>
        <time>2020-08-11T11:40:27.545Z</time>
      </trkpt>
      <trkpt lat="64.76719" lon="11.61172">
        <ele>59.39915</ele>
        <time>2020-08-11T11:41:15.509Z</time>
      </trkpt>
      <trkpt lat="64.76765" lon="11.61716">
        <ele>52.227396</ele>
        <time>2020-08-11T11:41:42.526Z</time>
      </trkpt>
      <trkpt lat="64.76818" lon="11.62284">
        <ele>43.423298</ele>
        <time>2020-08-11T11:42:24.524Z</time>
      </trkpt>
      <trkpt lat="64.77532" lon="11.61908">
        <ele>34.349501</ele>
        <time>2020-08-11T12:36:29.280Z</time>
      </trkpt>
      <trkpt lat="64.77699" lon="11.61612">
        <ele>45.138074</ele>
        <time>2020-08-11T12:37:09.345Z</time>
      </trkpt>
      <trkpt lat="64.77873" lon="11.61282">
        <ele>53.884552</ele>
        <time>2020-08-11T12:37:51.298Z</time>
      </trkpt>
      <trkpt lat="64.78042" lon="11.60971">
        <ele>62.186177</ele>
        <time>2020-08-11T12:38:31.276Z</time>
      </trkpt>
      <trkpt lat="64.7821" lon="11.6067">
        <ele>67.081852</ele>
        <time>2020-08-11T12:39:11.287Z</time>
      </trkpt>
      <trkpt lat="64.7838" lon="11.60381">
        <ele>58.715727</ele>
        <time>2020-08-11T12:39:51.308Z</time>
      </trkpt>
      <trkpt lat="64.78555" lon="11.60058">
        <ele>58.231296</ele>
        <time>2020-08-11T12:40:33.282Z</time>
      </trkpt>
      <trkpt lat="64.78721" lon="11.59758">
        <ele>60.835342</ele>
        <time>2020-08-11T12:41:13.283Z</time>
      </trkpt>
      <trkpt lat="64.78892" lon="11.59476">
        <ele>57.406974</ele>
        <time>2020-08-11T12:41:53.290Z</time>
      </trkpt>
      <trkpt lat="64.79058" lon="11.59176">
        <ele>50.223832</ele>
        <time>2020-08-11T12:42:33.297Z</time>
      </trkpt>
      <trkpt lat="64.79246" lon="11.58896">
        <ele>43.695505</ele>
        <time>2020-08-11T12:43:15.290Z</time>
      </trkpt>
      <trkpt lat="64.79416" lon="11.58603">
        <ele>43.836179</ele>
        <time>2020-08-11T12:43:55.281Z</time>
      </trkpt>
      <trkpt lat="64.79596" lon="11.58338">
        <ele>43.538618</ele>
        <time>2020-08-11T12:44:35.288Z</time>
      </trkpt>
      <trkpt lat="64.79797" lon="11.58088">
        <ele>40.016942</ele>
        <time>2020-08-11T12:45:17.312Z</time>
      </trkpt>
      <trkpt lat="64.79986" lon="11.57865">
        <ele>40.686768</ele>
        <time>2020-08-11T12:45:57.281Z</time>
      </trkpt>
      <trkpt lat="64.80187" lon="11.57692">
        <ele>40.786493</ele>
        <time>2020-08-11T12:46:37.281Z</time>
      </trkpt>
      <trkpt lat="64.80403" lon="11.57623">
        <ele>48.735689</ele>
        <time>2020-08-11T12:47:17.259Z</time>
      </trkpt>
      <trkpt lat="64.80623" lon="11.57765">
        <ele>47.909671</ele>
        <time>2020-08-11T12:47:59.292Z</time>
      </trkpt>
      <trkpt lat="64.80823" lon="11.5797">
        <ele>44.824776</ele>
        <time>2020-08-11T12:48:39.290Z</time>
      </trkpt>
      <trkpt lat="64.81019" lon="11.58189">
        <ele>42.179056</ele>
        <time>2020-08-11T12:49:19.289Z</time>
      </trkpt>
      <trkpt lat="64.81204" lon="11.58442">
        <ele>54.71719</ele>
        <time>2020-08-11T12:49:59.292Z</time>
      </trkpt>
      <trkpt lat="64.81402" lon="11.58787">
        <ele>60.692681</ele>
        <time>2020-08-11T12:50:41.306Z</time>
      </trkpt>
      <trkpt lat="64.81565" lon="11.59145">
        <ele>55.454607</ele>
        <time>2020-08-11T12:51:21.288Z</time>
      </trkpt>
      <trkpt lat="64.81734" lon="11.59518">
        <ele>64.79426</ele>
        <time>2020-08-11T12:52:01.270Z</time>
      </trkpt>
      <trkpt lat="64.81887" lon="11.59891">
        <ele>59.718316</ele>
        <time>2020-08-11T12:52:41.293Z</time>
      </trkpt>
      <trkpt lat="64.82043" lon="11.60289">
        <ele>53.473626</ele>
        <time>2020-08-11T12:53:23.297Z</time>
      </trkpt>
      <trkpt lat="64.82211" lon="11.60639">
        <ele>51.357337</ele>
        <time>2020-08-11T12:54:03.308Z</time>
      </trkpt>
      <trkpt lat="64.82364" lon="11.61034">
        <ele>45.918154</ele>
        <time>2020-08-11T12:54:43.275Z</time>
      </trkpt>
      <trkpt lat="64.82536" lon="11.6138">
        <ele>46.593456</ele>
        <time>2020-08-11T12:55:24.294Z</time>
      </trkpt>
      <trkpt lat="64.82731" lon="11.61402">
        <ele>38.304679</ele>
        <time>2020-08-11T12:57:15.284Z</time>
      </trkpt>
      <trkpt lat="64.82774" lon="11.60897">
        <ele>45.517809</ele>
        <time>2020-08-11T13:00:38.266Z</time>
      </trkpt>
      <trkpt lat="64.82722" lon="11.60434">
        <ele>43.750879</ele>
        <time>2020-08-11T13:01:31.263Z</time>
      </trkpt>
      <trkpt lat="64.82639" lon="11.59864">
        <ele>41.210315</ele>
        <time>2020-08-11T13:02:11.283Z</time>
      </trkpt>
      <trkpt lat="64.82581" lon="11.59385">
        <ele>40.468389</ele>
        <time>2020-08-11T13:02:53.296Z</time>
      </trkpt>
      <trkpt lat="64.82543" lon="11.5885">
        <ele>47.88651</ele>
        <time>2020-08-11T13:03:52.292Z</time>
      </trkpt>
      <trkpt lat="64.82513" lon="11.58353">
        <ele>43.268245</ele>
        <time>2020-08-11T13:04:33.268Z</time>
      </trkpt>
      <trkpt lat="64.82447" lon="11.5787">
        <ele>44.749975</ele>
        <time>2020-08-11T13:05:28.332Z</time>
      </trkpt>
      <trkpt lat="64.82383" lon="11.57384">
        <ele>45.083808</ele>
        <time>2020-08-11T13:06:10.298Z</time>
      </trkpt>
      <trkpt lat="64.8232" lon="11.56896">
        <ele>51.823881</ele>
        <time>2020-08-11T13:07:09.301Z</time>
      </trkpt>
      <trkpt lat="64.82266" lon="11.56454">
        <ele>55.660313</ele>
        <time>2020-08-11T13:08:34.283Z</time>
      </trkpt>
      <trkpt lat="64.82174" lon="11.56014">
        <ele>56.501916</ele>
        <time>2020-08-11T13:09:49.284Z</time>
      </trkpt>
      <trkpt lat="64.82143" lon="11.55544">
        <ele>65.204882</ele>
        <time>2020-08-11T13:11:34.335Z</time>
      </trkpt>
      <trkpt lat="64.82158" lon="11.55056">
        <ele>66.384688</ele>
        <time>2020-08-11T13:12:59.286Z</time>
      </trkpt>
      <trkpt lat="64.82089" lon="11.54559">
        <ele>64.81264</ele>
        <time>2020-08-11T13:13:50.270Z</time>
      </trkpt>
      <trkpt lat="64.81981" lon="11.54078">
        <ele>57.899052</ele>
        <time>2020-08-11T13:14:30.268Z</time>
      </trkpt>
      <trkpt lat="64.81898" lon="11.53503">
        <ele>50.104598</ele>
        <time>2020-08-11T13:15:12.282Z</time>
      </trkpt>
      <trkpt lat="64.81864" lon="11.53012">
        <ele>44.612799</ele>
        <time>2020-08-11T13:15:52.278Z</time>
      </trkpt>
      <trkpt lat="64.81897" lon="11.52484">
        <ele>48.927209</ele>
        <time>2020-08-11T13:16:55.302Z</time>
      </trkpt>
      <trkpt lat="64.81948" lon="11.52">
        <ele>50.868623</ele>
        <time>2020-08-11T13:18:13.301Z</time>
      </trkpt>
      <trkpt lat="64.81955" lon="11.51481">
        <ele>55.497685</ele>
        <time>2020-08-11T13:19:26.320Z</time>
      </trkpt>
      <trkpt lat="64.82027" lon="11.51051">
        <ele>65.259692</ele>
        <time>2020-08-11T13:20:54.262Z</time>
      </trkpt>
      <trkpt lat="64.82127" lon="11.50663">
        <ele>71.68216</ele>
        <time>2020-08-11T13:22:53.314Z</time>
      </trkpt>
      <trkpt lat="64.82227" lon="11.50244">
        <ele>74.138783</ele>
        <time>2020-08-11T13:24:14.280Z</time>
      </trkpt>
      <trkpt lat="64.82334" lon="11.49762">
        <ele>72.071004</ele>
        <time>2020-08-11T13:25:02.307Z</time>
      </trkpt>
      <trkpt lat="64.82517" lon="11.49873">
        <ele>73.383212</ele>
        <time>2020-08-11T13:25:43.269Z</time>
      </trkpt>
      <trkpt lat="64.82686" lon="11.50145">
        <ele>86.118913</ele>
        <time>2020-08-11T13:27:11.295Z</time>
      </trkpt>
      <trkpt lat="64.82855" lon="11.50419">
        <ele>90.939397</ele>
        <time>2020-08-11T13:28:39.273Z</time>
      </trkpt>
      <trkpt lat="64.8304" lon="11.50677">
        <ele>91.168851</ele>
        <time>2020-08-11T13:29:53.295Z</time>
      </trkpt>
      <trkpt lat="64.83233" lon="11.50835">
        <ele>99.497099</ele>
        <time>2020-08-11T13:31:29.296Z</time>
      </trkpt>
      <trkpt lat="64.8339" lon="11.51161">
        <ele>100.227596</ele>
        <time>2020-08-11T13:32:16.275Z</time>
      </trkpt>
      <trkpt lat="64.83594" lon="11.51361">
        <ele>104.543703</ele>
        <time>2020-08-11T13:33:18.278Z</time>
      </trkpt>
      <trkpt lat="64.83813" lon="11.51527">
        <ele>100.872681</ele>
        <time>2020-08-11T13:34:03.293Z</time>
      </trkpt>
      <trkpt lat="64.83995" lon="11.51827">
        <ele>98.193147</ele>
        <time>2020-08-11T13:34:40.299Z</time>
      </trkpt>
      <trkpt lat="64.84203" lon="11.51707">
        <ele>87.650877</ele>
        <time>2020-08-11T13:35:00.324Z</time>
      </trkpt>
      <trkpt lat="64.8447" lon="11.51598">
        <ele>64.644189</ele>
        <time>2020-08-11T13:35:20.287Z</time>
      </trkpt>
      <trkpt lat="64.84666" lon="11.51853">
        <ele>41.504063</ele>
        <time>2020-08-11T13:35:41.292Z</time>
      </trkpt>
      <trkpt lat="64.84705" lon="11.52421">
        <ele>35.313033</ele>
        <time>2020-08-11T13:36:12.291Z</time>
      </trkpt>
      <trkpt lat="64.84801" lon="11.5288">
        <ele>42.915033</ele>
        <time>2020-08-11T13:36:52.279Z</time>
      </trkpt>
      <trkpt lat="64.84916" lon="11.53261">
        <ele>46.683153</ele>
        <time>2020-08-11T13:37:32.275Z</time>
      </trkpt>
      <trkpt lat="64.85128" lon="11.534">
        <ele>43.047356</ele>
        <time>2020-08-11T13:38:14.284Z</time>
      </trkpt>
      <trkpt lat="64.85274" lon="11.53712">
        <ele>39.143573</ele>
        <time>2020-08-11T13:38:54.318Z</time>
      </trkpt>
      <trkpt lat="64.85434" lon="11.54019">
        <ele>38.838323</ele>
        <time>2020-08-11T13:39:34.283Z</time>
      </trkpt>
      <trkpt lat="64.85526" lon="11.54487">
        <ele>40.38877</ele>
        <time>2020-08-11T13:40:14.265Z</time>
      </trkpt>
      <trkpt lat="64.8569" lon="11.54813">
        <ele>43.655851</ele>
        <time>2020-08-11T13:40:57.297Z</time>
      </trkpt>
      <trkpt lat="64.85802" lon="11.55216">
        <ele>43.229425</ele>
        <time>2020-08-11T13:41:38.318Z</time>
      </trkpt>
      <trkpt lat="64.85923" lon="11.55623">
        <ele>41.215966</ele>
        <time>2020-08-11T13:42:23.302Z</time>
      </trkpt>
      <trkpt lat="64.86041" lon="11.56073">
        <ele>42.086317</ele>
        <time>2020-08-11T13:43:05.267Z</time>
      </trkpt>
      <trkpt lat="64.86195" lon="11.56491">
        <ele>43.256119</ele>
        <time>2020-08-11T13:43:47.285Z</time>
      </trkpt>
      <trkpt lat="64.86348" lon="11.56861">
        <ele>42.298098</ele>
        <time>2020-08-11T13:44:33.276Z</time>
      </trkpt>
      <trkpt lat="64.86516" lon="11.57078">
        <ele>45.327131</ele>
        <time>2020-08-11T13:45:25.284Z</time>
      </trkpt>
      <trkpt lat="64.86598" lon="11.57505">
        <ele>50.243159</ele>
        <time>2020-08-11T13:46:25.278Z</time>
      </trkpt>
      <trkpt lat="64.86674" lon="11.57973">
        <ele>59.52922</ele>
        <time>2020-08-11T13:47:45.283Z</time>
      </trkpt>
      <trkpt lat="64.8673" lon="11.58416">
        <ele>68.957581</ele>
        <time>2020-08-11T13:49:20.265Z</time>
      </trkpt>
      <trkpt lat="64.86765" lon="11.5887">
        <ele>73.111899</ele>
        <time>2020-08-11T13:50:50.298Z</time>
      </trkpt>
      <trkpt lat="64.86693" lon="11.59347">
        <ele>79.351079</ele>
        <time>2020-08-11T13:51:51.293Z</time>
      </trkpt>
      <trkpt lat="64.86561" lon="11.59698">
        <ele>93.865119</ele>
        <time>2020-08-11T13:53:23.280Z</time>
      </trkpt>
      <trkpt lat="64.86539" lon="11.6014">
        <ele>104.661288</ele>
        <time>2020-08-11T13:55:14.307Z</time>
      </trkpt>
      <trkpt lat="64.86485" lon="11.60428">
        <ele>105.634766</ele>
        <time>2020-08-11T14:12:28.282Z</time>
      </trkpt>
      <trkpt lat="64.86551" lon="11.60316">
        <ele>105.577572</ele>
        <time>2020-08-11T14:18:22.272Z</time>
      </trkpt>
      <trkpt lat="64.86529" lon="11.59754">
        <ele>93.750183</ele>
        <time>2020-08-11T14:19:14.303Z</time>
      </trkpt>
      <trkpt lat="64.86666" lon="11.59466">
        <ele>82.285744</ele>
        <time>2020-08-11T14:19:34.287Z</time>
      </trkpt>
      <trkpt lat="64.86758" lon="11.58844">
        <ele>61.904272</ele>
        <time>2020-08-11T14:20:11.284Z</time>
      </trkpt>
      <trkpt lat="64.86911" lon="11.58721">
        <ele>76.035077</ele>
        <time>2020-08-11T14:21:16.276Z</time>
      </trkpt>
      <trkpt lat="64.87101" lon="11.58883">
        <ele>83.335766</ele>
        <time>2020-08-11T14:22:31.278Z</time>
      </trkpt>
      <trkpt lat="64.87218" lon="11.58943">
        <ele>79.287232</ele>
        <time>2020-08-11T14:25:11.274Z</time>
      </trkpt>
    </trkseg>
  </trk>
  <trk>
    <name><![CDATA[Tour d'Europe: étape 045]]></name>
    <trkseg>
      <trkpt lat="64.87152" lon="11.59036">
        <ele>87.521096</ele>
        <time>2020-08-12T07:37:07.716Z</time>
      </trkpt>
      <trkpt lat="64.87002" lon="11.58745">
        <ele>85.64307</ele>
        <time>2020-08-12T07:38:14.728Z</time>
      </trkpt>
      <trkpt lat="64.86768" lon="11.58823">
        <ele>79.076926</ele>
        <time>2020-08-12T07:38:58.715Z</time>
      </trkpt>
      <trkpt lat="64.86693" lon="11.59311">
        <ele>80.586382</ele>
        <time>2020-08-12T07:39:51.716Z</time>
      </trkpt>
      <trkpt lat="64.86545" lon="11.59624">
        <ele>88.143671</ele>
        <time>2020-08-12T07:41:08.713Z</time>
      </trkpt>
      <trkpt lat="64.8636" lon="11.59862">
        <ele>94.765905</ele>
        <time>2020-08-12T07:42:05.720Z</time>
      </trkpt>
      <trkpt lat="64.86475" lon="11.60219">
        <ele>106.600414</ele>
        <time>2020-08-12T07:43:29.729Z</time>
      </trkpt>
      <trkpt lat="64.86581" lon="11.60452">
        <ele>111.749264</ele>
        <time>2020-08-12T07:58:41.729Z</time>
      </trkpt>
      <trkpt lat="64.86756" lon="11.60593">
        <ele>124.028842</ele>
        <time>2020-08-12T08:00:16.724Z</time>
      </trkpt>
      <trkpt lat="64.86843" lon="11.61041">
        <ele>138.479549</ele>
        <time>2020-08-12T08:02:16.729Z</time>
      </trkpt>
      <trkpt lat="64.86987" lon="11.61371">
        <ele>149.232505</ele>
        <time>2020-08-12T08:04:09.737Z</time>
      </trkpt>
      <trkpt lat="64.87132" lon="11.61779">
        <ele>154.016913</ele>
        <time>2020-08-12T08:05:31.721Z</time>
      </trkpt>
      <trkpt lat="64.87166" lon="11.6232">
        <ele>150.794024</ele>
        <time>2020-08-12T08:06:25.722Z</time>
      </trkpt>
      <trkpt lat="64.87282" lon="11.6275">
        <ele>160.103657</ele>
        <time>2020-08-12T08:07:49.724Z</time>
      </trkpt>
      <trkpt lat="64.8743" lon="11.63091">
        <ele>172.586465</ele>
        <time>2020-08-12T08:09:40.729Z</time>
      </trkpt>
      <trkpt lat="64.87594" lon="11.63447">
        <ele>179.120064</ele>
        <time>2020-08-12T08:11:25.729Z</time>
      </trkpt>
      <trkpt lat="64.87749" lon="11.63914">
        <ele>165.284412</ele>
        <time>2020-08-12T08:12:20.732Z</time>
      </trkpt>
      <trkpt lat="64.87848" lon="11.64348">
        <ele>151.501627</ele>
        <time>2020-08-12T08:12:41.747Z</time>
      </trkpt>
      <trkpt lat="64.87659" lon="11.64808">
        <ele>132.935949</ele>
        <time>2020-08-12T08:13:03.720Z</time>
      </trkpt>
      <trkpt lat="64.87695" lon="11.65445">
        <ele>115.391047</ele>
        <time>2020-08-12T08:13:24.736Z</time>
      </trkpt>
      <trkpt lat="64.87805" lon="11.66021">
        <ele>98.906099</ele>
        <time>2020-08-12T08:13:45.728Z</time>
      </trkpt>
      <trkpt lat="64.88028" lon="11.66349">
        <ele>87.170717</ele>
        <time>2020-08-12T08:14:08.723Z</time>
      </trkpt>
      <trkpt lat="64.88238" lon="11.66629">
        <ele>90.48583</ele>
        <time>2020-08-12T08:14:58.724Z</time>
      </trkpt>
      <trkpt lat="64.8847" lon="11.66991">
        <ele>87.787452</ele>
        <time>2020-08-12T08:15:42.757Z</time>
      </trkpt>
      <trkpt lat="64.88677" lon="11.67214">
        <ele>85.814584</ele>
        <time>2020-08-12T08:16:25.735Z</time>
      </trkpt>
      <trkpt lat="64.88956" lon="11.67369">
        <ele>70.39421</ele>
        <time>2020-08-12T08:16:59.731Z</time>
      </trkpt>
      <trkpt lat="64.89221" lon="11.67595">
        <ele>55.72537</ele>
        <time>2020-08-12T08:17:31.737Z</time>
      </trkpt>
      <trkpt lat="64.89446" lon="11.67895">
        <ele>53.377047</ele>
        <time>2020-08-12T08:18:13.748Z</time>
      </trkpt>
      <trkpt lat="64.89578" lon="11.6832">
        <ele>59.627481</ele>
        <time>2020-08-12T08:19:13.731Z</time>
      </trkpt>
      <trkpt lat="64.89657" lon="11.68852">
        <ele>63.611579</ele>
        <time>2020-08-12T08:20:19.736Z</time>
      </trkpt>
      <trkpt lat="64.89723" lon="11.69325">
        <ele>69.140683</ele>
        <time>2020-08-12T08:21:58.729Z</time>
      </trkpt>
      <trkpt lat="64.89792" lon="11.69794">
        <ele>80.993042</ele>
        <time>2020-08-12T08:23:19.728Z</time>
      </trkpt>
      <trkpt lat="64.89877" lon="11.70292">
        <ele>87.194976</ele>
        <time>2020-08-12T08:24:33.715Z</time>
      </trkpt>
      <trkpt lat="64.90031" lon="11.70705">
        <ele>80.802376</ele>
        <time>2020-08-12T08:25:36.793Z</time>
      </trkpt>
      <trkpt lat="64.9016" lon="11.71244">
        <ele>78.063287</ele>
        <time>2020-08-12T08:26:18.753Z</time>
      </trkpt>
      <trkpt lat="64.90244" lon="11.71733">
        <ele>86.210826</ele>
        <time>2020-08-12T08:27:23.722Z</time>
      </trkpt>
      <trkpt lat="64.90367" lon="11.72341">
        <ele>73.472579</ele>
        <time>2020-08-12T08:27:58.740Z</time>
      </trkpt>
      <trkpt lat="64.90537" lon="11.72703">
        <ele>78.236817</ele>
        <time>2020-08-12T08:29:01.722Z</time>
      </trkpt>
      <trkpt lat="64.90658" lon="11.73149">
        <ele>86.162743</ele>
        <time>2020-08-12T08:30:24.732Z</time>
      </trkpt>
      <trkpt lat="64.90818" lon="11.73405">
        <ele>69.208316</ele>
        <time>2020-08-12T08:31:06.735Z</time>
      </trkpt>
      <trkpt lat="64.90909" lon="11.72951">
        <ele>57.299194</ele>
        <time>2020-08-12T08:31:41.763Z</time>
      </trkpt>
      <trkpt lat="64.90813" lon="11.72381">
        <ele>53.745216</ele>
        <time>2020-08-12T08:32:10.726Z</time>
      </trkpt>
      <trkpt lat="64.9078" lon="11.71846">
        <ele>54.262164</ele>
        <time>2020-08-12T08:33:29.751Z</time>
      </trkpt>
      <trkpt lat="64.90788" lon="11.71243">
        <ele>55.401458</ele>
        <time>2020-08-12T08:34:19.817Z</time>
      </trkpt>
      <trkpt lat="64.90708" lon="11.7076">
        <ele>63.830268</ele>
        <time>2020-08-12T08:35:48.723Z</time>
      </trkpt>
      <trkpt lat="64.90743" lon="11.70286">
        <ele>78.752056</ele>
        <time>2020-08-12T08:38:00.757Z</time>
      </trkpt>
      <trkpt lat="64.90895" lon="11.69917">
        <ele>80.090674</ele>
        <time>2020-08-12T08:39:27.755Z</time>
      </trkpt>
      <trkpt lat="64.91081" lon="11.70135">
        <ele>68.231156</ele>
        <time>2020-08-12T08:39:59.751Z</time>
      </trkpt>
      <trkpt lat="64.91212" lon="11.7053">
        <ele>65.508424</ele>
        <time>2020-08-12T08:40:43.731Z</time>
      </trkpt>
      <trkpt lat="64.91378" lon="11.7094">
        <ele>68.827955</ele>
        <time>2020-08-12T08:41:42.731Z</time>
      </trkpt>
      <trkpt lat="64.91556" lon="11.71302">
        <ele>76.406774</ele>
        <time>2020-08-12T08:42:53.778Z</time>
      </trkpt>
      <trkpt lat="64.91742" lon="11.71562">
        <ele>73.629142</ele>
        <time>2020-08-12T08:44:05.733Z</time>
      </trkpt>
      <trkpt lat="64.91933" lon="11.71823">
        <ele>72.219115</ele>
        <time>2020-08-12T08:45:02.733Z</time>
      </trkpt>
      <trkpt lat="64.92109" lon="11.72229">
        <ele>77.730476</ele>
        <time>2020-08-12T08:46:09.740Z</time>
      </trkpt>
      <trkpt lat="64.92283" lon="11.72552">
        <ele>72.756321</ele>
        <time>2020-08-12T08:47:09.773Z</time>
      </trkpt>
      <trkpt lat="64.92395" lon="11.73014">
        <ele>72.587573</ele>
        <time>2020-08-12T08:47:59.746Z</time>
      </trkpt>
      <trkpt lat="64.92477" lon="11.73507">
        <ele>85.749592</ele>
        <time>2020-08-12T08:49:44.734Z</time>
      </trkpt>
      <trkpt lat="64.92601" lon="11.73912">
        <ele>94.110688</ele>
        <time>2020-08-12T08:51:17.738Z</time>
      </trkpt>
      <trkpt lat="64.92708" lon="11.74405">
        <ele>85.297215</ele>
        <time>2020-08-12T08:52:03.734Z</time>
      </trkpt>
      <trkpt lat="64.92881" lon="11.74899">
        <ele>81.77418</ele>
        <time>2020-08-12T08:52:54.724Z</time>
      </trkpt>
      <trkpt lat="64.93051" lon="11.75249">
        <ele>78.070995</ele>
        <time>2020-08-12T08:53:41.736Z</time>
      </trkpt>
      <trkpt lat="64.93208" lon="11.75639">
        <ele>82.127827</ele>
        <time>2020-08-12T08:54:44.752Z</time>
      </trkpt>
      <trkpt lat="64.93345" lon="11.7606">
        <ele>92.120467</ele>
        <time>2020-08-12T08:56:15.729Z</time>
      </trkpt>
      <trkpt lat="64.93499" lon="11.76427">
        <ele>96.362</ele>
        <time>2020-08-12T08:57:43.760Z</time>
      </trkpt>
      <trkpt lat="64.93684" lon="11.76672">
        <ele>95.247796</ele>
        <time>2020-08-12T08:58:53.744Z</time>
      </trkpt>
      <trkpt lat="64.93951" lon="11.76764">
        <ele>93.467728</ele>
        <time>2020-08-12T08:59:41.753Z</time>
      </trkpt>
      <trkpt lat="64.94169" lon="11.76781">
        <ele>93.510628</ele>
        <time>2020-08-12T09:00:57.766Z</time>
      </trkpt>
      <trkpt lat="64.9438" lon="11.76755">
        <ele>96.173085</ele>
        <time>2020-08-12T09:02:10.757Z</time>
      </trkpt>
      <trkpt lat="64.946" lon="11.76855">
        <ele>105.407255</ele>
        <time>2020-08-12T09:04:01.746Z</time>
      </trkpt>
      <trkpt lat="64.94705" lon="11.77282">
        <ele>109.101281</ele>
        <time>2020-08-12T09:04:53.746Z</time>
      </trkpt>
      <trkpt lat="64.94849" lon="11.77668">
        <ele>109.071201</ele>
        <time>2020-08-12T09:06:19.740Z</time>
      </trkpt>
      <trkpt lat="64.95094" lon="11.77948">
        <ele>102.366183</ele>
        <time>2020-08-12T09:07:01.745Z</time>
      </trkpt>
      <trkpt lat="64.95278" lon="11.78233">
        <ele>103.69817</ele>
        <time>2020-08-12T09:07:57.741Z</time>
      </trkpt>
      <trkpt lat="64.95432" lon="11.78057">
        <ele>103.402844</ele>
        <time>2020-08-12T09:08:48.742Z</time>
      </trkpt>
      <trkpt lat="64.95642" lon="11.78098">
        <ele>103.859841</ele>
        <time>2020-08-12T09:09:44.747Z</time>
      </trkpt>
      <trkpt lat="64.95844" lon="11.78271">
        <ele>102.267236</ele>
        <time>2020-08-12T09:10:34.753Z</time>
      </trkpt>
      <trkpt lat="64.96051" lon="11.78578">
        <ele>104.701366</ele>
        <time>2020-08-12T09:11:33.756Z</time>
      </trkpt>
      <trkpt lat="64.96235" lon="11.78882">
        <ele>109.006589</ele>
        <time>2020-08-12T09:12:47.781Z</time>
      </trkpt>
      <trkpt lat="64.96346" lon="11.79345">
        <ele>108.565433</ele>
        <time>2020-08-12T09:13:52.745Z</time>
      </trkpt>
      <trkpt lat="64.96483" lon="11.79743">
        <ele>113.476021</ele>
        <time>2020-08-12T09:15:03.741Z</time>
      </trkpt>
      <trkpt lat="64.96595" lon="11.80181">
        <ele>117.752873</ele>
        <time>2020-08-12T09:16:20.758Z</time>
      </trkpt>
      <trkpt lat="64.96699" lon="11.8062">
        <ele>122.848261</ele>
        <time>2020-08-12T09:18:01.745Z</time>
      </trkpt>
      <trkpt lat="64.96855" lon="11.81052">
        <ele>121.289954</ele>
        <time>2020-08-12T09:19:13.758Z</time>
      </trkpt>
      <trkpt lat="64.97007" lon="11.8092">
        <ele>113.002463</ele>
        <time>2020-08-12T09:19:34.746Z</time>
      </trkpt>
      <trkpt lat="64.97142" lon="11.8059">
        <ele>103.37973</ele>
        <time>2020-08-12T09:19:55.736Z</time>
      </trkpt>
      <trkpt lat="64.97313" lon="11.803">
        <ele>93.181152</ele>
        <time>2020-08-12T09:20:18.747Z</time>
      </trkpt>
      <trkpt lat="64.97423" lon="11.79934">
        <ele>82.798294</ele>
        <time>2020-08-12T09:20:40.738Z</time>
      </trkpt>
      <trkpt lat="64.97604" lon="11.79772">
        <ele>71.524198</ele>
        <time>2020-08-12T09:21:01.734Z</time>
      </trkpt>
      <trkpt lat="64.97805" lon="11.79941">
        <ele>62.832544</ele>
        <time>2020-08-12T09:21:23.750Z</time>
      </trkpt>
      <trkpt lat="64.98088" lon="11.79992">
        <ele>54.54319</ele>
        <time>2020-08-12T09:22:03.737Z</time>
      </trkpt>
      <trkpt lat="64.98252" lon="11.79649">
        <ele>59.194906</ele>
        <time>2020-08-12T09:23:02.784Z</time>
      </trkpt>
      <trkpt lat="64.98215" lon="11.79083">
        <ele>61.444561</ele>
        <time>2020-08-12T09:24:05.745Z</time>
      </trkpt>
      <trkpt lat="64.98182" lon="11.78588">
        <ele>66.527299</ele>
        <time>2020-08-12T09:25:34.782Z</time>
      </trkpt>
      <trkpt lat="64.98097" lon="11.78011">
        <ele>62.723768</ele>
        <time>2020-08-12T09:26:33.754Z</time>
      </trkpt>
      <trkpt lat="64.98022" lon="11.77518">
        <ele>50.003909</ele>
        <time>2020-08-12T09:26:56.746Z</time>
      </trkpt>
      <trkpt lat="64.98059" lon="11.76976">
        <ele>45.864044</ele>
        <time>2020-08-12T09:27:32.748Z</time>
      </trkpt>
      <trkpt lat="64.98234" lon="11.7663">
        <ele>48.179508</ele>
        <time>2020-08-12T09:28:38.749Z</time>
      </trkpt>
      <trkpt lat="64.98361" lon="11.76156">
        <ele>52.795798</ele>
        <time>2020-08-12T09:29:35.748Z</time>
      </trkpt>
      <trkpt lat="64.98494" lon="11.75849">
        <ele>66.214535</ele>
        <time>2020-08-12T09:31:22.764Z</time>
      </trkpt>
      <trkpt lat="64.9867" lon="11.75993">
        <ele>75.352791</ele>
        <time>2020-08-12T09:33:33.729Z</time>
      </trkpt>
      <trkpt lat="64.98739" lon="11.76454">
        <ele>89.883631</ele>
        <time>2020-08-12T09:35:48.771Z</time>
      </trkpt>
      <trkpt lat="64.98873" lon="11.76801">
        <ele>102.27416</ele>
        <time>2020-08-12T09:38:01.764Z</time>
      </trkpt>
      <trkpt lat="64.98968" lon="11.77224">
        <ele>113.995282</ele>
        <time>2020-08-12T09:40:02.757Z</time>
      </trkpt>
      <trkpt lat="64.99057" lon="11.77699">
        <ele>117.579749</ele>
        <time>2020-08-12T09:41:42.755Z</time>
      </trkpt>
      <trkpt lat="64.99081" lon="11.78242">
        <ele>109.100243</ele>
        <time>2020-08-12T09:42:28.772Z</time>
      </trkpt>
      <trkpt lat="64.99048" lon="11.78802">
        <ele>91.913594</ele>
        <time>2020-08-12T09:42:54.798Z</time>
      </trkpt>
      <trkpt lat="64.99216" lon="11.79187">
        <ele>76.711062</ele>
        <time>2020-08-12T09:43:17.778Z</time>
      </trkpt>
      <trkpt lat="64.99396" lon="11.79525">
        <ele>68.290615</ele>
        <time>2020-08-12T09:43:48.742Z</time>
      </trkpt>
      <trkpt lat="64.99601" lon="11.79819">
        <ele>67.385156</ele>
        <time>2020-08-12T09:44:30.753Z</time>
      </trkpt>
      <trkpt lat="64.99886" lon="11.79894">
        <ele>54.376213</ele>
        <time>2020-08-12T09:45:06.768Z</time>
      </trkpt>
      <trkpt lat="65.001" lon="11.79723">
        <ele>58.079538</ele>
        <time>2020-08-12T09:46:15.756Z</time>
      </trkpt>
      <trkpt lat="65.00289" lon="11.79805">
        <ele>67.060022</ele>
        <time>2020-08-12T09:49:21.742Z</time>
      </trkpt>
      <trkpt lat="65.00483" lon="11.79842">
        <ele>82.218839</ele>
        <time>2020-08-12T09:51:51.754Z</time>
      </trkpt>
      <trkpt lat="65.00684" lon="11.8021">
        <ele>78.893613</ele>
        <time>2020-08-12T09:53:12.754Z</time>
      </trkpt>
      <trkpt lat="65.00916" lon="11.80553">
        <ele>59.700765</ele>
        <time>2020-08-12T09:53:35.757Z</time>
      </trkpt>
      <trkpt lat="65.01096" lon="11.80917">
        <ele>47.239999</ele>
        <time>2020-08-12T09:54:01.735Z</time>
      </trkpt>
      <trkpt lat="65.01219" lon="11.81377">
        <ele>50.750733</ele>
        <time>2020-08-12T09:55:04.759Z</time>
      </trkpt>
      <trkpt lat="65.01413" lon="11.81855">
        <ele>46.905405</ele>
        <time>2020-08-12T09:55:53.735Z</time>
      </trkpt>
      <trkpt lat="65.01551" lon="11.82313">
        <ele>55.325941</ele>
        <time>2020-08-12T09:56:49.739Z</time>
      </trkpt>
      <trkpt lat="65.0167" lon="11.82696">
        <ele>69.812495</ele>
        <time>2020-08-12T09:58:58.751Z</time>
      </trkpt>
      <trkpt lat="65.01747" lon="11.83212">
        <ele>63.057489</ele>
        <time>2020-08-12T10:00:23.752Z</time>
      </trkpt>
      <trkpt lat="65.01864" lon="11.83714">
        <ele>58.397752</ele>
        <time>2020-08-12T10:01:04.766Z</time>
      </trkpt>
      <trkpt lat="65.02015" lon="11.84083">
        <ele>56.732711</ele>
        <time>2020-08-12T10:01:46.769Z</time>
      </trkpt>
      <trkpt lat="65.02198" lon="11.84366">
        <ele>70.394746</ele>
        <time>2020-08-12T10:03:48.741Z</time>
      </trkpt>
      <trkpt lat="65.02382" lon="11.84736">
        <ele>69.730783</ele>
        <time>2020-08-12T10:05:07.757Z</time>
      </trkpt>
      <trkpt lat="65.02602" lon="11.85159">
        <ele>63.507186</ele>
        <time>2020-08-12T10:05:47.756Z</time>
      </trkpt>
      <trkpt lat="65.02792" lon="11.85524">
        <ele>62.292554</ele>
        <time>2020-08-12T10:06:38.755Z</time>
      </trkpt>
      <trkpt lat="65.02976" lon="11.85881">
        <ele>56.375018</ele>
        <time>2020-08-12T10:07:26.753Z</time>
      </trkpt>
      <trkpt lat="65.03173" lon="11.86271">
        <ele>54.019725</ele>
        <time>2020-08-12T10:08:14.777Z</time>
      </trkpt>
      <trkpt lat="65.03355" lon="11.8663">
        <ele>57.02664</ele>
        <time>2020-08-12T10:09:11.753Z</time>
      </trkpt>
      <trkpt lat="65.03508" lon="11.86996">
        <ele>63.693365</ele>
        <time>2020-08-12T10:10:32.772Z</time>
      </trkpt>
      <trkpt lat="65.03625" lon="11.87405">
        <ele>66.374499</ele>
        <time>2020-08-12T10:11:49.745Z</time>
      </trkpt>
      <trkpt lat="65.03786" lon="11.87814">
        <ele>71.590691</ele>
        <time>2020-08-12T10:13:09.753Z</time>
      </trkpt>
      <trkpt lat="65.03927" lon="11.88182">
        <ele>76.440852</ele>
        <time>2020-08-12T10:14:51.746Z</time>
      </trkpt>
      <trkpt lat="65.04105" lon="11.88647">
        <ele>69.505945</ele>
        <time>2020-08-12T10:15:33.749Z</time>
      </trkpt>
      <trkpt lat="65.04281" lon="11.8904">
        <ele>66.538612</ele>
        <time>2020-08-12T10:16:31.738Z</time>
      </trkpt>
      <trkpt lat="65.04446" lon="11.89335">
        <ele>77.125096</ele>
        <time>2020-08-12T10:18:08.762Z</time>
      </trkpt>
      <trkpt lat="65.04674" lon="11.89433">
        <ele>72.899343</ele>
        <time>2020-08-12T10:19:04.774Z</time>
      </trkpt>
      <trkpt lat="65.04843" lon="11.89974">
        <ele>54.580367</ele>
        <time>2020-08-12T10:19:26.741Z</time>
      </trkpt>
      <trkpt lat="65.04975" lon="11.90502">
        <ele>46.6213</ele>
        <time>2020-08-12T10:20:06.765Z</time>
      </trkpt>
      <trkpt lat="65.05095" lon="11.90931">
        <ele>50.086468</ele>
        <time>2020-08-12T10:21:03.739Z</time>
      </trkpt>
      <trkpt lat="65.05266" lon="11.91285">
        <ele>52.970216</ele>
        <time>2020-08-12T10:22:17.748Z</time>
      </trkpt>
      <trkpt lat="65.05419" lon="11.91662">
        <ele>61.943738</ele>
        <time>2020-08-12T10:23:32.753Z</time>
      </trkpt>
      <trkpt lat="65.05551" lon="11.92028">
        <ele>75.362544</ele>
        <time>2020-08-12T10:25:50.769Z</time>
      </trkpt>
      <trkpt lat="65.05657" lon="11.92454">
        <ele>82.956254</ele>
        <time>2020-08-12T10:38:01.784Z</time>
      </trkpt>
      <trkpt lat="65.05641" lon="11.93008">
        <ele>74.72017</ele>
        <time>2020-08-12T10:38:27.764Z</time>
      </trkpt>
      <trkpt lat="65.05743" lon="11.93519">
        <ele>57.375703</ele>
        <time>2020-08-12T10:38:48.767Z</time>
      </trkpt>
      <trkpt lat="65.0588" lon="11.93958">
        <ele>42.100373</ele>
        <time>2020-08-12T10:39:24.757Z</time>
      </trkpt>
      <trkpt lat="65.05914" lon="11.94476">
        <ele>51.759474</ele>
        <time>2020-08-12T10:40:27.749Z</time>
      </trkpt>
      <trkpt lat="65.05915" lon="11.95079">
        <ele>46.27144</ele>
        <time>2020-08-12T10:41:10.749Z</time>
      </trkpt>
      <trkpt lat="65.06131" lon="11.95375">
        <ele>40.72819</ele>
        <time>2020-08-12T10:41:54.742Z</time>
      </trkpt>
      <trkpt lat="65.0637" lon="11.95437">
        <ele>40.527337</ele>
        <time>2020-08-12T10:42:54.738Z</time>
      </trkpt>
      <trkpt lat="65.0659" lon="11.9528">
        <ele>45.437157</ele>
        <time>2020-08-12T10:43:57.748Z</time>
      </trkpt>
      <trkpt lat="65.068" lon="11.95108">
        <ele>53.325536</ele>
        <time>2020-08-12T10:45:27.765Z</time>
      </trkpt>
      <trkpt lat="65.0706" lon="11.95032">
        <ele>46.945199</ele>
        <time>2020-08-12T10:46:22.773Z</time>
      </trkpt>
      <trkpt lat="65.07284" lon="11.95265">
        <ele>41.933253</ele>
        <time>2020-08-12T10:47:09.749Z</time>
      </trkpt>
      <trkpt lat="65.07477" lon="11.95508">
        <ele>52.266103</ele>
        <time>2020-08-12T10:48:39.760Z</time>
      </trkpt>
      <trkpt lat="65.07521" lon="11.95987">
        <ele>65.484218</ele>
        <time>2020-08-12T10:50:31.783Z</time>
      </trkpt>
      <trkpt lat="65.07642" lon="11.96422">
        <ele>78.896651</ele>
        <time>2020-08-12T10:52:22.749Z</time>
      </trkpt>
      <trkpt lat="65.07756" lon="11.9683">
        <ele>89.010757</ele>
        <time>2020-08-12T10:54:15.763Z</time>
      </trkpt>
      <trkpt lat="65.0785" lon="11.97303">
        <ele>90.917728</ele>
        <time>2020-08-12T10:55:44.822Z</time>
      </trkpt>
      <trkpt lat="65.07945" lon="11.97767">
        <ele>98.781266</ele>
        <time>2020-08-12T10:57:36.751Z</time>
      </trkpt>
      <trkpt lat="65.08037" lon="11.98211">
        <ele>108.902209</ele>
        <time>2020-08-12T10:59:30.770Z</time>
      </trkpt>
      <trkpt lat="65.08141" lon="11.98713">
        <ele>98.379197</ele>
        <time>2020-08-12T11:00:03.745Z</time>
      </trkpt>
      <trkpt lat="65.0824" lon="11.99223">
        <ele>92.212138</ele>
        <time>2020-08-12T11:00:37.753Z</time>
      </trkpt>
      <trkpt lat="65.08345" lon="11.99712">
        <ele>96.823999</ele>
        <time>2020-08-12T11:01:37.764Z</time>
      </trkpt>
      <trkpt lat="65.08448" lon="12.00235">
        <ele>94.765909</ele>
        <time>2020-08-12T11:02:35.745Z</time>
      </trkpt>
      <trkpt lat="65.08554" lon="12.00758">
        <ele>100.390387</ele>
        <time>2020-08-12T11:03:34.753Z</time>
      </trkpt>
      <trkpt lat="65.08645" lon="12.0121">
        <ele>104.843004</ele>
        <time>2020-08-12T11:04:58.755Z</time>
      </trkpt>
      <trkpt lat="65.0873" lon="12.01795">
        <ele>97.70686</ele>
        <time>2020-08-12T11:05:49.751Z</time>
      </trkpt>
      <trkpt lat="65.08647" lon="12.02533">
        <ele>77.449953</ele>
        <time>2020-08-12T11:06:35.782Z</time>
      </trkpt>
      <trkpt lat="65.08549" lon="12.03096">
        <ele>66.499548</ele>
        <time>2020-08-12T11:07:08.764Z</time>
      </trkpt>
      <trkpt lat="65.08336" lon="12.03378">
        <ele>66.885594</ele>
        <time>2020-08-12T11:08:01.770Z</time>
      </trkpt>
      <trkpt lat="65.081" lon="12.03485">
        <ele>59.750664</ele>
        <time>2020-08-12T11:08:24.790Z</time>
      </trkpt>
      <trkpt lat="65.07894" lon="12.03769">
        <ele>54.781788</ele>
        <time>2020-08-12T11:08:53.747Z</time>
      </trkpt>
      <trkpt lat="65.07686" lon="12.03889">
        <ele>61.811212</ele>
        <time>2020-08-12T11:10:15.753Z</time>
      </trkpt>
      <trkpt lat="65.07554" lon="12.04327">
        <ele>60.338455</ele>
        <time>2020-08-12T11:11:29.774Z</time>
      </trkpt>
      <trkpt lat="65.07561" lon="12.04875">
        <ele>47.011112</ele>
        <time>2020-08-12T11:11:59.748Z</time>
      </trkpt>
      <trkpt lat="65.07585" lon="12.05463">
        <ele>45.763871</ele>
        <time>2020-08-12T11:12:55.738Z</time>
      </trkpt>
      <trkpt lat="65.07604" lon="12.06023">
        <ele>49.700213</ele>
        <time>2020-08-12T11:14:09.741Z</time>
      </trkpt>
      <trkpt lat="65.07699" lon="12.06512">
        <ele>50.786321</ele>
        <time>2020-08-12T11:15:09.794Z</time>
      </trkpt>
      <trkpt lat="65.0778" lon="12.07025">
        <ele>50.837443</ele>
        <time>2020-08-12T11:16:04.754Z</time>
      </trkpt>
      <trkpt lat="65.07725" lon="12.07522">
        <ele>51.14817</ele>
        <time>2020-08-12T11:17:16.743Z</time>
      </trkpt>
      <trkpt lat="65.07644" lon="12.07991">
        <ele>64.000599</ele>
        <time>2020-08-12T11:19:03.765Z</time>
      </trkpt>
      <trkpt lat="65.07591" lon="12.08469">
        <ele>69.292215</ele>
        <time>2020-08-12T11:20:41.772Z</time>
      </trkpt>
      <trkpt lat="65.07656" lon="12.08953">
        <ele>74.392227</ele>
        <time>2020-08-12T11:22:19.754Z</time>
      </trkpt>
      <trkpt lat="65.07802" lon="12.09264">
        <ele>92.412793</ele>
        <time>2020-08-12T11:24:19.791Z</time>
      </trkpt>
      <trkpt lat="65.08002" lon="12.09141">
        <ele>111.277548</ele>
        <time>2020-08-12T11:26:31.756Z</time>
      </trkpt>
      <trkpt lat="65.08192" lon="12.08885">
        <ele>125.29346</ele>
        <time>2020-08-12T11:28:53.788Z</time>
      </trkpt>
      <trkpt lat="65.08397" lon="12.08857">
        <ele>137.01596</ele>
        <time>2020-08-12T11:31:00.753Z</time>
      </trkpt>
      <trkpt lat="65.08588" lon="12.08664">
        <ele>143.846012</ele>
        <time>2020-08-12T11:32:34.765Z</time>
      </trkpt>
      <trkpt lat="65.08762" lon="12.0835">
        <ele>150.581054</ele>
        <time>2020-08-12T11:34:13.806Z</time>
      </trkpt>
      <trkpt lat="65.08962" lon="12.0837">
        <ele>154.695847</ele>
        <time>2020-08-12T11:35:45.746Z</time>
      </trkpt>
      <trkpt lat="65.09156" lon="12.08603">
        <ele>155.583432</ele>
        <time>2020-08-12T11:36:59.749Z</time>
      </trkpt>
      <trkpt lat="65.09379" lon="12.08682">
        <ele>161.747517</ele>
        <time>2020-08-12T11:38:03.761Z</time>
      </trkpt>
      <trkpt lat="65.09591" lon="12.08722">
        <ele>158.74086</ele>
        <time>2020-08-12T11:38:45.774Z</time>
      </trkpt>
      <trkpt lat="65.098" lon="12.08887">
        <ele>153.268573</ele>
        <time>2020-08-12T11:39:34.774Z</time>
      </trkpt>
      <trkpt lat="65.1" lon="12.09215">
        <ele>144.626149</ele>
        <time>2020-08-12T11:40:18.766Z</time>
      </trkpt>
      <trkpt lat="65.10297" lon="12.09273">
        <ele>140.194102</ele>
        <time>2020-08-12T11:41:00.811Z</time>
      </trkpt>
      <trkpt lat="65.10492" lon="12.09132">
        <ele>147.909509</ele>
        <time>2020-08-12T11:42:11.787Z</time>
      </trkpt>
      <trkpt lat="65.10682" lon="12.09183">
        <ele>147.445479</ele>
        <time>2020-08-12T11:43:35.778Z</time>
      </trkpt>
      <trkpt lat="65.10761" lon="12.09743">
        <ele>133.958956</ele>
        <time>2020-08-12T11:44:00.769Z</time>
      </trkpt>
      <trkpt lat="65.10945" lon="12.10212">
        <ele>110.489206</ele>
        <time>2020-08-12T11:44:21.767Z</time>
      </trkpt>
      <trkpt lat="65.11199" lon="12.10569">
        <ele>89.068552</ele>
        <time>2020-08-12T11:44:43.774Z</time>
      </trkpt>
      <trkpt lat="65.11418" lon="12.11019">
        <ele>66.796267</ele>
        <time>2020-08-12T11:45:04.762Z</time>
      </trkpt>
      <trkpt lat="65.11577" lon="12.11606">
        <ele>45.905641</ele>
        <time>2020-08-12T11:45:26.757Z</time>
      </trkpt>
      <trkpt lat="65.11655" lon="12.12161">
        <ele>51.301778</ele>
        <time>2020-08-12T11:46:33.770Z</time>
      </trkpt>
      <trkpt lat="65.12032" lon="12.13517">
        <ele>54.00347</ele>
        <time>2020-08-12T11:49:48.759Z</time>
      </trkpt>
      <trkpt lat="65.12161" lon="12.13978">
        <ele>61.133389</ele>
        <time>2020-08-12T11:51:15.806Z</time>
      </trkpt>
      <trkpt lat="65.12188" lon="12.14575">
        <ele>53.663649</ele>
        <time>2020-08-12T11:51:50.762Z</time>
      </trkpt>
      <trkpt lat="65.12184" lon="12.15159">
        <ele>44.082751</ele>
        <time>2020-08-12T11:52:16.753Z</time>
      </trkpt>
      <trkpt lat="65.12169" lon="12.15764">
        <ele>42.949834</ele>
        <time>2020-08-12T11:53:02.769Z</time>
      </trkpt>
      <trkpt lat="65.12154" lon="12.16369">
        <ele>44.368356</ele>
        <time>2020-08-12T11:53:56.763Z</time>
      </trkpt>
      <trkpt lat="65.12112" lon="12.16918">
        <ele>49.39503</ele>
        <time>2020-08-12T11:54:40.785Z</time>
      </trkpt>
      <trkpt lat="65.12323" lon="12.1672">
        <ele>50.030419</ele>
        <time>2020-08-12T11:55:39.782Z</time>
      </trkpt>
      <trkpt lat="65.12526" lon="12.16438">
        <ele>52.316372</ele>
        <time>2020-08-12T11:56:29.793Z</time>
      </trkpt>
      <trkpt lat="65.12726" lon="12.16032">
        <ele>64.436145</ele>
        <time>2020-08-12T11:58:34.767Z</time>
      </trkpt>
      <trkpt lat="65.12853" lon="12.15555">
        <ele>45.478327</ele>
        <time>2020-08-12T11:59:07.766Z</time>
      </trkpt>
      <trkpt lat="65.12746" lon="12.15014">
        <ele>43.547291</ele>
        <time>2020-08-12T11:59:56.797Z</time>
      </trkpt>
      <trkpt lat="65.12663" lon="12.14511">
        <ele>51.25458</ele>
        <time>2020-08-12T12:01:01.807Z</time>
      </trkpt>
      <trkpt lat="65.12572" lon="12.14035">
        <ele>57.103123</ele>
        <time>2020-08-12T12:02:13.769Z</time>
      </trkpt>
      <trkpt lat="65.1254" lon="12.13534">
        <ele>62.810361</ele>
        <time>2020-08-12T12:03:24.786Z</time>
      </trkpt>
      <trkpt lat="65.12484" lon="12.13055">
        <ele>68.883734</ele>
        <time>2020-08-12T12:05:06.761Z</time>
      </trkpt>
      <trkpt lat="65.12461" lon="12.12525">
        <ele>77.740066</ele>
        <time>2020-08-12T12:06:56.753Z</time>
      </trkpt>
      <trkpt lat="65.12427" lon="12.12044">
        <ele>83.32015</ele>
        <time>2020-08-12T12:08:05.796Z</time>
      </trkpt>
      <trkpt lat="65.12826" lon="12.11624">
        <ele>66.315873</ele>
        <time>2020-08-12T12:10:03.785Z</time>
      </trkpt>
      <trkpt lat="65.13058" lon="12.11823">
        <ele>65.265052</ele>
        <time>2020-08-12T12:10:39.757Z</time>
      </trkpt>
      <trkpt lat="65.13292" lon="12.11785">
        <ele>62.795845</ele>
        <time>2020-08-12T12:11:33.781Z</time>
      </trkpt>
      <trkpt lat="65.13532" lon="12.11716">
        <ele>61.090318</ele>
        <time>2020-08-12T12:12:16.757Z</time>
      </trkpt>
      <trkpt lat="65.13768" lon="12.11679">
        <ele>64.750335</ele>
        <time>2020-08-12T12:13:30.768Z</time>
      </trkpt>
      <trkpt lat="65.14075" lon="12.11775">
        <ele>49.671527</ele>
        <time>2020-08-12T12:14:13.794Z</time>
      </trkpt>
      <trkpt lat="65.1435" lon="12.11737">
        <ele>43.648139</ele>
        <time>2020-08-12T12:14:55.757Z</time>
      </trkpt>
      <trkpt lat="65.1457" lon="12.11605">
        <ele>51.27271</ele>
        <time>2020-08-12T12:16:11.791Z</time>
      </trkpt>
      <trkpt lat="65.14796" lon="12.11574">
        <ele>46.847516</ele>
        <time>2020-08-12T12:17:02.776Z</time>
      </trkpt>
      <trkpt lat="65.15028" lon="12.11586">
        <ele>43.978299</ele>
        <time>2020-08-12T12:17:44.756Z</time>
      </trkpt>
      <trkpt lat="65.1523" lon="12.11799">
        <ele>45.7083</ele>
        <time>2020-08-12T12:18:32.784Z</time>
      </trkpt>
      <trkpt lat="65.15442" lon="12.12002">
        <ele>46.994997</ele>
        <time>2020-08-12T12:19:33.801Z</time>
      </trkpt>
      <trkpt lat="65.15681" lon="12.12106">
        <ele>47.671583</ele>
        <time>2020-08-12T12:20:22.784Z</time>
      </trkpt>
      <trkpt lat="65.15894" lon="12.12039">
        <ele>44.787321</ele>
        <time>2020-08-12T12:21:11.767Z</time>
      </trkpt>
      <trkpt lat="65.16107" lon="12.11865">
        <ele>48.545255</ele>
        <time>2020-08-12T12:22:04.767Z</time>
      </trkpt>
      <trkpt lat="65.16334" lon="12.11843">
        <ele>46.679618</ele>
        <time>2020-08-12T12:23:00.754Z</time>
      </trkpt>
      <trkpt lat="65.16583" lon="12.11798">
        <ele>45.712139</ele>
        <time>2020-08-12T12:24:06.757Z</time>
      </trkpt>
      <trkpt lat="65.16792" lon="12.11701">
        <ele>43.980406</ele>
        <time>2020-08-12T12:25:03.773Z</time>
      </trkpt>
      <trkpt lat="65.17008" lon="12.11583">
        <ele>43.145894</ele>
        <time>2020-08-12T12:25:55.806Z</time>
      </trkpt>
      <trkpt lat="65.17253" lon="12.11578">
        <ele>44.719452</ele>
        <time>2020-08-12T12:27:01.766Z</time>
      </trkpt>
      <trkpt lat="65.17462" lon="12.1167">
        <ele>42.491112</ele>
        <time>2020-08-12T12:28:01.782Z</time>
      </trkpt>
      <trkpt lat="65.17666" lon="12.11893">
        <ele>45.799966</ele>
        <time>2020-08-12T12:29:01.768Z</time>
      </trkpt>
      <trkpt lat="65.17876" lon="12.12116">
        <ele>47.97185</ele>
        <time>2020-08-12T12:30:07.766Z</time>
      </trkpt>
      <trkpt lat="65.18066" lon="12.1232">
        <ele>52.594944</ele>
        <time>2020-08-12T12:31:12.751Z</time>
      </trkpt>
      <trkpt lat="65.18285" lon="12.12438">
        <ele>55.183069</ele>
        <time>2020-08-12T12:32:26.757Z</time>
      </trkpt>
      <trkpt lat="65.1845" lon="12.12014">
        <ele>49.842597</ele>
        <time>2020-08-12T12:33:14.758Z</time>
      </trkpt>
      <trkpt lat="65.18342" lon="12.11434">
        <ele>44.043795</ele>
        <time>2020-08-12T12:33:56.774Z</time>
      </trkpt>
      <trkpt lat="65.18103" lon="12.10842">
        <ele>43.971004</ele>
        <time>2020-08-12T12:47:25.776Z</time>
      </trkpt>
      <trkpt lat="65.18225" lon="12.10159">
        <ele>43.72728</ele>
        <time>2020-08-12T12:48:27.780Z</time>
      </trkpt>
      <trkpt lat="65.18394" lon="12.09791">
        <ele>39.757251</ele>
        <time>2020-08-12T12:49:09.763Z</time>
      </trkpt>
      <trkpt lat="65.18573" lon="12.094">
        <ele>38.861098</ele>
        <time>2020-08-12T12:49:55.767Z</time>
      </trkpt>
      <trkpt lat="65.1875" lon="12.09029">
        <ele>35.00961</ele>
        <time>2020-08-12T12:50:37.773Z</time>
      </trkpt>
      <trkpt lat="65.18923" lon="12.08642">
        <ele>38.171384</ele>
        <time>2020-08-12T12:51:19.787Z</time>
      </trkpt>
      <trkpt lat="65.19117" lon="12.08239">
        <ele>43.549515</ele>
        <time>2020-08-12T12:52:03.778Z</time>
      </trkpt>
      <trkpt lat="65.19287" lon="12.07865">
        <ele>40.452732</ele>
        <time>2020-08-12T12:52:45.772Z</time>
      </trkpt>
      <trkpt lat="65.19467" lon="12.07484">
        <ele>39.704317</ele>
        <time>2020-08-12T12:53:27.786Z</time>
      </trkpt>
      <trkpt lat="65.19649" lon="12.07096">
        <ele>42.152998</ele>
        <time>2020-08-12T12:54:11.774Z</time>
      </trkpt>
      <trkpt lat="65.1983" lon="12.06679">
        <ele>42.535356</ele>
        <time>2020-08-12T12:54:55.753Z</time>
      </trkpt>
      <trkpt lat="65.20014" lon="12.06306">
        <ele>41.297646</ele>
        <time>2020-08-12T12:55:40.753Z</time>
      </trkpt>
      <trkpt lat="65.2025" lon="12.05814">
        <ele>43.825827</ele>
        <time>2020-08-12T12:56:33.752Z</time>
      </trkpt>
      <trkpt lat="65.20513" lon="12.05259">
        <ele>27.211227</ele>
        <time>2020-08-12T12:57:33.749Z</time>
      </trkpt>
      <trkpt lat="65.20758" lon="12.0486">
        <ele>29.781728</ele>
        <time>2020-08-12T12:58:30.781Z</time>
      </trkpt>
      <trkpt lat="65.20975" lon="12.04561">
        <ele>31.162963</ele>
        <time>2020-08-12T12:59:23.765Z</time>
      </trkpt>
      <trkpt lat="65.21613" lon="12.04074">
        <ele>35.762128</ele>
        <time>2020-08-12T13:06:53.264Z</time>
      </trkpt>
      <trkpt lat="65.21536" lon="12.04277">
        <ele>39.727855</ele>
        <time>2020-08-12T13:09:37.246Z</time>
      </trkpt>
    </trkseg>
  </trk>
  <trk>
    <name><![CDATA[Tour d'Europe: étape 046]]></name>
    <trkseg>
      <trkpt lat="65.21612" lon="12.04282">
        <ele>39.349632</ele>
        <time>2020-08-13T06:49:16.812Z</time>
      </trkpt>
      <trkpt lat="65.21776" lon="12.04606">
        <ele>48.898366</ele>
        <time>2020-08-13T06:50:32.810Z</time>
      </trkpt>
      <trkpt lat="65.21899" lon="12.05015">
        <ele>47.242442</ele>
        <time>2020-08-13T06:51:16.842Z</time>
      </trkpt>
      <trkpt lat="65.22085" lon="12.0525">
        <ele>48.149912</ele>
        <time>2020-08-13T06:52:07.828Z</time>
      </trkpt>
      <trkpt lat="65.22128" lon="12.05782">
        <ele>42.294354</ele>
        <time>2020-08-13T06:52:47.802Z</time>
      </trkpt>
      <trkpt lat="65.22188" lon="12.06262">
        <ele>44.375446</ele>
        <time>2020-08-13T06:53:27.806Z</time>
      </trkpt>
      <trkpt lat="65.22339" lon="12.06535">
        <ele>45.451212</ele>
        <time>2020-08-13T06:54:07.819Z</time>
      </trkpt>
      <trkpt lat="65.22537" lon="12.06723">
        <ele>47.157843</ele>
        <time>2020-08-13T06:54:53.806Z</time>
      </trkpt>
      <trkpt lat="65.22704" lon="12.07071">
        <ele>54.291179</ele>
        <time>2020-08-13T06:55:56.833Z</time>
      </trkpt>
      <trkpt lat="65.22847" lon="12.07425">
        <ele>59.782861</ele>
        <time>2020-08-13T06:57:07.826Z</time>
      </trkpt>
      <trkpt lat="65.23036" lon="12.07665">
        <ele>53.333833</ele>
        <time>2020-08-13T06:57:47.841Z</time>
      </trkpt>
      <trkpt lat="65.23098" lon="12.08201">
        <ele>43.850196</ele>
        <time>2020-08-13T06:58:20.815Z</time>
      </trkpt>
      <trkpt lat="65.23139" lon="12.08668">
        <ele>47.575115</ele>
        <time>2020-08-13T06:59:27.818Z</time>
      </trkpt>
      <trkpt lat="65.23276" lon="12.09106">
        <ele>48.718625</ele>
        <time>2020-08-13T07:00:13.846Z</time>
      </trkpt>
      <trkpt lat="65.23448" lon="12.09367">
        <ele>46.517993</ele>
        <time>2020-08-13T07:00:53.819Z</time>
      </trkpt>
      <trkpt lat="65.2355" lon="12.0981">
        <ele>46.953277</ele>
        <time>2020-08-13T07:01:42.809Z</time>
      </trkpt>
      <trkpt lat="65.2362" lon="12.10283">
        <ele>45.3229</ele>
        <time>2020-08-13T07:02:25.833Z</time>
      </trkpt>
      <trkpt lat="65.2381" lon="12.10557">
        <ele>47.935049</ele>
        <time>2020-08-13T07:03:19.813Z</time>
      </trkpt>
      <trkpt lat="65.23867" lon="12.11054">
        <ele>55.995463</ele>
        <time>2020-08-13T07:04:26.798Z</time>
      </trkpt>
      <trkpt lat="65.23933" lon="12.11562">
        <ele>56.958259</ele>
        <time>2020-08-13T07:05:16.808Z</time>
      </trkpt>
      <trkpt lat="65.24099" lon="12.1185">
        <ele>47.811507</ele>
        <time>2020-08-13T07:05:56.833Z</time>
      </trkpt>
      <trkpt lat="65.24286" lon="12.12143">
        <ele>47.650245</ele>
        <time>2020-08-13T07:06:51.827Z</time>
      </trkpt>
      <trkpt lat="65.24489" lon="12.12246">
        <ele>47.180715</ele>
        <time>2020-08-13T07:07:31.812Z</time>
      </trkpt>
      <trkpt lat="65.24701" lon="12.12277">
        <ele>47.036011</ele>
        <time>2020-08-13T07:08:11.804Z</time>
      </trkpt>
      <trkpt lat="65.24914" lon="12.12243">
        <ele>51.567349</ele>
        <time>2020-08-13T07:09:14.823Z</time>
      </trkpt>
      <trkpt lat="65.25122" lon="12.12254">
        <ele>52.179534</ele>
        <time>2020-08-13T07:10:08.822Z</time>
      </trkpt>
      <trkpt lat="65.25301" lon="12.125">
        <ele>50.126768</ele>
        <time>2020-08-13T07:10:48.847Z</time>
      </trkpt>
      <trkpt lat="65.25509" lon="12.12725">
        <ele>50.264333</ele>
        <time>2020-08-13T07:11:39.809Z</time>
      </trkpt>
      <trkpt lat="65.25573" lon="12.13189">
        <ele>52.023533</ele>
        <time>2020-08-13T07:12:45.800Z</time>
      </trkpt>
      <trkpt lat="65.25641" lon="12.13681">
        <ele>51.128504</ele>
        <time>2020-08-13T07:13:38.802Z</time>
      </trkpt>
      <trkpt lat="65.25869" lon="12.13939">
        <ele>47.63397</ele>
        <time>2020-08-13T07:14:18.831Z</time>
      </trkpt>
      <trkpt lat="65.26046" lon="12.14154">
        <ele>47.11443</ele>
        <time>2020-08-13T07:14:59.808Z</time>
      </trkpt>
      <trkpt lat="65.26247" lon="12.1442">
        <ele>51.388201</ele>
        <time>2020-08-13T07:15:58.814Z</time>
      </trkpt>
      <trkpt lat="65.26445" lon="12.14525">
        <ele>56.89507</ele>
        <time>2020-08-13T07:17:08.801Z</time>
      </trkpt>
      <trkpt lat="65.2666" lon="12.14554">
        <ele>62.442081</ele>
        <time>2020-08-13T07:18:27.811Z</time>
      </trkpt>
      <trkpt lat="65.26876" lon="12.14576">
        <ele>65.891454</ele>
        <time>2020-08-13T07:19:42.814Z</time>
      </trkpt>
      <trkpt lat="65.2709" lon="12.14542">
        <ele>64.736826</ele>
        <time>2020-08-13T07:20:38.817Z</time>
      </trkpt>
      <trkpt lat="65.27318" lon="12.14544">
        <ele>61.716424</ele>
        <time>2020-08-13T07:21:07.868Z</time>
      </trkpt>
      <trkpt lat="65.27564" lon="12.14674">
        <ele>55.18233</ele>
        <time>2020-08-13T07:21:59.817Z</time>
      </trkpt>
      <trkpt lat="65.27793" lon="12.14796">
        <ele>51.653602</ele>
        <time>2020-08-13T07:22:42.835Z</time>
      </trkpt>
      <trkpt lat="65.28024" lon="12.14894">
        <ele>51.536819</ele>
        <time>2020-08-13T07:23:22.835Z</time>
      </trkpt>
      <trkpt lat="65.28232" lon="12.15001">
        <ele>56.882844</ele>
        <time>2020-08-13T07:24:22.821Z</time>
      </trkpt>
      <trkpt lat="65.28437" lon="12.15147">
        <ele>58.372424</ele>
        <time>2020-08-13T07:25:22.828Z</time>
      </trkpt>
      <trkpt lat="65.28649" lon="12.15301">
        <ele>55.704299</ele>
        <time>2020-08-13T07:26:05.823Z</time>
      </trkpt>
      <trkpt lat="65.28844" lon="12.15445">
        <ele>54.765356</ele>
        <time>2020-08-13T07:26:45.847Z</time>
      </trkpt>
      <trkpt lat="65.29045" lon="12.15594">
        <ele>55.197317</ele>
        <time>2020-08-13T07:27:31.855Z</time>
      </trkpt>
      <trkpt lat="65.29268" lon="12.15758">
        <ele>57.358003</ele>
        <time>2020-08-13T07:28:31.810Z</time>
      </trkpt>
      <trkpt lat="65.29471" lon="12.15908">
        <ele>62.100801</ele>
        <time>2020-08-13T07:29:36.808Z</time>
      </trkpt>
      <trkpt lat="65.29676" lon="12.16058">
        <ele>65.633749</ele>
        <time>2020-08-13T07:30:39.861Z</time>
      </trkpt>
      <trkpt lat="65.29912" lon="12.16207">
        <ele>58.579329</ele>
        <time>2020-08-13T07:31:21.807Z</time>
      </trkpt>
      <trkpt lat="65.30113" lon="12.16333">
        <ele>60.487794</ele>
        <time>2020-08-13T07:32:15.810Z</time>
      </trkpt>
      <trkpt lat="65.30326" lon="12.16466">
        <ele>61.164565</ele>
        <time>2020-08-13T07:33:03.821Z</time>
      </trkpt>
      <trkpt lat="65.30559" lon="12.16619">
        <ele>60.520642</ele>
        <time>2020-08-13T07:34:03.843Z</time>
      </trkpt>
      <trkpt lat="65.3076" lon="12.16721">
        <ele>58.005418</ele>
        <time>2020-08-13T07:34:44.830Z</time>
      </trkpt>
      <trkpt lat="65.30967" lon="12.16739">
        <ele>58.409846</ele>
        <time>2020-08-13T07:35:24.833Z</time>
      </trkpt>
      <trkpt lat="65.3119" lon="12.16746">
        <ele>62.570545</ele>
        <time>2020-08-13T07:36:11.830Z</time>
      </trkpt>
      <trkpt lat="65.31433" lon="12.16799">
        <ele>64.100485</ele>
        <time>2020-08-13T07:37:10.837Z</time>
      </trkpt>
      <trkpt lat="65.31651" lon="12.1692">
        <ele>59.20897</ele>
        <time>2020-08-13T07:38:01.815Z</time>
      </trkpt>
      <trkpt lat="65.31895" lon="12.17084">
        <ele>57.383923</ele>
        <time>2020-08-13T07:39:01.859Z</time>
      </trkpt>
      <trkpt lat="65.32125" lon="12.17234">
        <ele>57.887567</ele>
        <time>2020-08-13T07:39:59.845Z</time>
      </trkpt>
      <trkpt lat="65.32352" lon="12.17411">
        <ele>58.851137</ele>
        <time>2020-08-13T07:40:59.826Z</time>
      </trkpt>
      <trkpt lat="65.32579" lon="12.17601">
        <ele>61.289623</ele>
        <time>2020-08-13T07:41:58.817Z</time>
      </trkpt>
      <trkpt lat="65.32812" lon="12.17809">
        <ele>57.673008</ele>
        <time>2020-08-13T07:42:58.835Z</time>
      </trkpt>
      <trkpt lat="65.32989" lon="12.18075">
        <ele>56.173052</ele>
        <time>2020-08-13T07:43:48.810Z</time>
      </trkpt>
      <trkpt lat="65.33161" lon="12.18367">
        <ele>56.959168</ele>
        <time>2020-08-13T07:44:28.828Z</time>
      </trkpt>
      <trkpt lat="65.33361" lon="12.18714">
        <ele>58.78286</ele>
        <time>2020-08-13T07:45:26.824Z</time>
      </trkpt>
      <trkpt lat="65.33557" lon="12.19032">
        <ele>57.848824</ele>
        <time>2020-08-13T07:46:22.845Z</time>
      </trkpt>
      <trkpt lat="65.33779" lon="12.19274">
        <ele>51.811983</ele>
        <time>2020-08-13T07:47:08.821Z</time>
      </trkpt>
      <trkpt lat="65.34007" lon="12.19581">
        <ele>45.548738</ele>
        <time>2020-08-13T07:47:48.832Z</time>
      </trkpt>
      <trkpt lat="65.34129" lon="12.1937">
        <ele>45.381743</ele>
        <time>2020-08-13T07:48:28.819Z</time>
      </trkpt>
      <trkpt lat="65.34291" lon="12.19172">
        <ele>46.811707</ele>
        <time>2020-08-13T07:49:13.844Z</time>
      </trkpt>
      <trkpt lat="65.34499" lon="12.19122">
        <ele>51.117772</ele>
        <time>2020-08-13T07:50:06.842Z</time>
      </trkpt>
      <trkpt lat="65.34699" lon="12.19025">
        <ele>55.045491</ele>
        <time>2020-08-13T07:51:18.814Z</time>
      </trkpt>
      <trkpt lat="65.34874" lon="12.18792">
        <ele>67.660341</ele>
        <time>2020-08-13T07:52:55.817Z</time>
      </trkpt>
      <trkpt lat="65.35037" lon="12.18468">
        <ele>64.658953</ele>
        <time>2020-08-13T07:54:14.854Z</time>
      </trkpt>
      <trkpt lat="65.35159" lon="12.18067">
        <ele>74.809127</ele>
        <time>2020-08-13T07:55:33.844Z</time>
      </trkpt>
      <trkpt lat="65.35279" lon="12.17672">
        <ele>84.269755</ele>
        <time>2020-08-13T07:56:58.892Z</time>
      </trkpt>
      <trkpt lat="65.35465" lon="12.17453">
        <ele>86.057058</ele>
        <time>2020-08-13T07:58:23.828Z</time>
      </trkpt>
      <trkpt lat="65.35687" lon="12.17322">
        <ele>90.557004</ele>
        <time>2020-08-13T07:59:23.833Z</time>
      </trkpt>
      <trkpt lat="65.35929" lon="12.17401">
        <ele>82.971557</ele>
        <time>2020-08-13T08:00:12.822Z</time>
      </trkpt>
      <trkpt lat="65.36206" lon="12.17505">
        <ele>68.788254</ele>
        <time>2020-08-13T08:00:51.872Z</time>
      </trkpt>
      <trkpt lat="65.36366" lon="12.17144">
        <ele>50.161864</ele>
        <time>2020-08-13T08:01:16.827Z</time>
      </trkpt>
      <trkpt lat="65.36497" lon="12.17648">
        <ele>42.765944</ele>
        <time>2020-08-13T08:02:00.826Z</time>
      </trkpt>
      <trkpt lat="65.36611" lon="12.18144">
        <ele>47.88575</ele>
        <time>2020-08-13T08:03:00.825Z</time>
      </trkpt>
      <trkpt lat="65.36732" lon="12.18595">
        <ele>47.473756</ele>
        <time>2020-08-13T08:03:54.822Z</time>
      </trkpt>
      <trkpt lat="65.3676" lon="12.1913">
        <ele>50.703653</ele>
        <time>2020-08-13T08:04:59.826Z</time>
      </trkpt>
      <trkpt lat="65.36712" lon="12.19645">
        <ele>46.061096</ele>
        <time>2020-08-13T08:05:56.825Z</time>
      </trkpt>
      <trkpt lat="65.3688" lon="12.19711">
        <ele>52.091701</ele>
        <time>2020-08-13T08:08:01.829Z</time>
      </trkpt>
      <trkpt lat="65.37073" lon="12.19897">
        <ele>51.021448</ele>
        <time>2020-08-13T08:08:56.822Z</time>
      </trkpt>
      <trkpt lat="65.37288" lon="12.20119">
        <ele>47.382594</ele>
        <time>2020-08-13T08:09:47.829Z</time>
      </trkpt>
      <trkpt lat="65.37474" lon="12.20316">
        <ele>47.24229</ele>
        <time>2020-08-13T08:10:31.852Z</time>
      </trkpt>
      <trkpt lat="65.37702" lon="12.20371">
        <ele>48.170794</ele>
        <time>2020-08-13T08:11:26.846Z</time>
      </trkpt>
      <trkpt lat="65.37879" lon="12.20101">
        <ele>45.84537</ele>
        <time>2020-08-13T08:12:21.834Z</time>
      </trkpt>
      <trkpt lat="65.37991" lon="12.19723">
        <ele>47.195319</ele>
        <time>2020-08-13T08:13:23.823Z</time>
      </trkpt>
      <trkpt lat="65.38107" lon="12.19333">
        <ele>48.198338</ele>
        <time>2020-08-13T08:14:24.828Z</time>
      </trkpt>
      <trkpt lat="65.38242" lon="12.18874">
        <ele>49.346425</ele>
        <time>2020-08-13T08:15:23.840Z</time>
      </trkpt>
      <trkpt lat="65.38386" lon="12.18457">
        <ele>56.517063</ele>
        <time>2020-08-13T08:16:25.847Z</time>
      </trkpt>
      <trkpt lat="65.38559" lon="12.18167">
        <ele>63.588245</ele>
        <time>2020-08-13T08:17:41.828Z</time>
      </trkpt>
      <trkpt lat="65.38759" lon="12.17896">
        <ele>58.6653</ele>
        <time>2020-08-13T08:18:21.874Z</time>
      </trkpt>
      <trkpt lat="65.3899" lon="12.17621">
        <ele>55.218265</ele>
        <time>2020-08-13T08:19:01.821Z</time>
      </trkpt>
      <trkpt lat="65.3921" lon="12.17593">
        <ele>53.65205</ele>
        <time>2020-08-13T08:19:41.821Z</time>
      </trkpt>
      <trkpt lat="65.39406" lon="12.17734">
        <ele>50.128987</ele>
        <time>2020-08-13T08:20:21.843Z</time>
      </trkpt>
      <trkpt lat="65.39601" lon="12.17874">
        <ele>51.177608</ele>
        <time>2020-08-13T08:21:05.849Z</time>
      </trkpt>
      <trkpt lat="65.39793" lon="12.18017">
        <ele>51.948088</ele>
        <time>2020-08-13T08:21:48.834Z</time>
      </trkpt>
      <trkpt lat="65.40009" lon="12.18177">
        <ele>50.39776</ele>
        <time>2020-08-13T08:22:40.846Z</time>
      </trkpt>
      <trkpt lat="65.40203" lon="12.18343">
        <ele>46.614517</ele>
        <time>2020-08-13T08:23:25.827Z</time>
      </trkpt>
      <trkpt lat="65.40407" lon="12.18518">
        <ele>46.896153</ele>
        <time>2020-08-13T08:24:11.829Z</time>
      </trkpt>
      <trkpt lat="65.40642" lon="12.18667">
        <ele>47.210613</ele>
        <time>2020-08-13T08:25:10.829Z</time>
      </trkpt>
      <trkpt lat="65.40832" lon="12.18948">
        <ele>48.499834</ele>
        <time>2020-08-13T08:26:10.842Z</time>
      </trkpt>
      <trkpt lat="65.40998" lon="12.19246">
        <ele>51.304387</ele>
        <time>2020-08-13T08:27:10.836Z</time>
      </trkpt>
      <trkpt lat="65.41119" lon="12.19708">
        <ele>44.40496</ele>
        <time>2020-08-13T08:28:10.870Z</time>
      </trkpt>
      <trkpt lat="65.41252" lon="12.20172">
        <ele>44.308571</ele>
        <time>2020-08-13T08:29:10.830Z</time>
      </trkpt>
      <trkpt lat="65.41377" lon="12.20599">
        <ele>47.424893</ele>
        <time>2020-08-13T08:30:21.829Z</time>
      </trkpt>
      <trkpt lat="65.41532" lon="12.20937">
        <ele>52.557399</ele>
        <time>2020-08-13T08:31:35.836Z</time>
      </trkpt>
      <trkpt lat="65.41708" lon="12.21176">
        <ele>56.562677</ele>
        <time>2020-08-13T08:32:39.826Z</time>
      </trkpt>
      <trkpt lat="65.41868" lon="12.21465">
        <ele>58.510595</ele>
        <time>2020-08-13T08:33:44.826Z</time>
      </trkpt>
      <trkpt lat="65.4204" lon="12.21747">
        <ele>62.068399</ele>
        <time>2020-08-13T08:34:53.838Z</time>
      </trkpt>
      <trkpt lat="65.42203" lon="12.2206">
        <ele>56.504235</ele>
        <time>2020-08-13T08:35:34.854Z</time>
      </trkpt>
      <trkpt lat="65.42352" lon="12.22355">
        <ele>52.04388</ele>
        <time>2020-08-13T08:36:14.852Z</time>
      </trkpt>
      <trkpt lat="65.42532" lon="12.22725">
        <ele>46.820802</ele>
        <time>2020-08-13T08:36:59.848Z</time>
      </trkpt>
      <trkpt lat="65.42687" lon="12.23051">
        <ele>49.767295</ele>
        <time>2020-08-13T08:37:47.825Z</time>
      </trkpt>
      <trkpt lat="65.42818" lon="12.23443">
        <ele>46.442936</ele>
        <time>2020-08-13T08:38:34.834Z</time>
      </trkpt>
      <trkpt lat="65.42924" lon="12.23895">
        <ele>50.267795</ele>
        <time>2020-08-13T08:39:26.843Z</time>
      </trkpt>
      <trkpt lat="65.43011" lon="12.24313">
        <ele>58.48151</ele>
        <time>2020-08-13T08:40:42.843Z</time>
      </trkpt>
      <trkpt lat="65.43124" lon="12.24742">
        <ele>54.881</ele>
        <time>2020-08-13T08:42:01.858Z</time>
      </trkpt>
      <trkpt lat="65.432" lon="12.25238">
        <ele>50.253033</ele>
        <time>2020-08-13T08:42:52.844Z</time>
      </trkpt>
      <trkpt lat="65.43279" lon="12.25696">
        <ele>49.190622</ele>
        <time>2020-08-13T08:43:39.824Z</time>
      </trkpt>
      <trkpt lat="65.43369" lon="12.26168">
        <ele>52.480816</ele>
        <time>2020-08-13T08:44:53.831Z</time>
      </trkpt>
      <trkpt lat="65.43448" lon="12.26643">
        <ele>59.019689</ele>
        <time>2020-08-13T08:46:07.827Z</time>
      </trkpt>
      <trkpt lat="65.43554" lon="12.27129">
        <ele>58.721131</ele>
        <time>2020-08-13T08:46:54.846Z</time>
      </trkpt>
      <trkpt lat="65.43648" lon="12.27603">
        <ele>50.797552</ele>
        <time>2020-08-13T08:47:34.834Z</time>
      </trkpt>
      <trkpt lat="65.43709" lon="12.28082">
        <ele>51.54353</ele>
        <time>2020-08-13T08:48:34.867Z</time>
      </trkpt>
      <trkpt lat="65.438" lon="12.28539">
        <ele>58.288077</ele>
        <time>2020-08-13T08:49:54.856Z</time>
      </trkpt>
      <trkpt lat="65.43916" lon="12.28962">
        <ele>68.085792</ele>
        <time>2020-08-13T08:51:13.842Z</time>
      </trkpt>
      <trkpt lat="65.44027" lon="12.29364">
        <ele>63.966043</ele>
        <time>2020-08-13T08:52:00.841Z</time>
      </trkpt>
      <trkpt lat="65.44164" lon="12.2985">
        <ele>55.486445</ele>
        <time>2020-08-13T08:52:40.858Z</time>
      </trkpt>
      <trkpt lat="65.44272" lon="12.30277">
        <ele>56.997477</ele>
        <time>2020-08-13T08:53:23.844Z</time>
      </trkpt>
      <trkpt lat="65.44409" lon="12.30651">
        <ele>61.337277</ele>
        <time>2020-08-13T08:54:37.851Z</time>
      </trkpt>
      <trkpt lat="65.44562" lon="12.31">
        <ele>63.176096</ele>
        <time>2020-08-13T08:55:48.842Z</time>
      </trkpt>
      <trkpt lat="65.44725" lon="12.31407">
        <ele>64.542952</ele>
        <time>2020-08-13T08:56:48.842Z</time>
      </trkpt>
      <trkpt lat="65.4484" lon="12.31857">
        <ele>64.068989</ele>
        <time>2020-08-13T08:57:53.857Z</time>
      </trkpt>
      <trkpt lat="65.44988" lon="12.32223">
        <ele>65.806397</ele>
        <time>2020-08-13T08:58:59.835Z</time>
      </trkpt>
      <trkpt lat="65.45152" lon="12.32594">
        <ele>64.945293</ele>
        <time>2020-08-13T08:59:55.858Z</time>
      </trkpt>
      <trkpt lat="65.45333" lon="12.32899">
        <ele>61.588302</ele>
        <time>2020-08-13T09:00:35.843Z</time>
      </trkpt>
      <trkpt lat="65.45529" lon="12.33312">
        <ele>56.8526</ele>
        <time>2020-08-13T09:01:15.855Z</time>
      </trkpt>
      <trkpt lat="65.45737" lon="12.33795">
        <ele>50.503983</ele>
        <time>2020-08-13T09:01:55.831Z</time>
      </trkpt>
      <trkpt lat="65.45929" lon="12.3424">
        <ele>43.724728</ele>
        <time>2020-08-13T09:02:35.846Z</time>
      </trkpt>
      <trkpt lat="65.46119" lon="12.34564">
        <ele>42.213624</ele>
        <time>2020-08-13T09:03:19.849Z</time>
      </trkpt>
      <trkpt lat="65.46327" lon="12.34833">
        <ele>43.679063</ele>
        <time>2020-08-13T09:18:37.904Z</time>
      </trkpt>
      <trkpt lat="65.46513" lon="12.35158">
        <ele>45.309434</ele>
        <time>2020-08-13T09:19:37.849Z</time>
      </trkpt>
      <trkpt lat="65.46694" lon="12.35452">
        <ele>44.29416</ele>
        <time>2020-08-13T09:20:37.846Z</time>
      </trkpt>
      <trkpt lat="65.46913" lon="12.35457">
        <ele>39.125806</ele>
        <time>2020-08-13T09:21:25.860Z</time>
      </trkpt>
      <trkpt lat="65.4712" lon="12.35333">
        <ele>40.301461</ele>
        <time>2020-08-13T09:22:12.841Z</time>
      </trkpt>
      <trkpt lat="65.47321" lon="12.35216">
        <ele>46.218693</ele>
        <time>2020-08-13T09:23:26.852Z</time>
      </trkpt>
      <trkpt lat="65.47496" lon="12.34996">
        <ele>52.625592</ele>
        <time>2020-08-13T09:24:46.838Z</time>
      </trkpt>
      <trkpt lat="65.4761" lon="12.34604">
        <ele>56.605441</ele>
        <time>2020-08-13T09:25:53.831Z</time>
      </trkpt>
      <trkpt lat="65.47662" lon="12.34135">
        <ele>62.055937</ele>
        <time>2020-08-13T09:27:01.836Z</time>
      </trkpt>
      <trkpt lat="65.47799" lon="12.3376">
        <ele>55.79483</ele>
        <time>2020-08-13T09:27:41.873Z</time>
      </trkpt>
      <trkpt lat="65.48075" lon="12.33866">
        <ele>48.841659</ele>
        <time>2020-08-13T09:28:21.864Z</time>
      </trkpt>
      <trkpt lat="65.48292" lon="12.34024">
        <ele>49.778285</ele>
        <time>2020-08-13T09:29:10.854Z</time>
      </trkpt>
      <trkpt lat="65.48496" lon="12.34202">
        <ele>51.044535</ele>
        <time>2020-08-13T09:32:25.838Z</time>
      </trkpt>
      <trkpt lat="65.48721" lon="12.34241">
        <ele>48.056722</ele>
        <time>2020-08-13T09:33:12.843Z</time>
      </trkpt>
      <trkpt lat="65.48958" lon="12.3443">
        <ele>41.877466</ele>
        <time>2020-08-13T09:33:52.848Z</time>
      </trkpt>
      <trkpt lat="65.49162" lon="12.34487">
        <ele>44.282596</ele>
        <time>2020-08-13T09:34:51.830Z</time>
      </trkpt>
      <trkpt lat="65.49369" lon="12.34656">
        <ele>43.783139</ele>
        <time>2020-08-13T09:35:40.851Z</time>
      </trkpt>
      <trkpt lat="65.49573" lon="12.34742">
        <ele>44.355549</ele>
        <time>2020-08-13T09:36:37.861Z</time>
      </trkpt>
      <trkpt lat="65.49755" lon="12.34727">
        <ele>53.121426</ele>
        <time>2020-08-13T09:38:09.851Z</time>
      </trkpt>
      <trkpt lat="65.49762" lon="12.34294">
        <ele>63.358269</ele>
        <time>2020-08-13T09:39:34.859Z</time>
      </trkpt>
      <trkpt lat="65.49872" lon="12.33778">
        <ele>56.492774</ele>
        <time>2020-08-13T09:40:18.855Z</time>
      </trkpt>
      <trkpt lat="65.49987" lon="12.33376">
        <ele>53.899596</ele>
        <time>2020-08-13T09:40:58.861Z</time>
      </trkpt>
      <trkpt lat="65.50118" lon="12.33003">
        <ele>57.956443</ele>
        <time>2020-08-13T09:41:46.887Z</time>
      </trkpt>
      <trkpt lat="65.50187" lon="12.32504">
        <ele>58.761884</ele>
        <time>2020-08-13T09:42:42.860Z</time>
      </trkpt>
      <trkpt lat="65.50313" lon="12.32012">
        <ele>53.435852</ele>
        <time>2020-08-13T09:43:25.839Z</time>
      </trkpt>
      <trkpt lat="65.5043" lon="12.31613">
        <ele>53.416524</ele>
        <time>2020-08-13T09:44:10.849Z</time>
      </trkpt>
      <trkpt lat="65.50544" lon="12.31195">
        <ele>53.763375</ele>
        <time>2020-08-13T09:44:53.846Z</time>
      </trkpt>
      <trkpt lat="65.50548" lon="12.30583">
        <ele>48.827514</ele>
        <time>2020-08-13T09:45:33.838Z</time>
      </trkpt>
      <trkpt lat="65.50476" lon="12.29975">
        <ele>44.067193</ele>
        <time>2020-08-13T09:46:18.848Z</time>
      </trkpt>
      <trkpt lat="65.50361" lon="12.29566">
        <ele>42.735721</ele>
        <time>2020-08-13T09:46:59.865Z</time>
      </trkpt>
      <trkpt lat="65.50194" lon="12.29181">
        <ele>46.701656</ele>
        <time>2020-08-13T09:47:57.854Z</time>
      </trkpt>
      <trkpt lat="65.5002" lon="12.28899">
        <ele>52.061467</ele>
        <time>2020-08-13T09:48:52.865Z</time>
      </trkpt>
      <trkpt lat="65.49829" lon="12.28541">
        <ele>52.755666</ele>
        <time>2020-08-13T09:49:38.858Z</time>
      </trkpt>
      <trkpt lat="65.49653" lon="12.28184">
        <ele>53.557389</ele>
        <time>2020-08-13T09:50:35.840Z</time>
      </trkpt>
      <trkpt lat="65.49501" lon="12.27756">
        <ele>51.365952</ele>
        <time>2020-08-13T09:51:15.848Z</time>
      </trkpt>
      <trkpt lat="65.49369" lon="12.27233">
        <ele>49.244377</ele>
        <time>2020-08-13T09:51:55.838Z</time>
      </trkpt>
      <trkpt lat="65.49279" lon="12.2679">
        <ele>53.507573</ele>
        <time>2020-08-13T09:52:55.869Z</time>
      </trkpt>
      <trkpt lat="65.4928" lon="12.26271">
        <ele>57.144494</ele>
        <time>2020-08-13T09:53:43.843Z</time>
      </trkpt>
      <trkpt lat="65.49524" lon="12.26084">
        <ele>50.662798</ele>
        <time>2020-08-13T09:54:23.856Z</time>
      </trkpt>
      <trkpt lat="65.49516" lon="12.25539">
        <ele>45.921388</ele>
        <time>2020-08-13T09:55:05.846Z</time>
      </trkpt>
      <trkpt lat="65.49563" lon="12.25022">
        <ele>47.549482</ele>
        <time>2020-08-13T09:55:59.839Z</time>
      </trkpt>
      <trkpt lat="65.49659" lon="12.24946">
        <ele>48.345762</ele>
        <time>2020-08-13T09:56:53.844Z</time>
      </trkpt>
      <trkpt lat="65.4983" lon="12.25304">
        <ele>48.642911</ele>
        <time>2020-08-13T09:57:48.845Z</time>
      </trkpt>
      <trkpt lat="65.50007" lon="12.25604">
        <ele>50.226709</ele>
        <time>2020-08-13T09:58:48.848Z</time>
      </trkpt>
      <trkpt lat="65.5022" lon="12.25871">
        <ele>50.583331</ele>
        <time>2020-08-13T09:59:48.874Z</time>
      </trkpt>
      <trkpt lat="65.50421" lon="12.2616">
        <ele>50.372758</ele>
        <time>2020-08-13T10:00:48.836Z</time>
      </trkpt>
      <trkpt lat="65.50624" lon="12.26475">
        <ele>50.616137</ele>
        <time>2020-08-13T10:01:48.844Z</time>
      </trkpt>
      <trkpt lat="65.50852" lon="12.26674">
        <ele>51.303774</ele>
        <time>2020-08-13T10:02:46.854Z</time>
      </trkpt>
      <trkpt lat="65.51059" lon="12.26959">
        <ele>51.033679</ele>
        <time>2020-08-13T10:03:40.855Z</time>
      </trkpt>
      <trkpt lat="65.51256" lon="12.27127">
        <ele>49.70915</ele>
        <time>2020-08-13T10:04:21.852Z</time>
      </trkpt>
      <trkpt lat="65.5148" lon="12.27109">
        <ele>50.069272</ele>
        <time>2020-08-13T10:05:21.856Z</time>
      </trkpt>
      <trkpt lat="65.51677" lon="12.27156">
        <ele>51.042741</ele>
        <time>2020-08-13T10:06:03.871Z</time>
      </trkpt>
      <trkpt lat="65.51884" lon="12.27359">
        <ele>54.106975</ele>
        <time>2020-08-13T10:07:03.867Z</time>
      </trkpt>
      <trkpt lat="65.52085" lon="12.27484">
        <ele>52.451677</ele>
        <time>2020-08-13T10:08:03.889Z</time>
      </trkpt>
      <trkpt lat="65.52286" lon="12.27385">
        <ele>49.710995</ele>
        <time>2020-08-13T10:08:43.867Z</time>
      </trkpt>
      <trkpt lat="65.5246" lon="12.27116">
        <ele>49.369954</ele>
        <time>2020-08-13T10:09:25.854Z</time>
      </trkpt>
      <trkpt lat="65.52647" lon="12.26896">
        <ele>51.048423</ele>
        <time>2020-08-13T10:10:10.886Z</time>
      </trkpt>
      <trkpt lat="65.52853" lon="12.26857">
        <ele>49.189443</ele>
        <time>2020-08-13T10:10:51.870Z</time>
      </trkpt>
      <trkpt lat="65.53082" lon="12.26827">
        <ele>45.526189</ele>
        <time>2020-08-13T10:11:31.848Z</time>
      </trkpt>
      <trkpt lat="65.53304" lon="12.26836">
        <ele>49.275034</ele>
        <time>2020-08-13T10:12:11.867Z</time>
      </trkpt>
      <trkpt lat="65.53532" lon="12.26888">
        <ele>52.072117</ele>
        <time>2020-08-13T10:13:03.856Z</time>
      </trkpt>
      <trkpt lat="65.53777" lon="12.26945">
        <ele>52.551363</ele>
        <time>2020-08-13T10:14:00.850Z</time>
      </trkpt>
      <trkpt lat="65.53995" lon="12.27024">
        <ele>48.393299</ele>
        <time>2020-08-13T10:14:41.839Z</time>
      </trkpt>
      <trkpt lat="65.54211" lon="12.27094">
        <ele>50.524136</ele>
        <time>2020-08-13T10:15:40.861Z</time>
      </trkpt>
      <trkpt lat="65.54412" lon="12.27171">
        <ele>52.944285</ele>
        <time>2020-08-13T10:16:40.842Z</time>
      </trkpt>
      <trkpt lat="65.54625" lon="12.2729">
        <ele>55.963496</ele>
        <time>2020-08-13T10:17:31.844Z</time>
      </trkpt>
      <trkpt lat="65.5484" lon="12.27424">
        <ele>52.610052</ele>
        <time>2020-08-13T10:18:11.859Z</time>
      </trkpt>
      <trkpt lat="65.55009" lon="12.27698">
        <ele>49.258104</ele>
        <time>2020-08-13T10:18:52.849Z</time>
      </trkpt>
      <trkpt lat="65.5516" lon="12.2807">
        <ele>54.491073</ele>
        <time>2020-08-13T10:19:52.870Z</time>
      </trkpt>
      <trkpt lat="65.55274" lon="12.28498">
        <ele>59.970001</ele>
        <time>2020-08-13T10:21:11.837Z</time>
      </trkpt>
      <trkpt lat="65.55359" lon="12.28963">
        <ele>56.396014</ele>
        <time>2020-08-13T10:22:06.853Z</time>
      </trkpt>
      <trkpt lat="65.55514" lon="12.29374">
        <ele>53.228887</ele>
        <time>2020-08-13T10:22:46.857Z</time>
      </trkpt>
      <trkpt lat="65.55698" lon="12.29686">
        <ele>53.495908</ele>
        <time>2020-08-13T10:23:32.870Z</time>
      </trkpt>
      <trkpt lat="65.55919" lon="12.29937">
        <ele>56.229045</ele>
        <time>2020-08-13T10:24:31.887Z</time>
      </trkpt>
      <trkpt lat="65.56115" lon="12.30203">
        <ele>55.904708</ele>
        <time>2020-08-13T10:25:32.903Z</time>
      </trkpt>
      <trkpt lat="65.56288" lon="12.30563">
        <ele>49.088382</ele>
        <time>2020-08-13T10:26:00.862Z</time>
      </trkpt>
      <trkpt lat="65.56504" lon="12.30611">
        <ele>53.55821</ele>
        <time>2020-08-13T10:26:53.849Z</time>
      </trkpt>
      <trkpt lat="65.56691" lon="12.30437">
        <ele>64.544403</ele>
        <time>2020-08-13T10:32:34.850Z</time>
      </trkpt>
      <trkpt lat="65.56885" lon="12.30605">
        <ele>68.3628</ele>
        <time>2020-08-13T10:33:50.858Z</time>
      </trkpt>
      <trkpt lat="65.57076" lon="12.30716">
        <ele>68.807468</ele>
        <time>2020-08-13T10:34:53.857Z</time>
      </trkpt>
      <trkpt lat="65.57305" lon="12.30526">
        <ele>61.709944</ele>
        <time>2020-08-13T10:35:21.878Z</time>
      </trkpt>
      <trkpt lat="65.57554" lon="12.30321">
        <ele>55.113615</ele>
        <time>2020-08-13T10:35:55.849Z</time>
      </trkpt>
      <trkpt lat="65.57781" lon="12.30127">
        <ele>53.97485</ele>
        <time>2020-08-13T10:36:35.861Z</time>
      </trkpt>
      <trkpt lat="65.58013" lon="12.30053">
        <ele>50.255094</ele>
        <time>2020-08-13T10:37:15.865Z</time>
      </trkpt>
      <trkpt lat="65.58216" lon="12.30138">
        <ele>44.5272</ele>
        <time>2020-08-13T10:38:04.843Z</time>
      </trkpt>
      <trkpt lat="65.57799" lon="12.39321">
        <ele>51.755229</ele>
        <time>2020-08-13T11:27:43.895Z</time>
      </trkpt>
      <trkpt lat="65.57852" lon="12.38776">
        <ele>53.447332</ele>
        <time>2020-08-13T11:32:53.897Z</time>
      </trkpt>
      <trkpt lat="65.57956" lon="12.38332">
        <ele>51.228861</ele>
        <time>2020-08-13T11:33:46.881Z</time>
      </trkpt>
      <trkpt lat="65.58142" lon="12.38182">
        <ele>52.121174</ele>
        <time>2020-08-13T11:34:37.907Z</time>
      </trkpt>
      <trkpt lat="65.58191" lon="12.37619">
        <ele>52.070116</ele>
        <time>2020-08-13T11:35:34.882Z</time>
      </trkpt>
      <trkpt lat="65.58436" lon="12.37513">
        <ele>42.667129</ele>
        <time>2020-08-13T11:36:14.922Z</time>
      </trkpt>
      <trkpt lat="65.58633" lon="12.37249">
        <ele>47.773102</ele>
        <time>2020-08-13T11:37:06.890Z</time>
      </trkpt>
      <trkpt lat="65.58832" lon="12.37386">
        <ele>50.306734</ele>
        <time>2020-08-13T11:38:07.892Z</time>
      </trkpt>
      <trkpt lat="65.59041" lon="12.37219">
        <ele>49.480538</ele>
        <time>2020-08-13T11:38:52.885Z</time>
      </trkpt>
      <trkpt lat="65.59277" lon="12.37129">
        <ele>46.979939</ele>
        <time>2020-08-13T11:39:33.945Z</time>
      </trkpt>
      <trkpt lat="65.59481" lon="12.37007">
        <ele>51.1822</ele>
        <time>2020-08-13T11:40:32.911Z</time>
      </trkpt>
      <trkpt lat="65.59685" lon="12.37001">
        <ele>54.709818</ele>
        <time>2020-08-13T11:41:31.902Z</time>
      </trkpt>
      <trkpt lat="65.59896" lon="12.37087">
        <ele>49.233452</ele>
        <time>2020-08-13T11:42:01.917Z</time>
      </trkpt>
      <trkpt lat="65.60088" lon="12.36855">
        <ele>51.783527</ele>
        <time>2020-08-13T11:42:52.968Z</time>
      </trkpt>
      <trkpt lat="65.60311" lon="12.36717">
        <ele>50.588481</ele>
        <time>2020-08-13T11:43:41.915Z</time>
      </trkpt>
      <trkpt lat="65.6057" lon="12.36575">
        <ele>45.267188</ele>
        <time>2020-08-13T11:44:24.885Z</time>
      </trkpt>
      <trkpt lat="65.60787" lon="12.36565">
        <ele>42.998012</ele>
        <time>2020-08-13T11:45:07.897Z</time>
      </trkpt>
      <trkpt lat="65.60999" lon="12.36582">
        <ele>46.277236</ele>
        <time>2020-08-13T11:45:51.884Z</time>
      </trkpt>
      <trkpt lat="65.61232" lon="12.36686">
        <ele>46.993164</ele>
        <time>2020-08-13T11:46:45.911Z</time>
      </trkpt>
      <trkpt lat="65.61444" lon="12.36779">
        <ele>49.530142</ele>
        <time>2020-08-13T11:47:33.904Z</time>
      </trkpt>
      <trkpt lat="65.61661" lon="12.36876">
        <ele>55.957869</ele>
        <time>2020-08-13T11:48:35.939Z</time>
      </trkpt>
      <trkpt lat="65.61865" lon="12.36945">
        <ele>56.323702</ele>
        <time>2020-08-13T11:49:40.914Z</time>
      </trkpt>
      <trkpt lat="65.62108" lon="12.36791">
        <ele>50.02755</ele>
        <time>2020-08-13T11:50:25.898Z</time>
      </trkpt>
      <trkpt lat="65.62364" lon="12.36758">
        <ele>45.394917</ele>
        <time>2020-08-13T11:51:03.887Z</time>
      </trkpt>
      <trkpt lat="65.62588" lon="12.36828">
        <ele>48.702899</ele>
        <time>2020-08-13T11:51:56.881Z</time>
      </trkpt>
      <trkpt lat="65.62814" lon="12.36891">
        <ele>51.514671</ele>
        <time>2020-08-13T11:52:49.912Z</time>
      </trkpt>
      <trkpt lat="65.63047" lon="12.37015">
        <ele>53.834106</ele>
        <time>2020-08-13T11:53:49.901Z</time>
      </trkpt>
      <trkpt lat="65.63281" lon="12.37156">
        <ele>55.030679</ele>
        <time>2020-08-13T11:54:49.935Z</time>
      </trkpt>
      <trkpt lat="65.63509" lon="12.37302">
        <ele>56.645379</ele>
        <time>2020-08-13T11:55:44.932Z</time>
      </trkpt>
      <trkpt lat="65.63709" lon="12.37424">
        <ele>55.925437</ele>
        <time>2020-08-13T11:56:25.894Z</time>
      </trkpt>
      <trkpt lat="65.6392" lon="12.37583">
        <ele>55.434766</ele>
        <time>2020-08-13T11:57:06.903Z</time>
      </trkpt>
      <trkpt lat="65.64122" lon="12.37734">
        <ele>53.207066</ele>
        <time>2020-08-13T11:57:52.900Z</time>
      </trkpt>
      <trkpt lat="65.64339" lon="12.37802">
        <ele>54.945466</ele>
        <time>2020-08-13T11:58:51.886Z</time>
      </trkpt>
      <trkpt lat="65.6456" lon="12.37927">
        <ele>58.439019</ele>
        <time>2020-08-13T11:59:48.891Z</time>
      </trkpt>
      <trkpt lat="65.64776" lon="12.38042">
        <ele>57.347585</ele>
        <time>2020-08-13T12:00:37.931Z</time>
      </trkpt>
      <trkpt lat="65.65004" lon="12.38171">
        <ele>56.156958</ele>
        <time>2020-08-13T12:01:33.910Z</time>
      </trkpt>
      <trkpt lat="65.65235" lon="12.38249">
        <ele>53.983144</ele>
        <time>2020-08-13T12:02:28.894Z</time>
      </trkpt>
      <trkpt lat="65.65445" lon="12.3841">
        <ele>51.612035</ele>
        <time>2020-08-13T12:03:08.915Z</time>
      </trkpt>
      <trkpt lat="65.65645" lon="12.38636">
        <ele>51.142754</ele>
        <time>2020-08-13T12:03:48.889Z</time>
      </trkpt>
      <trkpt lat="65.65821" lon="12.38832">
        <ele>53.011541</ele>
        <time>2020-08-13T12:04:28.905Z</time>
      </trkpt>
      <trkpt lat="65.6603" lon="12.39087">
        <ele>54.636347</ele>
        <time>2020-08-13T12:05:22.940Z</time>
      </trkpt>
      <trkpt lat="65.66227" lon="12.39391">
        <ele>52.956641</ele>
        <time>2020-08-13T12:06:16.906Z</time>
      </trkpt>
      <trkpt lat="65.66413" lon="12.39677">
        <ele>49.286168</ele>
        <time>2020-08-13T12:06:56.911Z</time>
      </trkpt>
      <trkpt lat="65.66598" lon="12.39939">
        <ele>47.981518</ele>
        <time>2020-08-13T12:07:36.932Z</time>
      </trkpt>
      <trkpt lat="65.6679" lon="12.40208">
        <ele>47.125946</ele>
        <time>2020-08-13T12:08:16.912Z</time>
      </trkpt>
      <trkpt lat="65.66988" lon="12.40488">
        <ele>45.196657</ele>
        <time>2020-08-13T12:08:56.904Z</time>
      </trkpt>
      <trkpt lat="65.67176" lon="12.40754">
        <ele>46.406501</ele>
        <time>2020-08-13T12:09:36.925Z</time>
      </trkpt>
      <trkpt lat="65.67395" lon="12.40903">
        <ele>47.551384</ele>
        <time>2020-08-13T12:10:28.928Z</time>
      </trkpt>
      <trkpt lat="65.6764" lon="12.4089">
        <ele>45.499633</ele>
        <time>2020-08-13T12:11:08.908Z</time>
      </trkpt>
      <trkpt lat="65.67845" lon="12.41093">
        <ele>51.126199</ele>
        <time>2020-08-13T12:12:08.902Z</time>
      </trkpt>
      <trkpt lat="65.68025" lon="12.41368">
        <ele>55.995806</ele>
        <time>2020-08-13T12:13:24.905Z</time>
      </trkpt>
      <trkpt lat="65.68206" lon="12.4164">
        <ele>56.374595</ele>
        <time>2020-08-13T12:14:04.922Z</time>
      </trkpt>
      <trkpt lat="65.68388" lon="12.41835">
        <ele>56.957051</ele>
        <time>2020-08-13T12:14:48.938Z</time>
      </trkpt>
      <trkpt lat="65.68578" lon="12.42082">
        <ele>55.690964</ele>
        <time>2020-08-13T12:15:36.932Z</time>
      </trkpt>
      <trkpt lat="65.68765" lon="12.42393">
        <ele>56.692238</ele>
        <time>2020-08-13T12:16:30.917Z</time>
      </trkpt>
      <trkpt lat="65.6895" lon="12.42664">
        <ele>61.973867</ele>
        <time>2020-08-13T12:17:45.905Z</time>
      </trkpt>
      <trkpt lat="65.69114" lon="12.42958">
        <ele>64.031652</ele>
        <time>2020-08-13T12:18:45.908Z</time>
      </trkpt>
      <trkpt lat="65.69323" lon="12.43164">
        <ele>62.708772</ele>
        <time>2020-08-13T12:19:28.896Z</time>
      </trkpt>
      <trkpt lat="65.69536" lon="12.43367">
        <ele>57.808863</ele>
        <time>2020-08-13T12:20:08.900Z</time>
      </trkpt>
      <trkpt lat="65.69764" lon="12.43686">
        <ele>44.540096</ele>
        <time>2020-08-13T12:20:39.956Z</time>
      </trkpt>
      <trkpt lat="65.70003" lon="12.44052">
        <ele>41.667129</ele>
        <time>2020-08-13T12:21:21.913Z</time>
      </trkpt>
      <trkpt lat="65.70157" lon="12.44223">
        <ele>46.812663</ele>
        <time>2020-08-13T12:47:11.445Z</time>
      </trkpt>
      <trkpt lat="65.70316" lon="12.44531">
        <ele>52.273529</ele>
        <time>2020-08-13T12:58:26.466Z</time>
      </trkpt>
      <trkpt lat="65.70495" lon="12.44917">
        <ele>47.102927</ele>
        <time>2020-08-13T12:59:06.460Z</time>
      </trkpt>
      <trkpt lat="65.70657" lon="12.45229">
        <ele>46.002627</ele>
        <time>2020-08-13T12:59:46.455Z</time>
      </trkpt>
      <trkpt lat="65.70821" lon="12.45512">
        <ele>50.326481</ele>
        <time>2020-08-13T13:00:43.461Z</time>
      </trkpt>
      <trkpt lat="65.71032" lon="12.45722">
        <ele>50.807899</ele>
        <time>2020-08-13T13:01:39.452Z</time>
      </trkpt>
      <trkpt lat="65.71234" lon="12.45942">
        <ele>47.276484</ele>
        <time>2020-08-13T13:02:30.456Z</time>
      </trkpt>
      <trkpt lat="65.7142" lon="12.46134">
        <ele>40.304939</ele>
        <time>2020-08-13T13:03:25.465Z</time>
      </trkpt>
      <trkpt lat="65.71284" lon="12.46017">
        <ele>38.789264</ele>
        <time>2020-08-13T14:16:42.782Z</time>
      </trkpt>
      <trkpt lat="65.71434" lon="12.45831">
        <ele>43.470801</ele>
        <time>2020-08-13T14:29:34.805Z</time>
      </trkpt>
      <trkpt lat="65.71653" lon="12.45941">
        <ele>43.80526</ele>
        <time>2020-08-13T14:30:30.795Z</time>
      </trkpt>
      <trkpt lat="65.71886" lon="12.45911">
        <ele>37.379234</ele>
        <time>2020-08-13T14:31:10.798Z</time>
      </trkpt>
      <trkpt lat="65.72118" lon="12.45908">
        <ele>38.920559</ele>
        <time>2020-08-13T14:31:50.806Z</time>
      </trkpt>
      <trkpt lat="65.72346" lon="12.46042">
        <ele>46.027707</ele>
        <time>2020-08-13T14:32:30.854Z</time>
      </trkpt>
      <trkpt lat="65.72569" lon="12.46229">
        <ele>48.966592</ele>
        <time>2020-08-13T14:33:10.827Z</time>
      </trkpt>
      <trkpt lat="65.72789" lon="12.46403">
        <ele>47.154989</ele>
        <time>2020-08-13T14:33:50.852Z</time>
      </trkpt>
      <trkpt lat="65.73015" lon="12.4657">
        <ele>45.696414</ele>
        <time>2020-08-13T14:34:30.851Z</time>
      </trkpt>
      <trkpt lat="65.73234" lon="12.46741">
        <ele>46.815019</ele>
        <time>2020-08-13T14:35:10.817Z</time>
      </trkpt>
      <trkpt lat="65.73456" lon="12.46927">
        <ele>42.721044</ele>
        <time>2020-08-13T14:35:50.810Z</time>
      </trkpt>
      <trkpt lat="65.73676" lon="12.47106">
        <ele>37.204766</ele>
        <time>2020-08-13T14:36:30.839Z</time>
      </trkpt>
      <trkpt lat="65.73897" lon="12.47268">
        <ele>37.540997</ele>
        <time>2020-08-13T14:37:10.802Z</time>
      </trkpt>
      <trkpt lat="65.74117" lon="12.47412">
        <ele>42.594798</ele>
        <time>2020-08-13T14:37:50.805Z</time>
      </trkpt>
      <trkpt lat="65.74332" lon="12.4757">
        <ele>47.802826</ele>
        <time>2020-08-13T14:38:30.822Z</time>
      </trkpt>
      <trkpt lat="65.74554" lon="12.47717">
        <ele>42.575518</ele>
        <time>2020-08-13T14:39:10.811Z</time>
      </trkpt>
      <trkpt lat="65.74774" lon="12.47875">
        <ele>38.852384</ele>
        <time>2020-08-13T14:39:50.829Z</time>
      </trkpt>
      <trkpt lat="65.74988" lon="12.48031">
        <ele>39.535233</ele>
        <time>2020-08-13T14:40:30.795Z</time>
      </trkpt>
      <trkpt lat="65.75211" lon="12.48194">
        <ele>40.295909</ele>
        <time>2020-08-13T14:41:10.836Z</time>
      </trkpt>
      <trkpt lat="65.75429" lon="12.48352">
        <ele>35.583709</ele>
        <time>2020-08-13T14:41:50.801Z</time>
      </trkpt>
      <trkpt lat="65.75656" lon="12.48533">
        <ele>30.554964</ele>
        <time>2020-08-13T14:42:31.805Z</time>
      </trkpt>
      <trkpt lat="65.75873" lon="12.48712">
        <ele>27.75297</ele>
        <time>2020-08-13T14:43:11.807Z</time>
      </trkpt>
      <trkpt lat="65.76092" lon="12.4888">
        <ele>32.158115</ele>
        <time>2020-08-13T14:43:51.831Z</time>
      </trkpt>
      <trkpt lat="65.76322" lon="12.4907">
        <ele>34.875443</ele>
        <time>2020-08-13T14:44:33.831Z</time>
      </trkpt>
      <trkpt lat="65.76541" lon="12.49243">
        <ele>32.745873</ele>
        <time>2020-08-13T14:45:13.835Z</time>
      </trkpt>
      <trkpt lat="65.76761" lon="12.49411">
        <ele>28.759257</ele>
        <time>2020-08-13T14:45:53.835Z</time>
      </trkpt>
      <trkpt lat="65.7698" lon="12.49584">
        <ele>25.843876</ele>
        <time>2020-08-13T14:46:33.810Z</time>
      </trkpt>
      <trkpt lat="65.77192" lon="12.49756">
        <ele>30.453306</ele>
        <time>2020-08-13T14:47:13.822Z</time>
      </trkpt>
      <trkpt lat="65.77412" lon="12.4992">
        <ele>32.696351</ele>
        <time>2020-08-13T14:47:53.824Z</time>
      </trkpt>
      <trkpt lat="65.7763" lon="12.50094">
        <ele>26.453592</ele>
        <time>2020-08-13T14:48:33.818Z</time>
      </trkpt>
      <trkpt lat="65.77849" lon="12.50259">
        <ele>26.387915</ele>
        <time>2020-08-13T14:49:13.820Z</time>
      </trkpt>
      <trkpt lat="65.7807" lon="12.50441">
        <ele>25.419748</ele>
        <time>2020-08-13T14:49:53.849Z</time>
      </trkpt>
      <trkpt lat="65.78287" lon="12.50617">
        <ele>22.42336</ele>
        <time>2020-08-13T14:50:33.784Z</time>
      </trkpt>
      <trkpt lat="65.78511" lon="12.50774">
        <ele>27.643179</ele>
        <time>2020-08-13T14:51:13.811Z</time>
      </trkpt>
      <trkpt lat="65.78745" lon="12.50866">
        <ele>42.506943</ele>
        <time>2020-08-13T14:51:53.794Z</time>
      </trkpt>
      <trkpt lat="65.78975" lon="12.50945">
        <ele>42.101674</ele>
        <time>2020-08-13T14:52:33.814Z</time>
      </trkpt>
      <trkpt lat="65.79207" lon="12.51024">
        <ele>40.331302</ele>
        <time>2020-08-13T14:53:13.790Z</time>
      </trkpt>
      <trkpt lat="65.79443" lon="12.51089">
        <ele>41.039073</ele>
        <time>2020-08-13T14:53:53.793Z</time>
      </trkpt>
      <trkpt lat="65.7967" lon="12.51164">
        <ele>33.300201</ele>
        <time>2020-08-13T14:54:33.821Z</time>
      </trkpt>
      <trkpt lat="65.79904" lon="12.5123">
        <ele>32.444136</ele>
        <time>2020-08-13T14:55:13.797Z</time>
      </trkpt>
      <trkpt lat="65.80134" lon="12.5124">
        <ele>35.350256</ele>
        <time>2020-08-13T14:55:53.788Z</time>
      </trkpt>
      <trkpt lat="65.80343" lon="12.50992">
        <ele>45.259679</ele>
        <time>2020-08-13T14:56:33.797Z</time>
      </trkpt>
      <trkpt lat="65.80507" lon="12.50591">
        <ele>43.986261</ele>
        <time>2020-08-13T14:57:13.814Z</time>
      </trkpt>
      <trkpt lat="65.80639" lon="12.50183">
        <ele>44.078952</ele>
        <time>2020-08-13T14:58:01.789Z</time>
      </trkpt>
      <trkpt lat="65.8074" lon="12.49761">
        <ele>43.084706</ele>
        <time>2020-08-13T14:59:21.807Z</time>
      </trkpt>
      <trkpt lat="65.80838" lon="12.49347">
        <ele>36.624802</ele>
        <time>2020-08-13T15:03:38.800Z</time>
      </trkpt>
      <trkpt lat="65.80893" lon="12.48835">
        <ele>41.991604</ele>
        <time>2020-08-13T15:04:23.806Z</time>
      </trkpt>
      <trkpt lat="65.81051" lon="12.45717">
        <ele>44.429904</ele>
        <time>2020-08-13T15:07:55.980Z</time>
      </trkpt>
      <trkpt lat="65.8107" lon="12.45125">
        <ele>30.127199</ele>
        <time>2020-08-13T15:08:36.006Z</time>
      </trkpt>
      <trkpt lat="65.81102" lon="12.44524">
        <ele>29.014332</ele>
        <time>2020-08-13T15:09:15.958Z</time>
      </trkpt>
      <trkpt lat="65.81175" lon="12.43965">
        <ele>36.335465</ele>
        <time>2020-08-13T15:09:55.985Z</time>
      </trkpt>
      <trkpt lat="65.81353" lon="12.43555">
        <ele>43.092318</ele>
        <time>2020-08-13T15:10:36.001Z</time>
      </trkpt>
      <trkpt lat="65.81567" lon="12.43339">
        <ele>41.182771</ele>
        <time>2020-08-13T15:11:15.987Z</time>
      </trkpt>
      <trkpt lat="65.81795" lon="12.43306">
        <ele>44.936533</ele>
        <time>2020-08-13T15:11:57.979Z</time>
      </trkpt>
      <trkpt lat="65.82017" lon="12.43273">
        <ele>40.282661</ele>
        <time>2020-08-13T15:13:02.023Z</time>
      </trkpt>
      <trkpt lat="65.82185" lon="12.42999">
        <ele>39.656646</ele>
        <time>2020-08-13T15:18:36.971Z</time>
      </trkpt>
      <trkpt lat="65.82321" lon="12.4262">
        <ele>48.874034</ele>
        <time>2020-08-13T15:19:54.972Z</time>
      </trkpt>
      <trkpt lat="65.82436" lon="12.42145">
        <ele>47.703755</ele>
        <time>2020-08-13T15:20:56.952Z</time>
      </trkpt>
      <trkpt lat="65.82572" lon="12.41618">
        <ele>45.656902</ele>
        <time>2020-08-13T15:21:37.995Z</time>
      </trkpt>
      <trkpt lat="65.8273" lon="12.41177">
        <ele>46.23334</ele>
        <time>2020-08-13T15:22:17.957Z</time>
      </trkpt>
      <trkpt lat="65.82879" lon="12.40762">
        <ele>46.588707</ele>
        <time>2020-08-13T15:22:57.992Z</time>
      </trkpt>
      <trkpt lat="65.83037" lon="12.40403">
        <ele>45.543385</ele>
        <time>2020-08-13T15:23:37.979Z</time>
      </trkpt>
      <trkpt lat="65.83246" lon="12.40149">
        <ele>49.713679</ele>
        <time>2020-08-13T15:24:30.951Z</time>
      </trkpt>
      <trkpt lat="65.83444" lon="12.39902">
        <ele>46.90672</ele>
        <time>2020-08-13T15:25:13.960Z</time>
      </trkpt>
      <trkpt lat="65.8366" lon="12.3967">
        <ele>45.094351</ele>
        <time>2020-08-13T15:25:53.968Z</time>
      </trkpt>
      <trkpt lat="65.83862" lon="12.3957">
        <ele>45.800478</ele>
        <time>2020-08-13T15:26:33.981Z</time>
      </trkpt>
      <trkpt lat="65.84081" lon="12.39468">
        <ele>44.948052</ele>
        <time>2020-08-13T15:27:23.967Z</time>
      </trkpt>
      <trkpt lat="65.84295" lon="12.39444">
        <ele>48.926964</ele>
        <time>2020-08-13T15:28:13.962Z</time>
      </trkpt>
      <trkpt lat="65.84509" lon="12.39552">
        <ele>49.134917</ele>
        <time>2020-08-13T15:30:18.006Z</time>
      </trkpt>
      <trkpt lat="65.84715" lon="12.39819">
        <ele>46.316435</ele>
        <time>2020-08-13T15:31:17.962Z</time>
      </trkpt>
      <trkpt lat="65.84837" lon="12.40331">
        <ele>47.467869</ele>
        <time>2020-08-13T15:32:14.984Z</time>
      </trkpt>
      <trkpt lat="65.84981" lon="12.40776">
        <ele>46.855781</ele>
        <time>2020-08-13T15:33:04.967Z</time>
      </trkpt>
      <trkpt lat="65.85153" lon="12.41295">
        <ele>40.595787</ele>
        <time>2020-08-13T15:33:44.974Z</time>
      </trkpt>
      <trkpt lat="65.85292" lon="12.41709">
        <ele>40.834105</ele>
        <time>2020-08-13T15:34:34.969Z</time>
      </trkpt>
      <trkpt lat="65.85449" lon="12.42122">
        <ele>41.561219</ele>
        <time>2020-08-13T15:35:30.961Z</time>
      </trkpt>
      <trkpt lat="65.85615" lon="12.42391">
        <ele>40.784582</ele>
        <time>2020-08-13T15:36:16.977Z</time>
      </trkpt>
      <trkpt lat="65.85686" lon="12.42873">
        <ele>40.296065</ele>
        <time>2020-08-13T15:37:03.965Z</time>
      </trkpt>
      <trkpt lat="65.8582" lon="12.43253">
        <ele>38.541495</ele>
        <time>2020-08-13T15:37:49.986Z</time>
      </trkpt>
      <trkpt lat="65.85975" lon="12.43546">
        <ele>39.630086</ele>
        <time>2020-08-13T15:38:32.999Z</time>
      </trkpt>
      <trkpt lat="65.86139" lon="12.43943">
        <ele>39.864032</ele>
        <time>2020-08-13T15:39:23.970Z</time>
      </trkpt>
      <trkpt lat="65.86275" lon="12.44316">
        <ele>37.516163</ele>
        <time>2020-08-13T15:40:03.998Z</time>
      </trkpt>
      <trkpt lat="65.86406" lon="12.44675">
        <ele>39.025389</ele>
        <time>2020-08-13T15:40:43.988Z</time>
      </trkpt>
      <trkpt lat="65.86534" lon="12.45033">
        <ele>39.017208</ele>
        <time>2020-08-13T15:41:24.979Z</time>
      </trkpt>
      <trkpt lat="65.86679" lon="12.45426">
        <ele>40.725788</ele>
        <time>2020-08-13T15:42:13.968Z</time>
      </trkpt>
      <trkpt lat="65.86846" lon="12.45878">
        <ele>43.424442</ele>
        <time>2020-08-13T15:43:14.002Z</time>
      </trkpt>
      <trkpt lat="65.86966" lon="12.46289">
        <ele>43.603263</ele>
        <time>2020-08-13T15:43:58.963Z</time>
      </trkpt>
      <trkpt lat="65.87042" lon="12.4682">
        <ele>49.22114</ele>
        <time>2020-08-13T15:44:58.955Z</time>
      </trkpt>
      <trkpt lat="65.87178" lon="12.46693">
        <ele>49.067021</ele>
        <time>2020-08-13T15:46:02.963Z</time>
      </trkpt>
    </trkseg>
  </trk>
  <trk>
    <name><![CDATA[Tour d'Europe: étape 047]]></name>
    <trkseg>
      <trkpt lat="65.872" lon="12.46641">
        <ele>48.650273</ele>
        <time>2020-08-14T07:13:50.349Z</time>
      </trkpt>
      <trkpt lat="65.87063" lon="12.46993">
        <ele>47.679305</ele>
        <time>2020-08-14T07:15:00.353Z</time>
      </trkpt>
      <trkpt lat="65.87132" lon="12.47507">
        <ele>49.527003</ele>
        <time>2020-08-14T07:15:54.371Z</time>
      </trkpt>
      <trkpt lat="65.87222" lon="12.47958">
        <ele>49.333787</ele>
        <time>2020-08-14T07:16:34.364Z</time>
      </trkpt>
      <trkpt lat="65.87387" lon="12.48516">
        <ele>42.975418</ele>
        <time>2020-08-14T07:17:16.352Z</time>
      </trkpt>
      <trkpt lat="65.87526" lon="12.48955">
        <ele>42.121334</ele>
        <time>2020-08-14T07:17:56.349Z</time>
      </trkpt>
      <trkpt lat="65.87654" lon="12.49378">
        <ele>42.968795</ele>
        <time>2020-08-14T07:18:38.376Z</time>
      </trkpt>
      <trkpt lat="65.8775" lon="12.49776">
        <ele>43.962109</ele>
        <time>2020-08-14T07:19:18.379Z</time>
      </trkpt>
      <trkpt lat="65.87864" lon="12.50206">
        <ele>42.793496</ele>
        <time>2020-08-14T07:20:04.335Z</time>
      </trkpt>
      <trkpt lat="65.88023" lon="12.50535">
        <ele>42.50218</ele>
        <time>2020-08-14T07:20:46.344Z</time>
      </trkpt>
      <trkpt lat="65.88206" lon="12.50833">
        <ele>45.603894</ele>
        <time>2020-08-14T07:21:35.345Z</time>
      </trkpt>
      <trkpt lat="65.8838" lon="12.5112">
        <ele>47.470759</ele>
        <time>2020-08-14T07:22:20.335Z</time>
      </trkpt>
      <trkpt lat="65.88563" lon="12.51308">
        <ele>45.087317</ele>
        <time>2020-08-14T07:23:00.371Z</time>
      </trkpt>
      <trkpt lat="65.88765" lon="12.51453">
        <ele>43.457576</ele>
        <time>2020-08-14T07:23:40.353Z</time>
      </trkpt>
      <trkpt lat="65.88945" lon="12.51821">
        <ele>41.981208</ele>
        <time>2020-08-14T07:24:33.330Z</time>
      </trkpt>
      <trkpt lat="65.89062" lon="12.5219">
        <ele>42.00833</ele>
        <time>2020-08-14T07:25:13.340Z</time>
      </trkpt>
      <trkpt lat="65.89179" lon="12.52574">
        <ele>43.265551</ele>
        <time>2020-08-14T07:25:55.369Z</time>
      </trkpt>
      <trkpt lat="65.89321" lon="12.53034">
        <ele>42.082037</ele>
        <time>2020-08-14T07:26:37.332Z</time>
      </trkpt>
      <trkpt lat="65.89463" lon="12.53399">
        <ele>43.624804</ele>
        <time>2020-08-14T07:27:17.358Z</time>
      </trkpt>
      <trkpt lat="65.89664" lon="12.536">
        <ele>45.012126</ele>
        <time>2020-08-14T07:28:00.352Z</time>
      </trkpt>
      <trkpt lat="65.8985" lon="12.53518">
        <ele>40.849484</ele>
        <time>2020-08-14T07:28:40.358Z</time>
      </trkpt>
      <trkpt lat="65.90043" lon="12.53232">
        <ele>42.352709</ele>
        <time>2020-08-14T07:29:32.353Z</time>
      </trkpt>
      <trkpt lat="65.90167" lon="12.52824">
        <ele>49.29721</ele>
        <time>2020-08-14T07:30:36.366Z</time>
      </trkpt>
      <trkpt lat="65.90236" lon="12.5235">
        <ele>56.438818</ele>
        <time>2020-08-14T07:31:56.361Z</time>
      </trkpt>
      <trkpt lat="65.90256" lon="12.51843">
        <ele>55.365073</ele>
        <time>2020-08-14T07:32:49.365Z</time>
      </trkpt>
      <trkpt lat="65.90214" lon="12.5135">
        <ele>49.947217</ele>
        <time>2020-08-14T07:33:29.339Z</time>
      </trkpt>
      <trkpt lat="65.90198" lon="12.50837">
        <ele>49.768625</ele>
        <time>2020-08-14T07:34:09.344Z</time>
      </trkpt>
      <trkpt lat="65.90191" lon="12.50319">
        <ele>50.90355</ele>
        <time>2020-08-14T07:34:51.344Z</time>
      </trkpt>
      <trkpt lat="65.90163" lon="12.49806">
        <ele>51.607887</ele>
        <time>2020-08-14T07:35:35.351Z</time>
      </trkpt>
      <trkpt lat="65.90141" lon="12.4928">
        <ele>58.0591</ele>
        <time>2020-08-14T07:36:46.350Z</time>
      </trkpt>
      <trkpt lat="65.90107" lon="12.48762">
        <ele>60.053071</ele>
        <time>2020-08-14T07:37:40.342Z</time>
      </trkpt>
      <trkpt lat="65.90068" lon="12.48193">
        <ele>61.632961</ele>
        <time>2020-08-14T07:38:37.355Z</time>
      </trkpt>
      <trkpt lat="65.89987" lon="12.47682">
        <ele>61.40374</ele>
        <time>2020-08-14T07:39:33.351Z</time>
      </trkpt>
      <trkpt lat="65.89871" lon="12.47051">
        <ele>51.430285</ele>
        <time>2020-08-14T07:40:13.344Z</time>
      </trkpt>
      <trkpt lat="65.89744" lon="12.465">
        <ele>47.823268</ele>
        <time>2020-08-14T07:40:55.372Z</time>
      </trkpt>
      <trkpt lat="65.89674" lon="12.46016">
        <ele>46.664269</ele>
        <time>2020-08-14T07:41:37.348Z</time>
      </trkpt>
      <trkpt lat="65.89702" lon="12.45478">
        <ele>45.839376</ele>
        <time>2020-08-14T07:42:19.356Z</time>
      </trkpt>
      <trkpt lat="65.89701" lon="12.44984">
        <ele>44.461352</ele>
        <time>2020-08-14T07:43:01.338Z</time>
      </trkpt>
      <trkpt lat="65.89787" lon="12.44474">
        <ele>49.01605</ele>
        <time>2020-08-14T07:44:07.354Z</time>
      </trkpt>
      <trkpt lat="65.89768" lon="12.43958">
        <ele>51.205263</ele>
        <time>2020-08-14T07:45:01.359Z</time>
      </trkpt>
      <trkpt lat="65.89618" lon="12.43609">
        <ele>48.162416</ele>
        <time>2020-08-14T07:45:45.341Z</time>
      </trkpt>
      <trkpt lat="65.89443" lon="12.43256">
        <ele>47.490085</ele>
        <time>2020-08-14T07:46:30.350Z</time>
      </trkpt>
      <trkpt lat="65.89335" lon="12.42694">
        <ele>46.102784</ele>
        <time>2020-08-14T07:47:30.352Z</time>
      </trkpt>
      <trkpt lat="65.89211" lon="12.42258">
        <ele>45.070603</ele>
        <time>2020-08-14T07:48:15.371Z</time>
      </trkpt>
      <trkpt lat="65.89137" lon="12.41763">
        <ele>49.266958</ele>
        <time>2020-08-14T07:49:15.374Z</time>
      </trkpt>
      <trkpt lat="65.89088" lon="12.41256">
        <ele>60.577751</ele>
        <time>2020-08-14T07:50:29.361Z</time>
      </trkpt>
      <trkpt lat="65.89183" lon="12.40835">
        <ele>67.376798</ele>
        <time>2020-08-14T07:51:51.363Z</time>
      </trkpt>
      <trkpt lat="65.8941" lon="12.40704">
        <ele>63.905427</ele>
        <time>2020-08-14T07:52:53.366Z</time>
      </trkpt>
      <trkpt lat="65.89684" lon="12.40442">
        <ele>48.467001</ele>
        <time>2020-08-14T07:53:33.356Z</time>
      </trkpt>
      <trkpt lat="65.89911" lon="12.40332">
        <ele>47.051836</ele>
        <time>2020-08-14T07:54:10.391Z</time>
      </trkpt>
      <trkpt lat="65.90142" lon="12.40533">
        <ele>46.146473</ele>
        <time>2020-08-14T07:54:42.341Z</time>
      </trkpt>
      <trkpt lat="65.9032" lon="12.40811">
        <ele>53.273725</ele>
        <time>2020-08-14T07:55:48.349Z</time>
      </trkpt>
      <trkpt lat="65.90524" lon="12.41128">
        <ele>57.110193</ele>
        <time>2020-08-14T07:56:32.357Z</time>
      </trkpt>
      <trkpt lat="65.90705" lon="12.41473">
        <ele>59.10635</ele>
        <time>2020-08-14T07:57:30.349Z</time>
      </trkpt>
      <trkpt lat="65.90914" lon="12.41777">
        <ele>60.753135</ele>
        <time>2020-08-14T07:58:30.372Z</time>
      </trkpt>
      <trkpt lat="65.91113" lon="12.42178">
        <ele>62.058249</ele>
        <time>2020-08-14T07:59:30.371Z</time>
      </trkpt>
      <trkpt lat="65.91272" lon="12.42612">
        <ele>62.882439</ele>
        <time>2020-08-14T08:00:26.370Z</time>
      </trkpt>
      <trkpt lat="65.91443" lon="12.42905">
        <ele>64.838532</ele>
        <time>2020-08-14T08:01:10.410Z</time>
      </trkpt>
      <trkpt lat="65.91611" lon="12.4331">
        <ele>65.863599</ele>
        <time>2020-08-14T08:02:07.346Z</time>
      </trkpt>
      <trkpt lat="65.91774" lon="12.43565">
        <ele>69.402011</ele>
        <time>2020-08-14T08:02:48.376Z</time>
      </trkpt>
      <trkpt lat="65.91933" lon="12.4401">
        <ele>66.158037</ele>
        <time>2020-08-14T08:03:44.372Z</time>
      </trkpt>
      <trkpt lat="65.9201" lon="12.44495">
        <ele>66.752583</ele>
        <time>2020-08-14T08:04:44.361Z</time>
      </trkpt>
      <trkpt lat="65.92078" lon="12.45061">
        <ele>64.700927</ele>
        <time>2020-08-14T08:05:36.397Z</time>
      </trkpt>
      <trkpt lat="65.9224" lon="12.45488">
        <ele>55.920864</ele>
        <time>2020-08-14T08:06:02.361Z</time>
      </trkpt>
      <trkpt lat="65.92439" lon="12.45707">
        <ele>44.280935</ele>
        <time>2020-08-14T08:06:22.371Z</time>
      </trkpt>
      <trkpt lat="65.92639" lon="12.46107">
        <ele>39.317135</ele>
        <time>2020-08-14T08:06:57.346Z</time>
      </trkpt>
      <trkpt lat="65.92842" lon="12.4642">
        <ele>42.237951</ele>
        <time>2020-08-14T08:07:37.420Z</time>
      </trkpt>
      <trkpt lat="65.93061" lon="12.46539">
        <ele>43.966702</ele>
        <time>2020-08-14T08:08:17.362Z</time>
      </trkpt>
      <trkpt lat="65.93293" lon="12.46529">
        <ele>44.772517</ele>
        <time>2020-08-14T08:09:18.397Z</time>
      </trkpt>
      <trkpt lat="65.93535" lon="12.46486">
        <ele>42.682438</ele>
        <time>2020-08-14T08:10:12.343Z</time>
      </trkpt>
      <trkpt lat="65.93747" lon="12.46274">
        <ele>45.705707</ele>
        <time>2020-08-14T08:11:12.376Z</time>
      </trkpt>
      <trkpt lat="65.9392" lon="12.45975">
        <ele>44.660363</ele>
        <time>2020-08-14T08:12:02.365Z</time>
      </trkpt>
      <trkpt lat="65.94129" lon="12.45814">
        <ele>46.229702</ele>
        <time>2020-08-14T08:12:51.356Z</time>
      </trkpt>
      <trkpt lat="65.94362" lon="12.45869">
        <ele>51.61715</ele>
        <time>2020-08-14T08:13:49.361Z</time>
      </trkpt>
      <trkpt lat="65.9457" lon="12.46058">
        <ele>49.062413</ele>
        <time>2020-08-14T08:14:32.351Z</time>
      </trkpt>
      <trkpt lat="65.9478" lon="12.46223">
        <ele>44.864822</ele>
        <time>2020-08-14T08:15:17.378Z</time>
      </trkpt>
      <trkpt lat="65.94983" lon="12.46408">
        <ele>48.946944</ele>
        <time>2020-08-14T08:16:05.353Z</time>
      </trkpt>
      <trkpt lat="65.95165" lon="12.46599">
        <ele>49.500362</ele>
        <time>2020-08-14T08:16:45.382Z</time>
      </trkpt>
      <trkpt lat="65.95356" lon="12.46808">
        <ele>52.432267</ele>
        <time>2020-08-14T08:17:28.368Z</time>
      </trkpt>
      <trkpt lat="65.95568" lon="12.47061">
        <ele>60.918982</ele>
        <time>2020-08-14T08:18:26.382Z</time>
      </trkpt>
      <trkpt lat="65.95773" lon="12.47417">
        <ele>62.85889</ele>
        <time>2020-08-14T08:19:29.381Z</time>
      </trkpt>
      <trkpt lat="65.95969" lon="12.47714">
        <ele>65.464506</ele>
        <time>2020-08-14T08:20:25.400Z</time>
      </trkpt>
      <trkpt lat="65.96157" lon="12.4793">
        <ele>64.370788</ele>
        <time>2020-08-14T08:21:11.389Z</time>
      </trkpt>
      <trkpt lat="65.96332" lon="12.48294">
        <ele>72.486161</ele>
        <time>2020-08-14T08:22:13.352Z</time>
      </trkpt>
      <trkpt lat="65.96453" lon="12.4868">
        <ele>81.605151</ele>
        <time>2020-08-14T08:23:21.366Z</time>
      </trkpt>
      <trkpt lat="65.96523" lon="12.49154">
        <ele>91.456284</ele>
        <time>2020-08-14T08:24:50.375Z</time>
      </trkpt>
      <trkpt lat="65.96499" lon="12.49648">
        <ele>102.046138</ele>
        <time>2020-08-14T08:26:30.376Z</time>
      </trkpt>
      <trkpt lat="65.96605" lon="12.50094">
        <ele>99.791163</ele>
        <time>2020-08-14T08:27:36.359Z</time>
      </trkpt>
      <trkpt lat="65.96774" lon="12.50498">
        <ele>103.238997</ele>
        <time>2020-08-14T08:28:39.353Z</time>
      </trkpt>
      <trkpt lat="65.9691" lon="12.5097">
        <ele>106.155345</ele>
        <time>2020-08-14T08:29:38.358Z</time>
      </trkpt>
      <trkpt lat="65.97065" lon="12.51383">
        <ele>111.139922</ele>
        <time>2020-08-14T08:30:40.368Z</time>
      </trkpt>
      <trkpt lat="65.97237" lon="12.51716">
        <ele>117.803829</ele>
        <time>2020-08-14T08:31:48.372Z</time>
      </trkpt>
      <trkpt lat="65.97412" lon="12.52046">
        <ele>119.396057</ele>
        <time>2020-08-14T08:32:49.355Z</time>
      </trkpt>
      <trkpt lat="65.97611" lon="12.52427">
        <ele>119.424024</ele>
        <time>2020-08-14T08:33:34.367Z</time>
      </trkpt>
      <trkpt lat="65.97828" lon="12.52899">
        <ele>113.137954</ele>
        <time>2020-08-14T08:34:14.373Z</time>
      </trkpt>
      <trkpt lat="65.97984" lon="12.5334">
        <ele>114.761694</ele>
        <time>2020-08-14T08:34:54.362Z</time>
      </trkpt>
      <trkpt lat="65.98144" lon="12.53789">
        <ele>113.601478</ele>
        <time>2020-08-14T08:35:36.364Z</time>
      </trkpt>
      <trkpt lat="65.98305" lon="12.54267">
        <ele>114.667519</ele>
        <time>2020-08-14T08:36:16.376Z</time>
      </trkpt>
      <trkpt lat="65.98482" lon="12.54752">
        <ele>115.479089</ele>
        <time>2020-08-14T08:36:58.378Z</time>
      </trkpt>
      <trkpt lat="65.98687" lon="12.5512">
        <ele>115.410351</ele>
        <time>2020-08-14T08:37:38.356Z</time>
      </trkpt>
      <trkpt lat="65.98845" lon="12.55574">
        <ele>112.132577</ele>
        <time>2020-08-14T08:38:18.393Z</time>
      </trkpt>
      <trkpt lat="65.99017" lon="12.56074">
        <ele>112.734664</ele>
        <time>2020-08-14T08:39:00.373Z</time>
      </trkpt>
      <trkpt lat="65.99204" lon="12.56471">
        <ele>116.094521</ele>
        <time>2020-08-14T08:39:40.354Z</time>
      </trkpt>
      <trkpt lat="65.99361" lon="12.56888">
        <ele>118.980912</ele>
        <time>2020-08-14T08:40:31.372Z</time>
      </trkpt>
      <trkpt lat="65.99516" lon="12.57374">
        <ele>113.799858</ele>
        <time>2020-08-14T08:41:11.367Z</time>
      </trkpt>
      <trkpt lat="65.99684" lon="12.57863">
        <ele>111.396444</ele>
        <time>2020-08-14T08:41:51.372Z</time>
      </trkpt>
      <trkpt lat="65.99901" lon="12.58482">
        <ele>102.858863</ele>
        <time>2020-08-14T08:42:33.367Z</time>
      </trkpt>
      <trkpt lat="66.00118" lon="12.59062">
        <ele>96.503348</ele>
        <time>2020-08-14T08:43:13.376Z</time>
      </trkpt>
      <trkpt lat="66.00272" lon="12.59641">
        <ele>88.579258</ele>
        <time>2020-08-14T08:43:55.390Z</time>
      </trkpt>
      <trkpt lat="66.00445" lon="12.60219">
        <ele>89.178061</ele>
        <time>2020-08-14T08:44:35.428Z</time>
      </trkpt>
      <trkpt lat="66.00638" lon="12.60545">
        <ele>83.431926</ele>
        <time>2020-08-14T08:45:01.369Z</time>
      </trkpt>
      <trkpt lat="66.00866" lon="12.60865">
        <ele>74.065833</ele>
        <time>2020-08-14T08:45:32.387Z</time>
      </trkpt>
      <trkpt lat="66.01044" lon="12.61273">
        <ele>70.94783</ele>
        <time>2020-08-14T08:46:12.375Z</time>
      </trkpt>
      <trkpt lat="66.01204" lon="12.61782">
        <ele>75.933889</ele>
        <time>2020-08-14T08:46:54.358Z</time>
      </trkpt>
      <trkpt lat="66.01372" lon="12.62276">
        <ele>75.783525</ele>
        <time>2020-08-14T08:47:34.373Z</time>
      </trkpt>
      <trkpt lat="66.01564" lon="12.62746">
        <ele>71.336128</ele>
        <time>2020-08-14T08:48:11.357Z</time>
      </trkpt>
      <trkpt lat="66.01743" lon="12.63083">
        <ele>61.607719</ele>
        <time>2020-08-14T08:48:33.385Z</time>
      </trkpt>
      <trkpt lat="66.01719" lon="12.63594">
        <ele>57.018486</ele>
        <time>2020-08-14T08:49:20.363Z</time>
      </trkpt>
      <trkpt lat="66.01635" lon="12.63937">
        <ele>63.747315</ele>
        <time>2020-08-14T08:50:53.352Z</time>
      </trkpt>
      <trkpt lat="66.01621" lon="12.64477">
        <ele>67.102539</ele>
        <time>2020-08-14T08:51:55.390Z</time>
      </trkpt>
      <trkpt lat="66.01647" lon="12.64967">
        <ele>78.236212</ele>
        <time>2020-08-14T08:53:30.361Z</time>
      </trkpt>
      <trkpt lat="66.01705" lon="12.65484">
        <ele>83.492808</ele>
        <time>2020-08-14T08:54:49.350Z</time>
      </trkpt>
      <trkpt lat="66.01797" lon="12.65917">
        <ele>88.781974</ele>
        <time>2020-08-14T08:55:54.397Z</time>
      </trkpt>
      <trkpt lat="66.01906" lon="12.66351">
        <ele>91.401447</ele>
        <time>2020-08-14T08:57:03.390Z</time>
      </trkpt>
      <trkpt lat="66.02043" lon="12.66908">
        <ele>82.402505</ele>
        <time>2020-08-14T08:57:45.383Z</time>
      </trkpt>
      <trkpt lat="66.02155" lon="12.67359">
        <ele>72.940923</ele>
        <time>2020-08-14T08:58:05.382Z</time>
      </trkpt>
      <trkpt lat="66.02282" lon="12.67914">
        <ele>66.159589</ele>
        <time>2020-08-14T08:58:26.379Z</time>
      </trkpt>
      <trkpt lat="66.02386" lon="12.68471">
        <ele>55.201608</ele>
        <time>2020-08-14T08:58:46.370Z</time>
      </trkpt>
      <trkpt lat="66.02462" lon="12.69036">
        <ele>49.724238</ele>
        <time>2020-08-14T08:59:12.373Z</time>
      </trkpt>
      <trkpt lat="66.02621" lon="12.69495">
        <ele>43.5607</ele>
        <time>2020-08-14T08:59:54.379Z</time>
      </trkpt>
      <trkpt lat="66.02863" lon="12.69609">
        <ele>43.283832</ele>
        <time>2020-08-14T09:00:34.418Z</time>
      </trkpt>
      <trkpt lat="66.02988" lon="12.70113">
        <ele>45.978243</ele>
        <time>2020-08-14T09:01:16.371Z</time>
      </trkpt>
      <trkpt lat="66.03102" lon="12.70638">
        <ele>44.859981</ele>
        <time>2020-08-14T09:01:56.400Z</time>
      </trkpt>
      <trkpt lat="66.03213" lon="12.71156">
        <ele>46.612731</ele>
        <time>2020-08-14T09:02:36.376Z</time>
      </trkpt>
      <trkpt lat="66.03276" lon="12.71715">
        <ele>48.574019</ele>
        <time>2020-08-14T09:03:19.357Z</time>
      </trkpt>
      <trkpt lat="66.03343" lon="12.72158">
        <ele>62.408926</ele>
        <time>2020-08-14T09:04:41.362Z</time>
      </trkpt>
      <trkpt lat="66.03548" lon="12.72156">
        <ele>73.404907</ele>
        <time>2020-08-14T09:06:26.376Z</time>
      </trkpt>
      <trkpt lat="66.03744" lon="12.72053">
        <ele>83.165832</ele>
        <time>2020-08-14T09:08:08.413Z</time>
      </trkpt>
      <trkpt lat="66.03948" lon="12.71948">
        <ele>87.935142</ele>
        <time>2020-08-14T09:09:22.386Z</time>
      </trkpt>
      <trkpt lat="66.04178" lon="12.7183">
        <ele>86.906138</ele>
        <time>2020-08-14T09:10:23.363Z</time>
      </trkpt>
      <trkpt lat="66.04387" lon="12.7206">
        <ele>87.802433</ele>
        <time>2020-08-14T09:11:18.368Z</time>
      </trkpt>
      <trkpt lat="66.04472" lon="12.72571">
        <ele>89.472928</ele>
        <time>2020-08-14T09:12:07.386Z</time>
      </trkpt>
      <trkpt lat="66.04558" lon="12.73061">
        <ele>88.715166</ele>
        <time>2020-08-14T09:12:47.395Z</time>
      </trkpt>
      <trkpt lat="66.04797" lon="12.73393">
        <ele>80.707903</ele>
        <time>2020-08-14T09:13:27.392Z</time>
      </trkpt>
      <trkpt lat="66.05034" lon="12.73737">
        <ele>68.817284</ele>
        <time>2020-08-14T09:14:05.388Z</time>
      </trkpt>
      <trkpt lat="66.05144" lon="12.74232">
        <ele>59.379036</ele>
        <time>2020-08-14T09:14:25.372Z</time>
      </trkpt>
      <trkpt lat="66.05245" lon="12.74781">
        <ele>59.464109</ele>
        <time>2020-08-14T09:14:53.372Z</time>
      </trkpt>
      <trkpt lat="66.05323" lon="12.7529">
        <ele>61.92391</ele>
        <time>2020-08-14T09:15:43.373Z</time>
      </trkpt>
      <trkpt lat="66.05435" lon="12.75801">
        <ele>59.734451</ele>
        <time>2020-08-14T09:16:30.413Z</time>
      </trkpt>
      <trkpt lat="66.05559" lon="12.76506">
        <ele>54.038569</ele>
        <time>2020-08-14T09:17:12.380Z</time>
      </trkpt>
      <trkpt lat="66.05664" lon="12.77067">
        <ele>53.1437</ele>
        <time>2020-08-14T09:17:55.375Z</time>
      </trkpt>
      <trkpt lat="66.05751" lon="12.77519">
        <ele>53.37396</ele>
        <time>2020-08-14T09:18:35.383Z</time>
      </trkpt>
      <trkpt lat="66.05865" lon="12.78151">
        <ele>50.260788</ele>
        <time>2020-08-14T09:19:17.383Z</time>
      </trkpt>
      <trkpt lat="66.0595" lon="12.78668">
        <ele>51.588931</ele>
        <time>2020-08-14T09:20:01.378Z</time>
      </trkpt>
      <trkpt lat="66.06008" lon="12.79295">
        <ele>56.628976</ele>
        <time>2020-08-14T09:21:02.370Z</time>
      </trkpt>
      <trkpt lat="66.0608" lon="12.79786">
        <ele>58.923866</ele>
        <time>2020-08-14T09:22:05.368Z</time>
      </trkpt>
      <trkpt lat="66.06169" lon="12.80256">
        <ele>63.136825</ele>
        <time>2020-08-14T09:23:13.372Z</time>
      </trkpt>
      <trkpt lat="66.06238" lon="12.80773">
        <ele>67.335993</ele>
        <time>2020-08-14T09:24:16.399Z</time>
      </trkpt>
      <trkpt lat="66.06302" lon="12.81314">
        <ele>65.679141</ele>
        <time>2020-08-14T09:25:09.395Z</time>
      </trkpt>
      <trkpt lat="66.06409" lon="12.81951">
        <ele>60.494371</ele>
        <time>2020-08-14T09:25:51.379Z</time>
      </trkpt>
      <trkpt lat="66.06503" lon="12.8243">
        <ele>56.339018</ele>
        <time>2020-08-14T09:26:14.386Z</time>
      </trkpt>
      <trkpt lat="66.06558" lon="12.82993">
        <ele>49.732033</ele>
        <time>2020-08-14T09:26:45.397Z</time>
      </trkpt>
      <trkpt lat="66.06596" lon="12.83635">
        <ele>46.829322</ele>
        <time>2020-08-14T09:27:18.367Z</time>
      </trkpt>
      <trkpt lat="66.06642" lon="12.84172">
        <ele>49.834232</ele>
        <time>2020-08-14T09:28:13.373Z</time>
      </trkpt>
      <trkpt lat="66.06675" lon="12.84664">
        <ele>52.458632</ele>
        <time>2020-08-14T09:29:16.383Z</time>
      </trkpt>
      <trkpt lat="66.06711" lon="12.85135">
        <ele>57.291663</ele>
        <time>2020-08-14T09:30:19.393Z</time>
      </trkpt>
      <trkpt lat="66.06746" lon="12.8566">
        <ele>59.949824</ele>
        <time>2020-08-14T09:31:25.428Z</time>
      </trkpt>
      <trkpt lat="66.06788" lon="12.86188">
        <ele>62.676009</ele>
        <time>2020-08-14T09:32:22.381Z</time>
      </trkpt>
      <trkpt lat="66.06832" lon="12.8672">
        <ele>63.228458</ele>
        <time>2020-08-14T09:33:13.417Z</time>
      </trkpt>
      <trkpt lat="66.06834" lon="12.87311">
        <ele>63.190024</ele>
        <time>2020-08-14T09:34:07.392Z</time>
      </trkpt>
      <trkpt lat="66.06826" lon="12.87849">
        <ele>62.103613</ele>
        <time>2020-08-14T09:34:58.381Z</time>
      </trkpt>
      <trkpt lat="66.06821" lon="12.88446">
        <ele>63.329683</ele>
        <time>2020-08-14T09:47:26.386Z</time>
      </trkpt>
      <trkpt lat="66.06822" lon="12.89041">
        <ele>64.532903</ele>
        <time>2020-08-14T09:48:29.371Z</time>
      </trkpt>
      <trkpt lat="66.06823" lon="12.89567">
        <ele>68.676511</ele>
        <time>2020-08-14T09:49:33.407Z</time>
      </trkpt>
      <trkpt lat="66.0681" lon="12.90069">
        <ele>72.763684</ele>
        <time>2020-08-14T09:50:39.391Z</time>
      </trkpt>
      <trkpt lat="66.06783" lon="12.90584">
        <ele>74.880303</ele>
        <time>2020-08-14T09:51:44.381Z</time>
      </trkpt>
      <trkpt lat="66.06755" lon="12.91135">
        <ele>75.664983</ele>
        <time>2020-08-14T09:52:44.383Z</time>
      </trkpt>
      <trkpt lat="66.06726" lon="12.9171">
        <ele>78.271522</ele>
        <time>2020-08-14T09:53:46.419Z</time>
      </trkpt>
      <trkpt lat="66.06699" lon="12.92207">
        <ele>75.576512</ele>
        <time>2020-08-14T09:54:30.394Z</time>
      </trkpt>
      <trkpt lat="66.06665" lon="12.92722">
        <ele>72.071797</ele>
        <time>2020-08-14T09:55:10.383Z</time>
      </trkpt>
      <trkpt lat="66.06575" lon="12.93315">
        <ele>66.939372</ele>
        <time>2020-08-14T09:55:52.372Z</time>
      </trkpt>
      <trkpt lat="66.06474" lon="12.93763">
        <ele>65.766309</ele>
        <time>2020-08-14T09:56:41.375Z</time>
      </trkpt>
      <trkpt lat="66.065" lon="12.93635">
        <ele>64.14955</ele>
        <time>2020-08-14T10:27:49.405Z</time>
      </trkpt>
      <trkpt lat="66.0642" lon="12.94095">
        <ele>68.081679</ele>
        <time>2020-08-14T10:28:38.377Z</time>
      </trkpt>
      <trkpt lat="66.06428" lon="12.94682">
        <ele>65.720512</ele>
        <time>2020-08-14T10:29:18.394Z</time>
      </trkpt>
      <trkpt lat="66.06554" lon="12.95173">
        <ele>60.359824</ele>
        <time>2020-08-14T10:30:00.432Z</time>
      </trkpt>
      <trkpt lat="66.06666" lon="12.95612">
        <ele>60.740166</ele>
        <time>2020-08-14T10:30:40.382Z</time>
      </trkpt>
      <trkpt lat="66.06766" lon="12.96146">
        <ele>62.284653</ele>
        <time>2020-08-14T10:31:22.409Z</time>
      </trkpt>
      <trkpt lat="66.06859" lon="12.9673">
        <ele>63.32308</ele>
        <time>2020-08-14T10:32:02.395Z</time>
      </trkpt>
      <trkpt lat="66.06917" lon="12.9726">
        <ele>62.607325</ele>
        <time>2020-08-14T10:32:42.421Z</time>
      </trkpt>
      <trkpt lat="66.06955" lon="12.98058">
        <ele>57.052103</ele>
        <time>2020-08-14T10:33:24.391Z</time>
      </trkpt>
      <trkpt lat="66.06997" lon="12.98734">
        <ele>54.923462</ele>
        <time>2020-08-14T10:34:04.376Z</time>
      </trkpt>
      <trkpt lat="66.07087" lon="12.99268">
        <ele>52.112001</ele>
        <time>2020-08-14T10:34:46.383Z</time>
      </trkpt>
      <trkpt lat="66.07193" lon="12.99789">
        <ele>50.432955</ele>
        <time>2020-08-14T10:35:26.389Z</time>
      </trkpt>
      <trkpt lat="66.0729" lon="13.00276">
        <ele>56.402985</ele>
        <time>2020-08-14T10:36:13.390Z</time>
      </trkpt>
      <trkpt lat="66.07389" lon="13.00795">
        <ele>64.491576</ele>
        <time>2020-08-14T10:37:16.401Z</time>
      </trkpt>
      <trkpt lat="66.0746" lon="13.01276">
        <ele>68.807803</ele>
        <time>2020-08-14T10:38:26.394Z</time>
      </trkpt>
      <trkpt lat="66.07593" lon="13.01783">
        <ele>62.987528</ele>
        <time>2020-08-14T10:39:04.392Z</time>
      </trkpt>
      <trkpt lat="66.0772" lon="13.02302">
        <ele>58.18017</ele>
        <time>2020-08-14T10:39:35.394Z</time>
      </trkpt>
      <trkpt lat="66.07842" lon="13.02742">
        <ele>63.604702</ele>
        <time>2020-08-14T10:40:26.431Z</time>
      </trkpt>
      <trkpt lat="66.07946" lon="13.03216">
        <ele>72.838996</ele>
        <time>2020-08-14T10:41:40.419Z</time>
      </trkpt>
      <trkpt lat="66.08012" lon="13.03711">
        <ele>77.873227</ele>
        <time>2020-08-14T10:42:40.416Z</time>
      </trkpt>
      <trkpt lat="66.0816" lon="13.04075">
        <ele>76.148853</ele>
        <time>2020-08-14T10:43:41.387Z</time>
      </trkpt>
      <trkpt lat="66.08359" lon="13.04392">
        <ele>77.014048</ele>
        <time>2020-08-14T10:44:35.378Z</time>
      </trkpt>
      <trkpt lat="66.08548" lon="13.04697">
        <ele>80.951145</ele>
        <time>2020-08-14T10:45:35.388Z</time>
      </trkpt>
      <trkpt lat="66.08734" lon="13.0499">
        <ele>89.496501</ele>
        <time>2020-08-14T10:46:46.393Z</time>
      </trkpt>
      <trkpt lat="66.08905" lon="13.05259">
        <ele>100.863</ele>
        <time>2020-08-14T10:48:11.382Z</time>
      </trkpt>
      <trkpt lat="66.09077" lon="13.05534">
        <ele>101.514311</ele>
        <time>2020-08-14T10:49:02.403Z</time>
      </trkpt>
      <trkpt lat="66.09322" lon="13.05782">
        <ele>99.638971</ele>
        <time>2020-08-14T10:49:44.431Z</time>
      </trkpt>
      <trkpt lat="66.09553" lon="13.05937">
        <ele>103.168915</ele>
        <time>2020-08-14T10:50:33.388Z</time>
      </trkpt>
      <trkpt lat="66.09789" lon="13.06094">
        <ele>98.427258</ele>
        <time>2020-08-14T10:51:01.403Z</time>
      </trkpt>
      <trkpt lat="66.10013" lon="13.06266">
        <ele>97.341237</ele>
        <time>2020-08-14T10:51:40.373Z</time>
      </trkpt>
      <trkpt lat="66.10242" lon="13.0659">
        <ele>92.055522</ele>
        <time>2020-08-14T10:52:20.400Z</time>
      </trkpt>
      <trkpt lat="66.10466" lon="13.06912">
        <ele>97.309022</ele>
        <time>2020-08-14T10:53:18.398Z</time>
      </trkpt>
      <trkpt lat="66.1068" lon="13.0718">
        <ele>103.287038</ele>
        <time>2020-08-14T10:54:18.379Z</time>
      </trkpt>
      <trkpt lat="66.10898" lon="13.07266">
        <ele>120.405708</ele>
        <time>2020-08-14T10:55:47.385Z</time>
      </trkpt>
      <trkpt lat="66.11089" lon="13.0748">
        <ele>124.357457</ele>
        <time>2020-08-14T10:56:59.396Z</time>
      </trkpt>
      <trkpt lat="66.11352" lon="13.07678">
        <ele>115.588256</ele>
        <time>2020-08-14T10:57:54.398Z</time>
      </trkpt>
      <trkpt lat="66.11434" lon="13.07196">
        <ele>114.990256</ele>
        <time>2020-08-14T10:59:02.416Z</time>
      </trkpt>
      <trkpt lat="66.11589" lon="13.06793">
        <ele>111.354912</ele>
        <time>2020-08-14T10:59:36.378Z</time>
      </trkpt>
      <trkpt lat="66.11778" lon="13.06451">
        <ele>111.701273</ele>
        <time>2020-08-14T11:00:18.398Z</time>
      </trkpt>
      <trkpt lat="66.11978" lon="13.0638">
        <ele>134.171143</ele>
        <time>2020-08-14T11:01:43.401Z</time>
      </trkpt>
      <trkpt lat="66.12169" lon="13.06532">
        <ele>152.856601</ele>
        <time>2020-08-14T11:03:19.374Z</time>
      </trkpt>
      <trkpt lat="66.12407" lon="13.06594">
        <ele>143.997115</ele>
        <time>2020-08-14T11:04:02.388Z</time>
      </trkpt>
      <trkpt lat="66.12625" lon="13.06585">
        <ele>147.430733</ele>
        <time>2020-08-14T11:05:11.391Z</time>
      </trkpt>
      <trkpt lat="66.12841" lon="13.06525">
        <ele>154.834711</ele>
        <time>2020-08-14T11:06:33.379Z</time>
      </trkpt>
      <trkpt lat="66.13088" lon="13.06568">
        <ele>145.345364</ele>
        <time>2020-08-14T11:07:01.382Z</time>
      </trkpt>
      <trkpt lat="66.13329" lon="13.06665">
        <ele>134.922748</ele>
        <time>2020-08-14T11:07:31.387Z</time>
      </trkpt>
      <trkpt lat="66.13605" lon="13.06706">
        <ele>127.01534</ele>
        <time>2020-08-14T11:08:06.388Z</time>
      </trkpt>
      <trkpt lat="66.13781" lon="13.07197">
        <ele>113.513383</ele>
        <time>2020-08-14T11:08:26.413Z</time>
      </trkpt>
      <trkpt lat="66.13824" lon="13.07826">
        <ele>92.633645</ele>
        <time>2020-08-14T11:08:46.395Z</time>
      </trkpt>
      <trkpt lat="66.14033" lon="13.08131">
        <ele>71.03275</ele>
        <time>2020-08-14T11:09:07.393Z</time>
      </trkpt>
      <trkpt lat="66.14236" lon="13.08404">
        <ele>56.175383</ele>
        <time>2020-08-14T11:09:27.381Z</time>
      </trkpt>
      <trkpt lat="66.14418" lon="13.0891">
        <ele>45.666827</ele>
        <time>2020-08-14T11:09:58.394Z</time>
      </trkpt>
      <trkpt lat="66.1468" lon="13.09163">
        <ele>38.593876</ele>
        <time>2020-08-14T11:10:32.448Z</time>
      </trkpt>
      <trkpt lat="66.14916" lon="13.09279">
        <ele>48.794253</ele>
        <time>2020-08-14T11:11:27.414Z</time>
      </trkpt>
      <trkpt lat="66.15096" lon="13.09544">
        <ele>74.38881</ele>
        <time>2020-08-14T11:12:57.401Z</time>
      </trkpt>
      <trkpt lat="66.15266" lon="13.09898">
        <ele>71.402551</ele>
        <time>2020-08-14T11:13:50.379Z</time>
      </trkpt>
      <trkpt lat="66.15417" lon="13.10028">
        <ele>55.25597</ele>
        <time>2020-08-14T11:14:35.440Z</time>
      </trkpt>
      <trkpt lat="66.15456" lon="13.09514">
        <ele>54.139598</ele>
        <time>2020-08-14T11:15:37.397Z</time>
      </trkpt>
      <trkpt lat="66.15483" lon="13.08947">
        <ele>52.021049</ele>
        <time>2020-08-14T11:16:28.377Z</time>
      </trkpt>
      <trkpt lat="66.15402" lon="13.08381">
        <ele>39.976793</ele>
        <time>2020-08-14T11:17:06.389Z</time>
      </trkpt>
      <trkpt lat="66.15441" lon="13.07639">
        <ele>49.992133</ele>
        <time>2020-08-14T11:58:03.877Z</time>
      </trkpt>
      <trkpt lat="66.1566" lon="13.07799">
        <ele>34.592701</ele>
        <time>2020-08-14T11:58:53.889Z</time>
      </trkpt>
      <trkpt lat="66.1587" lon="13.07787">
        <ele>29.486597</ele>
        <time>2020-08-14T11:59:36.867Z</time>
      </trkpt>
      <trkpt lat="66.16002" lon="13.07372">
        <ele>31.206891</ele>
        <time>2020-08-14T12:00:26.887Z</time>
      </trkpt>
      <trkpt lat="66.16104" lon="13.06872">
        <ele>34.542987</ele>
        <time>2020-08-14T12:01:11.869Z</time>
      </trkpt>
      <trkpt lat="66.16181" lon="13.06415">
        <ele>45.346026</ele>
        <time>2020-08-14T12:01:51.880Z</time>
      </trkpt>
      <trkpt lat="66.16276" lon="13.05938">
        <ele>50.966629</ele>
        <time>2020-08-14T12:02:35.868Z</time>
      </trkpt>
      <trkpt lat="66.16364" lon="13.05452">
        <ele>46.776788</ele>
        <time>2020-08-14T12:03:16.886Z</time>
      </trkpt>
      <trkpt lat="66.16458" lon="13.04974">
        <ele>40.334565</ele>
        <time>2020-08-14T12:04:00.891Z</time>
      </trkpt>
      <trkpt lat="66.16545" lon="13.04474">
        <ele>44.445729</ele>
        <time>2020-08-14T12:04:44.876Z</time>
      </trkpt>
      <trkpt lat="66.16637" lon="13.0402">
        <ele>47.403703</ele>
        <time>2020-08-14T12:05:26.879Z</time>
      </trkpt>
      <trkpt lat="66.16717" lon="13.03563">
        <ele>56.871242</ele>
        <time>2020-08-14T12:06:06.878Z</time>
      </trkpt>
      <trkpt lat="66.16817" lon="13.0309">
        <ele>71.578758</ele>
        <time>2020-08-14T12:06:48.892Z</time>
      </trkpt>
      <trkpt lat="66.16909" lon="13.02617">
        <ele>65.128456</ele>
        <time>2020-08-14T12:07:30.874Z</time>
      </trkpt>
      <trkpt lat="66.16994" lon="13.02129">
        <ele>44.440373</ele>
        <time>2020-08-14T12:08:12.900Z</time>
      </trkpt>
      <trkpt lat="66.17085" lon="13.01671">
        <ele>45.148805</ele>
        <time>2020-08-14T12:08:54.870Z</time>
      </trkpt>
      <trkpt lat="66.1718" lon="13.01193">
        <ele>47.451533</ele>
        <time>2020-08-14T12:09:36.886Z</time>
      </trkpt>
      <trkpt lat="66.17283" lon="13.00705">
        <ele>48.806057</ele>
        <time>2020-08-14T12:10:18.875Z</time>
      </trkpt>
      <trkpt lat="66.17454" lon="13.00395">
        <ele>50.922583</ele>
        <time>2020-08-14T12:11:04.878Z</time>
      </trkpt>
      <trkpt lat="66.17692" lon="13.00302">
        <ele>52.385836</ele>
        <time>2020-08-14T12:11:51.875Z</time>
      </trkpt>
      <trkpt lat="66.17909" lon="13.00167">
        <ele>48.41959</ele>
        <time>2020-08-14T12:12:35.900Z</time>
      </trkpt>
      <trkpt lat="66.18124" lon="13.0007">
        <ele>46.888093</ele>
        <time>2020-08-14T12:13:16.884Z</time>
      </trkpt>
      <trkpt lat="66.18364" lon="12.99972">
        <ele>51.832399</ele>
        <time>2020-08-14T12:14:02.873Z</time>
      </trkpt>
      <trkpt lat="66.1858" lon="12.99911">
        <ele>58.160786</ele>
        <time>2020-08-14T12:14:42.884Z</time>
      </trkpt>
      <trkpt lat="66.18807" lon="12.9991">
        <ele>62.860385</ele>
        <time>2020-08-14T12:15:26.869Z</time>
      </trkpt>
      <trkpt lat="66.19027" lon="12.99954">
        <ele>51.868992</ele>
        <time>2020-08-14T12:16:06.907Z</time>
      </trkpt>
      <trkpt lat="66.19243" lon="13.00034">
        <ele>36.610991</ele>
        <time>2020-08-14T12:16:47.875Z</time>
      </trkpt>
      <trkpt lat="66.1948" lon="13.00135">
        <ele>36.016769</ele>
        <time>2020-08-14T12:17:29.877Z</time>
      </trkpt>
      <trkpt lat="66.19693" lon="13.0027">
        <ele>28.301057</ele>
        <time>2020-08-14T12:18:09.883Z</time>
      </trkpt>
      <trkpt lat="66.19921" lon="13.0045">
        <ele>25.112932</ele>
        <time>2020-08-14T12:18:58.875Z</time>
      </trkpt>
      <trkpt lat="66.20092" lon="13.00736">
        <ele>39.337547</ele>
        <time>2020-08-14T12:20:03.872Z</time>
      </trkpt>
      <trkpt lat="66.20037" lon="13.01305">
        <ele>44.475602</ele>
        <time>2020-08-14T12:27:11.856Z</time>
      </trkpt>
      <trkpt lat="66.20012" lon="13.01787">
        <ele>46.185286</ele>
        <time>2020-08-14T12:28:21.875Z</time>
      </trkpt>
      <trkpt lat="66.20003" lon="13.02276">
        <ele>52.767496</ele>
        <time>2020-08-14T12:29:32.876Z</time>
      </trkpt>
      <trkpt lat="66.2003" lon="13.02832">
        <ele>53.558372</ele>
        <time>2020-08-14T12:30:27.886Z</time>
      </trkpt>
      <trkpt lat="66.20067" lon="13.03327">
        <ele>53.52402</ele>
        <time>2020-08-14T12:31:09.872Z</time>
      </trkpt>
      <trkpt lat="66.20247" lon="13.03707">
        <ele>48.507322</ele>
        <time>2020-08-14T12:31:49.873Z</time>
      </trkpt>
      <trkpt lat="66.20487" lon="13.04073">
        <ele>42.659975</ele>
        <time>2020-08-14T12:32:26.917Z</time>
      </trkpt>
      <trkpt lat="66.2067" lon="13.0442">
        <ele>42.754212</ele>
        <time>2020-08-14T12:33:06.869Z</time>
      </trkpt>
      <trkpt lat="66.20831" lon="13.04818">
        <ele>42.385086</ele>
        <time>2020-08-14T12:33:46.894Z</time>
      </trkpt>
      <trkpt lat="66.21016" lon="13.05218">
        <ele>41.837984</ele>
        <time>2020-08-14T12:34:28.896Z</time>
      </trkpt>
      <trkpt lat="66.21219" lon="13.05446">
        <ele>47.452334</ele>
        <time>2020-08-14T12:35:20.880Z</time>
      </trkpt>
      <trkpt lat="66.21444" lon="13.0574">
        <ele>45.541556</ele>
        <time>2020-08-14T12:36:02.875Z</time>
      </trkpt>
      <trkpt lat="66.21584" lon="13.0623">
        <ele>41.897079</ele>
        <time>2020-08-14T12:36:42.878Z</time>
      </trkpt>
      <trkpt lat="66.2176" lon="13.06656">
        <ele>39.12054</ele>
        <time>2020-08-14T12:37:22.876Z</time>
      </trkpt>
      <trkpt lat="66.21865" lon="13.07162">
        <ele>42.329846</ele>
        <time>2020-08-14T12:38:04.897Z</time>
      </trkpt>
      <trkpt lat="66.21956" lon="13.07642">
        <ele>42.960542</ele>
        <time>2020-08-14T12:38:47.865Z</time>
      </trkpt>
      <trkpt lat="66.22105" lon="13.08021">
        <ele>42.081305</ele>
        <time>2020-08-14T12:39:30.866Z</time>
      </trkpt>
      <trkpt lat="66.22274" lon="13.08476">
        <ele>45.099249</ele>
        <time>2020-08-14T12:40:30.894Z</time>
      </trkpt>
      <trkpt lat="66.22418" lon="13.08867">
        <ele>48.651341</ele>
        <time>2020-08-14T12:41:18.878Z</time>
      </trkpt>
      <trkpt lat="66.22568" lon="13.09245">
        <ele>57.793622</ele>
        <time>2020-08-14T12:42:23.871Z</time>
      </trkpt>
      <trkpt lat="66.22734" lon="13.09544">
        <ele>61.021058</ele>
        <time>2020-08-14T12:43:26.875Z</time>
      </trkpt>
      <trkpt lat="66.22915" lon="13.09837">
        <ele>61.851878</ele>
        <time>2020-08-14T12:44:37.866Z</time>
      </trkpt>
      <trkpt lat="66.23096" lon="13.1012">
        <ele>70.562413</ele>
        <time>2020-08-14T12:48:31.879Z</time>
      </trkpt>
      <trkpt lat="66.23257" lon="13.10472">
        <ele>72.110918</ele>
        <time>2020-08-14T12:49:35.889Z</time>
      </trkpt>
      <trkpt lat="66.23455" lon="13.10761">
        <ele>69.723151</ele>
        <time>2020-08-14T12:50:21.903Z</time>
      </trkpt>
      <trkpt lat="66.23621" lon="13.11266">
        <ele>63.199015</ele>
        <time>2020-08-14T12:51:01.870Z</time>
      </trkpt>
      <trkpt lat="66.23774" lon="13.11751">
        <ele>60.892746</ele>
        <time>2020-08-14T12:51:43.873Z</time>
      </trkpt>
      <trkpt lat="66.23969" lon="13.12227">
        <ele>58.770172</ele>
        <time>2020-08-14T12:52:23.877Z</time>
      </trkpt>
      <trkpt lat="66.24129" lon="13.12649">
        <ele>54.561306</ele>
        <time>2020-08-14T12:53:03.890Z</time>
      </trkpt>
      <trkpt lat="66.24214" lon="13.13172">
        <ele>55.405891</ele>
        <time>2020-08-14T12:53:47.889Z</time>
      </trkpt>
      <trkpt lat="66.24362" lon="13.13599">
        <ele>50.371099</ele>
        <time>2020-08-14T12:54:17.889Z</time>
      </trkpt>
      <trkpt lat="66.24557" lon="13.14066">
        <ele>42.349894</ele>
        <time>2020-08-14T12:54:54.909Z</time>
      </trkpt>
      <trkpt lat="66.24724" lon="13.1443">
        <ele>42.808185</ele>
        <time>2020-08-14T12:55:34.881Z</time>
      </trkpt>
      <trkpt lat="66.24865" lon="13.14913">
        <ele>45.401681</ele>
        <time>2020-08-14T12:56:33.887Z</time>
      </trkpt>
      <trkpt lat="66.24981" lon="13.15374">
        <ele>52.561467</ele>
        <time>2020-08-14T12:57:45.908Z</time>
      </trkpt>
      <trkpt lat="66.25138" lon="13.15755">
        <ele>54.982639</ele>
        <time>2020-08-14T12:58:41.879Z</time>
      </trkpt>
      <trkpt lat="66.25342" lon="13.16244">
        <ele>45.781111</ele>
        <time>2020-08-14T12:59:21.873Z</time>
      </trkpt>
      <trkpt lat="66.25512" lon="13.16711">
        <ele>43.708954</ele>
        <time>2020-08-14T13:00:03.889Z</time>
      </trkpt>
      <trkpt lat="66.25654" lon="13.17105">
        <ele>43.364595</ele>
        <time>2020-08-14T13:00:43.896Z</time>
      </trkpt>
      <trkpt lat="66.25817" lon="13.17536">
        <ele>45.252504</ele>
        <time>2020-08-14T13:01:28.928Z</time>
      </trkpt>
      <trkpt lat="66.25988" lon="13.17916">
        <ele>47.423333</ele>
        <time>2020-08-14T13:02:28.877Z</time>
      </trkpt>
      <trkpt lat="66.26197" lon="13.18183">
        <ele>48.477795</ele>
        <time>2020-08-14T13:03:25.876Z</time>
      </trkpt>
      <trkpt lat="66.26448" lon="13.18544">
        <ele>44.679046</ele>
        <time>2020-08-14T13:04:07.863Z</time>
      </trkpt>
      <trkpt lat="66.26595" lon="13.18888">
        <ele>45.86345</ele>
        <time>2020-08-14T13:05:05.879Z</time>
      </trkpt>
      <trkpt lat="66.26761" lon="13.19254">
        <ele>51.549033</ele>
        <time>2020-08-14T13:06:02.919Z</time>
      </trkpt>
      <trkpt lat="66.26895" lon="13.19647">
        <ele>61.141927</ele>
        <time>2020-08-14T13:07:11.891Z</time>
      </trkpt>
      <trkpt lat="66.27004" lon="13.20073">
        <ele>70.580411</ele>
        <time>2020-08-14T13:08:27.883Z</time>
      </trkpt>
      <trkpt lat="66.27171" lon="13.20407">
        <ele>79.450431</ele>
        <time>2020-08-14T13:09:57.916Z</time>
      </trkpt>
      <trkpt lat="66.27278" lon="13.20794">
        <ele>83.009288</ele>
        <time>2020-08-14T13:11:28.880Z</time>
      </trkpt>
      <trkpt lat="66.27249" lon="13.21323">
        <ele>85.223103</ele>
        <time>2020-08-14T13:12:53.907Z</time>
      </trkpt>
      <trkpt lat="66.27213" lon="13.21816">
        <ele>98.248189</ele>
        <time>2020-08-14T13:14:40.928Z</time>
      </trkpt>
      <trkpt lat="66.27112" lon="13.22215">
        <ele>114.81616</ele>
        <time>2020-08-14T13:16:49.888Z</time>
      </trkpt>
      <trkpt lat="66.27126" lon="13.22715">
        <ele>128.083637</ele>
        <time>2020-08-14T13:18:45.905Z</time>
      </trkpt>
      <trkpt lat="66.27234" lon="13.22958">
        <ele>145.844673</ele>
        <time>2020-08-14T13:20:35.875Z</time>
      </trkpt>
      <trkpt lat="66.27385" lon="13.23008">
        <ele>159.814701</ele>
        <time>2020-08-14T13:22:44.898Z</time>
      </trkpt>
      <trkpt lat="66.27518" lon="13.23341">
        <ele>175.899784</ele>
        <time>2020-08-14T13:25:06.877Z</time>
      </trkpt>
      <trkpt lat="66.27414" lon="13.23517">
        <ele>190.226094</ele>
        <time>2020-08-14T13:27:15.896Z</time>
      </trkpt>
      <trkpt lat="66.27351" lon="13.23974">
        <ele>205.412486</ele>
        <time>2020-08-14T13:29:40.887Z</time>
      </trkpt>
      <trkpt lat="66.27416" lon="13.24412">
        <ele>220.346014</ele>
        <time>2020-08-14T13:32:03.887Z</time>
      </trkpt>
      <trkpt lat="66.27432" lon="13.24903">
        <ele>238.509093</ele>
        <time>2020-08-14T13:34:21.879Z</time>
      </trkpt>
      <trkpt lat="66.27618" lon="13.24903">
        <ele>253.095369</ele>
        <time>2020-08-14T13:36:40.890Z</time>
      </trkpt>
      <trkpt lat="66.2779" lon="13.24824">
        <ele>261.129783</ele>
        <time>2020-08-14T13:38:43.932Z</time>
      </trkpt>
      <trkpt lat="66.27861" lon="13.24765">
        <ele>273.159211</ele>
        <time>2020-08-14T13:40:50.905Z</time>
      </trkpt>
      <trkpt lat="66.27855" lon="13.25248">
        <ele>288.225957</ele>
        <time>2020-08-14T13:43:01.916Z</time>
      </trkpt>
      <trkpt lat="66.27945" lon="13.25673">
        <ele>303.082836</ele>
        <time>2020-08-14T13:45:12.889Z</time>
      </trkpt>
      <trkpt lat="66.28094" lon="13.26026">
        <ele>318.339613</ele>
        <time>2020-08-14T13:47:32.883Z</time>
      </trkpt>
      <trkpt lat="66.28162" lon="13.26318">
        <ele>330.958645</ele>
        <time>2020-08-14T13:53:11.891Z</time>
      </trkpt>
      <trkpt lat="66.28103" lon="13.26763">
        <ele>348.611886</ele>
        <time>2020-08-14T13:55:50.889Z</time>
      </trkpt>
      <trkpt lat="66.28135" lon="13.2717">
        <ele>361.436409</ele>
        <time>2020-08-14T13:58:23.879Z</time>
      </trkpt>
      <trkpt lat="66.28259" lon="13.27546">
        <ele>368.539817</ele>
        <time>2020-08-14T14:00:14.880Z</time>
      </trkpt>
      <trkpt lat="66.28382" lon="13.28045">
        <ele>362.638015</ele>
        <time>2020-08-14T14:01:28.880Z</time>
      </trkpt>
      <trkpt lat="66.28507" lon="13.28593">
        <ele>354.549991</ele>
        <time>2020-08-14T14:02:08.882Z</time>
      </trkpt>
      <trkpt lat="66.28707" lon="13.28945">
        <ele>342.059228</ele>
        <time>2020-08-14T14:02:45.889Z</time>
      </trkpt>
      <trkpt lat="66.28764" lon="13.2952">
        <ele>323.416873</ele>
        <time>2020-08-14T14:03:05.915Z</time>
      </trkpt>
      <trkpt lat="66.28872" lon="13.3009">
        <ele>306.42707</ele>
        <time>2020-08-14T14:03:25.892Z</time>
      </trkpt>
      <trkpt lat="66.28988" lon="13.30592">
        <ele>302.401074</ele>
        <time>2020-08-14T14:04:07.888Z</time>
      </trkpt>
      <trkpt lat="66.29088" lon="13.3102">
        <ele>319.22222</ele>
        <time>2020-08-14T14:05:50.917Z</time>
      </trkpt>
      <trkpt lat="66.29164" lon="13.31472">
        <ele>337.985599</ele>
        <time>2020-08-14T14:08:25.885Z</time>
      </trkpt>
      <trkpt lat="66.29177" lon="13.31946">
        <ele>356.103356</ele>
        <time>2020-08-14T14:11:00.901Z</time>
      </trkpt>
      <trkpt lat="66.29257" lon="13.3239">
        <ele>365.110676</ele>
        <time>2020-08-14T14:12:53.903Z</time>
      </trkpt>
      <trkpt lat="66.2934" lon="13.3287">
        <ele>370.141095</ele>
        <time>2020-08-14T14:14:38.898Z</time>
      </trkpt>
      <trkpt lat="66.29416" lon="13.3333">
        <ele>375.644066</ele>
        <time>2020-08-14T14:16:17.894Z</time>
      </trkpt>
      <trkpt lat="66.29501" lon="13.33863">
        <ele>376.725516</ele>
        <time>2020-08-14T14:17:42.908Z</time>
      </trkpt>
      <trkpt lat="66.29552" lon="13.34397">
        <ele>370.250709</ele>
        <time>2020-08-14T14:18:26.894Z</time>
      </trkpt>
      <trkpt lat="66.29624" lon="13.35085">
        <ele>357.999222</ele>
        <time>2020-08-14T14:19:06.918Z</time>
      </trkpt>
      <trkpt lat="66.29693" lon="13.35657">
        <ele>345.931777</ele>
        <time>2020-08-14T14:19:33.910Z</time>
      </trkpt>
      <trkpt lat="66.29763" lon="13.36195">
        <ele>342.139195</ele>
        <time>2020-08-14T14:22:06.910Z</time>
      </trkpt>
      <trkpt lat="66.29776" lon="13.36879">
        <ele>333.513248</ele>
        <time>2020-08-14T14:22:44.896Z</time>
      </trkpt>
      <trkpt lat="66.29784" lon="13.3758">
        <ele>310.853879</ele>
        <time>2020-08-14T14:23:05.905Z</time>
      </trkpt>
      <trkpt lat="66.29785" lon="13.3838">
        <ele>282.77043</ele>
        <time>2020-08-14T14:23:25.884Z</time>
      </trkpt>
      <trkpt lat="66.29792" lon="13.39049">
        <ele>263.065135</ele>
        <time>2020-08-14T14:23:46.893Z</time>
      </trkpt>
      <trkpt lat="66.298" lon="13.39716">
        <ele>246.490784</ele>
        <time>2020-08-14T14:24:06.895Z</time>
      </trkpt>
      <trkpt lat="66.29822" lon="13.40348">
        <ele>238.243526</ele>
        <time>2020-08-14T14:24:30.896Z</time>
      </trkpt>
      <trkpt lat="66.29944" lon="13.40803">
        <ele>233.989018</ele>
        <time>2020-08-14T14:24:52.898Z</time>
      </trkpt>
      <trkpt lat="66.3001" lon="13.41383">
        <ele>224.846808</ele>
        <time>2020-08-14T14:25:19.882Z</time>
      </trkpt>
      <trkpt lat="66.29978" lon="13.41965">
        <ele>206.842215</ele>
        <time>2020-08-14T14:25:40.908Z</time>
      </trkpt>
      <trkpt lat="66.29886" lon="13.42459">
        <ele>185.720137</ele>
        <time>2020-08-14T14:26:00.907Z</time>
      </trkpt>
      <trkpt lat="66.29682" lon="13.42646">
        <ele>160.137063</ele>
        <time>2020-08-14T14:26:24.912Z</time>
      </trkpt>
      <trkpt lat="66.29511" lon="13.4297">
        <ele>141.844803</ele>
        <time>2020-08-14T14:26:47.911Z</time>
      </trkpt>
      <trkpt lat="66.29588" lon="13.44037">
        <ele>127.968464</ele>
        <time>2020-08-14T14:27:42.913Z</time>
      </trkpt>
      <trkpt lat="66.2952" lon="13.44632">
        <ele>110.501965</ele>
        <time>2020-08-14T14:28:03.909Z</time>
      </trkpt>
      <trkpt lat="66.29661" lon="13.45101">
        <ele>92.192288</ele>
        <time>2020-08-14T14:28:23.903Z</time>
      </trkpt>
      <trkpt lat="66.29856" lon="13.45376">
        <ele>75.546651</ele>
        <time>2020-08-14T14:28:43.917Z</time>
      </trkpt>
      <trkpt lat="66.30001" lon="13.45757">
        <ele>57.2474</ele>
        <time>2020-08-14T14:29:04.904Z</time>
      </trkpt>
      <trkpt lat="66.3003" lon="13.46359">
        <ele>43.872943</ele>
        <time>2020-08-14T14:29:24.912Z</time>
      </trkpt>
      <trkpt lat="66.30087" lon="13.46894">
        <ele>54.359149</ele>
        <time>2020-08-14T14:30:30.890Z</time>
      </trkpt>
      <trkpt lat="66.3015" lon="13.47382">
        <ele>60.219384</ele>
        <time>2020-08-14T14:31:50.872Z</time>
      </trkpt>
      <trkpt lat="66.30215" lon="13.47912">
        <ele>61.620446</ele>
        <time>2020-08-14T14:32:53.919Z</time>
      </trkpt>
      <trkpt lat="66.30274" lon="13.48418">
        <ele>64.643161</ele>
        <time>2020-08-14T14:34:23.937Z</time>
      </trkpt>
      <trkpt lat="66.30322" lon="13.48979">
        <ele>59.714971</ele>
        <time>2020-08-14T14:35:05.898Z</time>
      </trkpt>
      <trkpt lat="66.30392" lon="13.49676">
        <ele>54.179111</ele>
        <time>2020-08-14T14:35:46.891Z</time>
      </trkpt>
      <trkpt lat="66.30368" lon="13.5023">
        <ele>58.061503</ele>
        <time>2020-08-14T14:36:36.918Z</time>
      </trkpt>
      <trkpt lat="66.30284" lon="13.50716">
        <ele>61.295085</ele>
        <time>2020-08-14T14:37:45.917Z</time>
      </trkpt>
      <trkpt lat="66.30213" lon="13.51237">
        <ele>61.703534</ele>
        <time>2020-08-14T14:38:52.902Z</time>
      </trkpt>
      <trkpt lat="66.30082" lon="13.51647">
        <ele>64.107912</ele>
        <time>2020-08-14T14:39:52.906Z</time>
      </trkpt>
      <trkpt lat="66.29959" lon="13.52082">
        <ele>70.342199</ele>
        <time>2020-08-14T14:40:57.910Z</time>
      </trkpt>
      <trkpt lat="66.29854" lon="13.52557">
        <ele>76.176757</ele>
        <time>2020-08-14T14:42:14.913Z</time>
      </trkpt>
      <trkpt lat="66.29787" lon="13.53075">
        <ele>75.727092</ele>
        <time>2020-08-14T14:43:17.917Z</time>
      </trkpt>
      <trkpt lat="66.29733" lon="13.53839">
        <ele>68.534493</ele>
        <time>2020-08-14T14:43:59.902Z</time>
      </trkpt>
      <trkpt lat="66.29638" lon="13.54557">
        <ele>60.029956</ele>
        <time>2020-08-14T14:44:39.899Z</time>
      </trkpt>
      <trkpt lat="66.29562" lon="13.55163">
        <ele>57.629339</ele>
        <time>2020-08-14T14:45:19.908Z</time>
      </trkpt>
      <trkpt lat="66.29491" lon="13.55682">
        <ele>55.890972</ele>
        <time>2020-08-14T14:46:01.902Z</time>
      </trkpt>
      <trkpt lat="66.29367" lon="13.56105">
        <ele>53.82301</ele>
        <time>2020-08-14T14:46:43.930Z</time>
      </trkpt>
      <trkpt lat="66.29226" lon="13.5665">
        <ele>51.126876</ele>
        <time>2020-08-14T14:47:25.928Z</time>
      </trkpt>
      <trkpt lat="66.29287" lon="13.57029">
        <ele>55.809514</ele>
        <time>2020-08-14T14:50:10.895Z</time>
      </trkpt>
      <trkpt lat="66.29294" lon="13.57495">
        <ele>63.174625</ele>
        <time>2020-08-14T14:51:51.929Z</time>
      </trkpt>
      <trkpt lat="66.29135" lon="13.57625">
        <ele>59.519073</ele>
        <time>2020-08-14T14:53:04.910Z</time>
      </trkpt>
    </trkseg>
  </trk>
  <trk>
    <name><![CDATA[Tour d'Europe: étape 048]]></name>
    <trkseg>
      <trkpt lat="66.29224" lon="13.57601">
        <ele>61.132618</ele>
        <time>2020-08-15T07:32:59.635Z</time>
      </trkpt>
      <trkpt lat="66.29408" lon="13.57322">
        <ele>69.733587</ele>
        <time>2020-08-15T07:34:33.630Z</time>
      </trkpt>
      <trkpt lat="66.29642" lon="13.57283">
        <ele>70.117991</ele>
        <time>2020-08-15T07:38:35.645Z</time>
      </trkpt>
      <trkpt lat="66.29835" lon="13.56936">
        <ele>67.620553</ele>
        <time>2020-08-15T07:39:27.659Z</time>
      </trkpt>
      <trkpt lat="66.30018" lon="13.5658">
        <ele>72.110153</ele>
        <time>2020-08-15T07:40:30.639Z</time>
      </trkpt>
      <trkpt lat="66.30192" lon="13.56236">
        <ele>77.530161</ele>
        <time>2020-08-15T07:41:48.656Z</time>
      </trkpt>
      <trkpt lat="66.30321" lon="13.56185">
        <ele>78.705679</ele>
        <time>2020-08-15T07:42:53.634Z</time>
      </trkpt>
      <trkpt lat="66.30372" lon="13.56347">
        <ele>64.012916</ele>
        <time>2020-08-15T07:43:33.663Z</time>
      </trkpt>
      <trkpt lat="66.30496" lon="13.56714">
        <ele>51.028692</ele>
        <time>2020-08-15T07:43:55.626Z</time>
      </trkpt>
      <trkpt lat="66.30756" lon="13.56507">
        <ele>37.604097</ele>
        <time>2020-08-15T07:44:37.624Z</time>
      </trkpt>
      <trkpt lat="66.30896" lon="13.56125">
        <ele>41.682417</ele>
        <time>2020-08-15T07:45:22.665Z</time>
      </trkpt>
      <trkpt lat="66.30966" lon="13.55601">
        <ele>44.512495</ele>
        <time>2020-08-15T07:46:25.648Z</time>
      </trkpt>
      <trkpt lat="66.31078" lon="13.55131">
        <ele>46.488168</ele>
        <time>2020-08-15T07:47:19.637Z</time>
      </trkpt>
      <trkpt lat="66.31172" lon="13.54634">
        <ele>44.70025</ele>
        <time>2020-08-15T07:48:22.622Z</time>
      </trkpt>
      <trkpt lat="66.31334" lon="13.5425">
        <ele>40.21609</ele>
        <time>2020-08-15T07:49:13.643Z</time>
      </trkpt>
      <trkpt lat="66.3145" lon="13.53706">
        <ele>44.108122</ele>
        <time>2020-08-15T07:50:16.635Z</time>
      </trkpt>
      <trkpt lat="66.3152" lon="13.5316">
        <ele>48.939914</ele>
        <time>2020-08-15T07:51:19.675Z</time>
      </trkpt>
      <trkpt lat="66.31619" lon="13.52699">
        <ele>54.593035</ele>
        <time>2020-08-15T07:52:50.648Z</time>
      </trkpt>
      <trkpt lat="66.31794" lon="13.52432">
        <ele>66.561016</ele>
        <time>2020-08-15T07:54:47.644Z</time>
      </trkpt>
      <trkpt lat="66.31972" lon="13.52156">
        <ele>76.56212</ele>
        <time>2020-08-15T07:56:14.644Z</time>
      </trkpt>
      <trkpt lat="66.31969" lon="13.51567">
        <ele>66.245577</ele>
        <time>2020-08-15T07:56:56.654Z</time>
      </trkpt>
      <trkpt lat="66.32044" lon="13.51078">
        <ele>57.27607</ele>
        <time>2020-08-15T07:57:26.642Z</time>
      </trkpt>
      <trkpt lat="66.32103" lon="13.50497">
        <ele>50.797673</ele>
        <time>2020-08-15T07:58:08.701Z</time>
      </trkpt>
      <trkpt lat="66.32134" lon="13.49979">
        <ele>56.292739</ele>
        <time>2020-08-15T07:59:21.642Z</time>
      </trkpt>
      <trkpt lat="66.34737" lon="13.49049">
        <ele>79.797359</ele>
        <time>2020-08-15T08:16:42.641Z</time>
      </trkpt>
      <trkpt lat="66.34686" lon="13.48429">
        <ele>66.175334</ele>
        <time>2020-08-15T08:17:24.655Z</time>
      </trkpt>
      <trkpt lat="66.34499" lon="13.47751">
        <ele>52.8377</ele>
        <time>2020-08-15T08:18:06.662Z</time>
      </trkpt>
      <trkpt lat="66.34368" lon="13.47189">
        <ele>46.869978</ele>
        <time>2020-08-15T08:18:48.659Z</time>
      </trkpt>
      <trkpt lat="66.34294" lon="13.46689">
        <ele>43.975931</ele>
        <time>2020-08-15T08:19:30.656Z</time>
      </trkpt>
      <trkpt lat="66.34467" lon="13.46">
        <ele>48.415925</ele>
        <time>2020-08-15T08:20:50.666Z</time>
      </trkpt>
      <trkpt lat="66.34558" lon="13.45522">
        <ele>43.005074</ele>
        <time>2020-08-15T08:21:45.649Z</time>
      </trkpt>
      <trkpt lat="66.345" lon="13.45026">
        <ele>42.873517</ele>
        <time>2020-08-15T08:22:50.646Z</time>
      </trkpt>
      <trkpt lat="66.34585" lon="13.44502">
        <ele>45.285839</ele>
        <time>2020-08-15T08:23:48.656Z</time>
      </trkpt>
      <trkpt lat="66.3471" lon="13.44018">
        <ele>42.67166</ele>
        <time>2020-08-15T08:24:42.687Z</time>
      </trkpt>
      <trkpt lat="66.34906" lon="13.43755">
        <ele>44.872024</ele>
        <time>2020-08-15T08:25:40.665Z</time>
      </trkpt>
      <trkpt lat="66.34994" lon="13.4331">
        <ele>50.8681</ele>
        <time>2020-08-15T08:27:03.681Z</time>
      </trkpt>
      <trkpt lat="66.34886" lon="13.42751">
        <ele>46.83234</ele>
        <time>2020-08-15T08:27:56.666Z</time>
      </trkpt>
      <trkpt lat="66.34661" lon="13.42505">
        <ele>45.200153</ele>
        <time>2020-08-15T08:28:59.665Z</time>
      </trkpt>
      <trkpt lat="66.34461" lon="13.42256">
        <ele>42.381797</ele>
        <time>2020-08-15T08:30:04.666Z</time>
      </trkpt>
      <trkpt lat="66.34281" lon="13.419">
        <ele>43.604888</ele>
        <time>2020-08-15T08:31:04.658Z</time>
      </trkpt>
      <trkpt lat="66.34119" lon="13.41554">
        <ele>43.879235</ele>
        <time>2020-08-15T08:32:07.663Z</time>
      </trkpt>
      <trkpt lat="66.33968" lon="13.41156">
        <ele>42.116307</ele>
        <time>2020-08-15T08:32:47.650Z</time>
      </trkpt>
      <trkpt lat="66.33793" lon="13.40805">
        <ele>48.5161</ele>
        <time>2020-08-15T08:34:00.642Z</time>
      </trkpt>
      <trkpt lat="66.33667" lon="13.40369">
        <ele>44.68303</ele>
        <time>2020-08-15T08:35:09.662Z</time>
      </trkpt>
      <trkpt lat="66.33618" lon="13.3983">
        <ele>44.704733</ele>
        <time>2020-08-15T08:36:19.691Z</time>
      </trkpt>
      <trkpt lat="66.33569" lon="13.39306">
        <ele>44.230986</ele>
        <time>2020-08-15T08:37:38.659Z</time>
      </trkpt>
      <trkpt lat="66.33616" lon="13.3872">
        <ele>42.36911</ele>
        <time>2020-08-15T08:38:32.685Z</time>
      </trkpt>
      <trkpt lat="66.3366" lon="13.38144">
        <ele>39.242139</ele>
        <time>2020-08-15T08:39:21.643Z</time>
      </trkpt>
      <trkpt lat="66.33646" lon="13.37596">
        <ele>35.187256</ele>
        <time>2020-08-15T08:40:14.681Z</time>
      </trkpt>
      <trkpt lat="66.33646" lon="13.37037">
        <ele>41.253533</ele>
        <time>2020-08-15T08:41:10.646Z</time>
      </trkpt>
      <trkpt lat="66.33523" lon="13.36614">
        <ele>50.338748</ele>
        <time>2020-08-15T08:42:24.646Z</time>
      </trkpt>
      <trkpt lat="66.33322" lon="13.36416">
        <ele>50.078167</ele>
        <time>2020-08-15T08:43:39.681Z</time>
      </trkpt>
      <trkpt lat="66.33101" lon="13.36171">
        <ele>51.754677</ele>
        <time>2020-08-15T08:44:41.705Z</time>
      </trkpt>
      <trkpt lat="66.32933" lon="13.35808">
        <ele>55.197718</ele>
        <time>2020-08-15T08:45:59.652Z</time>
      </trkpt>
      <trkpt lat="66.32805" lon="13.3535">
        <ele>57.944642</ele>
        <time>2020-08-15T08:47:09.670Z</time>
      </trkpt>
      <trkpt lat="66.32715" lon="13.34834">
        <ele>60.280267</ele>
        <time>2020-08-15T08:48:24.673Z</time>
      </trkpt>
      <trkpt lat="66.32631" lon="13.34342">
        <ele>62.163356</ele>
        <time>2020-08-15T08:49:44.663Z</time>
      </trkpt>
      <trkpt lat="66.3255" lon="13.33874">
        <ele>64.402255</ele>
        <time>2020-08-15T08:50:48.646Z</time>
      </trkpt>
      <trkpt lat="66.32469" lon="13.33402">
        <ele>65.508574</ele>
        <time>2020-08-15T08:51:56.676Z</time>
      </trkpt>
      <trkpt lat="66.32345" lon="13.3292">
        <ele>65.292881</ele>
        <time>2020-08-15T08:52:59.667Z</time>
      </trkpt>
      <trkpt lat="66.32185" lon="13.32582">
        <ele>65.550686</ele>
        <time>2020-08-15T08:53:43.701Z</time>
      </trkpt>
      <trkpt lat="66.32074" lon="13.32135">
        <ele>61.348977</ele>
        <time>2020-08-15T08:54:29.674Z</time>
      </trkpt>
      <trkpt lat="66.31988" lon="13.3161">
        <ele>59.850043</ele>
        <time>2020-08-15T08:55:29.664Z</time>
      </trkpt>
      <trkpt lat="66.31905" lon="13.31079">
        <ele>59.976737</ele>
        <time>2020-08-15T08:56:27.653Z</time>
      </trkpt>
      <trkpt lat="66.31813" lon="13.30442">
        <ele>52.39322</ele>
        <time>2020-08-15T08:57:13.702Z</time>
      </trkpt>
      <trkpt lat="66.31705" lon="13.29933">
        <ele>52.258024</ele>
        <time>2020-08-15T08:58:09.665Z</time>
      </trkpt>
      <trkpt lat="66.3158" lon="13.29413">
        <ele>49.506725</ele>
        <time>2020-08-15T08:58:59.674Z</time>
      </trkpt>
      <trkpt lat="66.31486" lon="13.28859">
        <ele>50.638561</ele>
        <time>2020-08-15T09:00:02.664Z</time>
      </trkpt>
      <trkpt lat="66.31379" lon="13.2837">
        <ele>50.672967</ele>
        <time>2020-08-15T09:06:50.668Z</time>
      </trkpt>
      <trkpt lat="66.31311" lon="13.27872">
        <ele>50.878067</ele>
        <time>2020-08-15T09:08:19.666Z</time>
      </trkpt>
      <trkpt lat="66.31242" lon="13.27382">
        <ele>55.466211</ele>
        <time>2020-08-15T09:09:22.660Z</time>
      </trkpt>
      <trkpt lat="66.3117" lon="13.26846">
        <ele>52.440239</ele>
        <time>2020-08-15T09:10:20.669Z</time>
      </trkpt>
      <trkpt lat="66.31097" lon="13.2629">
        <ele>46.885098</ele>
        <time>2020-08-15T09:11:06.691Z</time>
      </trkpt>
      <trkpt lat="66.31024" lon="13.25773">
        <ele>48.787405</ele>
        <time>2020-08-15T09:12:09.700Z</time>
      </trkpt>
      <trkpt lat="66.30945" lon="13.25231">
        <ele>44.701582</ele>
        <time>2020-08-15T09:13:03.688Z</time>
      </trkpt>
      <trkpt lat="66.30869" lon="13.24696">
        <ele>43.547386</ele>
        <time>2020-08-15T09:14:07.709Z</time>
      </trkpt>
      <trkpt lat="66.30789" lon="13.24167">
        <ele>44.616304</ele>
        <time>2020-08-15T09:15:18.693Z</time>
      </trkpt>
      <trkpt lat="66.3072" lon="13.23649">
        <ele>41.840938</ele>
        <time>2020-08-15T09:16:07.662Z</time>
      </trkpt>
      <trkpt lat="66.30674" lon="13.23135">
        <ele>45.429222</ele>
        <time>2020-08-15T09:17:29.662Z</time>
      </trkpt>
      <trkpt lat="66.30626" lon="13.22631">
        <ele>46.514007</ele>
        <time>2020-08-15T09:18:35.683Z</time>
      </trkpt>
      <trkpt lat="66.30602" lon="13.22104">
        <ele>44.998424</ele>
        <time>2020-08-15T09:19:31.744Z</time>
      </trkpt>
      <trkpt lat="66.30584" lon="13.21554">
        <ele>46.159824</ele>
        <time>2020-08-15T09:20:45.677Z</time>
      </trkpt>
      <trkpt lat="66.30568" lon="13.21039">
        <ele>46.988924</ele>
        <time>2020-08-15T09:22:00.679Z</time>
      </trkpt>
      <trkpt lat="66.32509" lon="13.16161">
        <ele>45.722227</ele>
        <time>2020-08-15T09:35:34.667Z</time>
      </trkpt>
      <trkpt lat="66.32711" lon="13.164">
        <ele>50.502207</ele>
        <time>2020-08-15T09:37:41.673Z</time>
      </trkpt>
      <trkpt lat="66.32919" lon="13.16288">
        <ele>47.287079</ele>
        <time>2020-08-15T09:38:23.680Z</time>
      </trkpt>
      <trkpt lat="66.33088" lon="13.15964">
        <ele>45.076262</ele>
        <time>2020-08-15T09:39:05.681Z</time>
      </trkpt>
      <trkpt lat="66.33253" lon="13.15548">
        <ele>44.086683</ele>
        <time>2020-08-15T09:39:54.689Z</time>
      </trkpt>
      <trkpt lat="66.3335" lon="13.15082">
        <ele>43.012212</ele>
        <time>2020-08-15T09:40:58.656Z</time>
      </trkpt>
      <trkpt lat="66.33357" lon="13.14562">
        <ele>45.922954</ele>
        <time>2020-08-15T09:42:17.690Z</time>
      </trkpt>
      <trkpt lat="66.33213" lon="13.14149">
        <ele>48.225637</ele>
        <time>2020-08-15T09:43:19.671Z</time>
      </trkpt>
      <trkpt lat="66.33036" lon="13.13817">
        <ele>52.634873</ele>
        <time>2020-08-15T09:44:34.689Z</time>
      </trkpt>
      <trkpt lat="66.32885" lon="13.13473">
        <ele>56.286019</ele>
        <time>2020-08-15T09:45:48.686Z</time>
      </trkpt>
      <trkpt lat="66.32729" lon="13.13115">
        <ele>60.745379</ele>
        <time>2020-08-15T09:46:57.666Z</time>
      </trkpt>
      <trkpt lat="66.32585" lon="13.12729">
        <ele>62.62955</ele>
        <time>2020-08-15T09:48:29.666Z</time>
      </trkpt>
      <trkpt lat="66.32532" lon="13.12193">
        <ele>56.803559</ele>
        <time>2020-08-15T09:49:23.671Z</time>
      </trkpt>
      <trkpt lat="66.3245" lon="13.11681">
        <ele>65.141591</ele>
        <time>2020-08-15T09:50:46.682Z</time>
      </trkpt>
      <trkpt lat="66.32431" lon="13.11121">
        <ele>66.794956</ele>
        <time>2020-08-15T09:51:53.686Z</time>
      </trkpt>
      <trkpt lat="66.32325" lon="13.10587">
        <ele>69.263113</ele>
        <time>2020-08-15T09:52:56.681Z</time>
      </trkpt>
      <trkpt lat="66.322" lon="13.10165">
        <ele>76.876306</ele>
        <time>2020-08-15T09:54:19.567Z</time>
      </trkpt>
      <trkpt lat="66.32101" lon="13.09704">
        <ele>74.774185</ele>
        <time>2020-08-15T09:55:31.594Z</time>
      </trkpt>
      <trkpt lat="66.31998" lon="13.09199">
        <ele>69.95523</ele>
        <time>2020-08-15T09:56:18.605Z</time>
      </trkpt>
      <trkpt lat="66.31896" lon="13.08703">
        <ele>67.433167</ele>
        <time>2020-08-15T09:57:07.578Z</time>
      </trkpt>
      <trkpt lat="66.31807" lon="13.08185">
        <ele>64.56415</ele>
        <time>2020-08-15T09:58:03.587Z</time>
      </trkpt>
      <trkpt lat="66.3184" lon="13.07572">
        <ele>57.096555</ele>
        <time>2020-08-15T09:58:45.585Z</time>
      </trkpt>
      <trkpt lat="66.31871" lon="13.0705">
        <ele>60.305531</ele>
        <time>2020-08-15T09:59:39.590Z</time>
      </trkpt>
      <trkpt lat="66.31975" lon="13.06606">
        <ele>63.146821</ele>
        <time>2020-08-15T10:01:10.601Z</time>
      </trkpt>
      <trkpt lat="66.32183" lon="13.06246">
        <ele>55.592599</ele>
        <time>2020-08-15T10:01:54.575Z</time>
      </trkpt>
      <trkpt lat="66.32359" lon="13.05897">
        <ele>53.322813</ele>
        <time>2020-08-15T10:02:36.597Z</time>
      </trkpt>
      <trkpt lat="66.32427" lon="13.0537">
        <ele>52.069899</ele>
        <time>2020-08-15T10:03:25.573Z</time>
      </trkpt>
      <trkpt lat="66.32526" lon="13.04806">
        <ele>53.965139</ele>
        <time>2020-08-15T10:04:27.617Z</time>
      </trkpt>
      <trkpt lat="66.32679" lon="13.04428">
        <ele>61.537279</ele>
        <time>2020-08-15T10:05:50.616Z</time>
      </trkpt>
      <trkpt lat="66.32828" lon="13.04047">
        <ele>64.661367</ele>
        <time>2020-08-15T10:06:57.581Z</time>
      </trkpt>
      <trkpt lat="66.32958" lon="13.03657">
        <ele>66.547653</ele>
        <time>2020-08-15T10:08:08.600Z</time>
      </trkpt>
      <trkpt lat="66.33111" lon="13.03259">
        <ele>63.91561</ele>
        <time>2020-08-15T10:09:02.616Z</time>
      </trkpt>
      <trkpt lat="66.33317" lon="13.02926">
        <ele>60.677375</ele>
        <time>2020-08-15T10:09:47.586Z</time>
      </trkpt>
      <trkpt lat="66.33452" lon="13.02491">
        <ele>60.634041</ele>
        <time>2020-08-15T10:10:51.603Z</time>
      </trkpt>
      <trkpt lat="66.33596" lon="13.02043">
        <ele>58.245676</ele>
        <time>2020-08-15T10:11:33.592Z</time>
      </trkpt>
      <trkpt lat="66.33777" lon="13.01575">
        <ele>52.395169</ele>
        <time>2020-08-15T10:12:15.586Z</time>
      </trkpt>
      <trkpt lat="66.33922" lon="13.01144">
        <ele>56.584317</ele>
        <time>2020-08-15T10:13:09.569Z</time>
      </trkpt>
      <trkpt lat="66.34033" lon="13.0073">
        <ele>62.224692</ele>
        <time>2020-08-15T10:14:54.676Z</time>
      </trkpt>
      <trkpt lat="66.34257" lon="13.00571">
        <ele>60.049543</ele>
        <time>2020-08-15T10:15:42.589Z</time>
      </trkpt>
      <trkpt lat="66.3447" lon="13.00289">
        <ele>60.058127</ele>
        <time>2020-08-15T10:16:24.575Z</time>
      </trkpt>
      <trkpt lat="66.34655" lon="13.00157">
        <ele>64.449378</ele>
        <time>2020-08-15T10:17:46.612Z</time>
      </trkpt>
      <trkpt lat="66.3488" lon="13.00196">
        <ele>65.987071</ele>
        <time>2020-08-15T10:19:52.568Z</time>
      </trkpt>
      <trkpt lat="66.35101" lon="13.00248">
        <ele>68.007155</ele>
        <time>2020-08-15T10:20:44.599Z</time>
      </trkpt>
      <trkpt lat="66.35319" lon="13.00289">
        <ele>75.019106</ele>
        <time>2020-08-15T10:22:15.576Z</time>
      </trkpt>
      <trkpt lat="66.35517" lon="13.00177">
        <ele>89.698787</ele>
        <time>2020-08-15T10:24:12.607Z</time>
      </trkpt>
      <trkpt lat="66.35691" lon="13.00431">
        <ele>99.826222</ele>
        <time>2020-08-15T10:26:04.588Z</time>
      </trkpt>
      <trkpt lat="66.35811" lon="13.00904">
        <ele>98.281646</ele>
        <time>2020-08-15T10:26:49.576Z</time>
      </trkpt>
      <trkpt lat="66.35871" lon="13.01483">
        <ele>88.604453</ele>
        <time>2020-08-15T10:27:20.604Z</time>
      </trkpt>
      <trkpt lat="66.35958" lon="13.01949">
        <ele>76.337797</ele>
        <time>2020-08-15T10:27:41.575Z</time>
      </trkpt>
      <trkpt lat="66.36128" lon="13.02341">
        <ele>67.699525</ele>
        <time>2020-08-15T10:28:02.586Z</time>
      </trkpt>
      <trkpt lat="66.3633" lon="13.02636">
        <ele>57.411677</ele>
        <time>2020-08-15T10:28:22.589Z</time>
      </trkpt>
      <trkpt lat="66.36467" lon="13.03016">
        <ele>46.761597</ele>
        <time>2020-08-15T10:28:43.602Z</time>
      </trkpt>
      <trkpt lat="66.36612" lon="13.03494">
        <ele>41.204445</ele>
        <time>2020-08-15T10:29:11.602Z</time>
      </trkpt>
      <trkpt lat="66.3676" lon="13.03977">
        <ele>39.332652</ele>
        <time>2020-08-15T10:30:04.581Z</time>
      </trkpt>
      <trkpt lat="66.3688" lon="13.04479">
        <ele>45.24627</ele>
        <time>2020-08-15T10:31:06.584Z</time>
      </trkpt>
      <trkpt lat="66.36997" lon="13.04978">
        <ele>43.466924</ele>
        <time>2020-08-15T10:31:52.593Z</time>
      </trkpt>
      <trkpt lat="66.37107" lon="13.05443">
        <ele>43.910719</ele>
        <time>2020-08-15T10:32:34.589Z</time>
      </trkpt>
      <trkpt lat="66.37229" lon="13.05957">
        <ele>44.964722</ele>
        <time>2020-08-15T10:33:16.602Z</time>
      </trkpt>
      <trkpt lat="66.37345" lon="13.06451">
        <ele>45.276963</ele>
        <time>2020-08-15T10:33:58.587Z</time>
      </trkpt>
      <trkpt lat="66.37445" lon="13.06941">
        <ele>45.742411</ele>
        <time>2020-08-15T10:34:40.590Z</time>
      </trkpt>
      <trkpt lat="66.37537" lon="13.07469">
        <ele>45.525095</ele>
        <time>2020-08-15T10:35:22.584Z</time>
      </trkpt>
      <trkpt lat="66.37636" lon="13.07934">
        <ele>50.330045</ele>
        <time>2020-08-15T10:36:17.593Z</time>
      </trkpt>
      <trkpt lat="66.37771" lon="13.08495">
        <ele>52.993811</ele>
        <time>2020-08-15T10:37:01.617Z</time>
      </trkpt>
      <trkpt lat="66.37897" lon="13.08998">
        <ele>53.221895</ele>
        <time>2020-08-15T10:37:43.572Z</time>
      </trkpt>
      <trkpt lat="66.38055" lon="13.09433">
        <ele>51.185032</ele>
        <time>2020-08-15T10:38:36.584Z</time>
      </trkpt>
      <trkpt lat="66.38265" lon="13.09803">
        <ele>48.873956</ele>
        <time>2020-08-15T10:39:39.616Z</time>
      </trkpt>
      <trkpt lat="66.38461" lon="13.10138">
        <ele>50.15822</ele>
        <time>2020-08-15T10:40:30.597Z</time>
      </trkpt>
      <trkpt lat="66.38593" lon="13.10603">
        <ele>51.417059</ele>
        <time>2020-08-15T10:41:25.586Z</time>
      </trkpt>
      <trkpt lat="66.38686" lon="13.11242">
        <ele>44.813801</ele>
        <time>2020-08-15T10:42:07.615Z</time>
      </trkpt>
      <trkpt lat="66.38795" lon="13.11741">
        <ele>46.521656</ele>
        <time>2020-08-15T10:42:49.606Z</time>
      </trkpt>
      <trkpt lat="66.38957" lon="13.12147">
        <ele>46.750483</ele>
        <time>2020-08-15T10:43:42.580Z</time>
      </trkpt>
      <trkpt lat="66.3914" lon="13.12434">
        <ele>47.02002</ele>
        <time>2020-08-15T10:44:29.608Z</time>
      </trkpt>
      <trkpt lat="66.39332" lon="13.12653">
        <ele>46.961002</ele>
        <time>2020-08-15T10:45:13.596Z</time>
      </trkpt>
      <trkpt lat="66.39525" lon="13.12942">
        <ele>44.296558</ele>
        <time>2020-08-15T10:45:55.594Z</time>
      </trkpt>
      <trkpt lat="66.39713" lon="13.13204">
        <ele>45.389797</ele>
        <time>2020-08-15T10:46:37.594Z</time>
      </trkpt>
      <trkpt lat="66.39818" lon="13.1363">
        <ele>46.462139</ele>
        <time>2020-08-15T10:47:19.631Z</time>
      </trkpt>
      <trkpt lat="66.39912" lon="13.14108">
        <ele>45.16184</ele>
        <time>2020-08-15T10:48:02.588Z</time>
      </trkpt>
      <trkpt lat="66.40013" lon="13.14573">
        <ele>45.807437</ele>
        <time>2020-08-15T10:48:44.592Z</time>
      </trkpt>
      <trkpt lat="66.40039" lon="13.15111">
        <ele>46.336544</ele>
        <time>2020-08-15T10:49:26.579Z</time>
      </trkpt>
      <trkpt lat="66.40136" lon="13.15604">
        <ele>47.341322</ele>
        <time>2020-08-15T10:50:14.604Z</time>
      </trkpt>
      <trkpt lat="66.40332" lon="13.15812">
        <ele>46.822966</ele>
        <time>2020-08-15T10:51:02.624Z</time>
      </trkpt>
      <trkpt lat="66.40548" lon="13.15942">
        <ele>46.144896</ele>
        <time>2020-08-15T10:51:54.591Z</time>
      </trkpt>
      <trkpt lat="66.40779" lon="13.16004">
        <ele>52.075696</ele>
        <time>2020-08-15T10:52:53.584Z</time>
      </trkpt>
      <trkpt lat="66.41018" lon="13.1585">
        <ele>52.211776</ele>
        <time>2020-08-15T10:53:46.597Z</time>
      </trkpt>
      <trkpt lat="66.41249" lon="13.1573">
        <ele>49.419023</ele>
        <time>2020-08-15T10:54:43.609Z</time>
      </trkpt>
      <trkpt lat="66.41467" lon="13.15398">
        <ele>47.564622</ele>
        <time>2020-08-15T10:55:46.620Z</time>
      </trkpt>
      <trkpt lat="66.41707" lon="13.15256">
        <ele>47.9274</ele>
        <time>2020-08-15T10:58:41.593Z</time>
      </trkpt>
      <trkpt lat="66.41938" lon="13.15163">
        <ele>56.005925</ele>
        <time>2020-08-15T10:59:33.590Z</time>
      </trkpt>
      <trkpt lat="66.42164" lon="13.15064">
        <ele>61.849484</ele>
        <time>2020-08-15T11:00:25.592Z</time>
      </trkpt>
      <trkpt lat="66.42358" lon="13.14784">
        <ele>59.13968</ele>
        <time>2020-08-15T11:01:25.602Z</time>
      </trkpt>
      <trkpt lat="66.42558" lon="13.14554">
        <ele>62.827083</ele>
        <time>2020-08-15T11:02:37.579Z</time>
      </trkpt>
      <trkpt lat="66.42739" lon="13.14297">
        <ele>69.594918</ele>
        <time>2020-08-15T11:03:41.600Z</time>
      </trkpt>
      <trkpt lat="66.42998" lon="13.14236">
        <ele>65.437974</ele>
        <time>2020-08-15T11:04:23.583Z</time>
      </trkpt>
      <trkpt lat="66.43247" lon="13.14571">
        <ele>64.082742</ele>
        <time>2020-08-15T11:05:07.613Z</time>
      </trkpt>
      <trkpt lat="66.43486" lon="13.14948">
        <ele>56.030509</ele>
        <time>2020-08-15T11:05:43.592Z</time>
      </trkpt>
      <trkpt lat="66.43681" lon="13.15198">
        <ele>68.16645</ele>
        <time>2020-08-15T11:07:02.597Z</time>
      </trkpt>
      <trkpt lat="66.43863" lon="13.15436">
        <ele>80.842639</ele>
        <time>2020-08-15T11:09:12.631Z</time>
      </trkpt>
      <trkpt lat="66.44059" lon="13.15422">
        <ele>95.599525</ele>
        <time>2020-08-15T11:11:12.616Z</time>
      </trkpt>
      <trkpt lat="66.44208" lon="13.15068">
        <ele>107.592459</ele>
        <time>2020-08-15T11:13:24.573Z</time>
      </trkpt>
      <trkpt lat="66.4439" lon="13.14918">
        <ele>110.610736</ele>
        <time>2020-08-15T11:15:00.595Z</time>
      </trkpt>
      <trkpt lat="66.44556" lon="13.15305">
        <ele>111.709354</ele>
        <time>2020-08-15T11:16:02.593Z</time>
      </trkpt>
      <trkpt lat="66.4471" lon="13.1573">
        <ele>110.501359</ele>
        <time>2020-08-15T11:16:55.588Z</time>
      </trkpt>
      <trkpt lat="66.44821" lon="13.16164">
        <ele>113.628311</ele>
        <time>2020-08-15T11:17:50.593Z</time>
      </trkpt>
      <trkpt lat="66.44862" lon="13.1679">
        <ele>114.232124</ele>
        <time>2020-08-15T11:18:43.628Z</time>
      </trkpt>
      <trkpt lat="66.44795" lon="13.1727">
        <ele>129.604892</ele>
        <time>2020-08-15T11:20:25.598Z</time>
      </trkpt>
      <trkpt lat="66.44936" lon="13.17728">
        <ele>127.925848</ele>
        <time>2020-08-15T11:21:29.603Z</time>
      </trkpt>
      <trkpt lat="66.45036" lon="13.18201">
        <ele>134.03943</ele>
        <time>2020-08-15T11:22:45.610Z</time>
      </trkpt>
      <trkpt lat="66.45096" lon="13.18689">
        <ele>147.151718</ele>
        <time>2020-08-15T11:24:33.629Z</time>
      </trkpt>
      <trkpt lat="66.45154" lon="13.19207">
        <ele>158.482262</ele>
        <time>2020-08-15T11:27:32.582Z</time>
      </trkpt>
      <trkpt lat="66.45255" lon="13.1978">
        <ele>148.771418</ele>
        <time>2020-08-15T11:28:09.609Z</time>
      </trkpt>
      <trkpt lat="66.454" lon="13.20387">
        <ele>135.601238</ele>
        <time>2020-08-15T11:28:30.614Z</time>
      </trkpt>
      <trkpt lat="66.4564" lon="13.20627">
        <ele>134.052725</ele>
        <time>2020-08-15T11:29:35.599Z</time>
      </trkpt>
      <trkpt lat="66.45836" lon="13.20831">
        <ele>128.141347</ele>
        <time>2020-08-15T11:30:23.599Z</time>
      </trkpt>
      <trkpt lat="66.45829" lon="13.21398">
        <ele>111.63778</ele>
        <time>2020-08-15T11:30:45.604Z</time>
      </trkpt>
      <trkpt lat="66.45965" lon="13.21867">
        <ele>96.544343</ele>
        <time>2020-08-15T11:31:07.593Z</time>
      </trkpt>
      <trkpt lat="66.46149" lon="13.22369">
        <ele>73.114146</ele>
        <time>2020-08-15T11:31:35.588Z</time>
      </trkpt>
      <trkpt lat="66.46312" lon="13.22822">
        <ele>71.397768</ele>
        <time>2020-08-15T11:32:25.619Z</time>
      </trkpt>
      <trkpt lat="66.46518" lon="13.22975">
        <ele>85.460763</ele>
        <time>2020-08-15T11:33:39.619Z</time>
      </trkpt>
      <trkpt lat="66.46703" lon="13.2319">
        <ele>97.725</ele>
        <time>2020-08-15T11:36:00.594Z</time>
      </trkpt>
      <trkpt lat="66.46938" lon="13.23362">
        <ele>93.860411</ele>
        <time>2020-08-15T11:36:39.599Z</time>
      </trkpt>
      <trkpt lat="66.4711" lon="13.23643">
        <ele>78.10514</ele>
        <time>2020-08-15T11:37:00.591Z</time>
      </trkpt>
      <trkpt lat="66.47314" lon="13.2377">
        <ele>60.921191</ele>
        <time>2020-08-15T11:37:21.599Z</time>
      </trkpt>
      <trkpt lat="66.4755" lon="13.23975">
        <ele>58.696791</ele>
        <time>2020-08-15T11:37:52.604Z</time>
      </trkpt>
      <trkpt lat="66.47757" lon="13.24148">
        <ele>65.114468</ele>
        <time>2020-08-15T11:39:05.614Z</time>
      </trkpt>
      <trkpt lat="66.47965" lon="13.24131">
        <ele>75.962952</ele>
        <time>2020-08-15T11:40:44.593Z</time>
      </trkpt>
      <trkpt lat="66.48148" lon="13.24355">
        <ele>87.657381</ele>
        <time>2020-08-15T11:43:00.603Z</time>
      </trkpt>
      <trkpt lat="66.48398" lon="13.24333">
        <ele>79.854105</ele>
        <time>2020-08-15T11:43:50.598Z</time>
      </trkpt>
      <trkpt lat="66.48574" lon="13.23958">
        <ele>70.853388</ele>
        <time>2020-08-15T11:44:13.584Z</time>
      </trkpt>
      <trkpt lat="66.48759" lon="13.23637">
        <ele>65.181544</ele>
        <time>2020-08-15T11:44:55.582Z</time>
      </trkpt>
      <trkpt lat="66.48799" lon="13.23145">
        <ele>55.243049</ele>
        <time>2020-08-15T11:46:09.603Z</time>
      </trkpt>
      <trkpt lat="66.48703" lon="13.22665">
        <ele>38.518341</ele>
        <time>2020-08-15T11:46:48.612Z</time>
      </trkpt>
      <trkpt lat="66.48916" lon="13.22806">
        <ele>41.853128</ele>
        <time>2020-08-15T11:53:10.594Z</time>
      </trkpt>
      <trkpt lat="66.491" lon="13.23027">
        <ele>28.290654</ele>
        <time>2020-08-15T12:02:50.600Z</time>
      </trkpt>
      <trkpt lat="66.49328" lon="13.23119">
        <ele>23.377819</ele>
        <time>2020-08-15T12:03:41.646Z</time>
      </trkpt>
      <trkpt lat="66.49558" lon="13.23182">
        <ele>21.009113</ele>
        <time>2020-08-15T12:04:23.615Z</time>
      </trkpt>
      <trkpt lat="66.49797" lon="13.23262">
        <ele>19.887669</ele>
        <time>2020-08-15T12:05:06.645Z</time>
      </trkpt>
      <trkpt lat="66.51377" lon="13.23584">
        <ele>29.730612</ele>
        <time>2020-08-15T12:09:45.217Z</time>
      </trkpt>
      <trkpt lat="66.51602" lon="13.23509">
        <ele>21.945937</ele>
        <time>2020-08-15T12:10:27.232Z</time>
      </trkpt>
      <trkpt lat="66.51827" lon="13.23323">
        <ele>17.639062</ele>
        <time>2020-08-15T12:11:09.211Z</time>
      </trkpt>
      <trkpt lat="66.52046" lon="13.23131">
        <ele>16.265178</ele>
        <time>2020-08-15T12:11:51.248Z</time>
      </trkpt>
      <trkpt lat="66.52272" lon="13.22944">
        <ele>12.538398</ele>
        <time>2020-08-15T12:12:33.246Z</time>
      </trkpt>
      <trkpt lat="66.52498" lon="13.22757">
        <ele>7.259144</ele>
        <time>2020-08-15T12:13:15.218Z</time>
      </trkpt>
      <trkpt lat="66.52715" lon="13.22579">
        <ele>7.144738</ele>
        <time>2020-08-15T12:13:57.239Z</time>
      </trkpt>
      <trkpt lat="66.52939" lon="13.22406">
        <ele>16.602731</ele>
        <time>2020-08-15T12:14:38.221Z</time>
      </trkpt>
      <trkpt lat="66.53167" lon="13.22211">
        <ele>20.047273</ele>
        <time>2020-08-15T12:15:22.234Z</time>
      </trkpt>
      <trkpt lat="66.53387" lon="13.22042">
        <ele>17.743134</ele>
        <time>2020-08-15T12:16:04.212Z</time>
      </trkpt>
      <trkpt lat="66.53606" lon="13.21871">
        <ele>16.1734</ele>
        <time>2020-08-15T12:16:46.218Z</time>
      </trkpt>
      <trkpt lat="66.5382" lon="13.21699">
        <ele>16.688526</ele>
        <time>2020-08-15T12:17:28.267Z</time>
      </trkpt>
      <trkpt lat="66.54027" lon="13.21483">
        <ele>24.249483</ele>
        <time>2020-08-15T12:18:10.204Z</time>
      </trkpt>
      <trkpt lat="66.54228" lon="13.21251">
        <ele>24.475132</ele>
        <time>2020-08-15T12:18:52.233Z</time>
      </trkpt>
      <trkpt lat="66.54426" lon="13.20991">
        <ele>22.42435</ele>
        <time>2020-08-15T12:19:37.254Z</time>
      </trkpt>
      <trkpt lat="66.5463" lon="13.20726">
        <ele>22.265916</ele>
        <time>2020-08-15T12:20:20.225Z</time>
      </trkpt>
      <trkpt lat="66.54823" lon="13.20472">
        <ele>29.021585</ele>
        <time>2020-08-15T12:21:02.241Z</time>
      </trkpt>
      <trkpt lat="66.55011" lon="13.20238">
        <ele>28.903667</ele>
        <time>2020-08-15T12:21:43.251Z</time>
      </trkpt>
      <trkpt lat="66.55208" lon="13.19951">
        <ele>22.326671</ele>
        <time>2020-08-15T12:22:26.241Z</time>
      </trkpt>
      <trkpt lat="66.55397" lon="13.1968">
        <ele>15.15546</ele>
        <time>2020-08-15T12:23:08.201Z</time>
      </trkpt>
      <trkpt lat="66.55588" lon="13.19421">
        <ele>20.936997</ele>
        <time>2020-08-15T12:23:50.230Z</time>
      </trkpt>
      <trkpt lat="66.55784" lon="13.19148">
        <ele>23.459932</ele>
        <time>2020-08-15T12:24:32.209Z</time>
      </trkpt>
      <trkpt lat="66.55979" lon="13.18875">
        <ele>29.044937</ele>
        <time>2020-08-15T12:25:14.205Z</time>
      </trkpt>
      <trkpt lat="66.56183" lon="13.1857">
        <ele>35.149479</ele>
        <time>2020-08-15T12:25:56.249Z</time>
      </trkpt>
      <trkpt lat="66.56388" lon="13.18275">
        <ele>35.087972</ele>
        <time>2020-08-15T12:26:39.207Z</time>
      </trkpt>
      <trkpt lat="66.56613" lon="13.18002">
        <ele>25.17056</ele>
        <time>2020-08-15T12:27:21.221Z</time>
      </trkpt>
      <trkpt lat="66.56828" lon="13.1776">
        <ele>22.736086</ele>
        <time>2020-08-15T12:28:03.239Z</time>
      </trkpt>
      <trkpt lat="66.57049" lon="13.17539">
        <ele>23.920598</ele>
        <time>2020-08-15T12:28:43.200Z</time>
      </trkpt>
      <trkpt lat="66.5728" lon="13.17391">
        <ele>22.142322</ele>
        <time>2020-08-15T12:29:25.209Z</time>
      </trkpt>
      <trkpt lat="66.575" lon="13.17551">
        <ele>21.412207</ele>
        <time>2020-08-15T12:30:07.198Z</time>
      </trkpt>
      <trkpt lat="66.57721" lon="13.178">
        <ele>18.845063</ele>
        <time>2020-08-15T12:30:49.267Z</time>
      </trkpt>
      <trkpt lat="66.57945" lon="13.18051">
        <ele>19.83427</ele>
        <time>2020-08-15T12:31:31.263Z</time>
      </trkpt>
      <trkpt lat="66.58169" lon="13.1831">
        <ele>22.083329</ele>
        <time>2020-08-15T12:32:13.245Z</time>
      </trkpt>
      <trkpt lat="66.58396" lon="13.18568">
        <ele>25.793307</ele>
        <time>2020-08-15T12:32:55.211Z</time>
      </trkpt>
      <trkpt lat="66.58628" lon="13.18835">
        <ele>27.438638</ele>
        <time>2020-08-15T12:33:38.208Z</time>
      </trkpt>
      <trkpt lat="66.58852" lon="13.19098">
        <ele>20.661569</ele>
        <time>2020-08-15T12:34:20.239Z</time>
      </trkpt>
      <trkpt lat="66.59073" lon="13.1936">
        <ele>26.409861</ele>
        <time>2020-08-15T12:35:02.222Z</time>
      </trkpt>
      <trkpt lat="66.59283" lon="13.19607">
        <ele>28.189828</ele>
        <time>2020-08-15T12:35:42.269Z</time>
      </trkpt>
      <trkpt lat="66.59505" lon="13.19881">
        <ele>25.857923</ele>
        <time>2020-08-15T12:36:24.242Z</time>
      </trkpt>
      <trkpt lat="66.59719" lon="13.20135">
        <ele>25.721959</ele>
        <time>2020-08-15T12:37:06.228Z</time>
      </trkpt>
      <trkpt lat="66.59938" lon="13.20399">
        <ele>21.880165</ele>
        <time>2020-08-15T12:37:48.243Z</time>
      </trkpt>
      <trkpt lat="66.60155" lon="13.20671">
        <ele>18.792147</ele>
        <time>2020-08-15T12:38:30.207Z</time>
      </trkpt>
      <trkpt lat="66.60375" lon="13.20952">
        <ele>22.50246</ele>
        <time>2020-08-15T12:39:12.205Z</time>
      </trkpt>
      <trkpt lat="66.60596" lon="13.21201">
        <ele>31.417609</ele>
        <time>2020-08-15T12:39:54.202Z</time>
      </trkpt>
      <trkpt lat="66.60822" lon="13.21453">
        <ele>27.836904</ele>
        <time>2020-08-15T12:40:36.217Z</time>
      </trkpt>
      <trkpt lat="66.61035" lon="13.21737">
        <ele>23.825628</ele>
        <time>2020-08-15T12:41:18.213Z</time>
      </trkpt>
      <trkpt lat="66.61254" lon="13.22018">
        <ele>18.615588</ele>
        <time>2020-08-15T12:42:00.202Z</time>
      </trkpt>
      <trkpt lat="66.61456" lon="13.22347">
        <ele>14.929936</ele>
        <time>2020-08-15T12:42:42.219Z</time>
      </trkpt>
      <trkpt lat="66.61631" lon="13.22719">
        <ele>15.619782</ele>
        <time>2020-08-15T12:43:22.221Z</time>
      </trkpt>
      <trkpt lat="66.61812" lon="13.23129">
        <ele>14.158599</ele>
        <time>2020-08-15T12:44:04.211Z</time>
      </trkpt>
      <trkpt lat="66.61992" lon="13.23508">
        <ele>19.463203</ele>
        <time>2020-08-15T12:44:46.219Z</time>
      </trkpt>
      <trkpt lat="66.62166" lon="13.23929">
        <ele>16.235879</ele>
        <time>2020-08-15T12:45:28.221Z</time>
      </trkpt>
      <trkpt lat="66.6233" lon="13.24356">
        <ele>7.018013</ele>
        <time>2020-08-15T12:46:10.216Z</time>
      </trkpt>
      <trkpt lat="66.62502" lon="13.24768">
        <ele>0.867049</ele>
        <time>2020-08-15T12:46:52.227Z</time>
      </trkpt>
      <trkpt lat="66.62665" lon="13.25189">
        <ele>9.611387</ele>
        <time>2020-08-15T12:47:34.241Z</time>
      </trkpt>
      <trkpt lat="66.62773" lon="13.25704">
        <ele>23.670611</ele>
        <time>2020-08-15T12:48:16.238Z</time>
      </trkpt>
      <trkpt lat="66.62764" lon="13.26295">
        <ele>30.741785</ele>
        <time>2020-08-15T12:48:58.210Z</time>
      </trkpt>
      <trkpt lat="66.62659" lon="13.26815">
        <ele>27.401192</ele>
        <time>2020-08-15T12:49:40.230Z</time>
      </trkpt>
      <trkpt lat="66.62564" lon="13.27296">
        <ele>26.344622</ele>
        <time>2020-08-15T12:50:20.224Z</time>
      </trkpt>
      <trkpt lat="66.62455" lon="13.27791">
        <ele>27.139758</ele>
        <time>2020-08-15T12:51:16.236Z</time>
      </trkpt>
      <trkpt lat="66.62399" lon="13.283">
        <ele>32.840937</ele>
        <time>2020-08-15T12:52:45.198Z</time>
      </trkpt>
      <trkpt lat="66.62419" lon="13.28912">
        <ele>40.54734</ele>
        <time>2020-08-15T13:01:03.213Z</time>
      </trkpt>
      <trkpt lat="66.62219" lon="13.29113">
        <ele>52.205852</ele>
        <time>2020-08-15T13:02:12.219Z</time>
      </trkpt>
      <trkpt lat="66.62063" lon="13.29432">
        <ele>71.033576</ele>
        <time>2020-08-15T13:04:21.202Z</time>
      </trkpt>
      <trkpt lat="66.62072" lon="13.29958">
        <ele>76.291328</ele>
        <time>2020-08-15T13:06:03.204Z</time>
      </trkpt>
      <trkpt lat="66.61985" lon="13.30541">
        <ele>64.163018</ele>
        <time>2020-08-15T13:06:31.234Z</time>
      </trkpt>
      <trkpt lat="66.61997" lon="13.31167">
        <ele>61.233142</ele>
        <time>2020-08-15T13:07:16.205Z</time>
      </trkpt>
      <trkpt lat="66.62088" lon="13.31738">
        <ele>65.30795</ele>
        <time>2020-08-15T13:08:10.232Z</time>
      </trkpt>
      <trkpt lat="66.6221" lon="13.32221">
        <ele>53.006933</ele>
        <time>2020-08-15T13:08:35.198Z</time>
      </trkpt>
      <trkpt lat="66.62377" lon="13.32606">
        <ele>51.472602</ele>
        <time>2020-08-15T13:09:01.202Z</time>
      </trkpt>
      <trkpt lat="66.62581" lon="13.32746">
        <ele>60.695249</ele>
        <time>2020-08-15T13:10:25.215Z</time>
      </trkpt>
      <trkpt lat="66.62777" lon="13.32601">
        <ele>62.754161</ele>
        <time>2020-08-15T13:11:29.203Z</time>
      </trkpt>
      <trkpt lat="66.6299" lon="13.32419">
        <ele>66.876421</ele>
        <time>2020-08-15T13:12:20.235Z</time>
      </trkpt>
      <trkpt lat="66.63195" lon="13.325">
        <ele>79.104454</ele>
        <time>2020-08-15T13:13:58.231Z</time>
      </trkpt>
      <trkpt lat="66.63332" lon="13.32902">
        <ele>71.744092</ele>
        <time>2020-08-15T13:14:41.210Z</time>
      </trkpt>
      <trkpt lat="66.6329" lon="13.33572">
        <ele>54.004042</ele>
        <time>2020-08-15T13:15:02.222Z</time>
      </trkpt>
      <trkpt lat="66.63272" lon="13.34181">
        <ele>43.115397</ele>
        <time>2020-08-15T13:15:23.226Z</time>
      </trkpt>
      <trkpt lat="66.63309" lon="13.34815">
        <ele>38.65628</ele>
        <time>2020-08-15T13:16:00.214Z</time>
      </trkpt>
      <trkpt lat="66.63239" lon="13.35361">
        <ele>40.32417</ele>
        <time>2020-08-15T13:16:40.233Z</time>
      </trkpt>
      <trkpt lat="66.63242" lon="13.35971">
        <ele>42.299568</ele>
        <time>2020-08-15T13:17:30.205Z</time>
      </trkpt>
      <trkpt lat="66.63291" lon="13.36515">
        <ele>43.063904</ele>
        <time>2020-08-15T13:18:12.210Z</time>
      </trkpt>
      <trkpt lat="66.63381" lon="13.36995">
        <ele>50.438243</ele>
        <time>2020-08-15T13:19:25.218Z</time>
      </trkpt>
      <trkpt lat="66.63246" lon="13.3747">
        <ele>49.067505</ele>
        <time>2020-08-15T13:20:23.199Z</time>
      </trkpt>
      <trkpt lat="66.63338" lon="13.38038">
        <ele>43.692688</ele>
        <time>2020-08-15T13:21:01.210Z</time>
      </trkpt>
      <trkpt lat="66.63503" lon="13.38434">
        <ele>47.275647</ele>
        <time>2020-08-15T13:21:54.214Z</time>
      </trkpt>
      <trkpt lat="66.63545" lon="13.38988">
        <ele>56.419231</ele>
        <time>2020-08-15T13:23:14.212Z</time>
      </trkpt>
      <trkpt lat="66.63484" lon="13.39508">
        <ele>63.332755</ele>
        <time>2020-08-15T13:24:31.227Z</time>
      </trkpt>
      <trkpt lat="66.63392" lon="13.40019">
        <ele>66.569545</ele>
        <time>2020-08-15T13:25:30.207Z</time>
      </trkpt>
      <trkpt lat="66.63236" lon="13.40348">
        <ele>78.402454</ele>
        <time>2020-08-15T13:27:11.217Z</time>
      </trkpt>
      <trkpt lat="66.63039" lon="13.40394">
        <ele>85.856488</ele>
        <time>2020-08-15T13:28:37.216Z</time>
      </trkpt>
      <trkpt lat="66.62783" lon="13.41543">
        <ele>113.338953</ele>
        <time>2020-08-15T13:33:45.231Z</time>
      </trkpt>
      <trkpt lat="66.62691" lon="13.42029">
        <ele>114.541308</ele>
        <time>2020-08-15T13:34:40.227Z</time>
      </trkpt>
      <trkpt lat="66.62558" lon="13.42567">
        <ele>113.217488</ele>
        <time>2020-08-15T13:37:47.203Z</time>
      </trkpt>
      <trkpt lat="66.62462" lon="13.43058">
        <ele>117.700676</ele>
        <time>2020-08-15T13:38:50.212Z</time>
      </trkpt>
      <trkpt lat="66.62435" lon="13.43657">
        <ele>115.763192</ele>
        <time>2020-08-15T13:39:39.212Z</time>
      </trkpt>
      <trkpt lat="66.62412" lon="13.44215">
        <ele>114.517836</ele>
        <time>2020-08-15T13:40:21.211Z</time>
      </trkpt>
      <trkpt lat="66.62335" lon="13.44721">
        <ele>124.35535</ele>
        <time>2020-08-15T13:41:36.214Z</time>
      </trkpt>
      <trkpt lat="66.6224" lon="13.45192">
        <ele>134.411955</ele>
        <time>2020-08-15T13:43:21.210Z</time>
      </trkpt>
      <trkpt lat="66.62189" lon="13.45707">
        <ele>137.758918</ele>
        <time>2020-08-15T13:44:33.212Z</time>
      </trkpt>
      <trkpt lat="66.64083" lon="13.51995">
        <ele>75.274134</ele>
        <time>2020-08-15T13:52:23.226Z</time>
      </trkpt>
      <trkpt lat="66.64252" lon="13.52309">
        <ele>72.025039</ele>
        <time>2020-08-15T13:53:30.240Z</time>
      </trkpt>
      <trkpt lat="66.64458" lon="13.52423">
        <ele>80.305689</ele>
        <time>2020-08-15T13:55:09.236Z</time>
      </trkpt>
      <trkpt lat="66.64594" lon="13.52823">
        <ele>80.242038</ele>
        <time>2020-08-15T13:56:05.222Z</time>
      </trkpt>
      <trkpt lat="66.64649" lon="13.53392">
        <ele>75.076628</ele>
        <time>2020-08-15T13:56:47.207Z</time>
      </trkpt>
      <trkpt lat="66.64511" lon="13.53941">
        <ele>65.186168</ele>
        <time>2020-08-15T13:57:21.213Z</time>
      </trkpt>
      <trkpt lat="66.64443" lon="13.54422">
        <ele>50.874339</ele>
        <time>2020-08-15T13:57:42.217Z</time>
      </trkpt>
      <trkpt lat="66.64451" lon="13.55018">
        <ele>42.436106</ele>
        <time>2020-08-15T13:58:07.223Z</time>
      </trkpt>
      <trkpt lat="66.64551" lon="13.55689">
        <ele>39.193283</ele>
        <time>2020-08-15T13:58:49.239Z</time>
      </trkpt>
      <trkpt lat="66.64647" lon="13.56336">
        <ele>43.780439</ele>
        <time>2020-08-15T13:59:31.234Z</time>
      </trkpt>
      <trkpt lat="66.64815" lon="13.56736">
        <ele>45.965494</ele>
        <time>2020-08-15T14:00:11.224Z</time>
      </trkpt>
      <trkpt lat="66.65016" lon="13.5656">
        <ele>44.402544</ele>
        <time>2020-08-15T14:00:57.224Z</time>
      </trkpt>
      <trkpt lat="66.6513" lon="13.56104">
        <ele>42.57436</ele>
        <time>2020-08-15T14:02:09.255Z</time>
      </trkpt>
      <trkpt lat="66.65199" lon="13.55544">
        <ele>41.533514</ele>
        <time>2020-08-15T14:02:55.213Z</time>
      </trkpt>
      <trkpt lat="66.6537" lon="13.55124">
        <ele>47.72037</ele>
        <time>2020-08-15T14:03:52.218Z</time>
      </trkpt>
      <trkpt lat="66.65573" lon="13.54794">
        <ele>47.792556</ele>
        <time>2020-08-15T14:04:34.216Z</time>
      </trkpt>
      <trkpt lat="66.65758" lon="13.54483">
        <ele>47.929298</ele>
        <time>2020-08-15T14:05:19.217Z</time>
      </trkpt>
      <trkpt lat="66.65994" lon="13.543">
        <ele>44.334821</ele>
        <time>2020-08-15T14:06:01.222Z</time>
      </trkpt>
      <trkpt lat="66.66176" lon="13.54046">
        <ele>46.885661</ele>
        <time>2020-08-15T14:06:43.240Z</time>
      </trkpt>
      <trkpt lat="66.66383" lon="13.53952">
        <ele>43.846265</ele>
        <time>2020-08-15T14:07:25.236Z</time>
      </trkpt>
      <trkpt lat="66.66611" lon="13.53979">
        <ele>42.456376</ele>
        <time>2020-08-15T14:08:05.236Z</time>
      </trkpt>
      <trkpt lat="66.6683" lon="13.53796">
        <ele>44.981537</ele>
        <time>2020-08-15T14:08:54.212Z</time>
      </trkpt>
      <trkpt lat="66.67023" lon="13.53513">
        <ele>49.798178</ele>
        <time>2020-08-15T14:09:56.213Z</time>
      </trkpt>
      <trkpt lat="66.67172" lon="13.53019">
        <ele>48.856308</ele>
        <time>2020-08-15T14:10:55.246Z</time>
      </trkpt>
      <trkpt lat="66.67207" lon="13.52459">
        <ele>54.382591</ele>
        <time>2020-08-15T14:12:11.210Z</time>
      </trkpt>
      <trkpt lat="66.67204" lon="13.51932">
        <ele>66.240043</ele>
        <time>2020-08-15T14:13:58.221Z</time>
      </trkpt>
      <trkpt lat="66.67269" lon="13.51423">
        <ele>69.803052</ele>
        <time>2020-08-15T14:15:11.207Z</time>
      </trkpt>
      <trkpt lat="66.67439" lon="13.51029">
        <ele>67.495291</ele>
        <time>2020-08-15T14:16:01.253Z</time>
      </trkpt>
      <trkpt lat="66.67613" lon="13.50349">
        <ele>58.234893</ele>
        <time>2020-08-15T14:16:43.257Z</time>
      </trkpt>
      <trkpt lat="66.67653" lon="13.49719">
        <ele>53.015211</ele>
        <time>2020-08-15T14:17:25.226Z</time>
      </trkpt>
      <trkpt lat="66.67711" lon="13.49045">
        <ele>51.059189</ele>
        <time>2020-08-15T14:18:07.248Z</time>
      </trkpt>
      <trkpt lat="66.67756" lon="13.48521">
        <ele>52.881132</ele>
        <time>2020-08-15T14:18:58.225Z</time>
      </trkpt>
      <trkpt lat="66.67778" lon="13.47961">
        <ele>49.938885</ele>
        <time>2020-08-15T14:19:40.267Z</time>
      </trkpt>
      <trkpt lat="66.67737" lon="13.47402">
        <ele>54.37712</ele>
        <time>2020-08-15T14:20:49.264Z</time>
      </trkpt>
      <trkpt lat="66.67757" lon="13.46886">
        <ele>73.263236</ele>
        <time>2020-08-15T14:23:05.223Z</time>
      </trkpt>
      <trkpt lat="66.67852" lon="13.46433">
        <ele>83.768351</ele>
        <time>2020-08-15T14:25:06.232Z</time>
      </trkpt>
      <trkpt lat="66.68091" lon="13.46349">
        <ele>79.011806</ele>
        <time>2020-08-15T14:25:43.239Z</time>
      </trkpt>
      <trkpt lat="66.68283" lon="13.46196">
        <ele>81.808844</ele>
        <time>2020-08-15T14:27:08.229Z</time>
      </trkpt>
      <trkpt lat="66.68501" lon="13.46681">
        <ele>76.029297</ele>
        <time>2020-08-15T14:27:50.240Z</time>
      </trkpt>
      <trkpt lat="66.68732" lon="13.46723">
        <ele>79.201201</ele>
        <time>2020-08-15T14:28:44.239Z</time>
      </trkpt>
      <trkpt lat="66.6894" lon="13.46758">
        <ele>90.980711</ele>
        <time>2020-08-15T14:30:06.243Z</time>
      </trkpt>
      <trkpt lat="66.69135" lon="13.46884">
        <ele>104.645361</ele>
        <time>2020-08-15T14:32:09.242Z</time>
      </trkpt>
      <trkpt lat="66.69347" lon="13.46735">
        <ele>98.40165</ele>
        <time>2020-08-15T14:32:52.260Z</time>
      </trkpt>
      <trkpt lat="66.69556" lon="13.4658">
        <ele>104.855086</ele>
        <time>2020-08-15T14:34:03.243Z</time>
      </trkpt>
      <trkpt lat="66.69813" lon="13.46535">
        <ele>98.539253</ele>
        <time>2020-08-15T14:34:33.229Z</time>
      </trkpt>
      <trkpt lat="66.70119" lon="13.46715">
        <ele>74.398617</ele>
        <time>2020-08-15T14:34:54.235Z</time>
      </trkpt>
      <trkpt lat="66.70345" lon="13.46992">
        <ele>59.777845</ele>
        <time>2020-08-15T14:35:27.242Z</time>
      </trkpt>
      <trkpt lat="66.70589" lon="13.46988">
        <ele>62.372675</ele>
        <time>2020-08-15T14:36:11.255Z</time>
      </trkpt>
      <trkpt lat="66.70774" lon="13.46637">
        <ele>63.768342</ele>
        <time>2020-08-15T14:37:05.219Z</time>
      </trkpt>
      <trkpt lat="66.7101" lon="13.46679">
        <ele>61.447955</ele>
        <time>2020-08-15T14:37:53.242Z</time>
      </trkpt>
      <trkpt lat="66.71267" lon="13.46652">
        <ele>60.685945</ele>
        <time>2020-08-15T14:38:32.253Z</time>
      </trkpt>
      <trkpt lat="66.71449" lon="13.46693">
        <ele>72.505507</ele>
        <time>2020-08-15T14:39:57.223Z</time>
      </trkpt>
      <trkpt lat="66.71614" lon="13.47108">
        <ele>68.640325</ele>
        <time>2020-08-15T14:41:12.215Z</time>
      </trkpt>
      <trkpt lat="66.71892" lon="13.47111">
        <ele>54.320463</ele>
        <time>2020-08-15T14:41:54.234Z</time>
      </trkpt>
      <trkpt lat="66.71923" lon="13.47586">
        <ele>45.739694</ele>
        <time>2020-08-15T14:42:40.220Z</time>
      </trkpt>
      <trkpt lat="66.72156" lon="13.47547">
        <ele>52.318508</ele>
        <time>2020-08-15T15:01:58.248Z</time>
      </trkpt>
      <trkpt lat="66.72325" lon="13.47874">
        <ele>49.804895</ele>
        <time>2020-08-15T15:03:17.233Z</time>
      </trkpt>
      <trkpt lat="66.72492" lon="13.48266">
        <ele>50.155593</ele>
        <time>2020-08-15T15:04:20.267Z</time>
      </trkpt>
      <trkpt lat="66.72696" lon="13.48732">
        <ele>55.085357</ele>
        <time>2020-08-15T15:05:25.232Z</time>
      </trkpt>
      <trkpt lat="66.7287" lon="13.49127">
        <ele>58.592558</ele>
        <time>2020-08-15T15:06:17.246Z</time>
      </trkpt>
      <trkpt lat="66.732" lon="13.49864">
        <ele>56.949983</ele>
        <time>2020-08-15T15:07:53.898Z</time>
      </trkpt>
      <trkpt lat="66.73336" lon="13.50228">
        <ele>63.928497</ele>
        <time>2020-08-15T15:08:39.244Z</time>
      </trkpt>
      <trkpt lat="66.73501" lon="13.50618">
        <ele>62.892833</ele>
        <time>2020-08-15T15:09:29.279Z</time>
      </trkpt>
      <trkpt lat="66.73677" lon="13.51">
        <ele>59.538525</ele>
        <time>2020-08-15T15:10:30.258Z</time>
      </trkpt>
      <trkpt lat="66.73842" lon="13.51341">
        <ele>59.682625</ele>
        <time>2020-08-15T15:12:21.245Z</time>
      </trkpt>
      <trkpt lat="66.73929" lon="13.51804">
        <ele>48.261474</ele>
        <time>2020-08-15T15:14:54.236Z</time>
      </trkpt>
      <trkpt lat="66.73976" lon="13.52355">
        <ele>47.120798</ele>
        <time>2020-08-15T15:15:54.251Z</time>
      </trkpt>
      <trkpt lat="66.73944" lon="13.5292">
        <ele>50.865826</ele>
        <time>2020-08-15T15:16:53.239Z</time>
      </trkpt>
      <trkpt lat="66.73927" lon="13.5349">
        <ele>50.839572</ele>
        <time>2020-08-15T15:17:45.234Z</time>
      </trkpt>
      <trkpt lat="66.74003" lon="13.5405">
        <ele>49.403009</ele>
        <time>2020-08-15T15:18:27.261Z</time>
      </trkpt>
      <trkpt lat="66.74209" lon="13.54646">
        <ele>45.062614</ele>
        <time>2020-08-15T15:19:09.256Z</time>
      </trkpt>
      <trkpt lat="66.74319" lon="13.55148">
        <ele>43.278139</ele>
        <time>2020-08-15T15:19:59.233Z</time>
      </trkpt>
      <trkpt lat="66.74213" lon="13.5467">
        <ele>48.564947</ele>
        <time>2020-08-15T15:43:24.223Z</time>
      </trkpt>
      <trkpt lat="66.7407" lon="13.54247">
        <ele>42.520547</ele>
        <time>2020-08-15T15:44:31.244Z</time>
      </trkpt>
      <trkpt lat="66.73961" lon="13.53783">
        <ele>46.099362</ele>
        <time>2020-08-15T15:45:43.255Z</time>
      </trkpt>
      <trkpt lat="66.73924" lon="13.53226">
        <ele>48.217042</ele>
        <time>2020-08-15T15:46:46.239Z</time>
      </trkpt>
      <trkpt lat="66.73975" lon="13.52629">
        <ele>47.235528</ele>
        <time>2020-08-15T15:47:39.252Z</time>
      </trkpt>
      <trkpt lat="66.73948" lon="13.52012">
        <ele>45.891489</ele>
        <time>2020-08-15T15:48:25.250Z</time>
      </trkpt>
      <trkpt lat="66.73935" lon="13.51424">
        <ele>43.171301</ele>
        <time>2020-08-15T15:49:11.253Z</time>
      </trkpt>
      <trkpt lat="66.73992" lon="13.50817">
        <ele>48.572551</ele>
        <time>2020-08-15T15:50:07.262Z</time>
      </trkpt>
      <trkpt lat="66.7407" lon="13.50323">
        <ele>49.439034</ele>
        <time>2020-08-15T15:50:53.272Z</time>
      </trkpt>
      <trkpt lat="66.73932" lon="13.50284">
        <ele>44.451605</ele>
        <time>2020-08-15T15:51:49.277Z</time>
      </trkpt>
    </trkseg>
  </trk>
  <trk>
    <name><![CDATA[Tour d'Europe: étape 049]]></name>
    <trkseg>
      <trkpt lat="66.73961" lon="13.5023">
        <ele>46.251203</ele>
        <time>2020-08-16T09:25:08.285Z</time>
      </trkpt>
      <trkpt lat="66.74071" lon="13.50385">
        <ele>46.777365</ele>
        <time>2020-08-16T09:26:05.298Z</time>
      </trkpt>
      <trkpt lat="66.73991" lon="13.50899">
        <ele>53.835353</ele>
        <time>2020-08-16T09:27:05.320Z</time>
      </trkpt>
      <trkpt lat="66.73933" lon="13.51481">
        <ele>49.480028</ele>
        <time>2020-08-16T09:27:55.299Z</time>
      </trkpt>
      <trkpt lat="66.73945" lon="13.52023">
        <ele>47.051305</ele>
        <time>2020-08-16T09:28:49.311Z</time>
      </trkpt>
      <trkpt lat="66.73976" lon="13.52601">
        <ele>47.61883</ele>
        <time>2020-08-16T09:29:37.289Z</time>
      </trkpt>
      <trkpt lat="66.73927" lon="13.53149">
        <ele>53.353572</ele>
        <time>2020-08-16T09:30:43.297Z</time>
      </trkpt>
      <trkpt lat="66.73945" lon="13.53695">
        <ele>53.194182</ele>
        <time>2020-08-16T09:31:25.324Z</time>
      </trkpt>
      <trkpt lat="66.74046" lon="13.54186">
        <ele>49.402061</ele>
        <time>2020-08-16T09:32:05.289Z</time>
      </trkpt>
      <trkpt lat="66.74223" lon="13.54716">
        <ele>43.465358</ele>
        <time>2020-08-16T09:32:45.295Z</time>
      </trkpt>
      <trkpt lat="66.74315" lon="13.55204">
        <ele>44.98627</ele>
        <time>2020-08-16T09:33:29.324Z</time>
      </trkpt>
      <trkpt lat="66.74347" lon="13.55809">
        <ele>44.349006</ele>
        <time>2020-08-16T09:34:15.288Z</time>
      </trkpt>
      <trkpt lat="66.74344" lon="13.5632">
        <ele>54.673885</ele>
        <time>2020-08-16T09:35:45.343Z</time>
      </trkpt>
      <trkpt lat="66.74328" lon="13.56823">
        <ele>69.137677</ele>
        <time>2020-08-16T09:37:43.317Z</time>
      </trkpt>
      <trkpt lat="66.74355" lon="13.57318">
        <ele>79.276435</ele>
        <time>2020-08-16T09:39:30.296Z</time>
      </trkpt>
      <trkpt lat="66.74421" lon="13.57842">
        <ele>87.287459</ele>
        <time>2020-08-16T09:42:14.308Z</time>
      </trkpt>
      <trkpt lat="66.74483" lon="13.58333">
        <ele>96.425591</ele>
        <time>2020-08-16T09:43:51.296Z</time>
      </trkpt>
      <trkpt lat="66.74596" lon="13.5878">
        <ele>106.074282</ele>
        <time>2020-08-16T09:45:28.347Z</time>
      </trkpt>
      <trkpt lat="66.74709" lon="13.59207">
        <ele>114.494585</ele>
        <time>2020-08-16T09:47:02.318Z</time>
      </trkpt>
      <trkpt lat="66.74831" lon="13.59614">
        <ele>125.377374</ele>
        <time>2020-08-16T09:48:47.309Z</time>
      </trkpt>
      <trkpt lat="66.75002" lon="13.59933">
        <ele>126.764965</ele>
        <time>2020-08-16T09:50:14.307Z</time>
      </trkpt>
      <trkpt lat="66.75167" lon="13.60299">
        <ele>117.055971</ele>
        <time>2020-08-16T09:50:40.310Z</time>
      </trkpt>
      <trkpt lat="66.75223" lon="13.60832">
        <ele>116.09345</ele>
        <time>2020-08-16T09:51:20.293Z</time>
      </trkpt>
      <trkpt lat="66.75264" lon="13.61374">
        <ele>121.666731</ele>
        <time>2020-08-16T09:52:20.321Z</time>
      </trkpt>
      <trkpt lat="66.75304" lon="13.61905">
        <ele>124.111418</ele>
        <time>2020-08-16T09:53:21.292Z</time>
      </trkpt>
      <trkpt lat="66.7534" lon="13.62388">
        <ele>128.636807</ele>
        <time>2020-08-16T09:54:22.362Z</time>
      </trkpt>
      <trkpt lat="66.75383" lon="13.62944">
        <ele>129.548316</ele>
        <time>2020-08-16T09:55:30.288Z</time>
      </trkpt>
      <trkpt lat="66.75423" lon="13.63476">
        <ele>132.601756</ele>
        <time>2020-08-16T09:56:30.309Z</time>
      </trkpt>
      <trkpt lat="66.75461" lon="13.6398">
        <ele>140.988576</ele>
        <time>2020-08-16T09:58:09.314Z</time>
      </trkpt>
      <trkpt lat="66.75492" lon="13.64534">
        <ele>134.260591</ele>
        <time>2020-08-16T09:58:37.289Z</time>
      </trkpt>
      <trkpt lat="66.75522" lon="13.65101">
        <ele>121.196217</ele>
        <time>2020-08-16T09:58:57.312Z</time>
      </trkpt>
      <trkpt lat="66.7555" lon="13.65672">
        <ele>119.181052</ele>
        <time>2020-08-16T09:59:34.321Z</time>
      </trkpt>
      <trkpt lat="66.75577" lon="13.66195">
        <ele>129.662</ele>
        <time>2020-08-16T10:00:52.296Z</time>
      </trkpt>
      <trkpt lat="66.75602" lon="13.66697">
        <ele>146.049716</ele>
        <time>2020-08-16T10:02:41.312Z</time>
      </trkpt>
      <trkpt lat="66.75617" lon="13.67219">
        <ele>150.968834</ele>
        <time>2020-08-16T10:04:31.321Z</time>
      </trkpt>
      <trkpt lat="66.75574" lon="13.67776">
        <ele>137.380616</ele>
        <time>2020-08-16T10:06:46.296Z</time>
      </trkpt>
      <trkpt lat="66.75573" lon="13.68389">
        <ele>117.928584</ele>
        <time>2020-08-16T10:07:07.315Z</time>
      </trkpt>
      <trkpt lat="66.75499" lon="13.69051">
        <ele>90.279124</ele>
        <time>2020-08-16T10:07:27.322Z</time>
      </trkpt>
      <trkpt lat="66.75391" lon="13.69811">
        <ele>64.928776</ele>
        <time>2020-08-16T10:07:47.295Z</time>
      </trkpt>
      <trkpt lat="66.75385" lon="13.70471">
        <ele>49.826001</ele>
        <time>2020-08-16T10:08:07.312Z</time>
      </trkpt>
      <trkpt lat="66.75391" lon="13.7107">
        <ele>50.139633</ele>
        <time>2020-08-16T10:08:52.312Z</time>
      </trkpt>
      <trkpt lat="66.75427" lon="13.71734">
        <ele>48.79828</ele>
        <time>2020-08-16T10:09:32.315Z</time>
      </trkpt>
      <trkpt lat="66.75412" lon="13.72302">
        <ele>50.793476</ele>
        <time>2020-08-16T10:10:13.313Z</time>
      </trkpt>
      <trkpt lat="66.754" lon="13.72862">
        <ele>49.955449</ele>
        <time>2020-08-16T10:11:08.340Z</time>
      </trkpt>
      <trkpt lat="66.75321" lon="13.73476">
        <ele>46.67643</ele>
        <time>2020-08-16T10:11:49.303Z</time>
      </trkpt>
      <trkpt lat="66.75309" lon="13.74092">
        <ele>45.204036</ele>
        <time>2020-08-16T10:12:26.336Z</time>
      </trkpt>
      <trkpt lat="66.7531" lon="13.74672">
        <ele>46.07207</ele>
        <time>2020-08-16T10:13:16.296Z</time>
      </trkpt>
      <trkpt lat="66.75433" lon="13.75113">
        <ele>44.187396</ele>
        <time>2020-08-16T10:13:57.331Z</time>
      </trkpt>
      <trkpt lat="66.75518" lon="13.75727">
        <ele>43.039597</ele>
        <time>2020-08-16T10:14:44.310Z</time>
      </trkpt>
      <trkpt lat="66.75656" lon="13.76148">
        <ele>40.154238</ele>
        <time>2020-08-16T10:15:24.293Z</time>
      </trkpt>
      <trkpt lat="66.75886" lon="13.76079">
        <ele>40.52321</ele>
        <time>2020-08-16T10:16:21.302Z</time>
      </trkpt>
      <trkpt lat="66.75944" lon="13.75592">
        <ele>46.935252</ele>
        <time>2020-08-16T10:17:21.304Z</time>
      </trkpt>
      <trkpt lat="66.75962" lon="13.75068">
        <ele>47.313904</ele>
        <time>2020-08-16T10:18:28.292Z</time>
      </trkpt>
      <trkpt lat="66.7599" lon="13.74516">
        <ele>48.031674</ele>
        <time>2020-08-16T10:19:28.289Z</time>
      </trkpt>
      <trkpt lat="66.76013" lon="13.74015">
        <ele>57.633939</ele>
        <time>2020-08-16T10:20:40.353Z</time>
      </trkpt>
      <trkpt lat="66.7604" lon="13.73475">
        <ele>63.336664</ele>
        <time>2020-08-16T10:21:49.307Z</time>
      </trkpt>
      <trkpt lat="66.76073" lon="13.72836">
        <ele>54.655592</ele>
        <time>2020-08-16T10:22:37.299Z</time>
      </trkpt>
      <trkpt lat="66.7611" lon="13.72114">
        <ele>53.762648</ele>
        <time>2020-08-16T10:23:27.296Z</time>
      </trkpt>
      <trkpt lat="66.76121" lon="13.71591">
        <ele>54.210246</ele>
        <time>2020-08-16T10:24:24.336Z</time>
      </trkpt>
      <trkpt lat="66.76125" lon="13.71085">
        <ele>52.193829</ele>
        <time>2020-08-16T10:25:07.329Z</time>
      </trkpt>
      <trkpt lat="66.76157" lon="13.70512">
        <ele>50.080769</ele>
        <time>2020-08-16T10:26:00.311Z</time>
      </trkpt>
      <trkpt lat="66.76274" lon="13.70026">
        <ele>50.008791</ele>
        <time>2020-08-16T10:26:56.316Z</time>
      </trkpt>
      <trkpt lat="66.76405" lon="13.69643">
        <ele>58.277158</ele>
        <time>2020-08-16T10:28:26.317Z</time>
      </trkpt>
      <trkpt lat="66.76444" lon="13.69128">
        <ele>67.40105</ele>
        <time>2020-08-16T10:29:54.311Z</time>
      </trkpt>
      <trkpt lat="66.76469" lon="13.68441">
        <ele>58.60039</ele>
        <time>2020-08-16T10:30:38.300Z</time>
      </trkpt>
      <trkpt lat="66.76483" lon="13.677">
        <ele>47.479246</ele>
        <time>2020-08-16T10:31:18.316Z</time>
      </trkpt>
      <trkpt lat="66.76577" lon="13.67178">
        <ele>44.600568</ele>
        <time>2020-08-16T10:32:07.316Z</time>
      </trkpt>
      <trkpt lat="66.7669" lon="13.66657">
        <ele>46.157829</ele>
        <time>2020-08-16T10:33:08.296Z</time>
      </trkpt>
      <trkpt lat="66.76813" lon="13.66213">
        <ele>45.578533</ele>
        <time>2020-08-16T10:34:12.308Z</time>
      </trkpt>
      <trkpt lat="66.76879" lon="13.6569">
        <ele>48.409141</ele>
        <time>2020-08-16T10:35:24.318Z</time>
      </trkpt>
      <trkpt lat="66.76914" lon="13.65119">
        <ele>49.672727</ele>
        <time>2020-08-16T10:36:23.316Z</time>
      </trkpt>
      <trkpt lat="66.76935" lon="13.64577">
        <ele>54.015154</ele>
        <time>2020-08-16T10:37:32.295Z</time>
      </trkpt>
      <trkpt lat="66.76981" lon="13.64058">
        <ele>55.215984</ele>
        <time>2020-08-16T10:38:56.318Z</time>
      </trkpt>
      <trkpt lat="66.77036" lon="13.63518">
        <ele>53.065151</ele>
        <time>2020-08-16T10:39:40.322Z</time>
      </trkpt>
      <trkpt lat="66.77093" lon="13.62944">
        <ele>54.509511</ele>
        <time>2020-08-16T10:40:38.312Z</time>
      </trkpt>
      <trkpt lat="66.7714" lon="13.62338">
        <ele>50.266028</ele>
        <time>2020-08-16T10:41:20.305Z</time>
      </trkpt>
      <trkpt lat="66.77157" lon="13.61753">
        <ele>44.979608</ele>
        <time>2020-08-16T10:42:00.301Z</time>
      </trkpt>
      <trkpt lat="66.77126" lon="13.61181">
        <ele>45.25747</ele>
        <time>2020-08-16T10:42:45.304Z</time>
      </trkpt>
      <trkpt lat="66.77117" lon="13.60639">
        <ele>45.22114</ele>
        <time>2020-08-16T10:43:46.319Z</time>
      </trkpt>
      <trkpt lat="66.77118" lon="13.60109">
        <ele>42.837993</ele>
        <time>2020-08-16T10:44:26.293Z</time>
      </trkpt>
      <trkpt lat="66.77079" lon="13.59541">
        <ele>41.851673</ele>
        <time>2020-08-16T10:45:19.309Z</time>
      </trkpt>
      <trkpt lat="66.77021" lon="13.59022">
        <ele>41.806481</ele>
        <time>2020-08-16T10:46:12.322Z</time>
      </trkpt>
      <trkpt lat="66.76966" lon="13.58511">
        <ele>45.657723</ele>
        <time>2020-08-16T10:47:10.297Z</time>
      </trkpt>
      <trkpt lat="66.76936" lon="13.57962">
        <ele>45.887266</ele>
        <time>2020-08-16T10:48:00.301Z</time>
      </trkpt>
      <trkpt lat="66.76911" lon="13.57444">
        <ele>49.368374</ele>
        <time>2020-08-16T10:49:17.332Z</time>
      </trkpt>
      <trkpt lat="66.76882" lon="13.56893">
        <ele>53.719012</ele>
        <time>2020-08-16T10:50:12.297Z</time>
      </trkpt>
      <trkpt lat="66.76855" lon="13.56396">
        <ele>60.119439</ele>
        <time>2020-08-16T10:51:40.314Z</time>
      </trkpt>
      <trkpt lat="66.76828" lon="13.55872">
        <ele>66.798634</ele>
        <time>2020-08-16T10:52:55.340Z</time>
      </trkpt>
      <trkpt lat="66.76839" lon="13.55348">
        <ele>75.699224</ele>
        <time>2020-08-16T10:54:47.323Z</time>
      </trkpt>
      <trkpt lat="66.76894" lon="13.54841">
        <ele>75.416238</ele>
        <time>2020-08-16T10:55:54.301Z</time>
      </trkpt>
      <trkpt lat="66.77039" lon="13.54536">
        <ele>61.947607</ele>
        <time>2020-08-16T10:56:19.310Z</time>
      </trkpt>
      <trkpt lat="66.77244" lon="13.54778">
        <ele>43.752801</ele>
        <time>2020-08-16T10:56:42.315Z</time>
      </trkpt>
      <trkpt lat="66.7737" lon="13.54354">
        <ele>43.423728</ele>
        <time>2020-08-16T10:57:37.312Z</time>
      </trkpt>
      <trkpt lat="66.77524" lon="13.5392">
        <ele>44.724855</ele>
        <time>2020-08-16T10:58:30.333Z</time>
      </trkpt>
      <trkpt lat="66.77687" lon="13.53595">
        <ele>43.253248</ele>
        <time>2020-08-16T10:59:11.333Z</time>
      </trkpt>
      <trkpt lat="66.77886" lon="13.535">
        <ele>43.747389</ele>
        <time>2020-08-16T10:59:57.315Z</time>
      </trkpt>
      <trkpt lat="66.78079" lon="13.53313">
        <ele>48.439759</ele>
        <time>2020-08-16T11:01:11.334Z</time>
      </trkpt>
      <trkpt lat="66.78268" lon="13.53155">
        <ele>60.755545</ele>
        <time>2020-08-16T11:03:01.305Z</time>
      </trkpt>
      <trkpt lat="66.78473" lon="13.53005">
        <ele>68.826746</ele>
        <time>2020-08-16T11:04:57.331Z</time>
      </trkpt>
      <trkpt lat="66.78554" lon="13.52465">
        <ele>66.11881</ele>
        <time>2020-08-16T11:05:37.310Z</time>
      </trkpt>
      <trkpt lat="66.78628" lon="13.51898">
        <ele>65.36937</ele>
        <time>2020-08-16T11:06:23.335Z</time>
      </trkpt>
      <trkpt lat="66.78768" lon="13.51487">
        <ele>65.581431</ele>
        <time>2020-08-16T11:07:17.344Z</time>
      </trkpt>
      <trkpt lat="66.78877" lon="13.51032">
        <ele>63.008854</ele>
        <time>2020-08-16T11:08:09.318Z</time>
      </trkpt>
      <trkpt lat="66.78984" lon="13.50561">
        <ele>63.505959</ele>
        <time>2020-08-16T11:09:09.364Z</time>
      </trkpt>
      <trkpt lat="66.79193" lon="13.50479">
        <ele>60.184822</ele>
        <time>2020-08-16T11:10:06.305Z</time>
      </trkpt>
      <trkpt lat="66.79439" lon="13.50426">
        <ele>50.555478</ele>
        <time>2020-08-16T11:11:57.321Z</time>
      </trkpt>
      <trkpt lat="66.79649" lon="13.50359">
        <ele>51.469669</ele>
        <time>2020-08-16T11:13:00.346Z</time>
      </trkpt>
      <trkpt lat="66.79835" lon="13.50545">
        <ele>57.25251</ele>
        <time>2020-08-16T11:14:10.314Z</time>
      </trkpt>
      <trkpt lat="66.80028" lon="13.50736">
        <ele>65.012209</ele>
        <time>2020-08-16T11:15:56.311Z</time>
      </trkpt>
      <trkpt lat="66.80178" lon="13.51099">
        <ele>67.610189</ele>
        <time>2020-08-16T11:17:01.361Z</time>
      </trkpt>
      <trkpt lat="66.80159" lon="13.5173">
        <ele>60.192335</ele>
        <time>2020-08-16T11:17:42.318Z</time>
      </trkpt>
      <trkpt lat="66.80125" lon="13.52345">
        <ele>57.659627</ele>
        <time>2020-08-16T11:18:22.338Z</time>
      </trkpt>
      <trkpt lat="66.80133" lon="13.52857">
        <ele>59.100069</ele>
        <time>2020-08-16T11:19:12.307Z</time>
      </trkpt>
      <trkpt lat="66.80097" lon="13.53425">
        <ele>61.010922</ele>
        <time>2020-08-16T11:20:04.318Z</time>
      </trkpt>
      <trkpt lat="66.80163" lon="13.53901">
        <ele>73.14187</ele>
        <time>2020-08-16T11:21:52.312Z</time>
      </trkpt>
      <trkpt lat="66.80226" lon="13.54366">
        <ele>80.187064</ele>
        <time>2020-08-16T11:23:32.309Z</time>
      </trkpt>
      <trkpt lat="66.80312" lon="13.54929">
        <ele>76.664228</ele>
        <time>2020-08-16T11:24:23.358Z</time>
      </trkpt>
      <trkpt lat="66.80355" lon="13.55503">
        <ele>66.006588</ele>
        <time>2020-08-16T11:24:43.352Z</time>
      </trkpt>
      <trkpt lat="66.80398" lon="13.56136">
        <ele>65.519054</ele>
        <time>2020-08-16T11:25:27.320Z</time>
      </trkpt>
      <trkpt lat="66.80419" lon="13.56643">
        <ele>68.25227</ele>
        <time>2020-08-16T11:26:09.328Z</time>
      </trkpt>
      <trkpt lat="66.80434" lon="13.57232">
        <ele>65.675294</ele>
        <time>2020-08-16T11:26:54.314Z</time>
      </trkpt>
      <trkpt lat="66.80443" lon="13.57836">
        <ele>56.7457</ele>
        <time>2020-08-16T11:27:34.341Z</time>
      </trkpt>
      <trkpt lat="66.80474" lon="13.58461">
        <ele>47.771621</ele>
        <time>2020-08-16T11:28:16.319Z</time>
      </trkpt>
      <trkpt lat="66.84788" lon="13.68568">
        <ele>40.371642</ele>
        <time>2020-08-16T12:27:12.824Z</time>
      </trkpt>
      <trkpt lat="66.86516" lon="13.70125">
        <ele>42.490201</ele>
        <time>2020-08-16T12:34:21.358Z</time>
      </trkpt>
      <trkpt lat="66.86751" lon="13.70419">
        <ele>47.699901</ele>
        <time>2020-08-16T12:40:53.351Z</time>
      </trkpt>
      <trkpt lat="66.86966" lon="13.70625">
        <ele>49.307555</ele>
        <time>2020-08-16T12:44:36.359Z</time>
      </trkpt>
      <trkpt lat="66.87205" lon="13.70707">
        <ele>43.958315</ele>
        <time>2020-08-16T12:45:16.321Z</time>
      </trkpt>
      <trkpt lat="66.87387" lon="13.70514">
        <ele>39.242034</ele>
        <time>2020-08-16T12:45:56.350Z</time>
      </trkpt>
      <trkpt lat="66.87573" lon="13.70233">
        <ele>43.768001</ele>
        <time>2020-08-16T12:46:53.384Z</time>
      </trkpt>
      <trkpt lat="66.87621" lon="13.69689">
        <ele>46.410639</ele>
        <time>2020-08-16T12:47:48.356Z</time>
      </trkpt>
      <trkpt lat="66.87631" lon="13.69092">
        <ele>49.386845</ele>
        <time>2020-08-16T12:48:48.350Z</time>
      </trkpt>
      <trkpt lat="66.87671" lon="13.68582">
        <ele>53.104152</ele>
        <time>2020-08-16T12:49:48.385Z</time>
      </trkpt>
      <trkpt lat="66.87845" lon="13.68322">
        <ele>56.611248</ele>
        <time>2020-08-16T12:50:51.366Z</time>
      </trkpt>
      <trkpt lat="66.8802" lon="13.6795">
        <ele>51.867963</ele>
        <time>2020-08-16T12:51:38.366Z</time>
      </trkpt>
      <trkpt lat="66.8813" lon="13.67479">
        <ele>48.380624</ele>
        <time>2020-08-16T12:52:20.359Z</time>
      </trkpt>
      <trkpt lat="66.88163" lon="13.66909">
        <ele>53.759734</ele>
        <time>2020-08-16T12:53:13.348Z</time>
      </trkpt>
      <trkpt lat="66.88213" lon="13.66367">
        <ele>51.023027</ele>
        <time>2020-08-16T12:54:12.380Z</time>
      </trkpt>
      <trkpt lat="66.88301" lon="13.65921">
        <ele>47.599198</ele>
        <time>2020-08-16T12:54:52.346Z</time>
      </trkpt>
      <trkpt lat="66.8847" lon="13.65589">
        <ele>52.538157</ele>
        <time>2020-08-16T12:55:51.350Z</time>
      </trkpt>
      <trkpt lat="66.88674" lon="13.65571">
        <ele>57.925962</ele>
        <time>2020-08-16T12:56:53.350Z</time>
      </trkpt>
      <trkpt lat="66.88861" lon="13.6533">
        <ele>58.439923</ele>
        <time>2020-08-16T12:57:56.358Z</time>
      </trkpt>
      <trkpt lat="66.89067" lon="13.65134">
        <ele>53.922219</ele>
        <time>2020-08-16T12:58:36.355Z</time>
      </trkpt>
      <trkpt lat="66.89276" lon="13.65095">
        <ele>51.611092</ele>
        <time>2020-08-16T12:59:16.370Z</time>
      </trkpt>
      <trkpt lat="66.89545" lon="13.65012">
        <ele>48.848931</ele>
        <time>2020-08-16T12:59:56.342Z</time>
      </trkpt>
      <trkpt lat="66.8976" lon="13.64891">
        <ele>49.166435</ele>
        <time>2020-08-16T13:00:36.354Z</time>
      </trkpt>
      <trkpt lat="66.89959" lon="13.64785">
        <ele>48.143238</ele>
        <time>2020-08-16T13:01:16.358Z</time>
      </trkpt>
      <trkpt lat="66.90158" lon="13.64747">
        <ele>48.175664</ele>
        <time>2020-08-16T13:01:57.347Z</time>
      </trkpt>
      <trkpt lat="66.90389" lon="13.64654">
        <ele>46.039952</ele>
        <time>2020-08-16T13:02:54.391Z</time>
      </trkpt>
      <trkpt lat="66.90599" lon="13.64338">
        <ele>46.469554</ele>
        <time>2020-08-16T13:03:52.371Z</time>
      </trkpt>
      <trkpt lat="66.90795" lon="13.64037">
        <ele>46.958041</ele>
        <time>2020-08-16T13:04:44.380Z</time>
      </trkpt>
      <trkpt lat="66.9099" lon="13.63704">
        <ele>46.207776</ele>
        <time>2020-08-16T13:05:41.364Z</time>
      </trkpt>
      <trkpt lat="66.91135" lon="13.63297">
        <ele>46.30168</ele>
        <time>2020-08-16T13:06:41.364Z</time>
      </trkpt>
      <trkpt lat="66.91294" lon="13.63011">
        <ele>48.800709</ele>
        <time>2020-08-16T13:07:42.376Z</time>
      </trkpt>
      <trkpt lat="66.91475" lon="13.62747">
        <ele>51.848261</ele>
        <time>2020-08-16T13:08:42.348Z</time>
      </trkpt>
      <trkpt lat="66.91674" lon="13.62458">
        <ele>52.404292</ele>
        <time>2020-08-16T13:09:42.353Z</time>
      </trkpt>
      <trkpt lat="66.91859" lon="13.62182">
        <ele>58.186852</ele>
        <time>2020-08-16T13:10:49.362Z</time>
      </trkpt>
      <trkpt lat="66.92061" lon="13.62212">
        <ele>66.956442</ele>
        <time>2020-08-16T13:12:09.358Z</time>
      </trkpt>
      <trkpt lat="66.92256" lon="13.62287">
        <ele>74.789427</ele>
        <time>2020-08-16T13:13:18.344Z</time>
      </trkpt>
      <trkpt lat="66.92472" lon="13.62057">
        <ele>74.309329</ele>
        <time>2020-08-16T13:14:15.354Z</time>
      </trkpt>
      <trkpt lat="66.92673" lon="13.6174">
        <ele>67.926677</ele>
        <time>2020-08-16T13:15:18.374Z</time>
      </trkpt>
      <trkpt lat="66.92866" lon="13.61432">
        <ele>67.560964</ele>
        <time>2020-08-16T13:16:12.357Z</time>
      </trkpt>
      <trkpt lat="66.93074" lon="13.61093">
        <ele>67.754281</ele>
        <time>2020-08-16T13:17:12.370Z</time>
      </trkpt>
      <trkpt lat="66.93259" lon="13.60795">
        <ele>68.305988</ele>
        <time>2020-08-16T13:18:07.369Z</time>
      </trkpt>
      <trkpt lat="66.93439" lon="13.60506">
        <ele>66.571541</ele>
        <time>2020-08-16T13:18:51.387Z</time>
      </trkpt>
      <trkpt lat="66.93657" lon="13.60154">
        <ele>58.029631</ele>
        <time>2020-08-16T13:19:31.405Z</time>
      </trkpt>
      <trkpt lat="66.93864" lon="13.59825">
        <ele>54.679367</ele>
        <time>2020-08-16T13:20:11.366Z</time>
      </trkpt>
      <trkpt lat="66.94035" lon="13.59546">
        <ele>55.82509</ele>
        <time>2020-08-16T13:20:51.375Z</time>
      </trkpt>
      <trkpt lat="66.94219" lon="13.59262">
        <ele>59.060949</ele>
        <time>2020-08-16T13:21:40.350Z</time>
      </trkpt>
      <trkpt lat="66.9441" lon="13.59175">
        <ele>58.912527</ele>
        <time>2020-08-16T13:22:23.354Z</time>
      </trkpt>
      <trkpt lat="66.94619" lon="13.59463">
        <ele>53.048078</ele>
        <time>2020-08-16T13:23:05.358Z</time>
      </trkpt>
      <trkpt lat="66.94818" lon="13.5982">
        <ele>51.517797</ele>
        <time>2020-08-16T13:23:48.360Z</time>
      </trkpt>
      <trkpt lat="66.95002" lon="13.60206">
        <ele>49.681397</ele>
        <time>2020-08-16T13:24:32.360Z</time>
      </trkpt>
      <trkpt lat="66.95125" lon="13.60804">
        <ele>45.901179</ele>
        <time>2020-08-16T13:25:12.361Z</time>
      </trkpt>
      <trkpt lat="66.95153" lon="13.61356">
        <ele>46.174283</ele>
        <time>2020-08-16T13:25:52.362Z</time>
      </trkpt>
      <trkpt lat="66.95126" lon="13.61897">
        <ele>48.129667</ele>
        <time>2020-08-16T13:26:32.364Z</time>
      </trkpt>
      <trkpt lat="66.95094" lon="13.62467">
        <ele>46.435331</ele>
        <time>2020-08-16T13:27:12.385Z</time>
      </trkpt>
      <trkpt lat="66.95051" lon="13.62979">
        <ele>44.342704</ele>
        <time>2020-08-16T13:27:52.408Z</time>
      </trkpt>
      <trkpt lat="66.94995" lon="13.63547">
        <ele>44.596119</ele>
        <time>2020-08-16T13:28:33.351Z</time>
      </trkpt>
      <trkpt lat="66.94943" lon="13.64089">
        <ele>46.620633</ele>
        <time>2020-08-16T13:29:25.355Z</time>
      </trkpt>
      <trkpt lat="66.94922" lon="13.64683">
        <ele>49.760344</ele>
        <time>2020-08-16T13:30:25.355Z</time>
      </trkpt>
      <trkpt lat="66.94908" lon="13.65246">
        <ele>49.737044</ele>
        <time>2020-08-16T13:31:05.355Z</time>
      </trkpt>
      <trkpt lat="66.94928" lon="13.65764">
        <ele>47.440383</ele>
        <time>2020-08-16T13:31:45.376Z</time>
      </trkpt>
      <trkpt lat="66.94936" lon="13.66299">
        <ele>49.949395</ele>
        <time>2020-08-16T13:32:34.361Z</time>
      </trkpt>
      <trkpt lat="66.94926" lon="13.66869">
        <ele>50.208737</ele>
        <time>2020-08-16T13:33:26.409Z</time>
      </trkpt>
      <trkpt lat="66.94917" lon="13.67477">
        <ele>44.182911</ele>
        <time>2020-08-16T13:34:06.383Z</time>
      </trkpt>
      <trkpt lat="66.94838" lon="13.6792">
        <ele>46.449155</ele>
        <time>2020-08-16T13:34:46.355Z</time>
      </trkpt>
      <trkpt lat="66.94739" lon="13.68388">
        <ele>49.00873</ele>
        <time>2020-08-16T13:35:26.376Z</time>
      </trkpt>
      <trkpt lat="66.94664" lon="13.6889">
        <ele>50.167726</ele>
        <time>2020-08-16T13:36:08.368Z</time>
      </trkpt>
      <trkpt lat="66.9461" lon="13.69441">
        <ele>49.737424</ele>
        <time>2020-08-16T13:36:59.375Z</time>
      </trkpt>
      <trkpt lat="66.94536" lon="13.70065">
        <ele>45.123697</ele>
        <time>2020-08-16T13:37:39.346Z</time>
      </trkpt>
      <trkpt lat="66.94478" lon="13.70583">
        <ele>44.427889</ele>
        <time>2020-08-16T13:38:23.409Z</time>
      </trkpt>
      <trkpt lat="66.94484" lon="13.71089">
        <ele>44.380121</ele>
        <time>2020-08-16T13:39:05.354Z</time>
      </trkpt>
      <trkpt lat="66.94494" lon="13.71632">
        <ele>45.421817</ele>
        <time>2020-08-16T13:39:52.373Z</time>
      </trkpt>
      <trkpt lat="66.94505" lon="13.72245">
        <ele>46.412108</ele>
        <time>2020-08-16T13:40:49.359Z</time>
      </trkpt>
      <trkpt lat="66.94513" lon="13.7281">
        <ele>51.047066</ele>
        <time>2020-08-16T13:41:49.367Z</time>
      </trkpt>
      <trkpt lat="66.94529" lon="13.73341">
        <ele>49.757595</ele>
        <time>2020-08-16T13:42:32.366Z</time>
      </trkpt>
      <trkpt lat="66.94605" lon="13.73841">
        <ele>45.219813</ele>
        <time>2020-08-16T13:43:12.359Z</time>
      </trkpt>
      <trkpt lat="66.94728" lon="13.74338">
        <ele>44.346381</ele>
        <time>2020-08-16T13:43:53.379Z</time>
      </trkpt>
      <trkpt lat="66.94844" lon="13.74822">
        <ele>44.587563</ele>
        <time>2020-08-16T13:44:46.376Z</time>
      </trkpt>
      <trkpt lat="66.94968" lon="13.75286">
        <ele>43.471665</ele>
        <time>2020-08-16T13:46:49.366Z</time>
      </trkpt>
      <trkpt lat="66.95088" lon="13.75781">
        <ele>46.040396</ele>
        <time>2020-08-16T13:47:41.381Z</time>
      </trkpt>
      <trkpt lat="66.95185" lon="13.76326">
        <ele>49.936169</ele>
        <time>2020-08-16T13:48:37.399Z</time>
      </trkpt>
      <trkpt lat="66.95332" lon="13.76799">
        <ele>49.593777</ele>
        <time>2020-08-16T13:49:37.389Z</time>
      </trkpt>
      <trkpt lat="66.95469" lon="13.77221">
        <ele>50.511839</ele>
        <time>2020-08-16T13:50:37.359Z</time>
      </trkpt>
      <trkpt lat="66.95589" lon="13.77696">
        <ele>53.275695</ele>
        <time>2020-08-16T13:51:22.361Z</time>
      </trkpt>
      <trkpt lat="66.95708" lon="13.78189">
        <ele>55.357215</ele>
        <time>2020-08-16T13:52:14.359Z</time>
      </trkpt>
      <trkpt lat="66.95779" lon="13.78724">
        <ele>52.578477</ele>
        <time>2020-08-16T13:52:54.359Z</time>
      </trkpt>
      <trkpt lat="66.95852" lon="13.79356">
        <ele>47.997322</ele>
        <time>2020-08-16T13:53:34.362Z</time>
      </trkpt>
      <trkpt lat="66.95916" lon="13.79916">
        <ele>45.671112</ele>
        <time>2020-08-16T13:54:14.385Z</time>
      </trkpt>
      <trkpt lat="66.95999" lon="13.8041">
        <ele>47.342541</ele>
        <time>2020-08-16T13:54:55.366Z</time>
      </trkpt>
      <trkpt lat="66.95961" lon="13.80688">
        <ele>48.241193</ele>
        <time>2020-08-16T13:59:40.415Z</time>
      </trkpt>
      <trkpt lat="66.95939" lon="13.81212">
        <ele>58.920528</ele>
        <time>2020-08-16T14:01:00.372Z</time>
      </trkpt>
      <trkpt lat="66.9592" lon="13.81729">
        <ele>65.463587</ele>
        <time>2020-08-16T14:02:24.370Z</time>
      </trkpt>
      <trkpt lat="66.95903" lon="13.82209">
        <ele>71.876048</ele>
        <time>2020-08-16T14:03:45.431Z</time>
      </trkpt>
      <trkpt lat="66.95881" lon="13.82718">
        <ele>76.175318</ele>
        <time>2020-08-16T14:05:16.367Z</time>
      </trkpt>
      <trkpt lat="66.95119" lon="13.90079">
        <ele>55.183356</ele>
        <time>2020-08-16T14:18:55.395Z</time>
      </trkpt>
      <trkpt lat="66.94878" lon="13.90303">
        <ele>41.572632</ele>
        <time>2020-08-16T14:19:15.408Z</time>
      </trkpt>
      <trkpt lat="66.94708" lon="13.90675">
        <ele>38.516552</ele>
        <time>2020-08-16T14:22:03.371Z</time>
      </trkpt>
      <trkpt lat="66.94659" lon="13.91167">
        <ele>52.657767</ele>
        <time>2020-08-16T14:23:34.371Z</time>
      </trkpt>
      <trkpt lat="66.94637" lon="13.91682">
        <ele>55.2686</ele>
        <time>2020-08-16T14:24:51.355Z</time>
      </trkpt>
      <trkpt lat="66.94756" lon="13.92174">
        <ele>52.76558</ele>
        <time>2020-08-16T14:25:31.360Z</time>
      </trkpt>
      <trkpt lat="66.94869" lon="13.92678">
        <ele>55.272478</ele>
        <time>2020-08-16T14:26:22.397Z</time>
      </trkpt>
      <trkpt lat="66.94992" lon="13.93218">
        <ele>54.62854</ele>
        <time>2020-08-16T14:27:16.382Z</time>
      </trkpt>
      <trkpt lat="66.95129" lon="13.93833">
        <ele>47.541796</ele>
        <time>2020-08-16T14:27:55.402Z</time>
      </trkpt>
      <trkpt lat="66.95204" lon="13.94462">
        <ele>42.72403</ele>
        <time>2020-08-16T14:28:39.382Z</time>
      </trkpt>
      <trkpt lat="66.95373" lon="13.94858">
        <ele>49.493069</ele>
        <time>2020-08-16T14:29:59.393Z</time>
      </trkpt>
      <trkpt lat="66.95559" lon="13.95307">
        <ele>54.954846</ele>
        <time>2020-08-16T14:30:50.409Z</time>
      </trkpt>
      <trkpt lat="66.95724" lon="13.95613">
        <ele>67.383682</ele>
        <time>2020-08-16T14:32:38.398Z</time>
      </trkpt>
      <trkpt lat="66.95869" lon="13.95937">
        <ele>74.729889</ele>
        <time>2020-08-16T14:34:27.391Z</time>
      </trkpt>
      <trkpt lat="66.95966" lon="13.96355">
        <ele>87.555836</ele>
        <time>2020-08-16T14:36:23.407Z</time>
      </trkpt>
      <trkpt lat="66.96013" lon="13.97047">
        <ele>78.299504</ele>
        <time>2020-08-16T14:43:19.375Z</time>
      </trkpt>
      <trkpt lat="66.96065" lon="13.97629">
        <ele>75.543349</ele>
        <time>2020-08-16T14:44:05.429Z</time>
      </trkpt>
      <trkpt lat="66.96133" lon="13.98218">
        <ele>63.191283</ele>
        <time>2020-08-16T14:44:38.377Z</time>
      </trkpt>
      <trkpt lat="66.962" lon="13.98799">
        <ele>50.582089</ele>
        <time>2020-08-16T14:44:58.411Z</time>
      </trkpt>
      <trkpt lat="66.96272" lon="13.99371">
        <ele>48.975583</ele>
        <time>2020-08-16T14:45:38.413Z</time>
      </trkpt>
      <trkpt lat="66.96382" lon="13.99824">
        <ele>54.514595</ele>
        <time>2020-08-16T14:46:35.410Z</time>
      </trkpt>
      <trkpt lat="66.96386" lon="14.0041">
        <ele>52.569</ele>
        <time>2020-08-16T14:47:28.405Z</time>
      </trkpt>
      <trkpt lat="66.96298" lon="14.01007">
        <ele>41.551624</ele>
        <time>2020-08-16T14:48:09.376Z</time>
      </trkpt>
      <trkpt lat="66.96184" lon="14.01402">
        <ele>35.008109</ele>
        <time>2020-08-16T14:48:33.386Z</time>
      </trkpt>
      <trkpt lat="66.96412" lon="14.01592">
        <ele>37.15654</ele>
        <time>2020-08-16T14:49:13.390Z</time>
      </trkpt>
      <trkpt lat="66.96619" lon="14.01512">
        <ele>37.74632</ele>
        <time>2020-08-16T14:49:59.388Z</time>
      </trkpt>
      <trkpt lat="66.96825" lon="14.01538">
        <ele>36.496234</ele>
        <time>2020-08-16T14:50:41.377Z</time>
      </trkpt>
      <trkpt lat="66.97029" lon="14.01551">
        <ele>39.91698</ele>
        <time>2020-08-16T14:51:53.390Z</time>
      </trkpt>
      <trkpt lat="66.97259" lon="14.01689">
        <ele>41.949016</ele>
        <time>2020-08-16T14:52:43.395Z</time>
      </trkpt>
      <trkpt lat="66.97447" lon="14.01742">
        <ele>53.557977</ele>
        <time>2020-08-16T14:54:49.396Z</time>
      </trkpt>
      <trkpt lat="66.97643" lon="14.01945">
        <ele>57.640361</ele>
        <time>2020-08-16T14:56:33.390Z</time>
      </trkpt>
      <trkpt lat="66.9773" lon="14.025">
        <ele>46.388157</ele>
        <time>2020-08-16T14:56:55.391Z</time>
      </trkpt>
      <trkpt lat="66.97861" lon="14.02995">
        <ele>34.400307</ele>
        <time>2020-08-16T14:57:24.378Z</time>
      </trkpt>
      <trkpt lat="66.98021" lon="14.0341">
        <ele>33.116386</ele>
        <time>2020-08-16T14:58:08.391Z</time>
      </trkpt>
      <trkpt lat="66.98204" lon="14.03695">
        <ele>36.789472</ele>
        <time>2020-08-16T14:59:09.386Z</time>
      </trkpt>
      <trkpt lat="66.98419" lon="14.03919">
        <ele>40.260907</ele>
        <time>2020-08-16T15:01:34.405Z</time>
      </trkpt>
      <trkpt lat="66.98577" lon="14.04247">
        <ele>52.05043</ele>
        <time>2020-08-16T15:03:26.387Z</time>
      </trkpt>
      <trkpt lat="66.98617" lon="14.04734">
        <ele>65.201832</ele>
        <time>2020-08-16T15:05:24.425Z</time>
      </trkpt>
      <trkpt lat="66.9865" lon="14.05238">
        <ele>67.146805</ele>
        <time>2020-08-16T15:06:33.406Z</time>
      </trkpt>
      <trkpt lat="66.98734" lon="14.0572">
        <ele>69.196772</ele>
        <time>2020-08-16T15:07:48.394Z</time>
      </trkpt>
      <trkpt lat="66.98663" lon="14.06167">
        <ele>77.746437</ele>
        <time>2020-08-16T15:09:08.412Z</time>
      </trkpt>
      <trkpt lat="66.98491" lon="14.06412">
        <ele>87.037764</ele>
        <time>2020-08-16T15:10:37.399Z</time>
      </trkpt>
      <trkpt lat="66.9845" lon="14.06904">
        <ele>98.838921</ele>
        <time>2020-08-16T15:12:11.432Z</time>
      </trkpt>
      <trkpt lat="66.98573" lon="14.07242">
        <ele>113.666452</ele>
        <time>2020-08-16T15:14:07.420Z</time>
      </trkpt>
      <trkpt lat="66.9874" lon="14.07468">
        <ele>123.799827</ele>
        <time>2020-08-16T15:16:11.407Z</time>
      </trkpt>
      <trkpt lat="66.98882" lon="14.07805">
        <ele>142.904966</ele>
        <time>2020-08-16T15:18:15.390Z</time>
      </trkpt>
      <trkpt lat="66.98998" lon="14.082">
        <ele>158.087568</ele>
        <time>2020-08-16T15:20:19.415Z</time>
      </trkpt>
      <trkpt lat="66.99157" lon="14.09197">
        <ele>182.280171</ele>
        <time>2020-08-16T15:24:44.402Z</time>
      </trkpt>
      <trkpt lat="66.99241" lon="14.0965">
        <ele>186.524028</ele>
        <time>2020-08-16T15:26:30.399Z</time>
      </trkpt>
      <trkpt lat="66.99298" lon="14.10161">
        <ele>188.417431</ele>
        <time>2020-08-16T15:27:30.389Z</time>
      </trkpt>
      <trkpt lat="66.99085" lon="14.12887">
        <ele>126.218165</ele>
        <time>2020-08-16T15:29:37.390Z</time>
      </trkpt>
      <trkpt lat="66.98909" lon="14.13334">
        <ele>109.171975</ele>
        <time>2020-08-16T15:29:57.386Z</time>
      </trkpt>
      <trkpt lat="66.98242" lon="14.14689">
        <ele>82.178488</ele>
        <time>2020-08-16T15:31:41.401Z</time>
      </trkpt>
      <trkpt lat="66.97994" lon="14.14534">
        <ele>63.621469</ele>
        <time>2020-08-16T15:32:01.382Z</time>
      </trkpt>
      <trkpt lat="66.97746" lon="14.14776">
        <ele>42.496101</ele>
        <time>2020-08-16T15:32:21.418Z</time>
      </trkpt>
      <trkpt lat="66.97584" lon="14.15147">
        <ele>27.565813</ele>
        <time>2020-08-16T15:32:42.388Z</time>
      </trkpt>
      <trkpt lat="66.97662" lon="14.15647">
        <ele>34.17034</ele>
        <time>2020-08-16T15:33:29.406Z</time>
      </trkpt>
      <trkpt lat="66.97864" lon="14.15726">
        <ele>57.11876</ele>
        <time>2020-08-16T15:35:29.403Z</time>
      </trkpt>
      <trkpt lat="66.98044" lon="14.1585">
        <ele>73.597056</ele>
        <time>2020-08-16T15:37:36.391Z</time>
      </trkpt>
      <trkpt lat="66.98218" lon="14.16079">
        <ele>84.598006</ele>
        <time>2020-08-16T15:39:35.402Z</time>
      </trkpt>
      <trkpt lat="66.98395" lon="14.16299">
        <ele>94.445467</ele>
        <time>2020-08-16T15:41:19.400Z</time>
      </trkpt>
      <trkpt lat="66.98582" lon="14.16467">
        <ele>104.98428</ele>
        <time>2020-08-16T15:43:08.399Z</time>
      </trkpt>
      <trkpt lat="66.98758" lon="14.16688">
        <ele>108.798544</ele>
        <time>2020-08-16T15:44:46.396Z</time>
      </trkpt>
      <trkpt lat="66.98943" lon="14.16986">
        <ele>109.418408</ele>
        <time>2020-08-16T15:45:53.414Z</time>
      </trkpt>
      <trkpt lat="66.99104" lon="14.17326">
        <ele>108.907248</ele>
        <time>2020-08-16T15:46:56.416Z</time>
      </trkpt>
      <trkpt lat="66.99203" lon="14.17877">
        <ele>106.057729</ele>
        <time>2020-08-16T15:58:26.407Z</time>
      </trkpt>
      <trkpt lat="66.99308" lon="14.18371">
        <ele>99.393137</ele>
        <time>2020-08-16T15:59:07.437Z</time>
      </trkpt>
      <trkpt lat="66.99279" lon="14.18917">
        <ele>90.402097</ele>
        <time>2020-08-16T15:59:28.392Z</time>
      </trkpt>
      <trkpt lat="66.99238" lon="14.19522">
        <ele>76.516404</ele>
        <time>2020-08-16T15:59:48.431Z</time>
      </trkpt>
      <trkpt lat="66.99195" lon="14.20143">
        <ele>63.030148</ele>
        <time>2020-08-16T16:00:08.399Z</time>
      </trkpt>
      <trkpt lat="66.99219" lon="14.20728">
        <ele>50.691792</ele>
        <time>2020-08-16T16:00:28.388Z</time>
      </trkpt>
      <trkpt lat="66.99217" lon="14.21298">
        <ele>45.509408</ele>
        <time>2020-08-16T16:01:05.465Z</time>
      </trkpt>
      <trkpt lat="66.99206" lon="14.21864">
        <ele>45.58143</ele>
        <time>2020-08-16T16:01:45.403Z</time>
      </trkpt>
      <trkpt lat="66.99374" lon="14.22407">
        <ele>42.04194</ele>
        <time>2020-08-16T16:02:25.401Z</time>
      </trkpt>
      <trkpt lat="66.99504" lon="14.2282">
        <ele>45.063745</ele>
        <time>2020-08-16T16:03:32.390Z</time>
      </trkpt>
      <trkpt lat="66.99646" lon="14.23316">
        <ele>42.051225</ele>
        <time>2020-08-16T16:04:19.422Z</time>
      </trkpt>
      <trkpt lat="66.99799" lon="14.23855">
        <ele>38.490386</ele>
        <time>2020-08-16T16:05:04.421Z</time>
      </trkpt>
      <trkpt lat="66.99975" lon="14.24164">
        <ele>40.046694</ele>
        <time>2020-08-16T16:05:49.410Z</time>
      </trkpt>
      <trkpt lat="67.00195" lon="14.24026">
        <ele>41.530874</ele>
        <time>2020-08-16T16:06:33.407Z</time>
      </trkpt>
      <trkpt lat="67.00352" lon="14.23669">
        <ele>44.627425</ele>
        <time>2020-08-16T16:07:41.421Z</time>
      </trkpt>
      <trkpt lat="67.00503" lon="14.23319">
        <ele>55.132835</ele>
        <time>2020-08-16T16:09:16.416Z</time>
      </trkpt>
      <trkpt lat="67.00676" lon="14.23098">
        <ele>66.944433</ele>
        <time>2020-08-16T16:11:08.423Z</time>
      </trkpt>
      <trkpt lat="67.00845" lon="14.23507">
        <ele>58.901819</ele>
        <time>2020-08-16T16:11:49.393Z</time>
      </trkpt>
      <trkpt lat="67.00972" lon="14.23948">
        <ele>45.983322</ele>
        <time>2020-08-16T16:12:09.402Z</time>
      </trkpt>
      <trkpt lat="67.01137" lon="14.24187">
        <ele>38.620323</ele>
        <time>2020-08-16T16:12:29.402Z</time>
      </trkpt>
      <trkpt lat="67.01364" lon="14.243">
        <ele>42.257605</ele>
        <time>2020-08-16T16:13:10.411Z</time>
      </trkpt>
      <trkpt lat="67.01564" lon="14.24462">
        <ele>47.702266</ele>
        <time>2020-08-16T16:14:12.415Z</time>
      </trkpt>
      <trkpt lat="67.01772" lon="14.24708">
        <ele>45.321629</ele>
        <time>2020-08-16T16:15:03.415Z</time>
      </trkpt>
      <trkpt lat="67.02048" lon="14.25051">
        <ele>38.08997</ele>
        <time>2020-08-16T16:15:45.401Z</time>
      </trkpt>
      <trkpt lat="67.02254" lon="14.25311">
        <ele>35.875424</ele>
        <time>2020-08-16T16:16:25.396Z</time>
      </trkpt>
      <trkpt lat="67.0246" lon="14.25516">
        <ele>37.229984</ele>
        <time>2020-08-16T16:17:10.454Z</time>
      </trkpt>
      <trkpt lat="67.02678" lon="14.25662">
        <ele>40.128445</ele>
        <time>2020-08-16T16:18:10.403Z</time>
      </trkpt>
      <trkpt lat="67.02883" lon="14.25878">
        <ele>39.511719</ele>
        <time>2020-08-16T16:18:56.422Z</time>
      </trkpt>
      <trkpt lat="67.03093" lon="14.26047">
        <ele>39.773632</ele>
        <time>2020-08-16T16:19:36.402Z</time>
      </trkpt>
      <trkpt lat="67.03285" lon="14.26224">
        <ele>41.3386</ele>
        <time>2020-08-16T16:20:16.402Z</time>
      </trkpt>
      <trkpt lat="67.03443" lon="14.26556">
        <ele>41.606474</ele>
        <time>2020-08-16T16:21:00.398Z</time>
      </trkpt>
      <trkpt lat="67.03615" lon="14.26907">
        <ele>40.256129</ele>
        <time>2020-08-16T16:21:54.403Z</time>
      </trkpt>
      <trkpt lat="67.03851" lon="14.26928">
        <ele>40.200224</ele>
        <time>2020-08-16T16:22:43.407Z</time>
      </trkpt>
      <trkpt lat="67.04058" lon="14.26984">
        <ele>49.201427</ele>
        <time>2020-08-16T16:23:48.399Z</time>
      </trkpt>
      <trkpt lat="67.04272" lon="14.27059">
        <ele>49.816683</ele>
        <time>2020-08-16T16:24:48.431Z</time>
      </trkpt>
      <trkpt lat="67.04503" lon="14.27137">
        <ele>45.799264</ele>
        <time>2020-08-16T16:25:41.403Z</time>
      </trkpt>
      <trkpt lat="67.04717" lon="14.27215">
        <ele>44.972828</ele>
        <time>2020-08-16T16:26:29.409Z</time>
      </trkpt>
      <trkpt lat="67.04947" lon="14.27291">
        <ele>46.715223</ele>
        <time>2020-08-16T16:27:13.434Z</time>
      </trkpt>
      <trkpt lat="67.05154" lon="14.27397">
        <ele>47.488342</ele>
        <time>2020-08-16T16:28:31.437Z</time>
      </trkpt>
      <trkpt lat="67.05393" lon="14.27593">
        <ele>39.529868</ele>
        <time>2020-08-16T16:29:02.414Z</time>
      </trkpt>
      <trkpt lat="67.05621" lon="14.27695">
        <ele>40.938401</ele>
        <time>2020-08-16T16:29:57.408Z</time>
      </trkpt>
      <trkpt lat="67.05743" lon="14.27324">
        <ele>62.164692</ele>
        <time>2020-08-16T16:31:40.419Z</time>
      </trkpt>
      <trkpt lat="67.05837" lon="14.2688">
        <ele>62.750987</ele>
        <time>2020-08-16T16:33:19.395Z</time>
      </trkpt>
      <trkpt lat="67.05977" lon="14.2635">
        <ele>56.481405</ele>
        <time>2020-08-16T16:34:06.406Z</time>
      </trkpt>
      <trkpt lat="67.06299" lon="14.26282">
        <ele>42.379529</ele>
        <time>2020-08-16T16:34:48.410Z</time>
      </trkpt>
      <trkpt lat="67.0653" lon="14.26313">
        <ele>46.319598</ele>
        <time>2020-08-16T16:35:54.399Z</time>
      </trkpt>
      <trkpt lat="67.06713" lon="14.26103">
        <ele>54.968295</ele>
        <time>2020-08-16T16:37:40.401Z</time>
      </trkpt>
      <trkpt lat="67.06895" lon="14.25886">
        <ele>62.652721</ele>
        <time>2020-08-16T16:39:25.419Z</time>
      </trkpt>
      <trkpt lat="67.0708" lon="14.25726">
        <ele>71.265467</ele>
        <time>2020-08-16T16:41:13.431Z</time>
      </trkpt>
      <trkpt lat="67.07198" lon="14.26149">
        <ele>68.472999</ele>
        <time>2020-08-16T16:42:04.443Z</time>
      </trkpt>
      <trkpt lat="67.0732" lon="14.26543">
        <ele>54.877484</ele>
        <time>2020-08-16T16:42:24.437Z</time>
      </trkpt>
      <trkpt lat="67.07458" lon="14.26924">
        <ele>44.934913</ele>
        <time>2020-08-16T16:42:47.414Z</time>
      </trkpt>
      <trkpt lat="67.0762" lon="14.27293">
        <ele>40.234811</ele>
        <time>2020-08-16T16:43:21.418Z</time>
      </trkpt>
      <trkpt lat="67.07708" lon="14.28278">
        <ele>74.417495</ele>
        <time>2020-08-16T16:46:31.414Z</time>
      </trkpt>
      <trkpt lat="67.07559" lon="14.28582">
        <ele>71.4386</ele>
        <time>2020-08-16T16:47:48.419Z</time>
      </trkpt>
      <trkpt lat="67.07407" lon="14.29004">
        <ele>62.830367</ele>
        <time>2020-08-16T16:48:16.434Z</time>
      </trkpt>
      <trkpt lat="67.07338" lon="14.29566">
        <ele>48.833395</ele>
        <time>2020-08-16T16:48:40.417Z</time>
      </trkpt>
      <trkpt lat="67.07276" lon="14.30175">
        <ele>33.360144</ele>
        <time>2020-08-16T16:49:08.420Z</time>
      </trkpt>
      <trkpt lat="67.07239" lon="14.307">
        <ele>30.563753</ele>
        <time>2020-08-16T16:50:06.443Z</time>
      </trkpt>
    </trkseg>
  </trk>
  <trk>
    <name><![CDATA[Tour d'Europe: étape 050]]></name>
    <trkseg>
      <trkpt lat="67.07265" lon="14.30906">
        <ele>35.66249</ele>
        <time>2020-08-17T09:06:19.720Z</time>
      </trkpt>
      <trkpt lat="67.0727" lon="14.30412">
        <ele>49.754476</ele>
        <time>2020-08-17T09:11:23.715Z</time>
      </trkpt>
      <trkpt lat="67.07305" lon="14.29858">
        <ele>48.215823</ele>
        <time>2020-08-17T09:12:09.688Z</time>
      </trkpt>
      <trkpt lat="67.07362" lon="14.29338">
        <ele>60.65281</ele>
        <time>2020-08-17T09:13:30.666Z</time>
      </trkpt>
      <trkpt lat="67.07446" lon="14.28898">
        <ele>73.95529</ele>
        <time>2020-08-17T09:15:13.683Z</time>
      </trkpt>
      <trkpt lat="67.07587" lon="14.28535">
        <ele>81.26689</ele>
        <time>2020-08-17T09:17:05.731Z</time>
      </trkpt>
      <trkpt lat="67.07704" lon="14.28689">
        <ele>71.769125</ele>
        <time>2020-08-17T09:17:55.670Z</time>
      </trkpt>
      <trkpt lat="67.07765" lon="14.29492">
        <ele>58.05198</ele>
        <time>2020-08-17T09:18:34.681Z</time>
      </trkpt>
      <trkpt lat="67.0782" lon="14.30049">
        <ele>68.140055</ele>
        <time>2020-08-17T09:19:46.667Z</time>
      </trkpt>
      <trkpt lat="67.07869" lon="14.30588">
        <ele>64.668469</ele>
        <time>2020-08-17T09:20:54.689Z</time>
      </trkpt>
      <trkpt lat="67.07902" lon="14.3119">
        <ele>47.851065</ele>
        <time>2020-08-17T09:21:17.707Z</time>
      </trkpt>
      <trkpt lat="67.07952" lon="14.31743">
        <ele>39.925202</ele>
        <time>2020-08-17T09:21:39.706Z</time>
      </trkpt>
      <trkpt lat="67.08036" lon="14.32402">
        <ele>41.091918</ele>
        <time>2020-08-17T09:22:21.712Z</time>
      </trkpt>
      <trkpt lat="67.08176" lon="14.32812">
        <ele>41.32419</ele>
        <time>2020-08-17T09:23:01.678Z</time>
      </trkpt>
      <trkpt lat="67.08346" lon="14.32544">
        <ele>40.616302</ele>
        <time>2020-08-17T09:23:41.715Z</time>
      </trkpt>
      <trkpt lat="67.08417" lon="14.32006">
        <ele>43.446373</ele>
        <time>2020-08-17T09:24:30.677Z</time>
      </trkpt>
      <trkpt lat="67.08499" lon="14.31508">
        <ele>52.285934</ele>
        <time>2020-08-17T09:25:37.677Z</time>
      </trkpt>
      <trkpt lat="67.08705" lon="14.31357">
        <ele>58.366649</ele>
        <time>2020-08-17T09:26:46.695Z</time>
      </trkpt>
      <trkpt lat="67.08915" lon="14.3133">
        <ele>60.53117</ele>
        <time>2020-08-17T09:27:44.684Z</time>
      </trkpt>
      <trkpt lat="67.09129" lon="14.31294">
        <ele>62.786999</ele>
        <time>2020-08-17T09:28:34.697Z</time>
      </trkpt>
      <trkpt lat="67.09367" lon="14.31078">
        <ele>55.054714</ele>
        <time>2020-08-17T09:29:14.707Z</time>
      </trkpt>
      <trkpt lat="67.09588" lon="14.30937">
        <ele>47.835336</ele>
        <time>2020-08-17T09:30:00.678Z</time>
      </trkpt>
      <trkpt lat="67.09816" lon="14.3092">
        <ele>52.180215</ele>
        <time>2020-08-17T09:31:03.671Z</time>
      </trkpt>
      <trkpt lat="67.10016" lon="14.3091">
        <ele>56.747603</ele>
        <time>2020-08-17T09:32:03.715Z</time>
      </trkpt>
      <trkpt lat="67.10216" lon="14.30922">
        <ele>73.344003</ele>
        <time>2020-08-17T09:33:26.679Z</time>
      </trkpt>
      <trkpt lat="67.1037" lon="14.31194">
        <ele>86.671508</ele>
        <time>2020-08-17T09:35:10.675Z</time>
      </trkpt>
      <trkpt lat="67.10483" lon="14.3165">
        <ele>90.957796</ele>
        <time>2020-08-17T09:36:47.691Z</time>
      </trkpt>
      <trkpt lat="67.10632" lon="14.31943">
        <ele>102.680916</ele>
        <time>2020-08-17T09:38:31.662Z</time>
      </trkpt>
      <trkpt lat="67.10827" lon="14.31889">
        <ele>108.07124</ele>
        <time>2020-08-17T09:40:03.722Z</time>
      </trkpt>
      <trkpt lat="67.11025" lon="14.318">
        <ele>106.605829</ele>
        <time>2020-08-17T09:41:04.703Z</time>
      </trkpt>
      <trkpt lat="67.11262" lon="14.31704">
        <ele>101.397086</ele>
        <time>2020-08-17T09:44:26.673Z</time>
      </trkpt>
      <trkpt lat="67.11485" lon="14.31715">
        <ele>86.995858</ele>
        <time>2020-08-17T09:44:49.692Z</time>
      </trkpt>
      <trkpt lat="67.11703" lon="14.31842">
        <ele>74.279934</ele>
        <time>2020-08-17T09:45:09.719Z</time>
      </trkpt>
      <trkpt lat="67.11954" lon="14.32012">
        <ele>59.541776</ele>
        <time>2020-08-17T09:45:29.699Z</time>
      </trkpt>
      <trkpt lat="67.12151" lon="14.32422">
        <ele>55.606858</ele>
        <time>2020-08-17T09:45:54.711Z</time>
      </trkpt>
      <trkpt lat="67.12273" lon="14.32852">
        <ele>63.158671</ele>
        <time>2020-08-17T09:47:09.696Z</time>
      </trkpt>
      <trkpt lat="67.12391" lon="14.33328">
        <ele>64.880849</ele>
        <time>2020-08-17T09:48:02.720Z</time>
      </trkpt>
      <trkpt lat="67.12387" lon="14.33849">
        <ele>69.808379</ele>
        <time>2020-08-17T09:49:02.706Z</time>
      </trkpt>
      <trkpt lat="67.12488" lon="14.34288">
        <ele>77.537732</ele>
        <time>2020-08-17T09:50:25.706Z</time>
      </trkpt>
      <trkpt lat="67.12558" lon="14.34755">
        <ele>84.695214</ele>
        <time>2020-08-17T09:51:57.718Z</time>
      </trkpt>
      <trkpt lat="67.1264" lon="14.35195">
        <ele>102.718247</ele>
        <time>2020-08-17T09:54:05.712Z</time>
      </trkpt>
      <trkpt lat="67.12802" lon="14.35498">
        <ele>120.077897</ele>
        <time>2020-08-17T09:56:19.709Z</time>
      </trkpt>
      <trkpt lat="67.12965" lon="14.35781">
        <ele>130.657924</ele>
        <time>2020-08-17T09:58:13.717Z</time>
      </trkpt>
      <trkpt lat="67.13097" lon="14.36162">
        <ele>141.061532</ele>
        <time>2020-08-17T10:00:09.721Z</time>
      </trkpt>
      <trkpt lat="67.13226" lon="14.36551">
        <ele>153.520743</ele>
        <time>2020-08-17T10:01:54.698Z</time>
      </trkpt>
      <trkpt lat="67.13391" lon="14.36894">
        <ele>162.398155</ele>
        <time>2020-08-17T10:03:14.700Z</time>
      </trkpt>
      <trkpt lat="67.13554" lon="14.37213">
        <ele>180.011001</ele>
        <time>2020-08-17T10:05:13.715Z</time>
      </trkpt>
      <trkpt lat="67.13708" lon="14.37527">
        <ele>191.602143</ele>
        <time>2020-08-17T10:07:18.697Z</time>
      </trkpt>
      <trkpt lat="67.13884" lon="14.37731">
        <ele>201.99646</ele>
        <time>2020-08-17T10:09:19.754Z</time>
      </trkpt>
      <trkpt lat="67.14036" lon="14.3804">
        <ele>211.759767</ele>
        <time>2020-08-17T10:11:09.701Z</time>
      </trkpt>
      <trkpt lat="67.14179" lon="14.38411">
        <ele>228.249181</ele>
        <time>2020-08-17T10:13:26.693Z</time>
      </trkpt>
      <trkpt lat="67.14339" lon="14.38699">
        <ele>240.86897</ele>
        <time>2020-08-17T10:15:28.699Z</time>
      </trkpt>
      <trkpt lat="67.14468" lon="14.39064">
        <ele>250.699233</ele>
        <time>2020-08-17T10:17:28.719Z</time>
      </trkpt>
      <trkpt lat="67.1458" lon="14.39563">
        <ele>248.966999</ele>
        <time>2020-08-17T10:18:25.698Z</time>
      </trkpt>
      <trkpt lat="67.14716" lon="14.40111">
        <ele>231.582492</ele>
        <time>2020-08-17T10:18:45.727Z</time>
      </trkpt>
      <trkpt lat="67.14939" lon="14.4051">
        <ele>208.304074</ele>
        <time>2020-08-17T10:19:06.693Z</time>
      </trkpt>
      <trkpt lat="67.15171" lon="14.40632">
        <ele>193.05579</ele>
        <time>2020-08-17T10:19:26.692Z</time>
      </trkpt>
      <trkpt lat="67.15419" lon="14.40656">
        <ele>196.273525</ele>
        <time>2020-08-17T10:20:03.721Z</time>
      </trkpt>
      <trkpt lat="67.15591" lon="14.40954">
        <ele>200.15576</ele>
        <time>2020-08-17T10:20:50.685Z</time>
      </trkpt>
      <trkpt lat="67.15773" lon="14.41338">
        <ele>199.656064</ele>
        <time>2020-08-17T10:21:33.724Z</time>
      </trkpt>
      <trkpt lat="67.15968" lon="14.41776">
        <ele>190.629052</ele>
        <time>2020-08-17T10:21:57.710Z</time>
      </trkpt>
      <trkpt lat="67.1616" lon="14.42233">
        <ele>174.950006</ele>
        <time>2020-08-17T10:22:17.750Z</time>
      </trkpt>
      <trkpt lat="67.16271" lon="14.42748">
        <ele>169.223943</ele>
        <time>2020-08-17T10:22:49.716Z</time>
      </trkpt>
      <trkpt lat="67.16257" lon="14.43235">
        <ele>184.855274</ele>
        <time>2020-08-17T10:24:53.712Z</time>
      </trkpt>
      <trkpt lat="67.16406" lon="14.43578">
        <ele>192.295553</ele>
        <time>2020-08-17T10:26:31.705Z</time>
      </trkpt>
      <trkpt lat="67.16526" lon="14.4411">
        <ele>180.279737</ele>
        <time>2020-08-17T10:27:05.693Z</time>
      </trkpt>
      <trkpt lat="67.16594" lon="14.44721">
        <ele>173.216093</ele>
        <time>2020-08-17T10:27:45.706Z</time>
      </trkpt>
      <trkpt lat="67.16819" lon="14.44895">
        <ele>171.731468</ele>
        <time>2020-08-17T10:28:27.749Z</time>
      </trkpt>
      <trkpt lat="67.17055" lon="14.44825">
        <ele>162.299315</ele>
        <time>2020-08-17T10:28:54.742Z</time>
      </trkpt>
      <trkpt lat="67.1727" lon="14.4505">
        <ele>147.792334</ele>
        <time>2020-08-17T10:29:20.714Z</time>
      </trkpt>
      <trkpt lat="67.1746" lon="14.45461">
        <ele>130.975094</ele>
        <time>2020-08-17T10:29:44.694Z</time>
      </trkpt>
      <trkpt lat="67.17655" lon="14.45781">
        <ele>120.819664</ele>
        <time>2020-08-17T10:30:04.690Z</time>
      </trkpt>
      <trkpt lat="67.1787" lon="14.46155">
        <ele>109.583983</ele>
        <time>2020-08-17T10:30:36.691Z</time>
      </trkpt>
      <trkpt lat="67.18021" lon="14.46617">
        <ele>97.476293</ele>
        <time>2020-08-17T10:30:59.749Z</time>
      </trkpt>
      <trkpt lat="67.18028" lon="14.47268">
        <ele>83.503592</ele>
        <time>2020-08-17T10:31:19.718Z</time>
      </trkpt>
      <trkpt lat="67.18089" lon="14.47816">
        <ele>70.49413</ele>
        <time>2020-08-17T10:31:40.704Z</time>
      </trkpt>
      <trkpt lat="67.18161" lon="14.48355">
        <ele>61.754967</ele>
        <time>2020-08-17T10:32:00.698Z</time>
      </trkpt>
      <trkpt lat="67.18212" lon="14.4886">
        <ele>57.060417</ele>
        <time>2020-08-17T10:32:20.687Z</time>
      </trkpt>
      <trkpt lat="67.1831" lon="14.49446">
        <ele>50.703946</ele>
        <time>2020-08-17T10:32:40.692Z</time>
      </trkpt>
      <trkpt lat="67.18267" lon="14.50068">
        <ele>46.879243</ele>
        <time>2020-08-17T10:33:20.699Z</time>
      </trkpt>
      <trkpt lat="67.18238" lon="14.50658">
        <ele>41.016683</ele>
        <time>2020-08-17T10:33:46.689Z</time>
      </trkpt>
      <trkpt lat="67.18139" lon="14.51131">
        <ele>48.060479</ele>
        <time>2020-08-17T10:34:49.704Z</time>
      </trkpt>
      <trkpt lat="67.18113" lon="14.51635">
        <ele>48.359416</ele>
        <time>2020-08-17T10:35:33.691Z</time>
      </trkpt>
      <trkpt lat="67.18137" lon="14.5217">
        <ele>54.72148</ele>
        <time>2020-08-17T10:37:00.711Z</time>
      </trkpt>
      <trkpt lat="67.18098" lon="14.52752">
        <ele>48.992501</ele>
        <time>2020-08-17T10:37:56.699Z</time>
      </trkpt>
      <trkpt lat="67.18117" lon="14.53355">
        <ele>37.023626</ele>
        <time>2020-08-17T10:38:32.720Z</time>
      </trkpt>
      <trkpt lat="67.18035" lon="14.53907">
        <ele>38.325634</ele>
        <time>2020-08-17T10:39:20.688Z</time>
      </trkpt>
      <trkpt lat="67.17949" lon="14.54391">
        <ele>45.380042</ele>
        <time>2020-08-17T10:40:14.700Z</time>
      </trkpt>
      <trkpt lat="67.17877" lon="14.54903">
        <ele>49.904787</ele>
        <time>2020-08-17T10:41:34.706Z</time>
      </trkpt>
      <trkpt lat="67.17871" lon="14.55582">
        <ele>46.285037</ele>
        <time>2020-08-17T10:42:24.697Z</time>
      </trkpt>
      <trkpt lat="67.17826" lon="14.56223">
        <ele>49.188926</ele>
        <time>2020-08-17T10:43:06.694Z</time>
      </trkpt>
      <trkpt lat="67.17794" lon="14.56749">
        <ele>53.347645</ele>
        <time>2020-08-17T10:44:21.699Z</time>
      </trkpt>
      <trkpt lat="67.17803" lon="14.57374">
        <ele>47.422038</ele>
        <time>2020-08-17T10:45:03.713Z</time>
      </trkpt>
      <trkpt lat="67.17956" lon="14.57841">
        <ele>46.712203</ele>
        <time>2020-08-17T10:45:58.729Z</time>
      </trkpt>
      <trkpt lat="67.18085" lon="14.58255">
        <ele>61.55753</ele>
        <time>2020-08-17T10:47:46.703Z</time>
      </trkpt>
      <trkpt lat="67.18077" lon="14.58738">
        <ele>78.567573</ele>
        <time>2020-08-17T10:49:48.699Z</time>
      </trkpt>
      <trkpt lat="67.18018" lon="14.59216">
        <ele>88.095671</ele>
        <time>2020-08-17T10:51:49.714Z</time>
      </trkpt>
      <trkpt lat="67.18029" lon="14.59714">
        <ele>101.032127</ele>
        <time>2020-08-17T10:53:44.736Z</time>
      </trkpt>
      <trkpt lat="67.18171" lon="14.60101">
        <ele>106.851664</ele>
        <time>2020-08-17T10:55:04.726Z</time>
      </trkpt>
      <trkpt lat="67.18408" lon="14.60101">
        <ele>91.022564</ele>
        <time>2020-08-17T10:55:30.718Z</time>
      </trkpt>
      <trkpt lat="67.18615" lon="14.60186">
        <ele>78.382697</ele>
        <time>2020-08-17T10:55:50.709Z</time>
      </trkpt>
      <trkpt lat="67.18849" lon="14.60365">
        <ele>69.843625</ele>
        <time>2020-08-17T10:56:19.730Z</time>
      </trkpt>
      <trkpt lat="67.19119" lon="14.60413">
        <ele>58.453968</ele>
        <time>2020-08-17T10:56:53.731Z</time>
      </trkpt>
      <trkpt lat="67.19353" lon="14.60432">
        <ele>46.214712</ele>
        <time>2020-08-17T10:57:20.712Z</time>
      </trkpt>
      <trkpt lat="67.19551" lon="14.60656">
        <ele>41.743073</ele>
        <time>2020-08-17T10:58:07.714Z</time>
      </trkpt>
      <trkpt lat="67.19638" lon="14.61291">
        <ele>44.661512</ele>
        <time>2020-08-17T10:58:47.728Z</time>
      </trkpt>
      <trkpt lat="67.19686" lon="14.61893">
        <ele>46.077484</ele>
        <time>2020-08-17T10:59:34.740Z</time>
      </trkpt>
      <trkpt lat="67.19662" lon="14.62401">
        <ele>48.027777</ele>
        <time>2020-08-17T11:00:37.727Z</time>
      </trkpt>
      <trkpt lat="67.19705" lon="14.63006">
        <ele>44.590116</ele>
        <time>2020-08-17T11:01:20.706Z</time>
      </trkpt>
      <trkpt lat="67.19896" lon="14.63331">
        <ele>43.971948</ele>
        <time>2020-08-17T11:02:25.708Z</time>
      </trkpt>
      <trkpt lat="67.20114" lon="14.63315">
        <ele>40.447925</ele>
        <time>2020-08-17T11:03:11.716Z</time>
      </trkpt>
      <trkpt lat="67.20246" lon="14.62856">
        <ele>42.466058</ele>
        <time>2020-08-17T11:03:59.729Z</time>
      </trkpt>
      <trkpt lat="67.20374" lon="14.62366">
        <ele>40.735844</ele>
        <time>2020-08-17T11:04:52.699Z</time>
      </trkpt>
      <trkpt lat="67.20483" lon="14.61861">
        <ele>47.665521</ele>
        <time>2020-08-17T11:06:04.697Z</time>
      </trkpt>
      <trkpt lat="67.2059" lon="14.6142">
        <ele>55.434012</ele>
        <time>2020-08-17T11:07:32.700Z</time>
      </trkpt>
      <trkpt lat="67.20622" lon="14.60918">
        <ele>69.828402</ele>
        <time>2020-08-17T11:09:37.736Z</time>
      </trkpt>
      <trkpt lat="67.20781" lon="14.60691">
        <ele>75.6175</ele>
        <time>2020-08-17T11:11:12.716Z</time>
      </trkpt>
      <trkpt lat="67.20952" lon="14.60931">
        <ele>93.081668</ele>
        <time>2020-08-17T11:13:11.699Z</time>
      </trkpt>
      <trkpt lat="67.211" lon="14.61265">
        <ele>101.811642</ele>
        <time>2020-08-17T11:15:22.700Z</time>
      </trkpt>
      <trkpt lat="67.21172" lon="14.61772">
        <ele>104.633977</ele>
        <time>2020-08-17T11:16:51.715Z</time>
      </trkpt>
      <trkpt lat="67.21302" lon="14.62225">
        <ele>108.517275</ele>
        <time>2020-08-17T11:18:06.701Z</time>
      </trkpt>
      <trkpt lat="67.21499" lon="14.62553">
        <ele>97.551954</ele>
        <time>2020-08-17T11:18:40.731Z</time>
      </trkpt>
      <trkpt lat="67.21726" lon="14.62506">
        <ele>79.495288</ele>
        <time>2020-08-17T11:19:00.711Z</time>
      </trkpt>
      <trkpt lat="67.21928" lon="14.62046">
        <ele>56.48479</ele>
        <time>2020-08-17T11:19:21.734Z</time>
      </trkpt>
      <trkpt lat="67.22092" lon="14.61489">
        <ele>39.421725</ele>
        <time>2020-08-17T11:19:41.775Z</time>
      </trkpt>
      <trkpt lat="67.22298" lon="14.61227">
        <ele>43.882675</ele>
        <time>2020-08-17T11:20:26.696Z</time>
      </trkpt>
      <trkpt lat="67.22481" lon="14.6104">
        <ele>61.725502</ele>
        <time>2020-08-17T11:22:19.708Z</time>
      </trkpt>
      <trkpt lat="67.22655" lon="14.60755">
        <ele>68.880292</ele>
        <time>2020-08-17T11:24:09.711Z</time>
      </trkpt>
      <trkpt lat="67.22795" lon="14.60374">
        <ele>63.352321</ele>
        <time>2020-08-17T11:25:04.731Z</time>
      </trkpt>
      <trkpt lat="67.22926" lon="14.60445">
        <ele>66.884305</ele>
        <time>2020-08-17T11:54:15.338Z</time>
      </trkpt>
      <trkpt lat="67.23042" lon="14.60895">
        <ele>69.984383</ele>
        <time>2020-08-17T11:56:11.345Z</time>
      </trkpt>
      <trkpt lat="67.23138" lon="14.61326">
        <ele>78.411134</ele>
        <time>2020-08-17T11:58:00.413Z</time>
      </trkpt>
      <trkpt lat="67.23259" lon="14.61814">
        <ele>73.930563</ele>
        <time>2020-08-17T11:58:50.322Z</time>
      </trkpt>
      <trkpt lat="67.23347" lon="14.62301">
        <ele>61.793855</ele>
        <time>2020-08-17T11:59:43.328Z</time>
      </trkpt>
      <trkpt lat="67.23423" lon="14.62737">
        <ele>62.953995</ele>
        <time>2020-08-17T12:00:55.318Z</time>
      </trkpt>
      <trkpt lat="67.23446" lon="14.63299">
        <ele>67.733192</ele>
        <time>2020-08-17T12:01:55.327Z</time>
      </trkpt>
      <trkpt lat="67.2348" lon="14.6383">
        <ele>72.607464</ele>
        <time>2020-08-17T12:02:58.326Z</time>
      </trkpt>
      <trkpt lat="67.2358" lon="14.64401">
        <ele>71.52382</ele>
        <time>2020-08-17T12:03:47.338Z</time>
      </trkpt>
      <trkpt lat="67.23677" lon="14.65017">
        <ele>67.334528</ele>
        <time>2020-08-17T12:04:24.339Z</time>
      </trkpt>
      <trkpt lat="67.23649" lon="14.65594">
        <ele>61.561239</ele>
        <time>2020-08-17T12:04:44.312Z</time>
      </trkpt>
      <trkpt lat="67.23638" lon="14.66209">
        <ele>57.632897</ele>
        <time>2020-08-17T12:05:24.349Z</time>
      </trkpt>
      <trkpt lat="67.23628" lon="14.66724">
        <ele>61.636302</ele>
        <time>2020-08-17T12:06:18.315Z</time>
      </trkpt>
      <trkpt lat="67.23581" lon="14.67282">
        <ele>62.938215</ele>
        <time>2020-08-17T12:07:09.310Z</time>
      </trkpt>
      <trkpt lat="67.23582" lon="14.67854">
        <ele>63.200529</ele>
        <time>2020-08-17T12:08:00.328Z</time>
      </trkpt>
      <trkpt lat="67.23625" lon="14.68492">
        <ele>58.992192</ele>
        <time>2020-08-17T12:08:40.336Z</time>
      </trkpt>
      <trkpt lat="67.23669" lon="14.69164">
        <ele>53.86962</ele>
        <time>2020-08-17T12:09:20.320Z</time>
      </trkpt>
      <trkpt lat="67.23708" lon="14.69776">
        <ele>53.189721</ele>
        <time>2020-08-17T12:10:00.358Z</time>
      </trkpt>
      <trkpt lat="67.23747" lon="14.70367">
        <ele>51.572097</ele>
        <time>2020-08-17T12:10:42.326Z</time>
      </trkpt>
      <trkpt lat="67.23852" lon="14.70941">
        <ele>45.833585</ele>
        <time>2020-08-17T12:11:15.332Z</time>
      </trkpt>
      <trkpt lat="67.24043" lon="14.71286">
        <ele>37.463536</ele>
        <time>2020-08-17T12:11:41.335Z</time>
      </trkpt>
      <trkpt lat="67.2423" lon="14.71577">
        <ele>37.535263</ele>
        <time>2020-08-17T12:12:30.310Z</time>
      </trkpt>
      <trkpt lat="67.24344" lon="14.72063">
        <ele>39.063468</ele>
        <time>2020-08-17T12:13:18.348Z</time>
      </trkpt>
      <trkpt lat="67.24547" lon="14.7215">
        <ele>40.717292</ele>
        <time>2020-08-17T12:14:14.321Z</time>
      </trkpt>
      <trkpt lat="67.24624" lon="14.71684">
        <ele>44.068287</ele>
        <time>2020-08-17T12:15:23.335Z</time>
      </trkpt>
      <trkpt lat="67.24707" lon="14.71167">
        <ele>46.886442</ele>
        <time>2020-08-17T12:16:17.332Z</time>
      </trkpt>
      <trkpt lat="67.2479" lon="14.70692">
        <ele>48.718943</ele>
        <time>2020-08-17T12:17:20.328Z</time>
      </trkpt>
      <trkpt lat="67.25003" lon="14.70635">
        <ele>52.043777</ele>
        <time>2020-08-17T12:18:37.321Z</time>
      </trkpt>
      <trkpt lat="67.25186" lon="14.70815">
        <ele>67.652202</ele>
        <time>2020-08-17T12:20:37.380Z</time>
      </trkpt>
      <trkpt lat="67.25311" lon="14.71047">
        <ele>81.228895</ele>
        <time>2020-08-17T12:22:47.348Z</time>
      </trkpt>
      <trkpt lat="67.25476" lon="14.71287">
        <ele>85.118671</ele>
        <time>2020-08-17T12:24:17.361Z</time>
      </trkpt>
      <trkpt lat="67.2563" lon="14.71721">
        <ele>82.911013</ele>
        <time>2020-08-17T12:24:57.323Z</time>
      </trkpt>
      <trkpt lat="67.2574" lon="14.72229">
        <ele>83.536848</ele>
        <time>2020-08-17T12:25:43.366Z</time>
      </trkpt>
      <trkpt lat="67.25904" lon="14.72602">
        <ele>79.109555</ele>
        <time>2020-08-17T12:26:03.319Z</time>
      </trkpt>
      <trkpt lat="67.26067" lon="14.72987">
        <ele>69.898369</ele>
        <time>2020-08-17T12:26:32.348Z</time>
      </trkpt>
      <trkpt lat="67.26206" lon="14.73429">
        <ele>61.178723</ele>
        <time>2020-08-17T12:27:01.362Z</time>
      </trkpt>
      <trkpt lat="67.26413" lon="14.73766">
        <ele>56.706525</ele>
        <time>2020-08-17T12:27:39.336Z</time>
      </trkpt>
      <trkpt lat="67.26653" lon="14.73806">
        <ele>59.759935</ele>
        <time>2020-08-17T12:28:33.322Z</time>
      </trkpt>
      <trkpt lat="67.26886" lon="14.73667">
        <ele>61.2089</ele>
        <time>2020-08-17T12:29:30.338Z</time>
      </trkpt>
      <trkpt lat="67.27071" lon="14.7337">
        <ele>59.326669</ele>
        <time>2020-08-17T12:30:24.347Z</time>
      </trkpt>
      <trkpt lat="67.27229" lon="14.72798">
        <ele>48.679493</ele>
        <time>2020-08-17T12:31:04.328Z</time>
      </trkpt>
      <trkpt lat="67.27427" lon="14.72592">
        <ele>43.304091</ele>
        <time>2020-08-17T12:31:39.400Z</time>
      </trkpt>
      <trkpt lat="67.27567" lon="14.73023">
        <ele>47.71099</ele>
        <time>2020-08-17T12:32:35.342Z</time>
      </trkpt>
      <trkpt lat="67.27776" lon="14.72723">
        <ele>42.250814</ele>
        <time>2020-08-17T12:33:12.346Z</time>
      </trkpt>
      <trkpt lat="67.27953" lon="14.72466">
        <ele>48.178114</ele>
        <time>2020-08-17T12:37:05.364Z</time>
      </trkpt>
      <trkpt lat="67.28101" lon="14.72753">
        <ele>56.043471</ele>
        <time>2020-08-17T12:38:39.323Z</time>
      </trkpt>
      <trkpt lat="67.28241" lon="14.73228">
        <ele>53.043391</ele>
        <time>2020-08-17T12:39:29.332Z</time>
      </trkpt>
      <trkpt lat="67.28399" lon="14.73254">
        <ele>46.320412</ele>
        <time>2020-08-17T12:39:53.336Z</time>
      </trkpt>
      <trkpt lat="67.28564" lon="14.73035">
        <ele>49.694547</ele>
        <time>2020-08-17T12:41:10.388Z</time>
      </trkpt>
      <trkpt lat="67.28754" lon="14.72851">
        <ele>57.044663</ele>
        <time>2020-08-17T12:42:42.338Z</time>
      </trkpt>
      <trkpt lat="67.28946" lon="14.72611">
        <ele>50.460084</ele>
        <time>2020-08-17T12:43:26.336Z</time>
      </trkpt>
      <trkpt lat="67.29172" lon="14.72696">
        <ele>48.584132</ele>
        <time>2020-08-17T12:44:24.326Z</time>
      </trkpt>
      <trkpt lat="67.29412" lon="14.72798">
        <ele>46.674227</ele>
        <time>2020-08-17T12:45:15.348Z</time>
      </trkpt>
      <trkpt lat="67.29632" lon="14.72875">
        <ele>43.888516</ele>
        <time>2020-08-17T12:46:05.344Z</time>
      </trkpt>
      <trkpt lat="67.29829" lon="14.73081">
        <ele>48.094867</ele>
        <time>2020-08-17T12:47:05.343Z</time>
      </trkpt>
      <trkpt lat="67.29958" lon="14.73492">
        <ele>55.401344</ele>
        <time>2020-08-17T12:48:20.387Z</time>
      </trkpt>
      <trkpt lat="67.30121" lon="14.73795">
        <ele>52.823788</ele>
        <time>2020-08-17T12:49:32.347Z</time>
      </trkpt>
      <trkpt lat="67.30338" lon="14.73491">
        <ele>42.297205</ele>
        <time>2020-08-17T12:50:02.342Z</time>
      </trkpt>
      <trkpt lat="67.30413" lon="14.72962">
        <ele>42.239415</ele>
        <time>2020-08-17T12:50:56.348Z</time>
      </trkpt>
      <trkpt lat="67.30445" lon="14.72457">
        <ele>51.582445</ele>
        <time>2020-08-17T12:52:40.375Z</time>
      </trkpt>
      <trkpt lat="67.30484" lon="14.71952">
        <ele>57.618088</ele>
        <time>2020-08-17T12:54:18.337Z</time>
      </trkpt>
      <trkpt lat="67.30494" lon="14.71315">
        <ele>48.305603</ele>
        <time>2020-08-17T12:55:04.339Z</time>
      </trkpt>
      <trkpt lat="67.30408" lon="14.70806">
        <ele>39.474526</ele>
        <time>2020-08-17T12:55:27.339Z</time>
      </trkpt>
      <trkpt lat="67.30285" lon="14.70328">
        <ele>42.690794</ele>
        <time>2020-08-17T12:56:18.340Z</time>
      </trkpt>
      <trkpt lat="67.30139" lon="14.69949">
        <ele>45.746505</ele>
        <time>2020-08-17T12:57:20.387Z</time>
      </trkpt>
      <trkpt lat="67.30023" lon="14.69512">
        <ele>47.970508</ele>
        <time>2020-08-17T12:58:32.340Z</time>
      </trkpt>
      <trkpt lat="67.29984" lon="14.68941">
        <ele>45.654049</ele>
        <time>2020-08-17T12:59:23.348Z</time>
      </trkpt>
      <trkpt lat="67.29887" lon="14.68486">
        <ele>52.892706</ele>
        <time>2020-08-17T13:00:39.331Z</time>
      </trkpt>
      <trkpt lat="67.29725" lon="14.68105">
        <ele>52.871637</ele>
        <time>2020-08-17T13:01:39.338Z</time>
      </trkpt>
      <trkpt lat="67.29586" lon="14.67701">
        <ele>51.909273</ele>
        <time>2020-08-17T13:02:32.340Z</time>
      </trkpt>
      <trkpt lat="67.29487" lon="14.67263">
        <ele>48.802544</ele>
        <time>2020-08-17T13:03:14.344Z</time>
      </trkpt>
      <trkpt lat="67.29451" lon="14.6661">
        <ele>40.413477</ele>
        <time>2020-08-17T13:03:56.349Z</time>
      </trkpt>
      <trkpt lat="67.29429" lon="14.6603">
        <ele>42.188739</ele>
        <time>2020-08-17T13:04:46.353Z</time>
      </trkpt>
      <trkpt lat="67.29387" lon="14.65538">
        <ele>48.034704</ele>
        <time>2020-08-17T13:05:58.340Z</time>
      </trkpt>
      <trkpt lat="67.29334" lon="14.65033">
        <ele>52.248768</ele>
        <time>2020-08-17T13:07:40.331Z</time>
      </trkpt>
      <trkpt lat="67.29281" lon="14.64448">
        <ele>47.221548</ele>
        <time>2020-08-17T13:08:22.360Z</time>
      </trkpt>
      <trkpt lat="67.29229" lon="14.6383">
        <ele>40.467359</ele>
        <time>2020-08-17T13:09:02.322Z</time>
      </trkpt>
      <trkpt lat="67.29142" lon="14.63294">
        <ele>37.471783</ele>
        <time>2020-08-17T13:09:42.347Z</time>
      </trkpt>
      <trkpt lat="67.29064" lon="14.62818">
        <ele>43.733274</ele>
        <time>2020-08-17T13:10:57.343Z</time>
      </trkpt>
      <trkpt lat="67.29008" lon="14.62191">
        <ele>37.96654</ele>
        <time>2020-08-17T13:11:42.330Z</time>
      </trkpt>
      <trkpt lat="67.28966" lon="14.61627">
        <ele>30.375898</ele>
        <time>2020-08-17T13:12:24.327Z</time>
      </trkpt>
      <trkpt lat="67.28987" lon="14.61093">
        <ele>35.550725</ele>
        <time>2020-08-17T13:13:22.347Z</time>
      </trkpt>
      <trkpt lat="67.28923" lon="14.60587">
        <ele>45.179806</ele>
        <time>2020-08-17T13:14:36.351Z</time>
      </trkpt>
      <trkpt lat="67.28884" lon="14.60094">
        <ele>55.886344</ele>
        <time>2020-08-17T13:16:30.367Z</time>
      </trkpt>
      <trkpt lat="67.28822" lon="14.5959">
        <ele>55.984739</ele>
        <time>2020-08-17T13:17:37.340Z</time>
      </trkpt>
      <trkpt lat="67.28737" lon="14.5901">
        <ele>58.683259</ele>
        <time>2020-08-17T13:18:38.339Z</time>
      </trkpt>
      <trkpt lat="67.28681" lon="14.58512">
        <ele>62.683094</ele>
        <time>2020-08-17T13:19:50.362Z</time>
      </trkpt>
      <trkpt lat="67.28616" lon="14.57957">
        <ele>61.574751</ele>
        <time>2020-08-17T13:20:52.343Z</time>
      </trkpt>
      <trkpt lat="67.28547" lon="14.57356">
        <ele>57.036546</ele>
        <time>2020-08-17T13:21:34.338Z</time>
      </trkpt>
      <trkpt lat="67.28484" lon="14.56823">
        <ele>56.278201</ele>
        <time>2020-08-17T13:22:21.341Z</time>
      </trkpt>
      <trkpt lat="67.2842" lon="14.56253">
        <ele>57.692576</ele>
        <time>2020-08-17T13:23:15.341Z</time>
      </trkpt>
      <trkpt lat="67.28351" lon="14.55675">
        <ele>60.674973</ele>
        <time>2020-08-17T13:24:11.363Z</time>
      </trkpt>
      <trkpt lat="67.28276" lon="14.55139">
        <ele>64.092765</ele>
        <time>2020-08-17T13:25:18.346Z</time>
      </trkpt>
      <trkpt lat="67.28171" lon="14.54609">
        <ele>63.76713</ele>
        <time>2020-08-17T13:26:20.338Z</time>
      </trkpt>
      <trkpt lat="67.28077" lon="14.54104">
        <ele>58.419767</ele>
        <time>2020-08-17T13:27:09.350Z</time>
      </trkpt>
      <trkpt lat="67.27997" lon="14.53538">
        <ele>54.410102</ele>
        <time>2020-08-17T13:27:54.356Z</time>
      </trkpt>
      <trkpt lat="67.27933" lon="14.52966">
        <ele>49.324019</ele>
        <time>2020-08-17T13:28:34.384Z</time>
      </trkpt>
      <trkpt lat="67.27883" lon="14.52427">
        <ele>51.276822</ele>
        <time>2020-08-17T13:29:16.336Z</time>
      </trkpt>
      <trkpt lat="67.27832" lon="14.51891">
        <ele>55.168119</ele>
        <time>2020-08-17T13:30:15.369Z</time>
      </trkpt>
      <trkpt lat="67.27784" lon="14.51301">
        <ele>53.599229</ele>
        <time>2020-08-17T13:31:19.358Z</time>
      </trkpt>
      <trkpt lat="67.27733" lon="14.50742">
        <ele>53.718853</ele>
        <time>2020-08-17T13:32:19.342Z</time>
      </trkpt>
      <trkpt lat="67.27689" lon="14.50223">
        <ele>57.892712</ele>
        <time>2020-08-17T13:33:33.352Z</time>
      </trkpt>
      <trkpt lat="67.27704" lon="14.49717">
        <ele>65.28837</ele>
        <time>2020-08-17T13:34:53.343Z</time>
      </trkpt>
      <trkpt lat="67.27783" lon="14.49238">
        <ele>70.204278</ele>
        <time>2020-08-17T13:36:12.345Z</time>
      </trkpt>
      <trkpt lat="67.2783" lon="14.48692">
        <ele>66.640498</ele>
        <time>2020-08-17T13:37:14.351Z</time>
      </trkpt>
      <trkpt lat="67.27779" lon="14.48021">
        <ele>53.874318</ele>
        <time>2020-08-17T13:37:54.376Z</time>
      </trkpt>
      <trkpt lat="67.27742" lon="14.4745">
        <ele>50.164619</ele>
        <time>2020-08-17T13:38:34.333Z</time>
      </trkpt>
      <trkpt lat="67.27733" lon="14.46883">
        <ele>48.340183</ele>
        <time>2020-08-17T13:39:14.339Z</time>
      </trkpt>
      <trkpt lat="67.2769" lon="14.46365">
        <ele>52.047355</ele>
        <time>2020-08-17T13:40:04.366Z</time>
      </trkpt>
      <trkpt lat="67.27667" lon="14.45834">
        <ele>57.620481</ele>
        <time>2020-08-17T13:41:14.351Z</time>
      </trkpt>
      <trkpt lat="67.2763" lon="14.45298">
        <ele>53.016601</ele>
        <time>2020-08-17T13:42:00.334Z</time>
      </trkpt>
      <trkpt lat="67.27582" lon="14.44772">
        <ele>45.146962</ele>
        <time>2020-08-17T13:42:40.340Z</time>
      </trkpt>
      <trkpt lat="67.27512" lon="14.44248">
        <ele>45.720004</ele>
        <time>2020-08-17T13:43:20.334Z</time>
      </trkpt>
      <trkpt lat="67.27651" lon="14.43825">
        <ele>45.528976</ele>
        <time>2020-08-17T13:44:00.359Z</time>
      </trkpt>
      <trkpt lat="67.27773" lon="14.43338">
        <ele>47.59791</ele>
        <time>2020-08-17T13:44:49.328Z</time>
      </trkpt>
      <trkpt lat="67.27914" lon="14.42882">
        <ele>47.698368</ele>
        <time>2020-08-17T13:45:41.356Z</time>
      </trkpt>
      <trkpt lat="67.28042" lon="14.4239">
        <ele>49.950175</ele>
        <time>2020-08-17T13:46:41.364Z</time>
      </trkpt>
      <trkpt lat="67.28149" lon="14.41961">
        <ele>50.148738</ele>
        <time>2020-08-17T13:47:28.343Z</time>
      </trkpt>
      <trkpt lat="67.28261" lon="14.41513">
        <ele>50.806874</ele>
        <time>2020-08-17T13:48:26.370Z</time>
      </trkpt>
      <trkpt lat="67.28361" lon="14.4174">
        <ele>53.08514</ele>
        <time>2020-08-17T13:49:27.346Z</time>
      </trkpt>
      <trkpt lat="67.28448" lon="14.41707">
        <ele>56.303772</ele>
        <time>2020-08-17T13:53:19.348Z</time>
      </trkpt>
    </trkseg>
  </trk>
  <trk>
    <name><![CDATA[Tour d'Europe: étape 052]]></name>
    <trkseg>
      <trkpt lat="67.90058" lon="13.04655">
        <ele>50.372237</ele>
        <time>2020-08-19T12:37:31.864Z</time>
      </trkpt>
      <trkpt lat="67.90208" lon="13.04289">
        <ele>55.378407</ele>
        <time>2020-08-19T12:38:35.852Z</time>
      </trkpt>
      <trkpt lat="67.90351" lon="13.04392">
        <ele>64.912303</ele>
        <time>2020-08-19T12:40:21.857Z</time>
      </trkpt>
      <trkpt lat="67.90527" lon="13.04676">
        <ele>67.721737</ele>
        <time>2020-08-19T12:41:18.903Z</time>
      </trkpt>
      <trkpt lat="67.91031" lon="13.06997">
        <ele>77.024744</ele>
        <time>2020-08-19T12:45:25.838Z</time>
      </trkpt>
      <trkpt lat="67.91208" lon="13.07408">
        <ele>66.729748</ele>
        <time>2020-08-19T12:46:05.848Z</time>
      </trkpt>
      <trkpt lat="67.91392" lon="13.0786">
        <ele>63.107675</ele>
        <time>2020-08-19T12:46:41.848Z</time>
      </trkpt>
      <trkpt lat="67.91641" lon="13.08107">
        <ele>62.787564</ele>
        <time>2020-08-19T12:47:28.845Z</time>
      </trkpt>
      <trkpt lat="67.91851" lon="13.08136">
        <ele>67.739232</ele>
        <time>2020-08-19T12:48:39.845Z</time>
      </trkpt>
      <trkpt lat="67.92031" lon="13.07885">
        <ele>66.098231</ele>
        <time>2020-08-19T12:49:19.849Z</time>
      </trkpt>
      <trkpt lat="67.92284" lon="13.07897">
        <ele>61.639455</ele>
        <time>2020-08-19T12:54:04.841Z</time>
      </trkpt>
      <trkpt lat="67.92505" lon="13.08245">
        <ele>57.705649</ele>
        <time>2020-08-19T12:54:44.861Z</time>
      </trkpt>
      <trkpt lat="67.92713" lon="13.08341">
        <ele>62.865681</ele>
        <time>2020-08-19T12:55:57.844Z</time>
      </trkpt>
      <trkpt lat="67.92922" lon="13.08233">
        <ele>64.720207</ele>
        <time>2020-08-19T12:57:05.841Z</time>
      </trkpt>
      <trkpt lat="67.93102" lon="13.07815">
        <ele>58.962323</ele>
        <time>2020-08-19T12:57:41.896Z</time>
      </trkpt>
      <trkpt lat="67.93303" lon="13.07464">
        <ele>55.34335</ele>
        <time>2020-08-19T12:58:25.859Z</time>
      </trkpt>
      <trkpt lat="67.93531" lon="13.07434">
        <ele>52.651329</ele>
        <time>2020-08-19T12:59:04.882Z</time>
      </trkpt>
      <trkpt lat="67.9375" lon="13.07239">
        <ele>49.753728</ele>
        <time>2020-08-19T12:59:46.850Z</time>
      </trkpt>
      <trkpt lat="67.93935" lon="13.07558">
        <ele>49.011411</ele>
        <time>2020-08-19T13:00:26.845Z</time>
      </trkpt>
      <trkpt lat="67.93907" lon="13.08099">
        <ele>48.355973</ele>
        <time>2020-08-19T13:01:06.851Z</time>
      </trkpt>
      <trkpt lat="67.93941" lon="13.08611">
        <ele>53.540752</ele>
        <time>2020-08-19T13:04:42.857Z</time>
      </trkpt>
      <trkpt lat="67.93938" lon="13.09219">
        <ele>49.512749</ele>
        <time>2020-08-19T13:05:33.873Z</time>
      </trkpt>
      <trkpt lat="67.94108" lon="13.0963">
        <ele>49.449004</ele>
        <time>2020-08-19T13:06:16.841Z</time>
      </trkpt>
      <trkpt lat="67.94259" lon="13.10084">
        <ele>53.000779</ele>
        <time>2020-08-19T13:07:08.848Z</time>
      </trkpt>
      <trkpt lat="67.94198" lon="13.10601">
        <ele>57.345133</ele>
        <time>2020-08-19T13:08:35.909Z</time>
      </trkpt>
      <trkpt lat="67.94155" lon="13.11243">
        <ele>47.446183</ele>
        <time>2020-08-19T13:09:13.853Z</time>
      </trkpt>
      <trkpt lat="67.94126" lon="13.11815">
        <ele>44.972577</ele>
        <time>2020-08-19T13:09:53.850Z</time>
      </trkpt>
      <trkpt lat="67.943" lon="13.1205">
        <ele>45.723639</ele>
        <time>2020-08-19T13:10:33.852Z</time>
      </trkpt>
      <trkpt lat="67.94481" lon="13.12311">
        <ele>52.146203</ele>
        <time>2020-08-19T13:11:29.875Z</time>
      </trkpt>
      <trkpt lat="67.94534" lon="13.12816">
        <ele>63.931998</ele>
        <time>2020-08-19T13:13:05.861Z</time>
      </trkpt>
      <trkpt lat="67.94534" lon="13.13475">
        <ele>58.384559</ele>
        <time>2020-08-19T13:14:20.856Z</time>
      </trkpt>
      <trkpt lat="67.94692" lon="13.1377">
        <ele>47.542175</ele>
        <time>2020-08-19T13:14:40.878Z</time>
      </trkpt>
      <trkpt lat="67.94931" lon="13.13747">
        <ele>50.896101</ele>
        <time>2020-08-19T13:15:31.859Z</time>
      </trkpt>
      <trkpt lat="67.95135" lon="13.13733">
        <ele>54.4808</ele>
        <time>2020-08-19T13:16:34.857Z</time>
      </trkpt>
      <trkpt lat="67.95333" lon="13.14005">
        <ele>55.893403</ele>
        <time>2020-08-19T13:17:16.912Z</time>
      </trkpt>
      <trkpt lat="67.95556" lon="13.14153">
        <ele>53.64605</ele>
        <time>2020-08-19T13:18:01.868Z</time>
      </trkpt>
      <trkpt lat="67.95767" lon="13.14348">
        <ele>55.630614</ele>
        <time>2020-08-19T13:19:01.848Z</time>
      </trkpt>
      <trkpt lat="67.95975" lon="13.1463">
        <ele>62.685183</ele>
        <time>2020-08-19T13:20:00.866Z</time>
      </trkpt>
      <trkpt lat="67.96114" lon="13.14979">
        <ele>75.534061</ele>
        <time>2020-08-19T13:21:57.926Z</time>
      </trkpt>
      <trkpt lat="67.96239" lon="13.15367">
        <ele>90.59467</ele>
        <time>2020-08-19T13:25:26.880Z</time>
      </trkpt>
      <trkpt lat="67.96351" lon="13.15926">
        <ele>86.295078</ele>
        <time>2020-08-19T13:26:11.851Z</time>
      </trkpt>
      <trkpt lat="67.96468" lon="13.16681">
        <ele>80.713413</ele>
        <time>2020-08-19T13:26:45.859Z</time>
      </trkpt>
      <trkpt lat="67.96687" lon="13.17012">
        <ele>80.464668</ele>
        <time>2020-08-19T13:27:25.849Z</time>
      </trkpt>
      <trkpt lat="67.96868" lon="13.17361">
        <ele>77.49786</ele>
        <time>2020-08-19T13:27:49.860Z</time>
      </trkpt>
      <trkpt lat="67.97103" lon="13.17543">
        <ele>72.461714</ele>
        <time>2020-08-19T13:28:29.868Z</time>
      </trkpt>
      <trkpt lat="67.97294" lon="13.17942">
        <ele>60.199544</ele>
        <time>2020-08-19T13:28:56.862Z</time>
      </trkpt>
      <trkpt lat="67.97486" lon="13.18354">
        <ele>52.342742</ele>
        <time>2020-08-19T13:29:35.854Z</time>
      </trkpt>
      <trkpt lat="67.97668" lon="13.1853">
        <ele>61.294181</ele>
        <time>2020-08-19T13:30:23.866Z</time>
      </trkpt>
      <trkpt lat="67.97843" lon="13.18339">
        <ele>70.530736</ele>
        <time>2020-08-19T13:31:46.858Z</time>
      </trkpt>
      <trkpt lat="67.98044" lon="13.18205">
        <ele>72.581215</ele>
        <time>2020-08-19T13:32:51.868Z</time>
      </trkpt>
      <trkpt lat="67.98242" lon="13.17906">
        <ele>67.282993</ele>
        <time>2020-08-19T13:33:27.866Z</time>
      </trkpt>
      <trkpt lat="67.98451" lon="13.1772">
        <ele>60.471369</ele>
        <time>2020-08-19T13:33:54.908Z</time>
      </trkpt>
      <trkpt lat="67.9863" lon="13.1735">
        <ele>50.814664</ele>
        <time>2020-08-19T13:34:19.867Z</time>
      </trkpt>
      <trkpt lat="67.98813" lon="13.16937">
        <ele>47.899068</ele>
        <time>2020-08-19T13:34:59.869Z</time>
      </trkpt>
      <trkpt lat="67.99047" lon="13.16787">
        <ele>47.795972</ele>
        <time>2020-08-19T13:35:39.889Z</time>
      </trkpt>
      <trkpt lat="67.99243" lon="13.1671">
        <ele>49.634279</ele>
        <time>2020-08-19T13:36:24.878Z</time>
      </trkpt>
      <trkpt lat="67.99458" lon="13.16889">
        <ele>51.503991</ele>
        <time>2020-08-19T13:37:24.863Z</time>
      </trkpt>
      <trkpt lat="67.99689" lon="13.1712">
        <ele>53.219252</ele>
        <time>2020-08-19T13:38:22.862Z</time>
      </trkpt>
      <trkpt lat="67.99871" lon="13.17425">
        <ele>52.709092</ele>
        <time>2020-08-19T13:39:07.852Z</time>
      </trkpt>
      <trkpt lat="68.00097" lon="13.17576">
        <ele>52.413628</ele>
        <time>2020-08-19T13:39:50.862Z</time>
      </trkpt>
      <trkpt lat="68.00337" lon="13.17613">
        <ele>52.410868</ele>
        <time>2020-08-19T13:40:32.854Z</time>
      </trkpt>
      <trkpt lat="68.00541" lon="13.17605">
        <ele>57.457257</ele>
        <time>2020-08-19T13:41:51.871Z</time>
      </trkpt>
      <trkpt lat="68.00619" lon="13.17102">
        <ele>55.155034</ele>
        <time>2020-08-19T13:42:33.890Z</time>
      </trkpt>
      <trkpt lat="68.00823" lon="13.16826">
        <ele>50.313209</ele>
        <time>2020-08-19T13:43:07.882Z</time>
      </trkpt>
      <trkpt lat="68.01039" lon="13.167">
        <ele>55.338482</ele>
        <time>2020-08-19T13:44:10.875Z</time>
      </trkpt>
      <trkpt lat="68.01249" lon="13.1693">
        <ele>59.552179</ele>
        <time>2020-08-19T13:45:05.876Z</time>
      </trkpt>
      <trkpt lat="68.01444" lon="13.17166">
        <ele>60.874543</ele>
        <time>2020-08-19T13:46:02.883Z</time>
      </trkpt>
      <trkpt lat="68.01654" lon="13.17494">
        <ele>57.870535</ele>
        <time>2020-08-19T13:46:48.881Z</time>
      </trkpt>
      <trkpt lat="68.01805" lon="13.17894">
        <ele>63.869516</ele>
        <time>2020-08-19T13:47:41.862Z</time>
      </trkpt>
      <trkpt lat="68.01944" lon="13.18342">
        <ele>65.91023</ele>
        <time>2020-08-19T13:48:36.874Z</time>
      </trkpt>
      <trkpt lat="68.02178" lon="13.18503">
        <ele>54.653247</ele>
        <time>2020-08-19T13:49:10.877Z</time>
      </trkpt>
      <trkpt lat="68.02387" lon="13.18213">
        <ele>48.647058</ele>
        <time>2020-08-19T13:49:38.871Z</time>
      </trkpt>
      <trkpt lat="68.02584" lon="13.1809">
        <ele>47.036433</ele>
        <time>2020-08-19T13:50:18.906Z</time>
      </trkpt>
      <trkpt lat="68.0277" lon="13.17852">
        <ele>49.311993</ele>
        <time>2020-08-19T13:53:59.865Z</time>
      </trkpt>
      <trkpt lat="68.02983" lon="13.17771">
        <ele>49.943044</ele>
        <time>2020-08-19T13:54:57.864Z</time>
      </trkpt>
      <trkpt lat="68.03196" lon="13.17973">
        <ele>51.95973</ele>
        <time>2020-08-19T13:55:37.858Z</time>
      </trkpt>
      <trkpt lat="68.0339" lon="13.17721">
        <ele>52.31406</ele>
        <time>2020-08-19T13:56:37.884Z</time>
      </trkpt>
      <trkpt lat="68.03607" lon="13.17413">
        <ele>50.759173</ele>
        <time>2020-08-19T13:57:27.872Z</time>
      </trkpt>
      <trkpt lat="68.03835" lon="13.17166">
        <ele>48.3741</ele>
        <time>2020-08-19T13:58:13.859Z</time>
      </trkpt>
      <trkpt lat="68.04044" lon="13.17083">
        <ele>55.344494</ele>
        <time>2020-08-19T13:59:13.865Z</time>
      </trkpt>
      <trkpt lat="68.04256" lon="13.17084">
        <ele>66.813572</ele>
        <time>2020-08-19T14:00:33.889Z</time>
      </trkpt>
      <trkpt lat="68.04457" lon="13.17133">
        <ele>70.969829</ele>
        <time>2020-08-19T14:01:37.864Z</time>
      </trkpt>
      <trkpt lat="68.0467" lon="13.17344">
        <ele>66.612247</ele>
        <time>2020-08-19T14:02:29.896Z</time>
      </trkpt>
      <trkpt lat="68.04925" lon="13.17657">
        <ele>58.364079</ele>
        <time>2020-08-19T14:03:09.870Z</time>
      </trkpt>
      <trkpt lat="68.0514" lon="13.17895">
        <ele>60.527504</ele>
        <time>2020-08-19T14:03:50.860Z</time>
      </trkpt>
      <trkpt lat="68.05319" lon="13.18119">
        <ele>72.802321</ele>
        <time>2020-08-19T14:05:32.874Z</time>
      </trkpt>
      <trkpt lat="68.0551" lon="13.18365">
        <ele>76.048402</ele>
        <time>2020-08-19T14:06:15.859Z</time>
      </trkpt>
      <trkpt lat="68.05737" lon="13.18547">
        <ele>69.222172</ele>
        <time>2020-08-19T14:06:58.881Z</time>
      </trkpt>
      <trkpt lat="68.05967" lon="13.18855">
        <ele>69.478661</ele>
        <time>2020-08-19T14:07:33.876Z</time>
      </trkpt>
      <trkpt lat="68.06133" lon="13.19125">
        <ele>83.616946</ele>
        <time>2020-08-19T14:08:57.862Z</time>
      </trkpt>
      <trkpt lat="68.0635" lon="13.19338">
        <ele>65.187861</ele>
        <time>2020-08-19T14:09:36.866Z</time>
      </trkpt>
      <trkpt lat="68.06553" lon="13.19571">
        <ele>65.15502</ele>
        <time>2020-08-19T14:10:31.872Z</time>
      </trkpt>
      <trkpt lat="68.0679" lon="13.19673">
        <ele>60.478084</ele>
        <time>2020-08-19T14:11:10.865Z</time>
      </trkpt>
      <trkpt lat="68.07023" lon="13.19847">
        <ele>53.349075</ele>
        <time>2020-08-19T14:11:44.860Z</time>
      </trkpt>
      <trkpt lat="68.07232" lon="13.19921">
        <ele>62.085204</ele>
        <time>2020-08-19T14:12:47.905Z</time>
      </trkpt>
      <trkpt lat="68.07399" lon="13.20162">
        <ele>63.552447</ele>
        <time>2020-08-19T14:13:52.881Z</time>
      </trkpt>
      <trkpt lat="68.07447" lon="13.20715">
        <ele>63.865113</ele>
        <time>2020-08-19T14:15:00.916Z</time>
      </trkpt>
      <trkpt lat="68.07448" lon="13.21478">
        <ele>57.160882</ele>
        <time>2020-08-19T14:15:45.883Z</time>
      </trkpt>
      <trkpt lat="68.07392" lon="13.22118">
        <ele>53.820005</ele>
        <time>2020-08-19T14:16:28.896Z</time>
      </trkpt>
      <trkpt lat="68.07354" lon="13.22767">
        <ele>52.616589</ele>
        <time>2020-08-19T14:17:13.862Z</time>
      </trkpt>
      <trkpt lat="68.07315" lon="13.2346">
        <ele>48.299193</ele>
        <time>2020-08-19T14:17:53.879Z</time>
      </trkpt>
      <trkpt lat="68.07427" lon="13.23973">
        <ele>43.220848</ele>
        <time>2020-08-19T14:18:41.865Z</time>
      </trkpt>
      <trkpt lat="68.07655" lon="13.23948">
        <ele>46.868678</ele>
        <time>2020-08-19T14:19:45.874Z</time>
      </trkpt>
      <trkpt lat="68.07871" lon="13.23795">
        <ele>47.169071</ele>
        <time>2020-08-19T14:20:40.870Z</time>
      </trkpt>
      <trkpt lat="68.0806" lon="13.23522">
        <ele>49.883873</ele>
        <time>2020-08-19T14:21:40.892Z</time>
      </trkpt>
      <trkpt lat="68.08249" lon="13.23302">
        <ele>52.492794</ele>
        <time>2020-08-19T14:22:27.928Z</time>
      </trkpt>
      <trkpt lat="68.08484" lon="13.23139">
        <ele>50.563056</ele>
        <time>2020-08-19T14:23:07.881Z</time>
      </trkpt>
      <trkpt lat="68.08684" lon="13.22924">
        <ele>47.063297</ele>
        <time>2020-08-19T14:23:51.902Z</time>
      </trkpt>
      <trkpt lat="68.089" lon="13.22908">
        <ele>47.822481</ele>
        <time>2020-08-19T14:24:39.902Z</time>
      </trkpt>
      <trkpt lat="68.09013" lon="13.2303">
        <ele>60.0557</ele>
        <time>2020-08-19T14:44:46.890Z</time>
      </trkpt>
      <trkpt lat="68.09167" lon="13.23423">
        <ele>59.050046</ele>
        <time>2020-08-19T14:45:32.862Z</time>
      </trkpt>
      <trkpt lat="68.09293" lon="13.23875">
        <ele>53.98196</ele>
        <time>2020-08-19T14:46:12.859Z</time>
      </trkpt>
      <trkpt lat="68.09459" lon="13.24229">
        <ele>54.714723</ele>
        <time>2020-08-19T14:47:01.911Z</time>
      </trkpt>
      <trkpt lat="68.09641" lon="13.24503">
        <ele>55.340386</ele>
        <time>2020-08-19T14:48:00.885Z</time>
      </trkpt>
      <trkpt lat="68.09841" lon="13.24631">
        <ele>56.050135</ele>
        <time>2020-08-19T14:48:47.860Z</time>
      </trkpt>
      <trkpt lat="68.10044" lon="13.24717">
        <ele>62.72963</ele>
        <time>2020-08-19T14:50:08.862Z</time>
      </trkpt>
      <trkpt lat="68.10215" lon="13.25207">
        <ele>62.629949</ele>
        <time>2020-08-19T14:51:06.871Z</time>
      </trkpt>
      <trkpt lat="68.10324" lon="13.25714">
        <ele>58.61041</ele>
        <time>2020-08-19T14:51:46.870Z</time>
      </trkpt>
      <trkpt lat="68.10377" lon="13.26311">
        <ele>58.945813</ele>
        <time>2020-08-19T14:52:28.873Z</time>
      </trkpt>
      <trkpt lat="68.10379" lon="13.27022">
        <ele>55.862883</ele>
        <time>2020-08-19T14:53:06.886Z</time>
      </trkpt>
      <trkpt lat="68.10422" lon="13.27706">
        <ele>49.411029</ele>
        <time>2020-08-19T14:53:38.901Z</time>
      </trkpt>
      <trkpt lat="68.10346" lon="13.28383">
        <ele>47.208001</ele>
        <time>2020-08-19T14:54:18.888Z</time>
      </trkpt>
      <trkpt lat="68.10262" lon="13.29009">
        <ele>47.103125</ele>
        <time>2020-08-19T14:54:58.877Z</time>
      </trkpt>
      <trkpt lat="68.10267" lon="13.29618">
        <ele>54.677698</ele>
        <time>2020-08-19T14:55:46.891Z</time>
      </trkpt>
      <trkpt lat="68.10276" lon="13.30238">
        <ele>51.898447</ele>
        <time>2020-08-19T14:56:34.886Z</time>
      </trkpt>
      <trkpt lat="68.10231" lon="13.30923">
        <ele>47.884755</ele>
        <time>2020-08-19T14:57:14.868Z</time>
      </trkpt>
      <trkpt lat="68.10175" lon="13.31548">
        <ele>45.798768</ele>
        <time>2020-08-19T14:57:54.891Z</time>
      </trkpt>
      <trkpt lat="68.1012" lon="13.32131">
        <ele>47.616114</ele>
        <time>2020-08-19T14:58:34.874Z</time>
      </trkpt>
      <trkpt lat="68.09916" lon="13.32158">
        <ele>50.631281</ele>
        <time>2020-08-19T14:59:17.870Z</time>
      </trkpt>
      <trkpt lat="68.09688" lon="13.31911">
        <ele>49.362714</ele>
        <time>2020-08-19T14:59:58.886Z</time>
      </trkpt>
      <trkpt lat="68.09475" lon="13.31704">
        <ele>53.089542</ele>
        <time>2020-08-19T15:00:45.882Z</time>
      </trkpt>
      <trkpt lat="68.09222" lon="13.31378">
        <ele>51.964287</ele>
        <time>2020-08-19T15:01:29.869Z</time>
      </trkpt>
      <trkpt lat="68.08987" lon="13.31154">
        <ele>49.608336</ele>
        <time>2020-08-19T15:02:09.878Z</time>
      </trkpt>
      <trkpt lat="68.08787" lon="13.30885">
        <ele>54.152341</ele>
        <time>2020-08-19T15:02:49.916Z</time>
      </trkpt>
      <trkpt lat="68.08628" lon="13.30586">
        <ele>59.015937</ele>
        <time>2020-08-19T15:04:14.877Z</time>
      </trkpt>
      <trkpt lat="68.08533" lon="13.30034">
        <ele>57.36926</ele>
        <time>2020-08-19T15:05:11.905Z</time>
      </trkpt>
      <trkpt lat="68.08451" lon="13.29369">
        <ele>44.842843</ele>
        <time>2020-08-19T15:05:51.901Z</time>
      </trkpt>
      <trkpt lat="68.08245" lon="13.29237">
        <ele>50.63255</ele>
        <time>2020-08-19T15:06:36.881Z</time>
      </trkpt>
      <trkpt lat="68.08005" lon="13.29377">
        <ele>57.202594</ele>
        <time>2020-08-19T15:07:20.877Z</time>
      </trkpt>
      <trkpt lat="68.07821" lon="13.29834">
        <ele>52.595479</ele>
        <time>2020-08-19T15:08:00.891Z</time>
      </trkpt>
      <trkpt lat="68.07763" lon="13.30383">
        <ele>54.913858</ele>
        <time>2020-08-19T15:08:48.892Z</time>
      </trkpt>
      <trkpt lat="68.07772" lon="13.3093">
        <ele>58.669384</ele>
        <time>2020-08-19T15:09:43.888Z</time>
      </trkpt>
      <trkpt lat="68.0766" lon="13.31441">
        <ele>56.000679</ele>
        <time>2020-08-19T15:10:26.918Z</time>
      </trkpt>
      <trkpt lat="68.07514" lon="13.32085">
        <ele>49.514678</ele>
        <time>2020-08-19T15:11:03.880Z</time>
      </trkpt>
      <trkpt lat="68.07411" lon="13.32541">
        <ele>58.381498</ele>
        <time>2020-08-19T15:12:47.904Z</time>
      </trkpt>
      <trkpt lat="68.07293" lon="13.33072">
        <ele>57.477529</ele>
        <time>2020-08-19T15:13:32.883Z</time>
      </trkpt>
      <trkpt lat="68.07217" lon="13.33677">
        <ele>47.396099</ele>
        <time>2020-08-19T15:13:59.882Z</time>
      </trkpt>
      <trkpt lat="68.07236" lon="13.34288">
        <ele>47.05569</ele>
        <time>2020-08-19T15:14:44.882Z</time>
      </trkpt>
      <trkpt lat="68.07398" lon="13.34652">
        <ele>48.344988</ele>
        <time>2020-08-19T15:15:31.890Z</time>
      </trkpt>
      <trkpt lat="68.07604" lon="13.34692">
        <ele>48.901694</ele>
        <time>2020-08-19T15:16:32.934Z</time>
      </trkpt>
      <trkpt lat="68.07811" lon="13.34571">
        <ele>48.436408</ele>
        <time>2020-08-19T15:17:15.882Z</time>
      </trkpt>
      <trkpt lat="68.08015" lon="13.34434">
        <ele>51.683954</ele>
        <time>2020-08-19T15:18:29.908Z</time>
      </trkpt>
      <trkpt lat="68.08224" lon="13.34295">
        <ele>50.912135</ele>
        <time>2020-08-19T15:19:21.895Z</time>
      </trkpt>
      <trkpt lat="68.08474" lon="13.34129">
        <ele>43.406448</ele>
        <time>2020-08-19T15:20:04.881Z</time>
      </trkpt>
      <trkpt lat="68.08674" lon="13.33993">
        <ele>46.508874</ele>
        <time>2020-08-19T15:21:08.881Z</time>
      </trkpt>
      <trkpt lat="68.08921" lon="13.33835">
        <ele>37.314285</ele>
        <time>2020-08-19T15:21:48.906Z</time>
      </trkpt>
      <trkpt lat="68.09146" lon="13.33736">
        <ele>34.889969</ele>
        <time>2020-08-19T15:22:31.910Z</time>
      </trkpt>
      <trkpt lat="68.09364" lon="13.33716">
        <ele>40.533718</ele>
        <time>2020-08-19T15:23:24.894Z</time>
      </trkpt>
      <trkpt lat="68.09572" lon="13.33771">
        <ele>52.624045</ele>
        <time>2020-08-19T15:24:34.882Z</time>
      </trkpt>
      <trkpt lat="68.0979" lon="13.3389">
        <ele>57.714975</ele>
        <time>2020-08-19T15:25:34.904Z</time>
      </trkpt>
      <trkpt lat="68.10022" lon="13.34177">
        <ele>52.736857</ele>
        <time>2020-08-19T15:26:19.884Z</time>
      </trkpt>
      <trkpt lat="68.10281" lon="13.34445">
        <ele>44.784821</ele>
        <time>2020-08-19T15:26:59.883Z</time>
      </trkpt>
      <trkpt lat="68.10503" lon="13.34388">
        <ele>43.740358</ele>
        <time>2020-08-19T15:27:51.878Z</time>
      </trkpt>
      <trkpt lat="68.10718" lon="13.34285">
        <ele>45.199917</ele>
        <time>2020-08-19T15:28:51.904Z</time>
      </trkpt>
      <trkpt lat="68.10994" lon="13.34148">
        <ele>42.807539</ele>
        <time>2020-08-19T15:29:31.882Z</time>
      </trkpt>
      <trkpt lat="68.11241" lon="13.3435">
        <ele>48.951717</ele>
        <time>2020-08-19T15:30:11.886Z</time>
      </trkpt>
      <trkpt lat="68.11451" lon="13.34482">
        <ele>50.015211</ele>
        <time>2020-08-19T15:31:02.889Z</time>
      </trkpt>
      <trkpt lat="68.1168" lon="13.34612">
        <ele>49.890536</ele>
        <time>2020-08-19T15:31:44.929Z</time>
      </trkpt>
      <trkpt lat="68.11869" lon="13.34826">
        <ele>53.958607</ele>
        <time>2020-08-19T15:32:30.900Z</time>
      </trkpt>
      <trkpt lat="68.11969" lon="13.35362">
        <ele>57.044871</ele>
        <time>2020-08-19T15:33:20.915Z</time>
      </trkpt>
      <trkpt lat="68.12012" lon="13.35938">
        <ele>60.428528</ele>
        <time>2020-08-19T15:34:18.892Z</time>
      </trkpt>
      <trkpt lat="68.1215" lon="13.36544">
        <ele>57.795553</ele>
        <time>2020-08-19T15:34:58.902Z</time>
      </trkpt>
      <trkpt lat="68.12295" lon="13.37074">
        <ele>49.720784</ele>
        <time>2020-08-19T15:35:30.924Z</time>
      </trkpt>
      <trkpt lat="68.12396" lon="13.37601">
        <ele>51.408386</ele>
        <time>2020-08-19T15:36:15.903Z</time>
      </trkpt>
      <trkpt lat="68.12526" lon="13.38027">
        <ele>61.135691</ele>
        <time>2020-08-19T15:37:20.882Z</time>
      </trkpt>
      <trkpt lat="68.12698" lon="13.38334">
        <ele>68.533673</ele>
        <time>2020-08-19T15:38:25.885Z</time>
      </trkpt>
      <trkpt lat="68.12893" lon="13.38608">
        <ele>78.882899</ele>
        <time>2020-08-19T15:39:42.882Z</time>
      </trkpt>
      <trkpt lat="68.12929" lon="13.39111">
        <ele>93.128396</ele>
        <time>2020-08-19T15:41:33.907Z</time>
      </trkpt>
      <trkpt lat="68.12922" lon="13.39646">
        <ele>100.074037</ele>
        <time>2020-08-19T15:43:21.909Z</time>
      </trkpt>
      <trkpt lat="68.12922" lon="13.40279">
        <ele>90.870879</ele>
        <time>2020-08-19T15:43:53.930Z</time>
      </trkpt>
      <trkpt lat="68.13032" lon="13.40942">
        <ele>71.584322</ele>
        <time>2020-08-19T15:44:13.889Z</time>
      </trkpt>
      <trkpt lat="68.13122" lon="13.41707">
        <ele>49.637509</ele>
        <time>2020-08-19T15:44:33.901Z</time>
      </trkpt>
      <trkpt lat="68.1317" lon="13.42333">
        <ele>45.602112</ele>
        <time>2020-08-19T15:44:58.901Z</time>
      </trkpt>
      <trkpt lat="68.13236" lon="13.42861">
        <ele>53.10753</ele>
        <time>2020-08-19T15:45:56.909Z</time>
      </trkpt>
      <trkpt lat="68.1333" lon="13.43422">
        <ele>52.719898</ele>
        <time>2020-08-19T15:46:37.922Z</time>
      </trkpt>
      <trkpt lat="68.13387" lon="13.44054">
        <ele>44.543129</ele>
        <time>2020-08-19T15:47:08.921Z</time>
      </trkpt>
      <trkpt lat="68.13496" lon="13.44631">
        <ele>45.335661</ele>
        <time>2020-08-19T15:47:48.920Z</time>
      </trkpt>
      <trkpt lat="68.13607" lon="13.45078">
        <ele>48.169781</ele>
        <time>2020-08-19T15:48:33.903Z</time>
      </trkpt>
      <trkpt lat="68.13778" lon="13.45387">
        <ele>47.579527</ele>
        <time>2020-08-19T15:49:19.927Z</time>
      </trkpt>
      <trkpt lat="68.13971" lon="13.45544">
        <ele>43.665312</ele>
        <time>2020-08-19T15:50:02.932Z</time>
      </trkpt>
      <trkpt lat="68.14833" lon="13.48416">
        <ele>47.325493</ele>
        <time>2020-08-19T15:59:11.920Z</time>
      </trkpt>
      <trkpt lat="68.14743" lon="13.48869">
        <ele>54.9733</ele>
        <time>2020-08-19T16:01:05.902Z</time>
      </trkpt>
      <trkpt lat="68.14776" lon="13.49421">
        <ele>59.967782</ele>
        <time>2020-08-19T16:02:05.921Z</time>
      </trkpt>
      <trkpt lat="68.14802" lon="13.50005">
        <ele>60.41568</ele>
        <time>2020-08-19T16:02:48.913Z</time>
      </trkpt>
      <trkpt lat="68.14921" lon="13.50537">
        <ele>62.571487</ele>
        <time>2020-08-19T16:03:47.905Z</time>
      </trkpt>
      <trkpt lat="68.15062" lon="13.50883">
        <ele>58.681264</ele>
        <time>2020-08-19T16:10:00.915Z</time>
      </trkpt>
      <trkpt lat="68.15267" lon="13.51103">
        <ele>55.695121</ele>
        <time>2020-08-19T16:10:40.940Z</time>
      </trkpt>
      <trkpt lat="68.15445" lon="13.51427">
        <ele>59.87298</ele>
        <time>2020-08-19T16:11:35.992Z</time>
      </trkpt>
      <trkpt lat="68.15582" lon="13.51855">
        <ele>59.406157</ele>
        <time>2020-08-19T16:12:26.903Z</time>
      </trkpt>
      <trkpt lat="68.15676" lon="13.52522">
        <ele>52.926137</ele>
        <time>2020-08-19T16:13:06.903Z</time>
      </trkpt>
      <trkpt lat="68.15531" lon="13.53184">
        <ele>50.037201</ele>
        <time>2020-08-19T16:13:46.921Z</time>
      </trkpt>
      <trkpt lat="68.15336" lon="13.53629">
        <ele>43.803267</ele>
        <time>2020-08-19T16:14:27.927Z</time>
      </trkpt>
      <trkpt lat="68.15122" lon="13.54126">
        <ele>39.668648</ele>
        <time>2020-08-19T16:15:07.913Z</time>
      </trkpt>
      <trkpt lat="68.14947" lon="13.54446">
        <ele>47.548081</ele>
        <time>2020-08-19T16:16:15.893Z</time>
      </trkpt>
      <trkpt lat="68.14736" lon="13.54583">
        <ele>47.397316</ele>
        <time>2020-08-19T16:17:10.924Z</time>
      </trkpt>
      <trkpt lat="68.14443" lon="13.54667">
        <ele>41.037593</ele>
        <time>2020-08-19T16:17:50.897Z</time>
      </trkpt>
      <trkpt lat="68.14246" lon="13.54861">
        <ele>46.980105</ele>
        <time>2020-08-19T16:18:46.905Z</time>
      </trkpt>
      <trkpt lat="68.14056" lon="13.55153">
        <ele>56.634689</ele>
        <time>2020-08-19T16:20:04.925Z</time>
      </trkpt>
      <trkpt lat="68.13863" lon="13.55433">
        <ele>54.214028</ele>
        <time>2020-08-19T16:20:51.908Z</time>
      </trkpt>
      <trkpt lat="68.13661" lon="13.55958">
        <ele>49.601659</ele>
        <time>2020-08-19T16:21:31.912Z</time>
      </trkpt>
      <trkpt lat="68.1369" lon="13.56519">
        <ele>50.334111</ele>
        <time>2020-08-19T16:22:19.902Z</time>
      </trkpt>
      <trkpt lat="68.13733" lon="13.57094">
        <ele>47.086159</ele>
        <time>2020-08-19T16:22:59.895Z</time>
      </trkpt>
      <trkpt lat="68.1385" lon="13.57527">
        <ele>48.619719</ele>
        <time>2020-08-19T16:23:43.924Z</time>
      </trkpt>
      <trkpt lat="68.14006" lon="13.57941">
        <ele>49.031936</ele>
        <time>2020-08-19T16:24:31.902Z</time>
      </trkpt>
      <trkpt lat="68.14155" lon="13.58344">
        <ele>50.609068</ele>
        <time>2020-08-19T16:25:28.927Z</time>
      </trkpt>
      <trkpt lat="68.14264" lon="13.58929">
        <ele>46.963452</ele>
        <time>2020-08-19T16:26:12.903Z</time>
      </trkpt>
      <trkpt lat="68.14338" lon="13.59459">
        <ele>53.449859</ele>
        <time>2020-08-19T16:27:07.910Z</time>
      </trkpt>
      <trkpt lat="68.14464" lon="13.60025">
        <ele>55.035669</ele>
        <time>2020-08-19T16:27:54.908Z</time>
      </trkpt>
      <trkpt lat="68.14578" lon="13.60505">
        <ele>54.41862</ele>
        <time>2020-08-19T16:28:38.927Z</time>
      </trkpt>
      <trkpt lat="68.14698" lon="13.6096">
        <ele>55.627214</ele>
        <time>2020-08-19T16:29:24.902Z</time>
      </trkpt>
      <trkpt lat="68.14756" lon="13.61455">
        <ele>55.280787</ele>
        <time>2020-08-19T16:30:29.947Z</time>
      </trkpt>
      <trkpt lat="68.14842" lon="13.61903">
        <ele>50.993184</ele>
        <time>2020-08-19T16:31:23.927Z</time>
      </trkpt>
      <trkpt lat="68.15036" lon="13.62042">
        <ele>51.528387</ele>
        <time>2020-08-19T16:32:23.918Z</time>
      </trkpt>
      <trkpt lat="68.15243" lon="13.62121">
        <ele>52.301701</ele>
        <time>2020-08-19T16:33:16.910Z</time>
      </trkpt>
      <trkpt lat="68.15429" lon="13.62228">
        <ele>51.312203</ele>
        <time>2020-08-19T16:33:59.930Z</time>
      </trkpt>
      <trkpt lat="68.15604" lon="13.62168">
        <ele>53.295978</ele>
        <time>2020-08-19T16:34:47.944Z</time>
      </trkpt>
      <trkpt lat="68.15799" lon="13.61988">
        <ele>54.774585</ele>
        <time>2020-08-19T16:35:55.926Z</time>
      </trkpt>
      <trkpt lat="68.15983" lon="13.61712">
        <ele>53.714719</ele>
        <time>2020-08-19T16:36:55.906Z</time>
      </trkpt>
      <trkpt lat="68.16122" lon="13.61288">
        <ele>51.953174</ele>
        <time>2020-08-19T16:37:35.907Z</time>
      </trkpt>
      <trkpt lat="68.16183" lon="13.60712">
        <ele>57.372278</ele>
        <time>2020-08-19T16:38:57.933Z</time>
      </trkpt>
      <trkpt lat="68.16241" lon="13.60184">
        <ele>61.12311</ele>
        <time>2020-08-19T16:39:59.925Z</time>
      </trkpt>
      <trkpt lat="68.16299" lon="13.59666">
        <ele>65.761347</ele>
        <time>2020-08-19T16:41:05.907Z</time>
      </trkpt>
      <trkpt lat="68.16361" lon="13.59062">
        <ele>58.866765</ele>
        <time>2020-08-19T16:41:47.920Z</time>
      </trkpt>
      <trkpt lat="68.1633" lon="13.58543">
        <ele>52.426005</ele>
        <time>2020-08-19T16:42:27.915Z</time>
      </trkpt>
      <trkpt lat="68.16136" lon="13.5833">
        <ele>49.431451</ele>
        <time>2020-08-19T16:43:09.933Z</time>
      </trkpt>
    </trkseg>
  </trk>
  <trk>
    <name><![CDATA[Tour d'Europe: étape 053]]></name>
    <trkseg>
      <trkpt lat="68.16136" lon="13.5826">
        <ele>54.632344</ele>
        <time>2020-08-20T08:53:08.356Z</time>
      </trkpt>
      <trkpt lat="68.1632" lon="13.58531">
        <ele>56.980796</ele>
        <time>2020-08-20T08:54:11.303Z</time>
      </trkpt>
      <trkpt lat="68.16357" lon="13.59101">
        <ele>59.789919</ele>
        <time>2020-08-20T08:55:04.287Z</time>
      </trkpt>
      <trkpt lat="68.16297" lon="13.59643">
        <ele>64.436081</ele>
        <time>2020-08-20T08:55:57.290Z</time>
      </trkpt>
      <trkpt lat="68.16223" lon="13.60324">
        <ele>62.747818</ele>
        <time>2020-08-20T08:56:43.329Z</time>
      </trkpt>
      <trkpt lat="68.16162" lon="13.60908">
        <ele>58.702656</ele>
        <time>2020-08-20T08:57:21.292Z</time>
      </trkpt>
      <trkpt lat="68.16074" lon="13.61494">
        <ele>55.223005</ele>
        <time>2020-08-20T08:57:50.322Z</time>
      </trkpt>
      <trkpt lat="68.15905" lon="13.61858">
        <ele>56.797371</ele>
        <time>2020-08-20T08:58:32.311Z</time>
      </trkpt>
      <trkpt lat="68.15664" lon="13.62044">
        <ele>53.128007</ele>
        <time>2020-08-20T08:59:13.332Z</time>
      </trkpt>
      <trkpt lat="68.1568" lon="13.62399">
        <ele>51.364679</ele>
        <time>2020-08-20T08:59:57.291Z</time>
      </trkpt>
      <trkpt lat="68.15901" lon="13.62565">
        <ele>52.002091</ele>
        <time>2020-08-20T09:00:40.298Z</time>
      </trkpt>
      <trkpt lat="68.16155" lon="13.62849">
        <ele>49.045139</ele>
        <time>2020-08-20T09:01:20.286Z</time>
      </trkpt>
      <trkpt lat="68.16364" lon="13.62821">
        <ele>57.433644</ele>
        <time>2020-08-20T09:02:25.311Z</time>
      </trkpt>
      <trkpt lat="68.16558" lon="13.63027">
        <ele>63.983314</ele>
        <time>2020-08-20T09:05:02.349Z</time>
      </trkpt>
      <trkpt lat="68.16779" lon="13.63193">
        <ele>65.847761</ele>
        <time>2020-08-20T09:06:02.339Z</time>
      </trkpt>
      <trkpt lat="68.16997" lon="13.63174">
        <ele>63.378487</ele>
        <time>2020-08-20T09:06:44.311Z</time>
      </trkpt>
      <trkpt lat="68.17244" lon="13.63195">
        <ele>62.358726</ele>
        <time>2020-08-20T09:07:25.326Z</time>
      </trkpt>
      <trkpt lat="68.17499" lon="13.6319">
        <ele>63.491455</ele>
        <time>2020-08-20T09:08:14.313Z</time>
      </trkpt>
      <trkpt lat="68.17695" lon="13.63088">
        <ele>63.677575</ele>
        <time>2020-08-20T09:08:56.316Z</time>
      </trkpt>
      <trkpt lat="68.17906" lon="13.62824">
        <ele>62.092988</ele>
        <time>2020-08-20T09:09:36.353Z</time>
      </trkpt>
      <trkpt lat="68.18154" lon="13.62691">
        <ele>58.925295</ele>
        <time>2020-08-20T09:10:16.307Z</time>
      </trkpt>
      <trkpt lat="68.18307" lon="13.6326">
        <ele>53.729098</ele>
        <time>2020-08-20T09:10:56.315Z</time>
      </trkpt>
      <trkpt lat="68.18444" lon="13.63858">
        <ele>51.56256</ele>
        <time>2020-08-20T09:11:36.319Z</time>
      </trkpt>
      <trkpt lat="68.18557" lon="13.64463">
        <ele>49.83714</ele>
        <time>2020-08-20T09:12:16.294Z</time>
      </trkpt>
      <trkpt lat="68.18673" lon="13.65083">
        <ele>49.656276</ele>
        <time>2020-08-20T09:12:56.292Z</time>
      </trkpt>
      <trkpt lat="68.18825" lon="13.65617">
        <ele>52.049025</ele>
        <time>2020-08-20T09:13:43.320Z</time>
      </trkpt>
      <trkpt lat="68.1899" lon="13.66059">
        <ele>54.001914</ele>
        <time>2020-08-20T09:14:36.307Z</time>
      </trkpt>
      <trkpt lat="68.1914" lon="13.66418">
        <ele>56.523041</ele>
        <time>2020-08-20T09:15:20.308Z</time>
      </trkpt>
      <trkpt lat="68.19338" lon="13.66697">
        <ele>56.581894</ele>
        <time>2020-08-20T09:16:13.319Z</time>
      </trkpt>
      <trkpt lat="68.19547" lon="13.66946">
        <ele>63.248188</ele>
        <time>2020-08-20T09:17:16.274Z</time>
      </trkpt>
      <trkpt lat="68.19728" lon="13.67212">
        <ele>68.235358</ele>
        <time>2020-08-20T09:18:14.311Z</time>
      </trkpt>
      <trkpt lat="68.19908" lon="13.67407">
        <ele>68.572186</ele>
        <time>2020-08-20T09:18:56.320Z</time>
      </trkpt>
      <trkpt lat="68.20111" lon="13.67727">
        <ele>69.495881</ele>
        <time>2020-08-20T09:19:44.291Z</time>
      </trkpt>
      <trkpt lat="68.20309" lon="13.6816">
        <ele>63.92549</ele>
        <time>2020-08-20T09:20:24.312Z</time>
      </trkpt>
      <trkpt lat="68.20527" lon="13.68496">
        <ele>61.479999</ele>
        <time>2020-08-20T09:21:04.324Z</time>
      </trkpt>
      <trkpt lat="68.20703" lon="13.68933">
        <ele>60.324663</ele>
        <time>2020-08-20T09:21:44.299Z</time>
      </trkpt>
      <trkpt lat="68.2085" lon="13.69391">
        <ele>62.058681</ele>
        <time>2020-08-20T09:22:24.307Z</time>
      </trkpt>
      <trkpt lat="68.2099" lon="13.69834">
        <ele>63.074741</ele>
        <time>2020-08-20T09:23:04.311Z</time>
      </trkpt>
      <trkpt lat="68.21114" lon="13.70223">
        <ele>64.403519</ele>
        <time>2020-08-20T09:23:44.334Z</time>
      </trkpt>
      <trkpt lat="68.21251" lon="13.70649">
        <ele>63.105386</ele>
        <time>2020-08-20T09:24:24.291Z</time>
      </trkpt>
      <trkpt lat="68.2139" lon="13.71146">
        <ele>60.703284</ele>
        <time>2020-08-20T09:25:04.306Z</time>
      </trkpt>
      <trkpt lat="68.21519" lon="13.71658">
        <ele>64.073023</ele>
        <time>2020-08-20T09:25:55.350Z</time>
      </trkpt>
      <trkpt lat="68.21697" lon="13.72018">
        <ele>64.341936</ele>
        <time>2020-08-20T09:26:46.349Z</time>
      </trkpt>
      <trkpt lat="68.21873" lon="13.72374">
        <ele>66.269546</ele>
        <time>2020-08-20T09:27:36.302Z</time>
      </trkpt>
      <trkpt lat="68.22032" lon="13.72769">
        <ele>68.358411</ele>
        <time>2020-08-20T09:28:31.310Z</time>
      </trkpt>
      <trkpt lat="68.2224" lon="13.73208">
        <ele>65.02864</ele>
        <time>2020-08-20T09:29:11.304Z</time>
      </trkpt>
      <trkpt lat="68.22439" lon="13.73173">
        <ele>68.611486</ele>
        <time>2020-08-20T09:30:05.311Z</time>
      </trkpt>
      <trkpt lat="68.22626" lon="13.73424">
        <ele>70.427555</ele>
        <time>2020-08-20T09:30:56.380Z</time>
      </trkpt>
      <trkpt lat="68.22853" lon="13.73551">
        <ele>67.94663</ele>
        <time>2020-08-20T09:31:36.358Z</time>
      </trkpt>
      <trkpt lat="68.23043" lon="13.73789">
        <ele>68.48071</ele>
        <time>2020-08-20T09:32:16.297Z</time>
      </trkpt>
      <trkpt lat="68.23279" lon="13.74086">
        <ele>62.908257</ele>
        <time>2020-08-20T09:32:56.298Z</time>
      </trkpt>
      <trkpt lat="68.23484" lon="13.74342">
        <ele>59.771953</ele>
        <time>2020-08-20T09:33:36.340Z</time>
      </trkpt>
      <trkpt lat="68.23691" lon="13.74606">
        <ele>62.108104</ele>
        <time>2020-08-20T09:34:26.300Z</time>
      </trkpt>
      <trkpt lat="68.23881" lon="13.74847">
        <ele>63.295172</ele>
        <time>2020-08-20T09:35:12.306Z</time>
      </trkpt>
      <trkpt lat="68.24078" lon="13.75099">
        <ele>61.443274</ele>
        <time>2020-08-20T09:35:52.354Z</time>
      </trkpt>
      <trkpt lat="68.24267" lon="13.7532">
        <ele>65.817888</ele>
        <time>2020-08-20T09:36:46.288Z</time>
      </trkpt>
      <trkpt lat="68.24394" lon="13.75616">
        <ele>71.91118</ele>
        <time>2020-08-20T09:40:29.043Z</time>
      </trkpt>
      <trkpt lat="68.24214" lon="13.75267">
        <ele>65.60706</ele>
        <time>2020-08-20T12:07:03.416Z</time>
      </trkpt>
      <trkpt lat="68.2397" lon="13.74965">
        <ele>60.554041</ele>
        <time>2020-08-20T12:07:42.412Z</time>
      </trkpt>
      <trkpt lat="68.23789" lon="13.74739">
        <ele>63.176144</ele>
        <time>2020-08-20T12:08:22.405Z</time>
      </trkpt>
      <trkpt lat="68.23581" lon="13.74471">
        <ele>62.443529</ele>
        <time>2020-08-20T12:09:02.416Z</time>
      </trkpt>
      <trkpt lat="68.23371" lon="13.74205">
        <ele>61.836373</ele>
        <time>2020-08-20T12:09:42.419Z</time>
      </trkpt>
      <trkpt lat="68.23162" lon="13.73938">
        <ele>64.955616</ele>
        <time>2020-08-20T12:10:25.383Z</time>
      </trkpt>
      <trkpt lat="68.2297" lon="13.73695">
        <ele>68.625989</ele>
        <time>2020-08-20T12:11:17.384Z</time>
      </trkpt>
      <trkpt lat="68.22755" lon="13.73485">
        <ele>67.875551</ele>
        <time>2020-08-20T12:11:59.418Z</time>
      </trkpt>
      <trkpt lat="68.22559" lon="13.73319">
        <ele>70.457934</ele>
        <time>2020-08-20T12:12:39.423Z</time>
      </trkpt>
      <trkpt lat="68.22332" lon="13.7319">
        <ele>68.415321</ele>
        <time>2020-08-20T12:13:16.395Z</time>
      </trkpt>
      <trkpt lat="68.22117" lon="13.73045">
        <ele>63.232473</ele>
        <time>2020-08-20T12:13:42.433Z</time>
      </trkpt>
      <trkpt lat="68.21974" lon="13.72579">
        <ele>70.014015</ele>
        <time>2020-08-20T12:14:36.390Z</time>
      </trkpt>
      <trkpt lat="68.21758" lon="13.7213">
        <ele>66.960566</ele>
        <time>2020-08-20T12:15:16.436Z</time>
      </trkpt>
      <trkpt lat="68.21549" lon="13.71708">
        <ele>66.122112</ele>
        <time>2020-08-20T12:15:56.398Z</time>
      </trkpt>
      <trkpt lat="68.21387" lon="13.71103">
        <ele>63.52532</ele>
        <time>2020-08-20T12:16:36.385Z</time>
      </trkpt>
      <trkpt lat="68.21235" lon="13.7059">
        <ele>60.969592</ele>
        <time>2020-08-20T12:17:16.417Z</time>
      </trkpt>
      <trkpt lat="68.21087" lon="13.70123">
        <ele>61.34206</ele>
        <time>2020-08-20T12:17:56.414Z</time>
      </trkpt>
      <trkpt lat="68.2091" lon="13.6957">
        <ele>58.792535</ele>
        <time>2020-08-20T12:18:36.426Z</time>
      </trkpt>
      <trkpt lat="68.20751" lon="13.69073">
        <ele>60.697279</ele>
        <time>2020-08-20T12:19:16.432Z</time>
      </trkpt>
      <trkpt lat="68.20592" lon="13.68598">
        <ele>60.907054</ele>
        <time>2020-08-20T12:19:58.394Z</time>
      </trkpt>
      <trkpt lat="68.20403" lon="13.6833">
        <ele>63.654086</ele>
        <time>2020-08-20T12:20:38.390Z</time>
      </trkpt>
      <trkpt lat="68.20234" lon="13.67984">
        <ele>66.670344</ele>
        <time>2020-08-20T12:21:18.379Z</time>
      </trkpt>
      <trkpt lat="68.20067" lon="13.67628">
        <ele>69.620024</ele>
        <time>2020-08-20T12:21:58.387Z</time>
      </trkpt>
      <trkpt lat="68.19871" lon="13.67369">
        <ele>68.804623</ele>
        <time>2020-08-20T12:22:38.436Z</time>
      </trkpt>
      <trkpt lat="68.19654" lon="13.67076">
        <ele>67.171182</ele>
        <time>2020-08-20T12:23:18.397Z</time>
      </trkpt>
      <trkpt lat="68.19365" lon="13.66721">
        <ele>59.117606</ele>
        <time>2020-08-20T12:23:58.422Z</time>
      </trkpt>
      <trkpt lat="68.19095" lon="13.66306">
        <ele>53.217317</ele>
        <time>2020-08-20T12:24:36.397Z</time>
      </trkpt>
      <trkpt lat="68.1892" lon="13.65846">
        <ele>51.996006</ele>
        <time>2020-08-20T12:25:16.401Z</time>
      </trkpt>
      <trkpt lat="68.18723" lon="13.653">
        <ele>48.402922</ele>
        <time>2020-08-20T12:25:59.426Z</time>
      </trkpt>
      <trkpt lat="68.18601" lon="13.64706">
        <ele>47.344313</ele>
        <time>2020-08-20T12:26:39.439Z</time>
      </trkpt>
      <trkpt lat="68.18503" lon="13.64174">
        <ele>48.472678</ele>
        <time>2020-08-20T12:27:21.425Z</time>
      </trkpt>
      <trkpt lat="68.184" lon="13.63685">
        <ele>50.368648</ele>
        <time>2020-08-20T12:28:01.435Z</time>
      </trkpt>
      <trkpt lat="68.18298" lon="13.63208">
        <ele>52.014569</ele>
        <time>2020-08-20T12:28:41.412Z</time>
      </trkpt>
      <trkpt lat="68.18182" lon="13.62729">
        <ele>56.992483</ele>
        <time>2020-08-20T12:29:33.398Z</time>
      </trkpt>
      <trkpt lat="68.18158" lon="13.62199">
        <ele>57.87094</ele>
        <time>2020-08-20T12:30:32.437Z</time>
      </trkpt>
      <trkpt lat="68.18267" lon="13.61817">
        <ele>55.881609</ele>
        <time>2020-08-20T12:31:22.424Z</time>
      </trkpt>
      <trkpt lat="68.18441" lon="13.61402">
        <ele>51.184703</ele>
        <time>2020-08-20T12:32:07.405Z</time>
      </trkpt>
      <trkpt lat="68.18582" lon="13.6095">
        <ele>48.575378</ele>
        <time>2020-08-20T12:32:50.416Z</time>
      </trkpt>
      <trkpt lat="68.18671" lon="13.60433">
        <ele>51.232105</ele>
        <time>2020-08-20T12:33:39.429Z</time>
      </trkpt>
      <trkpt lat="68.18671" lon="13.59867">
        <ele>59.235565</ele>
        <time>2020-08-20T12:34:43.422Z</time>
      </trkpt>
      <trkpt lat="68.18648" lon="13.5948">
        <ele>56.763738</ele>
        <time>2020-08-20T12:35:44.417Z</time>
      </trkpt>
      <trkpt lat="68.18782" lon="13.59597">
        <ele>58.050217</ele>
        <time>2020-08-20T12:36:46.437Z</time>
      </trkpt>
      <trkpt lat="68.18908" lon="13.59105">
        <ele>54.999479</ele>
        <time>2020-08-20T12:40:21.409Z</time>
      </trkpt>
      <trkpt lat="68.18996" lon="13.58591">
        <ele>57.724669</ele>
        <time>2020-08-20T12:41:25.432Z</time>
      </trkpt>
      <trkpt lat="68.19086" lon="13.58096">
        <ele>59.573443</ele>
        <time>2020-08-20T12:42:29.395Z</time>
      </trkpt>
      <trkpt lat="68.1918" lon="13.57612">
        <ele>69.997482</ele>
        <time>2020-08-20T12:43:50.388Z</time>
      </trkpt>
      <trkpt lat="68.19325" lon="13.57251">
        <ele>83.191886</ele>
        <time>2020-08-20T12:45:28.395Z</time>
      </trkpt>
      <trkpt lat="68.19469" lon="13.56869">
        <ele>94.269812</ele>
        <time>2020-08-20T12:48:21.412Z</time>
      </trkpt>
      <trkpt lat="68.19496" lon="13.56303">
        <ele>97.279348</ele>
        <time>2020-08-20T12:49:33.430Z</time>
      </trkpt>
      <trkpt lat="68.19501" lon="13.55668">
        <ele>87.017727</ele>
        <time>2020-08-20T12:50:57.398Z</time>
      </trkpt>
      <trkpt lat="68.19478" lon="13.54972">
        <ele>65.581881</ele>
        <time>2020-08-20T12:51:37.402Z</time>
      </trkpt>
      <trkpt lat="68.19451" lon="13.5439">
        <ele>57.368919</ele>
        <time>2020-08-20T12:52:21.445Z</time>
      </trkpt>
      <trkpt lat="68.19443" lon="13.53834">
        <ele>51.908343</ele>
        <time>2020-08-20T12:53:10.385Z</time>
      </trkpt>
      <trkpt lat="68.19481" lon="13.53528">
        <ele>47.020232</ele>
        <time>2020-08-20T13:10:20.454Z</time>
      </trkpt>
      <trkpt lat="68.19393" lon="13.53932">
        <ele>48.152241</ele>
        <time>2020-08-20T14:14:40.066Z</time>
      </trkpt>
      <trkpt lat="68.192" lon="13.54015">
        <ele>50.003627</ele>
        <time>2020-08-20T14:15:21.087Z</time>
      </trkpt>
      <trkpt lat="68.19011" lon="13.53939">
        <ele>50.570854</ele>
        <time>2020-08-20T14:16:01.066Z</time>
      </trkpt>
      <trkpt lat="68.18933" lon="13.53473">
        <ele>43.615772</ele>
        <time>2020-08-20T14:16:52.094Z</time>
      </trkpt>
      <trkpt lat="68.1884" lon="13.52978">
        <ele>47.735086</ele>
        <time>2020-08-20T14:17:39.071Z</time>
      </trkpt>
      <trkpt lat="68.18643" lon="13.52827">
        <ele>50.043321</ele>
        <time>2020-08-20T14:18:28.098Z</time>
      </trkpt>
      <trkpt lat="68.18442" lon="13.52985">
        <ele>53.005985</ele>
        <time>2020-08-20T14:19:12.080Z</time>
      </trkpt>
      <trkpt lat="68.18226" lon="13.52747">
        <ele>61.438603</ele>
        <time>2020-08-20T14:20:15.075Z</time>
      </trkpt>
      <trkpt lat="68.18037" lon="13.52519">
        <ele>68.707286</ele>
        <time>2020-08-20T14:21:27.063Z</time>
      </trkpt>
      <trkpt lat="68.17844" lon="13.52304">
        <ele>78.010259</ele>
        <time>2020-08-20T14:22:42.057Z</time>
      </trkpt>
      <trkpt lat="68.17646" lon="13.52407">
        <ele>83.270145</ele>
        <time>2020-08-20T14:23:58.078Z</time>
      </trkpt>
      <trkpt lat="68.17425" lon="13.52768">
        <ele>73.504432</ele>
        <time>2020-08-20T14:24:39.077Z</time>
      </trkpt>
      <trkpt lat="68.17388" lon="13.53332">
        <ele>58.073374</ele>
        <time>2020-08-20T14:24:59.069Z</time>
      </trkpt>
      <trkpt lat="68.17297" lon="13.53837">
        <ele>46.888496</ele>
        <time>2020-08-20T14:25:19.063Z</time>
      </trkpt>
      <trkpt lat="68.17447" lon="13.5427">
        <ele>49.125721</ele>
        <time>2020-08-20T14:25:58.078Z</time>
      </trkpt>
      <trkpt lat="68.17554" lon="13.54765">
        <ele>57.966293</ele>
        <time>2020-08-20T14:27:01.113Z</time>
      </trkpt>
      <trkpt lat="68.17652" lon="13.55317">
        <ele>58.748043</ele>
        <time>2020-08-20T14:27:53.086Z</time>
      </trkpt>
      <trkpt lat="68.17631" lon="13.55891">
        <ele>50.535382</ele>
        <time>2020-08-20T14:28:27.075Z</time>
      </trkpt>
      <trkpt lat="68.17392" lon="13.56094">
        <ele>48.311754</ele>
        <time>2020-08-20T14:29:07.078Z</time>
      </trkpt>
      <trkpt lat="68.17397" lon="13.56551">
        <ele>54.587211</ele>
        <time>2020-08-20T14:30:14.078Z</time>
      </trkpt>
      <trkpt lat="68.17599" lon="13.56925">
        <ele>53.421666</ele>
        <time>2020-08-20T14:30:59.105Z</time>
      </trkpt>
      <trkpt lat="68.17818" lon="13.57342">
        <ele>46.247566</ele>
        <time>2020-08-20T14:31:43.106Z</time>
      </trkpt>
      <trkpt lat="68.17902" lon="13.57985">
        <ele>45.113554</ele>
        <time>2020-08-20T14:32:23.079Z</time>
      </trkpt>
      <trkpt lat="68.17982" lon="13.58524">
        <ele>53.327553</ele>
        <time>2020-08-20T14:33:34.067Z</time>
      </trkpt>
      <trkpt lat="68.18154" lon="13.58732">
        <ele>56.667341</ele>
        <time>2020-08-20T14:34:36.072Z</time>
      </trkpt>
      <trkpt lat="68.18367" lon="13.58978">
        <ele>53.188177</ele>
        <time>2020-08-20T14:35:19.098Z</time>
      </trkpt>
      <trkpt lat="68.18557" lon="13.59308">
        <ele>51.064155</ele>
        <time>2020-08-20T14:35:59.083Z</time>
      </trkpt>
      <trkpt lat="68.18711" lon="13.59676">
        <ele>56.118835</ele>
        <time>2020-08-20T14:36:59.066Z</time>
      </trkpt>
      <trkpt lat="68.18678" lon="13.60304">
        <ele>54.447957</ele>
        <time>2020-08-20T14:37:46.104Z</time>
      </trkpt>
      <trkpt lat="68.18597" lon="13.609">
        <ele>47.939541</ele>
        <time>2020-08-20T14:38:13.079Z</time>
      </trkpt>
      <trkpt lat="68.18449" lon="13.61322">
        <ele>49.589419</ele>
        <time>2020-08-20T14:39:13.155Z</time>
      </trkpt>
      <trkpt lat="68.18293" lon="13.61793">
        <ele>52.081732</ele>
        <time>2020-08-20T14:40:00.108Z</time>
      </trkpt>
      <trkpt lat="68.18153" lon="13.62077">
        <ele>57.080929</ele>
        <time>2020-08-20T14:40:57.096Z</time>
      </trkpt>
      <trkpt lat="68.18172" lon="13.6269">
        <ele>58.567409</ele>
        <time>2020-08-20T14:41:45.095Z</time>
      </trkpt>
      <trkpt lat="68.17974" lon="13.62738">
        <ele>57.651507</ele>
        <time>2020-08-20T14:42:28.085Z</time>
      </trkpt>
      <trkpt lat="68.17761" lon="13.63005">
        <ele>62.839938</ele>
        <time>2020-08-20T14:43:25.086Z</time>
      </trkpt>
      <trkpt lat="68.17556" lon="13.63194">
        <ele>64.099761</ele>
        <time>2020-08-20T14:44:10.073Z</time>
      </trkpt>
      <trkpt lat="68.17325" lon="13.63195">
        <ele>60.900697</ele>
        <time>2020-08-20T14:44:50.084Z</time>
      </trkpt>
      <trkpt lat="68.17082" lon="13.63175">
        <ele>57.93741</ele>
        <time>2020-08-20T14:45:30.104Z</time>
      </trkpt>
      <trkpt lat="68.16848" lon="13.63184">
        <ele>61.424037</ele>
        <time>2020-08-20T14:46:26.085Z</time>
      </trkpt>
      <trkpt lat="68.16633" lon="13.63093">
        <ele>61.718985</ele>
        <time>2020-08-20T14:47:09.076Z</time>
      </trkpt>
      <trkpt lat="68.16425" lon="13.62853">
        <ele>58.129756</ele>
        <time>2020-08-20T14:47:49.099Z</time>
      </trkpt>
      <trkpt lat="68.16195" lon="13.62848">
        <ele>47.396495</ele>
        <time>2020-08-20T14:48:18.093Z</time>
      </trkpt>
      <trkpt lat="68.1598" lon="13.62662">
        <ele>44.481295</ele>
        <time>2020-08-20T14:48:51.082Z</time>
      </trkpt>
      <trkpt lat="68.1575" lon="13.6245">
        <ele>51.139203</ele>
        <time>2020-08-20T14:49:48.098Z</time>
      </trkpt>
      <trkpt lat="68.15522" lon="13.623">
        <ele>51.504756</ele>
        <time>2020-08-20T14:50:30.064Z</time>
      </trkpt>
      <trkpt lat="68.15264" lon="13.62173">
        <ele>48.488441</ele>
        <time>2020-08-20T14:51:12.069Z</time>
      </trkpt>
      <trkpt lat="68.15032" lon="13.62089">
        <ele>48.641261</ele>
        <time>2020-08-20T14:51:52.178Z</time>
      </trkpt>
      <trkpt lat="68.14847" lon="13.619">
        <ele>50.452441</ele>
        <time>2020-08-20T14:52:39.067Z</time>
      </trkpt>
      <trkpt lat="68.14762" lon="13.61471">
        <ele>51.25243</ele>
        <time>2020-08-20T14:53:22.119Z</time>
      </trkpt>
      <trkpt lat="68.14828" lon="13.61746">
        <ele>56.191361</ele>
        <time>2020-08-20T16:10:43.413Z</time>
      </trkpt>
      <trkpt lat="68.14977" lon="13.61957">
        <ele>57.070252</ele>
        <time>2020-08-20T16:16:53.426Z</time>
      </trkpt>
      <trkpt lat="68.15168" lon="13.62124">
        <ele>48.203542</ele>
        <time>2020-08-20T16:17:53.437Z</time>
      </trkpt>
      <trkpt lat="68.15394" lon="13.62214">
        <ele>49.469206</ele>
        <time>2020-08-20T16:18:41.410Z</time>
      </trkpt>
      <trkpt lat="68.15595" lon="13.62318">
        <ele>50.299039</ele>
        <time>2020-08-20T16:19:33.410Z</time>
      </trkpt>
      <trkpt lat="68.15735" lon="13.62008">
        <ele>50.928824</ele>
        <time>2020-08-20T16:20:21.421Z</time>
      </trkpt>
      <trkpt lat="68.15934" lon="13.61811">
        <ele>56.142486</ele>
        <time>2020-08-20T16:21:23.406Z</time>
      </trkpt>
      <trkpt lat="68.161" lon="13.61434">
        <ele>53.305467</ele>
        <time>2020-08-20T16:22:08.422Z</time>
      </trkpt>
      <trkpt lat="68.16176" lon="13.60786">
        <ele>57.178892</ele>
        <time>2020-08-20T16:23:06.418Z</time>
      </trkpt>
      <trkpt lat="68.16235" lon="13.6024">
        <ele>61.778384</ele>
        <time>2020-08-20T16:24:04.414Z</time>
      </trkpt>
      <trkpt lat="68.16295" lon="13.59687">
        <ele>63.228206</ele>
        <time>2020-08-20T16:25:00.416Z</time>
      </trkpt>
      <trkpt lat="68.16364" lon="13.59056">
        <ele>60.320102</ele>
        <time>2020-08-20T16:25:41.406Z</time>
      </trkpt>
      <trkpt lat="68.16316" lon="13.58521">
        <ele>55.98503</ele>
        <time>2020-08-20T16:26:21.424Z</time>
      </trkpt>
      <trkpt lat="68.16129" lon="13.58286">
        <ele>53.58571</ele>
        <time>2020-08-20T16:27:06.421Z</time>
      </trkpt>
    </trkseg>
  </trk>
  <trk>
    <name><![CDATA[Tour d'Europe: étape 054]]></name>
    <trkseg>
      <trkpt lat="68.16149" lon="13.58349">
        <ele>50.66414</ele>
        <time>2020-08-21T07:56:50.741Z</time>
      </trkpt>
      <trkpt lat="68.16339" lon="13.58574">
        <ele>58.562147</ele>
        <time>2020-08-21T07:58:05.739Z</time>
      </trkpt>
      <trkpt lat="68.16353" lon="13.59134">
        <ele>60.432024</ele>
        <time>2020-08-21T07:59:15.755Z</time>
      </trkpt>
      <trkpt lat="68.16294" lon="13.5967">
        <ele>62.223897</ele>
        <time>2020-08-21T08:00:33.750Z</time>
      </trkpt>
      <trkpt lat="68.16228" lon="13.60268">
        <ele>60.49918</ele>
        <time>2020-08-21T08:01:23.735Z</time>
      </trkpt>
      <trkpt lat="68.16157" lon="13.60934">
        <ele>57.220935</ele>
        <time>2020-08-21T08:02:16.749Z</time>
      </trkpt>
      <trkpt lat="68.16066" lon="13.61513">
        <ele>54.743864</ele>
        <time>2020-08-21T08:02:54.737Z</time>
      </trkpt>
      <trkpt lat="68.15885" lon="13.61885">
        <ele>55.76779</ele>
        <time>2020-08-21T08:03:49.757Z</time>
      </trkpt>
      <trkpt lat="68.15656" lon="13.62054">
        <ele>51.050029</ele>
        <time>2020-08-21T08:04:31.732Z</time>
      </trkpt>
      <trkpt lat="68.15508" lon="13.62291">
        <ele>46.380059</ele>
        <time>2020-08-21T08:05:26.765Z</time>
      </trkpt>
      <trkpt lat="68.15291" lon="13.62175">
        <ele>47.02509</ele>
        <time>2020-08-21T08:06:09.765Z</time>
      </trkpt>
      <trkpt lat="68.15072" lon="13.62092">
        <ele>48.048286</ele>
        <time>2020-08-21T08:06:53.739Z</time>
      </trkpt>
      <trkpt lat="68.15015" lon="13.62448">
        <ele>48.231358</ele>
        <time>2020-08-21T08:07:49.736Z</time>
      </trkpt>
      <trkpt lat="68.15034" lon="13.62955">
        <ele>54.404499</ele>
        <time>2020-08-21T08:09:21.754Z</time>
      </trkpt>
      <trkpt lat="68.14922" lon="13.63485">
        <ele>61.445314</ele>
        <time>2020-08-21T08:10:32.733Z</time>
      </trkpt>
      <trkpt lat="68.1479" lon="13.63938">
        <ele>61.716094</ele>
        <time>2020-08-21T08:11:50.776Z</time>
      </trkpt>
      <trkpt lat="68.14615" lon="13.64027">
        <ele>45.75076</ele>
        <time>2020-08-21T08:12:38.778Z</time>
      </trkpt>
      <trkpt lat="68.14526" lon="13.64544">
        <ele>47.967013</ele>
        <time>2020-08-21T08:13:31.737Z</time>
      </trkpt>
      <trkpt lat="68.14597" lon="13.65058">
        <ele>52.364652</ele>
        <time>2020-08-21T08:14:48.768Z</time>
      </trkpt>
      <trkpt lat="68.14717" lon="13.65385">
        <ele>51.291302</ele>
        <time>2020-08-21T08:17:44.741Z</time>
      </trkpt>
      <trkpt lat="68.1488" lon="13.65725">
        <ele>56.844928</ele>
        <time>2020-08-21T08:19:02.755Z</time>
      </trkpt>
      <trkpt lat="68.14866" lon="13.66343">
        <ele>56.783663</ele>
        <time>2020-08-21T08:20:04.780Z</time>
      </trkpt>
      <trkpt lat="68.14888" lon="13.66907">
        <ele>64.177217</ele>
        <time>2020-08-21T08:21:18.809Z</time>
      </trkpt>
      <trkpt lat="68.15063" lon="13.67162">
        <ele>76.641798</ele>
        <time>2020-08-21T08:23:07.748Z</time>
      </trkpt>
      <trkpt lat="68.15221" lon="13.67447">
        <ele>87.07442</ele>
        <time>2020-08-21T08:25:00.747Z</time>
      </trkpt>
      <trkpt lat="68.15339" lon="13.67848">
        <ele>97.792076</ele>
        <time>2020-08-21T08:27:00.760Z</time>
      </trkpt>
      <trkpt lat="68.15464" lon="13.68284">
        <ele>108.911654</ele>
        <time>2020-08-21T08:28:45.736Z</time>
      </trkpt>
      <trkpt lat="68.15568" lon="13.6873">
        <ele>119.093508</ele>
        <time>2020-08-21T08:30:39.757Z</time>
      </trkpt>
      <trkpt lat="68.1571" lon="13.69087">
        <ele>133.621771</ele>
        <time>2020-08-21T08:32:39.759Z</time>
      </trkpt>
      <trkpt lat="68.15772" lon="13.69557">
        <ele>144.595205</ele>
        <time>2020-08-21T08:34:46.771Z</time>
      </trkpt>
      <trkpt lat="68.15675" lon="13.70055">
        <ele>152.762836</ele>
        <time>2020-08-21T08:36:40.777Z</time>
      </trkpt>
      <trkpt lat="68.15627" lon="13.70657">
        <ele>147.498167</ele>
        <time>2020-08-21T08:37:26.761Z</time>
      </trkpt>
      <trkpt lat="68.15611" lon="13.71267">
        <ele>129.54747</ele>
        <time>2020-08-21T08:37:46.775Z</time>
      </trkpt>
      <trkpt lat="68.15628" lon="13.72047">
        <ele>112.251181</ele>
        <time>2020-08-21T08:38:06.756Z</time>
      </trkpt>
      <trkpt lat="68.15578" lon="13.72845">
        <ele>87.972119</ele>
        <time>2020-08-21T08:38:27.764Z</time>
      </trkpt>
      <trkpt lat="68.15567" lon="13.73518">
        <ele>62.133044</ele>
        <time>2020-08-21T08:38:47.755Z</time>
      </trkpt>
      <trkpt lat="68.15668" lon="13.7412">
        <ele>44.852263</ele>
        <time>2020-08-21T08:39:07.753Z</time>
      </trkpt>
      <trkpt lat="68.15726" lon="13.74714">
        <ele>34.929016</ele>
        <time>2020-08-21T08:39:35.744Z</time>
      </trkpt>
      <trkpt lat="68.15694" lon="13.75361">
        <ele>33.58831</ele>
        <time>2020-08-21T08:40:19.755Z</time>
      </trkpt>
      <trkpt lat="68.15652" lon="13.76008">
        <ele>34.646703</ele>
        <time>2020-08-21T08:40:59.776Z</time>
      </trkpt>
      <trkpt lat="68.15672" lon="13.76565">
        <ele>40.777395</ele>
        <time>2020-08-21T08:41:47.748Z</time>
      </trkpt>
      <trkpt lat="68.15663" lon="13.77142">
        <ele>47.617716</ele>
        <time>2020-08-21T08:43:01.739Z</time>
      </trkpt>
      <trkpt lat="68.15633" lon="13.77752">
        <ele>48.550719</ele>
        <time>2020-08-21T08:44:00.750Z</time>
      </trkpt>
      <trkpt lat="68.15742" lon="13.7813">
        <ele>47.82211</ele>
        <time>2020-08-21T08:44:54.762Z</time>
      </trkpt>
      <trkpt lat="68.15944" lon="13.78166">
        <ele>40.681202</ele>
        <time>2020-08-21T08:45:34.752Z</time>
      </trkpt>
      <trkpt lat="68.16181" lon="13.78262">
        <ele>41.570031</ele>
        <time>2020-08-21T08:46:25.746Z</time>
      </trkpt>
      <trkpt lat="68.16337" lon="13.78734">
        <ele>39.431477</ele>
        <time>2020-08-21T08:47:08.754Z</time>
      </trkpt>
      <trkpt lat="68.1646" lon="13.79187">
        <ele>35.749001</ele>
        <time>2020-08-21T08:47:51.755Z</time>
      </trkpt>
      <trkpt lat="68.16498" lon="13.79788">
        <ele>37.175565</ele>
        <time>2020-08-21T08:48:51.759Z</time>
      </trkpt>
      <trkpt lat="68.16656" lon="13.80298">
        <ele>34.476979</ele>
        <time>2020-08-21T08:49:36.806Z</time>
      </trkpt>
      <trkpt lat="68.16692" lon="13.80864">
        <ele>31.78757</ele>
        <time>2020-08-21T08:50:18.744Z</time>
      </trkpt>
      <trkpt lat="68.16735" lon="13.81417">
        <ele>30.290542</ele>
        <time>2020-08-21T08:50:59.788Z</time>
      </trkpt>
      <trkpt lat="68.16754" lon="13.82003">
        <ele>31.234246</ele>
        <time>2020-08-21T08:51:42.740Z</time>
      </trkpt>
      <trkpt lat="68.16718" lon="13.82574">
        <ele>33.616633</ele>
        <time>2020-08-21T08:52:33.772Z</time>
      </trkpt>
      <trkpt lat="68.1673" lon="13.83205">
        <ele>32.157693</ele>
        <time>2020-08-21T08:53:16.765Z</time>
      </trkpt>
      <trkpt lat="68.16766" lon="13.83751">
        <ele>36.476233</ele>
        <time>2020-08-21T08:54:08.739Z</time>
      </trkpt>
      <trkpt lat="68.1683" lon="13.84274">
        <ele>40.681178</ele>
        <time>2020-08-21T08:55:11.757Z</time>
      </trkpt>
      <trkpt lat="68.17023" lon="13.84515">
        <ele>42.003888</ele>
        <time>2020-08-21T08:56:11.760Z</time>
      </trkpt>
      <trkpt lat="68.17244" lon="13.84754">
        <ele>39.247041</ele>
        <time>2020-08-21T08:57:02.762Z</time>
      </trkpt>
      <trkpt lat="68.17441" lon="13.84867">
        <ele>37.66607</ele>
        <time>2020-08-21T08:57:43.748Z</time>
      </trkpt>
      <trkpt lat="68.1765" lon="13.8492">
        <ele>38.138345</ele>
        <time>2020-08-21T08:58:32.748Z</time>
      </trkpt>
      <trkpt lat="68.17869" lon="13.84942">
        <ele>37.527798</ele>
        <time>2020-08-21T08:59:14.752Z</time>
      </trkpt>
      <trkpt lat="68.1805" lon="13.85249">
        <ele>38.998534</ele>
        <time>2020-08-21T09:00:12.765Z</time>
      </trkpt>
      <trkpt lat="68.18263" lon="13.85369">
        <ele>42.067236</ele>
        <time>2020-08-21T09:01:10.767Z</time>
      </trkpt>
      <trkpt lat="68.18373" lon="13.85923">
        <ele>40.894668</ele>
        <time>2020-08-21T09:01:57.802Z</time>
      </trkpt>
      <trkpt lat="68.18568" lon="13.85913">
        <ele>38.666654</ele>
        <time>2020-08-21T09:02:49.779Z</time>
      </trkpt>
      <trkpt lat="68.18785" lon="13.85933">
        <ele>38.347663</ele>
        <time>2020-08-21T09:03:31.757Z</time>
      </trkpt>
      <trkpt lat="68.19" lon="13.86077">
        <ele>37.750406</ele>
        <time>2020-08-21T09:04:13.765Z</time>
      </trkpt>
      <trkpt lat="68.19196" lon="13.8648">
        <ele>36.654038</ele>
        <time>2020-08-21T09:05:13.761Z</time>
      </trkpt>
      <trkpt lat="68.19259" lon="13.87083">
        <ele>36.573299</ele>
        <time>2020-08-21T09:06:13.769Z</time>
      </trkpt>
      <trkpt lat="68.19416" lon="13.87492">
        <ele>37.162668</ele>
        <time>2020-08-21T09:07:16.767Z</time>
      </trkpt>
      <trkpt lat="68.19579" lon="13.87742">
        <ele>37.082596</ele>
        <time>2020-08-21T09:08:03.791Z</time>
      </trkpt>
      <trkpt lat="68.19691" lon="13.88252">
        <ele>35.282572</ele>
        <time>2020-08-21T09:09:00.793Z</time>
      </trkpt>
      <trkpt lat="68.1991" lon="13.88462">
        <ele>35.98986</ele>
        <time>2020-08-21T09:09:54.763Z</time>
      </trkpt>
      <trkpt lat="68.2011" lon="13.88261">
        <ele>37.289799</ele>
        <time>2020-08-21T09:10:59.807Z</time>
      </trkpt>
      <trkpt lat="68.20312" lon="13.88068">
        <ele>34.49962</ele>
        <time>2020-08-21T09:11:56.802Z</time>
      </trkpt>
      <trkpt lat="68.20453" lon="13.88348">
        <ele>38.739599</ele>
        <time>2020-08-21T09:13:35.776Z</time>
      </trkpt>
      <trkpt lat="68.20507" lon="13.88497">
        <ele>39.530027</ele>
        <time>2020-08-21T09:15:08.739Z</time>
      </trkpt>
      <trkpt lat="68.20523" lon="13.89064">
        <ele>36.890713</ele>
        <time>2020-08-21T09:16:06.749Z</time>
      </trkpt>
      <trkpt lat="68.20415" lon="13.89562">
        <ele>38.365839</ele>
        <time>2020-08-21T09:16:55.757Z</time>
      </trkpt>
      <trkpt lat="68.20205" lon="13.89735">
        <ele>39.968056</ele>
        <time>2020-08-21T09:17:44.752Z</time>
      </trkpt>
      <trkpt lat="68.20007" lon="13.89781">
        <ele>41.660676</ele>
        <time>2020-08-21T09:18:29.772Z</time>
      </trkpt>
      <trkpt lat="68.19806" lon="13.89494">
        <ele>44.935988</ele>
        <time>2020-08-21T09:19:20.754Z</time>
      </trkpt>
      <trkpt lat="68.19614" lon="13.89686">
        <ele>46.772675</ele>
        <time>2020-08-21T09:20:19.784Z</time>
      </trkpt>
      <trkpt lat="68.1939" lon="13.89483">
        <ele>43.376388</ele>
        <time>2020-08-21T09:20:59.758Z</time>
      </trkpt>
      <trkpt lat="68.19176" lon="13.89288">
        <ele>38.78717</ele>
        <time>2020-08-21T09:21:39.787Z</time>
      </trkpt>
      <trkpt lat="68.18934" lon="13.89253">
        <ele>40.237272</ele>
        <time>2020-08-21T09:22:26.750Z</time>
      </trkpt>
      <trkpt lat="68.18719" lon="13.8924">
        <ele>42.068035</ele>
        <time>2020-08-21T09:23:10.771Z</time>
      </trkpt>
      <trkpt lat="68.1851" lon="13.89312">
        <ele>46.315193</ele>
        <time>2020-08-21T09:24:05.773Z</time>
      </trkpt>
      <trkpt lat="68.1842" lon="13.89857">
        <ele>47.047944</ele>
        <time>2020-08-21T09:24:53.803Z</time>
      </trkpt>
      <trkpt lat="68.18308" lon="13.90401">
        <ele>47.937835</ele>
        <time>2020-08-21T09:25:50.773Z</time>
      </trkpt>
      <trkpt lat="68.18244" lon="13.91032">
        <ele>44.486088</ele>
        <time>2020-08-21T09:26:30.751Z</time>
      </trkpt>
      <trkpt lat="68.182" lon="13.91738">
        <ele>39.631548</ele>
        <time>2020-08-21T09:27:10.759Z</time>
      </trkpt>
      <trkpt lat="68.18336" lon="13.92149">
        <ele>41.221582</ele>
        <time>2020-08-21T09:27:56.756Z</time>
      </trkpt>
      <trkpt lat="68.18414" lon="13.92701">
        <ele>42.826131</ele>
        <time>2020-08-21T09:29:02.759Z</time>
      </trkpt>
      <trkpt lat="68.18603" lon="13.92951">
        <ele>40.355337</ele>
        <time>2020-08-21T09:29:46.748Z</time>
      </trkpt>
      <trkpt lat="68.18805" lon="13.93091">
        <ele>38.583723</ele>
        <time>2020-08-21T09:30:40.769Z</time>
      </trkpt>
      <trkpt lat="68.19015" lon="13.9324">
        <ele>39.544757</ele>
        <time>2020-08-21T09:31:41.765Z</time>
      </trkpt>
      <trkpt lat="68.19222" lon="13.93512">
        <ele>41.955606</ele>
        <time>2020-08-21T09:32:44.754Z</time>
      </trkpt>
      <trkpt lat="68.19416" lon="13.93795">
        <ele>41.948286</ele>
        <time>2020-08-21T09:33:33.780Z</time>
      </trkpt>
      <trkpt lat="68.19538" lon="13.94247">
        <ele>40.160662</ele>
        <time>2020-08-21T09:34:18.752Z</time>
      </trkpt>
      <trkpt lat="68.1963" lon="13.94755">
        <ele>42.651911</ele>
        <time>2020-08-21T09:35:05.757Z</time>
      </trkpt>
      <trkpt lat="68.19707" lon="13.95348">
        <ele>42.434425</ele>
        <time>2020-08-21T09:36:05.770Z</time>
      </trkpt>
      <trkpt lat="68.19735" lon="13.95939">
        <ele>39.307286</ele>
        <time>2020-08-21T09:36:45.746Z</time>
      </trkpt>
      <trkpt lat="68.19806" lon="13.96427">
        <ele>44.943654</ele>
        <time>2020-08-21T09:37:39.774Z</time>
      </trkpt>
      <trkpt lat="68.19968" lon="13.96754">
        <ele>48.582434</ele>
        <time>2020-08-21T09:38:46.769Z</time>
      </trkpt>
      <trkpt lat="68.20116" lon="13.97154">
        <ele>47.266599</ele>
        <time>2020-08-21T09:39:34.758Z</time>
      </trkpt>
      <trkpt lat="68.20166" lon="13.97835">
        <ele>44.481418</ele>
        <time>2020-08-21T09:40:14.778Z</time>
      </trkpt>
      <trkpt lat="68.20185" lon="13.98454">
        <ele>42.773011</ele>
        <time>2020-08-21T09:40:54.770Z</time>
      </trkpt>
      <trkpt lat="68.20175" lon="13.98988">
        <ele>44.188335</ele>
        <time>2020-08-21T09:41:34.763Z</time>
      </trkpt>
      <trkpt lat="68.20099" lon="13.99492">
        <ele>42.273786</ele>
        <time>2020-08-21T09:42:17.792Z</time>
      </trkpt>
      <trkpt lat="68.19897" lon="13.99573">
        <ele>42.733875</ele>
        <time>2020-08-21T09:42:59.779Z</time>
      </trkpt>
      <trkpt lat="68.19678" lon="13.99746">
        <ele>41.405998</ele>
        <time>2020-08-21T09:43:55.786Z</time>
      </trkpt>
      <trkpt lat="68.19521" lon="14.00086">
        <ele>42.709082</ele>
        <time>2020-08-21T09:44:41.762Z</time>
      </trkpt>
      <trkpt lat="68.19341" lon="14.00464">
        <ele>42.366298</ele>
        <time>2020-08-21T09:45:31.770Z</time>
      </trkpt>
      <trkpt lat="68.19185" lon="14.00947">
        <ele>40.375295</ele>
        <time>2020-08-21T09:46:24.750Z</time>
      </trkpt>
      <trkpt lat="68.19114" lon="14.01465">
        <ele>44.814748</ele>
        <time>2020-08-21T09:47:10.771Z</time>
      </trkpt>
      <trkpt lat="68.19158" lon="14.01992">
        <ele>46.401046</ele>
        <time>2020-08-21T09:48:17.776Z</time>
      </trkpt>
      <trkpt lat="68.19294" lon="14.02496">
        <ele>44.039755</ele>
        <time>2020-08-21T09:49:18.775Z</time>
      </trkpt>
      <trkpt lat="68.19457" lon="14.02856">
        <ele>43.555552</ele>
        <time>2020-08-21T09:50:03.774Z</time>
      </trkpt>
      <trkpt lat="68.19526" lon="14.03403">
        <ele>43.76199</ele>
        <time>2020-08-21T09:50:46.760Z</time>
      </trkpt>
      <trkpt lat="68.19707" lon="14.03618">
        <ele>41.254969</ele>
        <time>2020-08-21T09:51:47.768Z</time>
      </trkpt>
      <trkpt lat="68.19936" lon="14.03628">
        <ele>41.164229</ele>
        <time>2020-08-21T09:52:57.757Z</time>
      </trkpt>
      <trkpt lat="68.20147" lon="14.03593">
        <ele>37.973543</ele>
        <time>2020-08-21T09:53:38.799Z</time>
      </trkpt>
      <trkpt lat="68.20366" lon="14.03781">
        <ele>36.40009</ele>
        <time>2020-08-21T09:54:33.797Z</time>
      </trkpt>
      <trkpt lat="68.20566" lon="14.04055">
        <ele>38.507359</ele>
        <time>2020-08-21T09:55:29.777Z</time>
      </trkpt>
      <trkpt lat="68.20708" lon="14.0455">
        <ele>44.750846</ele>
        <time>2020-08-21T09:56:32.776Z</time>
      </trkpt>
      <trkpt lat="68.20826" lon="14.05058">
        <ele>44.228414</ele>
        <time>2020-08-21T09:57:26.767Z</time>
      </trkpt>
      <trkpt lat="68.20981" lon="14.05448">
        <ele>43.094306</ele>
        <time>2020-08-21T09:58:20.787Z</time>
      </trkpt>
      <trkpt lat="68.2119" lon="14.05484">
        <ele>43.022293</ele>
        <time>2020-08-21T09:59:21.766Z</time>
      </trkpt>
      <trkpt lat="68.2142" lon="14.05515">
        <ele>41.34485</ele>
        <time>2020-08-21T10:00:25.757Z</time>
      </trkpt>
      <trkpt lat="68.21609" lon="14.05693">
        <ele>46.333548</ele>
        <time>2020-08-21T10:01:25.790Z</time>
      </trkpt>
      <trkpt lat="68.21748" lon="14.0613">
        <ele>49.839555</ele>
        <time>2020-08-21T10:02:27.761Z</time>
      </trkpt>
      <trkpt lat="68.21916" lon="14.06595">
        <ele>43.750531</ele>
        <time>2020-08-21T10:03:10.796Z</time>
      </trkpt>
      <trkpt lat="68.221" lon="14.06961">
        <ele>40.494014</ele>
        <time>2020-08-21T10:03:52.762Z</time>
      </trkpt>
      <trkpt lat="68.22291" lon="14.07261">
        <ele>37.666102</ele>
        <time>2020-08-21T10:04:42.759Z</time>
      </trkpt>
      <trkpt lat="68.22488" lon="14.07526">
        <ele>36.701028</ele>
        <time>2020-08-21T10:05:33.779Z</time>
      </trkpt>
      <trkpt lat="68.227" lon="14.07673">
        <ele>39.143108</ele>
        <time>2020-08-21T10:06:32.759Z</time>
      </trkpt>
      <trkpt lat="68.22853" lon="14.08036">
        <ele>43.759328</ele>
        <time>2020-08-21T10:26:05.213Z</time>
      </trkpt>
      <trkpt lat="68.2302" lon="14.08405">
        <ele>43.265957</ele>
        <time>2020-08-21T10:26:56.213Z</time>
      </trkpt>
      <trkpt lat="68.23108" lon="14.08939">
        <ele>43.418515</ele>
        <time>2020-08-21T10:27:45.231Z</time>
      </trkpt>
      <trkpt lat="68.23173" lon="14.09523">
        <ele>43.447676</ele>
        <time>2020-08-21T10:28:37.214Z</time>
      </trkpt>
      <trkpt lat="68.23245" lon="14.10131">
        <ele>43.664938</ele>
        <time>2020-08-21T10:29:29.205Z</time>
      </trkpt>
      <trkpt lat="68.23311" lon="14.10703">
        <ele>46.514326</ele>
        <time>2020-08-21T10:30:29.205Z</time>
      </trkpt>
      <trkpt lat="68.23388" lon="14.11224">
        <ele>53.376645</ele>
        <time>2020-08-21T10:31:34.224Z</time>
      </trkpt>
      <trkpt lat="68.23577" lon="14.11498">
        <ele>53.405758</ele>
        <time>2020-08-21T10:32:34.223Z</time>
      </trkpt>
      <trkpt lat="68.23802" lon="14.11622">
        <ele>52.62981</ele>
        <time>2020-08-21T10:33:23.221Z</time>
      </trkpt>
      <trkpt lat="68.23993" lon="14.11778">
        <ele>53.018395</ele>
        <time>2020-08-21T10:34:03.213Z</time>
      </trkpt>
      <trkpt lat="68.2418" lon="14.11988">
        <ele>53.538212</ele>
        <time>2020-08-21T10:34:43.239Z</time>
      </trkpt>
      <trkpt lat="68.24326" lon="14.12357">
        <ele>52.089745</ele>
        <time>2020-08-21T10:35:25.219Z</time>
      </trkpt>
      <trkpt lat="68.24461" lon="14.12796">
        <ele>51.239649</ele>
        <time>2020-08-21T10:36:08.217Z</time>
      </trkpt>
      <trkpt lat="68.24608" lon="14.13222">
        <ele>50.105166</ele>
        <time>2020-08-21T10:36:56.226Z</time>
      </trkpt>
      <trkpt lat="68.24703" lon="14.13705">
        <ele>48.38666</ele>
        <time>2020-08-21T10:37:39.218Z</time>
      </trkpt>
      <trkpt lat="68.24716" lon="14.14498">
        <ele>43.700536</ele>
        <time>2020-08-21T10:38:19.227Z</time>
      </trkpt>
      <trkpt lat="68.24866" lon="14.14972">
        <ele>42.438884</ele>
        <time>2020-08-21T10:39:04.211Z</time>
      </trkpt>
      <trkpt lat="68.25033" lon="14.15281">
        <ele>42.594537</ele>
        <time>2020-08-21T10:39:54.221Z</time>
      </trkpt>
      <trkpt lat="68.25218" lon="14.15542">
        <ele>44.022961</ele>
        <time>2020-08-21T10:40:42.224Z</time>
      </trkpt>
      <trkpt lat="68.25378" lon="14.15799">
        <ele>48.978193</ele>
        <time>2020-08-21T10:41:49.216Z</time>
      </trkpt>
      <trkpt lat="68.25558" lon="14.16099">
        <ele>52.670824</ele>
        <time>2020-08-21T10:43:02.242Z</time>
      </trkpt>
      <trkpt lat="68.25754" lon="14.16319">
        <ele>60.040077</ele>
        <time>2020-08-21T10:44:21.229Z</time>
      </trkpt>
      <trkpt lat="68.25948" lon="14.16411">
        <ele>61.195112</ele>
        <time>2020-08-21T10:45:20.229Z</time>
      </trkpt>
      <trkpt lat="68.26147" lon="14.16351">
        <ele>58.65639</ele>
        <time>2020-08-21T10:46:05.233Z</time>
      </trkpt>
      <trkpt lat="68.26369" lon="14.16048">
        <ele>55.180928</ele>
        <time>2020-08-21T10:46:54.225Z</time>
      </trkpt>
      <trkpt lat="68.26585" lon="14.15724">
        <ele>46.191904</ele>
        <time>2020-08-21T10:47:23.220Z</time>
      </trkpt>
      <trkpt lat="68.26741" lon="14.15292">
        <ele>41.520741</ele>
        <time>2020-08-21T10:48:05.220Z</time>
      </trkpt>
      <trkpt lat="68.26824" lon="14.15331">
        <ele>48.173626</ele>
        <time>2020-08-21T10:49:15.234Z</time>
      </trkpt>
      <trkpt lat="68.26817" lon="14.1599">
        <ele>45.914705</ele>
        <time>2020-08-21T10:50:19.228Z</time>
      </trkpt>
      <trkpt lat="68.26741" lon="14.1674">
        <ele>39.001372</ele>
        <time>2020-08-21T10:50:59.214Z</time>
      </trkpt>
      <trkpt lat="68.26615" lon="14.1725">
        <ele>38.442627</ele>
        <time>2020-08-21T10:51:46.246Z</time>
      </trkpt>
      <trkpt lat="68.26497" lon="14.17831">
        <ele>42.843801</ele>
        <time>2020-08-21T10:52:26.229Z</time>
      </trkpt>
      <trkpt lat="68.26363" lon="14.18304">
        <ele>43.533033</ele>
        <time>2020-08-21T10:53:08.235Z</time>
      </trkpt>
      <trkpt lat="68.2624" lon="14.18787">
        <ele>44.554081</ele>
        <time>2020-08-21T10:53:48.222Z</time>
      </trkpt>
      <trkpt lat="68.26116" lon="14.19232">
        <ele>46.501077</ele>
        <time>2020-08-21T10:54:29.225Z</time>
      </trkpt>
      <trkpt lat="68.25942" lon="14.19536">
        <ele>47.908207</ele>
        <time>2020-08-21T10:55:12.235Z</time>
      </trkpt>
      <trkpt lat="68.25773" lon="14.19884">
        <ele>45.520283</ele>
        <time>2020-08-21T10:55:54.215Z</time>
      </trkpt>
      <trkpt lat="68.25717" lon="14.20399">
        <ele>43.881513</ele>
        <time>2020-08-21T10:56:34.219Z</time>
      </trkpt>
      <trkpt lat="68.25776" lon="14.20992">
        <ele>43.313493</ele>
        <time>2020-08-21T10:57:14.220Z</time>
      </trkpt>
      <trkpt lat="68.25837" lon="14.21535">
        <ele>46.443442</ele>
        <time>2020-08-21T10:57:54.231Z</time>
      </trkpt>
      <trkpt lat="68.25886" lon="14.22078">
        <ele>47.109597</ele>
        <time>2020-08-21T10:58:37.214Z</time>
      </trkpt>
      <trkpt lat="68.2593" lon="14.22627">
        <ele>47.586232</ele>
        <time>2020-08-21T10:59:17.218Z</time>
      </trkpt>
      <trkpt lat="68.25999" lon="14.23196">
        <ele>46.814914</ele>
        <time>2020-08-21T11:00:09.214Z</time>
      </trkpt>
      <trkpt lat="68.26116" lon="14.23669">
        <ele>47.11398</ele>
        <time>2020-08-21T11:00:54.239Z</time>
      </trkpt>
      <trkpt lat="68.26277" lon="14.2408">
        <ele>55.320778</ele>
        <time>2020-08-21T11:02:05.226Z</time>
      </trkpt>
      <trkpt lat="68.26315" lon="14.24587">
        <ele>73.781924</ele>
        <time>2020-08-21T11:03:55.261Z</time>
      </trkpt>
      <trkpt lat="68.26264" lon="14.25113">
        <ele>77.94423</ele>
        <time>2020-08-21T11:05:21.249Z</time>
      </trkpt>
      <trkpt lat="68.26206" lon="14.2571">
        <ele>62.278322</ele>
        <time>2020-08-21T11:05:47.226Z</time>
      </trkpt>
      <trkpt lat="68.26141" lon="14.26375">
        <ele>47.424188</ele>
        <time>2020-08-21T11:06:08.208Z</time>
      </trkpt>
      <trkpt lat="68.26062" lon="14.26954">
        <ele>45.506026</ele>
        <time>2020-08-21T11:06:43.237Z</time>
      </trkpt>
      <trkpt lat="68.2606" lon="14.27182">
        <ele>50.001108</ele>
        <time>2020-08-21T11:10:27.224Z</time>
      </trkpt>
      <trkpt lat="68.25917" lon="14.27529">
        <ele>59.256929</ele>
        <time>2020-08-21T11:12:05.220Z</time>
      </trkpt>
      <trkpt lat="68.25641" lon="14.27469">
        <ele>53.966045</ele>
        <time>2020-08-21T11:12:55.220Z</time>
      </trkpt>
      <trkpt lat="68.25335" lon="14.27519">
        <ele>46.927819</ele>
        <time>2020-08-21T11:13:35.232Z</time>
      </trkpt>
      <trkpt lat="68.25129" lon="14.2778">
        <ele>46.970012</ele>
        <time>2020-08-21T11:14:15.258Z</time>
      </trkpt>
      <trkpt lat="68.24933" lon="14.28033">
        <ele>55.634853</ele>
        <time>2020-08-21T11:15:25.224Z</time>
      </trkpt>
      <trkpt lat="68.24692" lon="14.2808">
        <ele>55.789713</ele>
        <time>2020-08-21T11:16:13.237Z</time>
      </trkpt>
      <trkpt lat="68.24415" lon="14.2811">
        <ele>46.931694</ele>
        <time>2020-08-21T11:16:53.221Z</time>
      </trkpt>
      <trkpt lat="68.24181" lon="14.28138">
        <ele>47.191353</ele>
        <time>2020-08-21T11:17:33.243Z</time>
      </trkpt>
      <trkpt lat="68.24018" lon="14.2783">
        <ele>44.74663</ele>
        <time>2020-08-21T11:18:13.228Z</time>
      </trkpt>
      <trkpt lat="68.24049" lon="14.27249">
        <ele>44.313523</ele>
        <time>2020-08-21T11:18:58.271Z</time>
      </trkpt>
      <trkpt lat="68.24059" lon="14.26698">
        <ele>46.567015</ele>
        <time>2020-08-21T11:19:41.224Z</time>
      </trkpt>
      <trkpt lat="68.24022" lon="14.26168">
        <ele>46.845846</ele>
        <time>2020-08-21T11:20:21.236Z</time>
      </trkpt>
      <trkpt lat="68.23953" lon="14.25616">
        <ele>46.952522</ele>
        <time>2020-08-21T11:21:17.242Z</time>
      </trkpt>
      <trkpt lat="68.23857" lon="14.25072">
        <ele>49.153211</ele>
        <time>2020-08-21T11:22:18.246Z</time>
      </trkpt>
      <trkpt lat="68.23687" lon="14.24585">
        <ele>45.216594</ele>
        <time>2020-08-21T11:22:53.242Z</time>
      </trkpt>
      <trkpt lat="68.23538" lon="14.24165">
        <ele>46.84347</ele>
        <time>2020-08-21T11:23:36.218Z</time>
      </trkpt>
      <trkpt lat="68.23391" lon="14.23744">
        <ele>52.136027</ele>
        <time>2020-08-21T11:24:38.245Z</time>
      </trkpt>
      <trkpt lat="68.23239" lon="14.23311">
        <ele>57.890566</ele>
        <time>2020-08-21T11:25:47.237Z</time>
      </trkpt>
      <trkpt lat="68.23097" lon="14.22912">
        <ele>58.665606</ele>
        <time>2020-08-21T11:26:32.236Z</time>
      </trkpt>
      <trkpt lat="68.22945" lon="14.22485">
        <ele>64.360025</ele>
        <time>2020-08-21T11:27:38.280Z</time>
      </trkpt>
      <trkpt lat="68.22719" lon="14.22161">
        <ele>62.702781</ele>
        <time>2020-08-21T11:28:23.220Z</time>
      </trkpt>
      <trkpt lat="68.2247" lon="14.2192">
        <ele>63.246298</ele>
        <time>2020-08-21T11:29:08.261Z</time>
      </trkpt>
      <trkpt lat="68.22248" lon="14.21709">
        <ele>62.828682</ele>
        <time>2020-08-21T11:29:49.259Z</time>
      </trkpt>
      <trkpt lat="68.22028" lon="14.21538">
        <ele>56.476652</ele>
        <time>2020-08-21T11:30:20.220Z</time>
      </trkpt>
      <trkpt lat="68.2175" lon="14.21465">
        <ele>49.974644</ele>
        <time>2020-08-21T11:30:58.236Z</time>
      </trkpt>
      <trkpt lat="68.21519" lon="14.2149">
        <ele>57.301065</ele>
        <time>2020-08-21T11:32:00.239Z</time>
      </trkpt>
      <trkpt lat="68.21335" lon="14.21785">
        <ele>60.604449</ele>
        <time>2020-08-21T11:32:46.232Z</time>
      </trkpt>
      <trkpt lat="68.21162" lon="14.22166">
        <ele>54.076249</ele>
        <time>2020-08-21T11:33:06.249Z</time>
      </trkpt>
      <trkpt lat="68.20897" lon="14.22118">
        <ele>48.686942</ele>
        <time>2020-08-21T11:33:44.234Z</time>
      </trkpt>
      <trkpt lat="68.20679" lon="14.22199">
        <ele>59.309549</ele>
        <time>2020-08-21T11:35:06.226Z</time>
      </trkpt>
      <trkpt lat="68.20599" lon="14.22679">
        <ele>65.088186</ele>
        <time>2020-08-21T11:36:10.221Z</time>
      </trkpt>
      <trkpt lat="68.20598" lon="14.23244">
        <ele>68.085978</ele>
        <time>2020-08-21T11:37:15.222Z</time>
      </trkpt>
      <trkpt lat="68.20603" lon="14.23774">
        <ele>75.88977</ele>
        <time>2020-08-21T11:38:33.252Z</time>
      </trkpt>
      <trkpt lat="68.20453" lon="14.24057">
        <ele>72.331914</ele>
        <time>2020-08-21T11:39:20.217Z</time>
      </trkpt>
      <trkpt lat="68.20324" lon="14.2357">
        <ele>55.881889</ele>
        <time>2020-08-21T11:39:42.220Z</time>
      </trkpt>
      <trkpt lat="68.20228" lon="14.22963">
        <ele>47.349106</ele>
        <time>2020-08-21T11:40:24.247Z</time>
      </trkpt>
      <trkpt lat="68.2014" lon="14.2242">
        <ele>48.834939</ele>
        <time>2020-08-21T11:41:23.226Z</time>
      </trkpt>
      <trkpt lat="68.19969" lon="14.21991">
        <ele>53.486433</ele>
        <time>2020-08-21T11:42:08.268Z</time>
      </trkpt>
      <trkpt lat="68.19768" lon="14.21769">
        <ele>53.848405</ele>
        <time>2020-08-21T11:43:05.261Z</time>
      </trkpt>
      <trkpt lat="68.19543" lon="14.21708">
        <ele>55.222725</ele>
        <time>2020-08-21T11:43:57.227Z</time>
      </trkpt>
      <trkpt lat="68.1929" lon="14.21672">
        <ele>49.399398</ele>
        <time>2020-08-21T11:44:37.230Z</time>
      </trkpt>
      <trkpt lat="68.19028" lon="14.21706">
        <ele>46.8582</ele>
        <time>2020-08-21T11:45:19.222Z</time>
      </trkpt>
      <trkpt lat="68.18867" lon="14.22067">
        <ele>53.59153</ele>
        <time>2020-08-21T11:46:13.246Z</time>
      </trkpt>
      <trkpt lat="68.18672" lon="14.22542">
        <ele>47.841614</ele>
        <time>2020-08-21T11:46:57.230Z</time>
      </trkpt>
      <trkpt lat="68.18489" lon="14.22326">
        <ele>45.898659</ele>
        <time>2020-08-21T11:47:37.225Z</time>
      </trkpt>
      <trkpt lat="68.18338" lon="14.21849">
        <ele>48.822113</ele>
        <time>2020-08-21T11:48:31.243Z</time>
      </trkpt>
      <trkpt lat="68.18143" lon="14.21467">
        <ele>53.562308</ele>
        <time>2020-08-21T11:49:18.254Z</time>
      </trkpt>
      <trkpt lat="68.17943" lon="14.21283">
        <ele>62.003828</ele>
        <time>2020-08-21T11:50:20.233Z</time>
      </trkpt>
      <trkpt lat="68.17758" lon="14.21078">
        <ele>66.729118</ele>
        <time>2020-08-21T11:52:05.224Z</time>
      </trkpt>
      <trkpt lat="68.17475" lon="14.2081">
        <ele>56.771374</ele>
        <time>2020-08-21T11:52:47.222Z</time>
      </trkpt>
      <trkpt lat="68.17206" lon="14.21142">
        <ele>46.434928</ele>
        <time>2020-08-21T11:53:27.237Z</time>
      </trkpt>
      <trkpt lat="68.17154" lon="14.21666">
        <ele>39.23714</ele>
        <time>2020-08-21T11:53:55.222Z</time>
      </trkpt>
      <trkpt lat="68.17099" lon="14.22096">
        <ele>44.581024</ele>
        <time>2020-08-21T11:54:36.234Z</time>
      </trkpt>
      <trkpt lat="68.16918" lon="14.22339">
        <ele>47.858676</ele>
        <time>2020-08-21T11:55:36.237Z</time>
      </trkpt>
      <trkpt lat="68.16764" lon="14.21969">
        <ele>52.932719</ele>
        <time>2020-08-21T11:56:36.265Z</time>
      </trkpt>
      <trkpt lat="68.16604" lon="14.2149">
        <ele>48.996136</ele>
        <time>2020-08-21T11:57:15.261Z</time>
      </trkpt>
      <trkpt lat="68.16379" lon="14.21448">
        <ele>45.433439</ele>
        <time>2020-08-21T11:57:56.229Z</time>
      </trkpt>
      <trkpt lat="68.16156" lon="14.21452">
        <ele>43.488217</ele>
        <time>2020-08-21T11:58:38.223Z</time>
      </trkpt>
      <trkpt lat="68.15967" lon="14.2146">
        <ele>55.338045</ele>
        <time>2020-08-21T11:59:51.249Z</time>
      </trkpt>
      <trkpt lat="68.158" lon="14.21054">
        <ele>58.17411</ele>
        <time>2020-08-21T12:01:40.256Z</time>
      </trkpt>
      <trkpt lat="68.15659" lon="14.20558">
        <ele>46.142472</ele>
        <time>2020-08-21T12:02:07.242Z</time>
      </trkpt>
      <trkpt lat="68.15482" lon="14.20216">
        <ele>44.248028</ele>
        <time>2020-08-21T12:02:49.225Z</time>
      </trkpt>
      <trkpt lat="68.15282" lon="14.20075">
        <ele>53.177194</ele>
        <time>2020-08-21T12:03:42.229Z</time>
      </trkpt>
      <trkpt lat="68.15088" lon="14.20036">
        <ele>51.266062</ele>
        <time>2020-08-21T12:04:39.222Z</time>
      </trkpt>
      <trkpt lat="68.14969" lon="14.20338">
        <ele>50.206319</ele>
        <time>2020-08-21T12:05:38.249Z</time>
      </trkpt>
      <trkpt lat="68.14954" lon="14.20305">
        <ele>39.358922</ele>
        <time>2020-08-21T12:42:14.272Z</time>
      </trkpt>
      <trkpt lat="68.15099" lon="14.20023">
        <ele>44.082369</ele>
        <time>2020-08-21T12:43:44.245Z</time>
      </trkpt>
      <trkpt lat="68.15282" lon="14.2007">
        <ele>49.351718</ele>
        <time>2020-08-21T12:45:00.233Z</time>
      </trkpt>
      <trkpt lat="68.15463" lon="14.20259">
        <ele>50.80324</ele>
        <time>2020-08-21T12:55:10.250Z</time>
      </trkpt>
      <trkpt lat="68.1563" lon="14.20586">
        <ele>52.121007</ele>
        <time>2020-08-21T12:56:26.240Z</time>
      </trkpt>
      <trkpt lat="68.15778" lon="14.20972">
        <ele>46.277955</ele>
        <time>2020-08-21T12:57:29.256Z</time>
      </trkpt>
      <trkpt lat="68.1592" lon="14.21363">
        <ele>55.476399</ele>
        <time>2020-08-21T12:59:09.261Z</time>
      </trkpt>
      <trkpt lat="68.16172" lon="14.21443">
        <ele>46.438285</ele>
        <time>2020-08-21T12:59:47.260Z</time>
      </trkpt>
      <trkpt lat="68.16399" lon="14.21473">
        <ele>44.676868</ele>
        <time>2020-08-21T13:00:32.250Z</time>
      </trkpt>
      <trkpt lat="68.16622" lon="14.21523">
        <ele>45.258228</ele>
        <time>2020-08-21T13:01:31.256Z</time>
      </trkpt>
      <trkpt lat="68.16772" lon="14.22015">
        <ele>47.978899</ele>
        <time>2020-08-21T13:02:24.252Z</time>
      </trkpt>
      <trkpt lat="68.16948" lon="14.22302">
        <ele>45.434136</ele>
        <time>2020-08-21T13:03:21.251Z</time>
      </trkpt>
      <trkpt lat="68.17164" lon="14.22067">
        <ele>44.54551</ele>
        <time>2020-08-21T13:06:57.251Z</time>
      </trkpt>
      <trkpt lat="68.17132" lon="14.21524">
        <ele>41.170389</ele>
        <time>2020-08-21T13:07:41.271Z</time>
      </trkpt>
      <trkpt lat="68.17214" lon="14.21138">
        <ele>46.312348</ele>
        <time>2020-08-21T13:08:53.253Z</time>
      </trkpt>
      <trkpt lat="68.17405" lon="14.20837">
        <ele>49.064523</ele>
        <time>2020-08-21T13:09:57.255Z</time>
      </trkpt>
      <trkpt lat="68.1761" lon="14.20861">
        <ele>53.219047</ele>
        <time>2020-08-21T13:11:00.240Z</time>
      </trkpt>
      <trkpt lat="68.17794" lon="14.211">
        <ele>58.082537</ele>
        <time>2020-08-21T13:12:13.236Z</time>
      </trkpt>
      <trkpt lat="68.18001" lon="14.21333">
        <ele>49.705485</ele>
        <time>2020-08-21T13:12:59.267Z</time>
      </trkpt>
      <trkpt lat="68.18223" lon="14.21597">
        <ele>41.070136</ele>
        <time>2020-08-21T13:13:36.237Z</time>
      </trkpt>
      <trkpt lat="68.1839" lon="14.22029">
        <ele>42.536867</ele>
        <time>2020-08-21T13:14:31.256Z</time>
      </trkpt>
      <trkpt lat="68.18553" lon="14.2253">
        <ele>44.459192</ele>
        <time>2020-08-21T13:15:13.262Z</time>
      </trkpt>
      <trkpt lat="68.18763" lon="14.2246">
        <ele>44.351096</ele>
        <time>2020-08-21T13:15:54.275Z</time>
      </trkpt>
      <trkpt lat="68.18878" lon="14.22004">
        <ele>47.061627</ele>
        <time>2020-08-21T13:17:10.252Z</time>
      </trkpt>
      <trkpt lat="68.19098" lon="14.21685">
        <ele>42.553964</ele>
        <time>2020-08-21T13:17:53.279Z</time>
      </trkpt>
      <trkpt lat="68.19333" lon="14.21678">
        <ele>41.638112</ele>
        <time>2020-08-21T13:18:38.250Z</time>
      </trkpt>
      <trkpt lat="68.19538" lon="14.21707">
        <ele>48.897511</ele>
        <time>2020-08-21T13:19:39.271Z</time>
      </trkpt>
      <trkpt lat="68.19781" lon="14.21788">
        <ele>45.205702</ele>
        <time>2020-08-21T13:20:29.253Z</time>
      </trkpt>
      <trkpt lat="68.20038" lon="14.22108">
        <ele>41.210183</ele>
        <time>2020-08-21T13:21:10.259Z</time>
      </trkpt>
      <trkpt lat="68.20169" lon="14.22628">
        <ele>40.551082</ele>
        <time>2020-08-21T13:21:56.242Z</time>
      </trkpt>
      <trkpt lat="68.20257" lon="14.23179">
        <ele>40.514118</ele>
        <time>2020-08-21T13:22:36.242Z</time>
      </trkpt>
      <trkpt lat="68.20341" lon="14.23707">
        <ele>45.514914</ele>
        <time>2020-08-21T13:23:25.248Z</time>
      </trkpt>
      <trkpt lat="68.20481" lon="14.24049">
        <ele>63.132127</ele>
        <time>2020-08-21T13:25:12.291Z</time>
      </trkpt>
      <trkpt lat="68.20626" lon="14.24147">
        <ele>73.456867</ele>
        <time>2020-08-21T13:27:02.258Z</time>
      </trkpt>
      <trkpt lat="68.20679" lon="14.24706">
        <ele>78.786024</ele>
        <time>2020-08-21T13:28:21.258Z</time>
      </trkpt>
      <trkpt lat="68.20767" lon="14.25266">
        <ele>75.855678</ele>
        <time>2020-08-21T13:29:01.277Z</time>
      </trkpt>
      <trkpt lat="68.20819" lon="14.25962">
        <ele>72.739989</ele>
        <time>2020-08-21T13:29:43.239Z</time>
      </trkpt>
      <trkpt lat="68.20839" lon="14.26513">
        <ele>69.115641</ele>
        <time>2020-08-21T13:30:23.243Z</time>
      </trkpt>
      <trkpt lat="68.20791" lon="14.2705">
        <ele>68.80832</ele>
        <time>2020-08-21T13:31:03.253Z</time>
      </trkpt>
      <trkpt lat="68.20724" lon="14.27585">
        <ele>75.281426</ele>
        <time>2020-08-21T13:31:49.261Z</time>
      </trkpt>
      <trkpt lat="68.20662" lon="14.28235">
        <ele>73.143588</ele>
        <time>2020-08-21T13:32:51.246Z</time>
      </trkpt>
      <trkpt lat="68.21192" lon="14.3024">
        <ele>42.029568</ele>
        <time>2020-08-21T13:34:52.254Z</time>
      </trkpt>
      <trkpt lat="68.21326" lon="14.30732">
        <ele>46.080377</ele>
        <time>2020-08-21T13:35:29.258Z</time>
      </trkpt>
      <trkpt lat="68.21466" lon="14.31323">
        <ele>43.322647</ele>
        <time>2020-08-21T13:36:09.253Z</time>
      </trkpt>
      <trkpt lat="68.21509" lon="14.32033">
        <ele>39.700732</ele>
        <time>2020-08-21T13:36:51.269Z</time>
      </trkpt>
      <trkpt lat="68.21452" lon="14.32615">
        <ele>42.220768</ele>
        <time>2020-08-21T13:37:36.259Z</time>
      </trkpt>
      <trkpt lat="68.21387" lon="14.33172">
        <ele>44.597002</ele>
        <time>2020-08-21T13:38:31.268Z</time>
      </trkpt>
      <trkpt lat="68.2131" lon="14.33847">
        <ele>41.770509</ele>
        <time>2020-08-21T13:39:11.293Z</time>
      </trkpt>
      <trkpt lat="68.21227" lon="14.34578">
        <ele>37.39077</ele>
        <time>2020-08-21T13:39:53.279Z</time>
      </trkpt>
      <trkpt lat="68.2116" lon="14.35127">
        <ele>49.844791</ele>
        <time>2020-08-21T13:40:59.274Z</time>
      </trkpt>
      <trkpt lat="68.2113" lon="14.35658">
        <ele>57.747561</ele>
        <time>2020-08-21T13:42:43.269Z</time>
      </trkpt>
      <trkpt lat="68.21164" lon="14.36304">
        <ele>51.884059</ele>
        <time>2020-08-21T13:43:23.276Z</time>
      </trkpt>
      <trkpt lat="68.212" lon="14.37018">
        <ele>43.148118</ele>
        <time>2020-08-21T13:43:58.291Z</time>
      </trkpt>
      <trkpt lat="68.21229" lon="14.37568">
        <ele>43.737289</ele>
        <time>2020-08-21T13:44:38.297Z</time>
      </trkpt>
      <trkpt lat="68.21264" lon="14.38271">
        <ele>40.569964</ele>
        <time>2020-08-21T13:45:18.257Z</time>
      </trkpt>
      <trkpt lat="68.21298" lon="14.38953">
        <ele>39.84519</ele>
        <time>2020-08-21T13:45:58.261Z</time>
      </trkpt>
      <trkpt lat="68.21348" lon="14.39541">
        <ele>45.798236</ele>
        <time>2020-08-21T13:46:51.294Z</time>
      </trkpt>
      <trkpt lat="68.21461" lon="14.40049">
        <ele>45.376911</ele>
        <time>2020-08-21T13:47:43.242Z</time>
      </trkpt>
      <trkpt lat="68.21416" lon="14.40735">
        <ele>41.307704</ele>
        <time>2020-08-21T13:48:23.271Z</time>
      </trkpt>
      <trkpt lat="68.21316" lon="14.41262">
        <ele>47.181425</ele>
        <time>2020-08-21T13:49:24.278Z</time>
      </trkpt>
      <trkpt lat="68.21296" lon="14.4181">
        <ele>56.438933</ele>
        <time>2020-08-21T13:50:55.266Z</time>
      </trkpt>
      <trkpt lat="68.21365" lon="14.42342">
        <ele>55.89816</ele>
        <time>2020-08-21T13:51:57.275Z</time>
      </trkpt>
      <trkpt lat="68.21464" lon="14.43124">
        <ele>43.635029</ele>
        <time>2020-08-21T13:52:37.261Z</time>
      </trkpt>
      <trkpt lat="68.21516" lon="14.43704">
        <ele>43.150253</ele>
        <time>2020-08-21T13:53:20.287Z</time>
      </trkpt>
      <trkpt lat="68.21512" lon="14.43915">
        <ele>38.54869</ele>
        <time>2020-08-21T13:54:35.258Z</time>
      </trkpt>
      <trkpt lat="68.21677" lon="14.44252">
        <ele>36.049318</ele>
        <time>2020-08-21T13:55:22.262Z</time>
      </trkpt>
    </trkseg>
  </trk>
  <trk>
    <name><![CDATA[Tour d'Europe: étape 055]]></name>
    <trkseg>
      <trkpt lat="68.21722" lon="14.4452">
        <ele>45.146139</ele>
        <time>2020-08-22T07:25:56.705Z</time>
      </trkpt>
      <trkpt lat="68.21605" lon="14.44149">
        <ele>39.074902</ele>
        <time>2020-08-22T07:26:50.693Z</time>
      </trkpt>
      <trkpt lat="68.21453" lon="14.44078">
        <ele>37.441891</ele>
        <time>2020-08-22T07:27:54.707Z</time>
      </trkpt>
      <trkpt lat="68.2137" lon="14.446">
        <ele>39.019968</ele>
        <time>2020-08-22T07:28:53.722Z</time>
      </trkpt>
      <trkpt lat="68.21373" lon="14.45096">
        <ele>52.279209</ele>
        <time>2020-08-22T07:30:27.716Z</time>
      </trkpt>
      <trkpt lat="68.21336" lon="14.45615">
        <ele>63.303769</ele>
        <time>2020-08-22T07:31:55.719Z</time>
      </trkpt>
      <trkpt lat="68.21337" lon="14.46227">
        <ele>51.829357</ele>
        <time>2020-08-22T07:32:45.715Z</time>
      </trkpt>
      <trkpt lat="68.21236" lon="14.46581">
        <ele>41.596093</ele>
        <time>2020-08-22T07:33:50.734Z</time>
      </trkpt>
      <trkpt lat="68.212" lon="14.47182">
        <ele>44.84906</ele>
        <time>2020-08-22T07:34:51.711Z</time>
      </trkpt>
      <trkpt lat="68.21201" lon="14.47774">
        <ele>43.566093</ele>
        <time>2020-08-22T07:35:38.710Z</time>
      </trkpt>
      <trkpt lat="68.21348" lon="14.48212">
        <ele>44.655051</ele>
        <time>2020-08-22T07:36:29.714Z</time>
      </trkpt>
      <trkpt lat="68.21555" lon="14.4819">
        <ele>42.627217</ele>
        <time>2020-08-22T07:37:28.704Z</time>
      </trkpt>
      <trkpt lat="68.21678" lon="14.48655">
        <ele>43.976223</ele>
        <time>2020-08-22T07:38:19.705Z</time>
      </trkpt>
      <trkpt lat="68.21781" lon="14.49169">
        <ele>52.095979</ele>
        <time>2020-08-22T07:39:35.706Z</time>
      </trkpt>
      <trkpt lat="68.2193" lon="14.49554">
        <ele>62.349327</ele>
        <time>2020-08-22T07:40:48.735Z</time>
      </trkpt>
      <trkpt lat="68.22089" lon="14.50062">
        <ele>58.337775</ele>
        <time>2020-08-22T07:41:35.727Z</time>
      </trkpt>
      <trkpt lat="68.22175" lon="14.50507">
        <ele>60.160614</ele>
        <time>2020-08-22T07:43:11.728Z</time>
      </trkpt>
      <trkpt lat="68.22201" lon="14.51074">
        <ele>63.516844</ele>
        <time>2020-08-22T07:44:18.721Z</time>
      </trkpt>
      <trkpt lat="68.224" lon="14.51494">
        <ele>57.769094</ele>
        <time>2020-08-22T07:45:08.754Z</time>
      </trkpt>
      <trkpt lat="68.22464" lon="14.52018">
        <ele>60.346602</ele>
        <time>2020-08-22T07:45:53.742Z</time>
      </trkpt>
      <trkpt lat="68.22511" lon="14.52535">
        <ele>73.884577</ele>
        <time>2020-08-22T07:47:28.716Z</time>
      </trkpt>
      <trkpt lat="68.22657" lon="14.52924">
        <ele>76.77748</ele>
        <time>2020-08-22T07:48:38.718Z</time>
      </trkpt>
      <trkpt lat="68.22844" lon="14.53238">
        <ele>65.087902</ele>
        <time>2020-08-22T07:49:08.722Z</time>
      </trkpt>
      <trkpt lat="68.23054" lon="14.53119">
        <ele>49.700216</ele>
        <time>2020-08-22T07:50:06.734Z</time>
      </trkpt>
      <trkpt lat="68.23274" lon="14.53331">
        <ele>60.143031</ele>
        <time>2020-08-22T07:50:49.703Z</time>
      </trkpt>
      <trkpt lat="68.2343" lon="14.53672">
        <ele>128.764489</ele>
        <time>2020-08-22T07:52:09.722Z</time>
      </trkpt>
      <trkpt lat="68.23558" lon="14.54143">
        <ele>125.099101</ele>
        <time>2020-08-22T07:52:51.714Z</time>
      </trkpt>
      <trkpt lat="68.2363" lon="14.54677">
        <ele>49.718583</ele>
        <time>2020-08-22T07:53:34.726Z</time>
      </trkpt>
      <trkpt lat="68.23635" lon="14.55278">
        <ele>39.215173</ele>
        <time>2020-08-22T07:54:23.748Z</time>
      </trkpt>
      <trkpt lat="68.23626" lon="14.55821">
        <ele>41.600821</ele>
        <time>2020-08-22T07:55:11.726Z</time>
      </trkpt>
      <trkpt lat="68.2369" lon="14.56437">
        <ele>46.207849</ele>
        <time>2020-08-22T07:56:14.721Z</time>
      </trkpt>
      <trkpt lat="68.23873" lon="14.56673">
        <ele>42.782311</ele>
        <time>2020-08-22T07:57:00.736Z</time>
      </trkpt>
      <trkpt lat="68.2407" lon="14.56993">
        <ele>43.242769</ele>
        <time>2020-08-22T07:57:59.714Z</time>
      </trkpt>
      <trkpt lat="68.24231" lon="14.57452">
        <ele>47.606221</ele>
        <time>2020-08-22T07:58:54.734Z</time>
      </trkpt>
      <trkpt lat="68.24306" lon="14.57969">
        <ele>46.747878</ele>
        <time>2020-08-22T08:00:03.740Z</time>
      </trkpt>
      <trkpt lat="68.24237" lon="14.58487">
        <ele>47.065649</ele>
        <time>2020-08-22T08:01:04.743Z</time>
      </trkpt>
      <trkpt lat="68.24206" lon="14.59082">
        <ele>49.087382</ele>
        <time>2020-08-22T08:01:51.708Z</time>
      </trkpt>
      <trkpt lat="68.24226" lon="14.59635">
        <ele>51.055533</ele>
        <time>2020-08-22T08:02:41.706Z</time>
      </trkpt>
      <trkpt lat="68.24315" lon="14.60212">
        <ele>47.319097</ele>
        <time>2020-08-22T08:03:24.720Z</time>
      </trkpt>
      <trkpt lat="68.24405" lon="14.60736">
        <ele>49.452698</ele>
        <time>2020-08-22T08:04:19.719Z</time>
      </trkpt>
      <trkpt lat="68.24436" lon="14.61296">
        <ele>54.409618</ele>
        <time>2020-08-22T08:05:14.727Z</time>
      </trkpt>
      <trkpt lat="68.24476" lon="14.6194">
        <ele>55.110709</ele>
        <time>2020-08-22T08:05:58.723Z</time>
      </trkpt>
      <trkpt lat="68.24539" lon="14.62531">
        <ele>52.893848</ele>
        <time>2020-08-22T08:06:55.734Z</time>
      </trkpt>
      <trkpt lat="68.24586" lon="14.63157">
        <ele>54.056967</ele>
        <time>2020-08-22T08:07:39.709Z</time>
      </trkpt>
      <trkpt lat="68.24403" lon="14.63296">
        <ele>62.432139</ele>
        <time>2020-08-22T08:09:06.721Z</time>
      </trkpt>
      <trkpt lat="68.24383" lon="14.64039">
        <ele>70.725145</ele>
        <time>2020-08-22T08:11:18.715Z</time>
      </trkpt>
      <trkpt lat="68.24416" lon="14.64673">
        <ele>53.024295</ele>
        <time>2020-08-22T08:11:43.723Z</time>
      </trkpt>
      <trkpt lat="68.24451" lon="14.65294">
        <ele>41.190852</ele>
        <time>2020-08-22T08:12:03.709Z</time>
      </trkpt>
      <trkpt lat="68.24629" lon="14.65817">
        <ele>39.702303</ele>
        <time>2020-08-22T08:12:42.721Z</time>
      </trkpt>
      <trkpt lat="68.24805" lon="14.66085">
        <ele>41.022513</ele>
        <time>2020-08-22T08:13:22.713Z</time>
      </trkpt>
      <trkpt lat="68.25001" lon="14.66295">
        <ele>45.50416</ele>
        <time>2020-08-22T08:14:08.727Z</time>
      </trkpt>
      <trkpt lat="68.25213" lon="14.66277">
        <ele>47.66968</ele>
        <time>2020-08-22T08:15:12.704Z</time>
      </trkpt>
      <trkpt lat="68.25421" lon="14.66178">
        <ele>48.139963</ele>
        <time>2020-08-22T08:15:59.735Z</time>
      </trkpt>
      <trkpt lat="68.2564" lon="14.66016">
        <ele>48.304823</ele>
        <time>2020-08-22T08:16:52.724Z</time>
      </trkpt>
      <trkpt lat="68.2584" lon="14.6577">
        <ele>47.852603</ele>
        <time>2020-08-22T08:17:48.716Z</time>
      </trkpt>
      <trkpt lat="68.26067" lon="14.65766">
        <ele>41.223022</ele>
        <time>2020-08-22T08:18:15.722Z</time>
      </trkpt>
      <trkpt lat="68.26297" lon="14.65764">
        <ele>38.48842</ele>
        <time>2020-08-22T08:18:55.726Z</time>
      </trkpt>
      <trkpt lat="68.26506" lon="14.65938">
        <ele>41.978259</ele>
        <time>2020-08-22T08:19:35.727Z</time>
      </trkpt>
      <trkpt lat="68.26748" lon="14.65858">
        <ele>42.913125</ele>
        <time>2020-08-22T08:20:31.731Z</time>
      </trkpt>
      <trkpt lat="68.26951" lon="14.65721">
        <ele>45.654674</ele>
        <time>2020-08-22T08:21:32.709Z</time>
      </trkpt>
      <trkpt lat="68.27152" lon="14.65709">
        <ele>52.829669</ele>
        <time>2020-08-22T08:22:58.724Z</time>
      </trkpt>
      <trkpt lat="68.27374" lon="14.65696">
        <ele>53.625666</ele>
        <time>2020-08-22T08:23:59.732Z</time>
      </trkpt>
      <trkpt lat="68.27559" lon="14.66022">
        <ele>42.216124</ele>
        <time>2020-08-22T08:24:26.714Z</time>
      </trkpt>
      <trkpt lat="68.27788" lon="14.66285">
        <ele>38.601181</ele>
        <time>2020-08-22T08:25:06.726Z</time>
      </trkpt>
      <trkpt lat="68.27982" lon="14.66042">
        <ele>45.120953</ele>
        <time>2020-08-22T08:26:06.725Z</time>
      </trkpt>
      <trkpt lat="68.28224" lon="14.6597">
        <ele>42.793622</ele>
        <time>2020-08-22T08:26:54.758Z</time>
      </trkpt>
      <trkpt lat="68.28406" lon="14.66236">
        <ele>39.985848</ele>
        <time>2020-08-22T08:27:44.714Z</time>
      </trkpt>
      <trkpt lat="68.28367" lon="14.66797">
        <ele>48.660349</ele>
        <time>2020-08-22T08:28:49.720Z</time>
      </trkpt>
      <trkpt lat="68.28408" lon="14.67497">
        <ele>48.769229</ele>
        <time>2020-08-22T08:29:38.721Z</time>
      </trkpt>
      <trkpt lat="68.28491" lon="14.68027">
        <ele>43.805645</ele>
        <time>2020-08-22T08:30:25.747Z</time>
      </trkpt>
      <trkpt lat="68.28576" lon="14.68512">
        <ele>43.135266</ele>
        <time>2020-08-22T08:31:08.727Z</time>
      </trkpt>
      <trkpt lat="68.28665" lon="14.69018">
        <ele>42.009103</ele>
        <time>2020-08-22T08:31:51.748Z</time>
      </trkpt>
      <trkpt lat="68.28788" lon="14.69453">
        <ele>42.429553</ele>
        <time>2020-08-22T08:32:44.713Z</time>
      </trkpt>
      <trkpt lat="68.29008" lon="14.69672">
        <ele>44.292637</ele>
        <time>2020-08-22T08:33:39.726Z</time>
      </trkpt>
      <trkpt lat="68.29226" lon="14.69752">
        <ele>45.555055</ele>
        <time>2020-08-22T08:34:30.725Z</time>
      </trkpt>
      <trkpt lat="68.29436" lon="14.69824">
        <ele>41.115465</ele>
        <time>2020-08-22T08:35:10.722Z</time>
      </trkpt>
      <trkpt lat="68.2961" lon="14.70148">
        <ele>45.302378</ele>
        <time>2020-08-22T08:36:04.717Z</time>
      </trkpt>
      <trkpt lat="68.29839" lon="14.70244">
        <ele>48.432443</ele>
        <time>2020-08-22T08:37:11.707Z</time>
      </trkpt>
      <trkpt lat="68.29993" lon="14.70613">
        <ele>52.546211</ele>
        <time>2020-08-22T08:38:22.722Z</time>
      </trkpt>
      <trkpt lat="68.30187" lon="14.70752">
        <ele>63.512715</ele>
        <time>2020-08-22T08:40:10.730Z</time>
      </trkpt>
      <trkpt lat="68.30393" lon="14.70836">
        <ele>64.651798</ele>
        <time>2020-08-22T08:41:23.723Z</time>
      </trkpt>
      <trkpt lat="68.3061" lon="14.70803">
        <ele>68.015331</ele>
        <time>2020-08-22T08:42:23.741Z</time>
      </trkpt>
      <trkpt lat="68.30823" lon="14.70896">
        <ele>69.234883</ele>
        <time>2020-08-22T08:43:24.733Z</time>
      </trkpt>
      <trkpt lat="68.31055" lon="14.71016">
        <ele>66.95282</ele>
        <time>2020-08-22T08:44:12.760Z</time>
      </trkpt>
      <trkpt lat="68.31301" lon="14.71175">
        <ele>62.734261</ele>
        <time>2020-08-22T08:44:55.741Z</time>
      </trkpt>
      <trkpt lat="68.31492" lon="14.71424">
        <ele>65.020572</ele>
        <time>2020-08-22T08:45:57.727Z</time>
      </trkpt>
      <trkpt lat="68.31501" lon="14.71472">
        <ele>65.870656</ele>
        <time>2020-08-22T08:59:50.749Z</time>
      </trkpt>
      <trkpt lat="68.31701" lon="14.71259">
        <ele>64.704427</ele>
        <time>2020-08-22T09:00:49.737Z</time>
      </trkpt>
      <trkpt lat="68.31837" lon="14.70757">
        <ele>54.0582</ele>
        <time>2020-08-22T09:01:13.740Z</time>
      </trkpt>
      <trkpt lat="68.31941" lon="14.70135">
        <ele>45.012796</ele>
        <time>2020-08-22T09:01:38.736Z</time>
      </trkpt>
      <trkpt lat="68.32146" lon="14.69922">
        <ele>48.437536</ele>
        <time>2020-08-22T09:02:43.732Z</time>
      </trkpt>
      <trkpt lat="68.3236" lon="14.69885">
        <ele>51.57258</ele>
        <time>2020-08-22T09:03:59.720Z</time>
      </trkpt>
      <trkpt lat="68.32428" lon="14.69171">
        <ele>42.661002</ele>
        <time>2020-08-22T09:04:39.714Z</time>
      </trkpt>
      <trkpt lat="68.32518" lon="14.68657">
        <ele>41.452273</ele>
        <time>2020-08-22T09:05:23.737Z</time>
      </trkpt>
      <trkpt lat="68.32435" lon="14.68137">
        <ele>42.234185</ele>
        <time>2020-08-22T09:06:24.714Z</time>
      </trkpt>
      <trkpt lat="68.32376" lon="14.67592">
        <ele>41.452326</ele>
        <time>2020-08-22T09:07:27.727Z</time>
      </trkpt>
      <trkpt lat="68.32444" lon="14.67045">
        <ele>43.909834</ele>
        <time>2020-08-22T09:08:27.722Z</time>
      </trkpt>
      <trkpt lat="68.32521" lon="14.66511">
        <ele>49.242856</ele>
        <time>2020-08-22T09:09:25.743Z</time>
      </trkpt>
      <trkpt lat="68.32527" lon="14.65984">
        <ele>55.192694</ele>
        <time>2020-08-22T09:11:02.765Z</time>
      </trkpt>
      <trkpt lat="68.32621" lon="14.65369">
        <ele>43.855406</ele>
        <time>2020-08-22T09:11:33.716Z</time>
      </trkpt>
      <trkpt lat="68.3255" lon="14.64893">
        <ele>36.961005</ele>
        <time>2020-08-22T09:12:02.755Z</time>
      </trkpt>
      <trkpt lat="68.32348" lon="14.64769">
        <ele>42.366503</ele>
        <time>2020-08-22T09:13:09.738Z</time>
      </trkpt>
      <trkpt lat="68.32139" lon="14.64637">
        <ele>39.750348</ele>
        <time>2020-08-22T09:14:00.739Z</time>
      </trkpt>
      <trkpt lat="68.32001" lon="14.64226">
        <ele>45.389751</ele>
        <time>2020-08-22T09:14:54.725Z</time>
      </trkpt>
      <trkpt lat="68.3194" lon="14.63648">
        <ele>50.906062</ele>
        <time>2020-08-22T09:16:06.729Z</time>
      </trkpt>
      <trkpt lat="68.31857" lon="14.63147">
        <ele>53.199103</ele>
        <time>2020-08-22T09:17:31.730Z</time>
      </trkpt>
      <trkpt lat="68.31778" lon="14.62611">
        <ele>57.582454</ele>
        <time>2020-08-22T09:18:39.757Z</time>
      </trkpt>
      <trkpt lat="68.31757" lon="14.6205">
        <ele>64.226324</ele>
        <time>2020-08-22T09:19:53.720Z</time>
      </trkpt>
      <trkpt lat="68.31797" lon="14.61461">
        <ele>64.802368</ele>
        <time>2020-08-22T09:20:51.721Z</time>
      </trkpt>
      <trkpt lat="68.31795" lon="14.60781">
        <ele>60.633325</ele>
        <time>2020-08-22T09:21:33.725Z</time>
      </trkpt>
      <trkpt lat="68.31778" lon="14.60196">
        <ele>65.59591</ele>
        <time>2020-08-22T09:22:28.741Z</time>
      </trkpt>
      <trkpt lat="68.3173" lon="14.59687">
        <ele>70.64106</ele>
        <time>2020-08-22T09:23:51.713Z</time>
      </trkpt>
      <trkpt lat="68.31601" lon="14.59285">
        <ele>75.027505</ele>
        <time>2020-08-22T09:25:15.715Z</time>
      </trkpt>
      <trkpt lat="68.31455" lon="14.58714">
        <ele>71.904506</ele>
        <time>2020-08-22T09:26:09.725Z</time>
      </trkpt>
      <trkpt lat="68.31342" lon="14.58168">
        <ele>76.182864</ele>
        <time>2020-08-22T09:27:05.722Z</time>
      </trkpt>
      <trkpt lat="68.31302" lon="14.57534">
        <ele>75.576977</ele>
        <time>2020-08-22T09:28:01.737Z</time>
      </trkpt>
      <trkpt lat="68.31444" lon="14.57027">
        <ele>64.645834</ele>
        <time>2020-08-22T09:28:24.714Z</time>
      </trkpt>
      <trkpt lat="68.31523" lon="14.5649">
        <ele>59.865073</ele>
        <time>2020-08-22T09:28:53.732Z</time>
      </trkpt>
      <trkpt lat="68.3166" lon="14.55855">
        <ele>57.740031</ele>
        <time>2020-08-22T09:29:30.725Z</time>
      </trkpt>
      <trkpt lat="68.31841" lon="14.55425">
        <ele>57.725846</ele>
        <time>2020-08-22T09:30:22.729Z</time>
      </trkpt>
      <trkpt lat="68.31954" lon="14.54905">
        <ele>59.606253</ele>
        <time>2020-08-22T09:31:06.722Z</time>
      </trkpt>
      <trkpt lat="68.32051" lon="14.54378">
        <ele>59.460177</ele>
        <time>2020-08-22T09:31:52.731Z</time>
      </trkpt>
      <trkpt lat="68.32191" lon="14.53911">
        <ele>59.848989</ele>
        <time>2020-08-22T09:32:46.737Z</time>
      </trkpt>
      <trkpt lat="68.32273" lon="14.53335">
        <ele>60.281563</ele>
        <time>2020-08-22T09:33:39.737Z</time>
      </trkpt>
      <trkpt lat="68.32346" lon="14.52749">
        <ele>58.502475</ele>
        <time>2020-08-22T09:34:28.725Z</time>
      </trkpt>
      <trkpt lat="68.32398" lon="14.52148">
        <ele>58.926334</ele>
        <time>2020-08-22T09:35:21.790Z</time>
      </trkpt>
      <trkpt lat="68.3249" lon="14.51543">
        <ele>55.878337</ele>
        <time>2020-08-22T09:36:04.722Z</time>
      </trkpt>
      <trkpt lat="68.32654" lon="14.50929">
        <ele>53.751773</ele>
        <time>2020-08-22T09:36:44.752Z</time>
      </trkpt>
      <trkpt lat="68.32903" lon="14.51115">
        <ele>44.868673</ele>
        <time>2020-08-22T09:37:24.778Z</time>
      </trkpt>
      <trkpt lat="68.33165" lon="14.51024">
        <ele>42.191335</ele>
        <time>2020-08-22T09:38:06.770Z</time>
      </trkpt>
      <trkpt lat="68.33308" lon="14.50559">
        <ele>45.980002</ele>
        <time>2020-08-22T09:39:00.735Z</time>
      </trkpt>
      <trkpt lat="68.33455" lon="14.50125">
        <ele>45.198561</ele>
        <time>2020-08-22T09:39:51.731Z</time>
      </trkpt>
      <trkpt lat="68.33633" lon="14.49824">
        <ele>48.373185</ele>
        <time>2020-08-22T09:40:51.739Z</time>
      </trkpt>
      <trkpt lat="68.3375" lon="14.49367">
        <ele>56.66653</ele>
        <time>2020-08-22T09:42:12.754Z</time>
      </trkpt>
      <trkpt lat="68.33865" lon="14.48759">
        <ele>57.446067</ele>
        <time>2020-08-22T09:42:55.736Z</time>
      </trkpt>
      <trkpt lat="68.34063" lon="14.48542">
        <ele>55.234549</ele>
        <time>2020-08-22T09:43:51.734Z</time>
      </trkpt>
      <trkpt lat="68.34247" lon="14.48772">
        <ele>60.710489</ele>
        <time>2020-08-22T09:45:05.736Z</time>
      </trkpt>
      <trkpt lat="68.34437" lon="14.49108">
        <ele>62.657273</ele>
        <time>2020-08-22T09:46:09.726Z</time>
      </trkpt>
      <trkpt lat="68.34674" lon="14.4955">
        <ele>56.333277</ele>
        <time>2020-08-22T09:46:51.735Z</time>
      </trkpt>
      <trkpt lat="68.3491" lon="14.49518">
        <ele>46.413974</ele>
        <time>2020-08-22T09:47:32.761Z</time>
      </trkpt>
      <trkpt lat="68.3514" lon="14.49406">
        <ele>42.249865</ele>
        <time>2020-08-22T09:48:02.749Z</time>
      </trkpt>
      <trkpt lat="68.35348" lon="14.49119">
        <ele>43.252012</ele>
        <time>2020-08-22T09:48:42.734Z</time>
      </trkpt>
      <trkpt lat="68.35548" lon="14.48847">
        <ele>46.432758</ele>
        <time>2020-08-22T09:49:35.750Z</time>
      </trkpt>
      <trkpt lat="68.35738" lon="14.48585">
        <ele>49.453507</ele>
        <time>2020-08-22T09:50:42.754Z</time>
      </trkpt>
      <trkpt lat="68.35954" lon="14.48257">
        <ele>51.607999</ele>
        <time>2020-08-22T09:51:36.752Z</time>
      </trkpt>
      <trkpt lat="68.3615" lon="14.47931">
        <ele>54.920677</ele>
        <time>2020-08-22T09:52:26.754Z</time>
      </trkpt>
      <trkpt lat="68.36322" lon="14.47494">
        <ele>55.088242</ele>
        <time>2020-08-22T09:53:06.763Z</time>
      </trkpt>
      <trkpt lat="68.36453" lon="14.46901">
        <ele>55.210774</ele>
        <time>2020-08-22T09:53:46.773Z</time>
      </trkpt>
      <trkpt lat="68.36611" lon="14.46351">
        <ele>49.973334</ele>
        <time>2020-08-22T09:54:26.743Z</time>
      </trkpt>
      <trkpt lat="68.3685" lon="14.46233">
        <ele>48.676061</ele>
        <time>2020-08-22T09:55:20.751Z</time>
      </trkpt>
      <trkpt lat="68.37055" lon="14.46229">
        <ele>52.231972</ele>
        <time>2020-08-22T09:56:21.757Z</time>
      </trkpt>
      <trkpt lat="68.3727" lon="14.46143">
        <ele>53.421898</ele>
        <time>2020-08-22T09:57:14.742Z</time>
      </trkpt>
      <trkpt lat="68.37558" lon="14.46006">
        <ele>45.237871</ele>
        <time>2020-08-22T09:57:54.766Z</time>
      </trkpt>
      <trkpt lat="68.37824" lon="14.46178">
        <ele>43.666371</ele>
        <time>2020-08-22T09:58:34.738Z</time>
      </trkpt>
      <trkpt lat="68.38047" lon="14.46237">
        <ele>44.237476</ele>
        <time>2020-08-22T09:59:14.748Z</time>
      </trkpt>
      <trkpt lat="68.3827" lon="14.46177">
        <ele>45.137608</ele>
        <time>2020-08-22T09:59:56.733Z</time>
      </trkpt>
      <trkpt lat="68.38475" lon="14.46129">
        <ele>45.667726</ele>
        <time>2020-08-22T10:00:38.735Z</time>
      </trkpt>
      <trkpt lat="68.38684" lon="14.46274">
        <ele>45.379574</ele>
        <time>2020-08-22T10:01:18.740Z</time>
      </trkpt>
      <trkpt lat="68.38904" lon="14.46429">
        <ele>45.035808</ele>
        <time>2020-08-22T10:01:58.766Z</time>
      </trkpt>
      <trkpt lat="68.39136" lon="14.46591">
        <ele>44.966528</ele>
        <time>2020-08-22T10:02:38.777Z</time>
      </trkpt>
      <trkpt lat="68.39335" lon="14.46742">
        <ele>46.252842</ele>
        <time>2020-08-22T10:03:20.739Z</time>
      </trkpt>
      <trkpt lat="68.39381" lon="14.47338">
        <ele>48.46974</ele>
        <time>2020-08-22T10:04:00.757Z</time>
      </trkpt>
      <trkpt lat="68.39335" lon="14.479">
        <ele>48.286741</ele>
        <time>2020-08-22T10:04:43.720Z</time>
      </trkpt>
      <trkpt lat="68.39432" lon="14.48377">
        <ele>48.275281</ele>
        <time>2020-08-22T10:05:27.731Z</time>
      </trkpt>
      <trkpt lat="68.39597" lon="14.48798">
        <ele>47.605225</ele>
        <time>2020-08-22T10:06:19.739Z</time>
      </trkpt>
      <trkpt lat="68.39704" lon="14.49305">
        <ele>50.28565</ele>
        <time>2020-08-22T10:07:01.757Z</time>
      </trkpt>
      <trkpt lat="68.39882" lon="14.49741">
        <ele>47.928795</ele>
        <time>2020-08-22T10:07:59.762Z</time>
      </trkpt>
      <trkpt lat="68.4006" lon="14.50075">
        <ele>48.72407</ele>
        <time>2020-08-22T10:08:49.766Z</time>
      </trkpt>
      <trkpt lat="68.40203" lon="14.5051">
        <ele>51.899094</ele>
        <time>2020-08-22T10:09:48.729Z</time>
      </trkpt>
      <trkpt lat="68.40267" lon="14.5104">
        <ele>56.399355</ele>
        <time>2020-08-22T10:10:48.741Z</time>
      </trkpt>
      <trkpt lat="68.40302" lon="14.51704">
        <ele>52.617937</ele>
        <time>2020-08-22T10:11:43.748Z</time>
      </trkpt>
      <trkpt lat="68.40171" lon="14.52142">
        <ele>58.54452</ele>
        <time>2020-08-22T10:12:50.754Z</time>
      </trkpt>
      <trkpt lat="68.40053" lon="14.52644">
        <ele>67.141552</ele>
        <time>2020-08-22T10:14:13.773Z</time>
      </trkpt>
      <trkpt lat="68.399" lon="14.52974">
        <ele>55.664486</ele>
        <time>2020-08-22T10:14:33.750Z</time>
      </trkpt>
      <trkpt lat="68.39718" lon="14.53358">
        <ele>42.363831</ele>
        <time>2020-08-22T10:15:10.748Z</time>
      </trkpt>
      <trkpt lat="68.39575" lon="14.53837">
        <ele>43.928083</ele>
        <time>2020-08-22T10:16:06.738Z</time>
      </trkpt>
      <trkpt lat="68.39532" lon="14.54476">
        <ele>45.281494</ele>
        <time>2020-08-22T10:17:02.769Z</time>
      </trkpt>
      <trkpt lat="68.3949" lon="14.55118">
        <ele>43.519942</ele>
        <time>2020-08-22T10:17:57.745Z</time>
      </trkpt>
      <trkpt lat="68.39451" lon="14.55708">
        <ele>44.023299</ele>
        <time>2020-08-22T10:18:49.772Z</time>
      </trkpt>
      <trkpt lat="68.39542" lon="14.5622">
        <ele>43.601654</ele>
        <time>2020-08-22T10:19:40.738Z</time>
      </trkpt>
      <trkpt lat="68.39715" lon="14.56502">
        <ele>42.463373</ele>
        <time>2020-08-22T10:20:24.758Z</time>
      </trkpt>
      <trkpt lat="68.39862" lon="14.56834">
        <ele>42.597303</ele>
        <time>2020-08-22T10:21:05.739Z</time>
      </trkpt>
      <trkpt lat="68.39913" lon="14.57346">
        <ele>44.337782</ele>
        <time>2020-08-22T10:21:46.762Z</time>
      </trkpt>
      <trkpt lat="68.39866" lon="14.57895">
        <ele>48.611713</ele>
        <time>2020-08-22T10:22:50.772Z</time>
      </trkpt>
      <trkpt lat="68.39977" lon="14.58336">
        <ele>51.11455</ele>
        <time>2020-08-22T10:24:06.777Z</time>
      </trkpt>
      <trkpt lat="68.40192" lon="14.58235">
        <ele>49.254809</ele>
        <time>2020-08-22T10:25:04.738Z</time>
      </trkpt>
      <trkpt lat="68.40347" lon="14.57873">
        <ele>49.27218</ele>
        <time>2020-08-22T10:25:44.736Z</time>
      </trkpt>
      <trkpt lat="68.40484" lon="14.57494">
        <ele>49.714071</ele>
        <time>2020-08-22T10:26:26.753Z</time>
      </trkpt>
      <trkpt lat="68.40662" lon="14.57262">
        <ele>50.747886</ele>
        <time>2020-08-22T10:27:06.757Z</time>
      </trkpt>
      <trkpt lat="68.40838" lon="14.56948">
        <ele>49.402433</ele>
        <time>2020-08-22T10:27:46.746Z</time>
      </trkpt>
      <trkpt lat="68.41003" lon="14.56405">
        <ele>46.632218</ele>
        <time>2020-08-22T10:28:28.752Z</time>
      </trkpt>
      <trkpt lat="68.41102" lon="14.55887">
        <ele>48.389666</ele>
        <time>2020-08-22T10:29:22.754Z</time>
      </trkpt>
      <trkpt lat="68.41235" lon="14.55451">
        <ele>47.813238</ele>
        <time>2020-08-22T10:30:09.756Z</time>
      </trkpt>
      <trkpt lat="68.41413" lon="14.55104">
        <ele>49.874635</ele>
        <time>2020-08-22T10:31:07.774Z</time>
      </trkpt>
      <trkpt lat="68.41624" lon="14.55104">
        <ele>51.044883</ele>
        <time>2020-08-22T10:31:57.757Z</time>
      </trkpt>
      <trkpt lat="68.41804" lon="14.55367">
        <ele>50.469727</ele>
        <time>2020-08-22T10:32:41.744Z</time>
      </trkpt>
      <trkpt lat="68.41932" lon="14.558">
        <ele>51.681457</ele>
        <time>2020-08-22T10:33:23.782Z</time>
      </trkpt>
      <trkpt lat="68.41993" lon="14.56313">
        <ele>50.860322</ele>
        <time>2020-08-22T10:34:03.798Z</time>
      </trkpt>
      <trkpt lat="68.42131" lon="14.5675">
        <ele>52.020492</ele>
        <time>2020-08-22T10:34:49.764Z</time>
      </trkpt>
      <trkpt lat="68.42208" lon="14.57249">
        <ele>52.20874</ele>
        <time>2020-08-22T10:35:32.758Z</time>
      </trkpt>
      <trkpt lat="68.42308" lon="14.57736">
        <ele>51.763861</ele>
        <time>2020-08-22T10:36:16.733Z</time>
      </trkpt>
      <trkpt lat="68.42403" lon="14.58184">
        <ele>50.962724</ele>
        <time>2020-08-22T10:36:56.760Z</time>
      </trkpt>
      <trkpt lat="68.4243" lon="14.58728">
        <ele>50.443681</ele>
        <time>2020-08-22T10:37:40.734Z</time>
      </trkpt>
      <trkpt lat="68.4245" lon="14.59328">
        <ele>51.230775</ele>
        <time>2020-08-22T10:38:30.737Z</time>
      </trkpt>
      <trkpt lat="68.42612" lon="14.60065">
        <ele>53.134321</ele>
        <time>2020-08-22T10:45:14.737Z</time>
      </trkpt>
      <trkpt lat="68.42769" lon="14.60586">
        <ele>47.837039</ele>
        <time>2020-08-22T10:45:59.742Z</time>
      </trkpt>
      <trkpt lat="68.42957" lon="14.61061">
        <ele>44.253916</ele>
        <time>2020-08-22T10:46:39.778Z</time>
      </trkpt>
      <trkpt lat="68.43108" lon="14.61419">
        <ele>43.140204</ele>
        <time>2020-08-22T10:47:20.742Z</time>
      </trkpt>
      <trkpt lat="68.43224" lon="14.61929">
        <ele>45.319899</ele>
        <time>2020-08-22T10:48:11.755Z</time>
      </trkpt>
      <trkpt lat="68.43293" lon="14.62528">
        <ele>46.507392</ele>
        <time>2020-08-22T10:49:09.776Z</time>
      </trkpt>
      <trkpt lat="68.43234" lon="14.6316">
        <ele>48.408439</ele>
        <time>2020-08-22T10:50:12.748Z</time>
      </trkpt>
      <trkpt lat="68.43177" lon="14.63752">
        <ele>47.22923</ele>
        <time>2020-08-22T10:51:03.781Z</time>
      </trkpt>
      <trkpt lat="68.43136" lon="14.643">
        <ele>50.707671</ele>
        <time>2020-08-22T10:52:04.740Z</time>
      </trkpt>
      <trkpt lat="68.4311" lon="14.64915">
        <ele>53.245267</ele>
        <time>2020-08-22T10:53:05.790Z</time>
      </trkpt>
      <trkpt lat="68.43049" lon="14.65432">
        <ele>52.990888</ele>
        <time>2020-08-22T10:54:05.757Z</time>
      </trkpt>
      <trkpt lat="68.42957" lon="14.66028">
        <ele>52.369337</ele>
        <time>2020-08-22T10:55:08.766Z</time>
      </trkpt>
      <trkpt lat="68.42853" lon="14.66554">
        <ele>52.408223</ele>
        <time>2020-08-22T10:56:08.756Z</time>
      </trkpt>
      <trkpt lat="68.42665" lon="14.66858">
        <ele>57.21258</ele>
        <time>2020-08-22T10:57:43.744Z</time>
      </trkpt>
      <trkpt lat="68.42458" lon="14.67131">
        <ele>56.236462</ele>
        <time>2020-08-22T10:58:42.751Z</time>
      </trkpt>
      <trkpt lat="68.42239" lon="14.67365">
        <ele>48.894137</ele>
        <time>2020-08-22T10:59:29.762Z</time>
      </trkpt>
      <trkpt lat="68.42016" lon="14.67561">
        <ele>45.535209</ele>
        <time>2020-08-22T11:00:28.747Z</time>
      </trkpt>
      <trkpt lat="68.418" lon="14.67699">
        <ele>42.944531</ele>
        <time>2020-08-22T11:01:23.758Z</time>
      </trkpt>
      <trkpt lat="68.41604" lon="14.67808">
        <ele>43.845876</ele>
        <time>2020-08-22T11:02:22.748Z</time>
      </trkpt>
      <trkpt lat="68.41402" lon="14.67899">
        <ele>47.475711</ele>
        <time>2020-08-22T11:03:44.750Z</time>
      </trkpt>
      <trkpt lat="68.41182" lon="14.67912">
        <ele>46.04339</ele>
        <time>2020-08-22T11:04:48.733Z</time>
      </trkpt>
      <trkpt lat="68.40953" lon="14.67796">
        <ele>42.96074</ele>
        <time>2020-08-22T11:05:44.776Z</time>
      </trkpt>
      <trkpt lat="68.40745" lon="14.67541">
        <ele>42.683467</ele>
        <time>2020-08-22T11:06:44.741Z</time>
      </trkpt>
      <trkpt lat="68.40557" lon="14.67328">
        <ele>48.823832</ele>
        <time>2020-08-22T11:07:58.752Z</time>
      </trkpt>
      <trkpt lat="68.40357" lon="14.67334">
        <ele>54.929539</ele>
        <time>2020-08-22T11:09:14.772Z</time>
      </trkpt>
      <trkpt lat="68.40153" lon="14.67562">
        <ele>58.484561</ele>
        <time>2020-08-22T11:10:07.821Z</time>
      </trkpt>
      <trkpt lat="68.39929" lon="14.67814">
        <ele>52.797935</ele>
        <time>2020-08-22T11:10:47.761Z</time>
      </trkpt>
      <trkpt lat="68.3974" lon="14.68111">
        <ele>48.872891</ele>
        <time>2020-08-22T11:11:42.760Z</time>
      </trkpt>
      <trkpt lat="68.39634" lon="14.68556">
        <ele>52.987881</ele>
        <time>2020-08-22T11:13:16.752Z</time>
      </trkpt>
      <trkpt lat="68.39441" lon="14.68839">
        <ele>53.991077</ele>
        <time>2020-08-22T11:14:00.770Z</time>
      </trkpt>
      <trkpt lat="68.3926" lon="14.6918">
        <ele>50.868974</ele>
        <time>2020-08-22T11:14:58.740Z</time>
      </trkpt>
      <trkpt lat="68.39053" lon="14.69554">
        <ele>41.97922</ele>
        <time>2020-08-22T11:15:38.740Z</time>
      </trkpt>
      <trkpt lat="68.38834" lon="14.69833">
        <ele>40.120148</ele>
        <time>2020-08-22T11:16:36.738Z</time>
      </trkpt>
      <trkpt lat="68.38719" lon="14.7028">
        <ele>45.433231</ele>
        <time>2020-08-22T11:17:45.759Z</time>
      </trkpt>
      <trkpt lat="68.38671" lon="14.70842">
        <ele>42.936904</ele>
        <time>2020-08-22T11:18:59.754Z</time>
      </trkpt>
      <trkpt lat="68.38686" lon="14.71398">
        <ele>41.817521</ele>
        <time>2020-08-22T11:19:37.744Z</time>
      </trkpt>
      <trkpt lat="68.38844" lon="14.7187">
        <ele>44.428925</ele>
        <time>2020-08-22T11:20:34.743Z</time>
      </trkpt>
      <trkpt lat="68.39049" lon="14.72155">
        <ele>44.000039</ele>
        <time>2020-08-22T11:21:27.771Z</time>
      </trkpt>
      <trkpt lat="68.39243" lon="14.71996">
        <ele>45.314991</ele>
        <time>2020-08-22T11:22:07.761Z</time>
      </trkpt>
      <trkpt lat="68.3944" lon="14.71715">
        <ele>42.903302</ele>
        <time>2020-08-22T11:22:47.749Z</time>
      </trkpt>
      <trkpt lat="68.3964" lon="14.71377">
        <ele>39.777877</ele>
        <time>2020-08-22T11:23:27.749Z</time>
      </trkpt>
      <trkpt lat="68.39851" lon="14.71085">
        <ele>44.388917</ele>
        <time>2020-08-22T11:24:18.761Z</time>
      </trkpt>
      <trkpt lat="68.40061" lon="14.70879">
        <ele>50.586542</ele>
        <time>2020-08-22T11:25:36.762Z</time>
      </trkpt>
      <trkpt lat="68.40276" lon="14.70784">
        <ele>49.720915</ele>
        <time>2020-08-22T11:26:22.760Z</time>
      </trkpt>
      <trkpt lat="68.40547" lon="14.70579">
        <ele>44.117688</ele>
        <time>2020-08-22T11:27:02.778Z</time>
      </trkpt>
      <trkpt lat="68.4078" lon="14.70783">
        <ele>38.402673</ele>
        <time>2020-08-22T11:27:42.760Z</time>
      </trkpt>
      <trkpt lat="68.4103" lon="14.70642">
        <ele>39.07589</ele>
        <time>2020-08-22T11:28:22.778Z</time>
      </trkpt>
      <trkpt lat="68.41256" lon="14.70581">
        <ele>41.395049</ele>
        <time>2020-08-22T11:29:04.755Z</time>
      </trkpt>
      <trkpt lat="68.41465" lon="14.70688">
        <ele>42.012112</ele>
        <time>2020-08-22T11:29:51.750Z</time>
      </trkpt>
      <trkpt lat="68.41704" lon="14.70624">
        <ele>42.715161</ele>
        <time>2020-08-22T11:30:34.745Z</time>
      </trkpt>
      <trkpt lat="68.41916" lon="14.70505">
        <ele>45.024962</ele>
        <time>2020-08-22T11:31:14.773Z</time>
      </trkpt>
      <trkpt lat="68.42142" lon="14.70513">
        <ele>47.268735</ele>
        <time>2020-08-22T11:32:12.756Z</time>
      </trkpt>
      <trkpt lat="68.42355" lon="14.70559">
        <ele>50.278456</ele>
        <time>2020-08-22T11:33:19.771Z</time>
      </trkpt>
      <trkpt lat="68.42547" lon="14.70751">
        <ele>56.915088</ele>
        <time>2020-08-22T11:34:36.762Z</time>
      </trkpt>
      <trkpt lat="68.42733" lon="14.70998">
        <ele>64.273964</ele>
        <time>2020-08-22T11:36:04.739Z</time>
      </trkpt>
      <trkpt lat="68.42913" lon="14.71327">
        <ele>67.234042</ele>
        <time>2020-08-22T11:37:17.741Z</time>
      </trkpt>
      <trkpt lat="68.43096" lon="14.71671">
        <ele>63.315084</ele>
        <time>2020-08-22T11:38:12.772Z</time>
      </trkpt>
      <trkpt lat="68.43266" lon="14.72145">
        <ele>55.56795</ele>
        <time>2020-08-22T11:38:42.763Z</time>
      </trkpt>
      <trkpt lat="68.43404" lon="14.72642">
        <ele>45.769221</ele>
        <time>2020-08-22T11:39:06.750Z</time>
      </trkpt>
      <trkpt lat="68.4351" lon="14.73217">
        <ele>40.646942</ele>
        <time>2020-08-22T11:39:40.786Z</time>
      </trkpt>
      <trkpt lat="68.43504" lon="14.73768">
        <ele>41.108892</ele>
        <time>2020-08-22T11:40:21.752Z</time>
      </trkpt>
      <trkpt lat="68.43471" lon="14.74359">
        <ele>44.414698</ele>
        <time>2020-08-22T11:41:14.745Z</time>
      </trkpt>
      <trkpt lat="68.43426" lon="14.74991">
        <ele>49.143173</ele>
        <time>2020-08-22T11:42:17.761Z</time>
      </trkpt>
      <trkpt lat="68.43401" lon="14.7558">
        <ele>48.116927</ele>
        <time>2020-08-22T11:43:13.746Z</time>
      </trkpt>
      <trkpt lat="68.43369" lon="14.76167">
        <ele>45.164705</ele>
        <time>2020-08-22T11:44:04.747Z</time>
      </trkpt>
      <trkpt lat="68.4336" lon="14.76798">
        <ele>39.368771</ele>
        <time>2020-08-22T11:44:50.749Z</time>
      </trkpt>
      <trkpt lat="68.43308" lon="14.77427">
        <ele>43.719442</ele>
        <time>2020-08-22T11:45:40.769Z</time>
      </trkpt>
      <trkpt lat="68.43322" lon="14.77994">
        <ele>57.189797</ele>
        <time>2020-08-22T11:47:21.794Z</time>
      </trkpt>
      <trkpt lat="68.43272" lon="14.78636">
        <ele>54.797568</ele>
        <time>2020-08-22T11:48:26.768Z</time>
      </trkpt>
      <trkpt lat="68.43228" lon="14.79369">
        <ele>41.624932</ele>
        <time>2020-08-22T11:49:14.755Z</time>
      </trkpt>
      <trkpt lat="68.43219" lon="14.79998">
        <ele>40.090339</ele>
        <time>2020-08-22T11:50:03.756Z</time>
      </trkpt>
      <trkpt lat="68.43201" lon="14.8056">
        <ele>46.689317</ele>
        <time>2020-08-22T11:51:07.754Z</time>
      </trkpt>
      <trkpt lat="68.43156" lon="14.81145">
        <ele>56.073363</ele>
        <time>2020-08-22T11:52:33.751Z</time>
      </trkpt>
      <trkpt lat="68.43113" lon="14.81716">
        <ele>57.400337</ele>
        <time>2020-08-22T11:53:25.752Z</time>
      </trkpt>
      <trkpt lat="68.42956" lon="14.81971">
        <ele>55.101901</ele>
        <time>2020-08-22T11:54:33.797Z</time>
      </trkpt>
      <trkpt lat="68.43043" lon="14.82254">
        <ele>38.328313</ele>
        <time>2020-08-22T11:55:17.771Z</time>
      </trkpt>
      <trkpt lat="68.43142" lon="14.82697">
        <ele>27.531365</ele>
        <time>2020-08-22T12:41:39.756Z</time>
      </trkpt>
      <trkpt lat="68.43312" lon="14.83108">
        <ele>43.226574</ele>
        <time>2020-08-22T12:42:45.754Z</time>
      </trkpt>
      <trkpt lat="68.43475" lon="14.83423">
        <ele>53.813628</ele>
        <time>2020-08-22T12:43:26.789Z</time>
      </trkpt>
      <trkpt lat="68.43659" lon="14.83744">
        <ele>56.413788</ele>
        <time>2020-08-22T12:44:09.751Z</time>
      </trkpt>
      <trkpt lat="68.43832" lon="14.841">
        <ele>51.536559</ele>
        <time>2020-08-22T12:44:50.773Z</time>
      </trkpt>
      <trkpt lat="68.44027" lon="14.84208">
        <ele>43.330382</ele>
        <time>2020-08-22T12:45:30.773Z</time>
      </trkpt>
      <trkpt lat="68.4425" lon="14.84304">
        <ele>36.179491</ele>
        <time>2020-08-22T12:46:12.788Z</time>
      </trkpt>
      <trkpt lat="68.44466" lon="14.84314">
        <ele>25.781585</ele>
        <time>2020-08-22T12:46:54.854Z</time>
      </trkpt>
      <trkpt lat="68.44687" lon="14.84316">
        <ele>17.506984</ele>
        <time>2020-08-22T12:47:35.772Z</time>
      </trkpt>
      <trkpt lat="68.44901" lon="14.84315">
        <ele>20.627625</ele>
        <time>2020-08-22T12:48:16.816Z</time>
      </trkpt>
      <trkpt lat="68.45104" lon="14.841">
        <ele>28.055783</ele>
        <time>2020-08-22T12:48:57.801Z</time>
      </trkpt>
      <trkpt lat="68.45297" lon="14.83852">
        <ele>27.062518</ele>
        <time>2020-08-22T12:49:40.806Z</time>
      </trkpt>
      <trkpt lat="68.45495" lon="14.83586">
        <ele>25.856544</ele>
        <time>2020-08-22T12:50:21.772Z</time>
      </trkpt>
      <trkpt lat="68.45706" lon="14.83409">
        <ele>25.988037</ele>
        <time>2020-08-22T12:51:02.856Z</time>
      </trkpt>
      <trkpt lat="68.45915" lon="14.83282">
        <ele>35.459025</ele>
        <time>2020-08-22T12:51:42.821Z</time>
      </trkpt>
      <trkpt lat="68.46124" lon="14.83145">
        <ele>42.289211</ele>
        <time>2020-08-22T12:52:22.772Z</time>
      </trkpt>
      <trkpt lat="68.46339" lon="14.83011">
        <ele>43.294068</ele>
        <time>2020-08-22T12:53:05.775Z</time>
      </trkpt>
      <trkpt lat="68.46553" lon="14.82864">
        <ele>31.851555</ele>
        <time>2020-08-22T12:53:45.814Z</time>
      </trkpt>
      <trkpt lat="68.46762" lon="14.82746">
        <ele>29.016772</ele>
        <time>2020-08-22T12:54:26.788Z</time>
      </trkpt>
      <trkpt lat="68.46965" lon="14.82587">
        <ele>33.587282</ele>
        <time>2020-08-22T12:55:06.765Z</time>
      </trkpt>
      <trkpt lat="68.47184" lon="14.82472">
        <ele>28.626143</ele>
        <time>2020-08-22T12:55:50.766Z</time>
      </trkpt>
      <trkpt lat="68.47389" lon="14.82316">
        <ele>17.04575</ele>
        <time>2020-08-22T12:56:33.789Z</time>
      </trkpt>
      <trkpt lat="68.4759" lon="14.82174">
        <ele>15.341186</ele>
        <time>2020-08-22T12:57:13.793Z</time>
      </trkpt>
      <trkpt lat="68.47799" lon="14.82035">
        <ele>24.08863</ele>
        <time>2020-08-22T12:57:53.780Z</time>
      </trkpt>
      <trkpt lat="68.48015" lon="14.81884">
        <ele>25.188083</ele>
        <time>2020-08-22T12:58:34.815Z</time>
      </trkpt>
      <trkpt lat="68.48217" lon="14.81766">
        <ele>18.523271</ele>
        <time>2020-08-22T12:59:16.779Z</time>
      </trkpt>
      <trkpt lat="68.48421" lon="14.81615">
        <ele>26.034791</ele>
        <time>2020-08-22T12:59:56.765Z</time>
      </trkpt>
      <trkpt lat="68.48638" lon="14.81472">
        <ele>29.715198</ele>
        <time>2020-08-22T13:00:39.782Z</time>
      </trkpt>
      <trkpt lat="68.4884" lon="14.81348">
        <ele>28.870121</ele>
        <time>2020-08-22T13:01:19.760Z</time>
      </trkpt>
      <trkpt lat="68.49045" lon="14.81261">
        <ele>35.784089</ele>
        <time>2020-08-22T13:01:59.807Z</time>
      </trkpt>
      <trkpt lat="68.49257" lon="14.81194">
        <ele>33.637897</ele>
        <time>2020-08-22T13:02:39.777Z</time>
      </trkpt>
      <trkpt lat="68.49462" lon="14.81053">
        <ele>24.580013</ele>
        <time>2020-08-22T13:03:21.783Z</time>
      </trkpt>
      <trkpt lat="68.4967" lon="14.80821">
        <ele>26.148744</ele>
        <time>2020-08-22T13:04:18.791Z</time>
      </trkpt>
      <trkpt lat="68.49822" lon="14.80463">
        <ele>23.238157</ele>
        <time>2020-08-22T13:05:48.741Z</time>
      </trkpt>
      <trkpt lat="68.49877" lon="14.79845">
        <ele>35.828888</ele>
        <time>2020-08-22T13:09:04.745Z</time>
      </trkpt>
      <trkpt lat="68.49974" lon="14.79876">
        <ele>43.272468</ele>
        <time>2020-08-22T13:43:46.769Z</time>
      </trkpt>
      <trkpt lat="68.50129" lon="14.80254">
        <ele>42.957525</ele>
        <time>2020-08-22T13:44:42.776Z</time>
      </trkpt>
      <trkpt lat="68.50182" lon="14.80854">
        <ele>42.304648</ele>
        <time>2020-08-22T13:45:30.762Z</time>
      </trkpt>
      <trkpt lat="68.50159" lon="14.81417">
        <ele>40.793297</ele>
        <time>2020-08-22T13:46:10.798Z</time>
      </trkpt>
      <trkpt lat="68.50184" lon="14.82016">
        <ele>43.138215</ele>
        <time>2020-08-22T13:46:56.798Z</time>
      </trkpt>
      <trkpt lat="68.50209" lon="14.82595">
        <ele>42.59856</ele>
        <time>2020-08-22T13:47:43.797Z</time>
      </trkpt>
      <trkpt lat="68.50257" lon="14.83136">
        <ele>42.496154</ele>
        <time>2020-08-22T13:48:27.766Z</time>
      </trkpt>
      <trkpt lat="68.50281" lon="14.8378">
        <ele>43.156343</ele>
        <time>2020-08-22T13:49:25.766Z</time>
      </trkpt>
      <trkpt lat="68.50299" lon="14.84423">
        <ele>44.648916</ele>
        <time>2020-08-22T13:50:25.781Z</time>
      </trkpt>
      <trkpt lat="68.5028" lon="14.84984">
        <ele>46.935317</ele>
        <time>2020-08-22T13:51:25.765Z</time>
      </trkpt>
      <trkpt lat="68.50254" lon="14.85537">
        <ele>50.493967</ele>
        <time>2020-08-22T13:52:25.766Z</time>
      </trkpt>
      <trkpt lat="68.50274" lon="14.86159">
        <ele>52.284165</ele>
        <time>2020-08-22T13:53:26.761Z</time>
      </trkpt>
      <trkpt lat="68.50298" lon="14.86797">
        <ele>52.197548</ele>
        <time>2020-08-22T13:54:20.763Z</time>
      </trkpt>
      <trkpt lat="68.50305" lon="14.87363">
        <ele>54.550917</ele>
        <time>2020-08-22T13:55:08.766Z</time>
      </trkpt>
      <trkpt lat="68.50284" lon="14.87932">
        <ele>61.521858</ele>
        <time>2020-08-22T13:56:09.843Z</time>
      </trkpt>
      <trkpt lat="68.50323" lon="14.88541">
        <ele>57.595024</ele>
        <time>2020-08-22T13:57:01.801Z</time>
      </trkpt>
      <trkpt lat="68.50416" lon="14.89134">
        <ele>52.479818</ele>
        <time>2020-08-22T13:57:41.785Z</time>
      </trkpt>
      <trkpt lat="68.50473" lon="14.89714">
        <ele>59.656308</ele>
        <time>2020-08-22T13:58:52.786Z</time>
      </trkpt>
      <trkpt lat="68.50554" lon="14.90231">
        <ele>66.010936</ele>
        <time>2020-08-22T14:00:00.779Z</time>
      </trkpt>
      <trkpt lat="68.5067" lon="14.90674">
        <ele>67.090502</ele>
        <time>2020-08-22T14:00:40.768Z</time>
      </trkpt>
      <trkpt lat="68.50763" lon="14.91202">
        <ele>62.974863</ele>
        <time>2020-08-22T14:01:20.764Z</time>
      </trkpt>
      <trkpt lat="68.50916" lon="14.91826">
        <ele>50.76433</ele>
        <time>2020-08-22T14:01:54.769Z</time>
      </trkpt>
      <trkpt lat="68.51063" lon="14.9237">
        <ele>47.432401</ele>
        <time>2020-08-22T14:02:31.763Z</time>
      </trkpt>
      <trkpt lat="68.51244" lon="14.92734">
        <ele>45.330955</ele>
        <time>2020-08-22T14:03:11.786Z</time>
      </trkpt>
      <trkpt lat="68.5142" lon="14.93056">
        <ele>41.073303</ele>
        <time>2020-08-22T14:03:32.782Z</time>
      </trkpt>
      <trkpt lat="68.51643" lon="14.93467">
        <ele>41.108552</ele>
        <time>2020-08-22T14:04:11.764Z</time>
      </trkpt>
      <trkpt lat="68.51806" lon="14.93869">
        <ele>41.462831</ele>
        <time>2020-08-22T14:04:51.767Z</time>
      </trkpt>
      <trkpt lat="68.51972" lon="14.94262">
        <ele>40.894889</ele>
        <time>2020-08-22T14:05:33.760Z</time>
      </trkpt>
      <trkpt lat="68.52127" lon="14.94661">
        <ele>39.588466</ele>
        <time>2020-08-22T14:06:13.776Z</time>
      </trkpt>
      <trkpt lat="68.52287" lon="14.95047">
        <ele>37.476303</ele>
        <time>2020-08-22T14:06:53.789Z</time>
      </trkpt>
      <trkpt lat="68.52382" lon="14.95595">
        <ele>39.746625</ele>
        <time>2020-08-22T14:07:40.767Z</time>
      </trkpt>
      <trkpt lat="68.52539" lon="14.96037">
        <ele>41.931907</ele>
        <time>2020-08-22T14:08:32.826Z</time>
      </trkpt>
      <trkpt lat="68.5274" lon="14.96453">
        <ele>36.400992</ele>
        <time>2020-08-22T14:09:14.776Z</time>
      </trkpt>
      <trkpt lat="68.5281" lon="14.97012">
        <ele>38.244803</ele>
        <time>2020-08-22T14:09:54.783Z</time>
      </trkpt>
      <trkpt lat="68.52951" lon="14.97429">
        <ele>39.437802</ele>
        <time>2020-08-22T14:10:34.781Z</time>
      </trkpt>
      <trkpt lat="68.53122" lon="14.97809">
        <ele>40.023018</ele>
        <time>2020-08-22T14:11:23.772Z</time>
      </trkpt>
      <trkpt lat="68.53262" lon="14.98188">
        <ele>39.162208</ele>
        <time>2020-08-22T14:12:06.788Z</time>
      </trkpt>
      <trkpt lat="68.5343" lon="14.98623">
        <ele>43.349211</ele>
        <time>2020-08-22T14:13:02.795Z</time>
      </trkpt>
      <trkpt lat="68.53619" lon="14.99014">
        <ele>46.346914</ele>
        <time>2020-08-22T14:14:02.761Z</time>
      </trkpt>
      <trkpt lat="68.53779" lon="14.99452">
        <ele>45.0049</ele>
        <time>2020-08-22T14:14:52.765Z</time>
      </trkpt>
      <trkpt lat="68.53966" lon="14.99681">
        <ele>45.498052</ele>
        <time>2020-08-22T14:15:40.799Z</time>
      </trkpt>
      <trkpt lat="68.54169" lon="14.99496">
        <ele>48.934799</ele>
        <time>2020-08-22T14:16:40.776Z</time>
      </trkpt>
      <trkpt lat="68.54362" lon="14.99276">
        <ele>53.394523</ele>
        <time>2020-08-22T14:17:43.786Z</time>
      </trkpt>
      <trkpt lat="68.54556" lon="14.99138">
        <ele>55.291176</ele>
        <time>2020-08-22T14:18:43.817Z</time>
      </trkpt>
      <trkpt lat="68.54775" lon="14.9913">
        <ele>56.159618</ele>
        <time>2020-08-22T14:22:48.782Z</time>
      </trkpt>
      <trkpt lat="68.5499" lon="14.99114">
        <ele>54.928034</ele>
        <time>2020-08-22T14:23:28.780Z</time>
      </trkpt>
      <trkpt lat="68.55182" lon="14.98868">
        <ele>52.915142</ele>
        <time>2020-08-22T14:24:08.786Z</time>
      </trkpt>
      <trkpt lat="68.55341" lon="14.98237">
        <ele>49.412646</ele>
        <time>2020-08-22T14:24:50.770Z</time>
      </trkpt>
      <trkpt lat="68.55466" lon="14.97593">
        <ele>45.792903</ele>
        <time>2020-08-22T14:25:30.772Z</time>
      </trkpt>
      <trkpt lat="68.55638" lon="14.97055">
        <ele>40.441541</ele>
        <time>2020-08-22T14:26:10.817Z</time>
      </trkpt>
      <trkpt lat="68.55711" lon="14.96348">
        <ele>37.855489</ele>
        <time>2020-08-22T14:26:50.787Z</time>
      </trkpt>
      <trkpt lat="68.55805" lon="14.95722">
        <ele>39.656224</ele>
        <time>2020-08-22T14:27:30.760Z</time>
      </trkpt>
      <trkpt lat="68.55886" lon="14.95107">
        <ele>40.354102</ele>
        <time>2020-08-22T14:28:22.823Z</time>
      </trkpt>
      <trkpt lat="68.55887" lon="14.94455">
        <ele>37.003831</ele>
        <time>2020-08-22T14:29:02.776Z</time>
      </trkpt>
      <trkpt lat="68.55888" lon="14.93821">
        <ele>37.379606</ele>
        <time>2020-08-22T14:29:46.769Z</time>
      </trkpt>
      <trkpt lat="68.55868" lon="14.93272">
        <ele>38.074354</ele>
        <time>2020-08-22T14:30:28.788Z</time>
      </trkpt>
      <trkpt lat="68.55845" lon="14.92732">
        <ele>38.036906</ele>
        <time>2020-08-22T14:31:08.780Z</time>
      </trkpt>
      <trkpt lat="68.55852" lon="14.92178">
        <ele>46.670207</ele>
        <time>2020-08-22T14:32:16.804Z</time>
      </trkpt>
      <trkpt lat="68.55708" lon="14.92135">
        <ele>57.563939</ele>
        <time>2020-08-22T14:33:56.782Z</time>
      </trkpt>
      <trkpt lat="68.55601" lon="14.92064">
        <ele>61.875805</ele>
        <time>2020-08-22T14:38:55.789Z</time>
      </trkpt>
      <trkpt lat="68.55739" lon="14.91927">
        <ele>56.319399</ele>
        <time>2020-08-22T14:39:39.788Z</time>
      </trkpt>
      <trkpt lat="68.55746" lon="14.91463">
        <ele>58.752171</ele>
        <time>2020-08-22T14:40:38.774Z</time>
      </trkpt>
      <trkpt lat="68.55564" lon="14.91287">
        <ele>66.132011</ele>
        <time>2020-08-22T14:42:06.787Z</time>
      </trkpt>
      <trkpt lat="68.55434" lon="14.91697">
        <ele>70.52802</ele>
        <time>2020-08-22T14:43:14.818Z</time>
      </trkpt>
      <trkpt lat="68.55349" lon="14.9223">
        <ele>69.964707</ele>
        <time>2020-08-22T14:44:01.779Z</time>
      </trkpt>
    </trkseg>
  </trk>
  <trk>
    <name><![CDATA[Tour d'Europe: étape 056]]></name>
    <trkseg>
      <trkpt lat="68.55342" lon="14.9228">
        <ele>61.895135</ele>
        <time>2020-08-23T07:47:42.612Z</time>
      </trkpt>
      <trkpt lat="68.55418" lon="14.91756">
        <ele>66.467885</ele>
        <time>2020-08-23T07:49:02.629Z</time>
      </trkpt>
      <trkpt lat="68.55559" lon="14.91328">
        <ele>65.189332</ele>
        <time>2020-08-23T07:49:56.654Z</time>
      </trkpt>
      <trkpt lat="68.55755" lon="14.91169">
        <ele>59.066128</ele>
        <time>2020-08-23T07:50:36.622Z</time>
      </trkpt>
      <trkpt lat="68.56017" lon="14.91377">
        <ele>48.214044</ele>
        <time>2020-08-23T07:51:19.634Z</time>
      </trkpt>
      <trkpt lat="68.56174" lon="14.91027">
        <ele>40.838585</ele>
        <time>2020-08-23T07:52:01.618Z</time>
      </trkpt>
      <trkpt lat="68.5637" lon="14.91129">
        <ele>41.42132</ele>
        <time>2020-08-23T07:52:41.604Z</time>
      </trkpt>
      <trkpt lat="68.56538" lon="14.91411">
        <ele>42.861356</ele>
        <time>2020-08-23T07:53:22.624Z</time>
      </trkpt>
      <trkpt lat="68.56686" lon="14.91792">
        <ele>55.531871</ele>
        <time>2020-08-23T07:54:44.619Z</time>
      </trkpt>
      <trkpt lat="68.56851" lon="14.92178">
        <ele>51.893573</ele>
        <time>2020-08-23T07:56:09.636Z</time>
      </trkpt>
      <trkpt lat="68.57018" lon="14.92492">
        <ele>46.662294</ele>
        <time>2020-08-23T07:56:50.604Z</time>
      </trkpt>
      <trkpt lat="68.57181" lon="14.92929">
        <ele>48.893501</ele>
        <time>2020-08-23T07:57:44.621Z</time>
      </trkpt>
      <trkpt lat="68.57204" lon="14.93486">
        <ele>52.193506</ele>
        <time>2020-08-23T07:58:44.607Z</time>
      </trkpt>
      <trkpt lat="68.57155" lon="14.94071">
        <ele>52.877452</ele>
        <time>2020-08-23T07:59:44.624Z</time>
      </trkpt>
      <trkpt lat="68.57081" lon="14.9459">
        <ele>53.174059</ele>
        <time>2020-08-23T08:00:28.618Z</time>
      </trkpt>
      <trkpt lat="68.57038" lon="14.95101">
        <ele>49.448153</ele>
        <time>2020-08-23T08:01:16.607Z</time>
      </trkpt>
      <trkpt lat="68.56995" lon="14.95499">
        <ele>46.321331</ele>
        <time>2020-08-23T08:02:58.634Z</time>
      </trkpt>
      <trkpt lat="68.56926" lon="14.96158">
        <ele>37.911905</ele>
        <time>2020-08-23T08:03:48.629Z</time>
      </trkpt>
      <trkpt lat="68.56906" lon="14.96828">
        <ele>32.173978</ele>
        <time>2020-08-23T08:04:19.661Z</time>
      </trkpt>
      <trkpt lat="68.56929" lon="14.97441">
        <ele>34.826525</ele>
        <time>2020-08-23T08:04:59.653Z</time>
      </trkpt>
      <trkpt lat="68.56952" lon="14.98037">
        <ele>37.464562</ele>
        <time>2020-08-23T08:05:39.609Z</time>
      </trkpt>
      <trkpt lat="68.56974" lon="14.98623">
        <ele>41.288416</ele>
        <time>2020-08-23T08:06:24.623Z</time>
      </trkpt>
      <trkpt lat="68.57051" lon="14.99114">
        <ele>56.543182</ele>
        <time>2020-08-23T08:08:15.619Z</time>
      </trkpt>
      <trkpt lat="68.57208" lon="14.99439">
        <ele>72.835088</ele>
        <time>2020-08-23T08:10:16.649Z</time>
      </trkpt>
      <trkpt lat="68.57421" lon="14.99701">
        <ele>66.763598</ele>
        <time>2020-08-23T08:11:15.645Z</time>
      </trkpt>
      <trkpt lat="68.57637" lon="14.99866">
        <ele>51.445288</ele>
        <time>2020-08-23T08:11:35.607Z</time>
      </trkpt>
      <trkpt lat="68.57895" lon="15.00054">
        <ele>41.001089</ele>
        <time>2020-08-23T08:12:10.643Z</time>
      </trkpt>
      <trkpt lat="68.58107" lon="15.00207">
        <ele>45.048647</ele>
        <time>2020-08-23T08:12:50.645Z</time>
      </trkpt>
      <trkpt lat="68.58295" lon="15.00425">
        <ele>45.408228</ele>
        <time>2020-08-23T08:13:30.611Z</time>
      </trkpt>
      <trkpt lat="68.58391" lon="15.00914">
        <ele>44.992606</ele>
        <time>2020-08-23T08:14:17.626Z</time>
      </trkpt>
      <trkpt lat="68.58347" lon="15.01475">
        <ele>47.349664</ele>
        <time>2020-08-23T08:15:28.644Z</time>
      </trkpt>
      <trkpt lat="68.58288" lon="15.02016">
        <ele>51.021775</ele>
        <time>2020-08-23T08:16:28.640Z</time>
      </trkpt>
      <trkpt lat="68.58258" lon="15.02593">
        <ele>53.288587</ele>
        <time>2020-08-23T08:17:28.626Z</time>
      </trkpt>
      <trkpt lat="68.5827" lon="15.03273">
        <ele>52.269899</ele>
        <time>2020-08-23T08:18:28.608Z</time>
      </trkpt>
      <trkpt lat="68.58304" lon="15.03823">
        <ele>53.076231</ele>
        <time>2020-08-23T08:19:08.609Z</time>
      </trkpt>
      <trkpt lat="68.58348" lon="15.04388">
        <ele>52.384381</ele>
        <time>2020-08-23T08:19:48.609Z</time>
      </trkpt>
      <trkpt lat="68.58441" lon="15.04905">
        <ele>52.23936</ele>
        <time>2020-08-23T08:20:28.610Z</time>
      </trkpt>
      <trkpt lat="68.58584" lon="15.05338">
        <ele>49.831069</ele>
        <time>2020-08-23T08:21:08.624Z</time>
      </trkpt>
      <trkpt lat="68.58794" lon="15.05753">
        <ele>44.335901</ele>
        <time>2020-08-23T08:21:48.633Z</time>
      </trkpt>
      <trkpt lat="68.58974" lon="15.06096">
        <ele>42.469277</ele>
        <time>2020-08-23T08:22:28.609Z</time>
      </trkpt>
      <trkpt lat="68.59133" lon="15.06395">
        <ele>43.693652</ele>
        <time>2020-08-23T08:23:08.626Z</time>
      </trkpt>
      <trkpt lat="68.593" lon="15.06715">
        <ele>43.713705</ele>
        <time>2020-08-23T08:23:50.622Z</time>
      </trkpt>
      <trkpt lat="68.59462" lon="15.07019">
        <ele>45.40527</ele>
        <time>2020-08-23T08:24:30.625Z</time>
      </trkpt>
      <trkpt lat="68.59646" lon="15.07369">
        <ele>46.404903</ele>
        <time>2020-08-23T08:25:20.624Z</time>
      </trkpt>
      <trkpt lat="68.59795" lon="15.07808">
        <ele>46.591035</ele>
        <time>2020-08-23T08:26:09.632Z</time>
      </trkpt>
      <trkpt lat="68.59915" lon="15.08272">
        <ele>46.644916</ele>
        <time>2020-08-23T08:26:54.629Z</time>
      </trkpt>
      <trkpt lat="68.60044" lon="15.087">
        <ele>44.089629</ele>
        <time>2020-08-23T08:27:34.605Z</time>
      </trkpt>
      <trkpt lat="68.60211" lon="15.09106">
        <ele>44.375705</ele>
        <time>2020-08-23T08:28:16.634Z</time>
      </trkpt>
      <trkpt lat="68.6036" lon="15.09661">
        <ele>46.654016</ele>
        <time>2020-08-23T08:29:15.612Z</time>
      </trkpt>
      <trkpt lat="68.60515" lon="15.10159">
        <ele>46.066394</ele>
        <time>2020-08-23T08:30:01.626Z</time>
      </trkpt>
      <trkpt lat="68.60662" lon="15.10601">
        <ele>46.469018</ele>
        <time>2020-08-23T08:30:45.669Z</time>
      </trkpt>
      <trkpt lat="68.60826" lon="15.11089">
        <ele>48.706126</ele>
        <time>2020-08-23T08:31:44.628Z</time>
      </trkpt>
      <trkpt lat="68.6097" lon="15.11522">
        <ele>47.942858</ele>
        <time>2020-08-23T08:32:32.646Z</time>
      </trkpt>
      <trkpt lat="68.61105" lon="15.11922">
        <ele>46.871756</ele>
        <time>2020-08-23T08:33:15.631Z</time>
      </trkpt>
      <trkpt lat="68.61248" lon="15.12315">
        <ele>46.218666</ele>
        <time>2020-08-23T08:33:55.647Z</time>
      </trkpt>
      <trkpt lat="68.61397" lon="15.12769">
        <ele>45.755019</ele>
        <time>2020-08-23T08:34:40.650Z</time>
      </trkpt>
      <trkpt lat="68.61516" lon="15.13324">
        <ele>45.955378</ele>
        <time>2020-08-23T08:35:35.625Z</time>
      </trkpt>
      <trkpt lat="68.61569" lon="15.13848">
        <ele>44.79668</ele>
        <time>2020-08-23T08:36:18.635Z</time>
      </trkpt>
      <trkpt lat="68.61574" lon="15.14495">
        <ele>47.282628</ele>
        <time>2020-08-23T08:37:18.627Z</time>
      </trkpt>
      <trkpt lat="68.61572" lon="15.15064">
        <ele>53.852544</ele>
        <time>2020-08-23T08:38:34.631Z</time>
      </trkpt>
      <trkpt lat="68.61562" lon="15.15615">
        <ele>59.601968</ele>
        <time>2020-08-23T08:39:44.611Z</time>
      </trkpt>
      <trkpt lat="68.61616" lon="15.16159">
        <ele>63.835594</ele>
        <time>2020-08-23T08:40:55.643Z</time>
      </trkpt>
      <trkpt lat="68.61746" lon="15.16633">
        <ele>66.143162</ele>
        <time>2020-08-23T08:41:55.627Z</time>
      </trkpt>
      <trkpt lat="68.61928" lon="15.17075">
        <ele>63.963185</ele>
        <time>2020-08-23T08:42:40.610Z</time>
      </trkpt>
      <trkpt lat="68.62106" lon="15.17583">
        <ele>55.48674</ele>
        <time>2020-08-23T08:43:20.611Z</time>
      </trkpt>
      <trkpt lat="68.62256" lon="15.18015">
        <ele>56.438165</ele>
        <time>2020-08-23T08:44:00.624Z</time>
      </trkpt>
      <trkpt lat="68.62399" lon="15.18428">
        <ele>55.824413</ele>
        <time>2020-08-23T08:44:40.628Z</time>
      </trkpt>
      <trkpt lat="68.62572" lon="15.18774">
        <ele>55.141979</ele>
        <time>2020-08-23T08:45:20.611Z</time>
      </trkpt>
      <trkpt lat="68.62718" lon="15.19144">
        <ele>55.508216</ele>
        <time>2020-08-23T08:46:00.637Z</time>
      </trkpt>
      <trkpt lat="68.62863" lon="15.19529">
        <ele>55.546959</ele>
        <time>2020-08-23T08:46:40.618Z</time>
      </trkpt>
      <trkpt lat="68.62996" lon="15.19973">
        <ele>55.532026</ele>
        <time>2020-08-23T08:47:22.656Z</time>
      </trkpt>
      <trkpt lat="68.63095" lon="15.20444">
        <ele>54.968256</ele>
        <time>2020-08-23T08:48:02.640Z</time>
      </trkpt>
      <trkpt lat="68.63238" lon="15.20854">
        <ele>54.218196</ele>
        <time>2020-08-23T08:48:42.653Z</time>
      </trkpt>
      <trkpt lat="68.63335" lon="15.21339">
        <ele>52.34234</ele>
        <time>2020-08-23T08:49:23.630Z</time>
      </trkpt>
      <trkpt lat="68.63355" lon="15.21898">
        <ele>52.193366</ele>
        <time>2020-08-23T08:50:04.624Z</time>
      </trkpt>
      <trkpt lat="68.63394" lon="15.22439">
        <ele>53.625192</ele>
        <time>2020-08-23T08:50:44.644Z</time>
      </trkpt>
      <trkpt lat="68.63431" lon="15.23041">
        <ele>52.631414</ele>
        <time>2020-08-23T08:51:26.619Z</time>
      </trkpt>
      <trkpt lat="68.63402" lon="15.23597">
        <ele>52.5821</ele>
        <time>2020-08-23T08:52:06.641Z</time>
      </trkpt>
      <trkpt lat="68.63493" lon="15.2415">
        <ele>54.572295</ele>
        <time>2020-08-23T08:52:51.679Z</time>
      </trkpt>
      <trkpt lat="68.63567" lon="15.24637">
        <ele>54.819312</ele>
        <time>2020-08-23T08:53:31.628Z</time>
      </trkpt>
      <trkpt lat="68.63708" lon="15.25093">
        <ele>53.63964</ele>
        <time>2020-08-23T08:54:16.633Z</time>
      </trkpt>
      <trkpt lat="68.63868" lon="15.25474">
        <ele>56.515728</ele>
        <time>2020-08-23T08:55:01.652Z</time>
      </trkpt>
      <trkpt lat="68.63999" lon="15.25881">
        <ele>55.758768</ele>
        <time>2020-08-23T08:55:41.617Z</time>
      </trkpt>
      <trkpt lat="68.64131" lon="15.26323">
        <ele>54.051918</ele>
        <time>2020-08-23T08:56:21.643Z</time>
      </trkpt>
      <trkpt lat="68.64236" lon="15.26829">
        <ele>52.198369</ele>
        <time>2020-08-23T08:57:01.622Z</time>
      </trkpt>
      <trkpt lat="68.64398" lon="15.27487">
        <ele>45.950078</ele>
        <time>2020-08-23T08:57:43.628Z</time>
      </trkpt>
      <trkpt lat="68.64544" lon="15.28006">
        <ele>45.007827</ele>
        <time>2020-08-23T08:58:23.623Z</time>
      </trkpt>
      <trkpt lat="68.64612" lon="15.28535">
        <ele>46.030215</ele>
        <time>2020-08-23T08:59:06.627Z</time>
      </trkpt>
      <trkpt lat="68.64704" lon="15.29064">
        <ele>47.18144</ele>
        <time>2020-08-23T09:00:03.629Z</time>
      </trkpt>
      <trkpt lat="68.64825" lon="15.29537">
        <ele>46.821661</ele>
        <time>2020-08-23T09:00:43.654Z</time>
      </trkpt>
      <trkpt lat="68.64931" lon="15.30046">
        <ele>44.959519</ele>
        <time>2020-08-23T09:01:23.617Z</time>
      </trkpt>
      <trkpt lat="68.65009" lon="15.30568">
        <ele>43.188247</ele>
        <time>2020-08-23T09:02:03.653Z</time>
      </trkpt>
      <trkpt lat="68.65094" lon="15.31076">
        <ele>43.590191</ele>
        <time>2020-08-23T09:02:45.652Z</time>
      </trkpt>
      <trkpt lat="68.65142" lon="15.31606">
        <ele>43.118782</ele>
        <time>2020-08-23T09:03:25.643Z</time>
      </trkpt>
      <trkpt lat="68.65208" lon="15.3214">
        <ele>43.967972</ele>
        <time>2020-08-23T09:04:05.620Z</time>
      </trkpt>
      <trkpt lat="68.6532" lon="15.32605">
        <ele>42.71566</ele>
        <time>2020-08-23T09:04:45.630Z</time>
      </trkpt>
      <trkpt lat="68.65465" lon="15.3305">
        <ele>43.137299</ele>
        <time>2020-08-23T09:05:43.620Z</time>
      </trkpt>
      <trkpt lat="68.65589" lon="15.33497">
        <ele>46.186588</ele>
        <time>2020-08-23T09:06:47.641Z</time>
      </trkpt>
      <trkpt lat="68.65739" lon="15.3398">
        <ele>42.549336</ele>
        <time>2020-08-23T09:07:38.643Z</time>
      </trkpt>
      <trkpt lat="68.6589" lon="15.34344">
        <ele>42.351758</ele>
        <time>2020-08-23T09:08:22.630Z</time>
      </trkpt>
      <trkpt lat="68.66062" lon="15.34743">
        <ele>42.153112</ele>
        <time>2020-08-23T09:09:12.617Z</time>
      </trkpt>
      <trkpt lat="68.66206" lon="15.35167">
        <ele>41.502389</ele>
        <time>2020-08-23T09:10:03.616Z</time>
      </trkpt>
      <trkpt lat="68.66332" lon="15.35571">
        <ele>43.11756</ele>
        <time>2020-08-23T09:10:45.635Z</time>
      </trkpt>
      <trkpt lat="68.66493" lon="15.35934">
        <ele>43.986756</ele>
        <time>2020-08-23T09:11:25.629Z</time>
      </trkpt>
      <trkpt lat="68.66631" lon="15.36367">
        <ele>43.317827</ele>
        <time>2020-08-23T09:12:05.640Z</time>
      </trkpt>
      <trkpt lat="68.66756" lon="15.36791">
        <ele>44.130182</ele>
        <time>2020-08-23T09:12:46.654Z</time>
      </trkpt>
      <trkpt lat="68.66887" lon="15.37176">
        <ele>45.074885</ele>
        <time>2020-08-23T09:13:26.633Z</time>
      </trkpt>
      <trkpt lat="68.67032" lon="15.3758">
        <ele>45.949664</ele>
        <time>2020-08-23T09:14:08.624Z</time>
      </trkpt>
      <trkpt lat="68.67229" lon="15.37881">
        <ele>43.629944</ele>
        <time>2020-08-23T09:14:48.658Z</time>
      </trkpt>
      <trkpt lat="68.67452" lon="15.38188">
        <ele>41.687183</ele>
        <time>2020-08-23T09:15:28.671Z</time>
      </trkpt>
      <trkpt lat="68.67648" lon="15.38506">
        <ele>42.40336</ele>
        <time>2020-08-23T09:16:08.628Z</time>
      </trkpt>
      <trkpt lat="68.67797" lon="15.38963">
        <ele>42.403805</ele>
        <time>2020-08-23T09:16:48.672Z</time>
      </trkpt>
      <trkpt lat="68.67963" lon="15.39351">
        <ele>40.678587</ele>
        <time>2020-08-23T09:17:28.637Z</time>
      </trkpt>
      <trkpt lat="68.68141" lon="15.39678">
        <ele>40.966112</ele>
        <time>2020-08-23T09:18:08.638Z</time>
      </trkpt>
      <trkpt lat="68.68333" lon="15.40008">
        <ele>43.048786</ele>
        <time>2020-08-23T09:18:59.671Z</time>
      </trkpt>
      <trkpt lat="68.68496" lon="15.40339">
        <ele>44.509675</ele>
        <time>2020-08-23T09:19:41.610Z</time>
      </trkpt>
      <trkpt lat="68.68662" lon="15.40675">
        <ele>43.777165</ele>
        <time>2020-08-23T09:20:27.620Z</time>
      </trkpt>
      <trkpt lat="68.68834" lon="15.40991">
        <ele>46.971437</ele>
        <time>2020-08-23T09:21:09.624Z</time>
      </trkpt>
      <trkpt lat="68.69024" lon="15.41133">
        <ele>48.302589</ele>
        <time>2020-08-23T09:21:49.633Z</time>
      </trkpt>
      <trkpt lat="68.69258" lon="15.41201">
        <ele>48.01837</ele>
        <time>2020-08-23T09:22:49.620Z</time>
      </trkpt>
      <trkpt lat="68.69467" lon="15.41268">
        <ele>48.283815</ele>
        <time>2020-08-23T09:23:36.650Z</time>
      </trkpt>
      <trkpt lat="68.69704" lon="15.41299">
        <ele>49.418877</ele>
        <time>2020-08-23T09:24:32.627Z</time>
      </trkpt>
      <trkpt lat="68.69921" lon="15.414">
        <ele>51.97753</ele>
        <time>2020-08-23T09:25:50.679Z</time>
      </trkpt>
      <trkpt lat="68.70192" lon="15.41426">
        <ele>46.162512</ele>
        <time>2020-08-23T09:26:34.651Z</time>
      </trkpt>
      <trkpt lat="68.70392" lon="15.41312">
        <ele>44.498245</ele>
        <time>2020-08-23T09:27:14.636Z</time>
      </trkpt>
      <trkpt lat="68.70598" lon="15.41233">
        <ele>46.586699</ele>
        <time>2020-08-23T09:27:58.644Z</time>
      </trkpt>
      <trkpt lat="68.70634" lon="15.41606">
        <ele>52.960768</ele>
        <time>2020-08-23T09:29:07.635Z</time>
      </trkpt>
      <trkpt lat="68.70644" lon="15.42152">
        <ele>65.951374</ele>
        <time>2020-08-23T09:30:52.631Z</time>
      </trkpt>
      <trkpt lat="68.70655" lon="15.42707">
        <ele>77.573944</ele>
        <time>2020-08-23T09:32:45.630Z</time>
      </trkpt>
      <trkpt lat="68.70669" lon="15.43366">
        <ele>70.648993</ele>
        <time>2020-08-23T09:33:29.630Z</time>
      </trkpt>
      <trkpt lat="68.70679" lon="15.44014">
        <ele>49.743319</ele>
        <time>2020-08-23T09:33:57.626Z</time>
      </trkpt>
      <trkpt lat="68.70855" lon="15.44133">
        <ele>40.890566</ele>
        <time>2020-08-23T09:34:37.636Z</time>
      </trkpt>
      <trkpt lat="68.71097" lon="15.44107">
        <ele>45.783535</ele>
        <time>2020-08-23T09:35:33.641Z</time>
      </trkpt>
      <trkpt lat="68.71306" lon="15.44079">
        <ele>45.969014</ele>
        <time>2020-08-23T09:36:18.642Z</time>
      </trkpt>
      <trkpt lat="68.71502" lon="15.44058">
        <ele>45.863247</ele>
        <time>2020-08-23T09:36:58.633Z</time>
      </trkpt>
      <trkpt lat="68.71686" lon="15.44218">
        <ele>48.324566</ele>
        <time>2020-08-23T09:37:42.622Z</time>
      </trkpt>
      <trkpt lat="68.71754" lon="15.44845">
        <ele>50.327626</ele>
        <time>2020-08-23T09:38:38.653Z</time>
      </trkpt>
      <trkpt lat="68.71827" lon="15.45415">
        <ele>55.564913</ele>
        <time>2020-08-23T09:39:44.664Z</time>
      </trkpt>
      <trkpt lat="68.7196" lon="15.45815">
        <ele>63.953186</ele>
        <time>2020-08-23T09:41:06.626Z</time>
      </trkpt>
      <trkpt lat="68.72044" lon="15.46302">
        <ele>69.788823</ele>
        <time>2020-08-23T09:42:44.622Z</time>
      </trkpt>
      <trkpt lat="68.72214" lon="15.46755">
        <ele>60.414042</ele>
        <time>2020-08-23T09:43:14.624Z</time>
      </trkpt>
      <trkpt lat="68.7237" lon="15.47179">
        <ele>50.18535</ele>
        <time>2020-08-23T09:43:34.668Z</time>
      </trkpt>
      <trkpt lat="68.72512" lon="15.47655">
        <ele>45.337619</ele>
        <time>2020-08-23T09:44:03.624Z</time>
      </trkpt>
      <trkpt lat="68.7242" lon="15.48233">
        <ele>44.653284</ele>
        <time>2020-08-23T09:44:48.623Z</time>
      </trkpt>
      <trkpt lat="68.72303" lon="15.4882">
        <ele>48.009639</ele>
        <time>2020-08-23T09:45:38.631Z</time>
      </trkpt>
      <trkpt lat="68.72257" lon="15.49415">
        <ele>50.365048</ele>
        <time>2020-08-23T09:46:28.663Z</time>
      </trkpt>
      <trkpt lat="68.72153" lon="15.49957">
        <ele>47.747951</ele>
        <time>2020-08-23T09:47:08.649Z</time>
      </trkpt>
      <trkpt lat="68.72103" lon="15.50528">
        <ele>52.339172</ele>
        <time>2020-08-23T09:47:56.624Z</time>
      </trkpt>
      <trkpt lat="68.72094" lon="15.51154">
        <ele>52.87552</ele>
        <time>2020-08-23T09:48:49.665Z</time>
      </trkpt>
      <trkpt lat="68.7213" lon="15.5178">
        <ele>49.466503</ele>
        <time>2020-08-23T09:49:29.635Z</time>
      </trkpt>
      <trkpt lat="68.72247" lon="15.52363">
        <ele>46.978504</ele>
        <time>2020-08-23T09:50:09.671Z</time>
      </trkpt>
      <trkpt lat="68.72473" lon="15.52363">
        <ele>49.16008</ele>
        <time>2020-08-23T09:51:16.651Z</time>
      </trkpt>
      <trkpt lat="68.72738" lon="15.52266">
        <ele>44.021309</ele>
        <time>2020-08-23T09:52:07.632Z</time>
      </trkpt>
      <trkpt lat="68.72955" lon="15.52174">
        <ele>38.401951</ele>
        <time>2020-08-23T09:52:50.636Z</time>
      </trkpt>
      <trkpt lat="68.73167" lon="15.52093">
        <ele>41.534809</ele>
        <time>2020-08-23T09:53:38.629Z</time>
      </trkpt>
      <trkpt lat="68.73393" lon="15.52158">
        <ele>46.373176</ele>
        <time>2020-08-23T09:54:18.650Z</time>
      </trkpt>
      <trkpt lat="68.73599" lon="15.52043">
        <ele>43.91367</ele>
        <time>2020-08-23T09:55:01.643Z</time>
      </trkpt>
      <trkpt lat="68.73795" lon="15.51896">
        <ele>52.730786</ele>
        <time>2020-08-23T09:56:06.647Z</time>
      </trkpt>
      <trkpt lat="68.74009" lon="15.51854">
        <ele>58.226535</ele>
        <time>2020-08-23T09:57:28.633Z</time>
      </trkpt>
      <trkpt lat="68.74218" lon="15.51637">
        <ele>53.716329</ele>
        <time>2020-08-23T09:58:41.626Z</time>
      </trkpt>
      <trkpt lat="68.74342" lon="15.5108">
        <ele>57.731375</ele>
        <time>2020-08-23T09:59:37.645Z</time>
      </trkpt>
      <trkpt lat="68.74502" lon="15.50645">
        <ele>60.792829</ele>
        <time>2020-08-23T10:00:38.663Z</time>
      </trkpt>
      <trkpt lat="68.747" lon="15.50415">
        <ele>50.545002</ele>
        <time>2020-08-23T10:01:00.685Z</time>
      </trkpt>
      <trkpt lat="68.7487" lon="15.49964">
        <ele>51.402608</ele>
        <time>2020-08-23T10:01:51.625Z</time>
      </trkpt>
      <trkpt lat="68.74989" lon="15.49443">
        <ele>56.898581</ele>
        <time>2020-08-23T10:02:51.630Z</time>
      </trkpt>
      <trkpt lat="68.75077" lon="15.48957">
        <ele>54.931535</ele>
        <time>2020-08-23T10:03:31.648Z</time>
      </trkpt>
      <trkpt lat="68.75128" lon="15.4837">
        <ele>52.00099</ele>
        <time>2020-08-23T10:04:13.647Z</time>
      </trkpt>
      <trkpt lat="68.75179" lon="15.47814">
        <ele>48.199784</ele>
        <time>2020-08-23T10:04:58.664Z</time>
      </trkpt>
      <trkpt lat="68.75292" lon="15.47181">
        <ele>46.666118</ele>
        <time>2020-08-23T10:05:34.629Z</time>
      </trkpt>
      <trkpt lat="68.75454" lon="15.46671">
        <ele>48.380156</ele>
        <time>2020-08-23T10:06:25.640Z</time>
      </trkpt>
      <trkpt lat="68.75654" lon="15.46755">
        <ele>53.83183</ele>
        <time>2020-08-23T10:07:36.678Z</time>
      </trkpt>
      <trkpt lat="68.75877" lon="15.4675">
        <ele>52.860627</ele>
        <time>2020-08-23T10:28:48.636Z</time>
      </trkpt>
      <trkpt lat="68.76084" lon="15.46551">
        <ele>51.808259</ele>
        <time>2020-08-23T10:29:51.651Z</time>
      </trkpt>
      <trkpt lat="68.76299" lon="15.46425">
        <ele>46.93202</ele>
        <time>2020-08-23T10:30:23.689Z</time>
      </trkpt>
      <trkpt lat="68.76548" lon="15.46275">
        <ele>43.293734</ele>
        <time>2020-08-23T10:31:01.645Z</time>
      </trkpt>
      <trkpt lat="68.76715" lon="15.46639">
        <ele>48.197583</ele>
        <time>2020-08-23T10:31:41.629Z</time>
      </trkpt>
      <trkpt lat="68.76925" lon="15.46808">
        <ele>51.204522</ele>
        <time>2020-08-23T10:32:41.644Z</time>
      </trkpt>
      <trkpt lat="68.7711" lon="15.47197">
        <ele>50.936189</ele>
        <time>2020-08-23T10:33:21.631Z</time>
      </trkpt>
      <trkpt lat="68.77268" lon="15.4769">
        <ele>49.971032</ele>
        <time>2020-08-23T10:34:02.643Z</time>
      </trkpt>
      <trkpt lat="68.77424" lon="15.48045">
        <ele>50.520686</ele>
        <time>2020-08-23T10:34:54.630Z</time>
      </trkpt>
      <trkpt lat="68.77638" lon="15.4833">
        <ele>46.900203</ele>
        <time>2020-08-23T10:35:38.669Z</time>
      </trkpt>
      <trkpt lat="68.77897" lon="15.48518">
        <ele>41.080147</ele>
        <time>2020-08-23T10:36:20.657Z</time>
      </trkpt>
      <trkpt lat="68.78108" lon="15.48753">
        <ele>44.295024</ele>
        <time>2020-08-23T10:37:09.678Z</time>
      </trkpt>
      <trkpt lat="68.78331" lon="15.48867">
        <ele>47.715388</ele>
        <time>2020-08-23T10:38:09.646Z</time>
      </trkpt>
      <trkpt lat="68.7853" lon="15.48965">
        <ele>51.401112</ele>
        <time>2020-08-23T10:38:58.667Z</time>
      </trkpt>
      <trkpt lat="68.78719" lon="15.49157">
        <ele>60.470212</ele>
        <time>2020-08-23T10:40:08.636Z</time>
      </trkpt>
      <trkpt lat="68.78849" lon="15.49592">
        <ele>65.792028</ele>
        <time>2020-08-23T10:41:22.639Z</time>
      </trkpt>
      <trkpt lat="68.7898" lon="15.50009">
        <ele>65.00242</ele>
        <time>2020-08-23T10:42:23.643Z</time>
      </trkpt>
      <trkpt lat="68.79128" lon="15.50437">
        <ele>69.67721</ele>
        <time>2020-08-23T10:43:38.672Z</time>
      </trkpt>
      <trkpt lat="68.79281" lon="15.50883">
        <ele>68.657383</ele>
        <time>2020-08-23T10:45:03.656Z</time>
      </trkpt>
      <trkpt lat="68.79427" lon="15.51303">
        <ele>64.88874</ele>
        <time>2020-08-23T10:45:43.659Z</time>
      </trkpt>
      <trkpt lat="68.79556" lon="15.51952">
        <ele>63.294777</ele>
        <time>2020-08-23T10:46:23.647Z</time>
      </trkpt>
      <trkpt lat="68.79667" lon="15.52701">
        <ele>58.533142</ele>
        <time>2020-08-23T10:47:03.631Z</time>
      </trkpt>
      <trkpt lat="68.79806" lon="15.53283">
        <ele>54.230782</ele>
        <time>2020-08-23T10:47:43.630Z</time>
      </trkpt>
      <trkpt lat="68.80017" lon="15.53604">
        <ele>47.9968</ele>
        <time>2020-08-23T10:48:19.652Z</time>
      </trkpt>
      <trkpt lat="68.8019" lon="15.54074">
        <ele>41.689057</ele>
        <time>2020-08-23T10:48:44.658Z</time>
      </trkpt>
      <trkpt lat="68.80339" lon="15.54494">
        <ele>41.466364</ele>
        <time>2020-08-23T10:49:26.639Z</time>
      </trkpt>
      <trkpt lat="68.80543" lon="15.54539">
        <ele>43.3835</ele>
        <time>2020-08-23T10:50:10.641Z</time>
      </trkpt>
      <trkpt lat="68.8075" lon="15.54526">
        <ele>45.866013</ele>
        <time>2020-08-23T10:51:13.661Z</time>
      </trkpt>
      <trkpt lat="68.80959" lon="15.54452">
        <ele>45.707779</ele>
        <time>2020-08-23T10:52:03.666Z</time>
      </trkpt>
      <trkpt lat="68.81172" lon="15.54378">
        <ele>48.363141</ele>
        <time>2020-08-23T10:52:51.674Z</time>
      </trkpt>
      <trkpt lat="68.81375" lon="15.54493">
        <ele>51.645768</ele>
        <time>2020-08-23T10:53:51.648Z</time>
      </trkpt>
      <trkpt lat="68.81518" lon="15.55003">
        <ele>54.102553</ele>
        <time>2020-08-23T10:54:45.640Z</time>
      </trkpt>
      <trkpt lat="68.8166" lon="15.55506">
        <ele>52.433786</ele>
        <time>2020-08-23T10:55:27.638Z</time>
      </trkpt>
      <trkpt lat="68.81795" lon="15.55984">
        <ele>53.785677</ele>
        <time>2020-08-23T10:56:07.657Z</time>
      </trkpt>
      <trkpt lat="68.81929" lon="15.56461">
        <ele>55.990707</ele>
        <time>2020-08-23T10:56:53.684Z</time>
      </trkpt>
      <trkpt lat="68.81962" lon="15.57038">
        <ele>55.692963</ele>
        <time>2020-08-23T10:57:43.644Z</time>
      </trkpt>
      <trkpt lat="68.81927" lon="15.57565">
        <ele>55.112455</ele>
        <time>2020-08-23T10:58:24.665Z</time>
      </trkpt>
      <trkpt lat="68.8187" lon="15.58197">
        <ele>53.771404</ele>
        <time>2020-08-23T10:59:10.668Z</time>
      </trkpt>
      <trkpt lat="68.81815" lon="15.58804">
        <ele>53.597802</ele>
        <time>2020-08-23T10:59:50.646Z</time>
      </trkpt>
      <trkpt lat="68.81763" lon="15.59352">
        <ele>53.26347</ele>
        <time>2020-08-23T11:00:30.645Z</time>
      </trkpt>
      <trkpt lat="68.81708" lon="15.5996">
        <ele>54.595158</ele>
        <time>2020-08-23T11:01:12.683Z</time>
      </trkpt>
      <trkpt lat="68.81651" lon="15.60563">
        <ele>45.510266</ele>
        <time>2020-08-23T11:01:42.704Z</time>
      </trkpt>
      <trkpt lat="68.81635" lon="15.61218">
        <ele>44.8401</ele>
        <time>2020-08-23T11:02:16.636Z</time>
      </trkpt>
      <trkpt lat="68.81663" lon="15.61875">
        <ele>46.962001</ele>
        <time>2020-08-23T11:03:07.661Z</time>
      </trkpt>
      <trkpt lat="68.81653" lon="15.62525">
        <ele>44.273744</ele>
        <time>2020-08-23T11:03:50.649Z</time>
      </trkpt>
      <trkpt lat="68.81588" lon="15.63155">
        <ele>40.829112</ele>
        <time>2020-08-23T11:04:30.650Z</time>
      </trkpt>
      <trkpt lat="68.81468" lon="15.63632">
        <ele>43.320848</ele>
        <time>2020-08-23T11:05:23.666Z</time>
      </trkpt>
      <trkpt lat="68.81414" lon="15.64242">
        <ele>44.378367</ele>
        <time>2020-08-23T11:06:16.633Z</time>
      </trkpt>
      <trkpt lat="68.81354" lon="15.64839">
        <ele>42.776554</ele>
        <time>2020-08-23T11:06:56.658Z</time>
      </trkpt>
      <trkpt lat="68.8132" lon="15.65405">
        <ele>44.155844</ele>
        <time>2020-08-23T11:07:41.659Z</time>
      </trkpt>
      <trkpt lat="68.81235" lon="15.65997">
        <ele>42.576415</ele>
        <time>2020-08-23T11:08:32.628Z</time>
      </trkpt>
      <trkpt lat="68.81242" lon="15.66607">
        <ele>44.813296</ele>
        <time>2020-08-23T11:09:26.656Z</time>
      </trkpt>
      <trkpt lat="68.81345" lon="15.67092">
        <ele>43.486603</ele>
        <time>2020-08-23T11:10:07.704Z</time>
      </trkpt>
      <trkpt lat="68.81452" lon="15.67591">
        <ele>40.833737</ele>
        <time>2020-08-23T11:10:50.634Z</time>
      </trkpt>
      <trkpt lat="68.8159" lon="15.68125">
        <ele>41.43868</ele>
        <time>2020-08-23T11:11:43.670Z</time>
      </trkpt>
      <trkpt lat="68.81772" lon="15.68417">
        <ele>44.273253</ele>
        <time>2020-08-23T11:12:27.661Z</time>
      </trkpt>
      <trkpt lat="68.81972" lon="15.68566">
        <ele>53.388619</ele>
        <time>2020-08-23T11:13:49.648Z</time>
      </trkpt>
      <trkpt lat="68.82176" lon="15.68465">
        <ele>60.0353</ele>
        <time>2020-08-23T11:15:07.653Z</time>
      </trkpt>
      <trkpt lat="68.82393" lon="15.68361">
        <ele>64.371956</ele>
        <time>2020-08-23T11:16:25.681Z</time>
      </trkpt>
      <trkpt lat="68.8258" lon="15.68261">
        <ele>63.823406</ele>
        <time>2020-08-23T11:17:06.651Z</time>
      </trkpt>
      <trkpt lat="68.82757" lon="15.67832">
        <ele>58.428081</ele>
        <time>2020-08-23T11:17:39.667Z</time>
      </trkpt>
      <trkpt lat="68.8293" lon="15.673">
        <ele>53.561781</ele>
        <time>2020-08-23T11:18:19.654Z</time>
      </trkpt>
      <trkpt lat="68.83105" lon="15.6677">
        <ele>52.261049</ele>
        <time>2020-08-23T11:19:01.638Z</time>
      </trkpt>
      <trkpt lat="68.83211" lon="15.66209">
        <ele>49.212046</ele>
        <time>2020-08-23T11:19:41.636Z</time>
      </trkpt>
      <trkpt lat="68.83257" lon="15.65541">
        <ele>45.627799</ele>
        <time>2020-08-23T11:20:21.633Z</time>
      </trkpt>
      <trkpt lat="68.83299" lon="15.64975">
        <ele>48.360633</ele>
        <time>2020-08-23T11:21:02.673Z</time>
      </trkpt>
      <trkpt lat="68.83354" lon="15.64434">
        <ele>49.460045</ele>
        <time>2020-08-23T11:21:42.673Z</time>
      </trkpt>
      <trkpt lat="68.83399" lon="15.6378">
        <ele>51.368904</ele>
        <time>2020-08-23T11:22:27.640Z</time>
      </trkpt>
      <trkpt lat="68.83456" lon="15.632">
        <ele>54.154633</ele>
        <time>2020-08-23T11:23:17.659Z</time>
      </trkpt>
      <trkpt lat="68.83547" lon="15.62553">
        <ele>52.466715</ele>
        <time>2020-08-23T11:23:59.651Z</time>
      </trkpt>
      <trkpt lat="68.83637" lon="15.61934">
        <ele>52.761403</ele>
        <time>2020-08-23T11:24:40.641Z</time>
      </trkpt>
      <trkpt lat="68.83712" lon="15.61386">
        <ele>55.749816</ele>
        <time>2020-08-23T11:25:32.648Z</time>
      </trkpt>
      <trkpt lat="68.838" lon="15.60813">
        <ele>54.912149</ele>
        <time>2020-08-23T11:26:15.648Z</time>
      </trkpt>
      <trkpt lat="68.8391" lon="15.60356">
        <ele>52.436453</ele>
        <time>2020-08-23T11:26:57.667Z</time>
      </trkpt>
      <trkpt lat="68.84056" lon="15.59955">
        <ele>52.471244</ele>
        <time>2020-08-23T11:27:37.651Z</time>
      </trkpt>
      <trkpt lat="68.84212" lon="15.59524">
        <ele>52.78278</ele>
        <time>2020-08-23T11:28:18.642Z</time>
      </trkpt>
      <trkpt lat="68.84354" lon="15.59099">
        <ele>50.907896</ele>
        <time>2020-08-23T11:29:00.643Z</time>
      </trkpt>
      <trkpt lat="68.84552" lon="15.58649">
        <ele>48.762082</ele>
        <time>2020-08-23T11:29:40.641Z</time>
      </trkpt>
      <trkpt lat="68.84733" lon="15.58239">
        <ele>50.102907</ele>
        <time>2020-08-23T11:30:20.647Z</time>
      </trkpt>
      <trkpt lat="68.84893" lon="15.5787">
        <ele>51.125012</ele>
        <time>2020-08-23T11:31:01.713Z</time>
      </trkpt>
      <trkpt lat="68.85067" lon="15.57472">
        <ele>52.314316</ele>
        <time>2020-08-23T11:32:02.652Z</time>
      </trkpt>
      <trkpt lat="68.8524" lon="15.57075">
        <ele>55.566368</ele>
        <time>2020-08-23T11:32:56.665Z</time>
      </trkpt>
      <trkpt lat="68.854" lon="15.5671">
        <ele>56.764476</ele>
        <time>2020-08-23T11:33:49.659Z</time>
      </trkpt>
      <trkpt lat="68.85556" lon="15.56347">
        <ele>56.15863</ele>
        <time>2020-08-23T11:34:29.685Z</time>
      </trkpt>
      <trkpt lat="68.85703" lon="15.5604">
        <ele>54.820734</ele>
        <time>2020-08-23T11:47:10.687Z</time>
      </trkpt>
      <trkpt lat="68.85939" lon="15.55881">
        <ele>47.922058</ele>
        <time>2020-08-23T11:47:50.651Z</time>
      </trkpt>
      <trkpt lat="68.86177" lon="15.55642">
        <ele>44.396117</ele>
        <time>2020-08-23T11:48:30.648Z</time>
      </trkpt>
      <trkpt lat="68.86414" lon="15.55631">
        <ele>41.943678</ele>
        <time>2020-08-23T11:49:10.692Z</time>
      </trkpt>
      <trkpt lat="68.86653" lon="15.55796">
        <ele>39.55274</ele>
        <time>2020-08-23T11:49:50.662Z</time>
      </trkpt>
      <trkpt lat="68.86856" lon="15.56008">
        <ele>40.760986</ele>
        <time>2020-08-23T11:50:30.669Z</time>
      </trkpt>
      <trkpt lat="68.87037" lon="15.56173">
        <ele>42.291685</ele>
        <time>2020-08-23T11:51:10.677Z</time>
      </trkpt>
      <trkpt lat="68.87252" lon="15.56383">
        <ele>42.930458</ele>
        <time>2020-08-23T11:52:01.662Z</time>
      </trkpt>
      <trkpt lat="68.87467" lon="15.56594">
        <ele>43.272354</ele>
        <time>2020-08-23T11:52:52.664Z</time>
      </trkpt>
      <trkpt lat="68.87662" lon="15.5678">
        <ele>44.660713</ele>
        <time>2020-08-23T11:53:39.660Z</time>
      </trkpt>
      <trkpt lat="68.87862" lon="15.56893">
        <ele>47.314503</ele>
        <time>2020-08-23T11:54:40.659Z</time>
      </trkpt>
      <trkpt lat="68.88107" lon="15.57008">
        <ele>41.793901</ele>
        <time>2020-08-23T11:55:20.657Z</time>
      </trkpt>
      <trkpt lat="68.88329" lon="15.57112">
        <ele>41.749656</ele>
        <time>2020-08-23T11:56:00.668Z</time>
      </trkpt>
      <trkpt lat="68.88525" lon="15.572">
        <ele>42.340791</ele>
        <time>2020-08-23T11:56:40.657Z</time>
      </trkpt>
      <trkpt lat="68.88734" lon="15.57385">
        <ele>41.582238</ele>
        <time>2020-08-23T11:57:23.658Z</time>
      </trkpt>
      <trkpt lat="68.88897" lon="15.57826">
        <ele>45.226453</ele>
        <time>2020-08-23T11:58:19.688Z</time>
      </trkpt>
      <trkpt lat="68.88868" lon="15.58398">
        <ele>46.232276</ele>
        <time>2020-08-23T11:59:08.664Z</time>
      </trkpt>
      <trkpt lat="68.88705" lon="15.58864">
        <ele>43.538508</ele>
        <time>2020-08-23T11:59:48.653Z</time>
      </trkpt>
      <trkpt lat="68.8854" lon="15.59195">
        <ele>41.395946</ele>
        <time>2020-08-23T12:00:28.660Z</time>
      </trkpt>
      <trkpt lat="68.88375" lon="15.59547">
        <ele>42.962851</ele>
        <time>2020-08-23T12:01:17.675Z</time>
      </trkpt>
      <trkpt lat="68.88405" lon="15.60166">
        <ele>45.514238</ele>
        <time>2020-08-23T12:02:00.690Z</time>
      </trkpt>
      <trkpt lat="68.88474" lon="15.60772">
        <ele>43.747134</ele>
        <time>2020-08-23T12:02:40.650Z</time>
      </trkpt>
      <trkpt lat="68.88536" lon="15.61377">
        <ele>44.544949</ele>
        <time>2020-08-23T12:03:28.669Z</time>
      </trkpt>
      <trkpt lat="68.88563" lon="15.62043">
        <ele>43.336135</ele>
        <time>2020-08-23T12:04:12.663Z</time>
      </trkpt>
      <trkpt lat="68.88733" lon="15.62408">
        <ele>39.603175</ele>
        <time>2020-08-23T12:04:52.676Z</time>
      </trkpt>
      <trkpt lat="68.8894" lon="15.62442">
        <ele>48.263013</ele>
        <time>2020-08-23T12:06:05.655Z</time>
      </trkpt>
      <trkpt lat="68.89133" lon="15.62268">
        <ele>54.373494</ele>
        <time>2020-08-23T12:07:39.653Z</time>
      </trkpt>
      <trkpt lat="68.89284" lon="15.61875">
        <ele>57.831271</ele>
        <time>2020-08-23T12:08:41.663Z</time>
      </trkpt>
      <trkpt lat="68.89456" lon="15.61461">
        <ele>56.517301</ele>
        <time>2020-08-23T12:09:33.658Z</time>
      </trkpt>
      <trkpt lat="68.89741" lon="15.61285">
        <ele>47.969223</ele>
        <time>2020-08-23T12:10:15.679Z</time>
      </trkpt>
      <trkpt lat="68.89999" lon="15.61305">
        <ele>43.288292</ele>
        <time>2020-08-23T12:10:55.660Z</time>
      </trkpt>
      <trkpt lat="68.90234" lon="15.61323">
        <ele>40.953445</ele>
        <time>2020-08-23T12:11:35.666Z</time>
      </trkpt>
      <trkpt lat="68.90449" lon="15.61323">
        <ele>39.222021</ele>
        <time>2020-08-23T12:12:15.649Z</time>
      </trkpt>
      <trkpt lat="68.90654" lon="15.61332">
        <ele>39.972774</ele>
        <time>2020-08-23T12:12:59.668Z</time>
      </trkpt>
      <trkpt lat="68.9088" lon="15.61366">
        <ele>41.685884</ele>
        <time>2020-08-23T12:13:50.662Z</time>
      </trkpt>
      <trkpt lat="68.91103" lon="15.61368">
        <ele>42.221031</ele>
        <time>2020-08-23T12:14:42.651Z</time>
      </trkpt>
      <trkpt lat="68.91306" lon="15.61362">
        <ele>42.374688</ele>
        <time>2020-08-23T12:15:25.676Z</time>
      </trkpt>
      <trkpt lat="68.9152" lon="15.6143">
        <ele>41.225659</ele>
        <time>2020-08-23T12:16:11.683Z</time>
      </trkpt>
      <trkpt lat="68.91732" lon="15.61569">
        <ele>40.406512</ele>
        <time>2020-08-23T12:16:57.659Z</time>
      </trkpt>
      <trkpt lat="68.91947" lon="15.61705">
        <ele>41.293143</ele>
        <time>2020-08-23T12:17:55.671Z</time>
      </trkpt>
      <trkpt lat="68.92157" lon="15.61831">
        <ele>44.604354</ele>
        <time>2020-08-23T12:18:46.695Z</time>
      </trkpt>
      <trkpt lat="68.9236" lon="15.61999">
        <ele>41.612424</ele>
        <time>2020-08-23T12:19:27.694Z</time>
      </trkpt>
      <trkpt lat="68.9256" lon="15.6231">
        <ele>41.039637</ele>
        <time>2020-08-23T12:20:07.665Z</time>
      </trkpt>
      <trkpt lat="68.92748" lon="15.62632">
        <ele>42.528111</ele>
        <time>2020-08-23T12:20:59.658Z</time>
      </trkpt>
      <trkpt lat="68.92952" lon="15.6283">
        <ele>41.592693</ele>
        <time>2020-08-23T12:21:41.690Z</time>
      </trkpt>
      <trkpt lat="68.93161" lon="15.63029">
        <ele>39.894461</ele>
        <time>2020-08-23T12:22:21.658Z</time>
      </trkpt>
      <trkpt lat="68.93371" lon="15.63225">
        <ele>40.533528</ele>
        <time>2020-08-23T12:23:01.682Z</time>
      </trkpt>
      <trkpt lat="68.93574" lon="15.63415">
        <ele>42.195033</ele>
        <time>2020-08-23T12:24:03.670Z</time>
      </trkpt>
      <trkpt lat="68.93827" lon="15.63656">
        <ele>35.988765</ele>
        <time>2020-08-23T12:24:44.668Z</time>
      </trkpt>
      <trkpt lat="68.94011" lon="15.63892">
        <ele>38.633042</ele>
        <time>2020-08-23T12:25:26.716Z</time>
      </trkpt>
      <trkpt lat="68.94224" lon="15.64133">
        <ele>40.203536</ele>
        <time>2020-08-23T12:26:07.702Z</time>
      </trkpt>
      <trkpt lat="68.94438" lon="15.64309">
        <ele>41.639046</ele>
        <time>2020-08-23T12:27:03.659Z</time>
      </trkpt>
      <trkpt lat="68.9466" lon="15.6452">
        <ele>43.579635</ele>
        <time>2020-08-23T12:28:01.668Z</time>
      </trkpt>
      <trkpt lat="68.94855" lon="15.64757">
        <ele>43.897979</ele>
        <time>2020-08-23T12:28:41.676Z</time>
      </trkpt>
      <trkpt lat="68.94956" lon="15.65297">
        <ele>47.773133</ele>
        <time>2020-08-23T12:29:33.667Z</time>
      </trkpt>
      <trkpt lat="68.95053" lon="15.65838">
        <ele>47.992268</ele>
        <time>2020-08-23T12:30:33.663Z</time>
      </trkpt>
      <trkpt lat="68.95188" lon="15.66287">
        <ele>44.690345</ele>
        <time>2020-08-23T12:31:14.668Z</time>
      </trkpt>
      <trkpt lat="68.95438" lon="15.66441">
        <ele>40.121593</ele>
        <time>2020-08-23T12:31:54.658Z</time>
      </trkpt>
      <trkpt lat="68.95641" lon="15.66265">
        <ele>40.604988</ele>
        <time>2020-08-23T12:32:34.652Z</time>
      </trkpt>
      <trkpt lat="68.95822" lon="15.65956">
        <ele>40.132831</ele>
        <time>2020-08-23T12:33:16.677Z</time>
      </trkpt>
      <trkpt lat="68.95964" lon="15.65546">
        <ele>38.414448</ele>
        <time>2020-08-23T12:33:56.687Z</time>
      </trkpt>
      <trkpt lat="68.96095" lon="15.65095">
        <ele>38.062379</ele>
        <time>2020-08-23T12:34:36.700Z</time>
      </trkpt>
      <trkpt lat="68.96224" lon="15.64654">
        <ele>41.879838</ele>
        <time>2020-08-23T12:35:16.652Z</time>
      </trkpt>
      <trkpt lat="68.96351" lon="15.64213">
        <ele>55.638133</ele>
        <time>2020-08-23T12:36:50.667Z</time>
      </trkpt>
      <trkpt lat="68.96474" lon="15.63796">
        <ele>67.066383</ele>
        <time>2020-08-23T12:38:30.664Z</time>
      </trkpt>
      <trkpt lat="68.96611" lon="15.63331">
        <ele>67.473608</ele>
        <time>2020-08-23T12:39:39.697Z</time>
      </trkpt>
      <trkpt lat="68.96778" lon="15.62849">
        <ele>54.986039</ele>
        <time>2020-08-23T12:40:06.655Z</time>
      </trkpt>
      <trkpt lat="68.96733" lon="15.63183">
        <ele>52.134839</ele>
        <time>2020-08-23T12:40:57.684Z</time>
      </trkpt>
      <trkpt lat="68.96708" lon="15.63768">
        <ele>43.567883</ele>
        <time>2020-08-23T12:41:28.697Z</time>
      </trkpt>
      <trkpt lat="68.96885" lon="15.64176">
        <ele>39.501799</ele>
        <time>2020-08-23T12:42:03.661Z</time>
      </trkpt>
    </trkseg>
  </trk>
  <trk>
    <name><![CDATA[Tour d'Europe: étape 057]]></name>
    <trkseg>
      <trkpt lat="68.97034" lon="15.6425">
        <ele>49.557575</ele>
        <time>2020-08-24T08:05:22.251Z</time>
      </trkpt>
      <trkpt lat="68.97169" lon="15.63816">
        <ele>48.396474</ele>
        <time>2020-08-24T08:06:08.254Z</time>
      </trkpt>
      <trkpt lat="68.97372" lon="15.64151">
        <ele>46.36245</ele>
        <time>2020-08-24T08:06:50.254Z</time>
      </trkpt>
      <trkpt lat="68.97544" lon="15.64488">
        <ele>46.688936</ele>
        <time>2020-08-24T08:07:31.296Z</time>
      </trkpt>
      <trkpt lat="68.97744" lon="15.6455">
        <ele>45.253804</ele>
        <time>2020-08-24T08:08:13.276Z</time>
      </trkpt>
      <trkpt lat="68.9797" lon="15.64669">
        <ele>49.056232</ele>
        <time>2020-08-24T08:09:13.258Z</time>
      </trkpt>
      <trkpt lat="68.98077" lon="15.642">
        <ele>49.105592</ele>
        <time>2020-08-24T08:10:05.291Z</time>
      </trkpt>
      <trkpt lat="68.98272" lon="15.64331">
        <ele>46.052555</ele>
        <time>2020-08-24T08:10:47.251Z</time>
      </trkpt>
      <trkpt lat="68.9842" lon="15.64781">
        <ele>46.005512</ele>
        <time>2020-08-24T08:11:28.263Z</time>
      </trkpt>
      <trkpt lat="68.98581" lon="15.65185">
        <ele>44.052972</ele>
        <time>2020-08-24T08:12:08.330Z</time>
      </trkpt>
      <trkpt lat="68.9877" lon="15.64972">
        <ele>42.91611</ele>
        <time>2020-08-24T08:12:48.249Z</time>
      </trkpt>
      <trkpt lat="68.98961" lon="15.64717">
        <ele>43.876446</ele>
        <time>2020-08-24T08:13:31.254Z</time>
      </trkpt>
      <trkpt lat="68.99135" lon="15.64486">
        <ele>47.582648</ele>
        <time>2020-08-24T08:14:12.259Z</time>
      </trkpt>
      <trkpt lat="68.99329" lon="15.64225">
        <ele>55.498891</ele>
        <time>2020-08-24T08:15:24.284Z</time>
      </trkpt>
      <trkpt lat="68.99529" lon="15.63964">
        <ele>57.064129</ele>
        <time>2020-08-24T08:16:24.289Z</time>
      </trkpt>
      <trkpt lat="68.99729" lon="15.63696">
        <ele>58.954066</ele>
        <time>2020-08-24T08:17:24.291Z</time>
      </trkpt>
      <trkpt lat="68.99934" lon="15.63425">
        <ele>63.17949</ele>
        <time>2020-08-24T08:18:27.261Z</time>
      </trkpt>
      <trkpt lat="69.00066" lon="15.62986">
        <ele>63.126261</ele>
        <time>2020-08-24T08:19:25.274Z</time>
      </trkpt>
      <trkpt lat="69.00171" lon="15.62339">
        <ele>59.883718</ele>
        <time>2020-08-24T08:20:06.268Z</time>
      </trkpt>
      <trkpt lat="69.00263" lon="15.61761">
        <ele>60.501995</ele>
        <time>2020-08-24T08:20:50.272Z</time>
      </trkpt>
      <trkpt lat="69.00364" lon="15.61145">
        <ele>64.140852</ele>
        <time>2020-08-24T08:21:53.269Z</time>
      </trkpt>
      <trkpt lat="69.00444" lon="15.60654">
        <ele>63.31172</ele>
        <time>2020-08-24T08:22:33.251Z</time>
      </trkpt>
      <trkpt lat="69.00545" lon="15.60031">
        <ele>58.767436</ele>
        <time>2020-08-24T08:23:13.290Z</time>
      </trkpt>
      <trkpt lat="69.00655" lon="15.59342">
        <ele>54.316023</ele>
        <time>2020-08-24T08:23:53.255Z</time>
      </trkpt>
      <trkpt lat="69.00752" lon="15.58707">
        <ele>53.637598</ele>
        <time>2020-08-24T08:24:33.246Z</time>
      </trkpt>
      <trkpt lat="69.00809" lon="15.58107">
        <ele>59.424944</ele>
        <time>2020-08-24T08:25:33.275Z</time>
      </trkpt>
      <trkpt lat="69.00861" lon="15.57571">
        <ele>65.827196</ele>
        <time>2020-08-24T08:26:42.272Z</time>
      </trkpt>
      <trkpt lat="69.00919" lon="15.56966">
        <ele>67.711725</ele>
        <time>2020-08-24T08:27:44.261Z</time>
      </trkpt>
      <trkpt lat="69.00972" lon="15.56407">
        <ele>70.867144</ele>
        <time>2020-08-24T08:28:44.256Z</time>
      </trkpt>
      <trkpt lat="69.00961" lon="15.55647">
        <ele>63.292699</ele>
        <time>2020-08-24T08:29:24.258Z</time>
      </trkpt>
      <trkpt lat="69.00895" lon="15.55103">
        <ele>52.692652</ele>
        <time>2020-08-24T08:29:44.273Z</time>
      </trkpt>
      <trkpt lat="69.00871" lon="15.54475">
        <ele>42.436191</ele>
        <time>2020-08-24T08:30:07.253Z</time>
      </trkpt>
      <trkpt lat="69.0089" lon="15.53845">
        <ele>44.458987</ele>
        <time>2020-08-24T08:30:56.292Z</time>
      </trkpt>
      <trkpt lat="69.00907" lon="15.53239">
        <ele>51.079055</ele>
        <time>2020-08-24T08:32:09.296Z</time>
      </trkpt>
      <trkpt lat="69.00938" lon="15.52661">
        <ele>50.729864</ele>
        <time>2020-08-24T08:32:54.260Z</time>
      </trkpt>
      <trkpt lat="69.0106" lon="15.52119">
        <ele>51.258716</ele>
        <time>2020-08-24T08:33:48.304Z</time>
      </trkpt>
      <trkpt lat="69.01226" lon="15.51678">
        <ele>55.25259</ele>
        <time>2020-08-24T08:34:43.260Z</time>
      </trkpt>
      <trkpt lat="69.01427" lon="15.5144">
        <ele>57.148264</ele>
        <time>2020-08-24T08:35:32.280Z</time>
      </trkpt>
      <trkpt lat="69.01644" lon="15.51302">
        <ele>59.555816</ele>
        <time>2020-08-24T08:36:29.302Z</time>
      </trkpt>
      <trkpt lat="69.01874" lon="15.51501">
        <ele>60.954183</ele>
        <time>2020-08-24T08:37:27.312Z</time>
      </trkpt>
      <trkpt lat="69.02082" lon="15.51451">
        <ele>60.698809</ele>
        <time>2020-08-24T08:38:14.295Z</time>
      </trkpt>
      <trkpt lat="69.02275" lon="15.5152">
        <ele>61.38413</ele>
        <time>2020-08-24T08:38:55.279Z</time>
      </trkpt>
      <trkpt lat="69.025" lon="15.51766">
        <ele>60.876014</ele>
        <time>2020-08-24T08:39:50.254Z</time>
      </trkpt>
      <trkpt lat="69.02696" lon="15.52072">
        <ele>61.530326</ele>
        <time>2020-08-24T08:40:40.283Z</time>
      </trkpt>
      <trkpt lat="69.0287" lon="15.52353">
        <ele>60.747825</ele>
        <time>2020-08-24T08:41:20.263Z</time>
      </trkpt>
      <trkpt lat="69.03053" lon="15.52637">
        <ele>61.269317</ele>
        <time>2020-08-24T08:42:00.258Z</time>
      </trkpt>
      <trkpt lat="69.03234" lon="15.52875">
        <ele>60.275764</ele>
        <time>2020-08-24T08:42:40.248Z</time>
      </trkpt>
      <trkpt lat="69.0345" lon="15.52585">
        <ele>54.557117</ele>
        <time>2020-08-24T08:43:22.271Z</time>
      </trkpt>
      <trkpt lat="69.03663" lon="15.52147">
        <ele>47.930135</ele>
        <time>2020-08-24T08:44:02.268Z</time>
      </trkpt>
      <trkpt lat="69.03871" lon="15.51747">
        <ele>45.440031</ele>
        <time>2020-08-24T08:44:42.274Z</time>
      </trkpt>
      <trkpt lat="69.04105" lon="15.51585">
        <ele>47.217038</ele>
        <time>2020-08-24T08:45:22.249Z</time>
      </trkpt>
      <trkpt lat="69.04312" lon="15.51536">
        <ele>49.269533</ele>
        <time>2020-08-24T08:46:02.268Z</time>
      </trkpt>
      <trkpt lat="69.04533" lon="15.51545">
        <ele>49.927443</ele>
        <time>2020-08-24T08:46:44.258Z</time>
      </trkpt>
      <trkpt lat="69.04722" lon="15.51717">
        <ele>49.819883</ele>
        <time>2020-08-24T08:47:25.267Z</time>
      </trkpt>
      <trkpt lat="69.0488" lon="15.52048">
        <ele>49.82808</ele>
        <time>2020-08-24T08:48:05.263Z</time>
      </trkpt>
      <trkpt lat="69.05054" lon="15.52391">
        <ele>49.80855</ele>
        <time>2020-08-24T08:48:45.291Z</time>
      </trkpt>
      <trkpt lat="69.05258" lon="15.5261">
        <ele>50.68707</ele>
        <time>2020-08-24T08:49:27.282Z</time>
      </trkpt>
      <trkpt lat="69.05456" lon="15.52743">
        <ele>48.863985</ele>
        <time>2020-08-24T08:50:07.291Z</time>
      </trkpt>
      <trkpt lat="69.0569" lon="15.53048">
        <ele>45.595061</ele>
        <time>2020-08-24T08:50:47.276Z</time>
      </trkpt>
      <trkpt lat="69.05927" lon="15.53314">
        <ele>44.019571</ele>
        <time>2020-08-24T08:51:27.286Z</time>
      </trkpt>
      <trkpt lat="69.06129" lon="15.53499">
        <ele>44.180689</ele>
        <time>2020-08-24T08:52:07.280Z</time>
      </trkpt>
      <trkpt lat="69.06349" lon="15.53701">
        <ele>44.788881</ele>
        <time>2020-08-24T08:52:49.277Z</time>
      </trkpt>
      <trkpt lat="69.06545" lon="15.53883">
        <ele>46.081122</ele>
        <time>2020-08-24T08:53:29.273Z</time>
      </trkpt>
      <trkpt lat="69.06757" lon="15.5408">
        <ele>48.004537</ele>
        <time>2020-08-24T08:54:21.288Z</time>
      </trkpt>
      <trkpt lat="69.06938" lon="15.5435">
        <ele>46.400686</ele>
        <time>2020-08-24T08:55:02.298Z</time>
      </trkpt>
      <trkpt lat="69.07093" lon="15.54808">
        <ele>46.628425</ele>
        <time>2020-08-24T08:55:44.269Z</time>
      </trkpt>
      <trkpt lat="69.07236" lon="15.5521">
        <ele>49.664905</ele>
        <time>2020-08-24T08:56:27.255Z</time>
      </trkpt>
      <trkpt lat="69.07408" lon="15.5554">
        <ele>49.393039</ele>
        <time>2020-08-24T08:57:07.264Z</time>
      </trkpt>
      <trkpt lat="69.07628" lon="15.55776">
        <ele>46.764489</ele>
        <time>2020-08-24T08:57:47.268Z</time>
      </trkpt>
      <trkpt lat="69.07796" lon="15.56182">
        <ele>46.853486</ele>
        <time>2020-08-24T08:58:27.254Z</time>
      </trkpt>
      <trkpt lat="69.07977" lon="15.56575">
        <ele>48.024661</ele>
        <time>2020-08-24T08:59:09.261Z</time>
      </trkpt>
      <trkpt lat="69.08188" lon="15.56454">
        <ele>46.702903</ele>
        <time>2020-08-24T08:59:49.307Z</time>
      </trkpt>
      <trkpt lat="69.08355" lon="15.56128">
        <ele>45.742154</ele>
        <time>2020-08-24T09:00:30.289Z</time>
      </trkpt>
      <trkpt lat="69.08495" lon="15.55686">
        <ele>44.083862</ele>
        <time>2020-08-24T09:01:10.269Z</time>
      </trkpt>
      <trkpt lat="69.08735" lon="15.55658">
        <ele>49.030808</ele>
        <time>2020-08-24T09:02:09.283Z</time>
      </trkpt>
      <trkpt lat="69.08869" lon="15.56047">
        <ele>51.990848</ele>
        <time>2020-08-24T09:03:24.290Z</time>
      </trkpt>
      <trkpt lat="69.0903" lon="15.56459">
        <ele>54.494717</ele>
        <time>2020-08-24T09:04:04.280Z</time>
      </trkpt>
      <trkpt lat="69.09227" lon="15.56606">
        <ele>59.740129</ele>
        <time>2020-08-24T09:05:31.275Z</time>
      </trkpt>
      <trkpt lat="69.09417" lon="15.56905">
        <ele>51.689067</ele>
        <time>2020-08-24T09:05:57.272Z</time>
      </trkpt>
      <trkpt lat="69.09645" lon="15.56722">
        <ele>55.166407</ele>
        <time>2020-08-24T09:06:49.300Z</time>
      </trkpt>
      <trkpt lat="69.09817" lon="15.564">
        <ele>58.204469</ele>
        <time>2020-08-24T09:07:43.266Z</time>
      </trkpt>
      <trkpt lat="69.10014" lon="15.56273">
        <ele>56.29281</ele>
        <time>2020-08-24T09:08:23.264Z</time>
      </trkpt>
      <trkpt lat="69.10181" lon="15.56533">
        <ele>55.137726</ele>
        <time>2020-08-24T09:09:03.275Z</time>
      </trkpt>
      <trkpt lat="69.10345" lon="15.57024">
        <ele>52.292442</ele>
        <time>2020-08-24T09:09:45.272Z</time>
      </trkpt>
      <trkpt lat="69.10487" lon="15.57265">
        <ele>47.773801</ele>
        <time>2020-08-24T09:14:37.276Z</time>
      </trkpt>
      <trkpt lat="69.10474" lon="15.56811">
        <ele>46.344034</ele>
        <time>2020-08-24T09:19:31.274Z</time>
      </trkpt>
      <trkpt lat="69.10485" lon="15.57267">
        <ele>48.088311</ele>
        <time>2020-08-24T09:27:06.254Z</time>
      </trkpt>
      <trkpt lat="69.10484" lon="15.57603">
        <ele>50.765169</ele>
        <time>2020-08-24T09:38:51.274Z</time>
      </trkpt>
      <trkpt lat="69.10508" lon="15.58272">
        <ele>46.554453</ele>
        <time>2020-08-24T09:39:33.299Z</time>
      </trkpt>
      <trkpt lat="69.10576" lon="15.58806">
        <ele>50.103164</ele>
        <time>2020-08-24T09:40:37.294Z</time>
      </trkpt>
      <trkpt lat="69.10698" lon="15.59379">
        <ele>48.042361</ele>
        <time>2020-08-24T09:41:25.286Z</time>
      </trkpt>
      <trkpt lat="69.10825" lon="15.599">
        <ele>46.237731</ele>
        <time>2020-08-24T09:42:05.280Z</time>
      </trkpt>
      <trkpt lat="69.109" lon="15.6051">
        <ele>47.020339</ele>
        <time>2020-08-24T09:42:47.276Z</time>
      </trkpt>
      <trkpt lat="69.11063" lon="15.60835">
        <ele>46.845961</ele>
        <time>2020-08-24T09:43:27.313Z</time>
      </trkpt>
      <trkpt lat="69.11247" lon="15.61111">
        <ele>47.34982</ele>
        <time>2020-08-24T09:44:07.290Z</time>
      </trkpt>
      <trkpt lat="69.11426" lon="15.61398">
        <ele>46.458647</ele>
        <time>2020-08-24T09:44:51.291Z</time>
      </trkpt>
      <trkpt lat="69.11657" lon="15.61617">
        <ele>42.793228</ele>
        <time>2020-08-24T09:45:31.277Z</time>
      </trkpt>
      <trkpt lat="69.11874" lon="15.61552">
        <ele>41.505604</ele>
        <time>2020-08-24T09:46:17.275Z</time>
      </trkpt>
      <trkpt lat="69.12083" lon="15.61516">
        <ele>43.661121</ele>
        <time>2020-08-24T09:47:17.304Z</time>
      </trkpt>
      <trkpt lat="69.12242" lon="15.61893">
        <ele>44.686476</ele>
        <time>2020-08-24T09:48:07.273Z</time>
      </trkpt>
      <trkpt lat="69.12351" lon="15.62389">
        <ele>45.861939</ele>
        <time>2020-08-24T09:48:47.279Z</time>
      </trkpt>
      <trkpt lat="69.12467" lon="15.62996">
        <ele>47.162347</ele>
        <time>2020-08-24T09:49:51.271Z</time>
      </trkpt>
      <trkpt lat="69.12507" lon="15.63634">
        <ele>46.335633</ele>
        <time>2020-08-24T09:50:31.294Z</time>
      </trkpt>
      <trkpt lat="69.12556" lon="15.64155">
        <ele>47.944642</ele>
        <time>2020-08-24T09:51:11.306Z</time>
      </trkpt>
      <trkpt lat="69.12655" lon="15.64657">
        <ele>51.491704</ele>
        <time>2020-08-24T09:52:05.304Z</time>
      </trkpt>
      <trkpt lat="69.12751" lon="15.65167">
        <ele>50.977659</ele>
        <time>2020-08-24T09:52:51.310Z</time>
      </trkpt>
      <trkpt lat="69.12785" lon="15.65877">
        <ele>47.302312</ele>
        <time>2020-08-24T09:53:33.312Z</time>
      </trkpt>
      <trkpt lat="69.12843" lon="15.66542">
        <ele>46.627823</ele>
        <time>2020-08-24T09:54:13.279Z</time>
      </trkpt>
      <trkpt lat="69.12997" lon="15.66975">
        <ele>45.718155</ele>
        <time>2020-08-24T09:54:59.292Z</time>
      </trkpt>
      <trkpt lat="69.13189" lon="15.67286">
        <ele>43.552554</ele>
        <time>2020-08-24T09:55:39.324Z</time>
      </trkpt>
      <trkpt lat="69.1339" lon="15.67477">
        <ele>45.25502</ele>
        <time>2020-08-24T09:56:21.275Z</time>
      </trkpt>
      <trkpt lat="69.13581" lon="15.67527">
        <ele>49.36325</ele>
        <time>2020-08-24T09:57:16.300Z</time>
      </trkpt>
      <trkpt lat="69.13634" lon="15.68003">
        <ele>49.632513</ele>
        <time>2020-08-24T09:57:58.276Z</time>
      </trkpt>
      <trkpt lat="69.1364" lon="15.68548">
        <ele>49.296719</ele>
        <time>2020-08-24T09:58:40.295Z</time>
      </trkpt>
      <trkpt lat="69.13651" lon="15.69073">
        <ele>49.822532</ele>
        <time>2020-08-24T09:59:20.292Z</time>
      </trkpt>
      <trkpt lat="69.13665" lon="15.69729">
        <ele>47.003704</ele>
        <time>2020-08-24T10:00:02.277Z</time>
      </trkpt>
      <trkpt lat="69.13678" lon="15.70415">
        <ele>46.165749</ele>
        <time>2020-08-24T10:00:42.306Z</time>
      </trkpt>
      <trkpt lat="69.13689" lon="15.70947">
        <ele>48.253362</ele>
        <time>2020-08-24T10:01:22.312Z</time>
      </trkpt>
      <trkpt lat="69.13702" lon="15.71535">
        <ele>48.080312</ele>
        <time>2020-08-24T10:02:02.294Z</time>
      </trkpt>
      <trkpt lat="69.13717" lon="15.7223">
        <ele>46.515825</ele>
        <time>2020-08-24T10:02:42.294Z</time>
      </trkpt>
      <trkpt lat="69.13748" lon="15.72969">
        <ele>45.670282</ele>
        <time>2020-08-24T10:03:24.304Z</time>
      </trkpt>
      <trkpt lat="69.139" lon="15.73525">
        <ele>47.18638</ele>
        <time>2020-08-24T10:04:12.272Z</time>
      </trkpt>
      <trkpt lat="69.14038" lon="15.74031">
        <ele>47.59812</ele>
        <time>2020-08-24T10:05:03.289Z</time>
      </trkpt>
      <trkpt lat="69.14133" lon="15.74527">
        <ele>45.960868</ele>
        <time>2020-08-24T10:05:43.297Z</time>
      </trkpt>
      <trkpt lat="69.14231" lon="15.7508">
        <ele>45.777948</ele>
        <time>2020-08-24T10:06:25.286Z</time>
      </trkpt>
      <trkpt lat="69.14341" lon="15.7562">
        <ele>45.494877</ele>
        <time>2020-08-24T10:07:05.286Z</time>
      </trkpt>
      <trkpt lat="69.14477" lon="15.76071">
        <ele>46.362309</ele>
        <time>2020-08-24T10:07:47.286Z</time>
      </trkpt>
      <trkpt lat="69.14612" lon="15.76521">
        <ele>47.616609</ele>
        <time>2020-08-24T10:08:33.292Z</time>
      </trkpt>
      <trkpt lat="69.14761" lon="15.77027">
        <ele>47.501473</ele>
        <time>2020-08-24T10:09:26.278Z</time>
      </trkpt>
      <trkpt lat="69.14907" lon="15.77576">
        <ele>47.363227</ele>
        <time>2020-08-24T10:10:21.310Z</time>
      </trkpt>
      <trkpt lat="69.15037" lon="15.78068">
        <ele>48.022341</ele>
        <time>2020-08-24T10:11:09.278Z</time>
      </trkpt>
      <trkpt lat="69.15159" lon="15.7852">
        <ele>47.693139</ele>
        <time>2020-08-24T10:11:53.272Z</time>
      </trkpt>
      <trkpt lat="69.15276" lon="15.78963">
        <ele>46.444678</ele>
        <time>2020-08-24T10:12:35.300Z</time>
      </trkpt>
      <trkpt lat="69.15415" lon="15.79403">
        <ele>47.564555</ele>
        <time>2020-08-24T10:13:17.277Z</time>
      </trkpt>
      <trkpt lat="69.15572" lon="15.79746">
        <ele>46.671191</ele>
        <time>2020-08-24T10:13:57.272Z</time>
      </trkpt>
      <trkpt lat="69.15729" lon="15.80081">
        <ele>46.064815</ele>
        <time>2020-08-24T10:14:37.290Z</time>
      </trkpt>
      <trkpt lat="69.15891" lon="15.80425">
        <ele>46.340582</ele>
        <time>2020-08-24T10:15:21.287Z</time>
      </trkpt>
      <trkpt lat="69.1604" lon="15.80743">
        <ele>45.578375</ele>
        <time>2020-08-24T10:16:01.305Z</time>
      </trkpt>
      <trkpt lat="69.16206" lon="15.81096">
        <ele>45.116118</ele>
        <time>2020-08-24T10:16:43.285Z</time>
      </trkpt>
      <trkpt lat="69.16372" lon="15.81436">
        <ele>45.255497</ele>
        <time>2020-08-24T10:17:23.321Z</time>
      </trkpt>
      <trkpt lat="69.16567" lon="15.81633">
        <ele>45.437321</ele>
        <time>2020-08-24T10:18:07.300Z</time>
      </trkpt>
      <trkpt lat="69.16801" lon="15.81793">
        <ele>44.310091</ele>
        <time>2020-08-24T10:19:02.283Z</time>
      </trkpt>
      <trkpt lat="69.16998" lon="15.81819">
        <ele>43.066773</ele>
        <time>2020-08-24T10:19:44.280Z</time>
      </trkpt>
      <trkpt lat="69.17234" lon="15.81827">
        <ele>42.750313</ele>
        <time>2020-08-24T10:20:38.310Z</time>
      </trkpt>
      <trkpt lat="69.17464" lon="15.81835">
        <ele>44.007092</ele>
        <time>2020-08-24T10:21:38.279Z</time>
      </trkpt>
      <trkpt lat="69.17697" lon="15.81839">
        <ele>43.580634</ele>
        <time>2020-08-24T10:22:35.272Z</time>
      </trkpt>
      <trkpt lat="69.17903" lon="15.81904">
        <ele>42.309726</ele>
        <time>2020-08-24T10:23:16.275Z</time>
      </trkpt>
      <trkpt lat="69.18134" lon="15.82058">
        <ele>43.694358</ele>
        <time>2020-08-24T10:24:17.286Z</time>
      </trkpt>
      <trkpt lat="69.18333" lon="15.8247">
        <ele>45.377826</ele>
        <time>2020-08-24T10:25:17.302Z</time>
      </trkpt>
      <trkpt lat="69.18513" lon="15.82757">
        <ele>44.120447</ele>
        <time>2020-08-24T10:26:00.299Z</time>
      </trkpt>
      <trkpt lat="69.18712" lon="15.82909">
        <ele>42.139855</ele>
        <time>2020-08-24T10:26:40.292Z</time>
      </trkpt>
      <trkpt lat="69.18938" lon="15.83083">
        <ele>43.165326</ele>
        <time>2020-08-24T10:27:34.287Z</time>
      </trkpt>
      <trkpt lat="69.19144" lon="15.83303">
        <ele>46.55619</ele>
        <time>2020-08-24T10:28:34.286Z</time>
      </trkpt>
      <trkpt lat="69.193" lon="15.83662">
        <ele>45.397129</ele>
        <time>2020-08-24T10:29:14.303Z</time>
      </trkpt>
      <trkpt lat="69.19457" lon="15.84028">
        <ele>44.591549</ele>
        <time>2020-08-24T10:29:54.295Z</time>
      </trkpt>
      <trkpt lat="69.19594" lon="15.84468">
        <ele>46.121348</ele>
        <time>2020-08-24T10:30:36.291Z</time>
      </trkpt>
      <trkpt lat="69.19695" lon="15.85041">
        <ele>47.031897</ele>
        <time>2020-08-24T10:31:26.312Z</time>
      </trkpt>
      <trkpt lat="69.19827" lon="15.85461">
        <ele>45.397902</ele>
        <time>2020-08-24T10:32:08.271Z</time>
      </trkpt>
      <trkpt lat="69.20023" lon="15.85772">
        <ele>45.45854</ele>
        <time>2020-08-24T10:32:59.280Z</time>
      </trkpt>
      <trkpt lat="69.20205" lon="15.86024">
        <ele>45.33679</ele>
        <time>2020-08-24T10:33:39.284Z</time>
      </trkpt>
      <trkpt lat="69.20414" lon="15.86267">
        <ele>45.251338</ele>
        <time>2020-08-24T10:34:31.274Z</time>
      </trkpt>
      <trkpt lat="69.20652" lon="15.86194">
        <ele>43.129269</ele>
        <time>2020-08-24T10:35:31.299Z</time>
      </trkpt>
      <trkpt lat="69.20864" lon="15.86302">
        <ele>43.555011</ele>
        <time>2020-08-24T10:36:21.292Z</time>
      </trkpt>
      <trkpt lat="69.21048" lon="15.86544">
        <ele>44.861608</ele>
        <time>2020-08-24T10:37:09.325Z</time>
      </trkpt>
      <trkpt lat="69.21195" lon="15.86986">
        <ele>47.613897</ele>
        <time>2020-08-24T10:38:06.276Z</time>
      </trkpt>
      <trkpt lat="69.21241" lon="15.87602">
        <ele>50.614878</ele>
        <time>2020-08-24T10:38:50.275Z</time>
      </trkpt>
      <trkpt lat="69.21296" lon="15.88201">
        <ele>54.655046</ele>
        <time>2020-08-24T10:39:41.315Z</time>
      </trkpt>
      <trkpt lat="69.21338" lon="15.88738">
        <ele>52.391191</ele>
        <time>2020-08-24T10:40:21.323Z</time>
      </trkpt>
      <trkpt lat="69.2138" lon="15.89317">
        <ele>55.804204</ele>
        <time>2020-08-24T10:41:05.295Z</time>
      </trkpt>
      <trkpt lat="69.21432" lon="15.89997">
        <ele>61.464944</ele>
        <time>2020-08-24T10:42:08.298Z</time>
      </trkpt>
      <trkpt lat="69.21524" lon="15.90498">
        <ele>63.969575</ele>
        <time>2020-08-24T10:43:25.316Z</time>
      </trkpt>
      <trkpt lat="69.21644" lon="15.91047">
        <ele>64.398268</ele>
        <time>2020-08-24T10:44:20.285Z</time>
      </trkpt>
      <trkpt lat="69.21767" lon="15.91489">
        <ele>62.948653</ele>
        <time>2020-08-24T10:45:02.294Z</time>
      </trkpt>
      <trkpt lat="69.21923" lon="15.91901">
        <ele>63.585867</ele>
        <time>2020-08-24T10:45:49.286Z</time>
      </trkpt>
      <trkpt lat="69.2209" lon="15.9226">
        <ele>64.257636</ele>
        <time>2020-08-24T10:46:31.286Z</time>
      </trkpt>
      <trkpt lat="69.22262" lon="15.92631">
        <ele>63.856415</ele>
        <time>2020-08-24T10:47:11.308Z</time>
      </trkpt>
      <trkpt lat="69.22429" lon="15.92989">
        <ele>62.423992</ele>
        <time>2020-08-24T10:47:51.344Z</time>
      </trkpt>
      <trkpt lat="69.22596" lon="15.9335">
        <ele>63.954345</ele>
        <time>2020-08-24T10:48:31.302Z</time>
      </trkpt>
      <trkpt lat="69.22773" lon="15.93728">
        <ele>68.148531</ele>
        <time>2020-08-24T10:49:18.303Z</time>
      </trkpt>
      <trkpt lat="69.22981" lon="15.94051">
        <ele>77.029471</ele>
        <time>2020-08-24T10:50:18.328Z</time>
      </trkpt>
      <trkpt lat="69.23176" lon="15.94265">
        <ele>83.841346</ele>
        <time>2020-08-24T10:51:32.290Z</time>
      </trkpt>
      <trkpt lat="69.23361" lon="15.94467">
        <ele>95.738288</ele>
        <time>2020-08-24T10:53:27.304Z</time>
      </trkpt>
      <trkpt lat="69.23525" lon="15.94777">
        <ele>103.665626</ele>
        <time>2020-08-24T10:55:14.310Z</time>
      </trkpt>
      <trkpt lat="69.23738" lon="15.95333">
        <ele>102.886328</ele>
        <time>2020-08-24T10:56:10.284Z</time>
      </trkpt>
      <trkpt lat="69.23911" lon="15.95761">
        <ele>100.799793</ele>
        <time>2020-08-24T10:56:43.286Z</time>
      </trkpt>
      <trkpt lat="69.24105" lon="15.96168">
        <ele>88.200732</ele>
        <time>2020-08-24T10:57:12.298Z</time>
      </trkpt>
      <trkpt lat="69.24296" lon="15.96763">
        <ele>75.620067</ele>
        <time>2020-08-24T10:57:51.297Z</time>
      </trkpt>
      <trkpt lat="69.24466" lon="15.97069">
        <ele>72.162864</ele>
        <time>2020-08-24T10:58:16.334Z</time>
      </trkpt>
      <trkpt lat="69.24684" lon="15.96943">
        <ele>71.8527</ele>
        <time>2020-08-24T10:58:56.323Z</time>
      </trkpt>
      <trkpt lat="69.24885" lon="15.96799">
        <ele>74.887905</ele>
        <time>2020-08-24T10:59:36.291Z</time>
      </trkpt>
      <trkpt lat="69.25095" lon="15.96486">
        <ele>74.74347</ele>
        <time>2020-08-24T11:00:27.279Z</time>
      </trkpt>
      <trkpt lat="69.25295" lon="15.96134">
        <ele>73.203924</ele>
        <time>2020-08-24T11:01:11.328Z</time>
      </trkpt>
      <trkpt lat="69.25478" lon="15.95756">
        <ele>73.695162</ele>
        <time>2020-08-24T11:04:44.311Z</time>
      </trkpt>
      <trkpt lat="69.25619" lon="15.96021">
        <ele>71.032053</ele>
        <time>2020-08-24T11:05:32.307Z</time>
      </trkpt>
      <trkpt lat="69.25746" lon="15.96518">
        <ele>73.799386</ele>
        <time>2020-08-24T11:06:25.289Z</time>
      </trkpt>
      <trkpt lat="69.25959" lon="15.96531">
        <ele>84.062301</ele>
        <time>2020-08-24T11:07:39.285Z</time>
      </trkpt>
      <trkpt lat="69.26209" lon="15.96296">
        <ele>73.29948</ele>
        <time>2020-08-24T11:08:22.296Z</time>
      </trkpt>
      <trkpt lat="69.26348" lon="15.9589">
        <ele>76.977593</ele>
        <time>2020-08-24T11:09:22.308Z</time>
      </trkpt>
      <trkpt lat="69.26553" lon="15.95753">
        <ele>75.007996</ele>
        <time>2020-08-24T11:10:03.284Z</time>
      </trkpt>
      <trkpt lat="69.26788" lon="15.96035">
        <ele>65.39402</ele>
        <time>2020-08-24T11:10:45.298Z</time>
      </trkpt>
      <trkpt lat="69.27021" lon="15.95835">
        <ele>53.142502</ele>
        <time>2020-08-24T11:11:25.330Z</time>
      </trkpt>
      <trkpt lat="69.27209" lon="15.95826">
        <ele>46.957912</ele>
        <time>2020-08-24T11:12:07.319Z</time>
      </trkpt>
      <trkpt lat="69.27336" lon="15.96505">
        <ele>47.939871</ele>
        <time>2020-08-24T11:12:47.295Z</time>
      </trkpt>
      <trkpt lat="69.27525" lon="15.96884">
        <ele>42.58679</ele>
        <time>2020-08-24T11:13:27.300Z</time>
      </trkpt>
      <trkpt lat="69.27668" lon="15.97252">
        <ele>43.785955</ele>
        <time>2020-08-24T11:14:07.288Z</time>
      </trkpt>
      <trkpt lat="69.27806" lon="15.97675">
        <ele>47.777711</ele>
        <time>2020-08-24T11:14:49.304Z</time>
      </trkpt>
      <trkpt lat="69.27938" lon="15.98072">
        <ele>48.184209</ele>
        <time>2020-08-24T11:15:29.337Z</time>
      </trkpt>
      <trkpt lat="69.2809" lon="15.98532">
        <ele>46.124174</ele>
        <time>2020-08-24T11:16:20.283Z</time>
      </trkpt>
      <trkpt lat="69.28255" lon="15.99012">
        <ele>50.434991</ele>
        <time>2020-08-24T11:17:20.298Z</time>
      </trkpt>
      <trkpt lat="69.28474" lon="15.9899">
        <ele>52.713933</ele>
        <time>2020-08-24T11:18:02.279Z</time>
      </trkpt>
      <trkpt lat="69.28728" lon="15.98934">
        <ele>50.426552</ele>
        <time>2020-08-24T11:18:44.314Z</time>
      </trkpt>
      <trkpt lat="69.28938" lon="15.99092">
        <ele>50.945404</ele>
        <time>2020-08-24T11:19:34.312Z</time>
      </trkpt>
      <trkpt lat="69.29138" lon="15.99258">
        <ele>52.056973</ele>
        <time>2020-08-24T11:20:18.287Z</time>
      </trkpt>
      <trkpt lat="69.29348" lon="15.99477">
        <ele>52.241323</ele>
        <time>2020-08-24T11:21:11.295Z</time>
      </trkpt>
      <trkpt lat="69.29656" lon="15.99376">
        <ele>55.347316</ele>
        <time>2020-08-24T11:22:02.284Z</time>
      </trkpt>
      <trkpt lat="69.29856" lon="15.99507">
        <ele>56.584402</ele>
        <time>2020-08-24T11:22:49.291Z</time>
      </trkpt>
      <trkpt lat="69.29811" lon="16.00158">
        <ele>48.34851</ele>
        <time>2020-08-24T11:23:29.296Z</time>
      </trkpt>
      <trkpt lat="69.29587" lon="16.00529">
        <ele>46.925844</ele>
        <time>2020-08-24T11:24:09.285Z</time>
      </trkpt>
      <trkpt lat="69.29497" lon="16.01135">
        <ele>46.421268</ele>
        <time>2020-08-24T11:24:56.315Z</time>
      </trkpt>
      <trkpt lat="69.29317" lon="16.01699">
        <ele>48.055626</ele>
        <time>2020-08-24T11:25:59.296Z</time>
      </trkpt>
      <trkpt lat="69.29283" lon="16.02302">
        <ele>47.068139</ele>
        <time>2020-08-24T11:26:43.297Z</time>
      </trkpt>
      <trkpt lat="69.29377" lon="16.02838">
        <ele>47.550403</ele>
        <time>2020-08-24T11:27:23.306Z</time>
      </trkpt>
      <trkpt lat="69.29533" lon="16.03234">
        <ele>47.278583</ele>
        <time>2020-08-24T11:28:09.300Z</time>
      </trkpt>
      <trkpt lat="69.29694" lon="16.03665">
        <ele>45.501746</ele>
        <time>2020-08-24T11:28:51.306Z</time>
      </trkpt>
      <trkpt lat="69.29778" lon="16.04357">
        <ele>46.485777</ele>
        <time>2020-08-24T11:29:31.292Z</time>
      </trkpt>
      <trkpt lat="69.2979" lon="16.04997">
        <ele>44.522769</ele>
        <time>2020-08-24T11:30:11.298Z</time>
      </trkpt>
      <trkpt lat="69.29997" lon="16.05314">
        <ele>44.560088</ele>
        <time>2020-08-24T11:30:51.292Z</time>
      </trkpt>
      <trkpt lat="69.30118" lon="16.05826">
        <ele>49.262309</ele>
        <time>2020-08-24T11:31:46.295Z</time>
      </trkpt>
      <trkpt lat="69.30286" lon="16.06351">
        <ele>44.562394</ele>
        <time>2020-08-24T11:32:30.304Z</time>
      </trkpt>
      <trkpt lat="69.30374" lon="16.06947">
        <ele>44.913863</ele>
        <time>2020-08-24T11:34:44.300Z</time>
      </trkpt>
    </trkseg>
  </trk>
  <trk>
    <name><![CDATA[Tour d'Europe: étape 058]]></name>
    <trkseg>
      <trkpt lat="69.30392" lon="16.06927">
        <ele>43.877157</ele>
        <time>2020-08-25T06:14:33.420Z</time>
      </trkpt>
      <trkpt lat="69.30434" lon="16.07526">
        <ele>44.52514</ele>
        <time>2020-08-25T06:15:17.412Z</time>
      </trkpt>
      <trkpt lat="69.30605" lon="16.07926">
        <ele>43.483095</ele>
        <time>2020-08-25T06:15:57.439Z</time>
      </trkpt>
      <trkpt lat="69.3076" lon="16.08352">
        <ele>43.430867</ele>
        <time>2020-08-25T06:16:37.429Z</time>
      </trkpt>
      <trkpt lat="69.30915" lon="16.08835">
        <ele>43.978726</ele>
        <time>2020-08-25T06:17:17.418Z</time>
      </trkpt>
      <trkpt lat="69.31024" lon="16.09397">
        <ele>45.513249</ele>
        <time>2020-08-25T06:18:02.447Z</time>
      </trkpt>
      <trkpt lat="69.31099" lon="16.1002">
        <ele>45.202423</ele>
        <time>2020-08-25T06:18:42.429Z</time>
      </trkpt>
      <trkpt lat="69.31117" lon="16.10671">
        <ele>45.854402</ele>
        <time>2020-08-25T06:19:24.427Z</time>
      </trkpt>
      <trkpt lat="69.31151" lon="16.11207">
        <ele>47.902846</ele>
        <time>2020-08-25T06:20:05.437Z</time>
      </trkpt>
      <trkpt lat="69.31214" lon="16.1179">
        <ele>46.896303</ele>
        <time>2020-08-25T06:20:45.428Z</time>
      </trkpt>
      <trkpt lat="69.3142" lon="16.11944">
        <ele>47.024109</ele>
        <time>2020-08-25T06:21:31.421Z</time>
      </trkpt>
      <trkpt lat="69.31623" lon="16.12009">
        <ele>47.029226</ele>
        <time>2020-08-25T06:22:12.434Z</time>
      </trkpt>
      <trkpt lat="69.3183" lon="16.12136">
        <ele>47.008181</ele>
        <time>2020-08-25T06:22:52.433Z</time>
      </trkpt>
      <trkpt lat="69.32036" lon="16.12345">
        <ele>48.709271</ele>
        <time>2020-08-25T06:23:32.459Z</time>
      </trkpt>
      <trkpt lat="69.32059" lon="16.12844">
        <ele>45.564384</ele>
        <time>2020-08-25T06:24:14.436Z</time>
      </trkpt>
      <trkpt lat="69.32216" lon="16.13137">
        <ele>38.93719</ele>
        <time>2020-08-25T06:24:54.439Z</time>
      </trkpt>
      <trkpt lat="69.32396" lon="16.1327">
        <ele>38.016615</ele>
        <time>2020-08-25T06:25:34.435Z</time>
      </trkpt>
      <trkpt lat="69.326" lon="16.13159">
        <ele>35.991367</ele>
        <time>2020-08-25T06:26:21.433Z</time>
      </trkpt>
      <trkpt lat="69.32704" lon="16.13612">
        <ele>46.639483</ele>
        <time>2020-08-25T06:46:19.778Z</time>
      </trkpt>
      <trkpt lat="69.32685" lon="16.14159">
        <ele>54.481052</ele>
        <time>2020-08-25T06:48:42.775Z</time>
      </trkpt>
      <trkpt lat="69.32594" lon="16.14764">
        <ele>57.678762</ele>
        <time>2020-08-25T06:49:53.760Z</time>
      </trkpt>
      <trkpt lat="69.32505" lon="16.15319">
        <ele>57.856545</ele>
        <time>2020-08-25T06:50:43.804Z</time>
      </trkpt>
      <trkpt lat="69.32473" lon="16.15906">
        <ele>53.452419</ele>
        <time>2020-08-25T06:51:25.788Z</time>
      </trkpt>
      <trkpt lat="69.32487" lon="16.16505">
        <ele>44.991979</ele>
        <time>2020-08-25T06:52:06.790Z</time>
      </trkpt>
      <trkpt lat="69.32504" lon="16.17103">
        <ele>47.255851</ele>
        <time>2020-08-25T06:52:46.776Z</time>
      </trkpt>
      <trkpt lat="69.32522" lon="16.17701">
        <ele>50.363578</ele>
        <time>2020-08-25T06:53:26.873Z</time>
      </trkpt>
      <trkpt lat="69.32545" lon="16.18304">
        <ele>55.077387</ele>
        <time>2020-08-25T06:54:07.758Z</time>
      </trkpt>
      <trkpt lat="69.32563" lon="16.18906">
        <ele>54.949741</ele>
        <time>2020-08-25T06:54:47.788Z</time>
      </trkpt>
      <trkpt lat="69.32581" lon="16.19514">
        <ele>53.288224</ele>
        <time>2020-08-25T06:55:27.772Z</time>
      </trkpt>
      <trkpt lat="69.32604" lon="16.20092">
        <ele>47.857925</ele>
        <time>2020-08-25T06:56:07.791Z</time>
      </trkpt>
      <trkpt lat="69.32625" lon="16.20686">
        <ele>43.133998</ele>
        <time>2020-08-25T06:56:47.777Z</time>
      </trkpt>
      <trkpt lat="69.32652" lon="16.21303">
        <ele>48.279686</ele>
        <time>2020-08-25T06:57:30.796Z</time>
      </trkpt>
      <trkpt lat="69.32671" lon="16.21892">
        <ele>52.970981</ele>
        <time>2020-08-25T06:58:10.775Z</time>
      </trkpt>
      <trkpt lat="69.32696" lon="16.22493">
        <ele>57.021957</ele>
        <time>2020-08-25T06:58:50.781Z</time>
      </trkpt>
      <trkpt lat="69.32722" lon="16.23094">
        <ele>54.429999</ele>
        <time>2020-08-25T06:59:32.789Z</time>
      </trkpt>
      <trkpt lat="69.32747" lon="16.23687">
        <ele>53.650199</ele>
        <time>2020-08-25T07:00:12.787Z</time>
      </trkpt>
      <trkpt lat="69.32769" lon="16.24264">
        <ele>57.179572</ele>
        <time>2020-08-25T07:00:53.768Z</time>
      </trkpt>
      <trkpt lat="69.32789" lon="16.24884">
        <ele>55.872844</ele>
        <time>2020-08-25T07:01:33.773Z</time>
      </trkpt>
      <trkpt lat="69.32806" lon="16.25458">
        <ele>54.584173</ele>
        <time>2020-08-25T07:02:13.772Z</time>
      </trkpt>
      <trkpt lat="69.32827" lon="16.26046">
        <ele>56.780117</ele>
        <time>2020-08-25T07:02:53.782Z</time>
      </trkpt>
      <trkpt lat="69.32847" lon="16.26648">
        <ele>58.237181</ele>
        <time>2020-08-25T07:03:34.780Z</time>
      </trkpt>
      <trkpt lat="69.32872" lon="16.27236">
        <ele>56.954727</ele>
        <time>2020-08-25T07:04:15.804Z</time>
      </trkpt>
      <trkpt lat="69.32896" lon="16.27829">
        <ele>54.195495</ele>
        <time>2020-08-25T07:04:55.824Z</time>
      </trkpt>
      <trkpt lat="69.32916" lon="16.28412">
        <ele>52.663136</ele>
        <time>2020-08-25T07:05:36.795Z</time>
      </trkpt>
      <trkpt lat="69.3294" lon="16.29009">
        <ele>57.953184</ele>
        <time>2020-08-25T07:06:17.795Z</time>
      </trkpt>
      <trkpt lat="69.32963" lon="16.29591">
        <ele>63.078477</ele>
        <time>2020-08-25T07:06:57.781Z</time>
      </trkpt>
      <trkpt lat="69.32982" lon="16.30164">
        <ele>59.554304</ele>
        <time>2020-08-25T07:07:37.792Z</time>
      </trkpt>
      <trkpt lat="69.33004" lon="16.30769">
        <ele>55.63946</ele>
        <time>2020-08-25T07:08:19.817Z</time>
      </trkpt>
      <trkpt lat="69.33025" lon="16.3134">
        <ele>51.380647</ele>
        <time>2020-08-25T07:08:59.772Z</time>
      </trkpt>
      <trkpt lat="69.3305" lon="16.31908">
        <ele>50.156998</ele>
        <time>2020-08-25T07:09:39.813Z</time>
      </trkpt>
      <trkpt lat="69.33073" lon="16.32483">
        <ele>49.487012</ele>
        <time>2020-08-25T07:10:19.788Z</time>
      </trkpt>
      <trkpt lat="69.33098" lon="16.33063">
        <ele>49.785522</ele>
        <time>2020-08-25T07:10:59.796Z</time>
      </trkpt>
      <trkpt lat="69.33123" lon="16.33626">
        <ele>51.722639</ele>
        <time>2020-08-25T07:11:39.841Z</time>
      </trkpt>
      <trkpt lat="69.33144" lon="16.34206">
        <ele>50.211012</ele>
        <time>2020-08-25T07:12:19.830Z</time>
      </trkpt>
      <trkpt lat="69.33169" lon="16.3477">
        <ele>46.866467</ele>
        <time>2020-08-25T07:12:59.810Z</time>
      </trkpt>
      <trkpt lat="69.33196" lon="16.35373">
        <ele>43.753017</ele>
        <time>2020-08-25T07:13:41.784Z</time>
      </trkpt>
      <trkpt lat="69.3322" lon="16.35952">
        <ele>45.570919</ele>
        <time>2020-08-25T07:14:21.784Z</time>
      </trkpt>
      <trkpt lat="69.3325" lon="16.36512">
        <ele>48.164962</ele>
        <time>2020-08-25T07:15:01.803Z</time>
      </trkpt>
      <trkpt lat="69.33276" lon="16.37091">
        <ele>46.123207</ele>
        <time>2020-08-25T07:15:43.784Z</time>
      </trkpt>
      <trkpt lat="69.33301" lon="16.37667">
        <ele>46.29376</ele>
        <time>2020-08-25T07:16:23.779Z</time>
      </trkpt>
      <trkpt lat="69.33325" lon="16.38232">
        <ele>46.500813</ele>
        <time>2020-08-25T07:17:03.796Z</time>
      </trkpt>
      <trkpt lat="69.33352" lon="16.38834">
        <ele>46.845624</ele>
        <time>2020-08-25T07:17:45.810Z</time>
      </trkpt>
      <trkpt lat="69.33376" lon="16.39391">
        <ele>46.916685</ele>
        <time>2020-08-25T07:18:25.794Z</time>
      </trkpt>
      <trkpt lat="69.33401" lon="16.39956">
        <ele>44.615854</ele>
        <time>2020-08-25T07:19:05.794Z</time>
      </trkpt>
      <trkpt lat="69.33422" lon="16.40539">
        <ele>44.299042</ele>
        <time>2020-08-25T07:19:46.794Z</time>
      </trkpt>
      <trkpt lat="69.33449" lon="16.41107">
        <ele>42.500558</ele>
        <time>2020-08-25T07:20:26.787Z</time>
      </trkpt>
      <trkpt lat="69.33477" lon="16.41673">
        <ele>41.697784</ele>
        <time>2020-08-25T07:21:06.785Z</time>
      </trkpt>
      <trkpt lat="69.33498" lon="16.42258">
        <ele>38.120743</ele>
        <time>2020-08-25T07:21:46.779Z</time>
      </trkpt>
      <trkpt lat="69.33529" lon="16.42837">
        <ele>36.502233</ele>
        <time>2020-08-25T07:22:27.803Z</time>
      </trkpt>
      <trkpt lat="69.33553" lon="16.43417">
        <ele>44.869804</ele>
        <time>2020-08-25T07:23:07.804Z</time>
      </trkpt>
      <trkpt lat="69.3358" lon="16.43984">
        <ele>46.425103</ele>
        <time>2020-08-25T07:23:47.791Z</time>
      </trkpt>
      <trkpt lat="69.33603" lon="16.44571">
        <ele>47.134425</ele>
        <time>2020-08-25T07:24:27.803Z</time>
      </trkpt>
      <trkpt lat="69.33631" lon="16.45142">
        <ele>48.651958</ele>
        <time>2020-08-25T07:25:07.819Z</time>
      </trkpt>
      <trkpt lat="69.33653" lon="16.45723">
        <ele>44.381002</ele>
        <time>2020-08-25T07:25:47.781Z</time>
      </trkpt>
      <trkpt lat="69.33681" lon="16.46312">
        <ele>37.542404</ele>
        <time>2020-08-25T07:26:29.804Z</time>
      </trkpt>
      <trkpt lat="69.33704" lon="16.46879">
        <ele>35.047179</ele>
        <time>2020-08-25T07:27:09.795Z</time>
      </trkpt>
      <trkpt lat="69.33732" lon="16.47436">
        <ele>40.620378</ele>
        <time>2020-08-25T07:27:49.785Z</time>
      </trkpt>
      <trkpt lat="69.33756" lon="16.47993">
        <ele>41.070585</ele>
        <time>2020-08-25T07:28:29.770Z</time>
      </trkpt>
      <trkpt lat="69.33781" lon="16.48553">
        <ele>41.508251</ele>
        <time>2020-08-25T07:29:09.790Z</time>
      </trkpt>
      <trkpt lat="69.33807" lon="16.49112">
        <ele>41.020991</ele>
        <time>2020-08-25T07:29:49.805Z</time>
      </trkpt>
      <trkpt lat="69.33833" lon="16.49675">
        <ele>41.306215</ele>
        <time>2020-08-25T07:30:29.817Z</time>
      </trkpt>
      <trkpt lat="69.33857" lon="16.5023">
        <ele>41.318373</ele>
        <time>2020-08-25T07:31:09.786Z</time>
      </trkpt>
      <trkpt lat="69.33883" lon="16.50793">
        <ele>40.626346</ele>
        <time>2020-08-25T07:31:49.781Z</time>
      </trkpt>
      <trkpt lat="69.33904" lon="16.5135">
        <ele>42.851868</ele>
        <time>2020-08-25T07:32:29.811Z</time>
      </trkpt>
      <trkpt lat="69.33928" lon="16.51906">
        <ele>46.117831</ele>
        <time>2020-08-25T07:33:09.787Z</time>
      </trkpt>
      <trkpt lat="69.33959" lon="16.52472">
        <ele>45.379154</ele>
        <time>2020-08-25T07:33:50.795Z</time>
      </trkpt>
      <trkpt lat="69.33978" lon="16.53062">
        <ele>46.280009</ele>
        <time>2020-08-25T07:34:31.783Z</time>
      </trkpt>
      <trkpt lat="69.34" lon="16.53629">
        <ele>45.538178</ele>
        <time>2020-08-25T07:35:11.808Z</time>
      </trkpt>
      <trkpt lat="69.34023" lon="16.54221">
        <ele>42.95125</ele>
        <time>2020-08-25T07:35:53.780Z</time>
      </trkpt>
      <trkpt lat="69.34041" lon="16.54774">
        <ele>41.729282</ele>
        <time>2020-08-25T07:36:33.775Z</time>
      </trkpt>
      <trkpt lat="69.34064" lon="16.55338">
        <ele>41.666624</ele>
        <time>2020-08-25T07:37:14.794Z</time>
      </trkpt>
      <trkpt lat="69.34087" lon="16.5597">
        <ele>48.448594</ele>
        <time>2020-08-25T07:37:58.797Z</time>
      </trkpt>
      <trkpt lat="69.34108" lon="16.56585">
        <ele>53.916768</ele>
        <time>2020-08-25T07:38:42.780Z</time>
      </trkpt>
      <trkpt lat="69.34124" lon="16.57196">
        <ele>52.837293</ele>
        <time>2020-08-25T07:39:25.768Z</time>
      </trkpt>
      <trkpt lat="69.34226" lon="16.61618">
        <ele>37.185066</ele>
        <time>2020-08-25T07:44:33.256Z</time>
      </trkpt>
      <trkpt lat="69.34241" lon="16.62174">
        <ele>46.654863</ele>
        <time>2020-08-25T07:45:15.592Z</time>
      </trkpt>
      <trkpt lat="69.34257" lon="16.62819">
        <ele>54.304029</ele>
        <time>2020-08-25T07:46:00.604Z</time>
      </trkpt>
      <trkpt lat="69.34273" lon="16.63421">
        <ele>56.637691</ele>
        <time>2020-08-25T07:46:41.578Z</time>
      </trkpt>
      <trkpt lat="69.35034" lon="16.92046">
        <ele>58.099702</ele>
        <time>2020-08-25T08:18:38.488Z</time>
      </trkpt>
      <trkpt lat="69.35119" lon="16.93111">
        <ele>58.239482</ele>
        <time>2020-08-25T08:19:49.483Z</time>
      </trkpt>
      <trkpt lat="69.35161" lon="16.93875">
        <ele>56.983095</ele>
        <time>2020-08-25T08:20:41.512Z</time>
      </trkpt>
      <trkpt lat="69.35213" lon="16.9464">
        <ele>51.509602</ele>
        <time>2020-08-25T08:21:31.498Z</time>
      </trkpt>
      <trkpt lat="69.35244" lon="16.95222">
        <ele>49.35449</ele>
        <time>2020-08-25T08:22:11.475Z</time>
      </trkpt>
      <trkpt lat="69.35273" lon="16.9583">
        <ele>50.108123</ele>
        <time>2020-08-25T08:22:55.505Z</time>
      </trkpt>
      <trkpt lat="69.35321" lon="16.96541">
        <ele>49.756116</ele>
        <time>2020-08-25T08:23:44.503Z</time>
      </trkpt>
      <trkpt lat="69.35356" lon="16.97222">
        <ele>47.163718</ele>
        <time>2020-08-25T08:24:28.487Z</time>
      </trkpt>
      <trkpt lat="69.35685" lon="16.99925">
        <ele>60.805901</ele>
        <time>2020-08-25T08:27:42.696Z</time>
      </trkpt>
      <trkpt lat="69.35804" lon="17.00402">
        <ele>50.741809</ele>
        <time>2020-08-25T08:28:22.754Z</time>
      </trkpt>
      <trkpt lat="69.35927" lon="17.00894">
        <ele>50.059218</ele>
        <time>2020-08-25T08:29:02.715Z</time>
      </trkpt>
      <trkpt lat="69.36053" lon="17.01372">
        <ele>51.931858</ele>
        <time>2020-08-25T08:29:42.703Z</time>
      </trkpt>
      <trkpt lat="69.36193" lon="17.01861">
        <ele>54.549185</ele>
        <time>2020-08-25T08:30:23.733Z</time>
      </trkpt>
      <trkpt lat="69.36342" lon="17.02367">
        <ele>46.984765</ele>
        <time>2020-08-25T08:31:08.729Z</time>
      </trkpt>
      <trkpt lat="69.36522" lon="17.02957">
        <ele>45.261449</ele>
        <time>2020-08-25T08:32:12.702Z</time>
      </trkpt>
      <trkpt lat="69.3661" lon="17.03795">
        <ele>42.894664</ele>
        <time>2020-08-25T08:33:54.204Z</time>
      </trkpt>
      <trkpt lat="69.36537" lon="17.04348">
        <ele>37.432477</ele>
        <time>2020-08-25T08:35:06.182Z</time>
      </trkpt>
      <trkpt lat="69.36459" lon="17.04911">
        <ele>44.894251</ele>
        <time>2020-08-25T08:36:48.208Z</time>
      </trkpt>
      <trkpt lat="69.36297" lon="17.05304">
        <ele>38.059733</ele>
        <time>2020-08-25T08:45:27.191Z</time>
      </trkpt>
      <trkpt lat="69.36235" lon="17.05864">
        <ele>39.06901</ele>
        <time>2020-08-25T08:46:08.192Z</time>
      </trkpt>
      <trkpt lat="69.36186" lon="17.06439">
        <ele>39.864273</ele>
        <time>2020-08-25T08:46:49.165Z</time>
      </trkpt>
      <trkpt lat="69.36107" lon="17.06993">
        <ele>41.928051</ele>
        <time>2020-08-25T08:47:32.160Z</time>
      </trkpt>
      <trkpt lat="69.36063" lon="17.0766">
        <ele>43.478267</ele>
        <time>2020-08-25T08:48:28.191Z</time>
      </trkpt>
      <trkpt lat="69.35945" lon="17.0813">
        <ele>43.823812</ele>
        <time>2020-08-25T08:49:12.186Z</time>
      </trkpt>
      <trkpt lat="69.35827" lon="17.08582">
        <ele>44.954278</ele>
        <time>2020-08-25T08:49:58.188Z</time>
      </trkpt>
      <trkpt lat="69.35741" lon="17.09104">
        <ele>55.401161</ele>
        <time>2020-08-25T08:51:15.185Z</time>
      </trkpt>
      <trkpt lat="69.35679" lon="17.09688">
        <ele>63.160246</ele>
        <time>2020-08-25T08:52:32.166Z</time>
      </trkpt>
      <trkpt lat="69.35666" lon="17.10356">
        <ele>57.254383</ele>
        <time>2020-08-25T08:53:07.194Z</time>
      </trkpt>
      <trkpt lat="69.35627" lon="17.11064">
        <ele>47.376574</ele>
        <time>2020-08-25T08:53:33.215Z</time>
      </trkpt>
      <trkpt lat="69.35584" lon="17.11701">
        <ele>43.538732</ele>
        <time>2020-08-25T08:54:06.196Z</time>
      </trkpt>
      <trkpt lat="69.35576" lon="17.12361">
        <ele>41.783868</ele>
        <time>2020-08-25T08:54:46.183Z</time>
      </trkpt>
      <trkpt lat="69.35801" lon="17.12566">
        <ele>46.972965</ele>
        <time>2020-08-25T08:55:43.173Z</time>
      </trkpt>
      <trkpt lat="69.36821" lon="17.13119">
        <ele>62.525573</ele>
        <time>2020-08-25T09:03:30.249Z</time>
      </trkpt>
      <trkpt lat="69.37094" lon="17.12961">
        <ele>80.332806</ele>
        <time>2020-08-25T09:04:11.188Z</time>
      </trkpt>
      <trkpt lat="69.37307" lon="17.12723">
        <ele>67.208537</ele>
        <time>2020-08-25T09:04:34.233Z</time>
      </trkpt>
      <trkpt lat="69.37526" lon="17.12478">
        <ele>53.427548</ele>
        <time>2020-08-25T09:04:54.187Z</time>
      </trkpt>
      <trkpt lat="69.37716" lon="17.12264">
        <ele>45.380555</ele>
        <time>2020-08-25T09:05:14.232Z</time>
      </trkpt>
      <trkpt lat="69.37961" lon="17.11995">
        <ele>40.770035</ele>
        <time>2020-08-25T09:05:51.204Z</time>
      </trkpt>
      <trkpt lat="69.38174" lon="17.11763">
        <ele>44.19999</ele>
        <time>2020-08-25T09:06:31.184Z</time>
      </trkpt>
      <trkpt lat="69.3837" lon="17.11657">
        <ele>43.571474</ele>
        <time>2020-08-25T09:07:11.176Z</time>
      </trkpt>
      <trkpt lat="69.38566" lon="17.11874">
        <ele>45.064107</ele>
        <time>2020-08-25T09:08:03.188Z</time>
      </trkpt>
      <trkpt lat="69.38755" lon="17.12204">
        <ele>46.489164</ele>
        <time>2020-08-25T09:08:59.191Z</time>
      </trkpt>
      <trkpt lat="69.38922" lon="17.12499">
        <ele>45.973868</ele>
        <time>2020-08-25T09:09:39.191Z</time>
      </trkpt>
      <trkpt lat="69.3911" lon="17.12714">
        <ele>47.479393</ele>
        <time>2020-08-25T09:10:20.230Z</time>
      </trkpt>
      <trkpt lat="69.39335" lon="17.12879">
        <ele>48.488276</ele>
        <time>2020-08-25T09:11:05.226Z</time>
      </trkpt>
      <trkpt lat="69.39556" lon="17.1295">
        <ele>49.277778</ele>
        <time>2020-08-25T09:11:52.191Z</time>
      </trkpt>
      <trkpt lat="69.39799" lon="17.12978">
        <ele>49.294414</ele>
        <time>2020-08-25T09:12:39.204Z</time>
      </trkpt>
      <trkpt lat="69.40039" lon="17.12973">
        <ele>46.37067</ele>
        <time>2020-08-25T09:13:20.210Z</time>
      </trkpt>
      <trkpt lat="69.40257" lon="17.12959">
        <ele>52.076527</ele>
        <time>2020-08-25T09:14:16.209Z</time>
      </trkpt>
      <trkpt lat="69.40449" lon="17.13191">
        <ele>56.112002</ele>
        <time>2020-08-25T09:15:26.203Z</time>
      </trkpt>
      <trkpt lat="69.40618" lon="17.1358">
        <ele>58.474815</ele>
        <time>2020-08-25T09:16:16.215Z</time>
      </trkpt>
      <trkpt lat="69.40761" lon="17.14149">
        <ele>52.81829</ele>
        <time>2020-08-25T09:17:00.198Z</time>
      </trkpt>
      <trkpt lat="69.40942" lon="17.14636">
        <ele>51.010365</ele>
        <time>2020-08-25T09:17:38.232Z</time>
      </trkpt>
      <trkpt lat="69.41094" lon="17.15035">
        <ele>53.722029</ele>
        <time>2020-08-25T09:18:27.206Z</time>
      </trkpt>
      <trkpt lat="69.41259" lon="17.15286">
        <ele>53.071495</ele>
        <time>2020-08-25T09:19:37.198Z</time>
      </trkpt>
      <trkpt lat="69.41276" lon="17.1587">
        <ele>46.8541</ele>
        <time>2020-08-25T09:20:21.180Z</time>
      </trkpt>
      <trkpt lat="69.41327" lon="17.16396">
        <ele>40.70023</ele>
        <time>2020-08-25T09:20:52.247Z</time>
      </trkpt>
      <trkpt lat="69.41479" lon="17.16787">
        <ele>47.874576</ele>
        <time>2020-08-25T09:22:06.249Z</time>
      </trkpt>
      <trkpt lat="69.41471" lon="17.17415">
        <ele>55.090629</ele>
        <time>2020-08-25T09:23:31.209Z</time>
      </trkpt>
      <trkpt lat="69.41344" lon="17.17905">
        <ele>59.636299</ele>
        <time>2020-08-25T09:24:37.194Z</time>
      </trkpt>
      <trkpt lat="69.4112" lon="17.18281">
        <ele>46.418054</ele>
        <time>2020-08-25T09:25:17.190Z</time>
      </trkpt>
      <trkpt lat="69.4102" lon="17.18836">
        <ele>39.033606</ele>
        <time>2020-08-25T09:26:00.201Z</time>
      </trkpt>
      <trkpt lat="69.41102" lon="17.1936">
        <ele>43.647512</ele>
        <time>2020-08-25T09:26:58.188Z</time>
      </trkpt>
      <trkpt lat="69.41079" lon="17.19887">
        <ele>49.981205</ele>
        <time>2020-08-25T09:27:57.194Z</time>
      </trkpt>
      <trkpt lat="69.41177" lon="17.20444">
        <ele>47.345201</ele>
        <time>2020-08-25T09:28:50.229Z</time>
      </trkpt>
      <trkpt lat="69.41367" lon="17.20864">
        <ele>51.852168</ele>
        <time>2020-08-25T09:30:02.208Z</time>
      </trkpt>
      <trkpt lat="69.41466" lon="17.21349">
        <ele>60.735072</ele>
        <time>2020-08-25T09:31:36.198Z</time>
      </trkpt>
      <trkpt lat="69.41475" lon="17.21975">
        <ele>55.722725</ele>
        <time>2020-08-25T09:32:22.234Z</time>
      </trkpt>
      <trkpt lat="69.41339" lon="17.22492">
        <ele>46.468733</ele>
        <time>2020-08-25T09:32:47.210Z</time>
      </trkpt>
      <trkpt lat="69.41282" lon="17.23086">
        <ele>40.220797</ele>
        <time>2020-08-25T09:33:15.200Z</time>
      </trkpt>
      <trkpt lat="69.41331" lon="17.23666">
        <ele>49.482454</ele>
        <time>2020-08-25T09:34:28.205Z</time>
      </trkpt>
      <trkpt lat="69.41229" lon="17.24332">
        <ele>46.08456</ele>
        <time>2020-08-25T09:35:15.228Z</time>
      </trkpt>
      <trkpt lat="69.41185" lon="17.25012">
        <ele>38.429097</ele>
        <time>2020-08-25T09:35:49.220Z</time>
      </trkpt>
      <trkpt lat="69.41276" lon="17.25568">
        <ele>41.272253</ele>
        <time>2020-08-25T09:36:35.186Z</time>
      </trkpt>
      <trkpt lat="69.41219" lon="17.26095">
        <ele>47.211393</ele>
        <time>2020-08-25T09:37:36.221Z</time>
      </trkpt>
      <trkpt lat="69.41038" lon="17.26435">
        <ele>49.516772</ele>
        <time>2020-08-25T09:38:21.188Z</time>
      </trkpt>
      <trkpt lat="69.40863" lon="17.26816">
        <ele>51.128027</ele>
        <time>2020-08-25T09:39:14.205Z</time>
      </trkpt>
      <trkpt lat="69.40653" lon="17.27205">
        <ele>45.510202</ele>
        <time>2020-08-25T09:40:01.227Z</time>
      </trkpt>
      <trkpt lat="69.40468" lon="17.27623">
        <ele>39.805544</ele>
        <time>2020-08-25T09:40:41.185Z</time>
      </trkpt>
      <trkpt lat="69.40257" lon="17.2807">
        <ele>37.041627</ele>
        <time>2020-08-25T09:41:21.224Z</time>
      </trkpt>
      <trkpt lat="69.40199" lon="17.28501">
        <ele>40.067851</ele>
        <time>2020-08-25T09:42:02.216Z</time>
      </trkpt>
      <trkpt lat="69.40386" lon="17.28648">
        <ele>38.812393</ele>
        <time>2020-08-25T09:42:54.241Z</time>
      </trkpt>
      <trkpt lat="69.40326" lon="17.29213">
        <ele>37.57053</ele>
        <time>2020-08-25T09:43:39.204Z</time>
      </trkpt>
      <trkpt lat="69.40259" lon="17.29783">
        <ele>38.81024</ele>
        <time>2020-08-25T09:44:25.201Z</time>
      </trkpt>
      <trkpt lat="69.40178" lon="17.30406">
        <ele>42.746466</ele>
        <time>2020-08-25T09:50:11.209Z</time>
      </trkpt>
      <trkpt lat="69.40134" lon="17.31092">
        <ele>40.964302</ele>
        <time>2020-08-25T09:50:56.195Z</time>
      </trkpt>
      <trkpt lat="69.40019" lon="17.31605">
        <ele>42.402928</ele>
        <time>2020-08-25T09:51:42.209Z</time>
      </trkpt>
      <trkpt lat="69.3987" lon="17.32217">
        <ele>39.760691</ele>
        <time>2020-08-25T09:52:22.193Z</time>
      </trkpt>
      <trkpt lat="69.39744" lon="17.32733">
        <ele>39.990346</ele>
        <time>2020-08-25T09:53:02.208Z</time>
      </trkpt>
      <trkpt lat="69.39638" lon="17.33297">
        <ele>41.670935</ele>
        <time>2020-08-25T09:53:42.205Z</time>
      </trkpt>
      <trkpt lat="69.39569" lon="17.33853">
        <ele>52.280734</ele>
        <time>2020-08-25T09:54:56.215Z</time>
      </trkpt>
      <trkpt lat="69.39504" lon="17.344">
        <ele>63.804333</ele>
        <time>2020-08-25T09:56:45.205Z</time>
      </trkpt>
      <trkpt lat="69.39486" lon="17.34996">
        <ele>57.992253</ele>
        <time>2020-08-25T09:57:33.199Z</time>
      </trkpt>
      <trkpt lat="69.39501" lon="17.35629">
        <ele>61.587907</ele>
        <time>2020-08-25T09:58:33.217Z</time>
      </trkpt>
      <trkpt lat="69.39475" lon="17.36265">
        <ele>58.984671</ele>
        <time>2020-08-25T09:59:09.193Z</time>
      </trkpt>
      <trkpt lat="69.39378" lon="17.36884">
        <ele>41.963799</ele>
        <time>2020-08-25T09:59:48.196Z</time>
      </trkpt>
      <trkpt lat="69.39249" lon="17.37327">
        <ele>38.144502</ele>
        <time>2020-08-25T10:00:29.208Z</time>
      </trkpt>
      <trkpt lat="69.39112" lon="17.37792">
        <ele>39.072706</ele>
        <time>2020-08-25T10:01:15.214Z</time>
      </trkpt>
      <trkpt lat="69.39017" lon="17.38437">
        <ele>40.804807</ele>
        <time>2020-08-25T10:01:57.230Z</time>
      </trkpt>
      <trkpt lat="69.39029" lon="17.39075">
        <ele>42.63377</ele>
        <time>2020-08-25T10:02:37.213Z</time>
      </trkpt>
      <trkpt lat="69.38954" lon="17.39633">
        <ele>44.205587</ele>
        <time>2020-08-25T10:03:17.220Z</time>
      </trkpt>
      <trkpt lat="69.38991" lon="17.39748">
        <ele>50.932042</ele>
        <time>2020-08-25T10:04:28.228Z</time>
      </trkpt>
      <trkpt lat="69.39149" lon="17.39924">
        <ele>68.818297</ele>
        <time>2020-08-25T10:06:43.201Z</time>
      </trkpt>
      <trkpt lat="69.39106" lon="17.40478">
        <ele>83.631031</ele>
        <time>2020-08-25T10:08:31.194Z</time>
      </trkpt>
      <trkpt lat="69.39103" lon="17.41021">
        <ele>98.084306</ele>
        <time>2020-08-25T10:10:32.193Z</time>
      </trkpt>
      <trkpt lat="69.39091" lon="17.41577">
        <ele>108.101023</ele>
        <time>2020-08-25T10:12:42.233Z</time>
      </trkpt>
      <trkpt lat="69.39088" lon="17.42138">
        <ele>115.134253</ele>
        <time>2020-08-25T10:14:06.186Z</time>
      </trkpt>
      <trkpt lat="69.39103" lon="17.42695">
        <ele>132.021984</ele>
        <time>2020-08-25T10:16:04.261Z</time>
      </trkpt>
      <trkpt lat="69.39133" lon="17.43228">
        <ele>151.396776</ele>
        <time>2020-08-25T10:18:21.202Z</time>
      </trkpt>
      <trkpt lat="69.39179" lon="17.4376">
        <ele>168.445334</ele>
        <time>2020-08-25T10:20:46.213Z</time>
      </trkpt>
      <trkpt lat="69.39239" lon="17.44272">
        <ele>185.422593</ele>
        <time>2020-08-25T10:23:07.232Z</time>
      </trkpt>
      <trkpt lat="69.39313" lon="17.44771">
        <ele>207.534244</ele>
        <time>2020-08-25T10:25:40.205Z</time>
      </trkpt>
      <trkpt lat="69.39393" lon="17.45298">
        <ele>229.27976</ele>
        <time>2020-08-25T10:28:21.235Z</time>
      </trkpt>
      <trkpt lat="69.39472" lon="17.45813">
        <ele>246.359242</ele>
        <time>2020-08-25T10:33:54.222Z</time>
      </trkpt>
      <trkpt lat="69.39548" lon="17.46321">
        <ele>260.227178</ele>
        <time>2020-08-25T10:35:59.208Z</time>
      </trkpt>
      <trkpt lat="69.39589" lon="17.46858">
        <ele>275.459057</ele>
        <time>2020-08-25T10:38:07.223Z</time>
      </trkpt>
      <trkpt lat="69.39535" lon="17.4738">
        <ele>296.915236</ele>
        <time>2020-08-25T10:40:34.207Z</time>
      </trkpt>
      <trkpt lat="69.39504" lon="17.47903">
        <ele>311.859872</ele>
        <time>2020-08-25T10:43:03.245Z</time>
      </trkpt>
      <trkpt lat="69.39629" lon="17.48397">
        <ele>319.948233</ele>
        <time>2020-08-25T10:45:43.218Z</time>
      </trkpt>
      <trkpt lat="69.39714" lon="17.48953">
        <ele>321.475712</ele>
        <time>2020-08-25T10:46:34.271Z</time>
      </trkpt>
      <trkpt lat="69.41235" lon="17.5173">
        <ele>235.733428</ele>
        <time>2020-08-25T10:50:22.225Z</time>
      </trkpt>
      <trkpt lat="69.41446" lon="17.5144">
        <ele>203.824115</ele>
        <time>2020-08-25T10:50:49.205Z</time>
      </trkpt>
      <trkpt lat="69.41677" lon="17.51284">
        <ele>189.114899</ele>
        <time>2020-08-25T10:51:29.201Z</time>
      </trkpt>
      <trkpt lat="69.41798" lon="17.50735">
        <ele>166.406979</ele>
        <time>2020-08-25T10:51:58.244Z</time>
      </trkpt>
      <trkpt lat="69.42062" lon="17.50586">
        <ele>139.86173</ele>
        <time>2020-08-25T10:52:30.215Z</time>
      </trkpt>
      <trkpt lat="69.42264" lon="17.50343">
        <ele>125.627175</ele>
        <time>2020-08-25T10:56:02.250Z</time>
      </trkpt>
      <trkpt lat="69.42091" lon="17.50108">
        <ele>119.777761</ele>
        <time>2020-08-25T10:56:46.201Z</time>
      </trkpt>
      <trkpt lat="69.4229" lon="17.50281">
        <ele>106.21632</ele>
        <time>2020-08-25T10:57:18.243Z</time>
      </trkpt>
      <trkpt lat="69.42547" lon="17.50172">
        <ele>80.8786</ele>
        <time>2020-08-25T10:57:39.204Z</time>
      </trkpt>
      <trkpt lat="69.42755" lon="17.498">
        <ele>60.899824</ele>
        <time>2020-08-25T10:58:00.207Z</time>
      </trkpt>
      <trkpt lat="69.42963" lon="17.49438">
        <ele>45.380037</ele>
        <time>2020-08-25T10:58:21.230Z</time>
      </trkpt>
      <trkpt lat="69.43168" lon="17.4918">
        <ele>41.047632</ele>
        <time>2020-08-25T10:58:43.225Z</time>
      </trkpt>
      <trkpt lat="69.43342" lon="17.48627">
        <ele>41.290318</ele>
        <time>2020-08-25T10:59:23.220Z</time>
      </trkpt>
      <trkpt lat="69.43483" lon="17.48075">
        <ele>41.139826</ele>
        <time>2020-08-25T11:00:03.218Z</time>
      </trkpt>
      <trkpt lat="69.43598" lon="17.47515">
        <ele>45.128177</ele>
        <time>2020-08-25T11:00:50.208Z</time>
      </trkpt>
      <trkpt lat="69.43786" lon="17.47246">
        <ele>52.354061</ele>
        <time>2020-08-25T11:01:58.216Z</time>
      </trkpt>
      <trkpt lat="69.43931" lon="17.46812">
        <ele>54.651977</ele>
        <time>2020-08-25T11:02:59.262Z</time>
      </trkpt>
      <trkpt lat="69.44026" lon="17.46297">
        <ele>52.824294</ele>
        <time>2020-08-25T11:03:45.212Z</time>
      </trkpt>
      <trkpt lat="69.44109" lon="17.45756">
        <ele>51.833512</ele>
        <time>2020-08-25T11:04:25.260Z</time>
      </trkpt>
      <trkpt lat="69.4418" lon="17.45171">
        <ele>51.297557</ele>
        <time>2020-08-25T11:05:07.210Z</time>
      </trkpt>
      <trkpt lat="69.44197" lon="17.44475">
        <ele>47.670718</ele>
        <time>2020-08-25T11:05:47.210Z</time>
      </trkpt>
      <trkpt lat="69.44227" lon="17.43782">
        <ele>48.491805</ele>
        <time>2020-08-25T11:06:27.217Z</time>
      </trkpt>
      <trkpt lat="69.44213" lon="17.43119">
        <ele>45.639719</ele>
        <time>2020-08-25T11:07:07.203Z</time>
      </trkpt>
      <trkpt lat="69.44182" lon="17.425">
        <ele>46.578275</ele>
        <time>2020-08-25T11:07:47.214Z</time>
      </trkpt>
      <trkpt lat="69.44117" lon="17.41901">
        <ele>53.922175</ele>
        <time>2020-08-25T11:08:51.224Z</time>
      </trkpt>
      <trkpt lat="69.44023" lon="17.41355">
        <ele>43.788956</ele>
        <time>2020-08-25T11:09:31.225Z</time>
      </trkpt>
      <trkpt lat="69.43908" lon="17.4083">
        <ele>44.593612</ele>
        <time>2020-08-25T11:10:18.222Z</time>
      </trkpt>
      <trkpt lat="69.43797" lon="17.4032">
        <ele>54.74813</ele>
        <time>2020-08-25T11:11:20.223Z</time>
      </trkpt>
      <trkpt lat="69.43679" lon="17.39827">
        <ele>55.811022</ele>
        <time>2020-08-25T11:12:06.204Z</time>
      </trkpt>
      <trkpt lat="69.43541" lon="17.39218">
        <ele>46.945165</ele>
        <time>2020-08-25T11:12:46.212Z</time>
      </trkpt>
      <trkpt lat="69.43519" lon="17.38563">
        <ele>43.173989</ele>
        <time>2020-08-25T11:13:34.230Z</time>
      </trkpt>
      <trkpt lat="69.43537" lon="17.37909">
        <ele>48.657321</ele>
        <time>2020-08-25T11:14:23.225Z</time>
      </trkpt>
      <trkpt lat="69.43606" lon="17.37221">
        <ele>50.145441</ele>
        <time>2020-08-25T11:15:21.215Z</time>
      </trkpt>
      <trkpt lat="69.43672" lon="17.36575">
        <ele>51.007173</ele>
        <time>2020-08-25T11:16:20.224Z</time>
      </trkpt>
      <trkpt lat="69.43786" lon="17.36061">
        <ele>58.547301</ele>
        <time>2020-08-25T11:17:47.201Z</time>
      </trkpt>
      <trkpt lat="69.43916" lon="17.35618">
        <ele>60.087005</ele>
        <time>2020-08-25T11:18:35.245Z</time>
      </trkpt>
      <trkpt lat="69.44058" lon="17.35177">
        <ele>60.576527</ele>
        <time>2020-08-25T11:19:23.222Z</time>
      </trkpt>
      <trkpt lat="69.44142" lon="17.34633">
        <ele>62.63498</ele>
        <time>2020-08-25T11:20:14.220Z</time>
      </trkpt>
      <trkpt lat="69.44168" lon="17.34306">
        <ele>73.772572</ele>
        <time>2020-08-25T11:21:31.222Z</time>
      </trkpt>
      <trkpt lat="69.44173" lon="17.34805">
        <ele>99.181264</ele>
        <time>2020-08-25T11:23:45.229Z</time>
      </trkpt>
      <trkpt lat="69.45352" lon="17.34658">
        <ele>95.736385</ele>
        <time>2020-08-25T11:29:23.222Z</time>
      </trkpt>
      <trkpt lat="69.4559" lon="17.34812">
        <ele>86.573818</ele>
        <time>2020-08-25T11:29:43.242Z</time>
      </trkpt>
      <trkpt lat="69.45811" lon="17.35153">
        <ele>60.454581</ele>
        <time>2020-08-25T11:30:14.216Z</time>
      </trkpt>
      <trkpt lat="69.4601" lon="17.35326">
        <ele>60.099126</ele>
        <time>2020-08-25T11:31:34.240Z</time>
      </trkpt>
      <trkpt lat="69.46231" lon="17.3522">
        <ele>59.437007</ele>
        <time>2020-08-25T11:32:14.229Z</time>
      </trkpt>
      <trkpt lat="69.46414" lon="17.34696">
        <ele>54.551497</ele>
        <time>2020-08-25T11:32:58.225Z</time>
      </trkpt>
      <trkpt lat="69.46645" lon="17.34373">
        <ele>54.552575</ele>
        <time>2020-08-25T11:33:40.225Z</time>
      </trkpt>
      <trkpt lat="69.46841" lon="17.33976">
        <ele>48.363868</ele>
        <time>2020-08-25T11:34:28.237Z</time>
      </trkpt>
      <trkpt lat="69.47024" lon="17.33662">
        <ele>46.770745</ele>
        <time>2020-08-25T11:35:08.229Z</time>
      </trkpt>
      <trkpt lat="69.47214" lon="17.33458">
        <ele>49.689114</ele>
        <time>2020-08-25T11:35:48.239Z</time>
      </trkpt>
      <trkpt lat="69.47413" lon="17.33314">
        <ele>53.857063</ele>
        <time>2020-08-25T11:36:29.214Z</time>
      </trkpt>
      <trkpt lat="69.47616" lon="17.33167">
        <ele>53.997959</ele>
        <time>2020-08-25T11:37:15.235Z</time>
      </trkpt>
      <trkpt lat="69.47845" lon="17.33144">
        <ele>49.964344</ele>
        <time>2020-08-25T11:38:03.223Z</time>
      </trkpt>
      <trkpt lat="69.48071" lon="17.33139">
        <ele>45.530342</ele>
        <time>2020-08-25T11:39:00.245Z</time>
      </trkpt>
      <trkpt lat="69.48296" lon="17.33251">
        <ele>43.084734</ele>
        <time>2020-08-25T11:39:50.213Z</time>
      </trkpt>
      <trkpt lat="69.48501" lon="17.33315">
        <ele>43.271884</ele>
        <time>2020-08-25T11:40:35.231Z</time>
      </trkpt>
      <trkpt lat="69.48712" lon="17.33345">
        <ele>47.436909</ele>
        <time>2020-08-25T11:41:35.227Z</time>
      </trkpt>
      <trkpt lat="69.48903" lon="17.33432">
        <ele>62.752828</ele>
        <time>2020-08-25T11:43:24.208Z</time>
      </trkpt>
      <trkpt lat="69.48908" lon="17.34106">
        <ele>69.778727</ele>
        <time>2020-08-25T11:44:12.254Z</time>
      </trkpt>
      <trkpt lat="69.48775" lon="17.34701">
        <ele>63.109677</ele>
        <time>2020-08-25T11:44:54.241Z</time>
      </trkpt>
      <trkpt lat="69.48635" lon="17.35285">
        <ele>54.427243</ele>
        <time>2020-08-25T11:45:34.226Z</time>
      </trkpt>
      <trkpt lat="69.48542" lon="17.35946">
        <ele>49.377208</ele>
        <time>2020-08-25T11:46:14.225Z</time>
      </trkpt>
      <trkpt lat="69.48425" lon="17.36469">
        <ele>50.247244</ele>
        <time>2020-08-25T11:46:54.243Z</time>
      </trkpt>
      <trkpt lat="69.48255" lon="17.36928">
        <ele>61.299359</ele>
        <time>2020-08-25T11:47:34.216Z</time>
      </trkpt>
      <trkpt lat="69.48123" lon="17.37381">
        <ele>61.601974</ele>
        <time>2020-08-25T11:48:14.238Z</time>
      </trkpt>
      <trkpt lat="69.48001" lon="17.37901">
        <ele>58.390524</ele>
        <time>2020-08-25T11:49:03.244Z</time>
      </trkpt>
      <trkpt lat="69.47912" lon="17.38561">
        <ele>51.978427</ele>
        <time>2020-08-25T11:49:43.216Z</time>
      </trkpt>
      <trkpt lat="69.47848" lon="17.39146">
        <ele>47.991492</ele>
        <time>2020-08-25T11:50:23.216Z</time>
      </trkpt>
      <trkpt lat="69.47952" lon="17.39592">
        <ele>50.445638</ele>
        <time>2020-08-25T11:51:03.222Z</time>
      </trkpt>
      <trkpt lat="69.48071" lon="17.40045">
        <ele>47.421767</ele>
        <time>2020-08-25T11:51:44.211Z</time>
      </trkpt>
      <trkpt lat="69.48122" lon="17.4061">
        <ele>45.754198</ele>
        <time>2020-08-25T11:52:42.207Z</time>
      </trkpt>
      <trkpt lat="69.48048" lon="17.4115">
        <ele>46.145267</ele>
        <time>2020-08-25T11:53:42.205Z</time>
      </trkpt>
      <trkpt lat="69.47968" lon="17.41746">
        <ele>51.606266</ele>
        <time>2020-08-25T11:54:42.225Z</time>
      </trkpt>
      <trkpt lat="69.47875" lon="17.42316">
        <ele>47.828293</ele>
        <time>2020-08-25T11:55:25.214Z</time>
      </trkpt>
      <trkpt lat="69.47689" lon="17.42678">
        <ele>52.633314</ele>
        <time>2020-08-25T11:56:05.239Z</time>
      </trkpt>
      <trkpt lat="69.47511" lon="17.42983">
        <ele>67.860142</ele>
        <time>2020-08-25T11:57:10.225Z</time>
      </trkpt>
      <trkpt lat="69.48422" lon="17.48517">
        <ele>73.319778</ele>
        <time>2020-08-25T12:06:14.222Z</time>
      </trkpt>
      <trkpt lat="69.48518" lon="17.4892">
        <ele>56.074774</ele>
        <time>2020-08-25T12:06:45.229Z</time>
      </trkpt>
      <trkpt lat="69.48694" lon="17.49387">
        <ele>45.082648</ele>
        <time>2020-08-25T12:07:28.227Z</time>
      </trkpt>
      <trkpt lat="69.48894" lon="17.49656">
        <ele>43.622079</ele>
        <time>2020-08-25T12:08:19.247Z</time>
      </trkpt>
      <trkpt lat="69.49095" lon="17.49931">
        <ele>46.142525</ele>
        <time>2020-08-25T12:09:15.237Z</time>
      </trkpt>
      <trkpt lat="69.49335" lon="17.5017">
        <ele>41.072347</ele>
        <time>2020-08-25T12:09:55.232Z</time>
      </trkpt>
      <trkpt lat="69.49571" lon="17.50303">
        <ele>40.598034</ele>
        <time>2020-08-25T12:10:37.286Z</time>
      </trkpt>
      <trkpt lat="69.49744" lon="17.50624">
        <ele>45.429943</ele>
        <time>2020-08-25T12:11:34.232Z</time>
      </trkpt>
      <trkpt lat="69.49889" lon="17.51111">
        <ele>42.882177</ele>
        <time>2020-08-25T12:12:21.243Z</time>
      </trkpt>
      <trkpt lat="69.49928" lon="17.517">
        <ele>42.998682</ele>
        <time>2020-08-25T12:13:06.276Z</time>
      </trkpt>
      <trkpt lat="69.49949" lon="17.52305">
        <ele>52.366358</ele>
        <time>2020-08-25T12:14:34.242Z</time>
      </trkpt>
      <trkpt lat="69.49776" lon="17.52844">
        <ele>54.005547</ele>
        <time>2020-08-25T12:15:19.227Z</time>
      </trkpt>
      <trkpt lat="69.49611" lon="17.53312">
        <ele>49.946404</ele>
        <time>2020-08-25T12:16:00.224Z</time>
      </trkpt>
      <trkpt lat="69.49421" lon="17.53769">
        <ele>46.022993</ele>
        <time>2020-08-25T12:16:40.247Z</time>
      </trkpt>
      <trkpt lat="69.49309" lon="17.54244">
        <ele>47.784517</ele>
        <time>2020-08-25T12:17:24.229Z</time>
      </trkpt>
      <trkpt lat="69.49169" lon="17.54674">
        <ele>60.020584</ele>
        <time>2020-08-25T12:18:47.237Z</time>
      </trkpt>
      <trkpt lat="69.49014" lon="17.5513">
        <ele>59.72922</ele>
        <time>2020-08-25T12:19:47.245Z</time>
      </trkpt>
      <trkpt lat="69.48807" lon="17.55539">
        <ele>53.206754</ele>
        <time>2020-08-25T12:20:27.235Z</time>
      </trkpt>
      <trkpt lat="69.48541" lon="17.55585">
        <ele>51.581717</ele>
        <time>2020-08-25T12:21:07.262Z</time>
      </trkpt>
      <trkpt lat="69.48283" lon="17.55528">
        <ele>50.888475</ele>
        <time>2020-08-25T12:21:55.240Z</time>
      </trkpt>
      <trkpt lat="69.4808" lon="17.55315">
        <ele>52.607753</ele>
        <time>2020-08-25T12:22:49.246Z</time>
      </trkpt>
      <trkpt lat="69.4787" lon="17.55295">
        <ele>55.540865</ele>
        <time>2020-08-25T12:23:46.234Z</time>
      </trkpt>
      <trkpt lat="69.4764" lon="17.55038">
        <ele>45.446131</ele>
        <time>2020-08-25T12:24:18.270Z</time>
      </trkpt>
      <trkpt lat="69.47421" lon="17.55016">
        <ele>40.192954</ele>
        <time>2020-08-25T12:24:52.236Z</time>
      </trkpt>
      <trkpt lat="69.47252" lon="17.55479">
        <ele>39.316231</ele>
        <time>2020-08-25T12:25:42.241Z</time>
      </trkpt>
      <trkpt lat="69.47176" lon="17.56101">
        <ele>39.739087</ele>
        <time>2020-08-25T12:26:26.245Z</time>
      </trkpt>
      <trkpt lat="69.47023" lon="17.5655">
        <ele>41.866653</ele>
        <time>2020-08-25T12:27:06.265Z</time>
      </trkpt>
      <trkpt lat="69.46587" lon="17.57389">
        <ele>42.704319</ele>
        <time>2020-08-25T12:29:01.260Z</time>
      </trkpt>
      <trkpt lat="69.46369" lon="17.57608">
        <ele>43.553839</ele>
        <time>2020-08-25T12:29:41.247Z</time>
      </trkpt>
      <trkpt lat="69.46186" lon="17.57976">
        <ele>40.331515</ele>
        <time>2020-08-25T12:30:21.262Z</time>
      </trkpt>
      <trkpt lat="69.46061" lon="17.58443">
        <ele>41.857095</ele>
        <time>2020-08-25T12:31:12.242Z</time>
      </trkpt>
      <trkpt lat="69.45944" lon="17.58904">
        <ele>52.309207</ele>
        <time>2020-08-25T12:32:47.243Z</time>
      </trkpt>
      <trkpt lat="69.45897" lon="17.59458">
        <ele>56.528463</ele>
        <time>2020-08-25T12:34:26.257Z</time>
      </trkpt>
      <trkpt lat="69.45764" lon="17.59882">
        <ele>55.520182</ele>
        <time>2020-08-25T12:42:04.256Z</time>
      </trkpt>
      <trkpt lat="69.4618" lon="17.60771">
        <ele>57.540952</ele>
        <time>2020-08-25T12:43:23.271Z</time>
      </trkpt>
      <trkpt lat="69.46209" lon="17.61491">
        <ele>41.490985</ele>
        <time>2020-08-25T12:44:03.258Z</time>
      </trkpt>
      <trkpt lat="69.46185" lon="17.62072">
        <ele>41.657352</ele>
        <time>2020-08-25T12:44:43.236Z</time>
      </trkpt>
      <trkpt lat="69.46205" lon="17.6269">
        <ele>39.471864</ele>
        <time>2020-08-25T12:45:28.244Z</time>
      </trkpt>
      <trkpt lat="69.46684" lon="17.65331">
        <ele>40.801101</ele>
        <time>2020-08-25T12:50:48.232Z</time>
      </trkpt>
      <trkpt lat="69.46723" lon="17.65954">
        <ele>43.389252</ele>
        <time>2020-08-25T12:51:40.254Z</time>
      </trkpt>
      <trkpt lat="69.46663" lon="17.66552">
        <ele>54.208008</ele>
        <time>2020-08-25T12:52:31.232Z</time>
      </trkpt>
      <trkpt lat="69.46595" lon="17.67096">
        <ele>56.757699</ele>
        <time>2020-08-25T12:53:17.257Z</time>
      </trkpt>
      <trkpt lat="69.46603" lon="17.67637">
        <ele>64.250106</ele>
        <time>2020-08-25T12:54:37.246Z</time>
      </trkpt>
      <trkpt lat="69.46592" lon="17.68194">
        <ele>76.676614</ele>
        <time>2020-08-25T12:56:36.256Z</time>
      </trkpt>
      <trkpt lat="69.46586" lon="17.68745">
        <ele>90.69645</ele>
        <time>2020-08-25T12:58:29.290Z</time>
      </trkpt>
      <trkpt lat="69.46636" lon="17.69281">
        <ele>106.847461</ele>
        <time>2020-08-25T13:00:40.254Z</time>
      </trkpt>
      <trkpt lat="69.46791" lon="17.696">
        <ele>117.649476</ele>
        <time>2020-08-25T13:02:51.285Z</time>
      </trkpt>
      <trkpt lat="69.46986" lon="17.6954">
        <ele>130.274673</ele>
        <time>2020-08-25T13:04:45.260Z</time>
      </trkpt>
      <trkpt lat="69.47176" lon="17.69496">
        <ele>147.543761</ele>
        <time>2020-08-25T13:06:52.244Z</time>
      </trkpt>
      <trkpt lat="69.47286" lon="17.69717">
        <ele>150.518763</ele>
        <time>2020-08-25T13:08:22.268Z</time>
      </trkpt>
      <trkpt lat="69.47384" lon="17.70367">
        <ele>132.818048</ele>
        <time>2020-08-25T13:08:45.235Z</time>
      </trkpt>
      <trkpt lat="69.47429" lon="17.71111">
        <ele>122.407416</ele>
        <time>2020-08-25T13:09:11.244Z</time>
      </trkpt>
      <trkpt lat="69.4741" lon="17.71742">
        <ele>125.781798</ele>
        <time>2020-08-25T13:10:13.246Z</time>
      </trkpt>
      <trkpt lat="69.47434" lon="17.72426">
        <ele>123.951636</ele>
        <time>2020-08-25T13:10:59.246Z</time>
      </trkpt>
      <trkpt lat="69.47507" lon="17.73003">
        <ele>120.11715</ele>
        <time>2020-08-25T13:11:56.238Z</time>
      </trkpt>
      <trkpt lat="69.47574" lon="17.73547">
        <ele>121.802231</ele>
        <time>2020-08-25T13:12:58.283Z</time>
      </trkpt>
      <trkpt lat="69.47589" lon="17.74158">
        <ele>126.26113</ele>
        <time>2020-08-25T13:13:46.244Z</time>
      </trkpt>
      <trkpt lat="69.47527" lon="17.74812">
        <ele>131.526768</ele>
        <time>2020-08-25T13:14:46.245Z</time>
      </trkpt>
      <trkpt lat="69.47388" lon="17.75486">
        <ele>121.007049</ele>
        <time>2020-08-25T13:15:27.256Z</time>
      </trkpt>
      <trkpt lat="69.47196" lon="17.75936">
        <ele>117.097531</ele>
        <time>2020-08-25T13:16:10.255Z</time>
      </trkpt>
      <trkpt lat="69.47026" lon="17.76549">
        <ele>116.565643</ele>
        <time>2020-08-25T13:16:50.234Z</time>
      </trkpt>
      <trkpt lat="69.46826" lon="17.76756">
        <ele>108.501057</ele>
        <time>2020-08-25T13:17:34.246Z</time>
      </trkpt>
      <trkpt lat="69.46702" lon="17.77178">
        <ele>109.959905</ele>
        <time>2020-08-25T13:18:24.279Z</time>
      </trkpt>
      <trkpt lat="69.46717" lon="17.77865">
        <ele>105.655529</ele>
        <time>2020-08-25T13:18:45.266Z</time>
      </trkpt>
      <trkpt lat="69.46622" lon="17.78582">
        <ele>91.474885</ele>
        <time>2020-08-25T13:19:05.265Z</time>
      </trkpt>
      <trkpt lat="69.46533" lon="17.79337">
        <ele>71.852121</ele>
        <time>2020-08-25T13:19:26.242Z</time>
      </trkpt>
      <trkpt lat="69.46431" lon="17.80115">
        <ele>52.705203</ele>
        <time>2020-08-25T13:19:46.251Z</time>
      </trkpt>
      <trkpt lat="69.46403" lon="17.80855">
        <ele>38.883599</ele>
        <time>2020-08-25T13:20:06.259Z</time>
      </trkpt>
      <trkpt lat="69.46324" lon="17.81601">
        <ele>31.287449</ele>
        <time>2020-08-25T13:20:38.242Z</time>
      </trkpt>
      <trkpt lat="69.46233" lon="17.81943">
        <ele>28.869183</ele>
        <time>2020-08-25T13:21:38.234Z</time>
      </trkpt>
      <trkpt lat="69.46188" lon="17.82553">
        <ele>38.514166</ele>
        <time>2020-08-25T13:22:29.250Z</time>
      </trkpt>
      <trkpt lat="69.46115" lon="17.83083">
        <ele>54.522282</ele>
        <time>2020-08-25T13:24:11.259Z</time>
      </trkpt>
      <trkpt lat="69.4616" lon="17.83676">
        <ele>58.055923</ele>
        <time>2020-08-25T13:25:54.266Z</time>
      </trkpt>
      <trkpt lat="69.46293" lon="17.8418">
        <ele>46.482626</ele>
        <time>2020-08-25T13:26:14.268Z</time>
      </trkpt>
      <trkpt lat="69.4644" lon="17.84734">
        <ele>35.27946</ele>
        <time>2020-08-25T13:26:39.252Z</time>
      </trkpt>
      <trkpt lat="69.46599" lon="17.8523">
        <ele>34.442369</ele>
        <time>2020-08-25T13:27:20.264Z</time>
      </trkpt>
      <trkpt lat="69.46798" lon="17.85491">
        <ele>35.45583</ele>
        <time>2020-08-25T13:28:15.252Z</time>
      </trkpt>
      <trkpt lat="69.4701" lon="17.85589">
        <ele>36.781759</ele>
        <time>2020-08-25T13:29:22.266Z</time>
      </trkpt>
      <trkpt lat="69.47243" lon="17.85477">
        <ele>31.475177</ele>
        <time>2020-08-25T13:30:13.267Z</time>
      </trkpt>
      <trkpt lat="69.47452" lon="17.85292">
        <ele>20.129252</ele>
        <time>2020-08-25T13:31:01.249Z</time>
      </trkpt>
      <trkpt lat="69.47661" lon="17.85037">
        <ele>8.96377</ele>
        <time>2020-08-25T13:31:41.291Z</time>
      </trkpt>
      <trkpt lat="69.47852" lon="17.84822">
        <ele>9.55462</ele>
        <time>2020-08-25T13:32:22.245Z</time>
      </trkpt>
      <trkpt lat="69.48079" lon="17.84634">
        <ele>20.399119</ele>
        <time>2020-08-25T13:33:21.260Z</time>
      </trkpt>
      <trkpt lat="69.48288" lon="17.84523">
        <ele>23.408828</ele>
        <time>2020-08-25T13:34:05.282Z</time>
      </trkpt>
      <trkpt lat="69.4852" lon="17.84423">
        <ele>24.636841</ele>
        <time>2020-08-25T13:34:46.266Z</time>
      </trkpt>
      <trkpt lat="69.48708" lon="17.84761">
        <ele>33.667865</ele>
        <time>2020-08-25T13:35:30.248Z</time>
      </trkpt>
      <trkpt lat="69.48917" lon="17.8495">
        <ele>34.993975</ele>
        <time>2020-08-25T13:36:18.268Z</time>
      </trkpt>
      <trkpt lat="69.49118" lon="17.85141">
        <ele>34.758276</ele>
        <time>2020-08-25T13:37:03.287Z</time>
      </trkpt>
      <trkpt lat="69.49319" lon="17.85402">
        <ele>35.880754</ele>
        <time>2020-08-25T13:37:53.265Z</time>
      </trkpt>
      <trkpt lat="69.49521" lon="17.85676">
        <ele>36.203698</ele>
        <time>2020-08-25T13:38:37.264Z</time>
      </trkpt>
      <trkpt lat="69.49704" lon="17.85985">
        <ele>38.106046</ele>
        <time>2020-08-25T13:39:36.266Z</time>
      </trkpt>
      <trkpt lat="69.49833" lon="17.86481">
        <ele>37.703785</ele>
        <time>2020-08-25T13:40:17.266Z</time>
      </trkpt>
      <trkpt lat="69.49991" lon="17.86894">
        <ele>37.879242</ele>
        <time>2020-08-25T13:41:03.258Z</time>
      </trkpt>
      <trkpt lat="69.50071" lon="17.87468">
        <ele>41.025306</ele>
        <time>2020-08-25T13:41:51.295Z</time>
      </trkpt>
      <trkpt lat="69.50121" lon="17.88061">
        <ele>43.03403</ele>
        <time>2020-08-25T13:42:43.258Z</time>
      </trkpt>
      <trkpt lat="69.50158" lon="17.88694">
        <ele>42.799348</ele>
        <time>2020-08-25T13:43:26.249Z</time>
      </trkpt>
      <trkpt lat="69.50292" lon="17.89279">
        <ele>38.037831</ele>
        <time>2020-08-25T13:44:06.254Z</time>
      </trkpt>
      <trkpt lat="69.50426" lon="17.89829">
        <ele>38.757292</ele>
        <time>2020-08-25T13:44:52.309Z</time>
      </trkpt>
      <trkpt lat="69.50585" lon="17.90224">
        <ele>42.380376</ele>
        <time>2020-08-25T13:45:59.277Z</time>
      </trkpt>
      <trkpt lat="69.50731" lon="17.90508">
        <ele>38.167562</ele>
        <time>2020-08-25T13:46:56.269Z</time>
      </trkpt>
      <trkpt lat="69.54664" lon="17.95128">
        <ele>49.682211</ele>
        <time>2020-08-25T14:17:17.289Z</time>
      </trkpt>
      <trkpt lat="69.54902" lon="17.95309">
        <ele>46.853892</ele>
        <time>2020-08-25T14:18:14.264Z</time>
      </trkpt>
      <trkpt lat="69.55097" lon="17.95465">
        <ele>48.294046</ele>
        <time>2020-08-25T14:18:59.256Z</time>
      </trkpt>
      <trkpt lat="69.5533" lon="17.95655">
        <ele>48.079781</ele>
        <time>2020-08-25T14:19:54.288Z</time>
      </trkpt>
      <trkpt lat="69.55542" lon="17.9582">
        <ele>47.750631</ele>
        <time>2020-08-25T14:20:43.310Z</time>
      </trkpt>
      <trkpt lat="69.55756" lon="17.95997">
        <ele>42.820988</ele>
        <time>2020-08-25T14:21:32.267Z</time>
      </trkpt>
      <trkpt lat="69.55965" lon="17.96155">
        <ele>39.397633</ele>
        <time>2020-08-25T14:22:20.267Z</time>
      </trkpt>
      <trkpt lat="69.56165" lon="17.96313">
        <ele>45.319202</ele>
        <time>2020-08-25T14:23:06.279Z</time>
      </trkpt>
      <trkpt lat="69.56368" lon="17.9648">
        <ele>46.480929</ele>
        <time>2020-08-25T14:23:56.266Z</time>
      </trkpt>
      <trkpt lat="69.56575" lon="17.96657">
        <ele>38.418325</ele>
        <time>2020-08-25T14:24:45.267Z</time>
      </trkpt>
      <trkpt lat="69.56794" lon="17.96831">
        <ele>19.895545</ele>
        <time>2020-08-25T14:25:37.284Z</time>
      </trkpt>
      <trkpt lat="69.57001" lon="17.97006">
        <ele>16.279433</ele>
        <time>2020-08-25T14:26:24.293Z</time>
      </trkpt>
      <trkpt lat="69.57208" lon="17.971">
        <ele>29.412608</ele>
        <time>2020-08-25T14:27:09.281Z</time>
      </trkpt>
      <trkpt lat="69.5742" lon="17.97279">
        <ele>41.975146</ele>
        <time>2020-08-25T14:27:59.264Z</time>
      </trkpt>
      <trkpt lat="69.57635" lon="17.97393">
        <ele>37.661426</ele>
        <time>2020-08-25T14:28:48.262Z</time>
      </trkpt>
      <trkpt lat="69.57846" lon="17.97524">
        <ele>35.399786</ele>
        <time>2020-08-25T14:29:35.254Z</time>
      </trkpt>
      <trkpt lat="69.5807" lon="17.97658">
        <ele>42.129204</ele>
        <time>2020-08-25T14:30:26.289Z</time>
      </trkpt>
      <trkpt lat="69.58297" lon="17.97778">
        <ele>45.853132</ele>
        <time>2020-08-25T14:31:18.247Z</time>
      </trkpt>
      <trkpt lat="69.58494" lon="17.97882">
        <ele>44.499935</ele>
        <time>2020-08-25T14:32:02.266Z</time>
      </trkpt>
      <trkpt lat="69.58733" lon="17.98015">
        <ele>46.783509</ele>
        <time>2020-08-25T14:32:56.268Z</time>
      </trkpt>
      <trkpt lat="69.58945" lon="17.98143">
        <ele>50.041951</ele>
        <time>2020-08-25T14:33:44.314Z</time>
      </trkpt>
      <trkpt lat="69.59141" lon="17.9825">
        <ele>44.414017</ele>
        <time>2020-08-25T14:34:28.335Z</time>
      </trkpt>
      <trkpt lat="69.59347" lon="17.98348">
        <ele>44.741954</ele>
        <time>2020-08-25T14:35:14.260Z</time>
      </trkpt>
      <trkpt lat="69.59557" lon="17.98514">
        <ele>50.818667</ele>
        <time>2020-08-25T14:36:03.271Z</time>
      </trkpt>
      <trkpt lat="69.59762" lon="17.98738">
        <ele>45.401807</ele>
        <time>2020-08-25T14:36:52.261Z</time>
      </trkpt>
      <trkpt lat="69.59954" lon="17.98992">
        <ele>42.35913</ele>
        <time>2020-08-25T14:37:40.287Z</time>
      </trkpt>
      <trkpt lat="69.60124" lon="17.99352">
        <ele>46.466998</ele>
        <time>2020-08-25T14:38:27.296Z</time>
      </trkpt>
      <trkpt lat="69.60297" lon="17.99731">
        <ele>55.828543</ele>
        <time>2020-08-25T14:39:15.290Z</time>
      </trkpt>
      <trkpt lat="69.60469" lon="18.00133">
        <ele>64.509651</ele>
        <time>2020-08-25T14:40:05.278Z</time>
      </trkpt>
      <trkpt lat="69.60629" lon="18.00577">
        <ele>53.242213</ele>
        <time>2020-08-25T14:40:55.270Z</time>
      </trkpt>
      <trkpt lat="69.60776" lon="18.01069">
        <ele>58.728884</ele>
        <time>2020-08-25T14:41:45.270Z</time>
      </trkpt>
      <trkpt lat="69.60898" lon="18.01589">
        <ele>69.116674</ele>
        <time>2020-08-25T14:42:34.264Z</time>
      </trkpt>
      <trkpt lat="69.60983" lon="18.02215">
        <ele>52.948408</ele>
        <time>2020-08-25T14:43:26.275Z</time>
      </trkpt>
      <trkpt lat="69.61038" lon="18.02845">
        <ele>33.610962</ele>
        <time>2020-08-25T14:44:17.268Z</time>
      </trkpt>
      <trkpt lat="69.60978" lon="18.03399">
        <ele>39.228567</ele>
        <time>2020-08-25T14:45:23.261Z</time>
      </trkpt>
      <trkpt lat="69.60766" lon="18.0304">
        <ele>45.418833</ele>
        <time>2020-08-25T14:50:20.286Z</time>
      </trkpt>
      <trkpt lat="69.60535" lon="18.03074">
        <ele>36.924071</ele>
        <time>2020-08-25T14:51:20.269Z</time>
      </trkpt>
      <trkpt lat="69.6039" lon="18.03285">
        <ele>35.293613</ele>
        <time>2020-08-25T14:52:06.277Z</time>
      </trkpt>
      <trkpt lat="69.60354" lon="18.03946">
        <ele>32.540051</ele>
        <time>2020-08-25T14:53:03.327Z</time>
      </trkpt>
      <trkpt lat="69.60253" lon="18.04499">
        <ele>37.606334</ele>
        <time>2020-08-25T14:53:56.274Z</time>
      </trkpt>
      <trkpt lat="69.60166" lon="18.04908">
        <ele>42.690905</ele>
        <time>2020-08-25T14:54:51.284Z</time>
      </trkpt>
      <trkpt lat="69.60333" lon="18.05331">
        <ele>44.524107</ele>
        <time>2020-08-25T14:55:38.273Z</time>
      </trkpt>
      <trkpt lat="69.60493" lon="18.05756">
        <ele>45.47082</ele>
        <time>2020-08-25T14:56:28.283Z</time>
      </trkpt>
      <trkpt lat="69.60656" lon="18.06123">
        <ele>51.747073</ele>
        <time>2020-08-25T14:57:28.271Z</time>
      </trkpt>
      <trkpt lat="69.60743" lon="18.06618">
        <ele>54.564059</ele>
        <time>2020-08-25T14:58:50.249Z</time>
      </trkpt>
      <trkpt lat="69.60854" lon="18.07118">
        <ele>55.217415</ele>
        <time>2020-08-25T15:00:15.281Z</time>
      </trkpt>
      <trkpt lat="69.61059" lon="18.07496">
        <ele>54.947026</ele>
        <time>2020-08-25T15:00:57.276Z</time>
      </trkpt>
      <trkpt lat="69.61292" lon="18.07597">
        <ele>47.492972</ele>
        <time>2020-08-25T15:01:37.276Z</time>
      </trkpt>
      <trkpt lat="69.6151" lon="18.07823">
        <ele>48.470234</ele>
        <time>2020-08-25T15:02:24.273Z</time>
      </trkpt>
      <trkpt lat="69.61709" lon="18.07981">
        <ele>51.800133</ele>
        <time>2020-08-25T15:03:29.278Z</time>
      </trkpt>
      <trkpt lat="69.61971" lon="18.07927">
        <ele>42.21916</ele>
        <time>2020-08-25T15:04:09.290Z</time>
      </trkpt>
      <trkpt lat="69.62139" lon="18.0741">
        <ele>36.432406</ele>
        <time>2020-08-25T15:04:49.266Z</time>
      </trkpt>
      <trkpt lat="69.6204" lon="18.06739">
        <ele>36.128187</ele>
        <time>2020-08-25T15:05:24.295Z</time>
      </trkpt>
      <trkpt lat="69.62096" lon="18.06162">
        <ele>46.138997</ele>
        <time>2020-08-25T15:06:16.266Z</time>
      </trkpt>
      <trkpt lat="69.62141" lon="18.05466">
        <ele>36.718919</ele>
        <time>2020-08-25T15:06:59.314Z</time>
      </trkpt>
      <trkpt lat="69.6219" lon="18.04871">
        <ele>41.900273</ele>
        <time>2020-08-25T15:08:07.284Z</time>
      </trkpt>
      <trkpt lat="69.6234" lon="18.04515">
        <ele>48.876284</ele>
        <time>2020-08-25T15:09:54.294Z</time>
      </trkpt>
      <trkpt lat="69.62552" lon="18.04116">
        <ele>43.157421</ele>
        <time>2020-08-25T15:10:42.321Z</time>
      </trkpt>
      <trkpt lat="69.62615" lon="18.03536">
        <ele>44.902163</ele>
        <time>2020-08-25T15:11:40.302Z</time>
      </trkpt>
      <trkpt lat="69.62815" lon="18.03183">
        <ele>43.656486</ele>
        <time>2020-08-25T15:12:31.288Z</time>
      </trkpt>
      <trkpt lat="69.63041" lon="18.02911">
        <ele>29.199858</ele>
        <time>2020-08-25T15:12:58.286Z</time>
      </trkpt>
      <trkpt lat="69.63206" lon="18.02579">
        <ele>31.503364</ele>
        <time>2020-08-25T15:13:38.301Z</time>
      </trkpt>
      <trkpt lat="69.63316" lon="18.0204">
        <ele>35.811732</ele>
        <time>2020-08-25T15:14:18.279Z</time>
      </trkpt>
      <trkpt lat="69.63404" lon="18.01485">
        <ele>37.60361</ele>
        <time>2020-08-25T15:15:18.276Z</time>
      </trkpt>
      <trkpt lat="69.63583" lon="18.01105">
        <ele>38.16173</ele>
        <time>2020-08-25T15:16:06.295Z</time>
      </trkpt>
      <trkpt lat="69.63608" lon="18.00543">
        <ele>36.086544</ele>
        <time>2020-08-25T15:16:55.310Z</time>
      </trkpt>
    </trkseg>
  </trk>
  <trk>
    <name><![CDATA[Tour d'Europe: étape 059]]></name>
    <trkseg>
      <trkpt lat="69.63635" lon="18.0044">
        <ele>40.670759</ele>
        <time>2020-08-26T10:01:00.839Z</time>
      </trkpt>
      <trkpt lat="69.63627" lon="18.00448">
        <ele>40.670759</ele>
        <time>2020-08-26T10:01:04.834Z</time>
      </trkpt>
      <trkpt lat="69.63616" lon="18.00447">
        <ele>40.670759</ele>
        <time>2020-08-26T10:01:08.837Z</time>
      </trkpt>
      <trkpt lat="69.63605" lon="18.00452">
        <ele>40.670759</ele>
        <time>2020-08-26T10:01:12.868Z</time>
      </trkpt>
      <trkpt lat="69.63598" lon="18.00471">
        <ele>40.670759</ele>
        <time>2020-08-26T10:01:16.833Z</time>
      </trkpt>
      <trkpt lat="69.63601" lon="18.00501">
        <ele>40.670759</ele>
        <time>2020-08-26T10:01:19.825Z</time>
      </trkpt>
      <trkpt lat="69.63607" lon="18.00533">
        <ele>40.670759</ele>
        <time>2020-08-26T10:01:22.851Z</time>
      </trkpt>
      <trkpt lat="69.63612" lon="18.00565">
        <ele>40.670759</ele>
        <time>2020-08-26T10:01:25.819Z</time>
      </trkpt>
      <trkpt lat="69.63618" lon="18.00592">
        <ele>40.670759</ele>
        <time>2020-08-26T10:01:28.834Z</time>
      </trkpt>
      <trkpt lat="69.63622" lon="18.00618">
        <ele>40.766236</ele>
        <time>2020-08-26T10:01:31.808Z</time>
      </trkpt>
      <trkpt lat="69.63627" lon="18.00649">
        <ele>40.911183</ele>
        <time>2020-08-26T10:01:34.851Z</time>
      </trkpt>
      <trkpt lat="69.6363" lon="18.0068">
        <ele>41.055056</ele>
        <time>2020-08-26T10:01:37.806Z</time>
      </trkpt>
      <trkpt lat="69.63632" lon="18.00712">
        <ele>41.200578</ele>
        <time>2020-08-26T10:01:40.853Z</time>
      </trkpt>
      <trkpt lat="69.63633" lon="18.00744">
        <ele>41.341459</ele>
        <time>2020-08-26T10:01:43.822Z</time>
      </trkpt>
      <trkpt lat="69.63632" lon="18.00776">
        <ele>41.484297</ele>
        <time>2020-08-26T10:01:46.802Z</time>
      </trkpt>
      <trkpt lat="69.63632" lon="18.0081">
        <ele>41.630103</ele>
        <time>2020-08-26T10:01:49.818Z</time>
      </trkpt>
      <trkpt lat="69.63631" lon="18.00842">
        <ele>41.77455</ele>
        <time>2020-08-26T10:01:52.836Z</time>
      </trkpt>
      <trkpt lat="69.6363" lon="18.00874">
        <ele>41.915224</ele>
        <time>2020-08-26T10:01:55.813Z</time>
      </trkpt>
      <trkpt lat="69.63627" lon="18.00904">
        <ele>42.053039</ele>
        <time>2020-08-26T10:01:58.830Z</time>
      </trkpt>
      <trkpt lat="69.63623" lon="18.00938">
        <ele>42.208971</ele>
        <time>2020-08-26T10:02:01.831Z</time>
      </trkpt>
      <trkpt lat="69.63618" lon="18.0097">
        <ele>42.365305</ele>
        <time>2020-08-26T10:02:04.830Z</time>
      </trkpt>
      <trkpt lat="69.63611" lon="18.00998">
        <ele>42.515651</ele>
        <time>2020-08-26T10:02:07.820Z</time>
      </trkpt>
      <trkpt lat="69.63605" lon="18.01023">
        <ele>42.648987</ele>
        <time>2020-08-26T10:02:10.814Z</time>
      </trkpt>
      <trkpt lat="69.63599" lon="18.01047">
        <ele>42.78016</ele>
        <time>2020-08-26T10:02:13.797Z</time>
      </trkpt>
      <trkpt lat="69.63592" lon="18.0107">
        <ele>42.910867</ele>
        <time>2020-08-26T10:02:16.821Z</time>
      </trkpt>
      <trkpt lat="69.63584" lon="18.01092">
        <ele>42.8474</ele>
        <time>2020-08-26T10:02:19.807Z</time>
      </trkpt>
      <trkpt lat="69.63576" lon="18.01114">
        <ele>42.716661</ele>
        <time>2020-08-26T10:02:22.820Z</time>
      </trkpt>
      <trkpt lat="69.63567" lon="18.01135">
        <ele>42.57809</ele>
        <time>2020-08-26T10:02:25.825Z</time>
      </trkpt>
      <trkpt lat="69.63556" lon="18.01154">
        <ele>42.426114</ele>
        <time>2020-08-26T10:02:28.798Z</time>
      </trkpt>
      <trkpt lat="69.63548" lon="18.01166">
        <ele>42.315103</ele>
        <time>2020-08-26T10:02:30.833Z</time>
      </trkpt>
      <trkpt lat="69.63539" lon="18.01179">
        <ele>42.19446</ele>
        <time>2020-08-26T10:02:32.830Z</time>
      </trkpt>
      <trkpt lat="69.63529" lon="18.01192">
        <ele>42.059485</ele>
        <time>2020-08-26T10:02:34.814Z</time>
      </trkpt>
      <trkpt lat="69.63518" lon="18.01207">
        <ele>41.917187</ele>
        <time>2020-08-26T10:02:36.842Z</time>
      </trkpt>
      <trkpt lat="69.63507" lon="18.01222">
        <ele>41.772188</ele>
        <time>2020-08-26T10:02:38.808Z</time>
      </trkpt>
      <trkpt lat="69.63495" lon="18.01239">
        <ele>41.618248</ele>
        <time>2020-08-26T10:02:40.810Z</time>
      </trkpt>
      <trkpt lat="69.63484" lon="18.01255">
        <ele>41.46879</ele>
        <time>2020-08-26T10:02:42.798Z</time>
      </trkpt>
      <trkpt lat="69.63473" lon="18.01271">
        <ele>41.324388</ele>
        <time>2020-08-26T10:02:44.810Z</time>
      </trkpt>
      <trkpt lat="69.63464" lon="18.01289">
        <ele>41.188955</ele>
        <time>2020-08-26T10:02:46.810Z</time>
      </trkpt>
      <trkpt lat="69.63456" lon="18.01309">
        <ele>41.059321</ele>
        <time>2020-08-26T10:02:48.809Z</time>
      </trkpt>
      <trkpt lat="69.63448" lon="18.01328">
        <ele>40.941481</ele>
        <time>2020-08-26T10:02:50.837Z</time>
      </trkpt>
      <trkpt lat="69.63441" lon="18.01347">
        <ele>40.829108</ele>
        <time>2020-08-26T10:02:52.811Z</time>
      </trkpt>
      <trkpt lat="69.63433" lon="18.01372">
        <ele>40.784391</ele>
        <time>2020-08-26T10:02:55.836Z</time>
      </trkpt>
      <trkpt lat="69.63425" lon="18.01395">
        <ele>40.762767</ele>
        <time>2020-08-26T10:02:58.807Z</time>
      </trkpt>
      <trkpt lat="69.63417" lon="18.01417">
        <ele>40.741216</ele>
        <time>2020-08-26T10:03:01.842Z</time>
      </trkpt>
      <trkpt lat="69.63411" lon="18.01441">
        <ele>40.72046</ele>
        <time>2020-08-26T10:03:04.820Z</time>
      </trkpt>
      <trkpt lat="69.63405" lon="18.01466">
        <ele>40.699389</ele>
        <time>2020-08-26T10:03:07.833Z</time>
      </trkpt>
      <trkpt lat="69.63399" lon="18.0149">
        <ele>40.678892</ele>
        <time>2020-08-26T10:03:10.812Z</time>
      </trkpt>
      <trkpt lat="69.63393" lon="18.01517">
        <ele>40.65721</ele>
        <time>2020-08-26T10:03:13.818Z</time>
      </trkpt>
      <trkpt lat="69.63388" lon="18.01549">
        <ele>40.633189</ele>
        <time>2020-08-26T10:03:16.847Z</time>
      </trkpt>
      <trkpt lat="69.63382" lon="18.01582">
        <ele>40.607985</ele>
        <time>2020-08-26T10:03:19.826Z</time>
      </trkpt>
      <trkpt lat="69.63378" lon="18.01606">
        <ele>40.589642</ele>
        <time>2020-08-26T10:03:21.815Z</time>
      </trkpt>
      <trkpt lat="69.63374" lon="18.01633">
        <ele>40.569762</ele>
        <time>2020-08-26T10:03:23.820Z</time>
      </trkpt>
      <trkpt lat="69.6337" lon="18.01662">
        <ele>40.548136</ele>
        <time>2020-08-26T10:03:25.816Z</time>
      </trkpt>
      <trkpt lat="69.63366" lon="18.01693">
        <ele>40.524858</ele>
        <time>2020-08-26T10:03:27.807Z</time>
      </trkpt>
      <trkpt lat="69.63361" lon="18.01727">
        <ele>40.500205</ele>
        <time>2020-08-26T10:03:29.817Z</time>
      </trkpt>
      <trkpt lat="69.63356" lon="18.01762">
        <ele>40.474523</ele>
        <time>2020-08-26T10:03:31.836Z</time>
      </trkpt>
      <trkpt lat="69.6335" lon="18.01797">
        <ele>40.419045</ele>
        <time>2020-08-26T10:03:33.810Z</time>
      </trkpt>
      <trkpt lat="69.63344" lon="18.01834">
        <ele>40.045321</ele>
        <time>2020-08-26T10:03:35.852Z</time>
      </trkpt>
      <trkpt lat="69.63338" lon="18.01871">
        <ele>39.675987</ele>
        <time>2020-08-26T10:03:37.847Z</time>
      </trkpt>
      <trkpt lat="69.63333" lon="18.01909">
        <ele>39.299087</ele>
        <time>2020-08-26T10:03:39.832Z</time>
      </trkpt>
      <trkpt lat="69.63327" lon="18.01948">
        <ele>38.919685</ele>
        <time>2020-08-26T10:03:41.802Z</time>
      </trkpt>
      <trkpt lat="69.63321" lon="18.01985">
        <ele>38.55131</ele>
        <time>2020-08-26T10:03:43.829Z</time>
      </trkpt>
      <trkpt lat="69.63316" lon="18.02021">
        <ele>38.197854</ele>
        <time>2020-08-26T10:03:45.818Z</time>
      </trkpt>
      <trkpt lat="69.63311" lon="18.02056">
        <ele>37.85935</ele>
        <time>2020-08-26T10:03:47.800Z</time>
      </trkpt>
      <trkpt lat="69.63307" lon="18.0209">
        <ele>37.534649</ele>
        <time>2020-08-26T10:03:49.820Z</time>
      </trkpt>
      <trkpt lat="69.63302" lon="18.02121">
        <ele>37.22302</ele>
        <time>2020-08-26T10:03:51.820Z</time>
      </trkpt>
      <trkpt lat="69.63298" lon="18.02152">
        <ele>36.917217</ele>
        <time>2020-08-26T10:03:53.800Z</time>
      </trkpt>
      <trkpt lat="69.63293" lon="18.02183">
        <ele>36.61367</ele>
        <time>2020-08-26T10:03:55.836Z</time>
      </trkpt>
      <trkpt lat="69.63288" lon="18.02212">
        <ele>36.317539</ele>
        <time>2020-08-26T10:03:57.812Z</time>
      </trkpt>
      <trkpt lat="69.63283" lon="18.02241">
        <ele>36.027968</ele>
        <time>2020-08-26T10:03:59.830Z</time>
      </trkpt>
      <trkpt lat="69.63279" lon="18.02269">
        <ele>35.769613</ele>
        <time>2020-08-26T10:04:01.817Z</time>
      </trkpt>
      <trkpt lat="69.63275" lon="18.02296">
        <ele>35.879783</ele>
        <time>2020-08-26T10:04:03.809Z</time>
      </trkpt>
      <trkpt lat="69.63271" lon="18.02322">
        <ele>35.985015</ele>
        <time>2020-08-26T10:04:05.807Z</time>
      </trkpt>
      <trkpt lat="69.63267" lon="18.02349">
        <ele>36.092628</ele>
        <time>2020-08-26T10:04:07.809Z</time>
      </trkpt>
      <trkpt lat="69.63262" lon="18.02375">
        <ele>36.201609</ele>
        <time>2020-08-26T10:04:09.810Z</time>
      </trkpt>
      <trkpt lat="69.63257" lon="18.02399">
        <ele>36.307482</ele>
        <time>2020-08-26T10:04:11.807Z</time>
      </trkpt>
      <trkpt lat="69.63251" lon="18.02421">
        <ele>36.409289</ele>
        <time>2020-08-26T10:04:13.811Z</time>
      </trkpt>
      <trkpt lat="69.63246" lon="18.02443">
        <ele>36.505305</ele>
        <time>2020-08-26T10:04:15.808Z</time>
      </trkpt>
      <trkpt lat="69.63238" lon="18.02472">
        <ele>36.642366</ele>
        <time>2020-08-26T10:04:18.812Z</time>
      </trkpt>
      <trkpt lat="69.6323" lon="18.02501">
        <ele>36.78067</ele>
        <time>2020-08-26T10:04:21.796Z</time>
      </trkpt>
      <trkpt lat="69.63222" lon="18.02531">
        <ele>36.920087</ele>
        <time>2020-08-26T10:04:24.801Z</time>
      </trkpt>
      <trkpt lat="69.63216" lon="18.0255">
        <ele>37.01636</ele>
        <time>2020-08-26T10:04:26.813Z</time>
      </trkpt>
      <trkpt lat="69.63209" lon="18.0257">
        <ele>37.11892</ele>
        <time>2020-08-26T10:04:28.816Z</time>
      </trkpt>
      <trkpt lat="69.63202" lon="18.02589">
        <ele>37.225371</ele>
        <time>2020-08-26T10:04:30.808Z</time>
      </trkpt>
      <trkpt lat="69.63194" lon="18.02607">
        <ele>37.332954</ele>
        <time>2020-08-26T10:04:32.821Z</time>
      </trkpt>
      <trkpt lat="69.63186" lon="18.02626">
        <ele>37.441118</ele>
        <time>2020-08-26T10:04:34.808Z</time>
      </trkpt>
      <trkpt lat="69.63178" lon="18.02643">
        <ele>37.550753</ele>
        <time>2020-08-26T10:04:36.878Z</time>
      </trkpt>
      <trkpt lat="69.63169" lon="18.02658">
        <ele>37.662517</ele>
        <time>2020-08-26T10:04:38.812Z</time>
      </trkpt>
      <trkpt lat="69.6316" lon="18.02676">
        <ele>37.77973</ele>
        <time>2020-08-26T10:04:40.800Z</time>
      </trkpt>
      <trkpt lat="69.63151" lon="18.02695">
        <ele>37.900015</ele>
        <time>2020-08-26T10:04:42.835Z</time>
      </trkpt>
      <trkpt lat="69.63143" lon="18.02713">
        <ele>38.013067</ele>
        <time>2020-08-26T10:04:44.812Z</time>
      </trkpt>
      <trkpt lat="69.63134" lon="18.0273">
        <ele>38.125024</ele>
        <time>2020-08-26T10:04:46.809Z</time>
      </trkpt>
      <trkpt lat="69.63126" lon="18.02748">
        <ele>38.238076</ele>
        <time>2020-08-26T10:04:48.800Z</time>
      </trkpt>
      <trkpt lat="69.63117" lon="18.02765">
        <ele>38.349825</ele>
        <time>2020-08-26T10:04:50.826Z</time>
      </trkpt>
      <trkpt lat="69.63109" lon="18.02782">
        <ele>38.457462</ele>
        <time>2020-08-26T10:04:52.812Z</time>
      </trkpt>
      <trkpt lat="69.63101" lon="18.02798">
        <ele>38.563868</ele>
        <time>2020-08-26T10:04:54.834Z</time>
      </trkpt>
      <trkpt lat="69.63093" lon="18.02812">
        <ele>38.669273</ele>
        <time>2020-08-26T10:04:56.871Z</time>
      </trkpt>
      <trkpt lat="69.63085" lon="18.02827">
        <ele>38.773255</ele>
        <time>2020-08-26T10:04:58.861Z</time>
      </trkpt>
      <trkpt lat="69.63076" lon="18.02843">
        <ele>38.882903</ele>
        <time>2020-08-26T10:05:00.827Z</time>
      </trkpt>
      <trkpt lat="69.63067" lon="18.02861">
        <ele>39.002858</ele>
        <time>2020-08-26T10:05:02.827Z</time>
      </trkpt>
      <trkpt lat="69.63057" lon="18.0288">
        <ele>39.133535</ele>
        <time>2020-08-26T10:05:04.814Z</time>
      </trkpt>
      <trkpt lat="69.63046" lon="18.029">
        <ele>39.272885</ele>
        <time>2020-08-26T10:05:06.808Z</time>
      </trkpt>
      <trkpt lat="69.63034" lon="18.0292">
        <ele>39.42017</ele>
        <time>2020-08-26T10:05:08.854Z</time>
      </trkpt>
      <trkpt lat="69.63022" lon="18.02939">
        <ele>39.566495</ele>
        <time>2020-08-26T10:05:10.815Z</time>
      </trkpt>
      <trkpt lat="69.6301" lon="18.02956">
        <ele>40.133186</ele>
        <time>2020-08-26T10:05:12.816Z</time>
      </trkpt>
      <trkpt lat="69.62999" lon="18.02971">
        <ele>40.947344</ele>
        <time>2020-08-26T10:05:14.861Z</time>
      </trkpt>
      <trkpt lat="69.62988" lon="18.02983">
        <ele>41.703907</ele>
        <time>2020-08-26T10:05:16.803Z</time>
      </trkpt>
      <trkpt lat="69.62977" lon="18.02994">
        <ele>42.407108</ele>
        <time>2020-08-26T10:05:18.827Z</time>
      </trkpt>
      <trkpt lat="69.62967" lon="18.03003">
        <ele>43.069527</ele>
        <time>2020-08-26T10:05:20.805Z</time>
      </trkpt>
      <trkpt lat="69.62957" lon="18.0301">
        <ele>43.727315</ele>
        <time>2020-08-26T10:05:22.879Z</time>
      </trkpt>
      <trkpt lat="69.62948" lon="18.03017">
        <ele>44.382263</ele>
        <time>2020-08-26T10:05:24.812Z</time>
      </trkpt>
      <trkpt lat="69.62938" lon="18.03024">
        <ele>45.019856</ele>
        <time>2020-08-26T10:05:26.806Z</time>
      </trkpt>
      <trkpt lat="69.62928" lon="18.03032">
        <ele>45.642246</ele>
        <time>2020-08-26T10:05:28.836Z</time>
      </trkpt>
      <trkpt lat="69.62919" lon="18.03041">
        <ele>46.26215</ele>
        <time>2020-08-26T10:05:30.836Z</time>
      </trkpt>
      <trkpt lat="69.6291" lon="18.03048">
        <ele>46.872232</ele>
        <time>2020-08-26T10:05:32.806Z</time>
      </trkpt>
      <trkpt lat="69.62901" lon="18.03053">
        <ele>47.476417</ele>
        <time>2020-08-26T10:05:34.811Z</time>
      </trkpt>
      <trkpt lat="69.62888" lon="18.03063">
        <ele>48.324657</ele>
        <time>2020-08-26T10:05:37.807Z</time>
      </trkpt>
      <trkpt lat="69.62876" lon="18.03074">
        <ele>49.135772</ele>
        <time>2020-08-26T10:05:40.850Z</time>
      </trkpt>
      <trkpt lat="69.62866" lon="18.03086">
        <ele>49.793539</ele>
        <time>2020-08-26T10:05:43.831Z</time>
      </trkpt>
      <trkpt lat="69.62858" lon="18.03101">
        <ele>50.420481</ele>
        <time>2020-08-26T10:05:47.807Z</time>
      </trkpt>
      <trkpt lat="69.62849" lon="18.03117">
        <ele>51.075385</ele>
        <time>2020-08-26T10:05:52.875Z</time>
      </trkpt>
      <trkpt lat="69.62841" lon="18.03135">
        <ele>51.826776</ele>
        <time>2020-08-26T10:05:57.801Z</time>
      </trkpt>
      <trkpt lat="69.62832" lon="18.03153">
        <ele>52.64872</ele>
        <time>2020-08-26T10:06:02.797Z</time>
      </trkpt>
      <trkpt lat="69.62825" lon="18.0317">
        <ele>53.342465</ele>
        <time>2020-08-26T10:06:07.820Z</time>
      </trkpt>
      <trkpt lat="69.62817" lon="18.03188">
        <ele>54.086459</ele>
        <time>2020-08-26T10:06:12.816Z</time>
      </trkpt>
      <trkpt lat="69.62809" lon="18.03204">
        <ele>54.83455</ele>
        <time>2020-08-26T10:06:17.810Z</time>
      </trkpt>
      <trkpt lat="69.62801" lon="18.03223">
        <ele>55.584987</ele>
        <time>2020-08-26T10:06:22.833Z</time>
      </trkpt>
      <trkpt lat="69.62794" lon="18.0324">
        <ele>56.282845</ele>
        <time>2020-08-26T10:06:27.816Z</time>
      </trkpt>
      <trkpt lat="69.62787" lon="18.03256">
        <ele>56.958498</ele>
        <time>2020-08-26T10:06:32.828Z</time>
      </trkpt>
      <trkpt lat="69.62779" lon="18.03272">
        <ele>57.643196</ele>
        <time>2020-08-26T10:06:37.815Z</time>
      </trkpt>
      <trkpt lat="69.62771" lon="18.03288">
        <ele>58.421668</ele>
        <time>2020-08-26T10:06:43.804Z</time>
      </trkpt>
      <trkpt lat="69.62762" lon="18.03304">
        <ele>59.151666</ele>
        <time>2020-08-26T10:06:48.834Z</time>
      </trkpt>
      <trkpt lat="69.62754" lon="18.03318">
        <ele>59.87672</ele>
        <time>2020-08-26T10:06:53.837Z</time>
      </trkpt>
      <trkpt lat="69.62744" lon="18.03333">
        <ele>60.683369</ele>
        <time>2020-08-26T10:06:58.807Z</time>
      </trkpt>
      <trkpt lat="69.62737" lon="18.03347">
        <ele>61.347117</ele>
        <time>2020-08-26T10:07:02.813Z</time>
      </trkpt>
      <trkpt lat="69.62728" lon="18.03358">
        <ele>62.069716</ele>
        <time>2020-08-26T10:07:06.828Z</time>
      </trkpt>
      <trkpt lat="69.62719" lon="18.03366">
        <ele>62.740216</ele>
        <time>2020-08-26T10:07:10.811Z</time>
      </trkpt>
      <trkpt lat="69.62709" lon="18.03376">
        <ele>63.570379</ele>
        <time>2020-08-26T10:07:15.831Z</time>
      </trkpt>
      <trkpt lat="69.627" lon="18.03384">
        <ele>64.255041</ele>
        <time>2020-08-26T10:07:19.819Z</time>
      </trkpt>
      <trkpt lat="69.62691" lon="18.03393">
        <ele>64.108596</ele>
        <time>2020-08-26T10:07:23.805Z</time>
      </trkpt>
      <trkpt lat="69.6268" lon="18.03406">
        <ele>63.483325</ele>
        <time>2020-08-26T10:07:27.841Z</time>
      </trkpt>
      <trkpt lat="69.62671" lon="18.0342">
        <ele>62.919298</ele>
        <time>2020-08-26T10:07:30.814Z</time>
      </trkpt>
      <trkpt lat="69.62661" lon="18.03436">
        <ele>62.289476</ele>
        <time>2020-08-26T10:07:33.805Z</time>
      </trkpt>
      <trkpt lat="69.62651" lon="18.03457">
        <ele>61.628566</ele>
        <time>2020-08-26T10:07:36.808Z</time>
      </trkpt>
      <trkpt lat="69.62644" lon="18.03472">
        <ele>61.139461</ele>
        <time>2020-08-26T10:07:38.823Z</time>
      </trkpt>
      <trkpt lat="69.62636" lon="18.03488">
        <ele>60.638307</ele>
        <time>2020-08-26T10:07:40.800Z</time>
      </trkpt>
      <trkpt lat="69.62626" lon="18.0351">
        <ele>59.947291</ele>
        <time>2020-08-26T10:07:43.810Z</time>
      </trkpt>
      <trkpt lat="69.62618" lon="18.03528">
        <ele>59.412832</ele>
        <time>2020-08-26T10:07:47.808Z</time>
      </trkpt>
      <trkpt lat="69.62611" lon="18.03549">
        <ele>58.882625</ele>
        <time>2020-08-26T10:07:52.804Z</time>
      </trkpt>
      <trkpt lat="69.62605" lon="18.03568">
        <ele>58.36498</ele>
        <time>2020-08-26T10:07:56.837Z</time>
      </trkpt>
      <trkpt lat="69.62598" lon="18.03589">
        <ele>57.844955</ele>
        <time>2020-08-26T10:07:59.795Z</time>
      </trkpt>
      <trkpt lat="69.62592" lon="18.03616">
        <ele>57.230351</ele>
        <time>2020-08-26T10:08:02.805Z</time>
      </trkpt>
      <trkpt lat="69.62587" lon="18.03651">
        <ele>56.525503</ele>
        <time>2020-08-26T10:08:05.811Z</time>
      </trkpt>
      <trkpt lat="69.62585" lon="18.0368">
        <ele>55.960226</ele>
        <time>2020-08-26T10:08:07.833Z</time>
      </trkpt>
      <trkpt lat="69.62582" lon="18.03715">
        <ele>55.299427</ele>
        <time>2020-08-26T10:08:09.809Z</time>
      </trkpt>
      <trkpt lat="69.62581" lon="18.03754">
        <ele>54.672451</ele>
        <time>2020-08-26T10:08:11.812Z</time>
      </trkpt>
      <trkpt lat="69.6258" lon="18.03794">
        <ele>54.323994</ele>
        <time>2020-08-26T10:08:13.861Z</time>
      </trkpt>
      <trkpt lat="69.62577" lon="18.03834">
        <ele>53.969042</ele>
        <time>2020-08-26T10:08:15.813Z</time>
      </trkpt>
      <trkpt lat="69.62575" lon="18.03874">
        <ele>53.617922</ele>
        <time>2020-08-26T10:08:17.818Z</time>
      </trkpt>
      <trkpt lat="69.62572" lon="18.03914">
        <ele>53.264692</ele>
        <time>2020-08-26T10:08:19.806Z</time>
      </trkpt>
      <trkpt lat="69.6257" lon="18.03955">
        <ele>52.900981</ele>
        <time>2020-08-26T10:08:21.829Z</time>
      </trkpt>
      <trkpt lat="69.62568" lon="18.03999">
        <ele>52.514654</ele>
        <time>2020-08-26T10:08:23.831Z</time>
      </trkpt>
      <trkpt lat="69.62563" lon="18.04044">
        <ele>52.108462</ele>
        <time>2020-08-26T10:08:25.812Z</time>
      </trkpt>
      <trkpt lat="69.62558" lon="18.04089">
        <ele>51.691591</ele>
        <time>2020-08-26T10:08:27.825Z</time>
      </trkpt>
      <trkpt lat="69.6255" lon="18.04128">
        <ele>51.294725</ele>
        <time>2020-08-26T10:08:29.847Z</time>
      </trkpt>
      <trkpt lat="69.6254" lon="18.04161">
        <ele>50.923713</ele>
        <time>2020-08-26T10:08:31.808Z</time>
      </trkpt>
      <trkpt lat="69.6253" lon="18.04188">
        <ele>50.567271</ele>
        <time>2020-08-26T10:08:33.830Z</time>
      </trkpt>
      <trkpt lat="69.62519" lon="18.04213">
        <ele>50.38213</ele>
        <time>2020-08-26T10:08:35.801Z</time>
      </trkpt>
      <trkpt lat="69.6251" lon="18.04235">
        <ele>51.19288</ele>
        <time>2020-08-26T10:08:37.804Z</time>
      </trkpt>
      <trkpt lat="69.62502" lon="18.04251">
        <ele>51.869559</ele>
        <time>2020-08-26T10:08:39.819Z</time>
      </trkpt>
      <trkpt lat="69.62492" lon="18.0427">
        <ele>52.681201</ele>
        <time>2020-08-26T10:08:42.817Z</time>
      </trkpt>
      <trkpt lat="69.62484" lon="18.04284">
        <ele>53.326778</ele>
        <time>2020-08-26T10:08:45.810Z</time>
      </trkpt>
      <trkpt lat="69.62475" lon="18.043">
        <ele>54.054313</ele>
        <time>2020-08-26T10:08:49.812Z</time>
      </trkpt>
      <trkpt lat="69.62466" lon="18.04315">
        <ele>54.767448</ele>
        <time>2020-08-26T10:08:53.821Z</time>
      </trkpt>
      <trkpt lat="69.62457" lon="18.04329">
        <ele>55.440232</ele>
        <time>2020-08-26T10:08:57.847Z</time>
      </trkpt>
      <trkpt lat="69.62448" lon="18.04344">
        <ele>56.153369</ele>
        <time>2020-08-26T10:09:02.844Z</time>
      </trkpt>
      <trkpt lat="69.62439" lon="18.0436">
        <ele>56.885882</ele>
        <time>2020-08-26T10:09:07.812Z</time>
      </trkpt>
      <trkpt lat="69.62431" lon="18.04374">
        <ele>57.512407</ele>
        <time>2020-08-26T10:09:11.811Z</time>
      </trkpt>
      <trkpt lat="69.62422" lon="18.0439">
        <ele>58.284953</ele>
        <time>2020-08-26T10:09:16.817Z</time>
      </trkpt>
      <trkpt lat="69.62413" lon="18.04403">
        <ele>58.943342</ele>
        <time>2020-08-26T10:09:20.856Z</time>
      </trkpt>
      <trkpt lat="69.62404" lon="18.04417">
        <ele>59.645912</ele>
        <time>2020-08-26T10:09:24.810Z</time>
      </trkpt>
      <trkpt lat="69.62396" lon="18.0443">
        <ele>60.309323</ele>
        <time>2020-08-26T10:09:28.813Z</time>
      </trkpt>
      <trkpt lat="69.62386" lon="18.04447">
        <ele>61.078471</ele>
        <time>2020-08-26T10:09:32.825Z</time>
      </trkpt>
      <trkpt lat="69.62376" lon="18.04464">
        <ele>61.86676</ele>
        <time>2020-08-26T10:09:36.806Z</time>
      </trkpt>
      <trkpt lat="69.62366" lon="18.0448">
        <ele>62.541947</ele>
        <time>2020-08-26T10:09:40.825Z</time>
      </trkpt>
      <trkpt lat="69.62358" lon="18.04493">
        <ele>62.321137</ele>
        <time>2020-08-26T10:09:43.829Z</time>
      </trkpt>
      <trkpt lat="69.62348" lon="18.04509">
        <ele>62.040305</ele>
        <time>2020-08-26T10:09:47.866Z</time>
      </trkpt>
      <trkpt lat="69.62339" lon="18.04526">
        <ele>61.792918</ele>
        <time>2020-08-26T10:09:50.819Z</time>
      </trkpt>
      <trkpt lat="69.62329" lon="18.04542">
        <ele>61.519922</ele>
        <time>2020-08-26T10:09:53.807Z</time>
      </trkpt>
      <trkpt lat="69.62318" lon="18.04559">
        <ele>61.23025</ele>
        <time>2020-08-26T10:09:56.820Z</time>
      </trkpt>
      <trkpt lat="69.62307" lon="18.04577">
        <ele>60.914617</ele>
        <time>2020-08-26T10:09:59.828Z</time>
      </trkpt>
      <trkpt lat="69.62298" lon="18.04591">
        <ele>60.675379</ele>
        <time>2020-08-26T10:10:01.816Z</time>
      </trkpt>
      <trkpt lat="69.62289" lon="18.04606">
        <ele>60.420208</ele>
        <time>2020-08-26T10:10:03.851Z</time>
      </trkpt>
      <trkpt lat="69.62278" lon="18.04624">
        <ele>60.132741</ele>
        <time>2020-08-26T10:10:05.823Z</time>
      </trkpt>
      <trkpt lat="69.62267" lon="18.04644">
        <ele>59.810609</ele>
        <time>2020-08-26T10:10:07.804Z</time>
      </trkpt>
      <trkpt lat="69.62255" lon="18.0467">
        <ele>59.446353</ele>
        <time>2020-08-26T10:10:09.867Z</time>
      </trkpt>
      <trkpt lat="69.62242" lon="18.047">
        <ele>59.051229</ele>
        <time>2020-08-26T10:10:11.820Z</time>
      </trkpt>
      <trkpt lat="69.62229" lon="18.04731">
        <ele>58.657482</ele>
        <time>2020-08-26T10:10:13.813Z</time>
      </trkpt>
      <trkpt lat="69.62217" lon="18.04766">
        <ele>58.178671</ele>
        <time>2020-08-26T10:10:15.837Z</time>
      </trkpt>
      <trkpt lat="69.62212" lon="18.04786">
        <ele>57.372649</ele>
        <time>2020-08-26T10:10:16.807Z</time>
      </trkpt>
      <trkpt lat="69.62206" lon="18.04808">
        <ele>56.531886</ele>
        <time>2020-08-26T10:10:17.817Z</time>
      </trkpt>
      <trkpt lat="69.622" lon="18.04832">
        <ele>55.648757</ele>
        <time>2020-08-26T10:10:18.812Z</time>
      </trkpt>
      <trkpt lat="69.62195" lon="18.04855">
        <ele>54.806992</ele>
        <time>2020-08-26T10:10:19.808Z</time>
      </trkpt>
      <trkpt lat="69.62191" lon="18.04879">
        <ele>53.977755</ele>
        <time>2020-08-26T10:10:20.808Z</time>
      </trkpt>
      <trkpt lat="69.62186" lon="18.04903">
        <ele>53.131066</ele>
        <time>2020-08-26T10:10:21.808Z</time>
      </trkpt>
      <trkpt lat="69.62182" lon="18.04928">
        <ele>52.319918</ele>
        <time>2020-08-26T10:10:22.883Z</time>
      </trkpt>
      <trkpt lat="69.62179" lon="18.04951">
        <ele>51.527786</ele>
        <time>2020-08-26T10:10:23.822Z</time>
      </trkpt>
      <trkpt lat="69.62173" lon="18.04998">
        <ele>50.024958</ele>
        <time>2020-08-26T10:10:25.824Z</time>
      </trkpt>
      <trkpt lat="69.6217" lon="18.0504">
        <ele>48.678788</ele>
        <time>2020-08-26T10:10:27.820Z</time>
      </trkpt>
      <trkpt lat="69.62166" lon="18.05082">
        <ele>47.360629</ele>
        <time>2020-08-26T10:10:29.820Z</time>
      </trkpt>
      <trkpt lat="69.62162" lon="18.05127">
        <ele>45.951491</ele>
        <time>2020-08-26T10:10:31.811Z</time>
      </trkpt>
      <trkpt lat="69.62159" lon="18.05174">
        <ele>44.464641</ele>
        <time>2020-08-26T10:10:33.815Z</time>
      </trkpt>
      <trkpt lat="69.62155" lon="18.05224">
        <ele>42.911657</ele>
        <time>2020-08-26T10:10:35.837Z</time>
      </trkpt>
      <trkpt lat="69.62152" lon="18.05274">
        <ele>42.197931</ele>
        <time>2020-08-26T10:10:37.829Z</time>
      </trkpt>
      <trkpt lat="69.62151" lon="18.053">
        <ele>42.024013</ele>
        <time>2020-08-26T10:10:38.816Z</time>
      </trkpt>
      <trkpt lat="69.62147" lon="18.05349">
        <ele>41.686781</ele>
        <time>2020-08-26T10:10:40.807Z</time>
      </trkpt>
      <trkpt lat="69.62145" lon="18.05395">
        <ele>41.374455</ele>
        <time>2020-08-26T10:10:42.823Z</time>
      </trkpt>
      <trkpt lat="69.62142" lon="18.05439">
        <ele>41.070104</ele>
        <time>2020-08-26T10:10:44.837Z</time>
      </trkpt>
      <trkpt lat="69.62139" lon="18.0548">
        <ele>40.790574</ele>
        <time>2020-08-26T10:10:46.848Z</time>
      </trkpt>
      <trkpt lat="69.62136" lon="18.05518">
        <ele>40.526334</ele>
        <time>2020-08-26T10:10:48.823Z</time>
      </trkpt>
      <trkpt lat="69.62134" lon="18.05555">
        <ele>40.274915</ele>
        <time>2020-08-26T10:10:50.822Z</time>
      </trkpt>
      <trkpt lat="69.62131" lon="18.05589">
        <ele>40.038798</ele>
        <time>2020-08-26T10:10:52.882Z</time>
      </trkpt>
      <trkpt lat="69.62129" lon="18.05621">
        <ele>39.816925</ele>
        <time>2020-08-26T10:10:54.807Z</time>
      </trkpt>
      <trkpt lat="69.62127" lon="18.05653">
        <ele>39.603375</ele>
        <time>2020-08-26T10:10:56.799Z</time>
      </trkpt>
      <trkpt lat="69.62126" lon="18.05682">
        <ele>39.404499</ele>
        <time>2020-08-26T10:10:58.852Z</time>
      </trkpt>
      <trkpt lat="69.62124" lon="18.05708">
        <ele>39.227476</ele>
        <time>2020-08-26T10:11:00.828Z</time>
      </trkpt>
      <trkpt lat="69.62121" lon="18.0574">
        <ele>39.00235</ele>
        <time>2020-08-26T10:11:03.826Z</time>
      </trkpt>
      <trkpt lat="69.62119" lon="18.05766">
        <ele>39.425548</ele>
        <time>2020-08-26T10:11:06.833Z</time>
      </trkpt>
      <trkpt lat="69.62119" lon="18.05793">
        <ele>40.018576</ele>
        <time>2020-08-26T10:11:10.808Z</time>
      </trkpt>
      <trkpt lat="69.62117" lon="18.05818">
        <ele>40.599713</ele>
        <time>2020-08-26T10:11:14.854Z</time>
      </trkpt>
      <trkpt lat="69.62118" lon="18.05847">
        <ele>41.254947</ele>
        <time>2020-08-26T10:11:19.818Z</time>
      </trkpt>
      <trkpt lat="69.62123" lon="18.05873">
        <ele>41.914005</ele>
        <time>2020-08-26T10:11:24.815Z</time>
      </trkpt>
      <trkpt lat="69.62116" lon="18.05914">
        <ele>42.933684</ele>
        <time>2020-08-26T10:14:04.813Z</time>
      </trkpt>
      <trkpt lat="69.62109" lon="18.05935">
        <ele>43.597284</ele>
        <time>2020-08-26T10:14:10.859Z</time>
      </trkpt>
      <trkpt lat="69.62107" lon="18.05965">
        <ele>44.266975</ele>
        <time>2020-08-26T10:14:15.828Z</time>
      </trkpt>
      <trkpt lat="69.62105" lon="18.05992">
        <ele>44.897708</ele>
        <time>2020-08-26T10:14:19.812Z</time>
      </trkpt>
      <trkpt lat="69.62103" lon="18.06025">
        <ele>45.65335</ele>
        <time>2020-08-26T10:14:23.814Z</time>
      </trkpt>
      <trkpt lat="69.621" lon="18.06052">
        <ele>46.291897</ele>
        <time>2020-08-26T10:14:26.810Z</time>
      </trkpt>
      <trkpt lat="69.62098" lon="18.0608">
        <ele>46.924316</ele>
        <time>2020-08-26T10:14:29.808Z</time>
      </trkpt>
      <trkpt lat="69.62096" lon="18.06109">
        <ele>47.593806</ele>
        <time>2020-08-26T10:14:32.804Z</time>
      </trkpt>
      <trkpt lat="69.62093" lon="18.06137">
        <ele>48.254648</ele>
        <time>2020-08-26T10:14:35.839Z</time>
      </trkpt>
      <trkpt lat="69.62091" lon="18.06167">
        <ele>48.930146</ele>
        <time>2020-08-26T10:14:38.811Z</time>
      </trkpt>
      <trkpt lat="69.62088" lon="18.06196">
        <ele>49.613236</ele>
        <time>2020-08-26T10:14:41.821Z</time>
      </trkpt>
      <trkpt lat="69.62084" lon="18.06223">
        <ele>50.262513</ele>
        <time>2020-08-26T10:14:44.808Z</time>
      </trkpt>
      <trkpt lat="69.62079" lon="18.06252">
        <ele>50.55162</ele>
        <time>2020-08-26T10:14:47.823Z</time>
      </trkpt>
      <trkpt lat="69.62073" lon="18.06282">
        <ele>50.530035</ele>
        <time>2020-08-26T10:14:50.846Z</time>
      </trkpt>
      <trkpt lat="69.62068" lon="18.06316">
        <ele>50.506604</ele>
        <time>2020-08-26T10:14:53.831Z</time>
      </trkpt>
      <trkpt lat="69.62064" lon="18.0634">
        <ele>50.490023</ele>
        <time>2020-08-26T10:14:55.836Z</time>
      </trkpt>
      <trkpt lat="69.6206" lon="18.06366">
        <ele>50.472015</ele>
        <time>2020-08-26T10:14:57.836Z</time>
      </trkpt>
      <trkpt lat="69.62056" lon="18.06393">
        <ele>50.45425</ele>
        <time>2020-08-26T10:14:59.819Z</time>
      </trkpt>
      <trkpt lat="69.62052" lon="18.06418">
        <ele>50.436898</ele>
        <time>2020-08-26T10:15:01.814Z</time>
      </trkpt>
      <trkpt lat="69.62049" lon="18.06447">
        <ele>50.418441</ele>
        <time>2020-08-26T10:15:03.814Z</time>
      </trkpt>
      <trkpt lat="69.62046" lon="18.06475">
        <ele>50.399805</ele>
        <time>2020-08-26T10:15:05.829Z</time>
      </trkpt>
      <trkpt lat="69.62044" lon="18.06507">
        <ele>50.379504</ele>
        <time>2020-08-26T10:15:07.834Z</time>
      </trkpt>
      <trkpt lat="69.62041" lon="18.06542">
        <ele>50.357403</ele>
        <time>2020-08-26T10:15:09.807Z</time>
      </trkpt>
      <trkpt lat="69.62039" lon="18.06578">
        <ele>50.334288</ele>
        <time>2020-08-26T10:15:11.835Z</time>
      </trkpt>
      <trkpt lat="69.62039" lon="18.06614">
        <ele>50.311656</ele>
        <time>2020-08-26T10:15:13.827Z</time>
      </trkpt>
      <trkpt lat="69.62039" lon="18.06649">
        <ele>50.289812</ele>
        <time>2020-08-26T10:15:15.817Z</time>
      </trkpt>
      <trkpt lat="69.6204" lon="18.06682">
        <ele>50.269532</ele>
        <time>2020-08-26T10:15:17.856Z</time>
      </trkpt>
      <trkpt lat="69.62041" lon="18.06716">
        <ele>50.248249</ele>
        <time>2020-08-26T10:15:19.861Z</time>
      </trkpt>
      <trkpt lat="69.62043" lon="18.06748">
        <ele>50.379714</ele>
        <time>2020-08-26T10:15:21.796Z</time>
      </trkpt>
      <trkpt lat="69.62047" lon="18.0678">
        <ele>50.589837</ele>
        <time>2020-08-26T10:15:23.819Z</time>
      </trkpt>
      <trkpt lat="69.62051" lon="18.06812">
        <ele>50.804382</ele>
        <time>2020-08-26T10:15:25.826Z</time>
      </trkpt>
      <trkpt lat="69.62056" lon="18.06845">
        <ele>51.029074</ele>
        <time>2020-08-26T10:15:27.809Z</time>
      </trkpt>
      <trkpt lat="69.62061" lon="18.06877">
        <ele>51.254265</ele>
        <time>2020-08-26T10:15:29.933Z</time>
      </trkpt>
      <trkpt lat="69.62067" lon="18.06907">
        <ele>51.470857</ele>
        <time>2020-08-26T10:15:31.820Z</time>
      </trkpt>
      <trkpt lat="69.62073" lon="18.06935">
        <ele>51.680522</ele>
        <time>2020-08-26T10:15:33.832Z</time>
      </trkpt>
      <trkpt lat="69.62079" lon="18.06962">
        <ele>51.888368</ele>
        <time>2020-08-26T10:15:35.847Z</time>
      </trkpt>
      <trkpt lat="69.62085" lon="18.06989">
        <ele>52.093029</ele>
        <time>2020-08-26T10:15:37.829Z</time>
      </trkpt>
      <trkpt lat="69.62091" lon="18.07016">
        <ele>52.295799</ele>
        <time>2020-08-26T10:15:39.809Z</time>
      </trkpt>
      <trkpt lat="69.62097" lon="18.07043">
        <ele>52.49847</ele>
        <time>2020-08-26T10:15:41.806Z</time>
      </trkpt>
      <trkpt lat="69.62103" lon="18.0707">
        <ele>52.70313</ele>
        <time>2020-08-26T10:15:43.829Z</time>
      </trkpt>
      <trkpt lat="69.62109" lon="18.07096">
        <ele>52.900632</ele>
        <time>2020-08-26T10:15:45.818Z</time>
      </trkpt>
      <trkpt lat="69.62114" lon="18.0712">
        <ele>53.074952</ele>
        <time>2020-08-26T10:15:47.799Z</time>
      </trkpt>
      <trkpt lat="69.62118" lon="18.07143">
        <ele>53.244879</ele>
        <time>2020-08-26T10:15:49.816Z</time>
      </trkpt>
      <trkpt lat="69.62124" lon="18.07172">
        <ele>53.460368</ele>
        <time>2020-08-26T10:15:52.871Z</time>
      </trkpt>
      <trkpt lat="69.6213" lon="18.07198">
        <ele>53.369256</ele>
        <time>2020-08-26T10:15:55.804Z</time>
      </trkpt>
      <trkpt lat="69.62134" lon="18.07229">
        <ele>53.124413</ele>
        <time>2020-08-26T10:15:59.816Z</time>
      </trkpt>
      <trkpt lat="69.62137" lon="18.07257">
        <ele>52.912851</ele>
        <time>2020-08-26T10:16:03.806Z</time>
      </trkpt>
      <trkpt lat="69.6214" lon="18.07287">
        <ele>52.684845</ele>
        <time>2020-08-26T10:16:08.852Z</time>
      </trkpt>
      <trkpt lat="69.62141" lon="18.07316">
        <ele>52.472253</ele>
        <time>2020-08-26T10:16:13.799Z</time>
      </trkpt>
      <trkpt lat="69.62142" lon="18.07347">
        <ele>52.240553</ele>
        <time>2020-08-26T10:16:18.830Z</time>
      </trkpt>
      <trkpt lat="69.62142" lon="18.07375">
        <ele>52.039347</ele>
        <time>2020-08-26T10:16:22.806Z</time>
      </trkpt>
      <trkpt lat="69.62141" lon="18.07405">
        <ele>51.818552</ele>
        <time>2020-08-26T10:16:26.821Z</time>
      </trkpt>
      <trkpt lat="69.62139" lon="18.07436">
        <ele>51.587514</ele>
        <time>2020-08-26T10:16:30.827Z</time>
      </trkpt>
      <trkpt lat="69.62135" lon="18.07469">
        <ele>51.336224</ele>
        <time>2020-08-26T10:16:34.832Z</time>
      </trkpt>
      <trkpt lat="69.62131" lon="18.07495">
        <ele>51.128177</ele>
        <time>2020-08-26T10:16:37.811Z</time>
      </trkpt>
      <trkpt lat="69.62127" lon="18.07523">
        <ele>50.909265</ele>
        <time>2020-08-26T10:16:40.814Z</time>
      </trkpt>
      <trkpt lat="69.62122" lon="18.07552">
        <ele>50.66888</ele>
        <time>2020-08-26T10:16:43.811Z</time>
      </trkpt>
      <trkpt lat="69.62115" lon="18.07582">
        <ele>50.405986</ele>
        <time>2020-08-26T10:16:46.816Z</time>
      </trkpt>
      <trkpt lat="69.62109" lon="18.07603">
        <ele>50.216169</ele>
        <time>2020-08-26T10:16:48.814Z</time>
      </trkpt>
      <trkpt lat="69.62103" lon="18.07624">
        <ele>50.014901</ele>
        <time>2020-08-26T10:16:50.847Z</time>
      </trkpt>
      <trkpt lat="69.62096" lon="18.07646">
        <ele>49.796918</ele>
        <time>2020-08-26T10:16:52.821Z</time>
      </trkpt>
      <trkpt lat="69.62088" lon="18.07668">
        <ele>49.693573</ele>
        <time>2020-08-26T10:16:54.830Z</time>
      </trkpt>
      <trkpt lat="69.6208" lon="18.0769">
        <ele>49.620313</ele>
        <time>2020-08-26T10:16:56.836Z</time>
      </trkpt>
      <trkpt lat="69.62071" lon="18.0771">
        <ele>49.551271</ele>
        <time>2020-08-26T10:16:58.798Z</time>
      </trkpt>
      <trkpt lat="69.62063" lon="18.07728">
        <ele>49.482919</ele>
        <time>2020-08-26T10:17:00.835Z</time>
      </trkpt>
      <trkpt lat="69.62054" lon="18.07747">
        <ele>49.414292</ele>
        <time>2020-08-26T10:17:02.815Z</time>
      </trkpt>
      <trkpt lat="69.62046" lon="18.07765">
        <ele>49.346214</ele>
        <time>2020-08-26T10:17:04.829Z</time>
      </trkpt>
      <trkpt lat="69.62038" lon="18.07785">
        <ele>49.279029</ele>
        <time>2020-08-26T10:17:06.815Z</time>
      </trkpt>
      <trkpt lat="69.6203" lon="18.07802">
        <ele>49.212791</ele>
        <time>2020-08-26T10:17:08.820Z</time>
      </trkpt>
      <trkpt lat="69.62022" lon="18.07819">
        <ele>49.149582</ele>
        <time>2020-08-26T10:17:10.815Z</time>
      </trkpt>
      <trkpt lat="69.62014" lon="18.07834">
        <ele>49.089371</ele>
        <time>2020-08-26T10:17:12.833Z</time>
      </trkpt>
      <trkpt lat="69.62006" lon="18.0785">
        <ele>49.027991</ele>
        <time>2020-08-26T10:17:14.820Z</time>
      </trkpt>
      <trkpt lat="69.61999" lon="18.07864">
        <ele>48.968692</ele>
        <time>2020-08-26T10:17:16.824Z</time>
      </trkpt>
      <trkpt lat="69.61988" lon="18.07887">
        <ele>48.884017</ele>
        <time>2020-08-26T10:17:19.847Z</time>
      </trkpt>
      <trkpt lat="69.61978" lon="18.07906">
        <ele>48.806211</ele>
        <time>2020-08-26T10:17:22.859Z</time>
      </trkpt>
      <trkpt lat="69.61968" lon="18.07924">
        <ele>48.729135</ele>
        <time>2020-08-26T10:17:25.815Z</time>
      </trkpt>
      <trkpt lat="69.61958" lon="18.07944">
        <ele>48.65152</ele>
        <time>2020-08-26T10:17:28.818Z</time>
      </trkpt>
      <trkpt lat="69.61948" lon="18.07962">
        <ele>48.731732</ele>
        <time>2020-08-26T10:17:31.816Z</time>
      </trkpt>
      <trkpt lat="69.61939" lon="18.07979">
        <ele>49.21449</ele>
        <time>2020-08-26T10:17:34.820Z</time>
      </trkpt>
      <trkpt lat="69.6193" lon="18.07994">
        <ele>49.687559</ele>
        <time>2020-08-26T10:17:37.811Z</time>
      </trkpt>
      <trkpt lat="69.61921" lon="18.08007">
        <ele>50.17095</ele>
        <time>2020-08-26T10:17:40.831Z</time>
      </trkpt>
      <trkpt lat="69.61911" lon="18.0802">
        <ele>50.674588</ele>
        <time>2020-08-26T10:17:43.858Z</time>
      </trkpt>
      <trkpt lat="69.61901" lon="18.08031">
        <ele>51.175094</ele>
        <time>2020-08-26T10:17:46.834Z</time>
      </trkpt>
      <trkpt lat="69.61891" lon="18.0804">
        <ele>51.667598</ele>
        <time>2020-08-26T10:17:49.809Z</time>
      </trkpt>
      <trkpt lat="69.61882" lon="18.08049">
        <ele>52.127751</ele>
        <time>2020-08-26T10:17:52.820Z</time>
      </trkpt>
      <trkpt lat="69.61873" lon="18.08057">
        <ele>52.55402</ele>
        <time>2020-08-26T10:17:55.820Z</time>
      </trkpt>
      <trkpt lat="69.61861" lon="18.08063">
        <ele>53.092844</ele>
        <time>2020-08-26T10:17:59.815Z</time>
      </trkpt>
      <trkpt lat="69.61851" lon="18.08068">
        <ele>53.577959</ele>
        <time>2020-08-26T10:18:03.818Z</time>
      </trkpt>
      <trkpt lat="69.61841" lon="18.08071">
        <ele>54.039412</ele>
        <time>2020-08-26T10:18:07.810Z</time>
      </trkpt>
      <trkpt lat="69.61832" lon="18.08071">
        <ele>54.480089</ele>
        <time>2020-08-26T10:18:11.820Z</time>
      </trkpt>
      <trkpt lat="69.61822" lon="18.08071">
        <ele>54.944029</ele>
        <time>2020-08-26T10:18:15.801Z</time>
      </trkpt>
      <trkpt lat="69.61811" lon="18.08067">
        <ele>55.452798</ele>
        <time>2020-08-26T10:18:19.802Z</time>
      </trkpt>
      <trkpt lat="69.618" lon="18.0806">
        <ele>55.956978</ele>
        <time>2020-08-26T10:18:23.851Z</time>
      </trkpt>
      <trkpt lat="69.6179" lon="18.08051">
        <ele>56.449984</ele>
        <time>2020-08-26T10:18:27.813Z</time>
      </trkpt>
      <trkpt lat="69.6178" lon="18.08042">
        <ele>56.950472</ele>
        <time>2020-08-26T10:18:31.833Z</time>
      </trkpt>
      <trkpt lat="69.61769" lon="18.08033">
        <ele>57.312587</ele>
        <time>2020-08-26T10:18:35.840Z</time>
      </trkpt>
      <trkpt lat="69.61759" lon="18.08023">
        <ele>57.6612</ele>
        <time>2020-08-26T10:18:39.818Z</time>
      </trkpt>
      <trkpt lat="69.61749" lon="18.08013">
        <ele>57.999727</ele>
        <time>2020-08-26T10:18:43.792Z</time>
      </trkpt>
      <trkpt lat="69.61739" lon="18.08004">
        <ele>58.326049</ele>
        <time>2020-08-26T10:18:47.808Z</time>
      </trkpt>
      <trkpt lat="69.61729" lon="18.07991">
        <ele>58.676287</ele>
        <time>2020-08-26T10:18:51.816Z</time>
      </trkpt>
      <trkpt lat="69.61718" lon="18.07977">
        <ele>59.063395</ele>
        <time>2020-08-26T10:18:55.844Z</time>
      </trkpt>
      <trkpt lat="69.61707" lon="18.07965">
        <ele>59.445382</ele>
        <time>2020-08-26T10:18:59.816Z</time>
      </trkpt>
      <trkpt lat="69.61698" lon="18.07955">
        <ele>59.749051</ele>
        <time>2020-08-26T10:19:02.822Z</time>
      </trkpt>
      <trkpt lat="69.6169" lon="18.07945">
        <ele>60.042505</ele>
        <time>2020-08-26T10:19:05.861Z</time>
      </trkpt>
      <trkpt lat="69.61681" lon="18.07936">
        <ele>60.353646</ele>
        <time>2020-08-26T10:19:08.809Z</time>
      </trkpt>
      <trkpt lat="69.61671" lon="18.07925">
        <ele>60.689593</ele>
        <time>2020-08-26T10:19:11.833Z</time>
      </trkpt>
      <trkpt lat="69.61661" lon="18.07914">
        <ele>61.026377</ele>
        <time>2020-08-26T10:19:14.828Z</time>
      </trkpt>
      <trkpt lat="69.61651" lon="18.07903">
        <ele>61.365315</ele>
        <time>2020-08-26T10:19:17.812Z</time>
      </trkpt>
      <trkpt lat="69.61641" lon="18.07891">
        <ele>61.73789</ele>
        <time>2020-08-26T10:19:20.812Z</time>
      </trkpt>
      <trkpt lat="69.61629" lon="18.07879">
        <ele>62.131987</ele>
        <time>2020-08-26T10:19:23.817Z</time>
      </trkpt>
      <trkpt lat="69.61616" lon="18.0787">
        <ele>62.55284</ele>
        <time>2020-08-26T10:19:26.816Z</time>
      </trkpt>
      <trkpt lat="69.61607" lon="18.07866">
        <ele>62.560999</ele>
        <time>2020-08-26T10:19:28.819Z</time>
      </trkpt>
      <trkpt lat="69.61596" lon="18.0786">
        <ele>62.175769</ele>
        <time>2020-08-26T10:19:30.828Z</time>
      </trkpt>
      <trkpt lat="69.61586" lon="18.07854">
        <ele>61.781562</ele>
        <time>2020-08-26T10:19:32.829Z</time>
      </trkpt>
      <trkpt lat="69.61574" lon="18.07848">
        <ele>61.352977</ele>
        <time>2020-08-26T10:19:34.848Z</time>
      </trkpt>
      <trkpt lat="69.61562" lon="18.07842">
        <ele>60.894998</ele>
        <time>2020-08-26T10:19:36.849Z</time>
      </trkpt>
      <trkpt lat="69.61549" lon="18.07835">
        <ele>60.40271</ele>
        <time>2020-08-26T10:19:38.813Z</time>
      </trkpt>
      <trkpt lat="69.61535" lon="18.07829">
        <ele>59.874628</ele>
        <time>2020-08-26T10:19:40.813Z</time>
      </trkpt>
      <trkpt lat="69.6152" lon="18.0782">
        <ele>59.334982</ele>
        <time>2020-08-26T10:19:42.816Z</time>
      </trkpt>
      <trkpt lat="69.61505" lon="18.0781">
        <ele>58.769449</ele>
        <time>2020-08-26T10:19:44.831Z</time>
      </trkpt>
      <trkpt lat="69.6149" lon="18.07798">
        <ele>58.181012</ele>
        <time>2020-08-26T10:19:46.821Z</time>
      </trkpt>
      <trkpt lat="69.61475" lon="18.0778">
        <ele>57.580524</ele>
        <time>2020-08-26T10:19:48.821Z</time>
      </trkpt>
      <trkpt lat="69.6146" lon="18.07761">
        <ele>56.978078</ele>
        <time>2020-08-26T10:19:50.817Z</time>
      </trkpt>
      <trkpt lat="69.61445" lon="18.07739">
        <ele>56.368343</ele>
        <time>2020-08-26T10:19:52.827Z</time>
      </trkpt>
      <trkpt lat="69.6143" lon="18.07715">
        <ele>56.053986</ele>
        <time>2020-08-26T10:19:54.837Z</time>
      </trkpt>
      <trkpt lat="69.61416" lon="18.07691">
        <ele>55.947311</ele>
        <time>2020-08-26T10:19:56.807Z</time>
      </trkpt>
      <trkpt lat="69.61402" lon="18.07668">
        <ele>55.843274</ele>
        <time>2020-08-26T10:19:58.841Z</time>
      </trkpt>
      <trkpt lat="69.61387" lon="18.07647">
        <ele>55.740395</ele>
        <time>2020-08-26T10:20:00.838Z</time>
      </trkpt>
      <trkpt lat="69.61373" lon="18.07628">
        <ele>55.640256</ele>
        <time>2020-08-26T10:20:02.824Z</time>
      </trkpt>
      <trkpt lat="69.61359" lon="18.07613">
        <ele>55.543611</ele>
        <time>2020-08-26T10:20:04.814Z</time>
      </trkpt>
      <trkpt lat="69.61344" lon="18.07601">
        <ele>55.448328</ele>
        <time>2020-08-26T10:20:06.827Z</time>
      </trkpt>
      <trkpt lat="69.6133" lon="18.07593">
        <ele>55.356904</ele>
        <time>2020-08-26T10:20:08.815Z</time>
      </trkpt>
      <trkpt lat="69.61317" lon="18.0759">
        <ele>55.271929</ele>
        <time>2020-08-26T10:20:10.849Z</time>
      </trkpt>
      <trkpt lat="69.61305" lon="18.07588">
        <ele>55.193526</ele>
        <time>2020-08-26T10:20:12.820Z</time>
      </trkpt>
      <trkpt lat="69.61293" lon="18.07587">
        <ele>55.120287</ele>
        <time>2020-08-26T10:20:14.858Z</time>
      </trkpt>
      <trkpt lat="69.61282" lon="18.07591">
        <ele>55.049282</ele>
        <time>2020-08-26T10:20:16.832Z</time>
      </trkpt>
      <trkpt lat="69.61272" lon="18.07594">
        <ele>54.982688</ele>
        <time>2020-08-26T10:20:18.810Z</time>
      </trkpt>
      <trkpt lat="69.61262" lon="18.07598">
        <ele>54.964853</ele>
        <time>2020-08-26T10:20:20.831Z</time>
      </trkpt>
      <trkpt lat="69.61252" lon="18.076">
        <ele>54.955513</ele>
        <time>2020-08-26T10:20:22.824Z</time>
      </trkpt>
      <trkpt lat="69.61242" lon="18.076">
        <ele>54.946117</ele>
        <time>2020-08-26T10:20:24.832Z</time>
      </trkpt>
      <trkpt lat="69.61232" lon="18.07602">
        <ele>54.936791</ele>
        <time>2020-08-26T10:20:26.813Z</time>
      </trkpt>
      <trkpt lat="69.61222" lon="18.07604">
        <ele>54.927101</ele>
        <time>2020-08-26T10:20:28.812Z</time>
      </trkpt>
      <trkpt lat="69.61211" lon="18.07605">
        <ele>54.917232</ele>
        <time>2020-08-26T10:20:30.820Z</time>
      </trkpt>
      <trkpt lat="69.61201" lon="18.07603">
        <ele>54.907359</ele>
        <time>2020-08-26T10:20:32.811Z</time>
      </trkpt>
      <trkpt lat="69.6119" lon="18.07602">
        <ele>54.897287</ele>
        <time>2020-08-26T10:20:34.810Z</time>
      </trkpt>
      <trkpt lat="69.61179" lon="18.07599">
        <ele>54.887289</ele>
        <time>2020-08-26T10:20:36.850Z</time>
      </trkpt>
      <trkpt lat="69.61169" lon="18.07595">
        <ele>54.877523</ele>
        <time>2020-08-26T10:20:38.853Z</time>
      </trkpt>
      <trkpt lat="69.61158" lon="18.0759">
        <ele>54.867534</ele>
        <time>2020-08-26T10:20:40.815Z</time>
      </trkpt>
      <trkpt lat="69.61147" lon="18.07584">
        <ele>54.856988</ele>
        <time>2020-08-26T10:20:42.863Z</time>
      </trkpt>
      <trkpt lat="69.61137" lon="18.07575">
        <ele>54.846368</ele>
        <time>2020-08-26T10:20:44.832Z</time>
      </trkpt>
      <trkpt lat="69.61125" lon="18.07567">
        <ele>54.8355</ele>
        <time>2020-08-26T10:20:46.813Z</time>
      </trkpt>
      <trkpt lat="69.61114" lon="18.07557">
        <ele>54.824559</ele>
        <time>2020-08-26T10:20:48.815Z</time>
      </trkpt>
      <trkpt lat="69.61103" lon="18.07546">
        <ele>54.813803</ele>
        <time>2020-08-26T10:20:50.839Z</time>
      </trkpt>
      <trkpt lat="69.61093" lon="18.07534">
        <ele>54.804518</ele>
        <time>2020-08-26T10:20:52.848Z</time>
      </trkpt>
      <trkpt lat="69.61083" lon="18.07521">
        <ele>54.819292</ele>
        <time>2020-08-26T10:20:54.800Z</time>
      </trkpt>
      <trkpt lat="69.61074" lon="18.07507">
        <ele>54.833578</ele>
        <time>2020-08-26T10:20:56.837Z</time>
      </trkpt>
      <trkpt lat="69.61064" lon="18.07494">
        <ele>54.847843</ele>
        <time>2020-08-26T10:20:58.804Z</time>
      </trkpt>
      <trkpt lat="69.61055" lon="18.07481">
        <ele>54.861267</ele>
        <time>2020-08-26T10:21:00.807Z</time>
      </trkpt>
      <trkpt lat="69.61047" lon="18.07468">
        <ele>54.874322</ele>
        <time>2020-08-26T10:21:02.832Z</time>
      </trkpt>
      <trkpt lat="69.61038" lon="18.07453">
        <ele>54.887973</ele>
        <time>2020-08-26T10:21:04.810Z</time>
      </trkpt>
      <trkpt lat="69.6103" lon="18.07439">
        <ele>54.901274</ele>
        <time>2020-08-26T10:21:06.831Z</time>
      </trkpt>
      <trkpt lat="69.61021" lon="18.07426">
        <ele>54.914039</ele>
        <time>2020-08-26T10:21:08.805Z</time>
      </trkpt>
      <trkpt lat="69.61014" lon="18.07412">
        <ele>54.926311</ele>
        <time>2020-08-26T10:21:10.811Z</time>
      </trkpt>
      <trkpt lat="69.61003" lon="18.07392">
        <ele>54.943834</ele>
        <time>2020-08-26T10:21:13.852Z</time>
      </trkpt>
      <trkpt lat="69.60992" lon="18.07373">
        <ele>54.960246</ele>
        <time>2020-08-26T10:21:16.819Z</time>
      </trkpt>
      <trkpt lat="69.60981" lon="18.07365">
        <ele>54.976706</ele>
        <time>2020-08-26T10:21:19.835Z</time>
      </trkpt>
      <trkpt lat="69.6097" lon="18.07387">
        <ele>54.9948</ele>
        <time>2020-08-26T10:21:22.856Z</time>
      </trkpt>
      <trkpt lat="69.60966" lon="18.07414">
        <ele>55.008758</ele>
        <time>2020-08-26T10:21:24.867Z</time>
      </trkpt>
      <trkpt lat="69.60961" lon="18.07442">
        <ele>55.022856</ele>
        <time>2020-08-26T10:21:26.818Z</time>
      </trkpt>
      <trkpt lat="69.60956" lon="18.07471">
        <ele>55.038259</ele>
        <time>2020-08-26T10:21:28.846Z</time>
      </trkpt>
      <trkpt lat="69.60951" lon="18.07506">
        <ele>54.807468</ele>
        <time>2020-08-26T10:21:30.821Z</time>
      </trkpt>
      <trkpt lat="69.60946" lon="18.07544">
        <ele>54.328559</ele>
        <time>2020-08-26T10:21:32.807Z</time>
      </trkpt>
      <trkpt lat="69.6094" lon="18.07583">
        <ele>53.840836</ele>
        <time>2020-08-26T10:21:34.810Z</time>
      </trkpt>
      <trkpt lat="69.60936" lon="18.07623">
        <ele>53.354242</ele>
        <time>2020-08-26T10:21:36.813Z</time>
      </trkpt>
      <trkpt lat="69.60933" lon="18.07664">
        <ele>52.859176</ele>
        <time>2020-08-26T10:21:38.819Z</time>
      </trkpt>
      <trkpt lat="69.6093" lon="18.07707">
        <ele>52.358819</ele>
        <time>2020-08-26T10:21:40.820Z</time>
      </trkpt>
      <trkpt lat="69.60928" lon="18.07749">
        <ele>51.856541</ele>
        <time>2020-08-26T10:21:42.819Z</time>
      </trkpt>
      <trkpt lat="69.60926" lon="18.07793">
        <ele>51.344742</ele>
        <time>2020-08-26T10:21:44.811Z</time>
      </trkpt>
      <trkpt lat="69.60925" lon="18.07836">
        <ele>50.840859</ele>
        <time>2020-08-26T10:21:46.832Z</time>
      </trkpt>
      <trkpt lat="69.60925" lon="18.07879">
        <ele>50.336521</ele>
        <time>2020-08-26T10:21:48.830Z</time>
      </trkpt>
      <trkpt lat="69.60926" lon="18.07921">
        <ele>49.850808</ele>
        <time>2020-08-26T10:21:50.828Z</time>
      </trkpt>
      <trkpt lat="69.60926" lon="18.07961">
        <ele>49.384716</ele>
        <time>2020-08-26T10:21:52.862Z</time>
      </trkpt>
      <trkpt lat="69.60927" lon="18.07999">
        <ele>49.182328</ele>
        <time>2020-08-26T10:21:54.816Z</time>
      </trkpt>
      <trkpt lat="69.60928" lon="18.08032">
        <ele>49.839908</ele>
        <time>2020-08-26T10:21:56.810Z</time>
      </trkpt>
      <trkpt lat="69.60929" lon="18.08062">
        <ele>50.424452</ele>
        <time>2020-08-26T10:21:58.839Z</time>
      </trkpt>
      <trkpt lat="69.6093" lon="18.08088">
        <ele>50.947945</ele>
        <time>2020-08-26T10:22:00.807Z</time>
      </trkpt>
      <trkpt lat="69.60931" lon="18.08123">
        <ele>51.635107</ele>
        <time>2020-08-26T10:22:03.810Z</time>
      </trkpt>
      <trkpt lat="69.60933" lon="18.08151">
        <ele>52.185313</ele>
        <time>2020-08-26T10:22:06.800Z</time>
      </trkpt>
      <trkpt lat="69.60935" lon="18.08182">
        <ele>52.813299</ele>
        <time>2020-08-26T10:22:10.817Z</time>
      </trkpt>
      <trkpt lat="69.60936" lon="18.08209">
        <ele>53.333625</ele>
        <time>2020-08-26T10:22:14.807Z</time>
      </trkpt>
      <trkpt lat="69.60937" lon="18.08235">
        <ele>53.845153</ele>
        <time>2020-08-26T10:22:18.804Z</time>
      </trkpt>
      <trkpt lat="69.60938" lon="18.08264">
        <ele>54.431102</ele>
        <time>2020-08-26T10:22:23.861Z</time>
      </trkpt>
      <trkpt lat="69.6094" lon="18.08295">
        <ele>55.035049</ele>
        <time>2020-08-26T10:22:28.813Z</time>
      </trkpt>
      <trkpt lat="69.60941" lon="18.08321">
        <ele>55.559991</ele>
        <time>2020-08-26T10:22:33.804Z</time>
      </trkpt>
      <trkpt lat="69.60943" lon="18.08349">
        <ele>56.123726</ele>
        <time>2020-08-26T10:22:38.809Z</time>
      </trkpt>
      <trkpt lat="69.60944" lon="18.08379">
        <ele>56.706317</ele>
        <time>2020-08-26T10:22:43.814Z</time>
      </trkpt>
      <trkpt lat="69.60946" lon="18.08409">
        <ele>57.301984</ele>
        <time>2020-08-26T10:22:48.807Z</time>
      </trkpt>
      <trkpt lat="69.60947" lon="18.08434">
        <ele>57.813128</ele>
        <time>2020-08-26T10:22:52.834Z</time>
      </trkpt>
      <trkpt lat="69.60948" lon="18.0846">
        <ele>58.326231</ele>
        <time>2020-08-26T10:22:56.829Z</time>
      </trkpt>
      <trkpt lat="69.6095" lon="18.08491">
        <ele>58.928494</ele>
        <time>2020-08-26T10:23:01.807Z</time>
      </trkpt>
      <trkpt lat="69.60951" lon="18.08516">
        <ele>59.339262</ele>
        <time>2020-08-26T10:23:05.822Z</time>
      </trkpt>
      <trkpt lat="69.60954" lon="18.08544">
        <ele>59.697908</ele>
        <time>2020-08-26T10:23:09.814Z</time>
      </trkpt>
      <trkpt lat="69.60956" lon="18.08572">
        <ele>60.068725</ele>
        <time>2020-08-26T10:23:13.812Z</time>
      </trkpt>
      <trkpt lat="69.60958" lon="18.08602">
        <ele>60.463407</ele>
        <time>2020-08-26T10:23:17.820Z</time>
      </trkpt>
      <trkpt lat="69.6096" lon="18.0863">
        <ele>60.829223</ele>
        <time>2020-08-26T10:23:21.824Z</time>
      </trkpt>
      <trkpt lat="69.60961" lon="18.0866">
        <ele>61.206374</ele>
        <time>2020-08-26T10:23:25.812Z</time>
      </trkpt>
      <trkpt lat="69.60964" lon="18.08688">
        <ele>61.579996</ele>
        <time>2020-08-26T10:23:29.852Z</time>
      </trkpt>
      <trkpt lat="69.60967" lon="18.08719">
        <ele>61.988911</ele>
        <time>2020-08-26T10:23:33.831Z</time>
      </trkpt>
      <trkpt lat="69.6097" lon="18.08744">
        <ele>62.328577</ele>
        <time>2020-08-26T10:23:36.831Z</time>
      </trkpt>
      <trkpt lat="69.60974" lon="18.08773">
        <ele>62.722569</ele>
        <time>2020-08-26T10:23:39.837Z</time>
      </trkpt>
      <trkpt lat="69.60977" lon="18.08804">
        <ele>63.135726</ele>
        <time>2020-08-26T10:23:42.812Z</time>
      </trkpt>
      <trkpt lat="69.60981" lon="18.08835">
        <ele>63.563429</ele>
        <time>2020-08-26T10:23:45.816Z</time>
      </trkpt>
      <trkpt lat="69.60986" lon="18.08868">
        <ele>64.014607</ele>
        <time>2020-08-26T10:23:48.815Z</time>
      </trkpt>
      <trkpt lat="69.60991" lon="18.08903">
        <ele>64.493998</ele>
        <time>2020-08-26T10:23:51.810Z</time>
      </trkpt>
      <trkpt lat="69.60994" lon="18.08928">
        <ele>64.831551</ele>
        <time>2020-08-26T10:23:53.807Z</time>
      </trkpt>
      <trkpt lat="69.60998" lon="18.08953">
        <ele>65.185585</ele>
        <time>2020-08-26T10:23:55.808Z</time>
      </trkpt>
      <trkpt lat="69.61002" lon="18.0898">
        <ele>65.549715</ele>
        <time>2020-08-26T10:23:57.831Z</time>
      </trkpt>
      <trkpt lat="69.61005" lon="18.09007">
        <ele>65.795921</ele>
        <time>2020-08-26T10:23:59.819Z</time>
      </trkpt>
      <trkpt lat="69.61009" lon="18.09036">
        <ele>65.902712</ele>
        <time>2020-08-26T10:24:01.802Z</time>
      </trkpt>
      <trkpt lat="69.61012" lon="18.09062">
        <ele>66.003062</ele>
        <time>2020-08-26T10:24:03.820Z</time>
      </trkpt>
      <trkpt lat="69.61015" lon="18.09088">
        <ele>66.102731</ele>
        <time>2020-08-26T10:24:05.818Z</time>
      </trkpt>
      <trkpt lat="69.61019" lon="18.09114">
        <ele>66.204267</ele>
        <time>2020-08-26T10:24:07.799Z</time>
      </trkpt>
      <trkpt lat="69.61023" lon="18.0914">
        <ele>66.30337</ele>
        <time>2020-08-26T10:24:09.839Z</time>
      </trkpt>
      <trkpt lat="69.61027" lon="18.09167">
        <ele>66.407856</ele>
        <time>2020-08-26T10:24:11.828Z</time>
      </trkpt>
      <trkpt lat="69.6103" lon="18.09192">
        <ele>66.504378</ele>
        <time>2020-08-26T10:24:13.810Z</time>
      </trkpt>
      <trkpt lat="69.61034" lon="18.09218">
        <ele>66.604437</ele>
        <time>2020-08-26T10:24:15.820Z</time>
      </trkpt>
      <trkpt lat="69.61037" lon="18.09242">
        <ele>66.698384</ele>
        <time>2020-08-26T10:24:17.823Z</time>
      </trkpt>
      <trkpt lat="69.61042" lon="18.09276">
        <ele>66.830495</ele>
        <time>2020-08-26T10:24:20.807Z</time>
      </trkpt>
      <trkpt lat="69.61048" lon="18.09307">
        <ele>66.954321</ele>
        <time>2020-08-26T10:24:23.816Z</time>
      </trkpt>
      <trkpt lat="69.61053" lon="18.09336">
        <ele>67.069633</ele>
        <time>2020-08-26T10:24:26.844Z</time>
      </trkpt>
      <trkpt lat="69.61058" lon="18.09364">
        <ele>67.181724</ele>
        <time>2020-08-26T10:24:29.820Z</time>
      </trkpt>
      <trkpt lat="69.61063" lon="18.09389">
        <ele>67.286818</ele>
        <time>2020-08-26T10:24:32.807Z</time>
      </trkpt>
      <trkpt lat="69.61069" lon="18.09413">
        <ele>67.390741</ele>
        <time>2020-08-26T10:24:35.828Z</time>
      </trkpt>
      <trkpt lat="69.61075" lon="18.09436">
        <ele>67.494373</ele>
        <time>2020-08-26T10:24:38.836Z</time>
      </trkpt>
      <trkpt lat="69.61081" lon="18.09458">
        <ele>67.577013</ele>
        <time>2020-08-26T10:24:41.831Z</time>
      </trkpt>
      <trkpt lat="69.61089" lon="18.09479">
        <ele>67.258887</ele>
        <time>2020-08-26T10:24:44.835Z</time>
      </trkpt>
      <trkpt lat="69.61096" lon="18.095">
        <ele>66.962783</ele>
        <time>2020-08-26T10:24:47.861Z</time>
      </trkpt>
      <trkpt lat="69.61103" lon="18.0952">
        <ele>66.664039</ele>
        <time>2020-08-26T10:24:50.820Z</time>
      </trkpt>
      <trkpt lat="69.6111" lon="18.0954">
        <ele>66.355721</ele>
        <time>2020-08-26T10:24:53.851Z</time>
      </trkpt>
      <trkpt lat="69.61119" lon="18.09559">
        <ele>66.030888</ele>
        <time>2020-08-26T10:24:56.812Z</time>
      </trkpt>
      <trkpt lat="69.61128" lon="18.09576">
        <ele>65.708617</ele>
        <time>2020-08-26T10:24:59.826Z</time>
      </trkpt>
      <trkpt lat="69.61137" lon="18.09594">
        <ele>65.37278</ele>
        <time>2020-08-26T10:25:02.820Z</time>
      </trkpt>
      <trkpt lat="69.61147" lon="18.09612">
        <ele>65.01906</ele>
        <time>2020-08-26T10:25:05.812Z</time>
      </trkpt>
      <trkpt lat="69.61158" lon="18.09627">
        <ele>64.667385</ele>
        <time>2020-08-26T10:25:08.835Z</time>
      </trkpt>
      <trkpt lat="69.61169" lon="18.09641">
        <ele>64.294629</ele>
        <time>2020-08-26T10:25:11.798Z</time>
      </trkpt>
      <trkpt lat="69.61178" lon="18.0965">
        <ele>64.020459</ele>
        <time>2020-08-26T10:25:13.876Z</time>
      </trkpt>
      <trkpt lat="69.61187" lon="18.09659">
        <ele>63.726603</ele>
        <time>2020-08-26T10:25:15.829Z</time>
      </trkpt>
      <trkpt lat="69.61198" lon="18.09667">
        <ele>63.40496</ele>
        <time>2020-08-26T10:25:17.818Z</time>
      </trkpt>
      <trkpt lat="69.61209" lon="18.09675">
        <ele>63.060675</ele>
        <time>2020-08-26T10:25:19.834Z</time>
      </trkpt>
      <trkpt lat="69.61221" lon="18.09684">
        <ele>62.69673</ele>
        <time>2020-08-26T10:25:21.817Z</time>
      </trkpt>
      <trkpt lat="69.61233" lon="18.09693">
        <ele>62.305191</ele>
        <time>2020-08-26T10:25:23.808Z</time>
      </trkpt>
      <trkpt lat="69.61246" lon="18.09704">
        <ele>61.732141</ele>
        <time>2020-08-26T10:25:25.835Z</time>
      </trkpt>
      <trkpt lat="69.6126" lon="18.09715">
        <ele>61.103985</ele>
        <time>2020-08-26T10:25:27.818Z</time>
      </trkpt>
      <trkpt lat="69.61274" lon="18.09727">
        <ele>60.450046</ele>
        <time>2020-08-26T10:25:29.840Z</time>
      </trkpt>
      <trkpt lat="69.61287" lon="18.09739">
        <ele>59.789917</ele>
        <time>2020-08-26T10:25:31.825Z</time>
      </trkpt>
      <trkpt lat="69.61302" lon="18.09752">
        <ele>59.118148</ele>
        <time>2020-08-26T10:25:33.831Z</time>
      </trkpt>
      <trkpt lat="69.61316" lon="18.09763">
        <ele>58.426746</ele>
        <time>2020-08-26T10:25:35.808Z</time>
      </trkpt>
      <trkpt lat="69.61331" lon="18.09774">
        <ele>57.719047</ele>
        <time>2020-08-26T10:25:37.817Z</time>
      </trkpt>
      <trkpt lat="69.61347" lon="18.09787">
        <ele>57.002835</ele>
        <time>2020-08-26T10:25:39.833Z</time>
      </trkpt>
      <trkpt lat="69.61362" lon="18.09801">
        <ele>56.278391</ele>
        <time>2020-08-26T10:25:41.859Z</time>
      </trkpt>
      <trkpt lat="69.61377" lon="18.09818">
        <ele>55.558469</ele>
        <time>2020-08-26T10:25:43.827Z</time>
      </trkpt>
      <trkpt lat="69.61392" lon="18.09837">
        <ele>54.814275</ele>
        <time>2020-08-26T10:25:45.820Z</time>
      </trkpt>
      <trkpt lat="69.61407" lon="18.09859">
        <ele>54.054524</ele>
        <time>2020-08-26T10:25:47.816Z</time>
      </trkpt>
      <trkpt lat="69.61421" lon="18.09884">
        <ele>53.71969</ele>
        <time>2020-08-26T10:25:49.824Z</time>
      </trkpt>
      <trkpt lat="69.61434" lon="18.09911">
        <ele>53.397458</ele>
        <time>2020-08-26T10:25:51.798Z</time>
      </trkpt>
      <trkpt lat="69.61446" lon="18.09938">
        <ele>53.090614</ele>
        <time>2020-08-26T10:25:53.820Z</time>
      </trkpt>
      <trkpt lat="69.61458" lon="18.09964">
        <ele>52.791099</ele>
        <time>2020-08-26T10:25:55.819Z</time>
      </trkpt>
      <trkpt lat="69.6147" lon="18.09989">
        <ele>52.50101</ele>
        <time>2020-08-26T10:25:57.846Z</time>
      </trkpt>
      <trkpt lat="69.61481" lon="18.10013">
        <ele>52.224322</ele>
        <time>2020-08-26T10:25:59.816Z</time>
      </trkpt>
      <trkpt lat="69.61491" lon="18.10035">
        <ele>51.954237</ele>
        <time>2020-08-26T10:26:01.825Z</time>
      </trkpt>
      <trkpt lat="69.61502" lon="18.10056">
        <ele>51.691828</ele>
        <time>2020-08-26T10:26:03.805Z</time>
      </trkpt>
      <trkpt lat="69.61513" lon="18.10076">
        <ele>51.441151</ele>
        <time>2020-08-26T10:26:05.823Z</time>
      </trkpt>
      <trkpt lat="69.61523" lon="18.10096">
        <ele>51.189769</ele>
        <time>2020-08-26T10:26:07.794Z</time>
      </trkpt>
      <trkpt lat="69.61533" lon="18.10111">
        <ele>50.95731</ele>
        <time>2020-08-26T10:26:09.819Z</time>
      </trkpt>
      <trkpt lat="69.61544" lon="18.10125">
        <ele>50.734442</ele>
        <time>2020-08-26T10:26:11.807Z</time>
      </trkpt>
      <trkpt lat="69.61553" lon="18.10138">
        <ele>50.520345</ele>
        <time>2020-08-26T10:26:13.818Z</time>
      </trkpt>
      <trkpt lat="69.61562" lon="18.10152">
        <ele>50.516326</ele>
        <time>2020-08-26T10:26:15.810Z</time>
      </trkpt>
      <trkpt lat="69.61571" lon="18.10164">
        <ele>50.605765</ele>
        <time>2020-08-26T10:26:17.822Z</time>
      </trkpt>
      <trkpt lat="69.61581" lon="18.10172">
        <ele>50.693628</ele>
        <time>2020-08-26T10:26:19.837Z</time>
      </trkpt>
      <trkpt lat="69.6159" lon="18.10181">
        <ele>50.778082</ele>
        <time>2020-08-26T10:26:21.811Z</time>
      </trkpt>
      <trkpt lat="69.61598" lon="18.10191">
        <ele>50.86048</ele>
        <time>2020-08-26T10:26:23.832Z</time>
      </trkpt>
      <trkpt lat="69.61607" lon="18.10199">
        <ele>50.943685</ele>
        <time>2020-08-26T10:26:25.830Z</time>
      </trkpt>
      <trkpt lat="69.61616" lon="18.10207">
        <ele>51.029594</ele>
        <time>2020-08-26T10:26:27.801Z</time>
      </trkpt>
      <trkpt lat="69.61625" lon="18.10214">
        <ele>51.114469</ele>
        <time>2020-08-26T10:26:29.835Z</time>
      </trkpt>
      <trkpt lat="69.61638" lon="18.10225">
        <ele>51.233996</ele>
        <time>2020-08-26T10:26:32.810Z</time>
      </trkpt>
      <trkpt lat="69.6165" lon="18.10236">
        <ele>51.350215</ele>
        <time>2020-08-26T10:26:35.811Z</time>
      </trkpt>
      <trkpt lat="69.61662" lon="18.10247">
        <ele>51.464132</ele>
        <time>2020-08-26T10:26:38.829Z</time>
      </trkpt>
      <trkpt lat="69.61674" lon="18.10258">
        <ele>51.578237</ele>
        <time>2020-08-26T10:26:41.843Z</time>
      </trkpt>
      <trkpt lat="69.61686" lon="18.1027">
        <ele>51.690792</ele>
        <time>2020-08-26T10:26:44.839Z</time>
      </trkpt>
      <trkpt lat="69.61698" lon="18.10285">
        <ele>51.805893</ele>
        <time>2020-08-26T10:26:47.850Z</time>
      </trkpt>
      <trkpt lat="69.61709" lon="18.103">
        <ele>51.916908</ele>
        <time>2020-08-26T10:26:50.810Z</time>
      </trkpt>
      <trkpt lat="69.6172" lon="18.10315">
        <ele>52.024005</ele>
        <time>2020-08-26T10:26:53.824Z</time>
      </trkpt>
      <trkpt lat="69.61731" lon="18.1033">
        <ele>52.091689</ele>
        <time>2020-08-26T10:26:56.801Z</time>
      </trkpt>
      <trkpt lat="69.61742" lon="18.10348">
        <ele>52.130814</ele>
        <time>2020-08-26T10:26:59.812Z</time>
      </trkpt>
      <trkpt lat="69.61753" lon="18.10367">
        <ele>52.171025</ele>
        <time>2020-08-26T10:27:02.813Z</time>
      </trkpt>
      <trkpt lat="69.61764" lon="18.10387">
        <ele>52.212008</ele>
        <time>2020-08-26T10:27:05.808Z</time>
      </trkpt>
      <trkpt lat="69.61772" lon="18.10402">
        <ele>52.240225</ele>
        <time>2020-08-26T10:27:07.803Z</time>
      </trkpt>
      <trkpt lat="69.61779" lon="18.10416">
        <ele>52.268564</ele>
        <time>2020-08-26T10:27:09.798Z</time>
      </trkpt>
      <trkpt lat="69.61787" lon="18.10433">
        <ele>52.297479</ele>
        <time>2020-08-26T10:27:11.818Z</time>
      </trkpt>
      <trkpt lat="69.61794" lon="18.10449">
        <ele>52.326481</ele>
        <time>2020-08-26T10:27:13.820Z</time>
      </trkpt>
      <trkpt lat="69.61801" lon="18.10466">
        <ele>52.3549</ele>
        <time>2020-08-26T10:27:15.813Z</time>
      </trkpt>
      <trkpt lat="69.61808" lon="18.10484">
        <ele>52.384402</ele>
        <time>2020-08-26T10:27:17.833Z</time>
      </trkpt>
      <trkpt lat="69.61815" lon="18.10503">
        <ele>52.413589</ele>
        <time>2020-08-26T10:27:19.808Z</time>
      </trkpt>
      <trkpt lat="69.61822" lon="18.10523">
        <ele>52.443836</ele>
        <time>2020-08-26T10:27:21.862Z</time>
      </trkpt>
      <trkpt lat="69.61828" lon="18.10542">
        <ele>52.47334</ele>
        <time>2020-08-26T10:27:23.815Z</time>
      </trkpt>
      <trkpt lat="69.61835" lon="18.10562">
        <ele>52.502179</ele>
        <time>2020-08-26T10:27:25.846Z</time>
      </trkpt>
      <trkpt lat="69.61841" lon="18.10581">
        <ele>52.532055</ele>
        <time>2020-08-26T10:27:27.812Z</time>
      </trkpt>
      <trkpt lat="69.61848" lon="18.10601">
        <ele>52.561871</ele>
        <time>2020-08-26T10:27:29.837Z</time>
      </trkpt>
      <trkpt lat="69.61854" lon="18.10623">
        <ele>52.592726</ele>
        <time>2020-08-26T10:27:31.816Z</time>
      </trkpt>
      <trkpt lat="69.61861" lon="18.10647">
        <ele>52.625437</ele>
        <time>2020-08-26T10:27:33.813Z</time>
      </trkpt>
      <trkpt lat="69.61867" lon="18.10672">
        <ele>52.612475</ele>
        <time>2020-08-26T10:27:35.827Z</time>
      </trkpt>
      <trkpt lat="69.61873" lon="18.10698">
        <ele>52.59533</ele>
        <time>2020-08-26T10:27:37.856Z</time>
      </trkpt>
      <trkpt lat="69.61879" lon="18.10723">
        <ele>52.578501</ele>
        <time>2020-08-26T10:27:39.824Z</time>
      </trkpt>
      <trkpt lat="69.61885" lon="18.1075">
        <ele>52.561525</ele>
        <time>2020-08-26T10:27:41.811Z</time>
      </trkpt>
      <trkpt lat="69.61891" lon="18.10778">
        <ele>52.543423</ele>
        <time>2020-08-26T10:27:43.829Z</time>
      </trkpt>
      <trkpt lat="69.61896" lon="18.10808">
        <ele>52.524797</ele>
        <time>2020-08-26T10:27:45.811Z</time>
      </trkpt>
      <trkpt lat="69.61902" lon="18.10838">
        <ele>52.505807</ele>
        <time>2020-08-26T10:27:47.822Z</time>
      </trkpt>
      <trkpt lat="69.61908" lon="18.10869">
        <ele>52.486436</ele>
        <time>2020-08-26T10:27:49.808Z</time>
      </trkpt>
      <trkpt lat="69.61914" lon="18.109">
        <ele>52.467233</ele>
        <time>2020-08-26T10:27:51.821Z</time>
      </trkpt>
      <trkpt lat="69.6192" lon="18.1093">
        <ele>52.447981</ele>
        <time>2020-08-26T10:27:53.820Z</time>
      </trkpt>
      <trkpt lat="69.61925" lon="18.10961">
        <ele>52.429049</ele>
        <time>2020-08-26T10:27:55.835Z</time>
      </trkpt>
      <trkpt lat="69.61931" lon="18.1099">
        <ele>52.410313</ele>
        <time>2020-08-26T10:27:57.820Z</time>
      </trkpt>
      <trkpt lat="69.61938" lon="18.11019">
        <ele>52.391228</ele>
        <time>2020-08-26T10:27:59.807Z</time>
      </trkpt>
      <trkpt lat="69.61944" lon="18.11047">
        <ele>52.37259</ele>
        <time>2020-08-26T10:28:01.809Z</time>
      </trkpt>
      <trkpt lat="69.61951" lon="18.11075">
        <ele>52.354133</ele>
        <time>2020-08-26T10:28:03.810Z</time>
      </trkpt>
      <trkpt lat="69.61959" lon="18.11101">
        <ele>52.490443</ele>
        <time>2020-08-26T10:28:05.808Z</time>
      </trkpt>
      <trkpt lat="69.61966" lon="18.11127">
        <ele>52.792117</ele>
        <time>2020-08-26T10:28:07.810Z</time>
      </trkpt>
      <trkpt lat="69.61973" lon="18.11152">
        <ele>53.096599</ele>
        <time>2020-08-26T10:28:09.821Z</time>
      </trkpt>
      <trkpt lat="69.6198" lon="18.11176">
        <ele>53.387935</ele>
        <time>2020-08-26T10:28:11.809Z</time>
      </trkpt>
      <trkpt lat="69.61987" lon="18.11198">
        <ele>53.6624</ele>
        <time>2020-08-26T10:28:13.833Z</time>
      </trkpt>
      <trkpt lat="69.61993" lon="18.1122">
        <ele>53.93862</ele>
        <time>2020-08-26T10:28:15.809Z</time>
      </trkpt>
      <trkpt lat="69.62" lon="18.11243">
        <ele>54.205995</ele>
        <time>2020-08-26T10:28:17.816Z</time>
      </trkpt>
      <trkpt lat="69.62006" lon="18.11266">
        <ele>54.479419</ele>
        <time>2020-08-26T10:28:19.822Z</time>
      </trkpt>
      <trkpt lat="69.62012" lon="18.11288">
        <ele>54.746615</ele>
        <time>2020-08-26T10:28:21.817Z</time>
      </trkpt>
      <trkpt lat="69.62017" lon="18.11311">
        <ele>55.006615</ele>
        <time>2020-08-26T10:28:23.809Z</time>
      </trkpt>
      <trkpt lat="69.62023" lon="18.11335">
        <ele>55.26529</ele>
        <time>2020-08-26T10:28:25.829Z</time>
      </trkpt>
      <trkpt lat="69.62027" lon="18.11359">
        <ele>55.521879</ele>
        <time>2020-08-26T10:28:27.829Z</time>
      </trkpt>
      <trkpt lat="69.62033" lon="18.11383">
        <ele>55.788774</ele>
        <time>2020-08-26T10:28:29.818Z</time>
      </trkpt>
      <trkpt lat="69.62038" lon="18.11407">
        <ele>56.056757</ele>
        <time>2020-08-26T10:28:31.827Z</time>
      </trkpt>
      <trkpt lat="69.62043" lon="18.11431">
        <ele>56.324128</ele>
        <time>2020-08-26T10:28:33.817Z</time>
      </trkpt>
      <trkpt lat="69.62049" lon="18.11456">
        <ele>56.594126</ele>
        <time>2020-08-26T10:28:35.832Z</time>
      </trkpt>
      <trkpt lat="69.62053" lon="18.11482">
        <ele>56.861742</ele>
        <time>2020-08-26T10:28:37.823Z</time>
      </trkpt>
      <trkpt lat="69.62058" lon="18.11508">
        <ele>57.127774</ele>
        <time>2020-08-26T10:28:39.830Z</time>
      </trkpt>
      <trkpt lat="69.62062" lon="18.11532">
        <ele>57.590309</ele>
        <time>2020-08-26T10:28:41.817Z</time>
      </trkpt>
      <trkpt lat="69.62066" lon="18.11558">
        <ele>58.066025</ele>
        <time>2020-08-26T10:28:43.834Z</time>
      </trkpt>
      <trkpt lat="69.62071" lon="18.11583">
        <ele>58.553678</ele>
        <time>2020-08-26T10:28:45.807Z</time>
      </trkpt>
      <trkpt lat="69.62074" lon="18.11609">
        <ele>59.031374</ele>
        <time>2020-08-26T10:28:47.830Z</time>
      </trkpt>
      <trkpt lat="69.62077" lon="18.11635">
        <ele>59.503437</ele>
        <time>2020-08-26T10:28:49.817Z</time>
      </trkpt>
      <trkpt lat="69.62081" lon="18.1166">
        <ele>59.964139</ele>
        <time>2020-08-26T10:28:51.813Z</time>
      </trkpt>
      <trkpt lat="69.62084" lon="18.11685">
        <ele>60.4216</ele>
        <time>2020-08-26T10:28:53.807Z</time>
      </trkpt>
      <trkpt lat="69.62086" lon="18.11711">
        <ele>60.8783</ele>
        <time>2020-08-26T10:28:55.840Z</time>
      </trkpt>
      <trkpt lat="69.62088" lon="18.11736">
        <ele>61.320803</ele>
        <time>2020-08-26T10:28:57.808Z</time>
      </trkpt>
      <trkpt lat="69.62092" lon="18.11771">
        <ele>61.94274</ele>
        <time>2020-08-26T10:29:00.831Z</time>
      </trkpt>
      <trkpt lat="69.62095" lon="18.11801">
        <ele>62.488794</ele>
        <time>2020-08-26T10:29:03.815Z</time>
      </trkpt>
      <trkpt lat="69.62098" lon="18.11829">
        <ele>62.9868</ele>
        <time>2020-08-26T10:29:06.830Z</time>
      </trkpt>
      <trkpt lat="69.62101" lon="18.11859">
        <ele>63.532846</ele>
        <time>2020-08-26T10:29:10.867Z</time>
      </trkpt>
      <trkpt lat="69.62102" lon="18.11886">
        <ele>63.988996</ele>
        <time>2020-08-26T10:29:14.808Z</time>
      </trkpt>
      <trkpt lat="69.62104" lon="18.11916">
        <ele>64.513847</ele>
        <time>2020-08-26T10:29:19.851Z</time>
      </trkpt>
      <trkpt lat="69.62107" lon="18.11947">
        <ele>65.067123</ele>
        <time>2020-08-26T10:29:24.849Z</time>
      </trkpt>
      <trkpt lat="69.62109" lon="18.11973">
        <ele>65.520047</ele>
        <time>2020-08-26T10:29:28.816Z</time>
      </trkpt>
      <trkpt lat="69.62112" lon="18.12002">
        <ele>66.058077</ele>
        <time>2020-08-26T10:29:33.820Z</time>
      </trkpt>
      <trkpt lat="69.62115" lon="18.12031">
        <ele>66.624466</ele>
        <time>2020-08-26T10:29:38.810Z</time>
      </trkpt>
      <trkpt lat="69.62118" lon="18.12057">
        <ele>67.135136</ele>
        <time>2020-08-26T10:29:43.806Z</time>
      </trkpt>
      <trkpt lat="69.62121" lon="18.12084">
        <ele>67.678584</ele>
        <time>2020-08-26T10:29:48.847Z</time>
      </trkpt>
      <trkpt lat="69.62123" lon="18.1211">
        <ele>68.16807</ele>
        <time>2020-08-26T10:29:52.828Z</time>
      </trkpt>
      <trkpt lat="69.62125" lon="18.12135">
        <ele>68.652613</ele>
        <time>2020-08-26T10:29:56.827Z</time>
      </trkpt>
      <trkpt lat="69.62129" lon="18.12165">
        <ele>69.261388</ele>
        <time>2020-08-26T10:30:01.818Z</time>
      </trkpt>
      <trkpt lat="69.62133" lon="18.12192">
        <ele>69.81119</ele>
        <time>2020-08-26T10:30:05.837Z</time>
      </trkpt>
      <trkpt lat="69.62137" lon="18.12216">
        <ele>70.313608</ele>
        <time>2020-08-26T10:30:09.837Z</time>
      </trkpt>
      <trkpt lat="69.62141" lon="18.1224">
        <ele>70.820665</ele>
        <time>2020-08-26T10:30:13.847Z</time>
      </trkpt>
      <trkpt lat="69.62144" lon="18.12267">
        <ele>71.34965</ele>
        <time>2020-08-26T10:30:17.814Z</time>
      </trkpt>
      <trkpt lat="69.62148" lon="18.12295">
        <ele>71.913708</ele>
        <time>2020-08-26T10:30:21.808Z</time>
      </trkpt>
      <trkpt lat="69.62151" lon="18.12326">
        <ele>72.527573</ele>
        <time>2020-08-26T10:30:25.830Z</time>
      </trkpt>
      <trkpt lat="69.62156" lon="18.12352">
        <ele>73.0767</ele>
        <time>2020-08-26T10:30:28.813Z</time>
      </trkpt>
      <trkpt lat="69.6216" lon="18.12383">
        <ele>73.698712</ele>
        <time>2020-08-26T10:30:31.815Z</time>
      </trkpt>
      <trkpt lat="69.62164" lon="18.12411">
        <ele>74.27274</ele>
        <time>2020-08-26T10:30:34.814Z</time>
      </trkpt>
      <trkpt lat="69.62168" lon="18.12437">
        <ele>74.80612</ele>
        <time>2020-08-26T10:30:37.812Z</time>
      </trkpt>
      <trkpt lat="69.62172" lon="18.12465">
        <ele>75.378077</ele>
        <time>2020-08-26T10:30:40.840Z</time>
      </trkpt>
      <trkpt lat="69.62176" lon="18.12495">
        <ele>75.744008</ele>
        <time>2020-08-26T10:30:43.814Z</time>
      </trkpt>
      <trkpt lat="69.62179" lon="18.12527">
        <ele>75.694861</ele>
        <time>2020-08-26T10:30:46.814Z</time>
      </trkpt>
      <trkpt lat="69.62183" lon="18.12551">
        <ele>75.656871</ele>
        <time>2020-08-26T10:30:48.810Z</time>
      </trkpt>
      <trkpt lat="69.62186" lon="18.12576">
        <ele>75.618177</ele>
        <time>2020-08-26T10:30:50.823Z</time>
      </trkpt>
      <trkpt lat="69.62189" lon="18.126">
        <ele>75.580533</ele>
        <time>2020-08-26T10:30:52.810Z</time>
      </trkpt>
      <trkpt lat="69.62192" lon="18.12625">
        <ele>75.54107</ele>
        <time>2020-08-26T10:30:54.845Z</time>
      </trkpt>
      <trkpt lat="69.62196" lon="18.12652">
        <ele>75.498708</ele>
        <time>2020-08-26T10:30:56.810Z</time>
      </trkpt>
      <trkpt lat="69.622" lon="18.12678">
        <ele>75.457796</ele>
        <time>2020-08-26T10:30:58.821Z</time>
      </trkpt>
      <trkpt lat="69.62203" lon="18.12706">
        <ele>75.414756</ele>
        <time>2020-08-26T10:31:00.817Z</time>
      </trkpt>
      <trkpt lat="69.62207" lon="18.12734">
        <ele>75.3706</ele>
        <time>2020-08-26T10:31:02.857Z</time>
      </trkpt>
      <trkpt lat="69.62211" lon="18.12763">
        <ele>75.325049</ele>
        <time>2020-08-26T10:31:04.806Z</time>
      </trkpt>
      <trkpt lat="69.62214" lon="18.12792">
        <ele>75.280344</ele>
        <time>2020-08-26T10:31:06.819Z</time>
      </trkpt>
      <trkpt lat="69.62219" lon="18.12821">
        <ele>75.232944</ele>
        <time>2020-08-26T10:31:08.827Z</time>
      </trkpt>
      <trkpt lat="69.62223" lon="18.12851">
        <ele>75.184877</ele>
        <time>2020-08-26T10:31:10.804Z</time>
      </trkpt>
      <trkpt lat="69.62228" lon="18.1288">
        <ele>75.138274</ele>
        <time>2020-08-26T10:31:12.832Z</time>
      </trkpt>
      <trkpt lat="69.62233" lon="18.1291">
        <ele>75.090298</ele>
        <time>2020-08-26T10:31:14.827Z</time>
      </trkpt>
      <trkpt lat="69.62238" lon="18.12939">
        <ele>75.043163</ele>
        <time>2020-08-26T10:31:16.812Z</time>
      </trkpt>
      <trkpt lat="69.62243" lon="18.12968">
        <ele>74.959947</ele>
        <time>2020-08-26T10:31:18.810Z</time>
      </trkpt>
      <trkpt lat="69.62248" lon="18.12996">
        <ele>74.720444</ele>
        <time>2020-08-26T10:31:20.815Z</time>
      </trkpt>
      <trkpt lat="69.62254" lon="18.13023">
        <ele>74.489703</ele>
        <time>2020-08-26T10:31:22.811Z</time>
      </trkpt>
      <trkpt lat="69.6226" lon="18.13049">
        <ele>74.255129</ele>
        <time>2020-08-26T10:31:24.832Z</time>
      </trkpt>
      <trkpt lat="69.62266" lon="18.13074">
        <ele>74.029704</ele>
        <time>2020-08-26T10:31:26.832Z</time>
      </trkpt>
      <trkpt lat="69.62273" lon="18.13098">
        <ele>73.800383</ele>
        <time>2020-08-26T10:31:28.854Z</time>
      </trkpt>
      <trkpt lat="69.6228" lon="18.1312">
        <ele>73.573327</ele>
        <time>2020-08-26T10:31:30.832Z</time>
      </trkpt>
      <trkpt lat="69.62287" lon="18.13142">
        <ele>73.355374</ele>
        <time>2020-08-26T10:31:32.820Z</time>
      </trkpt>
      <trkpt lat="69.62294" lon="18.13163">
        <ele>73.140111</ele>
        <time>2020-08-26T10:31:34.842Z</time>
      </trkpt>
      <trkpt lat="69.62301" lon="18.13183">
        <ele>72.930135</ele>
        <time>2020-08-26T10:31:36.813Z</time>
      </trkpt>
      <trkpt lat="69.62308" lon="18.132">
        <ele>72.731798</ele>
        <time>2020-08-26T10:31:38.821Z</time>
      </trkpt>
      <trkpt lat="69.62315" lon="18.13216">
        <ele>72.536928</ele>
        <time>2020-08-26T10:31:40.837Z</time>
      </trkpt>
      <trkpt lat="69.62322" lon="18.13232">
        <ele>72.3459</ele>
        <time>2020-08-26T10:31:42.822Z</time>
      </trkpt>
      <trkpt lat="69.62333" lon="18.13254">
        <ele>72.069691</ele>
        <time>2020-08-26T10:31:45.818Z</time>
      </trkpt>
      <trkpt lat="69.62343" lon="18.13274">
        <ele>71.809469</ele>
        <time>2020-08-26T10:31:48.835Z</time>
      </trkpt>
      <trkpt lat="69.62353" lon="18.13296">
        <ele>71.539323</ele>
        <time>2020-08-26T10:31:51.894Z</time>
      </trkpt>
      <trkpt lat="69.62363" lon="18.1332">
        <ele>71.253703</ele>
        <time>2020-08-26T10:31:54.851Z</time>
      </trkpt>
      <trkpt lat="69.6237" lon="18.13338">
        <ele>71.254564</ele>
        <time>2020-08-26T10:31:56.828Z</time>
      </trkpt>
      <trkpt lat="69.62377" lon="18.13357">
        <ele>71.400383</ele>
        <time>2020-08-26T10:31:58.842Z</time>
      </trkpt>
      <trkpt lat="69.62384" lon="18.13377">
        <ele>71.550589</ele>
        <time>2020-08-26T10:32:00.826Z</time>
      </trkpt>
      <trkpt lat="69.62392" lon="18.13399">
        <ele>71.714394</ele>
        <time>2020-08-26T10:32:02.842Z</time>
      </trkpt>
      <trkpt lat="69.62399" lon="18.13421">
        <ele>71.875119</ele>
        <time>2020-08-26T10:32:04.842Z</time>
      </trkpt>
      <trkpt lat="69.62405" lon="18.13444">
        <ele>72.02796</ele>
        <time>2020-08-26T10:32:06.815Z</time>
      </trkpt>
      <trkpt lat="69.62412" lon="18.13467">
        <ele>72.186432</ele>
        <time>2020-08-26T10:32:08.855Z</time>
      </trkpt>
      <trkpt lat="69.62418" lon="18.1349">
        <ele>72.33474</ele>
        <time>2020-08-26T10:32:10.805Z</time>
      </trkpt>
      <trkpt lat="69.62423" lon="18.13511">
        <ele>72.473857</ele>
        <time>2020-08-26T10:32:12.868Z</time>
      </trkpt>
      <trkpt lat="69.6243" lon="18.13544">
        <ele>72.679192</ele>
        <time>2020-08-26T10:32:15.826Z</time>
      </trkpt>
      <trkpt lat="69.62435" lon="18.13566">
        <ele>72.819207</ele>
        <time>2020-08-26T10:32:17.833Z</time>
      </trkpt>
      <trkpt lat="69.62442" lon="18.13594">
        <ele>73.007068</ele>
        <time>2020-08-26T10:32:20.856Z</time>
      </trkpt>
      <trkpt lat="69.62449" lon="18.13618">
        <ele>73.164821</ele>
        <time>2020-08-26T10:32:23.815Z</time>
      </trkpt>
      <trkpt lat="69.62456" lon="18.13638">
        <ele>73.314816</ele>
        <time>2020-08-26T10:32:26.830Z</time>
      </trkpt>
      <trkpt lat="69.62464" lon="18.13661">
        <ele>73.492499</ele>
        <time>2020-08-26T10:32:30.820Z</time>
      </trkpt>
      <trkpt lat="69.62472" lon="18.13683">
        <ele>73.652729</ele>
        <time>2020-08-26T10:32:34.807Z</time>
      </trkpt>
      <trkpt lat="69.62478" lon="18.13702">
        <ele>73.797073</ele>
        <time>2020-08-26T10:32:38.803Z</time>
      </trkpt>
      <trkpt lat="69.62484" lon="18.13724">
        <ele>73.945195</ele>
        <time>2020-08-26T10:32:42.825Z</time>
      </trkpt>
      <trkpt lat="69.6249" lon="18.13753">
        <ele>74.131522</ele>
        <time>2020-08-26T10:32:46.813Z</time>
      </trkpt>
      <trkpt lat="69.62496" lon="18.13779">
        <ele>74.300689</ele>
        <time>2020-08-26T10:32:49.870Z</time>
      </trkpt>
      <trkpt lat="69.62501" lon="18.13806">
        <ele>74.474596</ele>
        <time>2020-08-26T10:32:52.827Z</time>
      </trkpt>
      <trkpt lat="69.62508" lon="18.13835">
        <ele>74.662243</ele>
        <time>2020-08-26T10:32:55.861Z</time>
      </trkpt>
      <trkpt lat="69.62515" lon="18.13863">
        <ele>74.861265</ele>
        <time>2020-08-26T10:32:58.839Z</time>
      </trkpt>
      <trkpt lat="69.62522" lon="18.13895">
        <ele>75.065073</ele>
        <time>2020-08-26T10:33:01.806Z</time>
      </trkpt>
      <trkpt lat="69.62527" lon="18.13918">
        <ele>75.211328</ele>
        <time>2020-08-26T10:33:03.848Z</time>
      </trkpt>
      <trkpt lat="69.62531" lon="18.13944">
        <ele>75.370042</ele>
        <time>2020-08-26T10:33:05.806Z</time>
      </trkpt>
      <trkpt lat="69.62535" lon="18.13971">
        <ele>75.533561</ele>
        <time>2020-08-26T10:33:07.805Z</time>
      </trkpt>
      <trkpt lat="69.62539" lon="18.14003">
        <ele>75.719987</ele>
        <time>2020-08-26T10:33:09.826Z</time>
      </trkpt>
      <trkpt lat="69.62543" lon="18.14037">
        <ele>75.91839</ele>
        <time>2020-08-26T10:33:11.822Z</time>
      </trkpt>
      <trkpt lat="69.62547" lon="18.1407">
        <ele>76.113366</ele>
        <time>2020-08-26T10:33:13.856Z</time>
      </trkpt>
      <trkpt lat="69.62552" lon="18.14102">
        <ele>76.302126</ele>
        <time>2020-08-26T10:33:15.818Z</time>
      </trkpt>
      <trkpt lat="69.62556" lon="18.14132">
        <ele>76.483883</ele>
        <time>2020-08-26T10:33:17.827Z</time>
      </trkpt>
      <trkpt lat="69.62562" lon="18.1416">
        <ele>76.660582</ele>
        <time>2020-08-26T10:33:19.824Z</time>
      </trkpt>
      <trkpt lat="69.62567" lon="18.14187">
        <ele>76.602001</ele>
        <time>2020-08-26T10:33:21.837Z</time>
      </trkpt>
      <trkpt lat="69.62571" lon="18.14211">
        <ele>76.302479</ele>
        <time>2020-08-26T10:33:23.822Z</time>
      </trkpt>
      <trkpt lat="69.62578" lon="18.14238">
        <ele>75.915165</ele>
        <time>2020-08-26T10:33:26.821Z</time>
      </trkpt>
      <trkpt lat="69.62584" lon="18.1426">
        <ele>75.600175</ele>
        <time>2020-08-26T10:33:29.836Z</time>
      </trkpt>
      <trkpt lat="69.62591" lon="18.14282">
        <ele>75.270135</ele>
        <time>2020-08-26T10:33:33.815Z</time>
      </trkpt>
      <trkpt lat="69.62596" lon="18.14305">
        <ele>74.973148</ele>
        <time>2020-08-26T10:33:37.808Z</time>
      </trkpt>
      <trkpt lat="69.62605" lon="18.14324">
        <ele>74.618708</ele>
        <time>2020-08-26T10:33:42.820Z</time>
      </trkpt>
      <trkpt lat="69.62613" lon="18.14341">
        <ele>74.296822</ele>
        <time>2020-08-26T10:33:46.829Z</time>
      </trkpt>
      <trkpt lat="69.62621" lon="18.14363">
        <ele>73.934611</ele>
        <time>2020-08-26T10:33:51.836Z</time>
      </trkpt>
      <trkpt lat="69.62627" lon="18.14387">
        <ele>73.587848</ele>
        <time>2020-08-26T10:33:56.817Z</time>
      </trkpt>
      <trkpt lat="69.62634" lon="18.14405">
        <ele>73.287946</ele>
        <time>2020-08-26T10:34:00.823Z</time>
      </trkpt>
      <trkpt lat="69.62641" lon="18.14424">
        <ele>72.976329</ele>
        <time>2020-08-26T10:34:04.816Z</time>
      </trkpt>
      <trkpt lat="69.62648" lon="18.1444">
        <ele>72.684823</ele>
        <time>2020-08-26T10:34:07.808Z</time>
      </trkpt>
      <trkpt lat="69.62656" lon="18.14459">
        <ele>72.372128</ele>
        <time>2020-08-26T10:34:10.821Z</time>
      </trkpt>
      <trkpt lat="69.62662" lon="18.1448">
        <ele>72.058656</ele>
        <time>2020-08-26T10:34:13.808Z</time>
      </trkpt>
      <trkpt lat="69.62668" lon="18.14499">
        <ele>71.759877</ele>
        <time>2020-08-26T10:34:16.803Z</time>
      </trkpt>
      <trkpt lat="69.62675" lon="18.14518">
        <ele>71.4475</ele>
        <time>2020-08-26T10:34:19.808Z</time>
      </trkpt>
      <trkpt lat="69.62683" lon="18.1454">
        <ele>71.094581</ele>
        <time>2020-08-26T10:34:22.811Z</time>
      </trkpt>
      <trkpt lat="69.62692" lon="18.14561">
        <ele>70.69277</ele>
        <time>2020-08-26T10:34:25.864Z</time>
      </trkpt>
      <trkpt lat="69.62702" lon="18.14585">
        <ele>70.199723</ele>
        <time>2020-08-26T10:34:28.840Z</time>
      </trkpt>
      <trkpt lat="69.62708" lon="18.14604">
        <ele>69.843049</ele>
        <time>2020-08-26T10:34:30.813Z</time>
      </trkpt>
      <trkpt lat="69.62715" lon="18.14625">
        <ele>69.464341</ele>
        <time>2020-08-26T10:34:32.839Z</time>
      </trkpt>
      <trkpt lat="69.62722" lon="18.14647">
        <ele>69.070863</ele>
        <time>2020-08-26T10:34:34.837Z</time>
      </trkpt>
      <trkpt lat="69.6273" lon="18.14667">
        <ele>68.662136</ele>
        <time>2020-08-26T10:34:36.830Z</time>
      </trkpt>
      <trkpt lat="69.6274" lon="18.14685">
        <ele>68.233881</ele>
        <time>2020-08-26T10:34:38.827Z</time>
      </trkpt>
      <trkpt lat="69.6275" lon="18.14708">
        <ele>67.753164</ele>
        <time>2020-08-26T10:34:40.802Z</time>
      </trkpt>
      <trkpt lat="69.62761" lon="18.14732">
        <ele>67.229867</ele>
        <time>2020-08-26T10:34:42.815Z</time>
      </trkpt>
      <trkpt lat="69.62771" lon="18.14758">
        <ele>66.719019</ele>
        <time>2020-08-26T10:34:44.839Z</time>
      </trkpt>
      <trkpt lat="69.6278" lon="18.14785">
        <ele>66.211847</ele>
        <time>2020-08-26T10:34:46.813Z</time>
      </trkpt>
      <trkpt lat="69.6279" lon="18.14809">
        <ele>65.734791</ele>
        <time>2020-08-26T10:34:48.832Z</time>
      </trkpt>
      <trkpt lat="69.62798" lon="18.14831">
        <ele>65.308825</ele>
        <time>2020-08-26T10:34:50.834Z</time>
      </trkpt>
      <trkpt lat="69.62805" lon="18.14852">
        <ele>64.919344</ele>
        <time>2020-08-26T10:34:52.814Z</time>
      </trkpt>
      <trkpt lat="69.62814" lon="18.14874">
        <ele>64.475661</ele>
        <time>2020-08-26T10:34:55.837Z</time>
      </trkpt>
      <trkpt lat="69.62821" lon="18.14893">
        <ele>64.127323</ele>
        <time>2020-08-26T10:34:58.831Z</time>
      </trkpt>
      <trkpt lat="69.62828" lon="18.14916">
        <ele>64.197399</ele>
        <time>2020-08-26T10:35:01.812Z</time>
      </trkpt>
      <trkpt lat="69.62836" lon="18.1494">
        <ele>64.274352</ele>
        <time>2020-08-26T10:35:04.836Z</time>
      </trkpt>
      <trkpt lat="69.62844" lon="18.14963">
        <ele>64.350716</ele>
        <time>2020-08-26T10:35:07.831Z</time>
      </trkpt>
      <trkpt lat="69.62852" lon="18.14988">
        <ele>64.427703</ele>
        <time>2020-08-26T10:35:10.850Z</time>
      </trkpt>
      <trkpt lat="69.6286" lon="18.15016">
        <ele>64.512127</ele>
        <time>2020-08-26T10:35:13.848Z</time>
      </trkpt>
      <trkpt lat="69.62869" lon="18.15045">
        <ele>64.601361</ele>
        <time>2020-08-26T10:35:16.832Z</time>
      </trkpt>
      <trkpt lat="69.62875" lon="18.15064">
        <ele>64.661902</ele>
        <time>2020-08-26T10:35:18.820Z</time>
      </trkpt>
      <trkpt lat="69.62881" lon="18.15087">
        <ele>64.725672</ele>
        <time>2020-08-26T10:35:20.823Z</time>
      </trkpt>
      <trkpt lat="69.62886" lon="18.15111">
        <ele>64.793074</ele>
        <time>2020-08-26T10:35:22.849Z</time>
      </trkpt>
      <trkpt lat="69.62893" lon="18.15139">
        <ele>64.873259</ele>
        <time>2020-08-26T10:35:24.841Z</time>
      </trkpt>
      <trkpt lat="69.62901" lon="18.15169">
        <ele>64.961872</ele>
        <time>2020-08-26T10:35:26.849Z</time>
      </trkpt>
      <trkpt lat="69.62909" lon="18.15202">
        <ele>65.054004</ele>
        <time>2020-08-26T10:35:28.815Z</time>
      </trkpt>
      <trkpt lat="69.62917" lon="18.15238">
        <ele>65.153039</ele>
        <time>2020-08-26T10:35:30.857Z</time>
      </trkpt>
      <trkpt lat="69.62924" lon="18.15276">
        <ele>65.253374</ele>
        <time>2020-08-26T10:35:32.819Z</time>
      </trkpt>
      <trkpt lat="69.62931" lon="18.15314">
        <ele>65.197578</ele>
        <time>2020-08-26T10:35:34.871Z</time>
      </trkpt>
      <trkpt lat="69.62939" lon="18.15352">
        <ele>64.810175</ele>
        <time>2020-08-26T10:35:36.817Z</time>
      </trkpt>
      <trkpt lat="69.62945" lon="18.15388">
        <ele>64.434393</ele>
        <time>2020-08-26T10:35:38.819Z</time>
      </trkpt>
      <trkpt lat="69.62952" lon="18.15424">
        <ele>64.06497</ele>
        <time>2020-08-26T10:35:40.832Z</time>
      </trkpt>
      <trkpt lat="69.62958" lon="18.1546">
        <ele>63.706599</ele>
        <time>2020-08-26T10:35:42.833Z</time>
      </trkpt>
      <trkpt lat="69.62963" lon="18.15498">
        <ele>63.341686</ele>
        <time>2020-08-26T10:35:44.826Z</time>
      </trkpt>
      <trkpt lat="69.62967" lon="18.15535">
        <ele>62.989662</ele>
        <time>2020-08-26T10:35:46.821Z</time>
      </trkpt>
      <trkpt lat="69.62972" lon="18.15568">
        <ele>62.671907</ele>
        <time>2020-08-26T10:35:48.799Z</time>
      </trkpt>
      <trkpt lat="69.62974" lon="18.15603">
        <ele>62.349799</ele>
        <time>2020-08-26T10:35:51.852Z</time>
      </trkpt>
      <trkpt lat="69.62974" lon="18.15631">
        <ele>62.099009</ele>
        <time>2020-08-26T10:35:58.818Z</time>
      </trkpt>
      <trkpt lat="69.62975" lon="18.15658">
        <ele>61.858305</ele>
        <time>2020-08-26T10:36:01.831Z</time>
      </trkpt>
      <trkpt lat="69.62878" lon="18.17282">
        <ele>56.816856</ele>
        <time>2020-08-26T10:37:25.883Z</time>
      </trkpt>
      <trkpt lat="69.62894" lon="18.17331">
        <ele>55.685049</ele>
        <time>2020-08-26T10:37:26.824Z</time>
      </trkpt>
      <trkpt lat="69.62897" lon="18.17289">
        <ele>54.477686</ele>
        <time>2020-08-26T10:37:27.821Z</time>
      </trkpt>
      <trkpt lat="69.62877" lon="18.17347">
        <ele>52.180527</ele>
        <time>2020-08-26T10:37:29.833Z</time>
      </trkpt>
      <trkpt lat="69.62872" lon="18.17387">
        <ele>50.975934</ele>
        <time>2020-08-26T10:37:31.811Z</time>
      </trkpt>
      <trkpt lat="69.62864" lon="18.17426">
        <ele>49.693804</ele>
        <time>2020-08-26T10:37:33.816Z</time>
      </trkpt>
      <trkpt lat="69.62854" lon="18.17461">
        <ele>48.426934</ele>
        <time>2020-08-26T10:37:35.830Z</time>
      </trkpt>
      <trkpt lat="69.62845" lon="18.17494">
        <ele>47.206687</ele>
        <time>2020-08-26T10:37:37.814Z</time>
      </trkpt>
      <trkpt lat="69.62836" lon="18.17525">
        <ele>46.090037</ele>
        <time>2020-08-26T10:37:39.814Z</time>
      </trkpt>
      <trkpt lat="69.62829" lon="18.17551">
        <ele>45.141615</ele>
        <time>2020-08-26T10:37:41.854Z</time>
      </trkpt>
      <trkpt lat="69.62822" lon="18.17572">
        <ele>44.347973</ele>
        <time>2020-08-26T10:37:43.815Z</time>
      </trkpt>
      <trkpt lat="69.62815" lon="18.17598">
        <ele>43.370055</ele>
        <time>2020-08-26T10:37:46.860Z</time>
      </trkpt>
      <trkpt lat="69.62806" lon="18.17623">
        <ele>42.35255</ele>
        <time>2020-08-26T10:37:49.848Z</time>
      </trkpt>
      <trkpt lat="69.62799" lon="18.17644">
        <ele>41.949362</ele>
        <time>2020-08-26T10:37:51.824Z</time>
      </trkpt>
      <trkpt lat="69.62791" lon="18.17666">
        <ele>42.008489</ele>
        <time>2020-08-26T10:37:53.808Z</time>
      </trkpt>
      <trkpt lat="69.62782" lon="18.17692">
        <ele>42.07732</ele>
        <time>2020-08-26T10:37:55.808Z</time>
      </trkpt>
      <trkpt lat="69.62772" lon="18.1772">
        <ele>42.151288</ele>
        <time>2020-08-26T10:37:57.860Z</time>
      </trkpt>
      <trkpt lat="69.62761" lon="18.17751">
        <ele>42.231372</ele>
        <time>2020-08-26T10:37:59.839Z</time>
      </trkpt>
      <trkpt lat="69.6275" lon="18.17786">
        <ele>42.317947</ele>
        <time>2020-08-26T10:38:01.827Z</time>
      </trkpt>
      <trkpt lat="69.6274" lon="18.17823">
        <ele>42.405965</ele>
        <time>2020-08-26T10:38:03.820Z</time>
      </trkpt>
      <trkpt lat="69.6273" lon="18.17861">
        <ele>42.4922</ele>
        <time>2020-08-26T10:38:05.831Z</time>
      </trkpt>
      <trkpt lat="69.62721" lon="18.17897">
        <ele>42.57374</ele>
        <time>2020-08-26T10:38:07.816Z</time>
      </trkpt>
      <trkpt lat="69.62713" lon="18.17928">
        <ele>42.646277</ele>
        <time>2020-08-26T10:38:09.816Z</time>
      </trkpt>
      <trkpt lat="69.62705" lon="18.17956">
        <ele>42.71192</ele>
        <time>2020-08-26T10:38:11.808Z</time>
      </trkpt>
      <trkpt lat="69.62698" lon="18.1798">
        <ele>42.771327</ele>
        <time>2020-08-26T10:38:13.840Z</time>
      </trkpt>
      <trkpt lat="69.6269" lon="18.18002">
        <ele>42.82905</ele>
        <time>2020-08-26T10:38:15.824Z</time>
      </trkpt>
      <trkpt lat="69.62682" lon="18.18023">
        <ele>42.918785</ele>
        <time>2020-08-26T10:38:17.853Z</time>
      </trkpt>
      <trkpt lat="69.62673" lon="18.18047">
        <ele>43.154826</ele>
        <time>2020-08-26T10:38:19.821Z</time>
      </trkpt>
      <trkpt lat="69.62662" lon="18.18073">
        <ele>43.418517</ele>
        <time>2020-08-26T10:38:21.839Z</time>
      </trkpt>
      <trkpt lat="69.62651" lon="18.18101">
        <ele>43.704891</ele>
        <time>2020-08-26T10:38:23.849Z</time>
      </trkpt>
      <trkpt lat="69.62639" lon="18.18132">
        <ele>44.011184</ele>
        <time>2020-08-26T10:38:25.829Z</time>
      </trkpt>
      <trkpt lat="69.62627" lon="18.18163">
        <ele>44.32434</ele>
        <time>2020-08-26T10:38:27.813Z</time>
      </trkpt>
      <trkpt lat="69.62616" lon="18.18195">
        <ele>44.631882</ele>
        <time>2020-08-26T10:38:29.826Z</time>
      </trkpt>
      <trkpt lat="69.62606" lon="18.18226">
        <ele>44.922046</ele>
        <time>2020-08-26T10:38:31.845Z</time>
      </trkpt>
      <trkpt lat="69.62597" lon="18.18255">
        <ele>45.180521</ele>
        <time>2020-08-26T10:38:33.852Z</time>
      </trkpt>
      <trkpt lat="69.62589" lon="18.1828">
        <ele>45.400225</ele>
        <time>2020-08-26T10:38:35.808Z</time>
      </trkpt>
      <trkpt lat="69.62583" lon="18.183">
        <ele>45.575549</ele>
        <time>2020-08-26T10:38:37.832Z</time>
      </trkpt>
      <trkpt lat="69.62577" lon="18.18322">
        <ele>45.767117</ele>
        <time>2020-08-26T10:38:40.906Z</time>
      </trkpt>
      <trkpt lat="69.62571" lon="18.18344">
        <ele>45.955694</ele>
        <time>2020-08-26T10:38:44.824Z</time>
      </trkpt>
      <trkpt lat="69.62565" lon="18.18365">
        <ele>46.138187</ele>
        <time>2020-08-26T10:38:48.812Z</time>
      </trkpt>
      <trkpt lat="69.6256" lon="18.18385">
        <ele>46.311948</ele>
        <time>2020-08-26T10:38:52.849Z</time>
      </trkpt>
      <trkpt lat="69.62554" lon="18.18408">
        <ele>46.486286</ele>
        <time>2020-08-26T10:38:56.841Z</time>
      </trkpt>
      <trkpt lat="69.62547" lon="18.18431">
        <ele>46.6649</ele>
        <time>2020-08-26T10:39:00.821Z</time>
      </trkpt>
      <trkpt lat="69.62541" lon="18.18454">
        <ele>46.845454</ele>
        <time>2020-08-26T10:39:04.809Z</time>
      </trkpt>
      <trkpt lat="69.62534" lon="18.18478">
        <ele>47.030392</ele>
        <time>2020-08-26T10:39:08.808Z</time>
      </trkpt>
      <trkpt lat="69.62528" lon="18.185">
        <ele>47.198528</ele>
        <time>2020-08-26T10:39:12.832Z</time>
      </trkpt>
      <trkpt lat="69.6252" lon="18.18525">
        <ele>47.4035</ele>
        <time>2020-08-26T10:39:16.873Z</time>
      </trkpt>
      <trkpt lat="69.62513" lon="18.18545">
        <ele>47.576957</ele>
        <time>2020-08-26T10:39:19.831Z</time>
      </trkpt>
      <trkpt lat="69.62504" lon="18.18571">
        <ele>47.806956</ele>
        <time>2020-08-26T10:39:22.814Z</time>
      </trkpt>
      <trkpt lat="69.62495" lon="18.18593">
        <ele>48.003532</ele>
        <time>2020-08-26T10:39:24.826Z</time>
      </trkpt>
      <trkpt lat="69.62485" lon="18.18617">
        <ele>48.232387</ele>
        <time>2020-08-26T10:39:26.824Z</time>
      </trkpt>
      <trkpt lat="69.62474" lon="18.18644">
        <ele>48.489096</ele>
        <time>2020-08-26T10:39:28.805Z</time>
      </trkpt>
      <trkpt lat="69.62461" lon="18.18673">
        <ele>48.767777</ele>
        <time>2020-08-26T10:39:30.833Z</time>
      </trkpt>
      <trkpt lat="69.62448" lon="18.18704">
        <ele>49.067722</ele>
        <time>2020-08-26T10:39:32.808Z</time>
      </trkpt>
      <trkpt lat="69.62436" lon="18.18738">
        <ele>49.35272</ele>
        <time>2020-08-26T10:39:34.812Z</time>
      </trkpt>
      <trkpt lat="69.62427" lon="18.18768">
        <ele>49.222844</ele>
        <time>2020-08-26T10:39:36.815Z</time>
      </trkpt>
      <trkpt lat="69.62419" lon="18.18794">
        <ele>48.787534</ele>
        <time>2020-08-26T10:39:38.813Z</time>
      </trkpt>
      <trkpt lat="69.62413" lon="18.18815">
        <ele>48.441227</ele>
        <time>2020-08-26T10:39:40.837Z</time>
      </trkpt>
      <trkpt lat="69.62407" lon="18.18839">
        <ele>48.070994</ele>
        <time>2020-08-26T10:39:43.813Z</time>
      </trkpt>
      <trkpt lat="69.62401" lon="18.18863">
        <ele>47.692525</ele>
        <time>2020-08-26T10:39:47.831Z</time>
      </trkpt>
      <trkpt lat="69.62396" lon="18.18889">
        <ele>47.298209</ele>
        <time>2020-08-26T10:39:51.853Z</time>
      </trkpt>
      <trkpt lat="69.62391" lon="18.18913">
        <ele>46.951102</ele>
        <time>2020-08-26T10:39:54.822Z</time>
      </trkpt>
      <trkpt lat="69.62386" lon="18.18938">
        <ele>46.585767</ele>
        <time>2020-08-26T10:39:57.828Z</time>
      </trkpt>
      <trkpt lat="69.62381" lon="18.18964">
        <ele>46.215927</ele>
        <time>2020-08-26T10:40:00.817Z</time>
      </trkpt>
      <trkpt lat="69.62376" lon="18.18994">
        <ele>45.787839</ele>
        <time>2020-08-26T10:40:03.838Z</time>
      </trkpt>
      <trkpt lat="69.62371" lon="18.19016">
        <ele>45.455735</ele>
        <time>2020-08-26T10:40:05.840Z</time>
      </trkpt>
      <trkpt lat="69.62366" lon="18.19039">
        <ele>45.105103</ele>
        <time>2020-08-26T10:40:07.814Z</time>
      </trkpt>
      <trkpt lat="69.6236" lon="18.19066">
        <ele>44.699171</ele>
        <time>2020-08-26T10:40:09.814Z</time>
      </trkpt>
      <trkpt lat="69.62353" lon="18.19099">
        <ele>44.199234</ele>
        <time>2020-08-26T10:40:11.826Z</time>
      </trkpt>
      <trkpt lat="69.62345" lon="18.19136">
        <ele>43.646774</ele>
        <time>2020-08-26T10:40:13.831Z</time>
      </trkpt>
      <trkpt lat="69.62338" lon="18.19176">
        <ele>43.079281</ele>
        <time>2020-08-26T10:40:15.830Z</time>
      </trkpt>
      <trkpt lat="69.62331" lon="18.19215">
        <ele>42.65557</ele>
        <time>2020-08-26T10:40:17.837Z</time>
      </trkpt>
      <trkpt lat="69.62325" lon="18.19254">
        <ele>42.314541</ele>
        <time>2020-08-26T10:40:19.825Z</time>
      </trkpt>
      <trkpt lat="69.62321" lon="18.1929">
        <ele>42.002504</ele>
        <time>2020-08-26T10:40:21.844Z</time>
      </trkpt>
      <trkpt lat="69.62317" lon="18.19325">
        <ele>41.71034</ele>
        <time>2020-08-26T10:40:23.845Z</time>
      </trkpt>
      <trkpt lat="69.62313" lon="18.19357">
        <ele>41.430357</ele>
        <time>2020-08-26T10:40:25.818Z</time>
      </trkpt>
      <trkpt lat="69.6231" lon="18.19389">
        <ele>41.166961</ele>
        <time>2020-08-26T10:40:27.820Z</time>
      </trkpt>
      <trkpt lat="69.62307" lon="18.19417">
        <ele>40.926509</ele>
        <time>2020-08-26T10:40:29.867Z</time>
      </trkpt>
      <trkpt lat="69.62305" lon="18.19444">
        <ele>40.70199</ele>
        <time>2020-08-26T10:40:31.823Z</time>
      </trkpt>
      <trkpt lat="69.62302" lon="18.19469">
        <ele>40.492152</ele>
        <time>2020-08-26T10:40:33.824Z</time>
      </trkpt>
      <trkpt lat="69.62299" lon="18.19502">
        <ele>40.212013</ele>
        <time>2020-08-26T10:40:36.808Z</time>
      </trkpt>
      <trkpt lat="69.62296" lon="18.19532">
        <ele>39.957041</ele>
        <time>2020-08-26T10:40:39.821Z</time>
      </trkpt>
      <trkpt lat="69.62294" lon="18.19561">
        <ele>39.723008</ele>
        <time>2020-08-26T10:40:42.809Z</time>
      </trkpt>
      <trkpt lat="69.62291" lon="18.1959">
        <ele>39.472432</ele>
        <time>2020-08-26T10:40:45.848Z</time>
      </trkpt>
      <trkpt lat="69.62287" lon="18.19627">
        <ele>39.159368</ele>
        <time>2020-08-26T10:40:48.816Z</time>
      </trkpt>
      <trkpt lat="69.62284" lon="18.19657">
        <ele>38.907672</ele>
        <time>2020-08-26T10:40:50.833Z</time>
      </trkpt>
      <trkpt lat="69.6228" lon="18.19691">
        <ele>38.72359</ele>
        <time>2020-08-26T10:40:52.876Z</time>
      </trkpt>
      <trkpt lat="69.62277" lon="18.19728">
        <ele>38.758769</ele>
        <time>2020-08-26T10:40:54.825Z</time>
      </trkpt>
      <trkpt lat="69.62273" lon="18.19768">
        <ele>38.795387</ele>
        <time>2020-08-26T10:40:56.840Z</time>
      </trkpt>
      <trkpt lat="69.62269" lon="18.19808">
        <ele>38.833601</ele>
        <time>2020-08-26T10:40:58.825Z</time>
      </trkpt>
      <trkpt lat="69.62265" lon="18.19849">
        <ele>38.871816</ele>
        <time>2020-08-26T10:41:00.862Z</time>
      </trkpt>
      <trkpt lat="69.6226" lon="18.19887">
        <ele>38.908275</ele>
        <time>2020-08-26T10:41:02.818Z</time>
      </trkpt>
      <trkpt lat="69.62256" lon="18.19924">
        <ele>38.942869</ele>
        <time>2020-08-26T10:41:04.828Z</time>
      </trkpt>
      <trkpt lat="69.6225" lon="18.19957">
        <ele>38.975819</ele>
        <time>2020-08-26T10:41:06.817Z</time>
      </trkpt>
      <trkpt lat="69.62245" lon="18.19989">
        <ele>39.008014</ele>
        <time>2020-08-26T10:41:08.838Z</time>
      </trkpt>
      <trkpt lat="69.62239" lon="18.20019">
        <ele>39.038287</ele>
        <time>2020-08-26T10:41:10.829Z</time>
      </trkpt>
      <trkpt lat="69.62234" lon="18.20047">
        <ele>39.067787</ele>
        <time>2020-08-26T10:41:12.811Z</time>
      </trkpt>
      <trkpt lat="69.62227" lon="18.20074">
        <ele>39.097031</ele>
        <time>2020-08-26T10:41:14.833Z</time>
      </trkpt>
      <trkpt lat="69.62221" lon="18.20098">
        <ele>39.123708</ele>
        <time>2020-08-26T10:41:16.849Z</time>
      </trkpt>
      <trkpt lat="69.62215" lon="18.20118">
        <ele>39.148486</ele>
        <time>2020-08-26T10:41:18.853Z</time>
      </trkpt>
      <trkpt lat="69.62206" lon="18.20145">
        <ele>39.222547</ele>
        <time>2020-08-26T10:41:21.800Z</time>
      </trkpt>
      <trkpt lat="69.62199" lon="18.20163">
        <ele>39.5015</ele>
        <time>2020-08-26T10:41:23.850Z</time>
      </trkpt>
      <trkpt lat="69.62192" lon="18.20178">
        <ele>39.782259</ele>
        <time>2020-08-26T10:41:25.814Z</time>
      </trkpt>
      <trkpt lat="69.62184" lon="18.20194">
        <ele>40.066264</ele>
        <time>2020-08-26T10:41:27.834Z</time>
      </trkpt>
      <trkpt lat="69.62174" lon="18.20217">
        <ele>40.462713</ele>
        <time>2020-08-26T10:41:30.820Z</time>
      </trkpt>
      <trkpt lat="69.62164" lon="18.20238">
        <ele>40.848561</ele>
        <time>2020-08-26T10:41:33.838Z</time>
      </trkpt>
      <trkpt lat="69.62154" lon="18.20257">
        <ele>41.208214</ele>
        <time>2020-08-26T10:41:36.827Z</time>
      </trkpt>
      <trkpt lat="69.62144" lon="18.2028">
        <ele>41.600224</ele>
        <time>2020-08-26T10:41:39.824Z</time>
      </trkpt>
      <trkpt lat="69.62137" lon="18.20297">
        <ele>41.87901</ele>
        <time>2020-08-26T10:41:41.820Z</time>
      </trkpt>
      <trkpt lat="69.6213" lon="18.20311">
        <ele>42.15794</ele>
        <time>2020-08-26T10:41:43.819Z</time>
      </trkpt>
      <trkpt lat="69.62121" lon="18.20325">
        <ele>42.481187</ele>
        <time>2020-08-26T10:41:45.823Z</time>
      </trkpt>
      <trkpt lat="69.62111" lon="18.20342">
        <ele>42.814221</ele>
        <time>2020-08-26T10:41:47.832Z</time>
      </trkpt>
      <trkpt lat="69.62102" lon="18.20363">
        <ele>43.186254</ele>
        <time>2020-08-26T10:41:49.831Z</time>
      </trkpt>
      <trkpt lat="69.62092" lon="18.20386">
        <ele>43.58166</ele>
        <time>2020-08-26T10:41:51.829Z</time>
      </trkpt>
      <trkpt lat="69.62082" lon="18.2041">
        <ele>43.964626</ele>
        <time>2020-08-26T10:41:53.840Z</time>
      </trkpt>
      <trkpt lat="69.62074" lon="18.20435">
        <ele>44.34645</ele>
        <time>2020-08-26T10:41:55.807Z</time>
      </trkpt>
      <trkpt lat="69.62066" lon="18.20461">
        <ele>44.714341</ele>
        <time>2020-08-26T10:41:57.828Z</time>
      </trkpt>
      <trkpt lat="69.62059" lon="18.20486">
        <ele>44.506807</ele>
        <time>2020-08-26T10:41:59.821Z</time>
      </trkpt>
      <trkpt lat="69.62053" lon="18.20511">
        <ele>44.305892</ele>
        <time>2020-08-26T10:42:01.821Z</time>
      </trkpt>
      <trkpt lat="69.62046" lon="18.20538">
        <ele>44.086536</ele>
        <time>2020-08-26T10:42:03.820Z</time>
      </trkpt>
      <trkpt lat="69.62039" lon="18.20565">
        <ele>43.867385</ele>
        <time>2020-08-26T10:42:05.855Z</time>
      </trkpt>
      <trkpt lat="69.62034" lon="18.20591">
        <ele>43.667157</ele>
        <time>2020-08-26T10:42:07.867Z</time>
      </trkpt>
      <trkpt lat="69.62029" lon="18.20618">
        <ele>43.47193</ele>
        <time>2020-08-26T10:42:09.828Z</time>
      </trkpt>
      <trkpt lat="69.62025" lon="18.20643">
        <ele>43.293394</ele>
        <time>2020-08-26T10:42:11.862Z</time>
      </trkpt>
      <trkpt lat="69.6202" lon="18.20677">
        <ele>43.054656</ele>
        <time>2020-08-26T10:42:14.849Z</time>
      </trkpt>
      <trkpt lat="69.62017" lon="18.20709">
        <ele>42.832727</ele>
        <time>2020-08-26T10:42:17.828Z</time>
      </trkpt>
      <trkpt lat="69.62014" lon="18.20739">
        <ele>42.631046</ele>
        <time>2020-08-26T10:42:20.834Z</time>
      </trkpt>
      <trkpt lat="69.62011" lon="18.20766">
        <ele>42.443407</ele>
        <time>2020-08-26T10:42:23.841Z</time>
      </trkpt>
      <trkpt lat="69.62009" lon="18.20795">
        <ele>42.248673</ele>
        <time>2020-08-26T10:42:26.844Z</time>
      </trkpt>
      <trkpt lat="69.62008" lon="18.20826">
        <ele>42.047713</ele>
        <time>2020-08-26T10:42:29.835Z</time>
      </trkpt>
      <trkpt lat="69.62007" lon="18.20857">
        <ele>41.841121</ele>
        <time>2020-08-26T10:42:32.817Z</time>
      </trkpt>
      <trkpt lat="69.62007" lon="18.2089">
        <ele>41.630359</ele>
        <time>2020-08-26T10:42:35.857Z</time>
      </trkpt>
      <trkpt lat="69.62008" lon="18.20923">
        <ele>41.40964</ele>
        <time>2020-08-26T10:42:38.815Z</time>
      </trkpt>
      <trkpt lat="69.6201" lon="18.20956">
        <ele>41.173115</ele>
        <time>2020-08-26T10:42:41.846Z</time>
      </trkpt>
      <trkpt lat="69.62012" lon="18.20989">
        <ele>40.927318</ele>
        <time>2020-08-26T10:42:44.814Z</time>
      </trkpt>
      <trkpt lat="69.62016" lon="18.21028">
        <ele>40.638424</ele>
        <time>2020-08-26T10:42:47.850Z</time>
      </trkpt>
      <trkpt lat="69.62018" lon="18.21058">
        <ele>40.412007</ele>
        <time>2020-08-26T10:42:49.813Z</time>
      </trkpt>
      <trkpt lat="69.62021" lon="18.21091">
        <ele>40.168598</ele>
        <time>2020-08-26T10:42:51.863Z</time>
      </trkpt>
      <trkpt lat="69.62023" lon="18.21125">
        <ele>39.915025</ele>
        <time>2020-08-26T10:42:53.825Z</time>
      </trkpt>
      <trkpt lat="69.62026" lon="18.21159">
        <ele>39.65954</ele>
        <time>2020-08-26T10:42:55.833Z</time>
      </trkpt>
      <trkpt lat="69.62029" lon="18.21193">
        <ele>39.408321</ele>
        <time>2020-08-26T10:42:57.823Z</time>
      </trkpt>
      <trkpt lat="69.62032" lon="18.21226">
        <ele>39.155341</ele>
        <time>2020-08-26T10:42:59.866Z</time>
      </trkpt>
      <trkpt lat="69.62035" lon="18.21257">
        <ele>38.917406</ele>
        <time>2020-08-26T10:43:01.815Z</time>
      </trkpt>
      <trkpt lat="69.62039" lon="18.21287">
        <ele>38.692631</ele>
        <time>2020-08-26T10:43:03.818Z</time>
      </trkpt>
      <trkpt lat="69.62042" lon="18.21314">
        <ele>38.480562</ele>
        <time>2020-08-26T10:43:05.869Z</time>
      </trkpt>
      <trkpt lat="69.62046" lon="18.21341">
        <ele>38.267354</ele>
        <time>2020-08-26T10:43:07.835Z</time>
      </trkpt>
      <trkpt lat="69.6205" lon="18.21368">
        <ele>38.0573</ele>
        <time>2020-08-26T10:43:09.813Z</time>
      </trkpt>
      <trkpt lat="69.62054" lon="18.21393">
        <ele>37.856461</ele>
        <time>2020-08-26T10:43:11.814Z</time>
      </trkpt>
      <trkpt lat="69.62057" lon="18.21419">
        <ele>37.65176</ele>
        <time>2020-08-26T10:43:13.823Z</time>
      </trkpt>
      <trkpt lat="69.62062" lon="18.21443">
        <ele>37.553359</ele>
        <time>2020-08-26T10:43:15.816Z</time>
      </trkpt>
      <trkpt lat="69.62067" lon="18.21466">
        <ele>37.518042</ele>
        <time>2020-08-26T10:43:17.813Z</time>
      </trkpt>
      <trkpt lat="69.62072" lon="18.21488">
        <ele>37.482777</ele>
        <time>2020-08-26T10:43:19.824Z</time>
      </trkpt>
      <trkpt lat="69.62078" lon="18.21511">
        <ele>37.445781</ele>
        <time>2020-08-26T10:43:21.832Z</time>
      </trkpt>
      <trkpt lat="69.62084" lon="18.21533">
        <ele>37.409269</ele>
        <time>2020-08-26T10:43:23.831Z</time>
      </trkpt>
      <trkpt lat="69.6209" lon="18.21554">
        <ele>37.373971</ele>
        <time>2020-08-26T10:43:25.825Z</time>
      </trkpt>
      <trkpt lat="69.62096" lon="18.21575">
        <ele>37.336836</ele>
        <time>2020-08-26T10:43:27.851Z</time>
      </trkpt>
      <trkpt lat="69.62104" lon="18.21595">
        <ele>37.297582</ele>
        <time>2020-08-26T10:43:29.848Z</time>
      </trkpt>
      <trkpt lat="69.62112" lon="18.21616">
        <ele>37.257602</ele>
        <time>2020-08-26T10:43:31.819Z</time>
      </trkpt>
      <trkpt lat="69.62119" lon="18.21638">
        <ele>37.216616</ele>
        <time>2020-08-26T10:43:33.852Z</time>
      </trkpt>
      <trkpt lat="69.62127" lon="18.21661">
        <ele>37.174087</ele>
        <time>2020-08-26T10:43:35.812Z</time>
      </trkpt>
      <trkpt lat="69.62135" lon="18.21684">
        <ele>37.132183</ele>
        <time>2020-08-26T10:43:37.842Z</time>
      </trkpt>
      <trkpt lat="69.62143" lon="18.21706">
        <ele>37.090114</ele>
        <time>2020-08-26T10:43:39.819Z</time>
      </trkpt>
      <trkpt lat="69.62151" lon="18.21729">
        <ele>37.04774</ele>
        <time>2020-08-26T10:43:41.857Z</time>
      </trkpt>
      <trkpt lat="69.62159" lon="18.21752">
        <ele>37.006624</ele>
        <time>2020-08-26T10:43:43.805Z</time>
      </trkpt>
      <trkpt lat="69.62166" lon="18.21774">
        <ele>36.966408</ele>
        <time>2020-08-26T10:43:45.817Z</time>
      </trkpt>
      <trkpt lat="69.62174" lon="18.21795">
        <ele>36.925974</ele>
        <time>2020-08-26T10:43:47.820Z</time>
      </trkpt>
      <trkpt lat="69.62181" lon="18.21817">
        <ele>37.004549</ele>
        <time>2020-08-26T10:43:49.823Z</time>
      </trkpt>
      <trkpt lat="69.62189" lon="18.21839">
        <ele>37.371608</ele>
        <time>2020-08-26T10:43:51.811Z</time>
      </trkpt>
      <trkpt lat="69.62196" lon="18.2186">
        <ele>37.710951</ele>
        <time>2020-08-26T10:43:53.827Z</time>
      </trkpt>
      <trkpt lat="69.62203" lon="18.21879">
        <ele>38.032366</ele>
        <time>2020-08-26T10:43:55.828Z</time>
      </trkpt>
      <trkpt lat="69.62209" lon="18.21897">
        <ele>38.341641</ele>
        <time>2020-08-26T10:43:57.819Z</time>
      </trkpt>
      <trkpt lat="69.62218" lon="18.21923">
        <ele>38.765303</ele>
        <time>2020-08-26T10:44:00.850Z</time>
      </trkpt>
      <trkpt lat="69.62228" lon="18.21946">
        <ele>39.183432</ele>
        <time>2020-08-26T10:44:03.865Z</time>
      </trkpt>
      <trkpt lat="69.62237" lon="18.21968">
        <ele>39.601239</ele>
        <time>2020-08-26T10:44:06.825Z</time>
      </trkpt>
      <trkpt lat="69.62248" lon="18.2199">
        <ele>40.04478</ele>
        <time>2020-08-26T10:44:09.854Z</time>
      </trkpt>
      <trkpt lat="69.62256" lon="18.22005">
        <ele>40.353844</ele>
        <time>2020-08-26T10:44:11.816Z</time>
      </trkpt>
      <trkpt lat="69.62264" lon="18.22019">
        <ele>40.685281</ele>
        <time>2020-08-26T10:44:13.832Z</time>
      </trkpt>
      <trkpt lat="69.62273" lon="18.22033">
        <ele>41.025499</ele>
        <time>2020-08-26T10:44:15.834Z</time>
      </trkpt>
      <trkpt lat="69.62282" lon="18.22046">
        <ele>41.376639</ele>
        <time>2020-08-26T10:44:17.825Z</time>
      </trkpt>
      <trkpt lat="69.62292" lon="18.22058">
        <ele>41.735258</ele>
        <time>2020-08-26T10:44:19.823Z</time>
      </trkpt>
      <trkpt lat="69.62302" lon="18.22071">
        <ele>42.100089</ele>
        <time>2020-08-26T10:44:21.839Z</time>
      </trkpt>
      <trkpt lat="69.62311" lon="18.22085">
        <ele>42.440168</ele>
        <time>2020-08-26T10:44:23.880Z</time>
      </trkpt>
      <trkpt lat="69.62319" lon="18.22095">
        <ele>42.749887</ele>
        <time>2020-08-26T10:44:25.839Z</time>
      </trkpt>
      <trkpt lat="69.62331" lon="18.22109">
        <ele>43.178704</ele>
        <time>2020-08-26T10:44:28.828Z</time>
      </trkpt>
      <trkpt lat="69.6234" lon="18.22121">
        <ele>43.558132</ele>
        <time>2020-08-26T10:44:31.822Z</time>
      </trkpt>
      <trkpt lat="69.62351" lon="18.22133">
        <ele>43.974892</ele>
        <time>2020-08-26T10:44:35.830Z</time>
      </trkpt>
      <trkpt lat="69.6236" lon="18.22144">
        <ele>44.355799</ele>
        <time>2020-08-26T10:44:39.837Z</time>
      </trkpt>
      <trkpt lat="69.62369" lon="18.22154">
        <ele>44.71532</ele>
        <time>2020-08-26T10:44:43.849Z</time>
      </trkpt>
      <trkpt lat="69.62378" lon="18.22166">
        <ele>45.085883</ele>
        <time>2020-08-26T10:44:47.827Z</time>
      </trkpt>
      <trkpt lat="69.62388" lon="18.22178">
        <ele>45.476619</ele>
        <time>2020-08-26T10:44:51.827Z</time>
      </trkpt>
      <trkpt lat="69.62397" lon="18.22188">
        <ele>45.839135</ele>
        <time>2020-08-26T10:44:55.877Z</time>
      </trkpt>
      <trkpt lat="69.62406" lon="18.22198">
        <ele>46.192717</ele>
        <time>2020-08-26T10:44:59.805Z</time>
      </trkpt>
      <trkpt lat="69.62415" lon="18.22209">
        <ele>46.539057</ele>
        <time>2020-08-26T10:45:03.840Z</time>
      </trkpt>
      <trkpt lat="69.62423" lon="18.22221">
        <ele>46.873885</ele>
        <time>2020-08-26T10:45:07.837Z</time>
      </trkpt>
      <trkpt lat="69.62431" lon="18.22231">
        <ele>47.2104</ele>
        <time>2020-08-26T10:45:11.828Z</time>
      </trkpt>
      <trkpt lat="69.6244" lon="18.22243">
        <ele>47.577247</ele>
        <time>2020-08-26T10:45:15.811Z</time>
      </trkpt>
      <trkpt lat="69.62449" lon="18.22254">
        <ele>47.93346</ele>
        <time>2020-08-26T10:45:19.829Z</time>
      </trkpt>
      <trkpt lat="69.62457" lon="18.22267">
        <ele>48.274594</ele>
        <time>2020-08-26T10:45:23.815Z</time>
      </trkpt>
      <trkpt lat="69.62467" lon="18.22283">
        <ele>48.689911</ele>
        <time>2020-08-26T10:45:28.849Z</time>
      </trkpt>
      <trkpt lat="69.62476" lon="18.22301">
        <ele>49.092301</ele>
        <time>2020-08-26T10:45:33.815Z</time>
      </trkpt>
      <trkpt lat="69.62483" lon="18.22318">
        <ele>49.448536</ele>
        <time>2020-08-26T10:45:38.818Z</time>
      </trkpt>
      <trkpt lat="69.6249" lon="18.22336">
        <ele>49.808242</ele>
        <time>2020-08-26T10:45:43.809Z</time>
      </trkpt>
      <trkpt lat="69.62496" lon="18.22359">
        <ele>50.234937</ele>
        <time>2020-08-26T10:45:48.833Z</time>
      </trkpt>
      <trkpt lat="69.62502" lon="18.22385">
        <ele>50.691887</ele>
        <time>2020-08-26T10:45:53.811Z</time>
      </trkpt>
      <trkpt lat="69.62505" lon="18.22411">
        <ele>51.101678</ele>
        <time>2020-08-26T10:45:58.834Z</time>
      </trkpt>
      <trkpt lat="69.62508" lon="18.2244">
        <ele>51.546956</ele>
        <time>2020-08-26T10:46:03.830Z</time>
      </trkpt>
      <trkpt lat="69.62512" lon="18.22469">
        <ele>51.998521</ele>
        <time>2020-08-26T10:46:08.889Z</time>
      </trkpt>
      <trkpt lat="69.62514" lon="18.22495">
        <ele>52.398706</ele>
        <time>2020-08-26T10:46:12.848Z</time>
      </trkpt>
      <trkpt lat="69.62515" lon="18.22522">
        <ele>52.796006</ele>
        <time>2020-08-26T10:46:16.830Z</time>
      </trkpt>
      <trkpt lat="69.62515" lon="18.22552">
        <ele>53.231688</ele>
        <time>2020-08-26T10:46:21.813Z</time>
      </trkpt>
      <trkpt lat="69.62514" lon="18.22579">
        <ele>53.632394</ele>
        <time>2020-08-26T10:46:26.824Z</time>
      </trkpt>
      <trkpt lat="69.62513" lon="18.2261">
        <ele>54.104437</ele>
        <time>2020-08-26T10:46:31.818Z</time>
      </trkpt>
      <trkpt lat="69.62512" lon="18.22636">
        <ele>54.491494</ele>
        <time>2020-08-26T10:46:35.843Z</time>
      </trkpt>
      <trkpt lat="69.62509" lon="18.22667">
        <ele>54.957561</ele>
        <time>2020-08-26T10:46:40.834Z</time>
      </trkpt>
      <trkpt lat="69.62505" lon="18.22692">
        <ele>55.370315</ele>
        <time>2020-08-26T10:46:44.817Z</time>
      </trkpt>
      <trkpt lat="69.625" lon="18.22717">
        <ele>55.785195</ele>
        <time>2020-08-26T10:46:48.843Z</time>
      </trkpt>
      <trkpt lat="69.62494" lon="18.22742">
        <ele>56.241784</ele>
        <time>2020-08-26T10:46:53.824Z</time>
      </trkpt>
      <trkpt lat="69.62488" lon="18.22767">
        <ele>56.692463</ele>
        <time>2020-08-26T10:46:58.818Z</time>
      </trkpt>
      <trkpt lat="69.62481" lon="18.22787">
        <ele>57.098815</ele>
        <time>2020-08-26T10:47:02.853Z</time>
      </trkpt>
      <trkpt lat="69.62474" lon="18.22811">
        <ele>56.996838</ele>
        <time>2020-08-26T10:47:06.813Z</time>
      </trkpt>
      <trkpt lat="69.62466" lon="18.2283">
        <ele>56.735776</ele>
        <time>2020-08-26T10:47:09.832Z</time>
      </trkpt>
      <trkpt lat="69.62457" lon="18.22854">
        <ele>56.419456</ele>
        <time>2020-08-26T10:47:12.824Z</time>
      </trkpt>
      <trkpt lat="69.6245" lon="18.22871">
        <ele>56.183574</ele>
        <time>2020-08-26T10:47:14.836Z</time>
      </trkpt>
      <trkpt lat="69.62443" lon="18.22891">
        <ele>55.910597</ele>
        <time>2020-08-26T10:47:16.817Z</time>
      </trkpt>
      <trkpt lat="69.62434" lon="18.22912">
        <ele>55.614243</ele>
        <time>2020-08-26T10:47:18.842Z</time>
      </trkpt>
      <trkpt lat="69.62424" lon="18.22937">
        <ele>55.267156</ele>
        <time>2020-08-26T10:47:20.846Z</time>
      </trkpt>
      <trkpt lat="69.62413" lon="18.22966">
        <ele>54.872601</ele>
        <time>2020-08-26T10:47:22.862Z</time>
      </trkpt>
      <trkpt lat="69.62401" lon="18.22999">
        <ele>54.44964</ele>
        <time>2020-08-26T10:47:24.839Z</time>
      </trkpt>
      <trkpt lat="69.6239" lon="18.23038">
        <ele>53.979269</ele>
        <time>2020-08-26T10:47:26.859Z</time>
      </trkpt>
      <trkpt lat="69.62384" lon="18.23061">
        <ele>53.724115</ele>
        <time>2020-08-26T10:47:27.816Z</time>
      </trkpt>
      <trkpt lat="69.62377" lon="18.23084">
        <ele>53.455175</ele>
        <time>2020-08-26T10:47:28.835Z</time>
      </trkpt>
      <trkpt lat="69.62371" lon="18.23108">
        <ele>53.173285</ele>
        <time>2020-08-26T10:47:29.830Z</time>
      </trkpt>
      <trkpt lat="69.62364" lon="18.23133">
        <ele>52.882355</ele>
        <time>2020-08-26T10:47:30.813Z</time>
      </trkpt>
      <trkpt lat="69.62357" lon="18.23161">
        <ele>52.57658</ele>
        <time>2020-08-26T10:47:31.867Z</time>
      </trkpt>
      <trkpt lat="69.62351" lon="18.23189">
        <ele>52.025361</ele>
        <time>2020-08-26T10:47:32.826Z</time>
      </trkpt>
      <trkpt lat="69.62344" lon="18.23217">
        <ele>51.421287</ele>
        <time>2020-08-26T10:47:33.827Z</time>
      </trkpt>
      <trkpt lat="69.62338" lon="18.23245">
        <ele>50.822613</ele>
        <time>2020-08-26T10:47:34.818Z</time>
      </trkpt>
      <trkpt lat="69.62332" lon="18.23272">
        <ele>50.225943</ele>
        <time>2020-08-26T10:47:35.838Z</time>
      </trkpt>
      <trkpt lat="69.62326" lon="18.23299">
        <ele>49.63983</ele>
        <time>2020-08-26T10:47:36.817Z</time>
      </trkpt>
      <trkpt lat="69.62319" lon="18.23325">
        <ele>49.064139</ele>
        <time>2020-08-26T10:47:37.824Z</time>
      </trkpt>
      <trkpt lat="69.62313" lon="18.23351">
        <ele>48.498869</ele>
        <time>2020-08-26T10:47:38.833Z</time>
      </trkpt>
      <trkpt lat="69.62307" lon="18.23376">
        <ele>47.933502</ele>
        <time>2020-08-26T10:47:39.816Z</time>
      </trkpt>
      <trkpt lat="69.623" lon="18.234">
        <ele>47.374058</ele>
        <time>2020-08-26T10:47:40.833Z</time>
      </trkpt>
      <trkpt lat="69.62293" lon="18.23422">
        <ele>46.826791</ele>
        <time>2020-08-26T10:47:41.818Z</time>
      </trkpt>
      <trkpt lat="69.62285" lon="18.23443">
        <ele>46.275259</ele>
        <time>2020-08-26T10:47:42.829Z</time>
      </trkpt>
      <trkpt lat="69.62277" lon="18.23463">
        <ele>45.725836</ele>
        <time>2020-08-26T10:47:43.836Z</time>
      </trkpt>
      <trkpt lat="69.6227" lon="18.23483">
        <ele>45.192612</ele>
        <time>2020-08-26T10:47:44.816Z</time>
      </trkpt>
      <trkpt lat="69.62262" lon="18.23502">
        <ele>44.648718</ele>
        <time>2020-08-26T10:47:45.832Z</time>
      </trkpt>
      <trkpt lat="69.62253" lon="18.23521">
        <ele>44.093913</ele>
        <time>2020-08-26T10:47:46.815Z</time>
      </trkpt>
      <trkpt lat="69.62246" lon="18.23539">
        <ele>43.584369</ele>
        <time>2020-08-26T10:47:47.836Z</time>
      </trkpt>
      <trkpt lat="69.62239" lon="18.23557">
        <ele>43.123374</ele>
        <time>2020-08-26T10:47:48.832Z</time>
      </trkpt>
      <trkpt lat="69.62232" lon="18.23575">
        <ele>42.897503</ele>
        <time>2020-08-26T10:47:49.816Z</time>
      </trkpt>
      <trkpt lat="69.62225" lon="18.23593">
        <ele>42.675669</ele>
        <time>2020-08-26T10:47:50.810Z</time>
      </trkpt>
      <trkpt lat="69.62218" lon="18.2361">
        <ele>42.456588</ele>
        <time>2020-08-26T10:47:51.848Z</time>
      </trkpt>
      <trkpt lat="69.62211" lon="18.23626">
        <ele>42.238051</ele>
        <time>2020-08-26T10:47:52.815Z</time>
      </trkpt>
      <trkpt lat="69.62204" lon="18.23643">
        <ele>42.013105</ele>
        <time>2020-08-26T10:47:53.806Z</time>
      </trkpt>
      <trkpt lat="69.62197" lon="18.2366">
        <ele>41.790861</ele>
        <time>2020-08-26T10:47:54.821Z</time>
      </trkpt>
      <trkpt lat="69.62183" lon="18.23692">
        <ele>41.366052</ele>
        <time>2020-08-26T10:47:56.823Z</time>
      </trkpt>
      <trkpt lat="69.62171" lon="18.23724">
        <ele>40.961749</ele>
        <time>2020-08-26T10:47:58.817Z</time>
      </trkpt>
      <trkpt lat="69.62158" lon="18.23755">
        <ele>40.560923</ele>
        <time>2020-08-26T10:48:00.832Z</time>
      </trkpt>
      <trkpt lat="69.62146" lon="18.23786">
        <ele>40.175134</ele>
        <time>2020-08-26T10:48:02.851Z</time>
      </trkpt>
      <trkpt lat="69.62136" lon="18.23815">
        <ele>39.820289</ele>
        <time>2020-08-26T10:48:04.830Z</time>
      </trkpt>
      <trkpt lat="69.62126" lon="18.23844">
        <ele>39.481542</ele>
        <time>2020-08-26T10:48:06.826Z</time>
      </trkpt>
      <trkpt lat="69.62118" lon="18.23873">
        <ele>39.168323</ele>
        <time>2020-08-26T10:48:08.853Z</time>
      </trkpt>
      <trkpt lat="69.62111" lon="18.23901">
        <ele>38.887326</ele>
        <time>2020-08-26T10:48:10.831Z</time>
      </trkpt>
      <trkpt lat="69.62106" lon="18.23927">
        <ele>38.883514</ele>
        <time>2020-08-26T10:48:12.834Z</time>
      </trkpt>
      <trkpt lat="69.62102" lon="18.23952">
        <ele>38.989216</ele>
        <time>2020-08-26T10:48:14.853Z</time>
      </trkpt>
      <trkpt lat="69.62097" lon="18.23977">
        <ele>39.095416</ele>
        <time>2020-08-26T10:48:16.824Z</time>
      </trkpt>
      <trkpt lat="69.62093" lon="18.24002">
        <ele>39.201316</ele>
        <time>2020-08-26T10:48:18.815Z</time>
      </trkpt>
      <trkpt lat="69.62089" lon="18.24026">
        <ele>39.303893</ele>
        <time>2020-08-26T10:48:20.843Z</time>
      </trkpt>
      <trkpt lat="69.62084" lon="18.24051">
        <ele>39.40593</ele>
        <time>2020-08-26T10:48:22.863Z</time>
      </trkpt>
      <trkpt lat="69.6208" lon="18.24073">
        <ele>39.503969</ele>
        <time>2020-08-26T10:48:24.841Z</time>
      </trkpt>
      <trkpt lat="69.62073" lon="18.24106">
        <ele>39.648751</ele>
        <time>2020-08-26T10:48:27.813Z</time>
      </trkpt>
      <trkpt lat="69.62067" lon="18.24128">
        <ele>39.750952</ele>
        <time>2020-08-26T10:48:29.832Z</time>
      </trkpt>
      <trkpt lat="69.62062" lon="18.24149">
        <ele>39.853955</ele>
        <time>2020-08-26T10:48:31.831Z</time>
      </trkpt>
      <trkpt lat="69.62055" lon="18.24169">
        <ele>39.961497</ele>
        <time>2020-08-26T10:48:33.814Z</time>
      </trkpt>
      <trkpt lat="69.62046" lon="18.24188">
        <ele>40.073808</ele>
        <time>2020-08-26T10:48:35.854Z</time>
      </trkpt>
      <trkpt lat="69.62038" lon="18.24203">
        <ele>40.181201</ele>
        <time>2020-08-26T10:48:37.826Z</time>
      </trkpt>
      <trkpt lat="69.62029" lon="18.24215">
        <ele>40.286624</ele>
        <time>2020-08-26T10:48:39.823Z</time>
      </trkpt>
      <trkpt lat="69.62021" lon="18.24227">
        <ele>40.391053</ele>
        <time>2020-08-26T10:48:41.808Z</time>
      </trkpt>
      <trkpt lat="69.62011" lon="18.2424">
        <ele>40.501672</ele>
        <time>2020-08-26T10:48:43.852Z</time>
      </trkpt>
      <trkpt lat="69.62002" lon="18.24252">
        <ele>40.615286</ele>
        <time>2020-08-26T10:48:45.831Z</time>
      </trkpt>
      <trkpt lat="69.61992" lon="18.24264">
        <ele>40.735026</ele>
        <time>2020-08-26T10:48:47.858Z</time>
      </trkpt>
      <trkpt lat="69.61981" lon="18.24278">
        <ele>41.146609</ele>
        <time>2020-08-26T10:48:49.813Z</time>
      </trkpt>
      <trkpt lat="69.6197" lon="18.24294">
        <ele>41.622862</ele>
        <time>2020-08-26T10:48:51.861Z</time>
      </trkpt>
      <trkpt lat="69.61959" lon="18.24308">
        <ele>42.084814</ele>
        <time>2020-08-26T10:48:53.836Z</time>
      </trkpt>
      <trkpt lat="69.61949" lon="18.24323">
        <ele>42.53379</ele>
        <time>2020-08-26T10:48:55.806Z</time>
      </trkpt>
      <trkpt lat="69.6194" lon="18.24338">
        <ele>42.949217</ele>
        <time>2020-08-26T10:48:57.862Z</time>
      </trkpt>
      <trkpt lat="69.61932" lon="18.24352">
        <ele>43.337456</ele>
        <time>2020-08-26T10:48:59.834Z</time>
      </trkpt>
      <trkpt lat="69.61923" lon="18.24367">
        <ele>43.72694</ele>
        <time>2020-08-26T10:49:01.822Z</time>
      </trkpt>
      <trkpt lat="69.61913" lon="18.24388">
        <ele>44.230976</ele>
        <time>2020-08-26T10:49:04.832Z</time>
      </trkpt>
      <trkpt lat="69.61903" lon="18.24411">
        <ele>44.720015</ele>
        <time>2020-08-26T10:49:07.816Z</time>
      </trkpt>
      <trkpt lat="69.61895" lon="18.24431">
        <ele>45.137881</ele>
        <time>2020-08-26T10:49:10.851Z</time>
      </trkpt>
      <trkpt lat="69.61889" lon="18.24449">
        <ele>45.49466</ele>
        <time>2020-08-26T10:49:13.827Z</time>
      </trkpt>
      <trkpt lat="69.61883" lon="18.24469">
        <ele>45.858371</ele>
        <time>2020-08-26T10:49:16.829Z</time>
      </trkpt>
      <trkpt lat="69.61877" lon="18.2449">
        <ele>46.22748</ele>
        <time>2020-08-26T10:49:19.813Z</time>
      </trkpt>
      <trkpt lat="69.61871" lon="18.24512">
        <ele>46.587749</ele>
        <time>2020-08-26T10:49:22.873Z</time>
      </trkpt>
      <trkpt lat="69.61866" lon="18.24535">
        <ele>46.984035</ele>
        <time>2020-08-26T10:49:25.828Z</time>
      </trkpt>
      <trkpt lat="69.6186" lon="18.2456">
        <ele>47.37857</ele>
        <time>2020-08-26T10:49:28.860Z</time>
      </trkpt>
      <trkpt lat="69.61857" lon="18.24585">
        <ele>47.759105</ele>
        <time>2020-08-26T10:49:31.844Z</time>
      </trkpt>
      <trkpt lat="69.61852" lon="18.24613">
        <ele>47.395028</ele>
        <time>2020-08-26T10:49:34.852Z</time>
      </trkpt>
      <trkpt lat="69.61847" lon="18.24639">
        <ele>46.883996</ele>
        <time>2020-08-26T10:49:37.836Z</time>
      </trkpt>
      <trkpt lat="69.61844" lon="18.24666">
        <ele>46.382003</ele>
        <time>2020-08-26T10:49:40.848Z</time>
      </trkpt>
      <trkpt lat="69.61842" lon="18.24695">
        <ele>45.859574</ele>
        <time>2020-08-26T10:49:43.830Z</time>
      </trkpt>
      <trkpt lat="69.61839" lon="18.24731">
        <ele>45.204815</ele>
        <time>2020-08-26T10:49:46.829Z</time>
      </trkpt>
      <trkpt lat="69.61838" lon="18.24759">
        <ele>44.723395</ele>
        <time>2020-08-26T10:49:48.821Z</time>
      </trkpt>
      <trkpt lat="69.61838" lon="18.24789">
        <ele>44.194747</ele>
        <time>2020-08-26T10:49:50.855Z</time>
      </trkpt>
      <trkpt lat="69.61838" lon="18.24822">
        <ele>43.613876</ele>
        <time>2020-08-26T10:49:52.833Z</time>
      </trkpt>
      <trkpt lat="69.61838" lon="18.24859">
        <ele>42.960549</ele>
        <time>2020-08-26T10:49:54.850Z</time>
      </trkpt>
      <trkpt lat="69.61839" lon="18.24898">
        <ele>42.26615</ele>
        <time>2020-08-26T10:49:56.840Z</time>
      </trkpt>
      <trkpt lat="69.61839" lon="18.2494">
        <ele>41.526267</ele>
        <time>2020-08-26T10:49:58.843Z</time>
      </trkpt>
      <trkpt lat="69.6184" lon="18.24985">
        <ele>40.728521</ele>
        <time>2020-08-26T10:50:00.819Z</time>
      </trkpt>
      <trkpt lat="69.6184" lon="18.25031">
        <ele>39.932792</ele>
        <time>2020-08-26T10:50:02.846Z</time>
      </trkpt>
      <trkpt lat="69.6184" lon="18.25073">
        <ele>39.193531</ele>
        <time>2020-08-26T10:50:04.823Z</time>
      </trkpt>
      <trkpt lat="69.6184" lon="18.25113">
        <ele>38.640703</ele>
        <time>2020-08-26T10:50:06.819Z</time>
      </trkpt>
      <trkpt lat="69.6184" lon="18.2515">
        <ele>38.365856</ele>
        <time>2020-08-26T10:50:08.834Z</time>
      </trkpt>
      <trkpt lat="69.61841" lon="18.25186">
        <ele>38.105706</ele>
        <time>2020-08-26T10:50:10.840Z</time>
      </trkpt>
      <trkpt lat="69.61841" lon="18.25218">
        <ele>37.869071</ele>
        <time>2020-08-26T10:50:12.812Z</time>
      </trkpt>
      <trkpt lat="69.61841" lon="18.2525">
        <ele>37.631701</ele>
        <time>2020-08-26T10:50:14.813Z</time>
      </trkpt>
      <trkpt lat="69.61841" lon="18.25282">
        <ele>37.395772</ele>
        <time>2020-08-26T10:50:16.831Z</time>
      </trkpt>
      <trkpt lat="69.6184" lon="18.25313">
        <ele>37.168611</ele>
        <time>2020-08-26T10:50:18.834Z</time>
      </trkpt>
      <trkpt lat="69.6184" lon="18.25343">
        <ele>36.947327</ele>
        <time>2020-08-26T10:50:20.817Z</time>
      </trkpt>
      <trkpt lat="69.6184" lon="18.25372">
        <ele>36.736379</ele>
        <time>2020-08-26T10:50:22.821Z</time>
      </trkpt>
      <trkpt lat="69.6184" lon="18.25399">
        <ele>36.534927</ele>
        <time>2020-08-26T10:50:24.817Z</time>
      </trkpt>
      <trkpt lat="69.6184" lon="18.25428">
        <ele>36.322457</ele>
        <time>2020-08-26T10:50:26.823Z</time>
      </trkpt>
      <trkpt lat="69.6184" lon="18.25454">
        <ele>36.128774</ele>
        <time>2020-08-26T10:50:28.842Z</time>
      </trkpt>
      <trkpt lat="69.61839" lon="18.25492">
        <ele>35.851602</ele>
        <time>2020-08-26T10:50:31.833Z</time>
      </trkpt>
      <trkpt lat="69.61839" lon="18.2553">
        <ele>35.571332</ele>
        <time>2020-08-26T10:50:34.829Z</time>
      </trkpt>
      <trkpt lat="69.61838" lon="18.25567">
        <ele>35.302339</ele>
        <time>2020-08-26T10:50:37.824Z</time>
      </trkpt>
      <trkpt lat="69.61838" lon="18.25603">
        <ele>35.034106</ele>
        <time>2020-08-26T10:50:40.822Z</time>
      </trkpt>
      <trkpt lat="69.61836" lon="18.25642">
        <ele>35.413016</ele>
        <time>2020-08-26T10:50:43.839Z</time>
      </trkpt>
      <trkpt lat="69.61833" lon="18.2567">
        <ele>35.865642</ele>
        <time>2020-08-26T10:50:45.849Z</time>
      </trkpt>
      <trkpt lat="69.6183" lon="18.25697">
        <ele>36.329167</ele>
        <time>2020-08-26T10:50:47.875Z</time>
      </trkpt>
      <trkpt lat="69.61826" lon="18.25724">
        <ele>36.777868</ele>
        <time>2020-08-26T10:50:49.815Z</time>
      </trkpt>
      <trkpt lat="69.61823" lon="18.25753">
        <ele>37.263987</ele>
        <time>2020-08-26T10:50:51.823Z</time>
      </trkpt>
      <trkpt lat="69.6182" lon="18.25784">
        <ele>37.779098</ele>
        <time>2020-08-26T10:50:53.822Z</time>
      </trkpt>
      <trkpt lat="69.61817" lon="18.25816">
        <ele>38.317102</ele>
        <time>2020-08-26T10:50:55.831Z</time>
      </trkpt>
      <trkpt lat="69.61814" lon="18.2585">
        <ele>38.86484</ele>
        <time>2020-08-26T10:50:57.854Z</time>
      </trkpt>
      <trkpt lat="69.61812" lon="18.25887">
        <ele>39.451752</ele>
        <time>2020-08-26T10:50:59.812Z</time>
      </trkpt>
      <trkpt lat="69.6181" lon="18.25925">
        <ele>40.068205</ele>
        <time>2020-08-26T10:51:01.837Z</time>
      </trkpt>
      <trkpt lat="69.61809" lon="18.25966">
        <ele>40.713139</ele>
        <time>2020-08-26T10:51:03.827Z</time>
      </trkpt>
      <trkpt lat="69.61809" lon="18.26005">
        <ele>41.336226</ele>
        <time>2020-08-26T10:51:05.843Z</time>
      </trkpt>
      <trkpt lat="69.61808" lon="18.26044">
        <ele>41.95362</ele>
        <time>2020-08-26T10:51:07.808Z</time>
      </trkpt>
      <trkpt lat="69.61807" lon="18.2608">
        <ele>42.526492</ele>
        <time>2020-08-26T10:51:09.822Z</time>
      </trkpt>
      <trkpt lat="69.61805" lon="18.26114">
        <ele>43.082191</ele>
        <time>2020-08-26T10:51:11.816Z</time>
      </trkpt>
      <trkpt lat="69.61803" lon="18.26146">
        <ele>43.358993</ele>
        <time>2020-08-26T10:51:13.819Z</time>
      </trkpt>
      <trkpt lat="69.618" lon="18.26175">
        <ele>43.576359</ele>
        <time>2020-08-26T10:51:15.828Z</time>
      </trkpt>
      <trkpt lat="69.61796" lon="18.26209">
        <ele>43.837767</ele>
        <time>2020-08-26T10:51:18.819Z</time>
      </trkpt>
      <trkpt lat="69.61791" lon="18.26237">
        <ele>44.058272</ele>
        <time>2020-08-26T10:51:21.829Z</time>
      </trkpt>
      <trkpt lat="69.61788" lon="18.26262">
        <ele>44.254752</ele>
        <time>2020-08-26T10:51:24.820Z</time>
      </trkpt>
      <trkpt lat="69.61784" lon="18.26286">
        <ele>44.442679</ele>
        <time>2020-08-26T10:51:27.815Z</time>
      </trkpt>
      <trkpt lat="69.61781" lon="18.26311">
        <ele>44.635906</ele>
        <time>2020-08-26T10:51:30.815Z</time>
      </trkpt>
      <trkpt lat="69.61775" lon="18.26334">
        <ele>44.842307</ele>
        <time>2020-08-26T10:51:33.830Z</time>
      </trkpt>
      <trkpt lat="69.61767" lon="18.26354">
        <ele>45.069263</ele>
        <time>2020-08-26T10:51:36.837Z</time>
      </trkpt>
      <trkpt lat="69.61756" lon="18.26376">
        <ele>45.344475</ele>
        <time>2020-08-26T10:51:39.811Z</time>
      </trkpt>
      <trkpt lat="69.61748" lon="18.26393">
        <ele>45.548913</ele>
        <time>2020-08-26T10:51:41.874Z</time>
      </trkpt>
      <trkpt lat="69.61738" lon="18.26406">
        <ele>45.779154</ele>
        <time>2020-08-26T10:51:43.821Z</time>
      </trkpt>
      <trkpt lat="69.61726" lon="18.26417">
        <ele>46.028042</ele>
        <time>2020-08-26T10:51:45.824Z</time>
      </trkpt>
      <trkpt lat="69.61713" lon="18.26427">
        <ele>46.312452</ele>
        <time>2020-08-26T10:51:47.823Z</time>
      </trkpt>
      <trkpt lat="69.61698" lon="18.26436">
        <ele>46.628873</ele>
        <time>2020-08-26T10:51:49.838Z</time>
      </trkpt>
      <trkpt lat="69.61684" lon="18.26446">
        <ele>46.902959</ele>
        <time>2020-08-26T10:51:51.827Z</time>
      </trkpt>
      <trkpt lat="69.61668" lon="18.26457">
        <ele>46.979422</ele>
        <time>2020-08-26T10:51:53.830Z</time>
      </trkpt>
      <trkpt lat="69.61652" lon="18.26468">
        <ele>47.058373</ele>
        <time>2020-08-26T10:51:55.875Z</time>
      </trkpt>
      <trkpt lat="69.61637" lon="18.26478">
        <ele>47.131616</ele>
        <time>2020-08-26T10:51:57.821Z</time>
      </trkpt>
      <trkpt lat="69.61623" lon="18.26488">
        <ele>47.201324</ele>
        <time>2020-08-26T10:51:59.823Z</time>
      </trkpt>
      <trkpt lat="69.61608" lon="18.26497">
        <ele>47.273017</ele>
        <time>2020-08-26T10:52:01.814Z</time>
      </trkpt>
      <trkpt lat="69.61594" lon="18.26506">
        <ele>47.342336</ele>
        <time>2020-08-26T10:52:03.870Z</time>
      </trkpt>
      <trkpt lat="69.61581" lon="18.26516">
        <ele>47.407234</ele>
        <time>2020-08-26T10:52:05.812Z</time>
      </trkpt>
      <trkpt lat="69.6157" lon="18.26526">
        <ele>47.465852</ele>
        <time>2020-08-26T10:52:07.840Z</time>
      </trkpt>
      <trkpt lat="69.61558" lon="18.26535">
        <ele>47.521475</ele>
        <time>2020-08-26T10:52:09.814Z</time>
      </trkpt>
      <trkpt lat="69.61548" lon="18.26543">
        <ele>47.570603</ele>
        <time>2020-08-26T10:52:11.839Z</time>
      </trkpt>
      <trkpt lat="69.6154" lon="18.26549">
        <ele>47.614587</ele>
        <time>2020-08-26T10:52:13.822Z</time>
      </trkpt>
      <trkpt lat="69.61528" lon="18.26557">
        <ele>47.673335</ele>
        <time>2020-08-26T10:52:16.845Z</time>
      </trkpt>
      <trkpt lat="69.61517" lon="18.26562">
        <ele>47.724205</ele>
        <time>2020-08-26T10:52:19.855Z</time>
      </trkpt>
      <trkpt lat="69.61508" lon="18.26565">
        <ele>47.838632</ele>
        <time>2020-08-26T10:52:22.850Z</time>
      </trkpt>
      <trkpt lat="69.61498" lon="18.26569">
        <ele>48.064925</ele>
        <time>2020-08-26T10:52:25.819Z</time>
      </trkpt>
      <trkpt lat="69.61488" lon="18.26569">
        <ele>48.294446</ele>
        <time>2020-08-26T10:52:28.837Z</time>
      </trkpt>
      <trkpt lat="69.61479" lon="18.26569">
        <ele>48.523942</ele>
        <time>2020-08-26T10:52:31.812Z</time>
      </trkpt>
      <trkpt lat="69.61468" lon="18.26568">
        <ele>48.772462</ele>
        <time>2020-08-26T10:52:34.829Z</time>
      </trkpt>
      <trkpt lat="69.61457" lon="18.26569">
        <ele>49.042245</ele>
        <time>2020-08-26T10:52:37.839Z</time>
      </trkpt>
      <trkpt lat="69.61445" lon="18.26568">
        <ele>49.309662</ele>
        <time>2020-08-26T10:52:40.834Z</time>
      </trkpt>
      <trkpt lat="69.61435" lon="18.26567">
        <ele>49.567642</ele>
        <time>2020-08-26T10:52:43.825Z</time>
      </trkpt>
      <trkpt lat="69.61422" lon="18.26567">
        <ele>49.856281</ele>
        <time>2020-08-26T10:52:46.819Z</time>
      </trkpt>
      <trkpt lat="69.6141" lon="18.26566">
        <ele>50.145249</ele>
        <time>2020-08-26T10:52:49.836Z</time>
      </trkpt>
      <trkpt lat="69.61398" lon="18.26564">
        <ele>50.43644</ele>
        <time>2020-08-26T10:52:52.854Z</time>
      </trkpt>
      <trkpt lat="69.61389" lon="18.26563">
        <ele>50.649879</ele>
        <time>2020-08-26T10:52:54.830Z</time>
      </trkpt>
      <trkpt lat="69.6138" lon="18.26561">
        <ele>50.865736</ele>
        <time>2020-08-26T10:52:56.834Z</time>
      </trkpt>
      <trkpt lat="69.6137" lon="18.26559">
        <ele>51.086255</ele>
        <time>2020-08-26T10:52:58.837Z</time>
      </trkpt>
      <trkpt lat="69.61361" lon="18.26558">
        <ele>51.30643</ele>
        <time>2020-08-26T10:53:00.823Z</time>
      </trkpt>
      <trkpt lat="69.61352" lon="18.26557">
        <ele>51.529035</ele>
        <time>2020-08-26T10:53:02.815Z</time>
      </trkpt>
      <trkpt lat="69.61342" lon="18.26558">
        <ele>51.749277</ele>
        <time>2020-08-26T10:53:04.833Z</time>
      </trkpt>
      <trkpt lat="69.61333" lon="18.26552">
        <ele>51.97657</ele>
        <time>2020-08-26T10:53:06.823Z</time>
      </trkpt>
      <trkpt lat="69.61324" lon="18.26553">
        <ele>52.121405</ele>
        <time>2020-08-26T10:53:08.844Z</time>
      </trkpt>
      <trkpt lat="69.61314" lon="18.26555">
        <ele>52.259474</ele>
        <time>2020-08-26T10:53:10.821Z</time>
      </trkpt>
      <trkpt lat="69.61301" lon="18.26557">
        <ele>52.450813</ele>
        <time>2020-08-26T10:53:13.813Z</time>
      </trkpt>
      <trkpt lat="69.61288" lon="18.26559">
        <ele>52.631948</ele>
        <time>2020-08-26T10:53:16.844Z</time>
      </trkpt>
      <trkpt lat="69.61276" lon="18.2656">
        <ele>52.804255</ele>
        <time>2020-08-26T10:53:19.836Z</time>
      </trkpt>
      <trkpt lat="69.61264" lon="18.26563">
        <ele>52.982885</ele>
        <time>2020-08-26T10:53:22.813Z</time>
      </trkpt>
      <trkpt lat="69.61252" lon="18.26567">
        <ele>53.160618</ele>
        <time>2020-08-26T10:53:25.814Z</time>
      </trkpt>
      <trkpt lat="69.6124" lon="18.26569">
        <ele>53.330468</ele>
        <time>2020-08-26T10:53:28.844Z</time>
      </trkpt>
      <trkpt lat="69.61228" lon="18.26572">
        <ele>53.496311</ele>
        <time>2020-08-26T10:53:31.815Z</time>
      </trkpt>
      <trkpt lat="69.61216" lon="18.26575">
        <ele>53.669396</ele>
        <time>2020-08-26T10:53:34.851Z</time>
      </trkpt>
      <trkpt lat="69.61204" lon="18.2658">
        <ele>53.844455</ele>
        <time>2020-08-26T10:53:37.865Z</time>
      </trkpt>
      <trkpt lat="69.61192" lon="18.26585">
        <ele>54.02005</ele>
        <time>2020-08-26T10:53:40.825Z</time>
      </trkpt>
      <trkpt lat="69.6118" lon="18.26591">
        <ele>54.19548</ele>
        <time>2020-08-26T10:53:43.811Z</time>
      </trkpt>
      <trkpt lat="69.61168" lon="18.26598">
        <ele>54.371006</ele>
        <time>2020-08-26T10:53:46.827Z</time>
      </trkpt>
      <trkpt lat="69.61155" lon="18.26602">
        <ele>54.554393</ele>
        <time>2020-08-26T10:53:49.822Z</time>
      </trkpt>
      <trkpt lat="69.61142" lon="18.26604">
        <ele>54.321093</ele>
        <time>2020-08-26T10:53:52.829Z</time>
      </trkpt>
      <trkpt lat="69.61132" lon="18.26607">
        <ele>54.059239</ele>
        <time>2020-08-26T10:53:54.810Z</time>
      </trkpt>
      <trkpt lat="69.61121" lon="18.26611">
        <ele>53.775975</ele>
        <time>2020-08-26T10:53:56.819Z</time>
      </trkpt>
      <trkpt lat="69.61109" lon="18.26616">
        <ele>53.48514</ele>
        <time>2020-08-26T10:53:58.822Z</time>
      </trkpt>
      <trkpt lat="69.61097" lon="18.26621">
        <ele>53.175954</ele>
        <time>2020-08-26T10:54:00.831Z</time>
      </trkpt>
      <trkpt lat="69.61084" lon="18.26626">
        <ele>52.859573</ele>
        <time>2020-08-26T10:54:02.809Z</time>
      </trkpt>
      <trkpt lat="69.61072" lon="18.26632">
        <ele>52.536185</ele>
        <time>2020-08-26T10:54:04.831Z</time>
      </trkpt>
      <trkpt lat="69.6106" lon="18.26636">
        <ele>52.240813</ele>
        <time>2020-08-26T10:54:06.815Z</time>
      </trkpt>
      <trkpt lat="69.61048" lon="18.26642">
        <ele>51.936183</ele>
        <time>2020-08-26T10:54:08.851Z</time>
      </trkpt>
      <trkpt lat="69.61037" lon="18.26648">
        <ele>51.654824</ele>
        <time>2020-08-26T10:54:10.835Z</time>
      </trkpt>
      <trkpt lat="69.61026" lon="18.26653">
        <ele>51.377974</ele>
        <time>2020-08-26T10:54:12.810Z</time>
      </trkpt>
      <trkpt lat="69.61016" lon="18.26659">
        <ele>51.110718</ele>
        <time>2020-08-26T10:54:14.809Z</time>
      </trkpt>
      <trkpt lat="69.61005" lon="18.26664">
        <ele>50.848848</ele>
        <time>2020-08-26T10:54:16.852Z</time>
      </trkpt>
      <trkpt lat="69.60995" lon="18.26669">
        <ele>50.59686</ele>
        <time>2020-08-26T10:54:18.819Z</time>
      </trkpt>
      <trkpt lat="69.60985" lon="18.26674">
        <ele>50.33899</ele>
        <time>2020-08-26T10:54:20.831Z</time>
      </trkpt>
      <trkpt lat="69.60975" lon="18.26681">
        <ele>50.084597</ele>
        <time>2020-08-26T10:54:22.812Z</time>
      </trkpt>
      <trkpt lat="69.60966" lon="18.26689">
        <ele>49.661297</ele>
        <time>2020-08-26T10:54:24.864Z</time>
      </trkpt>
      <trkpt lat="69.60956" lon="18.26697">
        <ele>49.223373</ele>
        <time>2020-08-26T10:54:26.830Z</time>
      </trkpt>
      <trkpt lat="69.60946" lon="18.26702">
        <ele>48.797995</ele>
        <time>2020-08-26T10:54:28.833Z</time>
      </trkpt>
      <trkpt lat="69.60936" lon="18.26708">
        <ele>48.367032</ele>
        <time>2020-08-26T10:54:30.824Z</time>
      </trkpt>
      <trkpt lat="69.60926" lon="18.26716">
        <ele>47.942871</ele>
        <time>2020-08-26T10:54:32.832Z</time>
      </trkpt>
      <trkpt lat="69.60917" lon="18.26723">
        <ele>47.532459</ele>
        <time>2020-08-26T10:54:34.837Z</time>
      </trkpt>
      <trkpt lat="69.60907" lon="18.2673">
        <ele>47.114984</ele>
        <time>2020-08-26T10:54:36.866Z</time>
      </trkpt>
      <trkpt lat="69.60897" lon="18.26736">
        <ele>46.698212</ele>
        <time>2020-08-26T10:54:38.865Z</time>
      </trkpt>
      <trkpt lat="69.60888" lon="18.26745">
        <ele>46.285125</ele>
        <time>2020-08-26T10:54:40.832Z</time>
      </trkpt>
      <trkpt lat="69.60879" lon="18.26755">
        <ele>45.864726</ele>
        <time>2020-08-26T10:54:42.827Z</time>
      </trkpt>
      <trkpt lat="69.60869" lon="18.26765">
        <ele>45.439749</ele>
        <time>2020-08-26T10:54:44.824Z</time>
      </trkpt>
      <trkpt lat="69.6086" lon="18.26777">
        <ele>45.009608</ele>
        <time>2020-08-26T10:54:46.824Z</time>
      </trkpt>
      <trkpt lat="69.60852" lon="18.26793">
        <ele>44.57918</ele>
        <time>2020-08-26T10:54:48.815Z</time>
      </trkpt>
      <trkpt lat="69.60841" lon="18.26811">
        <ele>44.052338</ele>
        <time>2020-08-26T10:54:50.850Z</time>
      </trkpt>
      <trkpt lat="69.6083" lon="18.26833">
        <ele>43.501371</ele>
        <time>2020-08-26T10:54:52.839Z</time>
      </trkpt>
      <trkpt lat="69.6082" lon="18.26859">
        <ele>42.929767</ele>
        <time>2020-08-26T10:54:54.819Z</time>
      </trkpt>
      <trkpt lat="69.6081" lon="18.26886">
        <ele>42.270999</ele>
        <time>2020-08-26T10:54:56.835Z</time>
      </trkpt>
      <trkpt lat="69.608" lon="18.26918">
        <ele>41.40051</ele>
        <time>2020-08-26T10:54:58.845Z</time>
      </trkpt>
      <trkpt lat="69.60792" lon="18.26953">
        <ele>40.528367</ele>
        <time>2020-08-26T10:55:00.823Z</time>
      </trkpt>
      <trkpt lat="69.60785" lon="18.26991">
        <ele>39.640525</ele>
        <time>2020-08-26T10:55:02.845Z</time>
      </trkpt>
      <trkpt lat="69.60779" lon="18.27031">
        <ele>38.742594</ele>
        <time>2020-08-26T10:55:04.823Z</time>
      </trkpt>
      <trkpt lat="69.60775" lon="18.27072">
        <ele>37.843079</ele>
        <time>2020-08-26T10:55:06.835Z</time>
      </trkpt>
      <trkpt lat="69.60771" lon="18.27112">
        <ele>36.98345</ele>
        <time>2020-08-26T10:55:08.809Z</time>
      </trkpt>
      <trkpt lat="69.60767" lon="18.27148">
        <ele>36.198993</ele>
        <time>2020-08-26T10:55:10.848Z</time>
      </trkpt>
      <trkpt lat="69.60764" lon="18.2718">
        <ele>35.507839</ele>
        <time>2020-08-26T10:55:12.819Z</time>
      </trkpt>
      <trkpt lat="69.60761" lon="18.2721">
        <ele>34.863499</ele>
        <time>2020-08-26T10:55:14.841Z</time>
      </trkpt>
      <trkpt lat="69.60758" lon="18.2724">
        <ele>34.215157</ele>
        <time>2020-08-26T10:55:16.825Z</time>
      </trkpt>
      <trkpt lat="69.60755" lon="18.27271">
        <ele>33.561843</ele>
        <time>2020-08-26T10:55:18.832Z</time>
      </trkpt>
      <trkpt lat="69.60752" lon="18.27304">
        <ele>32.84778</ele>
        <time>2020-08-26T10:55:20.865Z</time>
      </trkpt>
      <trkpt lat="69.60749" lon="18.27337">
        <ele>32.127685</ele>
        <time>2020-08-26T10:55:22.839Z</time>
      </trkpt>
      <trkpt lat="69.60745" lon="18.27371">
        <ele>31.724971</ele>
        <time>2020-08-26T10:55:24.831Z</time>
      </trkpt>
      <trkpt lat="69.60741" lon="18.27405">
        <ele>31.620564</ele>
        <time>2020-08-26T10:55:26.867Z</time>
      </trkpt>
      <trkpt lat="69.60739" lon="18.2744">
        <ele>31.515976</ele>
        <time>2020-08-26T10:55:28.819Z</time>
      </trkpt>
      <trkpt lat="69.60736" lon="18.27476">
        <ele>31.409631</ele>
        <time>2020-08-26T10:55:30.852Z</time>
      </trkpt>
      <trkpt lat="69.60734" lon="18.27511">
        <ele>31.307857</ele>
        <time>2020-08-26T10:55:32.867Z</time>
      </trkpt>
      <trkpt lat="69.60732" lon="18.27547">
        <ele>31.203013</ele>
        <time>2020-08-26T10:55:34.829Z</time>
      </trkpt>
      <trkpt lat="69.6073" lon="18.27583">
        <ele>31.094373</ele>
        <time>2020-08-26T10:55:36.838Z</time>
      </trkpt>
      <trkpt lat="69.60727" lon="18.27619">
        <ele>30.988152</ele>
        <time>2020-08-26T10:55:38.851Z</time>
      </trkpt>
      <trkpt lat="69.60722" lon="18.27649">
        <ele>30.88998</ele>
        <time>2020-08-26T10:55:40.834Z</time>
      </trkpt>
      <trkpt lat="69.60715" lon="18.27673">
        <ele>30.798301</ele>
        <time>2020-08-26T10:55:42.848Z</time>
      </trkpt>
      <trkpt lat="69.60707" lon="18.27691">
        <ele>30.715131</ele>
        <time>2020-08-26T10:55:44.847Z</time>
      </trkpt>
      <trkpt lat="69.60698" lon="18.27707">
        <ele>30.627271</ele>
        <time>2020-08-26T10:55:46.811Z</time>
      </trkpt>
      <trkpt lat="69.60688" lon="18.27721">
        <ele>30.533608</ele>
        <time>2020-08-26T10:55:48.836Z</time>
      </trkpt>
      <trkpt lat="69.60677" lon="18.27732">
        <ele>30.436115</ele>
        <time>2020-08-26T10:55:50.825Z</time>
      </trkpt>
      <trkpt lat="69.60664" lon="18.27745">
        <ele>30.325784</ele>
        <time>2020-08-26T10:55:52.890Z</time>
      </trkpt>
      <trkpt lat="69.60652" lon="18.2776">
        <ele>30.655073</ele>
        <time>2020-08-26T10:55:54.841Z</time>
      </trkpt>
      <trkpt lat="69.6064" lon="18.2778">
        <ele>31.297423</ele>
        <time>2020-08-26T10:55:56.828Z</time>
      </trkpt>
      <trkpt lat="69.60629" lon="18.27801">
        <ele>31.89099</ele>
        <time>2020-08-26T10:55:58.814Z</time>
      </trkpt>
      <trkpt lat="69.60621" lon="18.27823">
        <ele>32.422545</ele>
        <time>2020-08-26T10:56:00.821Z</time>
      </trkpt>
      <trkpt lat="69.60614" lon="18.27846">
        <ele>32.921026</ele>
        <time>2020-08-26T10:56:02.827Z</time>
      </trkpt>
      <trkpt lat="69.60607" lon="18.27869">
        <ele>33.419772</ele>
        <time>2020-08-26T10:56:04.832Z</time>
      </trkpt>
      <trkpt lat="69.60599" lon="18.27894">
        <ele>33.970129</ele>
        <time>2020-08-26T10:56:06.853Z</time>
      </trkpt>
      <trkpt lat="69.6059" lon="18.2792">
        <ele>34.561817</ele>
        <time>2020-08-26T10:56:08.825Z</time>
      </trkpt>
      <trkpt lat="69.60582" lon="18.27946">
        <ele>35.14652</ele>
        <time>2020-08-26T10:56:10.839Z</time>
      </trkpt>
      <trkpt lat="69.60573" lon="18.2797">
        <ele>35.698569</ele>
        <time>2020-08-26T10:56:12.853Z</time>
      </trkpt>
      <trkpt lat="69.60565" lon="18.27994">
        <ele>36.239414</ele>
        <time>2020-08-26T10:56:14.844Z</time>
      </trkpt>
      <trkpt lat="69.60558" lon="18.28016">
        <ele>36.739091</ele>
        <time>2020-08-26T10:56:16.814Z</time>
      </trkpt>
      <trkpt lat="69.60551" lon="18.28036">
        <ele>37.199705</ele>
        <time>2020-08-26T10:56:18.840Z</time>
      </trkpt>
      <trkpt lat="69.60544" lon="18.28053">
        <ele>37.633076</ele>
        <time>2020-08-26T10:56:20.832Z</time>
      </trkpt>
      <trkpt lat="69.60534" lon="18.28075">
        <ele>38.208977</ele>
        <time>2020-08-26T10:56:23.831Z</time>
      </trkpt>
      <trkpt lat="69.60526" lon="18.28094">
        <ele>38.699436</ele>
        <time>2020-08-26T10:56:26.854Z</time>
      </trkpt>
      <trkpt lat="69.60518" lon="18.28109">
        <ele>38.927109</ele>
        <time>2020-08-26T10:56:29.827Z</time>
      </trkpt>
      <trkpt lat="69.6051" lon="18.28121">
        <ele>39.145439</ele>
        <time>2020-08-26T10:56:32.868Z</time>
      </trkpt>
      <trkpt lat="69.60501" lon="18.28134">
        <ele>39.370322</ele>
        <time>2020-08-26T10:56:35.847Z</time>
      </trkpt>
      <trkpt lat="69.60493" lon="18.28149">
        <ele>39.601354</ele>
        <time>2020-08-26T10:56:38.839Z</time>
      </trkpt>
      <trkpt lat="69.60484" lon="18.28164">
        <ele>39.849733</ele>
        <time>2020-08-26T10:56:41.813Z</time>
      </trkpt>
      <trkpt lat="69.60474" lon="18.28181">
        <ele>40.122908</ele>
        <time>2020-08-26T10:56:44.831Z</time>
      </trkpt>
      <trkpt lat="69.60463" lon="18.28198">
        <ele>40.430535</ele>
        <time>2020-08-26T10:56:47.837Z</time>
      </trkpt>
      <trkpt lat="69.60455" lon="18.28211">
        <ele>40.647951</ele>
        <time>2020-08-26T10:56:49.814Z</time>
      </trkpt>
      <trkpt lat="69.60446" lon="18.28224">
        <ele>40.884758</ele>
        <time>2020-08-26T10:56:51.819Z</time>
      </trkpt>
      <trkpt lat="69.60436" lon="18.28238">
        <ele>41.141899</ele>
        <time>2020-08-26T10:56:53.851Z</time>
      </trkpt>
      <trkpt lat="69.60427" lon="18.28253">
        <ele>41.392339</ele>
        <time>2020-08-26T10:56:55.813Z</time>
      </trkpt>
      <trkpt lat="69.60418" lon="18.28271">
        <ele>41.663563</ele>
        <time>2020-08-26T10:56:57.813Z</time>
      </trkpt>
      <trkpt lat="69.60407" lon="18.28287">
        <ele>41.945009</ele>
        <time>2020-08-26T10:56:59.838Z</time>
      </trkpt>
      <trkpt lat="69.60396" lon="18.28304">
        <ele>42.242276</ele>
        <time>2020-08-26T10:57:01.834Z</time>
      </trkpt>
      <trkpt lat="69.60385" lon="18.28323">
        <ele>42.554306</ele>
        <time>2020-08-26T10:57:03.819Z</time>
      </trkpt>
      <trkpt lat="69.60373" lon="18.28342">
        <ele>42.87667</ele>
        <time>2020-08-26T10:57:05.841Z</time>
      </trkpt>
      <trkpt lat="69.60362" lon="18.28361">
        <ele>42.759003</ele>
        <time>2020-08-26T10:57:07.824Z</time>
      </trkpt>
      <trkpt lat="69.6035" lon="18.28381">
        <ele>42.451918</ele>
        <time>2020-08-26T10:57:09.822Z</time>
      </trkpt>
      <trkpt lat="69.60339" lon="18.28399">
        <ele>42.153936</ele>
        <time>2020-08-26T10:57:11.828Z</time>
      </trkpt>
      <trkpt lat="69.60327" lon="18.28416">
        <ele>41.862654</ele>
        <time>2020-08-26T10:57:13.848Z</time>
      </trkpt>
      <trkpt lat="69.60316" lon="18.28432">
        <ele>41.576559</ele>
        <time>2020-08-26T10:57:15.853Z</time>
      </trkpt>
      <trkpt lat="69.60306" lon="18.28449">
        <ele>41.303746</ele>
        <time>2020-08-26T10:57:17.842Z</time>
      </trkpt>
      <trkpt lat="69.60297" lon="18.28463">
        <ele>41.072046</ele>
        <time>2020-08-26T10:57:19.828Z</time>
      </trkpt>
      <trkpt lat="69.60289" lon="18.28478">
        <ele>40.836327</ele>
        <time>2020-08-26T10:57:21.839Z</time>
      </trkpt>
      <trkpt lat="69.60279" lon="18.28494">
        <ele>40.589078</ele>
        <time>2020-08-26T10:57:23.828Z</time>
      </trkpt>
      <trkpt lat="69.6027" lon="18.28509">
        <ele>40.342969</ele>
        <time>2020-08-26T10:57:25.862Z</time>
      </trkpt>
      <trkpt lat="69.6026" lon="18.28525">
        <ele>40.083324</ele>
        <time>2020-08-26T10:57:27.832Z</time>
      </trkpt>
      <trkpt lat="69.6025" lon="18.28543">
        <ele>39.810113</ele>
        <time>2020-08-26T10:57:29.858Z</time>
      </trkpt>
      <trkpt lat="69.60239" lon="18.28559">
        <ele>39.534766</ele>
        <time>2020-08-26T10:57:31.821Z</time>
      </trkpt>
      <trkpt lat="69.60229" lon="18.28575">
        <ele>39.254974</ele>
        <time>2020-08-26T10:57:33.833Z</time>
      </trkpt>
      <trkpt lat="69.60218" lon="18.28592">
        <ele>38.979377</ele>
        <time>2020-08-26T10:57:35.815Z</time>
      </trkpt>
      <trkpt lat="69.60207" lon="18.28609">
        <ele>38.941804</ele>
        <time>2020-08-26T10:57:37.832Z</time>
      </trkpt>
      <trkpt lat="69.60196" lon="18.28622">
        <ele>39.13734</ele>
        <time>2020-08-26T10:57:39.814Z</time>
      </trkpt>
      <trkpt lat="69.60185" lon="18.28632">
        <ele>39.328223</ele>
        <time>2020-08-26T10:57:41.831Z</time>
      </trkpt>
      <trkpt lat="69.60174" lon="18.2864">
        <ele>39.509243</ele>
        <time>2020-08-26T10:57:43.871Z</time>
      </trkpt>
      <trkpt lat="69.60163" lon="18.28645">
        <ele>39.678804</ele>
        <time>2020-08-26T10:57:45.813Z</time>
      </trkpt>
      <trkpt lat="69.60153" lon="18.28647">
        <ele>39.849978</ele>
        <time>2020-08-26T10:57:47.825Z</time>
      </trkpt>
      <trkpt lat="69.60143" lon="18.28645">
        <ele>40.012974</ele>
        <time>2020-08-26T10:57:49.828Z</time>
      </trkpt>
      <trkpt lat="69.60133" lon="18.28643">
        <ele>40.17619</ele>
        <time>2020-08-26T10:57:51.827Z</time>
      </trkpt>
      <trkpt lat="69.60123" lon="18.2864">
        <ele>40.336383</ele>
        <time>2020-08-26T10:57:53.826Z</time>
      </trkpt>
      <trkpt lat="69.60113" lon="18.28637">
        <ele>40.490449</ele>
        <time>2020-08-26T10:57:55.815Z</time>
      </trkpt>
      <trkpt lat="69.601" lon="18.28635">
        <ele>40.7019</ele>
        <time>2020-08-26T10:57:58.853Z</time>
      </trkpt>
      <trkpt lat="69.60088" lon="18.28633">
        <ele>40.897302</ele>
        <time>2020-08-26T10:58:01.836Z</time>
      </trkpt>
      <trkpt lat="69.60075" lon="18.28631">
        <ele>41.110192</ele>
        <time>2020-08-26T10:58:04.835Z</time>
      </trkpt>
      <trkpt lat="69.60065" lon="18.2863">
        <ele>41.261745</ele>
        <time>2020-08-26T10:58:06.819Z</time>
      </trkpt>
      <trkpt lat="69.60056" lon="18.28629">
        <ele>41.415122</ele>
        <time>2020-08-26T10:58:08.829Z</time>
      </trkpt>
      <trkpt lat="69.60046" lon="18.28627">
        <ele>41.57487</ele>
        <time>2020-08-26T10:58:10.830Z</time>
      </trkpt>
      <trkpt lat="69.60036" lon="18.28625">
        <ele>41.729822</ele>
        <time>2020-08-26T10:58:12.859Z</time>
      </trkpt>
      <trkpt lat="69.60027" lon="18.28623">
        <ele>41.697003</ele>
        <time>2020-08-26T10:58:14.817Z</time>
      </trkpt>
      <trkpt lat="69.60017" lon="18.28621">
        <ele>41.653024</ele>
        <time>2020-08-26T10:58:16.828Z</time>
      </trkpt>
      <trkpt lat="69.60007" lon="18.2862">
        <ele>41.610396</ele>
        <time>2020-08-26T10:58:18.846Z</time>
      </trkpt>
      <trkpt lat="69.59994" lon="18.28619">
        <ele>41.550766</ele>
        <time>2020-08-26T10:58:21.825Z</time>
      </trkpt>
      <trkpt lat="69.59981" lon="18.28619">
        <ele>41.493865</ele>
        <time>2020-08-26T10:58:24.824Z</time>
      </trkpt>
      <trkpt lat="69.5997" lon="18.28617">
        <ele>41.442719</ele>
        <time>2020-08-26T10:58:27.873Z</time>
      </trkpt>
      <trkpt lat="69.59959" lon="18.28615">
        <ele>41.39109</ele>
        <time>2020-08-26T10:58:30.835Z</time>
      </trkpt>
      <trkpt lat="69.59946" lon="18.28614">
        <ele>41.336397</ele>
        <time>2020-08-26T10:58:33.814Z</time>
      </trkpt>
      <trkpt lat="69.59934" lon="18.2861">
        <ele>41.282415</ele>
        <time>2020-08-26T10:58:36.822Z</time>
      </trkpt>
      <trkpt lat="69.59922" lon="18.28608">
        <ele>41.226323</ele>
        <time>2020-08-26T10:58:39.824Z</time>
      </trkpt>
      <trkpt lat="69.59913" lon="18.28606">
        <ele>41.184855</ele>
        <time>2020-08-26T10:58:41.848Z</time>
      </trkpt>
      <trkpt lat="69.59903" lon="18.28604">
        <ele>41.1404</ele>
        <time>2020-08-26T10:58:43.841Z</time>
      </trkpt>
      <trkpt lat="69.59893" lon="18.28602">
        <ele>41.095109</ele>
        <time>2020-08-26T10:58:45.853Z</time>
      </trkpt>
      <trkpt lat="69.59882" lon="18.28601">
        <ele>41.045346</ele>
        <time>2020-08-26T10:58:47.825Z</time>
      </trkpt>
      <trkpt lat="69.59869" lon="18.28602">
        <ele>40.990667</ele>
        <time>2020-08-26T10:58:49.813Z</time>
      </trkpt>
      <trkpt lat="69.59855" lon="18.28605">
        <ele>40.894241</ele>
        <time>2020-08-26T10:58:51.847Z</time>
      </trkpt>
      <trkpt lat="69.5984" lon="18.2861">
        <ele>40.521888</ele>
        <time>2020-08-26T10:58:53.833Z</time>
      </trkpt>
      <trkpt lat="69.59825" lon="18.28619">
        <ele>40.13176</ele>
        <time>2020-08-26T10:58:55.843Z</time>
      </trkpt>
      <trkpt lat="69.5981" lon="18.28628">
        <ele>39.753735</ele>
        <time>2020-08-26T10:58:57.849Z</time>
      </trkpt>
      <trkpt lat="69.59796" lon="18.28636">
        <ele>39.386176</ele>
        <time>2020-08-26T10:58:59.838Z</time>
      </trkpt>
      <trkpt lat="69.59783" lon="18.28638">
        <ele>39.054016</ele>
        <time>2020-08-26T10:59:01.822Z</time>
      </trkpt>
      <trkpt lat="69.5977" lon="18.28632">
        <ele>38.733797</ele>
        <time>2020-08-26T10:59:03.827Z</time>
      </trkpt>
      <trkpt lat="69.59758" lon="18.28619">
        <ele>38.419181</ele>
        <time>2020-08-26T10:59:05.838Z</time>
      </trkpt>
      <trkpt lat="69.59747" lon="18.28605">
        <ele>38.100203</ele>
        <time>2020-08-26T10:59:07.822Z</time>
      </trkpt>
      <trkpt lat="69.59736" lon="18.28588">
        <ele>37.793586</ele>
        <time>2020-08-26T10:59:09.847Z</time>
      </trkpt>
      <trkpt lat="69.59726" lon="18.28573">
        <ele>37.514912</ele>
        <time>2020-08-26T10:59:11.863Z</time>
      </trkpt>
      <trkpt lat="69.59717" lon="18.28562">
        <ele>37.274597</ele>
        <time>2020-08-26T10:59:13.866Z</time>
      </trkpt>
      <trkpt lat="69.59705" lon="18.28549">
        <ele>36.93932</ele>
        <time>2020-08-26T10:59:16.823Z</time>
      </trkpt>
      <trkpt lat="69.59697" lon="18.28539">
        <ele>36.715117</ele>
        <time>2020-08-26T10:59:18.812Z</time>
      </trkpt>
      <trkpt lat="69.59685" lon="18.28526">
        <ele>36.413962</ele>
        <time>2020-08-26T10:59:21.841Z</time>
      </trkpt>
      <trkpt lat="69.59674" lon="18.28516">
        <ele>36.591572</ele>
        <time>2020-08-26T10:59:24.822Z</time>
      </trkpt>
      <trkpt lat="69.59662" lon="18.28511">
        <ele>36.759488</ele>
        <time>2020-08-26T10:59:27.827Z</time>
      </trkpt>
      <trkpt lat="69.59649" lon="18.28508">
        <ele>36.943459</ele>
        <time>2020-08-26T10:59:30.869Z</time>
      </trkpt>
      <trkpt lat="69.59638" lon="18.28507">
        <ele>37.110776</ele>
        <time>2020-08-26T10:59:33.832Z</time>
      </trkpt>
      <trkpt lat="69.59626" lon="18.28505">
        <ele>37.285786</ele>
        <time>2020-08-26T10:59:36.824Z</time>
      </trkpt>
      <trkpt lat="69.59613" lon="18.28502">
        <ele>37.472584</ele>
        <time>2020-08-26T10:59:39.815Z</time>
      </trkpt>
      <trkpt lat="69.596" lon="18.285">
        <ele>37.663101</ele>
        <time>2020-08-26T10:59:42.827Z</time>
      </trkpt>
      <trkpt lat="69.5959" lon="18.285">
        <ele>37.795803</ele>
        <time>2020-08-26T10:59:44.824Z</time>
      </trkpt>
      <trkpt lat="69.5958" lon="18.28499">
        <ele>37.940058</ele>
        <time>2020-08-26T10:59:46.840Z</time>
      </trkpt>
      <trkpt lat="69.5957" lon="18.28498">
        <ele>38.090249</ele>
        <time>2020-08-26T10:59:48.832Z</time>
      </trkpt>
      <trkpt lat="69.5956" lon="18.28493">
        <ele>38.242101</ele>
        <time>2020-08-26T10:59:50.893Z</time>
      </trkpt>
      <trkpt lat="69.59549" lon="18.28491">
        <ele>38.395463</ele>
        <time>2020-08-26T10:59:52.808Z</time>
      </trkpt>
      <trkpt lat="69.59539" lon="18.28488">
        <ele>38.54747</ele>
        <time>2020-08-26T10:59:54.813Z</time>
      </trkpt>
      <trkpt lat="69.59527" lon="18.28483">
        <ele>38.721321</ele>
        <time>2020-08-26T10:59:56.839Z</time>
      </trkpt>
      <trkpt lat="69.59515" lon="18.28476">
        <ele>38.890987</ele>
        <time>2020-08-26T10:59:58.851Z</time>
      </trkpt>
      <trkpt lat="69.59503" lon="18.28472">
        <ele>38.938194</ele>
        <time>2020-08-26T11:00:00.827Z</time>
      </trkpt>
      <trkpt lat="69.59492" lon="18.28465">
        <ele>38.730653</ele>
        <time>2020-08-26T11:00:02.839Z</time>
      </trkpt>
      <trkpt lat="69.59479" lon="18.28456">
        <ele>38.510484</ele>
        <time>2020-08-26T11:00:04.819Z</time>
      </trkpt>
      <trkpt lat="69.59467" lon="18.28446">
        <ele>38.286315</ele>
        <time>2020-08-26T11:00:06.843Z</time>
      </trkpt>
      <trkpt lat="69.59455" lon="18.28441">
        <ele>38.06801</ele>
        <time>2020-08-26T11:00:08.859Z</time>
      </trkpt>
      <trkpt lat="69.59442" lon="18.28434">
        <ele>37.851094</ele>
        <time>2020-08-26T11:00:10.840Z</time>
      </trkpt>
      <trkpt lat="69.59431" lon="18.28426">
        <ele>37.640734</ele>
        <time>2020-08-26T11:00:12.868Z</time>
      </trkpt>
      <trkpt lat="69.5942" lon="18.28419">
        <ele>37.445374</ele>
        <time>2020-08-26T11:00:14.831Z</time>
      </trkpt>
      <trkpt lat="69.59409" lon="18.28413">
        <ele>37.248229</ele>
        <time>2020-08-26T11:00:16.827Z</time>
      </trkpt>
      <trkpt lat="69.59397" lon="18.28408">
        <ele>37.044939</ele>
        <time>2020-08-26T11:00:18.829Z</time>
      </trkpt>
      <trkpt lat="69.59386" lon="18.28401">
        <ele>36.840364</ele>
        <time>2020-08-26T11:00:20.855Z</time>
      </trkpt>
      <trkpt lat="69.59375" lon="18.28395">
        <ele>36.643105</ele>
        <time>2020-08-26T11:00:22.818Z</time>
      </trkpt>
      <trkpt lat="69.59363" lon="18.28387">
        <ele>36.434586</ele>
        <time>2020-08-26T11:00:24.834Z</time>
      </trkpt>
      <trkpt lat="69.59352" lon="18.28377">
        <ele>36.230388</ele>
        <time>2020-08-26T11:00:26.826Z</time>
      </trkpt>
      <trkpt lat="69.5934" lon="18.28366">
        <ele>36.014719</ele>
        <time>2020-08-26T11:00:28.850Z</time>
      </trkpt>
      <trkpt lat="69.59329" lon="18.28355">
        <ele>35.832921</ele>
        <time>2020-08-26T11:00:30.832Z</time>
      </trkpt>
      <trkpt lat="69.59319" lon="18.28344">
        <ele>35.697781</ele>
        <time>2020-08-26T11:00:33.853Z</time>
      </trkpt>
      <trkpt lat="69.5931" lon="18.28333">
        <ele>35.57825</ele>
        <time>2020-08-26T11:00:36.838Z</time>
      </trkpt>
      <trkpt lat="69.59299" lon="18.28321">
        <ele>35.43161</ele>
        <time>2020-08-26T11:00:39.843Z</time>
      </trkpt>
      <trkpt lat="69.59288" lon="18.28309">
        <ele>35.285974</ele>
        <time>2020-08-26T11:00:42.824Z</time>
      </trkpt>
      <trkpt lat="69.59275" lon="18.28297">
        <ele>35.119609</ele>
        <time>2020-08-26T11:00:45.833Z</time>
      </trkpt>
      <trkpt lat="69.59266" lon="18.2829">
        <ele>35.008736</ele>
        <time>2020-08-26T11:00:47.840Z</time>
      </trkpt>
      <trkpt lat="69.59257" lon="18.28283">
        <ele>34.896526</ele>
        <time>2020-08-26T11:00:49.859Z</time>
      </trkpt>
      <trkpt lat="69.59248" lon="18.28277">
        <ele>34.786894</ele>
        <time>2020-08-26T11:00:51.850Z</time>
      </trkpt>
      <trkpt lat="69.5924" lon="18.28271">
        <ele>34.676573</ele>
        <time>2020-08-26T11:00:53.827Z</time>
      </trkpt>
      <trkpt lat="69.59227" lon="18.28262">
        <ele>34.514855</ele>
        <time>2020-08-26T11:00:56.825Z</time>
      </trkpt>
      <trkpt lat="69.59213" lon="18.28256">
        <ele>34.350921</ele>
        <time>2020-08-26T11:00:59.820Z</time>
      </trkpt>
      <trkpt lat="69.59205" lon="18.2825">
        <ele>34.240695</ele>
        <time>2020-08-26T11:01:01.844Z</time>
      </trkpt>
      <trkpt lat="69.59195" lon="18.28244">
        <ele>34.123565</ele>
        <time>2020-08-26T11:01:03.848Z</time>
      </trkpt>
      <trkpt lat="69.59186" lon="18.2824">
        <ele>34.008188</ele>
        <time>2020-08-26T11:01:05.828Z</time>
      </trkpt>
      <trkpt lat="69.59176" lon="18.28234">
        <ele>33.884899</ele>
        <time>2020-08-26T11:01:07.823Z</time>
      </trkpt>
      <trkpt lat="69.59166" lon="18.28229">
        <ele>33.760412</ele>
        <time>2020-08-26T11:01:09.820Z</time>
      </trkpt>
      <trkpt lat="69.59155" lon="18.28221">
        <ele>33.624659</ele>
        <time>2020-08-26T11:01:11.842Z</time>
      </trkpt>
      <trkpt lat="69.59145" lon="18.28215">
        <ele>33.489379</ele>
        <time>2020-08-26T11:01:13.829Z</time>
      </trkpt>
      <trkpt lat="69.59135" lon="18.28207">
        <ele>33.355989</ele>
        <time>2020-08-26T11:01:15.833Z</time>
      </trkpt>
      <trkpt lat="69.59126" lon="18.28199">
        <ele>33.2282</ele>
        <time>2020-08-26T11:01:17.816Z</time>
      </trkpt>
      <trkpt lat="69.59116" lon="18.28189">
        <ele>33.091769</ele>
        <time>2020-08-26T11:01:19.820Z</time>
      </trkpt>
      <trkpt lat="69.59106" lon="18.2818">
        <ele>32.954937</ele>
        <time>2020-08-26T11:01:21.836Z</time>
      </trkpt>
      <trkpt lat="69.59096" lon="18.28171">
        <ele>32.822616</ele>
        <time>2020-08-26T11:01:23.830Z</time>
      </trkpt>
      <trkpt lat="69.59086" lon="18.28161">
        <ele>32.688781</ele>
        <time>2020-08-26T11:01:25.846Z</time>
      </trkpt>
      <trkpt lat="69.59077" lon="18.28152">
        <ele>32.560426</ele>
        <time>2020-08-26T11:01:27.840Z</time>
      </trkpt>
      <trkpt lat="69.59067" lon="18.28144">
        <ele>32.431942</ele>
        <time>2020-08-26T11:01:29.826Z</time>
      </trkpt>
      <trkpt lat="69.59057" lon="18.28134">
        <ele>32.295366</ele>
        <time>2020-08-26T11:01:31.812Z</time>
      </trkpt>
      <trkpt lat="69.59048" lon="18.28125">
        <ele>32.163682</ele>
        <time>2020-08-26T11:01:33.827Z</time>
      </trkpt>
      <trkpt lat="69.59038" lon="18.28114">
        <ele>32.030267</ele>
        <time>2020-08-26T11:01:35.812Z</time>
      </trkpt>
      <trkpt lat="69.59029" lon="18.28103">
        <ele>31.899088</ele>
        <time>2020-08-26T11:01:37.828Z</time>
      </trkpt>
      <trkpt lat="69.59019" lon="18.28092">
        <ele>31.768575</ele>
        <time>2020-08-26T11:01:39.823Z</time>
      </trkpt>
      <trkpt lat="69.5901" lon="18.28082">
        <ele>31.636855</ele>
        <time>2020-08-26T11:01:41.810Z</time>
      </trkpt>
      <trkpt lat="69.59001" lon="18.28072">
        <ele>31.509281</ele>
        <time>2020-08-26T11:01:43.834Z</time>
      </trkpt>
      <trkpt lat="69.58991" lon="18.28064">
        <ele>31.383666</ele>
        <time>2020-08-26T11:01:45.848Z</time>
      </trkpt>
      <trkpt lat="69.58982" lon="18.28056">
        <ele>31.583693</ele>
        <time>2020-08-26T11:01:47.837Z</time>
      </trkpt>
      <trkpt lat="69.58973" lon="18.28049">
        <ele>31.941764</ele>
        <time>2020-08-26T11:01:49.869Z</time>
      </trkpt>
      <trkpt lat="69.5896" lon="18.28037">
        <ele>32.461071</ele>
        <time>2020-08-26T11:01:52.826Z</time>
      </trkpt>
      <trkpt lat="69.58948" lon="18.28027">
        <ele>32.962803</ele>
        <time>2020-08-26T11:01:55.871Z</time>
      </trkpt>
      <trkpt lat="69.58936" lon="18.28016">
        <ele>33.437076</ele>
        <time>2020-08-26T11:01:58.826Z</time>
      </trkpt>
      <trkpt lat="69.58925" lon="18.28007">
        <ele>33.883918</ele>
        <time>2020-08-26T11:02:01.819Z</time>
      </trkpt>
      <trkpt lat="69.58913" lon="18.28">
        <ele>34.345426</ele>
        <time>2020-08-26T11:02:04.867Z</time>
      </trkpt>
      <trkpt lat="69.58901" lon="18.27993">
        <ele>34.813928</ele>
        <time>2020-08-26T11:02:07.867Z</time>
      </trkpt>
      <trkpt lat="69.5889" lon="18.27987">
        <ele>35.263113</ele>
        <time>2020-08-26T11:02:10.821Z</time>
      </trkpt>
      <trkpt lat="69.58878" lon="18.2798">
        <ele>35.727346</ele>
        <time>2020-08-26T11:02:13.826Z</time>
      </trkpt>
      <trkpt lat="69.58866" lon="18.27973">
        <ele>36.198009</ele>
        <time>2020-08-26T11:02:16.858Z</time>
      </trkpt>
      <trkpt lat="69.58854" lon="18.27966">
        <ele>36.656588</ele>
        <time>2020-08-26T11:02:19.835Z</time>
      </trkpt>
      <trkpt lat="69.58842" lon="18.27957">
        <ele>37.144256</ele>
        <time>2020-08-26T11:02:22.816Z</time>
      </trkpt>
      <trkpt lat="69.58829" lon="18.27951">
        <ele>37.635843</ele>
        <time>2020-08-26T11:02:25.850Z</time>
      </trkpt>
      <trkpt lat="69.58816" lon="18.27943">
        <ele>38.12927</ele>
        <time>2020-08-26T11:02:28.827Z</time>
      </trkpt>
      <trkpt lat="69.58804" lon="18.27935">
        <ele>38.379195</ele>
        <time>2020-08-26T11:02:31.838Z</time>
      </trkpt>
      <trkpt lat="69.58792" lon="18.27926">
        <ele>38.556893</ele>
        <time>2020-08-26T11:02:34.831Z</time>
      </trkpt>
      <trkpt lat="69.58779" lon="18.27919">
        <ele>38.746323</ele>
        <time>2020-08-26T11:02:37.827Z</time>
      </trkpt>
      <trkpt lat="69.58768" lon="18.27913">
        <ele>38.911197</ele>
        <time>2020-08-26T11:02:40.827Z</time>
      </trkpt>
      <trkpt lat="69.58756" lon="18.27904">
        <ele>39.085099</ele>
        <time>2020-08-26T11:02:43.823Z</time>
      </trkpt>
      <trkpt lat="69.58745" lon="18.27898">
        <ele>39.252705</ele>
        <time>2020-08-26T11:02:46.830Z</time>
      </trkpt>
      <trkpt lat="69.58733" lon="18.27891">
        <ele>39.42135</ele>
        <time>2020-08-26T11:02:49.894Z</time>
      </trkpt>
      <trkpt lat="69.58721" lon="18.27885">
        <ele>39.597959</ele>
        <time>2020-08-26T11:02:52.826Z</time>
      </trkpt>
      <trkpt lat="69.58709" lon="18.27877">
        <ele>39.780392</ele>
        <time>2020-08-26T11:02:55.811Z</time>
      </trkpt>
      <trkpt lat="69.58697" lon="18.2787">
        <ele>39.964154</ele>
        <time>2020-08-26T11:02:58.834Z</time>
      </trkpt>
      <trkpt lat="69.58684" lon="18.27862">
        <ele>40.144394</ele>
        <time>2020-08-26T11:03:01.817Z</time>
      </trkpt>
      <trkpt lat="69.58672" lon="18.27855">
        <ele>40.33128</ele>
        <time>2020-08-26T11:03:04.821Z</time>
      </trkpt>
      <trkpt lat="69.58663" lon="18.27849">
        <ele>40.465893</ele>
        <time>2020-08-26T11:03:06.861Z</time>
      </trkpt>
      <trkpt lat="69.58653" lon="18.27843">
        <ele>40.604731</ele>
        <time>2020-08-26T11:03:08.826Z</time>
      </trkpt>
      <trkpt lat="69.58644" lon="18.27836">
        <ele>40.738022</ele>
        <time>2020-08-26T11:03:10.818Z</time>
      </trkpt>
      <trkpt lat="69.58635" lon="18.27828">
        <ele>40.77844</ele>
        <time>2020-08-26T11:03:12.813Z</time>
      </trkpt>
      <trkpt lat="69.58626" lon="18.27821">
        <ele>40.605698</ele>
        <time>2020-08-26T11:03:14.843Z</time>
      </trkpt>
      <trkpt lat="69.58616" lon="18.27815">
        <ele>40.432173</ele>
        <time>2020-08-26T11:03:16.817Z</time>
      </trkpt>
      <trkpt lat="69.58603" lon="18.27807">
        <ele>40.192309</ele>
        <time>2020-08-26T11:03:19.852Z</time>
      </trkpt>
      <trkpt lat="69.58594" lon="18.27802">
        <ele>40.033266</ele>
        <time>2020-08-26T11:03:21.841Z</time>
      </trkpt>
      <trkpt lat="69.58585" lon="18.27796">
        <ele>39.868648</ele>
        <time>2020-08-26T11:03:23.821Z</time>
      </trkpt>
      <trkpt lat="69.58576" lon="18.2779">
        <ele>39.698584</ele>
        <time>2020-08-26T11:03:25.828Z</time>
      </trkpt>
      <trkpt lat="69.58566" lon="18.27786">
        <ele>39.527968</ele>
        <time>2020-08-26T11:03:27.814Z</time>
      </trkpt>
      <trkpt lat="69.58557" lon="18.2778">
        <ele>39.356789</ele>
        <time>2020-08-26T11:03:29.834Z</time>
      </trkpt>
      <trkpt lat="69.58547" lon="18.27775">
        <ele>39.191908</ele>
        <time>2020-08-26T11:03:31.821Z</time>
      </trkpt>
      <trkpt lat="69.58538" lon="18.27768">
        <ele>39.024752</ele>
        <time>2020-08-26T11:03:33.864Z</time>
      </trkpt>
      <trkpt lat="69.58529" lon="18.27762">
        <ele>38.860745</ele>
        <time>2020-08-26T11:03:35.816Z</time>
      </trkpt>
      <trkpt lat="69.5852" lon="18.27757">
        <ele>38.696382</ele>
        <time>2020-08-26T11:03:37.830Z</time>
      </trkpt>
      <trkpt lat="69.58511" lon="18.27749">
        <ele>38.536392</ele>
        <time>2020-08-26T11:03:39.856Z</time>
      </trkpt>
      <trkpt lat="69.58499" lon="18.2774">
        <ele>38.311085</ele>
        <time>2020-08-26T11:03:42.842Z</time>
      </trkpt>
      <trkpt lat="69.58486" lon="18.27729">
        <ele>38.076609</ele>
        <time>2020-08-26T11:03:45.832Z</time>
      </trkpt>
      <trkpt lat="69.58478" lon="18.2772">
        <ele>37.913842</ele>
        <time>2020-08-26T11:03:47.832Z</time>
      </trkpt>
      <trkpt lat="69.58469" lon="18.27711">
        <ele>37.746921</ele>
        <time>2020-08-26T11:03:49.832Z</time>
      </trkpt>
      <trkpt lat="69.5846" lon="18.27702">
        <ele>37.614907</ele>
        <time>2020-08-26T11:03:51.831Z</time>
      </trkpt>
      <trkpt lat="69.58448" lon="18.27685">
        <ele>37.494861</ele>
        <time>2020-08-26T11:03:54.827Z</time>
      </trkpt>
      <trkpt lat="69.5844" lon="18.27674">
        <ele>37.408375</ele>
        <time>2020-08-26T11:03:56.835Z</time>
      </trkpt>
      <trkpt lat="69.5843" lon="18.27662">
        <ele>37.314891</ele>
        <time>2020-08-26T11:03:58.837Z</time>
      </trkpt>
      <trkpt lat="69.58421" lon="18.27652">
        <ele>37.226603</ele>
        <time>2020-08-26T11:04:00.823Z</time>
      </trkpt>
      <trkpt lat="69.58412" lon="18.2764">
        <ele>37.135172</ele>
        <time>2020-08-26T11:04:02.852Z</time>
      </trkpt>
      <trkpt lat="69.58402" lon="18.27627">
        <ele>37.037493</ele>
        <time>2020-08-26T11:04:04.856Z</time>
      </trkpt>
      <trkpt lat="69.58392" lon="18.27614">
        <ele>36.933216</ele>
        <time>2020-08-26T11:04:06.857Z</time>
      </trkpt>
      <trkpt lat="69.58382" lon="18.27601">
        <ele>36.830827</ele>
        <time>2020-08-26T11:04:08.839Z</time>
      </trkpt>
      <trkpt lat="69.58372" lon="18.27589">
        <ele>36.733107</ele>
        <time>2020-08-26T11:04:10.825Z</time>
      </trkpt>
      <trkpt lat="69.58363" lon="18.27578">
        <ele>36.641802</ele>
        <time>2020-08-26T11:04:12.857Z</time>
      </trkpt>
      <trkpt lat="69.58353" lon="18.27567">
        <ele>36.549781</ele>
        <time>2020-08-26T11:04:14.831Z</time>
      </trkpt>
      <trkpt lat="69.58345" lon="18.27557">
        <ele>36.464001</ele>
        <time>2020-08-26T11:04:16.820Z</time>
      </trkpt>
      <trkpt lat="69.58333" lon="18.27544">
        <ele>36.352079</ele>
        <time>2020-08-26T11:04:19.825Z</time>
      </trkpt>
      <trkpt lat="69.58322" lon="18.27532">
        <ele>36.240329</ele>
        <time>2020-08-26T11:04:22.863Z</time>
      </trkpt>
      <trkpt lat="69.5831" lon="18.27523">
        <ele>36.128606</ele>
        <time>2020-08-26T11:04:25.812Z</time>
      </trkpt>
      <trkpt lat="69.58298" lon="18.27516">
        <ele>36.020123</ele>
        <time>2020-08-26T11:04:28.840Z</time>
      </trkpt>
      <trkpt lat="69.58286" lon="18.27514">
        <ele>36.406069</ele>
        <time>2020-08-26T11:04:31.822Z</time>
      </trkpt>
      <trkpt lat="69.58273" lon="18.27514">
        <ele>36.857375</ele>
        <time>2020-08-26T11:04:34.815Z</time>
      </trkpt>
      <trkpt lat="69.58261" lon="18.27518">
        <ele>37.307608</ele>
        <time>2020-08-26T11:04:37.819Z</time>
      </trkpt>
      <trkpt lat="69.58249" lon="18.27525">
        <ele>37.75559</ele>
        <time>2020-08-26T11:04:40.826Z</time>
      </trkpt>
      <trkpt lat="69.58236" lon="18.27538">
        <ele>38.242825</ele>
        <time>2020-08-26T11:04:43.829Z</time>
      </trkpt>
      <trkpt lat="69.58227" lon="18.27551">
        <ele>38.597992</ele>
        <time>2020-08-26T11:04:45.820Z</time>
      </trkpt>
      <trkpt lat="69.58217" lon="18.27565">
        <ele>38.984353</ele>
        <time>2020-08-26T11:04:47.832Z</time>
      </trkpt>
      <trkpt lat="69.58207" lon="18.27579">
        <ele>39.381426</ele>
        <time>2020-08-26T11:04:49.850Z</time>
      </trkpt>
      <trkpt lat="69.58197" lon="18.27594">
        <ele>39.798882</ele>
        <time>2020-08-26T11:04:51.821Z</time>
      </trkpt>
      <trkpt lat="69.58187" lon="18.27609">
        <ele>40.203719</ele>
        <time>2020-08-26T11:04:53.826Z</time>
      </trkpt>
      <trkpt lat="69.58177" lon="18.27626">
        <ele>40.627592</ele>
        <time>2020-08-26T11:04:55.817Z</time>
      </trkpt>
      <trkpt lat="69.58167" lon="18.27646">
        <ele>41.066573</ele>
        <time>2020-08-26T11:04:57.826Z</time>
      </trkpt>
      <trkpt lat="69.58156" lon="18.2767">
        <ele>41.547595</ele>
        <time>2020-08-26T11:04:59.840Z</time>
      </trkpt>
      <trkpt lat="69.58147" lon="18.27699">
        <ele>42.03432</ele>
        <time>2020-08-26T11:05:01.818Z</time>
      </trkpt>
      <trkpt lat="69.5814" lon="18.27733">
        <ele>42.328928</ele>
        <time>2020-08-26T11:05:03.835Z</time>
      </trkpt>
      <trkpt lat="69.58137" lon="18.27771">
        <ele>41.491789</ele>
        <time>2020-08-26T11:05:05.887Z</time>
      </trkpt>
      <trkpt lat="69.58138" lon="18.27812">
        <ele>40.632149</ele>
        <time>2020-08-26T11:05:07.860Z</time>
      </trkpt>
      <trkpt lat="69.58144" lon="18.27849">
        <ele>39.777907</ele>
        <time>2020-08-26T11:05:09.849Z</time>
      </trkpt>
      <trkpt lat="69.58151" lon="18.27881">
        <ele>38.976261</ele>
        <time>2020-08-26T11:05:11.846Z</time>
      </trkpt>
      <trkpt lat="69.58157" lon="18.2791">
        <ele>38.269564</ele>
        <time>2020-08-26T11:05:13.835Z</time>
      </trkpt>
      <trkpt lat="69.58163" lon="18.27935">
        <ele>37.601844</ele>
        <time>2020-08-26T11:05:15.813Z</time>
      </trkpt>
      <trkpt lat="69.58171" lon="18.27959">
        <ele>36.919872</ele>
        <time>2020-08-26T11:05:17.875Z</time>
      </trkpt>
      <trkpt lat="69.58179" lon="18.27981">
        <ele>36.237321</ele>
        <time>2020-08-26T11:05:19.831Z</time>
      </trkpt>
      <trkpt lat="69.58188" lon="18.28">
        <ele>35.568771</ele>
        <time>2020-08-26T11:05:21.864Z</time>
      </trkpt>
      <trkpt lat="69.58197" lon="18.28018">
        <ele>34.89697</ele>
        <time>2020-08-26T11:05:23.827Z</time>
      </trkpt>
      <trkpt lat="69.58205" lon="18.28036">
        <ele>34.259745</ele>
        <time>2020-08-26T11:05:25.823Z</time>
      </trkpt>
      <trkpt lat="69.58214" lon="18.28051">
        <ele>33.623854</ele>
        <time>2020-08-26T11:05:27.838Z</time>
      </trkpt>
      <trkpt lat="69.58224" lon="18.28064">
        <ele>32.978629</ele>
        <time>2020-08-26T11:05:29.827Z</time>
      </trkpt>
      <trkpt lat="69.58234" lon="18.28076">
        <ele>32.326242</ele>
        <time>2020-08-26T11:05:31.812Z</time>
      </trkpt>
      <trkpt lat="69.58244" lon="18.28087">
        <ele>31.656779</ele>
        <time>2020-08-26T11:05:33.814Z</time>
      </trkpt>
      <trkpt lat="69.58255" lon="18.28098">
        <ele>31.424172</ele>
        <time>2020-08-26T11:05:35.868Z</time>
      </trkpt>
      <trkpt lat="69.58266" lon="18.28107">
        <ele>31.305371</ele>
        <time>2020-08-26T11:05:37.829Z</time>
      </trkpt>
      <trkpt lat="69.58275" lon="18.28114">
        <ele>31.200842</ele>
        <time>2020-08-26T11:05:39.844Z</time>
      </trkpt>
      <trkpt lat="69.58285" lon="18.28121">
        <ele>31.098254</ele>
        <time>2020-08-26T11:05:41.852Z</time>
      </trkpt>
      <trkpt lat="69.58294" lon="18.28127">
        <ele>30.995703</ele>
        <time>2020-08-26T11:05:43.892Z</time>
      </trkpt>
      <trkpt lat="69.58304" lon="18.28134">
        <ele>30.894417</ele>
        <time>2020-08-26T11:05:45.836Z</time>
      </trkpt>
      <trkpt lat="69.58316" lon="18.28142">
        <ele>30.756258</ele>
        <time>2020-08-26T11:05:48.874Z</time>
      </trkpt>
      <trkpt lat="69.58329" lon="18.28154">
        <ele>30.615283</ele>
        <time>2020-08-26T11:05:51.819Z</time>
      </trkpt>
      <trkpt lat="69.58338" lon="18.2816">
        <ele>30.516582</ele>
        <time>2020-08-26T11:05:53.839Z</time>
      </trkpt>
      <trkpt lat="69.58348" lon="18.28168">
        <ele>30.41036</ele>
        <time>2020-08-26T11:05:55.822Z</time>
      </trkpt>
      <trkpt lat="69.58358" lon="18.28175">
        <ele>30.306563</ele>
        <time>2020-08-26T11:05:57.819Z</time>
      </trkpt>
      <trkpt lat="69.58367" lon="18.28183">
        <ele>30.198697</ele>
        <time>2020-08-26T11:05:59.874Z</time>
      </trkpt>
      <trkpt lat="69.58378" lon="18.28191">
        <ele>30.08619</ele>
        <time>2020-08-26T11:06:01.832Z</time>
      </trkpt>
      <trkpt lat="69.58389" lon="18.28199">
        <ele>29.967199</ele>
        <time>2020-08-26T11:06:03.848Z</time>
      </trkpt>
      <trkpt lat="69.584" lon="18.28208">
        <ele>29.842739</ele>
        <time>2020-08-26T11:06:05.833Z</time>
      </trkpt>
      <trkpt lat="69.58411" lon="18.28216">
        <ele>29.720304</ele>
        <time>2020-08-26T11:06:07.813Z</time>
      </trkpt>
      <trkpt lat="69.58422" lon="18.28224">
        <ele>29.553575</ele>
        <time>2020-08-26T11:06:09.830Z</time>
      </trkpt>
      <trkpt lat="69.58433" lon="18.28231">
        <ele>29.226573</ele>
        <time>2020-08-26T11:06:11.824Z</time>
      </trkpt>
      <trkpt lat="69.58444" lon="18.28238">
        <ele>28.910148</ele>
        <time>2020-08-26T11:06:13.817Z</time>
      </trkpt>
      <trkpt lat="69.58454" lon="18.28248">
        <ele>28.600249</ele>
        <time>2020-08-26T11:06:15.832Z</time>
      </trkpt>
      <trkpt lat="69.58464" lon="18.28256">
        <ele>28.292116</ele>
        <time>2020-08-26T11:06:17.841Z</time>
      </trkpt>
      <trkpt lat="69.58475" lon="18.28264">
        <ele>27.963466</ele>
        <time>2020-08-26T11:06:19.853Z</time>
      </trkpt>
      <trkpt lat="69.58486" lon="18.28272">
        <ele>27.63687</ele>
        <time>2020-08-26T11:06:21.852Z</time>
      </trkpt>
      <trkpt lat="69.58496" lon="18.28281">
        <ele>27.337648</ele>
        <time>2020-08-26T11:06:23.813Z</time>
      </trkpt>
      <trkpt lat="69.58506" lon="18.28288">
        <ele>27.032467</ele>
        <time>2020-08-26T11:06:25.835Z</time>
      </trkpt>
      <trkpt lat="69.58516" lon="18.28298">
        <ele>26.725856</ele>
        <time>2020-08-26T11:06:27.829Z</time>
      </trkpt>
      <trkpt lat="69.58527" lon="18.28308">
        <ele>26.415034</ele>
        <time>2020-08-26T11:06:29.836Z</time>
      </trkpt>
      <trkpt lat="69.58537" lon="18.28319">
        <ele>26.089635</ele>
        <time>2020-08-26T11:06:31.835Z</time>
      </trkpt>
      <trkpt lat="69.58547" lon="18.28331">
        <ele>25.768146</ele>
        <time>2020-08-26T11:06:33.828Z</time>
      </trkpt>
      <trkpt lat="69.58557" lon="18.28344">
        <ele>25.456242</ele>
        <time>2020-08-26T11:06:35.841Z</time>
      </trkpt>
      <trkpt lat="69.58568" lon="18.28357">
        <ele>25.126204</ele>
        <time>2020-08-26T11:06:37.833Z</time>
      </trkpt>
      <trkpt lat="69.58578" lon="18.2837">
        <ele>24.796986</ele>
        <time>2020-08-26T11:06:39.836Z</time>
      </trkpt>
      <trkpt lat="69.58588" lon="18.28385">
        <ele>24.459128</ele>
        <time>2020-08-26T11:06:41.830Z</time>
      </trkpt>
      <trkpt lat="69.58598" lon="18.28399">
        <ele>24.184704</ele>
        <time>2020-08-26T11:06:43.827Z</time>
      </trkpt>
      <trkpt lat="69.58608" lon="18.28412">
        <ele>23.915672</ele>
        <time>2020-08-26T11:06:45.841Z</time>
      </trkpt>
      <trkpt lat="69.58618" lon="18.28425">
        <ele>23.649564</ele>
        <time>2020-08-26T11:06:47.817Z</time>
      </trkpt>
      <trkpt lat="69.58628" lon="18.28438">
        <ele>23.382313</ele>
        <time>2020-08-26T11:06:49.859Z</time>
      </trkpt>
      <trkpt lat="69.58638" lon="18.28451">
        <ele>23.116104</ele>
        <time>2020-08-26T11:06:51.839Z</time>
      </trkpt>
      <trkpt lat="69.58648" lon="18.28464">
        <ele>22.845098</ele>
        <time>2020-08-26T11:06:53.826Z</time>
      </trkpt>
      <trkpt lat="69.58658" lon="18.28476">
        <ele>22.588628</ele>
        <time>2020-08-26T11:06:55.819Z</time>
      </trkpt>
      <trkpt lat="69.58668" lon="18.28489">
        <ele>22.330575</ele>
        <time>2020-08-26T11:06:57.836Z</time>
      </trkpt>
      <trkpt lat="69.58677" lon="18.285">
        <ele>22.081488</ele>
        <time>2020-08-26T11:06:59.869Z</time>
      </trkpt>
      <trkpt lat="69.58687" lon="18.28513">
        <ele>21.812019</ele>
        <time>2020-08-26T11:07:01.849Z</time>
      </trkpt>
      <trkpt lat="69.58697" lon="18.28526">
        <ele>21.546495</ele>
        <time>2020-08-26T11:07:03.820Z</time>
      </trkpt>
      <trkpt lat="69.58707" lon="18.28538">
        <ele>21.284549</ele>
        <time>2020-08-26T11:07:05.843Z</time>
      </trkpt>
      <trkpt lat="69.58717" lon="18.28549">
        <ele>21.033885</ele>
        <time>2020-08-26T11:07:07.853Z</time>
      </trkpt>
      <trkpt lat="69.58726" lon="18.2856">
        <ele>20.792848</ele>
        <time>2020-08-26T11:07:09.839Z</time>
      </trkpt>
      <trkpt lat="69.58735" lon="18.28571">
        <ele>20.558277</ele>
        <time>2020-08-26T11:07:11.859Z</time>
      </trkpt>
      <trkpt lat="69.58743" lon="18.28584">
        <ele>20.31988</ele>
        <time>2020-08-26T11:07:13.835Z</time>
      </trkpt>
      <trkpt lat="69.58752" lon="18.28597">
        <ele>20.07317</ele>
        <time>2020-08-26T11:07:15.809Z</time>
      </trkpt>
      <trkpt lat="69.58761" lon="18.28608">
        <ele>20.212104</ele>
        <time>2020-08-26T11:07:17.834Z</time>
      </trkpt>
      <trkpt lat="69.58774" lon="18.28623">
        <ele>20.502079</ele>
        <time>2020-08-26T11:07:20.825Z</time>
      </trkpt>
      <trkpt lat="69.58782" lon="18.28633">
        <ele>20.703585</ele>
        <time>2020-08-26T11:07:22.828Z</time>
      </trkpt>
      <trkpt lat="69.58791" lon="18.28644">
        <ele>20.902641</ele>
        <time>2020-08-26T11:07:24.839Z</time>
      </trkpt>
      <trkpt lat="69.58799" lon="18.28655">
        <ele>21.104286</ele>
        <time>2020-08-26T11:07:26.880Z</time>
      </trkpt>
      <trkpt lat="69.58811" lon="18.28671">
        <ele>21.391018</ele>
        <time>2020-08-26T11:07:29.821Z</time>
      </trkpt>
      <trkpt lat="69.58819" lon="18.28684">
        <ele>21.591868</ele>
        <time>2020-08-26T11:07:31.830Z</time>
      </trkpt>
      <trkpt lat="69.58829" lon="18.28695">
        <ele>21.804784</ele>
        <time>2020-08-26T11:07:33.846Z</time>
      </trkpt>
      <trkpt lat="69.58838" lon="18.28705">
        <ele>22.01518</ele>
        <time>2020-08-26T11:07:35.868Z</time>
      </trkpt>
      <trkpt lat="69.58847" lon="18.28715">
        <ele>22.230146</ele>
        <time>2020-08-26T11:07:37.846Z</time>
      </trkpt>
      <trkpt lat="69.58856" lon="18.28723">
        <ele>22.444997</ele>
        <time>2020-08-26T11:07:39.831Z</time>
      </trkpt>
      <trkpt lat="69.58866" lon="18.2873">
        <ele>22.65011</ele>
        <time>2020-08-26T11:07:41.818Z</time>
      </trkpt>
      <trkpt lat="69.58875" lon="18.28736">
        <ele>22.846826</ele>
        <time>2020-08-26T11:07:43.841Z</time>
      </trkpt>
      <trkpt lat="69.58887" lon="18.28744">
        <ele>23.124351</ele>
        <time>2020-08-26T11:07:46.825Z</time>
      </trkpt>
      <trkpt lat="69.58899" lon="18.28749">
        <ele>23.394796</ele>
        <time>2020-08-26T11:07:49.821Z</time>
      </trkpt>
      <trkpt lat="69.58912" lon="18.28758">
        <ele>23.6704</ele>
        <time>2020-08-26T11:07:52.833Z</time>
      </trkpt>
      <trkpt lat="69.58925" lon="18.28767">
        <ele>23.959027</ele>
        <time>2020-08-26T11:07:55.831Z</time>
      </trkpt>
      <trkpt lat="69.58937" lon="18.28777">
        <ele>24.234612</ele>
        <time>2020-08-26T11:07:58.830Z</time>
      </trkpt>
      <trkpt lat="69.58947" lon="18.28786">
        <ele>24.484942</ele>
        <time>2020-08-26T11:08:01.819Z</time>
      </trkpt>
      <trkpt lat="69.58957" lon="18.28797">
        <ele>24.725304</ele>
        <time>2020-08-26T11:08:04.876Z</time>
      </trkpt>
      <trkpt lat="69.58966" lon="18.28807">
        <ele>24.932806</ele>
        <time>2020-08-26T11:08:07.804Z</time>
      </trkpt>
      <trkpt lat="69.58976" lon="18.28822">
        <ele>25.190857</ele>
        <time>2020-08-26T11:08:11.842Z</time>
      </trkpt>
      <trkpt lat="69.58984" lon="18.28834">
        <ele>25.402714</ele>
        <time>2020-08-26T11:08:14.823Z</time>
      </trkpt>
      <trkpt lat="69.58993" lon="18.28848">
        <ele>25.628149</ele>
        <time>2020-08-26T11:08:17.823Z</time>
      </trkpt>
      <trkpt lat="69.59002" lon="18.28861">
        <ele>25.849958</ele>
        <time>2020-08-26T11:08:20.869Z</time>
      </trkpt>
      <trkpt lat="69.59012" lon="18.28876">
        <ele>26.103592</ele>
        <time>2020-08-26T11:08:24.823Z</time>
      </trkpt>
      <trkpt lat="69.59021" lon="18.28889">
        <ele>26.33396</ele>
        <time>2020-08-26T11:08:28.836Z</time>
      </trkpt>
      <trkpt lat="69.59031" lon="18.28904">
        <ele>26.586308</ele>
        <time>2020-08-26T11:08:33.826Z</time>
      </trkpt>
      <trkpt lat="69.59039" lon="18.28917">
        <ele>26.796114</ele>
        <time>2020-08-26T11:08:37.837Z</time>
      </trkpt>
      <trkpt lat="69.59047" lon="18.28928">
        <ele>27.001045</ele>
        <time>2020-08-26T11:08:41.840Z</time>
      </trkpt>
      <trkpt lat="69.59055" lon="18.28943">
        <ele>27.218468</ele>
        <time>2020-08-26T11:08:45.830Z</time>
      </trkpt>
      <trkpt lat="69.59064" lon="18.28954">
        <ele>27.429579</ele>
        <time>2020-08-26T11:08:49.829Z</time>
      </trkpt>
      <trkpt lat="69.59073" lon="18.28969">
        <ele>27.674289</ele>
        <time>2020-08-26T11:08:54.849Z</time>
      </trkpt>
      <trkpt lat="69.59082" lon="18.28979">
        <ele>27.885361</ele>
        <time>2020-08-26T11:08:59.827Z</time>
      </trkpt>
      <trkpt lat="69.59091" lon="18.28995">
        <ele>27.866241</ele>
        <time>2020-08-26T11:09:04.835Z</time>
      </trkpt>
      <trkpt lat="69.59101" lon="18.29009">
        <ele>27.71251</ele>
        <time>2020-08-26T11:09:08.827Z</time>
      </trkpt>
      <trkpt lat="69.59111" lon="18.2902">
        <ele>27.563152</ele>
        <time>2020-08-26T11:09:12.831Z</time>
      </trkpt>
      <trkpt lat="69.5912" lon="18.29033">
        <ele>27.409259</ele>
        <time>2020-08-26T11:09:16.816Z</time>
      </trkpt>
      <trkpt lat="69.59131" lon="18.29046">
        <ele>27.246763</ele>
        <time>2020-08-26T11:09:20.844Z</time>
      </trkpt>
      <trkpt lat="69.59139" lon="18.29055">
        <ele>27.114476</ele>
        <time>2020-08-26T11:09:23.834Z</time>
      </trkpt>
      <trkpt lat="69.59148" lon="18.29066">
        <ele>26.974057</ele>
        <time>2020-08-26T11:09:26.841Z</time>
      </trkpt>
      <trkpt lat="69.59158" lon="18.29077">
        <ele>26.828488</ele>
        <time>2020-08-26T11:09:29.823Z</time>
      </trkpt>
      <trkpt lat="69.59168" lon="18.2909">
        <ele>26.664858</ele>
        <time>2020-08-26T11:09:32.818Z</time>
      </trkpt>
      <trkpt lat="69.5918" lon="18.29104">
        <ele>26.478764</ele>
        <time>2020-08-26T11:09:35.827Z</time>
      </trkpt>
      <trkpt lat="69.59189" lon="18.29114">
        <ele>26.343253</ele>
        <time>2020-08-26T11:09:37.835Z</time>
      </trkpt>
      <trkpt lat="69.59198" lon="18.29125">
        <ele>26.196939</ele>
        <time>2020-08-26T11:09:39.832Z</time>
      </trkpt>
      <trkpt lat="69.59208" lon="18.29137">
        <ele>26.040133</ele>
        <time>2020-08-26T11:09:41.823Z</time>
      </trkpt>
      <trkpt lat="69.59219" lon="18.29151">
        <ele>25.872376</ele>
        <time>2020-08-26T11:09:43.827Z</time>
      </trkpt>
      <trkpt lat="69.5923" lon="18.29165">
        <ele>25.691815</ele>
        <time>2020-08-26T11:09:45.865Z</time>
      </trkpt>
      <trkpt lat="69.59242" lon="18.29179">
        <ele>25.508211</ele>
        <time>2020-08-26T11:09:47.835Z</time>
      </trkpt>
      <trkpt lat="69.59255" lon="18.29193">
        <ele>25.265003</ele>
        <time>2020-08-26T11:09:49.822Z</time>
      </trkpt>
      <trkpt lat="69.59268" lon="18.29209">
        <ele>24.895291</ele>
        <time>2020-08-26T11:09:51.832Z</time>
      </trkpt>
      <trkpt lat="69.59281" lon="18.29225">
        <ele>24.525148</ele>
        <time>2020-08-26T11:09:53.812Z</time>
      </trkpt>
      <trkpt lat="69.59295" lon="18.29242">
        <ele>24.143789</ele>
        <time>2020-08-26T11:09:55.827Z</time>
      </trkpt>
      <trkpt lat="69.59308" lon="18.29259">
        <ele>23.772565</ele>
        <time>2020-08-26T11:09:57.947Z</time>
      </trkpt>
      <trkpt lat="69.5932" lon="18.29276">
        <ele>23.415005</ele>
        <time>2020-08-26T11:09:59.818Z</time>
      </trkpt>
      <trkpt lat="69.59333" lon="18.2929">
        <ele>23.073836</ele>
        <time>2020-08-26T11:10:01.821Z</time>
      </trkpt>
      <trkpt lat="69.59344" lon="18.29303">
        <ele>22.771068</ele>
        <time>2020-08-26T11:10:03.836Z</time>
      </trkpt>
      <trkpt lat="69.59354" lon="18.29313">
        <ele>22.49942</ele>
        <time>2020-08-26T11:10:05.817Z</time>
      </trkpt>
      <trkpt lat="69.59363" lon="18.29323">
        <ele>22.235648</ele>
        <time>2020-08-26T11:10:07.820Z</time>
      </trkpt>
      <trkpt lat="69.59373" lon="18.29331">
        <ele>21.984191</ele>
        <time>2020-08-26T11:10:09.816Z</time>
      </trkpt>
      <trkpt lat="69.59382" lon="18.29341">
        <ele>21.728881</ele>
        <time>2020-08-26T11:10:11.816Z</time>
      </trkpt>
      <trkpt lat="69.59391" lon="18.2935">
        <ele>21.483276</ele>
        <time>2020-08-26T11:10:13.838Z</time>
      </trkpt>
      <trkpt lat="69.59403" lon="18.29362">
        <ele>21.152028</ele>
        <time>2020-08-26T11:10:16.844Z</time>
      </trkpt>
      <trkpt lat="69.59415" lon="18.29373">
        <ele>20.822649</ele>
        <time>2020-08-26T11:10:19.821Z</time>
      </trkpt>
      <trkpt lat="69.59427" lon="18.29384">
        <ele>21.080492</ele>
        <time>2020-08-26T11:10:22.809Z</time>
      </trkpt>
      <trkpt lat="69.59437" lon="18.29394">
        <ele>21.438872</ele>
        <time>2020-08-26T11:10:25.818Z</time>
      </trkpt>
      <trkpt lat="69.59448" lon="18.29403">
        <ele>21.807018</ele>
        <time>2020-08-26T11:10:28.812Z</time>
      </trkpt>
      <trkpt lat="69.59459" lon="18.29413">
        <ele>22.180862</ele>
        <time>2020-08-26T11:10:31.831Z</time>
      </trkpt>
      <trkpt lat="69.59471" lon="18.29422">
        <ele>22.598124</ele>
        <time>2020-08-26T11:10:34.816Z</time>
      </trkpt>
      <trkpt lat="69.59483" lon="18.29434">
        <ele>23.015174</ele>
        <time>2020-08-26T11:10:37.818Z</time>
      </trkpt>
      <trkpt lat="69.59495" lon="18.29445">
        <ele>23.451508</ele>
        <time>2020-08-26T11:10:40.817Z</time>
      </trkpt>
      <trkpt lat="69.59508" lon="18.29457">
        <ele>23.89347</ele>
        <time>2020-08-26T11:10:43.820Z</time>
      </trkpt>
      <trkpt lat="69.59517" lon="18.29465">
        <ele>24.199469</ele>
        <time>2020-08-26T11:10:45.832Z</time>
      </trkpt>
      <trkpt lat="69.59527" lon="18.29477">
        <ele>24.556008</ele>
        <time>2020-08-26T11:10:47.843Z</time>
      </trkpt>
      <trkpt lat="69.59536" lon="18.29486">
        <ele>24.897759</ele>
        <time>2020-08-26T11:10:49.829Z</time>
      </trkpt>
      <trkpt lat="69.59547" lon="18.29494">
        <ele>25.266811</ele>
        <time>2020-08-26T11:10:51.845Z</time>
      </trkpt>
      <trkpt lat="69.59558" lon="18.29503">
        <ele>25.640329</ele>
        <time>2020-08-26T11:10:53.817Z</time>
      </trkpt>
      <trkpt lat="69.59569" lon="18.29513">
        <ele>26.0324</ele>
        <time>2020-08-26T11:10:55.827Z</time>
      </trkpt>
      <trkpt lat="69.5958" lon="18.29523">
        <ele>26.422322</ele>
        <time>2020-08-26T11:10:57.860Z</time>
      </trkpt>
      <trkpt lat="69.59592" lon="18.29534">
        <ele>26.619771</ele>
        <time>2020-08-26T11:10:59.825Z</time>
      </trkpt>
      <trkpt lat="69.59603" lon="18.29544">
        <ele>26.101883</ele>
        <time>2020-08-26T11:11:01.816Z</time>
      </trkpt>
      <trkpt lat="69.59613" lon="18.29556">
        <ele>25.595653</ele>
        <time>2020-08-26T11:11:03.838Z</time>
      </trkpt>
      <trkpt lat="69.59624" lon="18.29565">
        <ele>25.103124</ele>
        <time>2020-08-26T11:11:05.839Z</time>
      </trkpt>
      <trkpt lat="69.59635" lon="18.29575">
        <ele>24.602122</ele>
        <time>2020-08-26T11:11:07.831Z</time>
      </trkpt>
      <trkpt lat="69.59645" lon="18.29585">
        <ele>24.103229</ele>
        <time>2020-08-26T11:11:09.824Z</time>
      </trkpt>
      <trkpt lat="69.59655" lon="18.29596">
        <ele>23.624634</ele>
        <time>2020-08-26T11:11:11.831Z</time>
      </trkpt>
      <trkpt lat="69.59665" lon="18.29608">
        <ele>23.153258</ele>
        <time>2020-08-26T11:11:13.823Z</time>
      </trkpt>
      <trkpt lat="69.59675" lon="18.29621">
        <ele>22.678417</ele>
        <time>2020-08-26T11:11:15.878Z</time>
      </trkpt>
      <trkpt lat="69.59684" lon="18.29634">
        <ele>22.226934</ele>
        <time>2020-08-26T11:11:17.838Z</time>
      </trkpt>
      <trkpt lat="69.59693" lon="18.29648">
        <ele>21.774508</ele>
        <time>2020-08-26T11:11:19.828Z</time>
      </trkpt>
      <trkpt lat="69.59702" lon="18.29662">
        <ele>21.330567</ele>
        <time>2020-08-26T11:11:21.831Z</time>
      </trkpt>
      <trkpt lat="69.5971" lon="18.29676">
        <ele>20.893534</ele>
        <time>2020-08-26T11:11:23.822Z</time>
      </trkpt>
      <trkpt lat="69.59718" lon="18.29691">
        <ele>20.480878</ele>
        <time>2020-08-26T11:11:25.830Z</time>
      </trkpt>
      <trkpt lat="69.59726" lon="18.29703">
        <ele>20.071906</ele>
        <time>2020-08-26T11:11:27.821Z</time>
      </trkpt>
      <trkpt lat="69.59735" lon="18.29716">
        <ele>19.634681</ele>
        <time>2020-08-26T11:11:29.832Z</time>
      </trkpt>
      <trkpt lat="69.59743" lon="18.29728">
        <ele>19.217106</ele>
        <time>2020-08-26T11:11:31.835Z</time>
      </trkpt>
      <trkpt lat="69.59752" lon="18.29742">
        <ele>18.784694</ele>
        <time>2020-08-26T11:11:33.833Z</time>
      </trkpt>
      <trkpt lat="69.59764" lon="18.29762">
        <ele>18.269917</ele>
        <time>2020-08-26T11:11:36.852Z</time>
      </trkpt>
      <trkpt lat="69.59771" lon="18.29777">
        <ele>17.925434</ele>
        <time>2020-08-26T11:11:38.825Z</time>
      </trkpt>
      <trkpt lat="69.5978" lon="18.29793">
        <ele>17.548234</ele>
        <time>2020-08-26T11:11:40.823Z</time>
      </trkpt>
      <trkpt lat="69.59789" lon="18.29808">
        <ele>17.170965</ele>
        <time>2020-08-26T11:11:42.874Z</time>
      </trkpt>
      <trkpt lat="69.59797" lon="18.29823">
        <ele>16.796866</ele>
        <time>2020-08-26T11:11:44.832Z</time>
      </trkpt>
      <trkpt lat="69.59806" lon="18.29837">
        <ele>16.429266</ele>
        <time>2020-08-26T11:11:46.880Z</time>
      </trkpt>
      <trkpt lat="69.59814" lon="18.29849">
        <ele>16.07309</ele>
        <time>2020-08-26T11:11:48.818Z</time>
      </trkpt>
      <trkpt lat="69.59826" lon="18.29869">
        <ele>15.592854</ele>
        <time>2020-08-26T11:11:51.849Z</time>
      </trkpt>
      <trkpt lat="69.59837" lon="18.29887">
        <ele>15.115912</ele>
        <time>2020-08-26T11:11:54.819Z</time>
      </trkpt>
      <trkpt lat="69.59845" lon="18.299">
        <ele>14.778009</ele>
        <time>2020-08-26T11:11:56.827Z</time>
      </trkpt>
      <trkpt lat="69.59853" lon="18.29913">
        <ele>14.422728</ele>
        <time>2020-08-26T11:11:58.844Z</time>
      </trkpt>
      <trkpt lat="69.59861" lon="18.29927">
        <ele>14.077099</ele>
        <time>2020-08-26T11:12:00.850Z</time>
      </trkpt>
      <trkpt lat="69.59873" lon="18.29945">
        <ele>13.581436</ele>
        <time>2020-08-26T11:12:03.852Z</time>
      </trkpt>
      <trkpt lat="69.59885" lon="18.29962">
        <ele>13.087716</ele>
        <time>2020-08-26T11:12:06.834Z</time>
      </trkpt>
      <trkpt lat="69.59897" lon="18.29977">
        <ele>12.597842</ele>
        <time>2020-08-26T11:12:09.837Z</time>
      </trkpt>
      <trkpt lat="69.59906" lon="18.29991">
        <ele>12.218337</ele>
        <time>2020-08-26T11:12:11.829Z</time>
      </trkpt>
      <trkpt lat="69.59915" lon="18.30001">
        <ele>12.552444</ele>
        <time>2020-08-26T11:12:13.825Z</time>
      </trkpt>
      <trkpt lat="69.59924" lon="18.3001">
        <ele>13.231881</ele>
        <time>2020-08-26T11:12:15.831Z</time>
      </trkpt>
      <trkpt lat="69.59933" lon="18.30016">
        <ele>13.898023</ele>
        <time>2020-08-26T11:12:17.839Z</time>
      </trkpt>
      <trkpt lat="69.59943" lon="18.30024">
        <ele>14.619717</ele>
        <time>2020-08-26T11:12:19.833Z</time>
      </trkpt>
      <trkpt lat="69.59953" lon="18.30033">
        <ele>15.370732</ele>
        <time>2020-08-26T11:12:21.824Z</time>
      </trkpt>
      <trkpt lat="69.59962" lon="18.3004">
        <ele>16.073327</ele>
        <time>2020-08-26T11:12:23.858Z</time>
      </trkpt>
      <trkpt lat="69.59972" lon="18.30045">
        <ele>16.811626</ele>
        <time>2020-08-26T11:12:25.850Z</time>
      </trkpt>
      <trkpt lat="69.59982" lon="18.30049">
        <ele>17.523461</ele>
        <time>2020-08-26T11:12:27.812Z</time>
      </trkpt>
      <trkpt lat="69.59991" lon="18.30051">
        <ele>18.200741</ele>
        <time>2020-08-26T11:12:29.837Z</time>
      </trkpt>
      <trkpt lat="69.60003" lon="18.30054">
        <ele>19.111427</ele>
        <time>2020-08-26T11:12:32.821Z</time>
      </trkpt>
      <trkpt lat="69.60016" lon="18.30055">
        <ele>20.004599</ele>
        <time>2020-08-26T11:12:35.840Z</time>
      </trkpt>
      <trkpt lat="69.60028" lon="18.30057">
        <ele>20.906276</ele>
        <time>2020-08-26T11:12:38.813Z</time>
      </trkpt>
      <trkpt lat="69.60041" lon="18.30063">
        <ele>21.835724</ele>
        <time>2020-08-26T11:12:41.853Z</time>
      </trkpt>
      <trkpt lat="69.60054" lon="18.30072">
        <ele>22.811951</ele>
        <time>2020-08-26T11:12:44.829Z</time>
      </trkpt>
      <trkpt lat="69.60063" lon="18.30079">
        <ele>23.495959</ele>
        <time>2020-08-26T11:12:46.832Z</time>
      </trkpt>
      <trkpt lat="69.60072" lon="18.30083">
        <ele>24.193431</ele>
        <time>2020-08-26T11:12:48.832Z</time>
      </trkpt>
      <trkpt lat="69.60082" lon="18.30088">
        <ele>24.914384</ele>
        <time>2020-08-26T11:12:50.836Z</time>
      </trkpt>
      <trkpt lat="69.60095" lon="18.30094">
        <ele>25.195222</ele>
        <time>2020-08-26T11:12:53.841Z</time>
      </trkpt>
      <trkpt lat="69.60105" lon="18.301">
        <ele>25.249893</ele>
        <time>2020-08-26T11:12:55.819Z</time>
      </trkpt>
      <trkpt lat="69.60114" lon="18.30105">
        <ele>25.304149</ele>
        <time>2020-08-26T11:12:57.827Z</time>
      </trkpt>
      <trkpt lat="69.60124" lon="18.3011">
        <ele>25.360223</ele>
        <time>2020-08-26T11:12:59.857Z</time>
      </trkpt>
      <trkpt lat="69.60134" lon="18.30115">
        <ele>25.414837</ele>
        <time>2020-08-26T11:13:01.831Z</time>
      </trkpt>
      <trkpt lat="69.60143" lon="18.30118">
        <ele>25.467556</ele>
        <time>2020-08-26T11:13:03.874Z</time>
      </trkpt>
      <trkpt lat="69.60153" lon="18.30123">
        <ele>25.519658</ele>
        <time>2020-08-26T11:13:05.855Z</time>
      </trkpt>
      <trkpt lat="69.60162" lon="18.30127">
        <ele>25.569878</ele>
        <time>2020-08-26T11:13:07.855Z</time>
      </trkpt>
      <trkpt lat="69.60175" lon="18.30133">
        <ele>25.644043</ele>
        <time>2020-08-26T11:13:10.836Z</time>
      </trkpt>
      <trkpt lat="69.60187" lon="18.3014">
        <ele>25.715493</ele>
        <time>2020-08-26T11:13:13.824Z</time>
      </trkpt>
      <trkpt lat="69.60196" lon="18.30146">
        <ele>25.765079</ele>
        <time>2020-08-26T11:13:15.822Z</time>
      </trkpt>
      <trkpt lat="69.60208" lon="18.30159">
        <ele>25.835932</ele>
        <time>2020-08-26T11:13:18.833Z</time>
      </trkpt>
      <trkpt lat="69.6022" lon="18.30172">
        <ele>25.905469</ele>
        <time>2020-08-26T11:13:21.847Z</time>
      </trkpt>
      <trkpt lat="69.60231" lon="18.30186">
        <ele>25.975133</ele>
        <time>2020-08-26T11:13:24.859Z</time>
      </trkpt>
      <trkpt lat="69.60243" lon="18.30204">
        <ele>26.050619</ele>
        <time>2020-08-26T11:13:27.828Z</time>
      </trkpt>
      <trkpt lat="69.60252" lon="18.30216">
        <ele>26.107202</ele>
        <time>2020-08-26T11:13:29.860Z</time>
      </trkpt>
      <trkpt lat="69.60261" lon="18.30227">
        <ele>26.317145</ele>
        <time>2020-08-26T11:13:31.828Z</time>
      </trkpt>
      <trkpt lat="69.6027" lon="18.30239">
        <ele>26.791239</ele>
        <time>2020-08-26T11:13:33.869Z</time>
      </trkpt>
      <trkpt lat="69.60282" lon="18.30253">
        <ele>27.379478</ele>
        <time>2020-08-26T11:13:36.825Z</time>
      </trkpt>
      <trkpt lat="69.60291" lon="18.30259">
        <ele>27.830393</ele>
        <time>2020-08-26T11:13:39.821Z</time>
      </trkpt>
      <trkpt lat="69.60301" lon="18.30264">
        <ele>28.296963</ele>
        <time>2020-08-26T11:13:42.826Z</time>
      </trkpt>
      <trkpt lat="69.6031" lon="18.30268">
        <ele>28.734127</ele>
        <time>2020-08-26T11:13:45.835Z</time>
      </trkpt>
      <trkpt lat="69.60319" lon="18.30274">
        <ele>29.174393</ele>
        <time>2020-08-26T11:13:48.845Z</time>
      </trkpt>
      <trkpt lat="69.6033" lon="18.30276">
        <ele>29.691815</ele>
        <time>2020-08-26T11:13:52.846Z</time>
      </trkpt>
      <trkpt lat="69.6034" lon="18.3028">
        <ele>30.160438</ele>
        <time>2020-08-26T11:13:56.853Z</time>
      </trkpt>
      <trkpt lat="69.6035" lon="18.30285">
        <ele>30.637517</ele>
        <time>2020-08-26T11:14:00.831Z</time>
      </trkpt>
      <trkpt lat="69.6036" lon="18.30286">
        <ele>31.134784</ele>
        <time>2020-08-26T11:14:04.820Z</time>
      </trkpt>
      <trkpt lat="69.6037" lon="18.30288">
        <ele>31.613579</ele>
        <time>2020-08-26T11:14:08.838Z</time>
      </trkpt>
      <trkpt lat="69.60382" lon="18.30288">
        <ele>32.158052</ele>
        <time>2020-08-26T11:14:12.835Z</time>
      </trkpt>
      <trkpt lat="69.60392" lon="18.30291">
        <ele>32.65242</ele>
        <time>2020-08-26T11:14:15.844Z</time>
      </trkpt>
      <trkpt lat="69.60404" lon="18.30293">
        <ele>33.236305</ele>
        <time>2020-08-26T11:14:18.830Z</time>
      </trkpt>
      <trkpt lat="69.60417" lon="18.30297">
        <ele>33.845029</ele>
        <time>2020-08-26T11:14:21.835Z</time>
      </trkpt>
      <trkpt lat="69.6043" lon="18.303">
        <ele>34.477172</ele>
        <time>2020-08-26T11:14:24.816Z</time>
      </trkpt>
      <trkpt lat="69.60439" lon="18.30304">
        <ele>34.447069</ele>
        <time>2020-08-26T11:14:26.832Z</time>
      </trkpt>
      <trkpt lat="69.60449" lon="18.30308">
        <ele>34.076759</ele>
        <time>2020-08-26T11:14:28.821Z</time>
      </trkpt>
      <trkpt lat="69.60458" lon="18.30312">
        <ele>33.687555</ele>
        <time>2020-08-26T11:14:30.858Z</time>
      </trkpt>
      <trkpt lat="69.60468" lon="18.30317">
        <ele>33.297634</ele>
        <time>2020-08-26T11:14:32.843Z</time>
      </trkpt>
      <trkpt lat="69.60477" lon="18.30326">
        <ele>32.905631</ele>
        <time>2020-08-26T11:14:34.851Z</time>
      </trkpt>
      <trkpt lat="69.60487" lon="18.30332">
        <ele>32.518432</ele>
        <time>2020-08-26T11:14:36.823Z</time>
      </trkpt>
      <trkpt lat="69.60496" lon="18.30338">
        <ele>32.146742</ele>
        <time>2020-08-26T11:14:38.842Z</time>
      </trkpt>
      <trkpt lat="69.60505" lon="18.30346">
        <ele>31.752952</ele>
        <time>2020-08-26T11:14:40.834Z</time>
      </trkpt>
      <trkpt lat="69.60515" lon="18.30355">
        <ele>31.35968</ele>
        <time>2020-08-26T11:14:42.858Z</time>
      </trkpt>
      <trkpt lat="69.60524" lon="18.30365">
        <ele>30.963682</ele>
        <time>2020-08-26T11:14:44.824Z</time>
      </trkpt>
      <trkpt lat="69.60534" lon="18.30375">
        <ele>30.559756</ele>
        <time>2020-08-26T11:14:46.857Z</time>
      </trkpt>
      <trkpt lat="69.60543" lon="18.30384">
        <ele>30.174907</ele>
        <time>2020-08-26T11:14:48.832Z</time>
      </trkpt>
      <trkpt lat="69.60552" lon="18.30393">
        <ele>29.80425</ele>
        <time>2020-08-26T11:14:50.836Z</time>
      </trkpt>
      <trkpt lat="69.60564" lon="18.30405">
        <ele>29.290839</ele>
        <time>2020-08-26T11:14:53.817Z</time>
      </trkpt>
      <trkpt lat="69.60576" lon="18.30419">
        <ele>28.777162</ele>
        <time>2020-08-26T11:14:56.818Z</time>
      </trkpt>
      <trkpt lat="69.60584" lon="18.30431">
        <ele>28.396001</ele>
        <time>2020-08-26T11:14:58.833Z</time>
      </trkpt>
      <trkpt lat="69.60592" lon="18.30444">
        <ele>28.034475</ele>
        <time>2020-08-26T11:15:00.842Z</time>
      </trkpt>
      <trkpt lat="69.60601" lon="18.30457">
        <ele>27.650064</ele>
        <time>2020-08-26T11:15:02.829Z</time>
      </trkpt>
      <trkpt lat="69.60609" lon="18.3047">
        <ele>27.148707</ele>
        <time>2020-08-26T11:15:04.831Z</time>
      </trkpt>
      <trkpt lat="69.60618" lon="18.30483">
        <ele>26.574657</ele>
        <time>2020-08-26T11:15:06.831Z</time>
      </trkpt>
      <trkpt lat="69.60627" lon="18.30496">
        <ele>25.988519</ele>
        <time>2020-08-26T11:15:08.843Z</time>
      </trkpt>
      <trkpt lat="69.60636" lon="18.30508">
        <ele>25.442248</ele>
        <time>2020-08-26T11:15:10.827Z</time>
      </trkpt>
      <trkpt lat="69.60645" lon="18.30522">
        <ele>24.863608</ele>
        <time>2020-08-26T11:15:12.827Z</time>
      </trkpt>
      <trkpt lat="69.60654" lon="18.30534">
        <ele>24.255007</ele>
        <time>2020-08-26T11:15:14.820Z</time>
      </trkpt>
      <trkpt lat="69.60664" lon="18.30548">
        <ele>23.653155</ele>
        <time>2020-08-26T11:15:16.856Z</time>
      </trkpt>
      <trkpt lat="69.60673" lon="18.30561">
        <ele>23.039419</ele>
        <time>2020-08-26T11:15:18.819Z</time>
      </trkpt>
      <trkpt lat="69.60683" lon="18.30575">
        <ele>22.437795</ele>
        <time>2020-08-26T11:15:20.820Z</time>
      </trkpt>
      <trkpt lat="69.60693" lon="18.3059">
        <ele>21.796448</ele>
        <time>2020-08-26T11:15:22.852Z</time>
      </trkpt>
      <trkpt lat="69.60703" lon="18.30606">
        <ele>21.137285</ele>
        <time>2020-08-26T11:15:24.827Z</time>
      </trkpt>
      <trkpt lat="69.60712" lon="18.3062">
        <ele>20.534913</ele>
        <time>2020-08-26T11:15:26.837Z</time>
      </trkpt>
      <trkpt lat="69.60721" lon="18.30634">
        <ele>19.918229</ele>
        <time>2020-08-26T11:15:28.833Z</time>
      </trkpt>
      <trkpt lat="69.6073" lon="18.30648">
        <ele>19.345623</ele>
        <time>2020-08-26T11:15:30.872Z</time>
      </trkpt>
      <trkpt lat="69.60739" lon="18.30661">
        <ele>18.776209</ele>
        <time>2020-08-26T11:15:32.839Z</time>
      </trkpt>
      <trkpt lat="69.60747" lon="18.30676">
        <ele>18.214682</ele>
        <time>2020-08-26T11:15:34.836Z</time>
      </trkpt>
      <trkpt lat="69.60755" lon="18.3069">
        <ele>17.665358</ele>
        <time>2020-08-26T11:15:36.830Z</time>
      </trkpt>
      <trkpt lat="69.60766" lon="18.30711">
        <ele>17.241188</ele>
        <time>2020-08-26T11:15:39.875Z</time>
      </trkpt>
      <trkpt lat="69.60774" lon="18.30726">
        <ele>17.448753</ele>
        <time>2020-08-26T11:15:41.869Z</time>
      </trkpt>
      <trkpt lat="69.60785" lon="18.30747">
        <ele>17.746615</ele>
        <time>2020-08-26T11:15:44.873Z</time>
      </trkpt>
      <trkpt lat="69.60792" lon="18.30764">
        <ele>17.966283</ele>
        <time>2020-08-26T11:15:46.820Z</time>
      </trkpt>
      <trkpt lat="69.608" lon="18.30782">
        <ele>18.190015</ele>
        <time>2020-08-26T11:15:48.863Z</time>
      </trkpt>
      <trkpt lat="69.60807" lon="18.308">
        <ele>18.412417</ele>
        <time>2020-08-26T11:15:50.856Z</time>
      </trkpt>
      <trkpt lat="69.60814" lon="18.30818">
        <ele>18.618017</ele>
        <time>2020-08-26T11:15:52.897Z</time>
      </trkpt>
      <trkpt lat="69.60824" lon="18.30846">
        <ele>18.930194</ele>
        <time>2020-08-26T11:15:55.831Z</time>
      </trkpt>
      <trkpt lat="69.6083" lon="18.30866">
        <ele>19.143993</ele>
        <time>2020-08-26T11:15:57.822Z</time>
      </trkpt>
      <trkpt lat="69.60836" lon="18.30888">
        <ele>19.360161</ele>
        <time>2020-08-26T11:15:59.853Z</time>
      </trkpt>
      <trkpt lat="69.60841" lon="18.3091">
        <ele>19.577511</ele>
        <time>2020-08-26T11:16:01.846Z</time>
      </trkpt>
      <trkpt lat="69.60846" lon="18.30934">
        <ele>19.79343</ele>
        <time>2020-08-26T11:16:03.880Z</time>
      </trkpt>
      <trkpt lat="69.6085" lon="18.3096">
        <ele>20.020059</ele>
        <time>2020-08-26T11:16:05.845Z</time>
      </trkpt>
      <trkpt lat="69.60853" lon="18.30985">
        <ele>20.230675</ele>
        <time>2020-08-26T11:16:07.845Z</time>
      </trkpt>
      <trkpt lat="69.60857" lon="18.31011">
        <ele>20.446588</ele>
        <time>2020-08-26T11:16:09.854Z</time>
      </trkpt>
      <trkpt lat="69.6086" lon="18.31038">
        <ele>20.673816</ele>
        <time>2020-08-26T11:16:11.883Z</time>
      </trkpt>
      <trkpt lat="69.60863" lon="18.31066">
        <ele>20.913617</ele>
        <time>2020-08-26T11:16:13.828Z</time>
      </trkpt>
      <trkpt lat="69.60867" lon="18.31094">
        <ele>21.149769</ele>
        <time>2020-08-26T11:16:15.830Z</time>
      </trkpt>
      <trkpt lat="69.60872" lon="18.31122">
        <ele>21.46344</ele>
        <time>2020-08-26T11:16:17.832Z</time>
      </trkpt>
      <trkpt lat="69.60877" lon="18.31153">
        <ele>21.840279</ele>
        <time>2020-08-26T11:16:19.833Z</time>
      </trkpt>
      <trkpt lat="69.6088" lon="18.31181">
        <ele>22.181662</ele>
        <time>2020-08-26T11:16:21.848Z</time>
      </trkpt>
      <trkpt lat="69.60884" lon="18.3121">
        <ele>22.536069</ele>
        <time>2020-08-26T11:16:23.830Z</time>
      </trkpt>
      <trkpt lat="69.60888" lon="18.31238">
        <ele>22.867709</ele>
        <time>2020-08-26T11:16:25.855Z</time>
      </trkpt>
      <trkpt lat="69.60891" lon="18.31268">
        <ele>23.22358</ele>
        <time>2020-08-26T11:16:27.864Z</time>
      </trkpt>
      <trkpt lat="69.60895" lon="18.31303">
        <ele>23.644801</ele>
        <time>2020-08-26T11:16:29.849Z</time>
      </trkpt>
      <trkpt lat="69.60899" lon="18.31337">
        <ele>24.049021</ele>
        <time>2020-08-26T11:16:31.840Z</time>
      </trkpt>
      <trkpt lat="69.60904" lon="18.31368">
        <ele>24.430999</ele>
        <time>2020-08-26T11:16:33.869Z</time>
      </trkpt>
      <trkpt lat="69.60908" lon="18.314">
        <ele>24.813777</ele>
        <time>2020-08-26T11:16:35.872Z</time>
      </trkpt>
      <trkpt lat="69.60912" lon="18.31431">
        <ele>25.192602</ele>
        <time>2020-08-26T11:16:37.830Z</time>
      </trkpt>
      <trkpt lat="69.60916" lon="18.31461">
        <ele>25.55106</ele>
        <time>2020-08-26T11:16:39.827Z</time>
      </trkpt>
      <trkpt lat="69.6092" lon="18.3149">
        <ele>25.894453</ele>
        <time>2020-08-26T11:16:41.844Z</time>
      </trkpt>
      <trkpt lat="69.60923" lon="18.31515">
        <ele>26.203698</ele>
        <time>2020-08-26T11:16:43.834Z</time>
      </trkpt>
      <trkpt lat="69.60927" lon="18.3155">
        <ele>26.617381</ele>
        <time>2020-08-26T11:16:46.890Z</time>
      </trkpt>
      <trkpt lat="69.60931" lon="18.3158">
        <ele>26.978997</ele>
        <time>2020-08-26T11:16:49.836Z</time>
      </trkpt>
      <trkpt lat="69.60935" lon="18.31608">
        <ele>27.200569</ele>
        <time>2020-08-26T11:16:52.835Z</time>
      </trkpt>
      <trkpt lat="69.60938" lon="18.31636">
        <ele>27.379871</ele>
        <time>2020-08-26T11:16:55.833Z</time>
      </trkpt>
      <trkpt lat="69.60941" lon="18.31661">
        <ele>27.545996</ele>
        <time>2020-08-26T11:16:58.900Z</time>
      </trkpt>
      <trkpt lat="69.60946" lon="18.31692">
        <ele>27.755989</ele>
        <time>2020-08-26T11:17:02.842Z</time>
      </trkpt>
      <trkpt lat="69.60949" lon="18.31719">
        <ele>27.926146</ele>
        <time>2020-08-26T11:17:05.830Z</time>
      </trkpt>
      <trkpt lat="69.60951" lon="18.31744">
        <ele>28.088328</ele>
        <time>2020-08-26T11:17:08.819Z</time>
      </trkpt>
      <trkpt lat="69.60954" lon="18.31773">
        <ele>28.270994</ele>
        <time>2020-08-26T11:17:11.832Z</time>
      </trkpt>
      <trkpt lat="69.60957" lon="18.31804">
        <ele>28.469559</ele>
        <time>2020-08-26T11:17:14.852Z</time>
      </trkpt>
      <trkpt lat="69.6096" lon="18.31837">
        <ele>28.679338</ele>
        <time>2020-08-26T11:17:17.817Z</time>
      </trkpt>
      <trkpt lat="69.60963" lon="18.3187">
        <ele>28.890409</ele>
        <time>2020-08-26T11:17:20.836Z</time>
      </trkpt>
      <trkpt lat="69.60966" lon="18.31903">
        <ele>29.099356</ele>
        <time>2020-08-26T11:17:23.826Z</time>
      </trkpt>
      <trkpt lat="69.60968" lon="18.31936">
        <ele>29.303865</ele>
        <time>2020-08-26T11:17:26.824Z</time>
      </trkpt>
      <trkpt lat="69.60972" lon="18.3197">
        <ele>29.522148</ele>
        <time>2020-08-26T11:17:29.836Z</time>
      </trkpt>
      <trkpt lat="69.60976" lon="18.32006">
        <ele>29.753743</ele>
        <time>2020-08-26T11:17:32.869Z</time>
      </trkpt>
      <trkpt lat="69.60979" lon="18.32033">
        <ele>29.929558</ele>
        <time>2020-08-26T11:17:34.833Z</time>
      </trkpt>
      <trkpt lat="69.60983" lon="18.32061">
        <ele>30.115241</ele>
        <time>2020-08-26T11:17:36.841Z</time>
      </trkpt>
      <trkpt lat="69.60987" lon="18.32093">
        <ele>29.996532</ele>
        <time>2020-08-26T11:17:38.834Z</time>
      </trkpt>
      <trkpt lat="69.60991" lon="18.32125">
        <ele>29.480015</ele>
        <time>2020-08-26T11:17:40.840Z</time>
      </trkpt>
      <trkpt lat="69.60995" lon="18.32158">
        <ele>28.938925</ele>
        <time>2020-08-26T11:17:42.839Z</time>
      </trkpt>
      <trkpt lat="69.60999" lon="18.32194">
        <ele>28.359898</ele>
        <time>2020-08-26T11:17:44.839Z</time>
      </trkpt>
      <trkpt lat="69.61002" lon="18.32231">
        <ele>27.788488</ele>
        <time>2020-08-26T11:17:46.835Z</time>
      </trkpt>
      <trkpt lat="69.61005" lon="18.3227">
        <ele>27.16734</ele>
        <time>2020-08-26T11:17:48.872Z</time>
      </trkpt>
      <trkpt lat="69.61009" lon="18.3231">
        <ele>26.536922</ele>
        <time>2020-08-26T11:17:50.821Z</time>
      </trkpt>
      <trkpt lat="69.61013" lon="18.32348">
        <ele>25.931513</ele>
        <time>2020-08-26T11:17:52.880Z</time>
      </trkpt>
      <trkpt lat="69.61017" lon="18.32384">
        <ele>25.34857</ele>
        <time>2020-08-26T11:17:54.827Z</time>
      </trkpt>
      <trkpt lat="69.61021" lon="18.32421">
        <ele>24.768533</ele>
        <time>2020-08-26T11:17:56.827Z</time>
      </trkpt>
      <trkpt lat="69.61025" lon="18.32455">
        <ele>24.205925</ele>
        <time>2020-08-26T11:17:58.832Z</time>
      </trkpt>
      <trkpt lat="69.6103" lon="18.3249">
        <ele>23.624967</ele>
        <time>2020-08-26T11:18:00.842Z</time>
      </trkpt>
      <trkpt lat="69.61036" lon="18.32526">
        <ele>23.025486</ele>
        <time>2020-08-26T11:18:02.828Z</time>
      </trkpt>
      <trkpt lat="69.61042" lon="18.32559">
        <ele>22.45615</ele>
        <time>2020-08-26T11:18:04.874Z</time>
      </trkpt>
      <trkpt lat="69.61048" lon="18.32589">
        <ele>22.47977</ele>
        <time>2020-08-26T11:18:06.835Z</time>
      </trkpt>
      <trkpt lat="69.61054" lon="18.32617">
        <ele>22.646815</ele>
        <time>2020-08-26T11:18:08.826Z</time>
      </trkpt>
      <trkpt lat="69.6106" lon="18.32641">
        <ele>22.79168</ele>
        <time>2020-08-26T11:18:10.848Z</time>
      </trkpt>
      <trkpt lat="69.61067" lon="18.32668">
        <ele>22.96157</ele>
        <time>2020-08-26T11:18:13.835Z</time>
      </trkpt>
      <trkpt lat="69.61072" lon="18.32691">
        <ele>23.105189</ele>
        <time>2020-08-26T11:18:16.827Z</time>
      </trkpt>
      <trkpt lat="69.61077" lon="18.32715">
        <ele>23.249121</ele>
        <time>2020-08-26T11:18:19.851Z</time>
      </trkpt>
      <trkpt lat="69.61082" lon="18.32738">
        <ele>23.388301</ele>
        <time>2020-08-26T11:18:22.840Z</time>
      </trkpt>
      <trkpt lat="69.61088" lon="18.32763">
        <ele>23.539006</ele>
        <time>2020-08-26T11:18:25.827Z</time>
      </trkpt>
      <trkpt lat="69.61094" lon="18.32786">
        <ele>23.685969</ele>
        <time>2020-08-26T11:18:28.824Z</time>
      </trkpt>
      <trkpt lat="69.61099" lon="18.32809">
        <ele>23.82301</ele>
        <time>2020-08-26T11:18:31.829Z</time>
      </trkpt>
      <trkpt lat="69.61105" lon="18.32832">
        <ele>23.964545</ele>
        <time>2020-08-26T11:18:34.832Z</time>
      </trkpt>
      <trkpt lat="69.6111" lon="18.32855">
        <ele>24.102317</ele>
        <time>2020-08-26T11:18:37.857Z</time>
      </trkpt>
      <trkpt lat="69.61115" lon="18.32879">
        <ele>24.246842</ele>
        <time>2020-08-26T11:18:40.825Z</time>
      </trkpt>
      <trkpt lat="69.6112" lon="18.32906">
        <ele>24.401869</ele>
        <time>2020-08-26T11:18:43.835Z</time>
      </trkpt>
      <trkpt lat="69.61126" lon="18.32932">
        <ele>24.559789</ele>
        <time>2020-08-26T11:18:46.857Z</time>
      </trkpt>
      <trkpt lat="69.61131" lon="18.32959">
        <ele>24.712688</ele>
        <time>2020-08-26T11:18:49.822Z</time>
      </trkpt>
      <trkpt lat="69.61136" lon="18.32988">
        <ele>24.880331</ele>
        <time>2020-08-26T11:18:52.837Z</time>
      </trkpt>
      <trkpt lat="69.61141" lon="18.33019">
        <ele>25.026993</ele>
        <time>2020-08-26T11:18:55.829Z</time>
      </trkpt>
      <trkpt lat="69.61146" lon="18.33048">
        <ele>25.146511</ele>
        <time>2020-08-26T11:18:58.844Z</time>
      </trkpt>
      <trkpt lat="69.61151" lon="18.33078">
        <ele>25.274747</ele>
        <time>2020-08-26T11:19:01.832Z</time>
      </trkpt>
      <trkpt lat="69.61157" lon="18.33107">
        <ele>25.400143</ele>
        <time>2020-08-26T11:19:04.836Z</time>
      </trkpt>
      <trkpt lat="69.61164" lon="18.33136">
        <ele>25.531973</ele>
        <time>2020-08-26T11:19:07.825Z</time>
      </trkpt>
      <trkpt lat="69.61171" lon="18.33165">
        <ele>25.66591</ele>
        <time>2020-08-26T11:19:10.825Z</time>
      </trkpt>
      <trkpt lat="69.61176" lon="18.33198">
        <ele>25.798773</ele>
        <time>2020-08-26T11:19:13.830Z</time>
      </trkpt>
      <trkpt lat="69.61181" lon="18.33229">
        <ele>25.925427</ele>
        <time>2020-08-26T11:19:16.853Z</time>
      </trkpt>
      <trkpt lat="69.61186" lon="18.33261">
        <ele>26.05795</ele>
        <time>2020-08-26T11:19:19.869Z</time>
      </trkpt>
      <trkpt lat="69.61193" lon="18.33293">
        <ele>26.20213</ele>
        <time>2020-08-26T11:19:22.822Z</time>
      </trkpt>
      <trkpt lat="69.61201" lon="18.33323">
        <ele>26.339118</ele>
        <time>2020-08-26T11:19:25.813Z</time>
      </trkpt>
      <trkpt lat="69.61207" lon="18.33349">
        <ele>26.457073</ele>
        <time>2020-08-26T11:19:28.830Z</time>
      </trkpt>
      <trkpt lat="69.61214" lon="18.33375">
        <ele>26.579079</ele>
        <time>2020-08-26T11:19:31.843Z</time>
      </trkpt>
      <trkpt lat="69.61221" lon="18.33402">
        <ele>26.702246</ele>
        <time>2020-08-26T11:19:34.830Z</time>
      </trkpt>
      <trkpt lat="69.61228" lon="18.33432">
        <ele>26.840778</ele>
        <time>2020-08-26T11:19:37.828Z</time>
      </trkpt>
      <trkpt lat="69.61235" lon="18.33459">
        <ele>27.031849</ele>
        <time>2020-08-26T11:19:40.831Z</time>
      </trkpt>
      <trkpt lat="69.61242" lon="18.3348">
        <ele>27.234779</ele>
        <time>2020-08-26T11:19:43.819Z</time>
      </trkpt>
      <trkpt lat="69.6125" lon="18.33507">
        <ele>27.494845</ele>
        <time>2020-08-26T11:19:46.813Z</time>
      </trkpt>
      <trkpt lat="69.61256" lon="18.33528">
        <ele>27.687021</ele>
        <time>2020-08-26T11:19:48.850Z</time>
      </trkpt>
      <trkpt lat="69.61263" lon="18.33551">
        <ele>27.904024</ele>
        <time>2020-08-26T11:19:50.853Z</time>
      </trkpt>
      <trkpt lat="69.61271" lon="18.33576">
        <ele>28.14409</ele>
        <time>2020-08-26T11:19:52.827Z</time>
      </trkpt>
      <trkpt lat="69.61279" lon="18.33599">
        <ele>28.371985</ele>
        <time>2020-08-26T11:19:54.838Z</time>
      </trkpt>
      <trkpt lat="69.61287" lon="18.33623">
        <ele>28.601428</ele>
        <time>2020-08-26T11:19:56.849Z</time>
      </trkpt>
      <trkpt lat="69.61294" lon="18.33646">
        <ele>28.825912</ele>
        <time>2020-08-26T11:19:58.817Z</time>
      </trkpt>
      <trkpt lat="69.61302" lon="18.3367">
        <ele>29.054404</ele>
        <time>2020-08-26T11:20:00.833Z</time>
      </trkpt>
      <trkpt lat="69.6131" lon="18.33694">
        <ele>29.294373</ele>
        <time>2020-08-26T11:20:02.837Z</time>
      </trkpt>
      <trkpt lat="69.61319" lon="18.3372">
        <ele>29.548659</ele>
        <time>2020-08-26T11:20:04.858Z</time>
      </trkpt>
      <trkpt lat="69.61327" lon="18.33748">
        <ele>29.814361</ele>
        <time>2020-08-26T11:20:06.824Z</time>
      </trkpt>
      <trkpt lat="69.61335" lon="18.33773">
        <ele>30.050088</ele>
        <time>2020-08-26T11:20:08.842Z</time>
      </trkpt>
      <trkpt lat="69.61342" lon="18.33797">
        <ele>30.275101</ele>
        <time>2020-08-26T11:20:10.828Z</time>
      </trkpt>
      <trkpt lat="69.61351" lon="18.33821">
        <ele>30.517443</ele>
        <time>2020-08-26T11:20:12.833Z</time>
      </trkpt>
      <trkpt lat="69.61359" lon="18.33844">
        <ele>30.469869</ele>
        <time>2020-08-26T11:20:14.836Z</time>
      </trkpt>
      <trkpt lat="69.61367" lon="18.33868">
        <ele>30.364471</ele>
        <time>2020-08-26T11:20:16.837Z</time>
      </trkpt>
      <trkpt lat="69.61375" lon="18.33898">
        <ele>30.247367</ele>
        <time>2020-08-26T11:20:18.819Z</time>
      </trkpt>
      <trkpt lat="69.61384" lon="18.33924">
        <ele>30.133087</ele>
        <time>2020-08-26T11:20:20.834Z</time>
      </trkpt>
      <trkpt lat="69.61391" lon="18.33945">
        <ele>30.039056</ele>
        <time>2020-08-26T11:20:22.837Z</time>
      </trkpt>
      <trkpt lat="69.61399" lon="18.33966">
        <ele>29.944809</ele>
        <time>2020-08-26T11:20:24.839Z</time>
      </trkpt>
      <trkpt lat="69.61406" lon="18.33989">
        <ele>29.848863</ele>
        <time>2020-08-26T11:20:26.860Z</time>
      </trkpt>
      <trkpt lat="69.61413" lon="18.34014">
        <ele>29.746636</ele>
        <time>2020-08-26T11:20:28.848Z</time>
      </trkpt>
      <trkpt lat="69.61421" lon="18.34037">
        <ele>29.645022</ele>
        <time>2020-08-26T11:20:30.815Z</time>
      </trkpt>
      <trkpt lat="69.6143" lon="18.34063">
        <ele>29.535714</ele>
        <time>2020-08-26T11:20:32.831Z</time>
      </trkpt>
      <trkpt lat="69.61437" lon="18.34091">
        <ele>29.423783</ele>
        <time>2020-08-26T11:20:34.850Z</time>
      </trkpt>
      <trkpt lat="69.61443" lon="18.34121">
        <ele>29.314658</ele>
        <time>2020-08-26T11:20:36.817Z</time>
      </trkpt>
      <trkpt lat="69.6145" lon="18.3415">
        <ele>29.204353</ele>
        <time>2020-08-26T11:20:38.842Z</time>
      </trkpt>
      <trkpt lat="69.61458" lon="18.34178">
        <ele>29.094596</ele>
        <time>2020-08-26T11:20:40.838Z</time>
      </trkpt>
      <trkpt lat="69.61464" lon="18.34205">
        <ele>28.989946</ele>
        <time>2020-08-26T11:20:42.832Z</time>
      </trkpt>
      <trkpt lat="69.61471" lon="18.34231">
        <ele>29.031939</ele>
        <time>2020-08-26T11:20:44.819Z</time>
      </trkpt>
      <trkpt lat="69.61477" lon="18.34257">
        <ele>29.213523</ele>
        <time>2020-08-26T11:20:46.851Z</time>
      </trkpt>
      <trkpt lat="69.61482" lon="18.34281">
        <ele>29.383161</ele>
        <time>2020-08-26T11:20:48.891Z</time>
      </trkpt>
      <trkpt lat="69.61488" lon="18.34308">
        <ele>29.564636</ele>
        <time>2020-08-26T11:20:50.829Z</time>
      </trkpt>
      <trkpt lat="69.61494" lon="18.34332">
        <ele>29.743855</ele>
        <time>2020-08-26T11:20:52.844Z</time>
      </trkpt>
      <trkpt lat="69.615" lon="18.34356">
        <ele>29.910133</ele>
        <time>2020-08-26T11:20:54.825Z</time>
      </trkpt>
      <trkpt lat="69.61506" lon="18.34388">
        <ele>30.123228</ele>
        <time>2020-08-26T11:20:57.846Z</time>
      </trkpt>
      <trkpt lat="69.61511" lon="18.34415">
        <ele>30.302801</ele>
        <time>2020-08-26T11:21:00.818Z</time>
      </trkpt>
      <trkpt lat="69.61515" lon="18.34441">
        <ele>30.464461</ele>
        <time>2020-08-26T11:21:03.825Z</time>
      </trkpt>
      <trkpt lat="69.61519" lon="18.34469">
        <ele>30.646273</ele>
        <time>2020-08-26T11:21:07.855Z</time>
      </trkpt>
      <trkpt lat="69.61523" lon="18.34492">
        <ele>30.796372</ele>
        <time>2020-08-26T11:21:10.866Z</time>
      </trkpt>
      <trkpt lat="69.61527" lon="18.34519">
        <ele>30.968653</ele>
        <time>2020-08-26T11:21:13.862Z</time>
      </trkpt>
      <trkpt lat="69.61532" lon="18.34545">
        <ele>31.137879</ele>
        <time>2020-08-26T11:21:16.830Z</time>
      </trkpt>
      <trkpt lat="69.61537" lon="18.34573">
        <ele>31.324549</ele>
        <time>2020-08-26T11:21:19.836Z</time>
      </trkpt>
      <trkpt lat="69.61544" lon="18.34601">
        <ele>31.524371</ele>
        <time>2020-08-26T11:21:22.855Z</time>
      </trkpt>
      <trkpt lat="69.61551" lon="18.34632">
        <ele>31.741877</ele>
        <time>2020-08-26T11:21:25.836Z</time>
      </trkpt>
      <trkpt lat="69.6156" lon="18.34662">
        <ele>31.932403</ele>
        <time>2020-08-26T11:21:28.836Z</time>
      </trkpt>
      <trkpt lat="69.61568" lon="18.34691">
        <ele>31.497581</ele>
        <time>2020-08-26T11:21:31.844Z</time>
      </trkpt>
      <trkpt lat="69.61577" lon="18.34718">
        <ele>31.086708</ele>
        <time>2020-08-26T11:21:34.822Z</time>
      </trkpt>
      <trkpt lat="69.61587" lon="18.34742">
        <ele>30.65472</ele>
        <time>2020-08-26T11:21:37.849Z</time>
      </trkpt>
      <trkpt lat="69.61594" lon="18.3476">
        <ele>30.348957</ele>
        <time>2020-08-26T11:21:39.832Z</time>
      </trkpt>
      <trkpt lat="69.61602" lon="18.34778">
        <ele>30.0413</ele>
        <time>2020-08-26T11:21:41.850Z</time>
      </trkpt>
      <trkpt lat="69.61609" lon="18.34796">
        <ele>29.716859</ele>
        <time>2020-08-26T11:21:43.827Z</time>
      </trkpt>
      <trkpt lat="69.61617" lon="18.34813">
        <ele>29.391866</ele>
        <time>2020-08-26T11:21:45.840Z</time>
      </trkpt>
      <trkpt lat="69.61625" lon="18.3483">
        <ele>29.078465</ele>
        <time>2020-08-26T11:21:47.840Z</time>
      </trkpt>
      <trkpt lat="69.61633" lon="18.34849">
        <ele>28.745421</ele>
        <time>2020-08-26T11:21:49.834Z</time>
      </trkpt>
      <trkpt lat="69.6164" lon="18.34868">
        <ele>28.416846</ele>
        <time>2020-08-26T11:21:51.844Z</time>
      </trkpt>
      <trkpt lat="69.61649" lon="18.34889">
        <ele>28.064879</ele>
        <time>2020-08-26T11:21:53.829Z</time>
      </trkpt>
      <trkpt lat="69.61657" lon="18.34909">
        <ele>27.692405</ele>
        <time>2020-08-26T11:21:55.829Z</time>
      </trkpt>
      <trkpt lat="69.61666" lon="18.34928">
        <ele>27.33503</ele>
        <time>2020-08-26T11:21:57.832Z</time>
      </trkpt>
      <trkpt lat="69.61675" lon="18.34948">
        <ele>26.96975</ele>
        <time>2020-08-26T11:21:59.869Z</time>
      </trkpt>
      <trkpt lat="69.61686" lon="18.3497">
        <ele>26.541215</ele>
        <time>2020-08-26T11:22:01.840Z</time>
      </trkpt>
      <trkpt lat="69.61698" lon="18.34993">
        <ele>26.083382</ele>
        <time>2020-08-26T11:22:03.817Z</time>
      </trkpt>
      <trkpt lat="69.6171" lon="18.35018">
        <ele>25.755605</ele>
        <time>2020-08-26T11:22:05.827Z</time>
      </trkpt>
      <trkpt lat="69.61723" lon="18.35044">
        <ele>25.425143</ele>
        <time>2020-08-26T11:22:07.867Z</time>
      </trkpt>
      <trkpt lat="69.61735" lon="18.35072">
        <ele>25.084202</ele>
        <time>2020-08-26T11:22:09.823Z</time>
      </trkpt>
      <trkpt lat="69.61747" lon="18.35102">
        <ele>24.739613</ele>
        <time>2020-08-26T11:22:11.836Z</time>
      </trkpt>
      <trkpt lat="69.61759" lon="18.35128">
        <ele>24.414709</ele>
        <time>2020-08-26T11:22:13.824Z</time>
      </trkpt>
      <trkpt lat="69.6177" lon="18.35156">
        <ele>24.084877</ele>
        <time>2020-08-26T11:22:15.830Z</time>
      </trkpt>
      <trkpt lat="69.61781" lon="18.35182">
        <ele>23.784098</ele>
        <time>2020-08-26T11:22:17.865Z</time>
      </trkpt>
      <trkpt lat="69.61791" lon="18.35204">
        <ele>23.499498</ele>
        <time>2020-08-26T11:22:19.879Z</time>
      </trkpt>
      <trkpt lat="69.618" lon="18.35228">
        <ele>23.238046</ele>
        <time>2020-08-26T11:22:21.823Z</time>
      </trkpt>
      <trkpt lat="69.61809" lon="18.35252">
        <ele>22.978694</ele>
        <time>2020-08-26T11:22:23.849Z</time>
      </trkpt>
      <trkpt lat="69.61816" lon="18.35274">
        <ele>22.746864</ele>
        <time>2020-08-26T11:22:25.839Z</time>
      </trkpt>
      <trkpt lat="69.61823" lon="18.35294">
        <ele>22.540344</ele>
        <time>2020-08-26T11:22:27.857Z</time>
      </trkpt>
      <trkpt lat="69.61829" lon="18.35314">
        <ele>22.338086</ele>
        <time>2020-08-26T11:22:29.841Z</time>
      </trkpt>
      <trkpt lat="69.61835" lon="18.35335">
        <ele>22.163472</ele>
        <time>2020-08-26T11:22:31.847Z</time>
      </trkpt>
      <trkpt lat="69.61841" lon="18.35355">
        <ele>22.053855</ele>
        <time>2020-08-26T11:22:33.857Z</time>
      </trkpt>
      <trkpt lat="69.61848" lon="18.35375">
        <ele>21.939094</ele>
        <time>2020-08-26T11:22:35.871Z</time>
      </trkpt>
      <trkpt lat="69.61856" lon="18.35399">
        <ele>21.810366</ele>
        <time>2020-08-26T11:22:37.819Z</time>
      </trkpt>
      <trkpt lat="69.61863" lon="18.35424">
        <ele>21.676558</ele>
        <time>2020-08-26T11:22:39.872Z</time>
      </trkpt>
      <trkpt lat="69.61871" lon="18.3545">
        <ele>21.532957</ele>
        <time>2020-08-26T11:22:41.826Z</time>
      </trkpt>
      <trkpt lat="69.6188" lon="18.35477">
        <ele>21.385235</ele>
        <time>2020-08-26T11:22:43.829Z</time>
      </trkpt>
      <trkpt lat="69.61888" lon="18.35503">
        <ele>21.243833</ele>
        <time>2020-08-26T11:22:45.859Z</time>
      </trkpt>
      <trkpt lat="69.61896" lon="18.35529">
        <ele>21.100742</ele>
        <time>2020-08-26T11:22:47.828Z</time>
      </trkpt>
      <trkpt lat="69.61904" lon="18.35555">
        <ele>20.961238</ele>
        <time>2020-08-26T11:22:49.838Z</time>
      </trkpt>
      <trkpt lat="69.61912" lon="18.35579">
        <ele>20.82421</ele>
        <time>2020-08-26T11:22:51.835Z</time>
      </trkpt>
      <trkpt lat="69.61919" lon="18.35604">
        <ele>20.693864</ele>
        <time>2020-08-26T11:22:53.846Z</time>
      </trkpt>
      <trkpt lat="69.61927" lon="18.3563">
        <ele>20.559531</ele>
        <time>2020-08-26T11:22:55.822Z</time>
      </trkpt>
      <trkpt lat="69.61934" lon="18.35657">
        <ele>20.418439</ele>
        <time>2020-08-26T11:22:57.836Z</time>
      </trkpt>
      <trkpt lat="69.61942" lon="18.35682">
        <ele>20.279791</ele>
        <time>2020-08-26T11:22:59.852Z</time>
      </trkpt>
      <trkpt lat="69.61951" lon="18.35707">
        <ele>20.1385</ele>
        <time>2020-08-26T11:23:01.866Z</time>
      </trkpt>
      <trkpt lat="69.61959" lon="18.3573">
        <ele>20.632414</ele>
        <time>2020-08-26T11:23:03.819Z</time>
      </trkpt>
      <trkpt lat="69.61967" lon="18.35754">
        <ele>21.24747</ele>
        <time>2020-08-26T11:23:05.843Z</time>
      </trkpt>
      <trkpt lat="69.61974" lon="18.35774">
        <ele>21.800239</ele>
        <time>2020-08-26T11:23:07.821Z</time>
      </trkpt>
      <trkpt lat="69.6198" lon="18.35793">
        <ele>22.30408</ele>
        <time>2020-08-26T11:23:09.831Z</time>
      </trkpt>
      <trkpt lat="69.61988" lon="18.35822">
        <ele>23.028938</ele>
        <time>2020-08-26T11:23:12.885Z</time>
      </trkpt>
      <trkpt lat="69.61997" lon="18.3585">
        <ele>23.764905</ele>
        <time>2020-08-26T11:23:15.847Z</time>
      </trkpt>
      <trkpt lat="69.62004" lon="18.35876">
        <ele>24.409551</ele>
        <time>2020-08-26T11:23:18.818Z</time>
      </trkpt>
      <trkpt lat="69.62011" lon="18.35901">
        <ele>25.036846</ele>
        <time>2020-08-26T11:23:21.840Z</time>
      </trkpt>
      <trkpt lat="69.62019" lon="18.35923">
        <ele>25.659274</ele>
        <time>2020-08-26T11:23:24.829Z</time>
      </trkpt>
      <trkpt lat="69.62027" lon="18.35949">
        <ele>26.324783</ele>
        <time>2020-08-26T11:23:27.827Z</time>
      </trkpt>
      <trkpt lat="69.62034" lon="18.35977">
        <ele>27.022293</ele>
        <time>2020-08-26T11:23:30.852Z</time>
      </trkpt>
      <trkpt lat="69.62042" lon="18.36008">
        <ele>27.751005</ele>
        <time>2020-08-26T11:23:33.865Z</time>
      </trkpt>
      <trkpt lat="69.62047" lon="18.36031">
        <ele>28.287307</ele>
        <time>2020-08-26T11:23:35.839Z</time>
      </trkpt>
      <trkpt lat="69.62052" lon="18.36056">
        <ele>28.850644</ele>
        <time>2020-08-26T11:23:37.901Z</time>
      </trkpt>
      <trkpt lat="69.62058" lon="18.36081">
        <ele>29.453107</ele>
        <time>2020-08-26T11:23:39.836Z</time>
      </trkpt>
      <trkpt lat="69.62064" lon="18.36108">
        <ele>30.063987</ele>
        <time>2020-08-26T11:23:41.841Z</time>
      </trkpt>
      <trkpt lat="69.62071" lon="18.36137">
        <ele>29.925344</ele>
        <time>2020-08-26T11:23:43.834Z</time>
      </trkpt>
      <trkpt lat="69.62078" lon="18.36167">
        <ele>29.627698</ele>
        <time>2020-08-26T11:23:45.829Z</time>
      </trkpt>
      <trkpt lat="69.62084" lon="18.36199">
        <ele>29.314843</ele>
        <time>2020-08-26T11:23:47.847Z</time>
      </trkpt>
      <trkpt lat="69.62092" lon="18.36232">
        <ele>28.99396</ele>
        <time>2020-08-26T11:23:49.827Z</time>
      </trkpt>
      <trkpt lat="69.62098" lon="18.36265">
        <ele>28.672843</ele>
        <time>2020-08-26T11:23:51.834Z</time>
      </trkpt>
      <trkpt lat="69.62105" lon="18.36297">
        <ele>28.362238</ele>
        <time>2020-08-26T11:23:53.820Z</time>
      </trkpt>
      <trkpt lat="69.62112" lon="18.36329">
        <ele>28.044038</ele>
        <time>2020-08-26T11:23:55.842Z</time>
      </trkpt>
      <trkpt lat="69.62119" lon="18.36361">
        <ele>27.739207</ele>
        <time>2020-08-26T11:23:57.832Z</time>
      </trkpt>
      <trkpt lat="69.62125" lon="18.36392">
        <ele>27.44685</ele>
        <time>2020-08-26T11:23:59.824Z</time>
      </trkpt>
      <trkpt lat="69.62131" lon="18.36424">
        <ele>27.142158</ele>
        <time>2020-08-26T11:24:01.845Z</time>
      </trkpt>
      <trkpt lat="69.62137" lon="18.36456">
        <ele>26.840384</ele>
        <time>2020-08-26T11:24:03.831Z</time>
      </trkpt>
      <trkpt lat="69.62143" lon="18.36486">
        <ele>26.551379</ele>
        <time>2020-08-26T11:24:05.838Z</time>
      </trkpt>
      <trkpt lat="69.62149" lon="18.36514">
        <ele>26.274731</ele>
        <time>2020-08-26T11:24:07.844Z</time>
      </trkpt>
      <trkpt lat="69.62155" lon="18.36542">
        <ele>26.000426</ele>
        <time>2020-08-26T11:24:09.841Z</time>
      </trkpt>
      <trkpt lat="69.62162" lon="18.36569">
        <ele>25.887075</ele>
        <time>2020-08-26T11:24:11.888Z</time>
      </trkpt>
      <trkpt lat="69.62168" lon="18.36598">
        <ele>25.90729</ele>
        <time>2020-08-26T11:24:13.814Z</time>
      </trkpt>
      <trkpt lat="69.62174" lon="18.36627">
        <ele>25.927051</ele>
        <time>2020-08-26T11:24:15.823Z</time>
      </trkpt>
      <trkpt lat="69.6218" lon="18.36654">
        <ele>25.946084</ele>
        <time>2020-08-26T11:24:17.836Z</time>
      </trkpt>
      <trkpt lat="69.62185" lon="18.3668">
        <ele>25.964422</ele>
        <time>2020-08-26T11:24:19.850Z</time>
      </trkpt>
      <trkpt lat="69.62191" lon="18.36705">
        <ele>25.982848</ele>
        <time>2020-08-26T11:24:21.841Z</time>
      </trkpt>
      <trkpt lat="69.62197" lon="18.36731">
        <ele>26.001077</ele>
        <time>2020-08-26T11:24:23.836Z</time>
      </trkpt>
      <trkpt lat="69.62203" lon="18.36757">
        <ele>26.019435</ele>
        <time>2020-08-26T11:24:25.846Z</time>
      </trkpt>
      <trkpt lat="69.62209" lon="18.36784">
        <ele>26.038226</ele>
        <time>2020-08-26T11:24:27.831Z</time>
      </trkpt>
      <trkpt lat="69.62214" lon="18.3681">
        <ele>26.05633</ele>
        <time>2020-08-26T11:24:29.840Z</time>
      </trkpt>
      <trkpt lat="69.6222" lon="18.36834">
        <ele>26.073648</ele>
        <time>2020-08-26T11:24:31.851Z</time>
      </trkpt>
      <trkpt lat="69.62225" lon="18.36859">
        <ele>26.090814</ele>
        <time>2020-08-26T11:24:33.826Z</time>
      </trkpt>
      <trkpt lat="69.6223" lon="18.36882">
        <ele>26.107546</ele>
        <time>2020-08-26T11:24:35.828Z</time>
      </trkpt>
      <trkpt lat="69.62236" lon="18.36906">
        <ele>26.124328</ele>
        <time>2020-08-26T11:24:37.861Z</time>
      </trkpt>
      <trkpt lat="69.62241" lon="18.3693">
        <ele>26.14106</ele>
        <time>2020-08-26T11:24:39.829Z</time>
      </trkpt>
      <trkpt lat="69.62247" lon="18.36954">
        <ele>26.158313</ele>
        <time>2020-08-26T11:24:41.824Z</time>
      </trkpt>
      <trkpt lat="69.62253" lon="18.36977">
        <ele>26.175369</ele>
        <time>2020-08-26T11:24:43.835Z</time>
      </trkpt>
      <trkpt lat="69.62258" lon="18.36999">
        <ele>26.23631</ele>
        <time>2020-08-26T11:24:45.830Z</time>
      </trkpt>
      <trkpt lat="69.62264" lon="18.37022">
        <ele>26.349861</ele>
        <time>2020-08-26T11:24:47.831Z</time>
      </trkpt>
      <trkpt lat="69.6227" lon="18.37045">
        <ele>26.463938</ele>
        <time>2020-08-26T11:24:49.848Z</time>
      </trkpt>
      <trkpt lat="69.62276" lon="18.37066">
        <ele>26.575188</ele>
        <time>2020-08-26T11:24:51.848Z</time>
      </trkpt>
      <trkpt lat="69.62283" lon="18.37088">
        <ele>26.693087</ele>
        <time>2020-08-26T11:24:53.835Z</time>
      </trkpt>
      <trkpt lat="69.6229" lon="18.3711">
        <ele>26.815609</ele>
        <time>2020-08-26T11:24:55.839Z</time>
      </trkpt>
      <trkpt lat="69.62297" lon="18.37132">
        <ele>26.940457</ele>
        <time>2020-08-26T11:24:57.838Z</time>
      </trkpt>
      <trkpt lat="69.62305" lon="18.37155">
        <ele>27.069745</ele>
        <time>2020-08-26T11:24:59.825Z</time>
      </trkpt>
      <trkpt lat="69.62312" lon="18.37178">
        <ele>27.193131</ele>
        <time>2020-08-26T11:25:01.836Z</time>
      </trkpt>
      <trkpt lat="69.6232" lon="18.372">
        <ele>27.321457</ele>
        <time>2020-08-26T11:25:03.825Z</time>
      </trkpt>
      <trkpt lat="69.62327" lon="18.37221">
        <ele>27.440628</ele>
        <time>2020-08-26T11:25:05.817Z</time>
      </trkpt>
      <trkpt lat="69.62335" lon="18.3724">
        <ele>27.554159</ele>
        <time>2020-08-26T11:25:07.828Z</time>
      </trkpt>
      <trkpt lat="69.62341" lon="18.37259">
        <ele>27.663523</ele>
        <time>2020-08-26T11:25:09.844Z</time>
      </trkpt>
      <trkpt lat="69.6235" lon="18.37281">
        <ele>27.793824</ele>
        <time>2020-08-26T11:25:12.839Z</time>
      </trkpt>
      <trkpt lat="69.62358" lon="18.37303">
        <ele>27.924982</ele>
        <time>2020-08-26T11:25:16.831Z</time>
      </trkpt>
      <trkpt lat="69.62365" lon="18.37324">
        <ele>28.044729</ele>
        <time>2020-08-26T11:25:21.831Z</time>
      </trkpt>
      <trkpt lat="69.62372" lon="18.37344">
        <ele>28.15691</ele>
        <time>2020-08-26T11:25:26.871Z</time>
      </trkpt>
      <trkpt lat="69.62378" lon="18.37365">
        <ele>28.267506</ele>
        <time>2020-08-26T11:25:32.878Z</time>
      </trkpt>
      <trkpt lat="69.62386" lon="18.37385">
        <ele>28.838062</ele>
        <time>2020-08-26T11:25:38.883Z</time>
      </trkpt>
      <trkpt lat="69.62393" lon="18.37406">
        <ele>29.367087</ele>
        <time>2020-08-26T11:25:43.837Z</time>
      </trkpt>
      <trkpt lat="69.62401" lon="18.37424">
        <ele>29.907163</ele>
        <time>2020-08-26T11:25:48.856Z</time>
      </trkpt>
      <trkpt lat="69.62408" lon="18.37447">
        <ele>30.486186</ele>
        <time>2020-08-26T11:25:53.857Z</time>
      </trkpt>
      <trkpt lat="69.62416" lon="18.37465">
        <ele>31.003915</ele>
        <time>2020-08-26T11:25:57.837Z</time>
      </trkpt>
      <trkpt lat="69.62425" lon="18.37483">
        <ele>31.587321</ele>
        <time>2020-08-26T11:26:01.859Z</time>
      </trkpt>
      <trkpt lat="69.62434" lon="18.37504">
        <ele>32.204135</ele>
        <time>2020-08-26T11:26:05.864Z</time>
      </trkpt>
      <trkpt lat="69.62441" lon="18.37522">
        <ele>32.732429</ele>
        <time>2020-08-26T11:26:08.835Z</time>
      </trkpt>
      <trkpt lat="69.6245" lon="18.37544">
        <ele>33.346398</ele>
        <time>2020-08-26T11:26:11.838Z</time>
      </trkpt>
      <trkpt lat="69.62459" lon="18.37567">
        <ele>34.021037</ele>
        <time>2020-08-26T11:26:14.869Z</time>
      </trkpt>
      <trkpt lat="69.62466" lon="18.37586">
        <ele>34.51982</ele>
        <time>2020-08-26T11:26:16.840Z</time>
      </trkpt>
      <trkpt lat="69.62474" lon="18.37606">
        <ele>35.064949</ele>
        <time>2020-08-26T11:26:18.851Z</time>
      </trkpt>
      <trkpt lat="69.62482" lon="18.37628">
        <ele>35.661434</ele>
        <time>2020-08-26T11:26:20.830Z</time>
      </trkpt>
      <trkpt lat="69.6249" lon="18.37652">
        <ele>36.305516</ele>
        <time>2020-08-26T11:26:22.835Z</time>
      </trkpt>
      <trkpt lat="69.62499" lon="18.37678">
        <ele>36.977858</ele>
        <time>2020-08-26T11:26:24.845Z</time>
      </trkpt>
      <trkpt lat="69.62508" lon="18.37704">
        <ele>37.63717</ele>
        <time>2020-08-26T11:26:26.849Z</time>
      </trkpt>
      <trkpt lat="69.62517" lon="18.37731">
        <ele>37.546258</ele>
        <time>2020-08-26T11:26:28.837Z</time>
      </trkpt>
      <trkpt lat="69.62528" lon="18.37758">
        <ele>37.029211</ele>
        <time>2020-08-26T11:26:30.839Z</time>
      </trkpt>
      <trkpt lat="69.62539" lon="18.37787">
        <ele>36.479361</ele>
        <time>2020-08-26T11:26:32.851Z</time>
      </trkpt>
      <trkpt lat="69.62551" lon="18.37816">
        <ele>35.92428</ele>
        <time>2020-08-26T11:26:34.838Z</time>
      </trkpt>
      <trkpt lat="69.62561" lon="18.37843">
        <ele>35.40939</ele>
        <time>2020-08-26T11:26:36.838Z</time>
      </trkpt>
      <trkpt lat="69.62571" lon="18.37868">
        <ele>34.93883</ele>
        <time>2020-08-26T11:26:38.835Z</time>
      </trkpt>
      <trkpt lat="69.62581" lon="18.37892">
        <ele>34.460203</ele>
        <time>2020-08-26T11:26:40.828Z</time>
      </trkpt>
      <trkpt lat="69.62592" lon="18.37915">
        <ele>33.976093</ele>
        <time>2020-08-26T11:26:42.830Z</time>
      </trkpt>
      <trkpt lat="69.62602" lon="18.37937">
        <ele>33.509673</ele>
        <time>2020-08-26T11:26:44.813Z</time>
      </trkpt>
      <trkpt lat="69.62611" lon="18.37958">
        <ele>33.082003</ele>
        <time>2020-08-26T11:26:46.844Z</time>
      </trkpt>
      <trkpt lat="69.62619" lon="18.3798">
        <ele>32.684884</ele>
        <time>2020-08-26T11:26:48.847Z</time>
      </trkpt>
      <trkpt lat="69.62627" lon="18.38">
        <ele>32.295434</ele>
        <time>2020-08-26T11:26:50.838Z</time>
      </trkpt>
      <trkpt lat="69.62635" lon="18.38021">
        <ele>31.904421</ele>
        <time>2020-08-26T11:26:52.849Z</time>
      </trkpt>
      <trkpt lat="69.62643" lon="18.38044">
        <ele>31.497721</ele>
        <time>2020-08-26T11:26:54.876Z</time>
      </trkpt>
      <trkpt lat="69.62651" lon="18.38065">
        <ele>31.228468</ele>
        <time>2020-08-26T11:26:56.852Z</time>
      </trkpt>
      <trkpt lat="69.62659" lon="18.38088">
        <ele>31.042664</ele>
        <time>2020-08-26T11:26:58.828Z</time>
      </trkpt>
      <trkpt lat="69.62666" lon="18.38112">
        <ele>30.854964</ele>
        <time>2020-08-26T11:27:00.827Z</time>
      </trkpt>
      <trkpt lat="69.62674" lon="18.38137">
        <ele>30.655846</ele>
        <time>2020-08-26T11:27:02.836Z</time>
      </trkpt>
      <trkpt lat="69.62682" lon="18.38163">
        <ele>30.450316</ele>
        <time>2020-08-26T11:27:04.834Z</time>
      </trkpt>
      <trkpt lat="69.62691" lon="18.38188">
        <ele>30.245117</ele>
        <time>2020-08-26T11:27:06.848Z</time>
      </trkpt>
      <trkpt lat="69.627" lon="18.38213">
        <ele>30.041511</ele>
        <time>2020-08-26T11:27:08.844Z</time>
      </trkpt>
      <trkpt lat="69.62707" lon="18.38237">
        <ele>29.850594</ele>
        <time>2020-08-26T11:27:10.841Z</time>
      </trkpt>
      <trkpt lat="69.62714" lon="18.3826">
        <ele>29.671122</ele>
        <time>2020-08-26T11:27:12.816Z</time>
      </trkpt>
      <trkpt lat="69.62721" lon="18.38284">
        <ele>29.489456</ele>
        <time>2020-08-26T11:27:14.855Z</time>
      </trkpt>
      <trkpt lat="69.62729" lon="18.38307">
        <ele>29.304315</ele>
        <time>2020-08-26T11:27:16.845Z</time>
      </trkpt>
      <trkpt lat="69.62737" lon="18.3833">
        <ele>29.118015</ele>
        <time>2020-08-26T11:27:18.832Z</time>
      </trkpt>
      <trkpt lat="69.62744" lon="18.38353">
        <ele>28.933172</ele>
        <time>2020-08-26T11:27:20.840Z</time>
      </trkpt>
      <trkpt lat="69.62752" lon="18.38376">
        <ele>28.746541</ele>
        <time>2020-08-26T11:27:22.837Z</time>
      </trkpt>
      <trkpt lat="69.6276" lon="18.38398">
        <ele>28.555547</ele>
        <time>2020-08-26T11:27:24.867Z</time>
      </trkpt>
      <trkpt lat="69.62768" lon="18.3842">
        <ele>28.375012</ele>
        <time>2020-08-26T11:27:26.832Z</time>
      </trkpt>
      <trkpt lat="69.62775" lon="18.38441">
        <ele>28.390472</ele>
        <time>2020-08-26T11:27:28.855Z</time>
      </trkpt>
      <trkpt lat="69.62781" lon="18.38461">
        <ele>28.486799</ele>
        <time>2020-08-26T11:27:30.839Z</time>
      </trkpt>
      <trkpt lat="69.62788" lon="18.3848">
        <ele>28.582824</ele>
        <time>2020-08-26T11:27:32.855Z</time>
      </trkpt>
      <trkpt lat="69.62795" lon="18.38502">
        <ele>28.682494</ele>
        <time>2020-08-26T11:27:34.832Z</time>
      </trkpt>
      <trkpt lat="69.62801" lon="18.38523">
        <ele>28.777144</ele>
        <time>2020-08-26T11:27:36.831Z</time>
      </trkpt>
      <trkpt lat="69.62806" lon="18.38544">
        <ele>28.873067</ele>
        <time>2020-08-26T11:27:38.833Z</time>
      </trkpt>
      <trkpt lat="69.62813" lon="18.38568">
        <ele>28.978741</ele>
        <time>2020-08-26T11:27:40.840Z</time>
      </trkpt>
      <trkpt lat="69.62819" lon="18.38594">
        <ele>29.091496</ele>
        <time>2020-08-26T11:27:42.824Z</time>
      </trkpt>
      <trkpt lat="69.62827" lon="18.38622">
        <ele>29.214698</ele>
        <time>2020-08-26T11:27:44.846Z</time>
      </trkpt>
      <trkpt lat="69.62834" lon="18.38653">
        <ele>29.348216</ele>
        <time>2020-08-26T11:27:46.855Z</time>
      </trkpt>
      <trkpt lat="69.62842" lon="18.38685">
        <ele>29.484905</ele>
        <time>2020-08-26T11:27:48.815Z</time>
      </trkpt>
      <trkpt lat="69.6285" lon="18.38717">
        <ele>29.621894</ele>
        <time>2020-08-26T11:27:50.895Z</time>
      </trkpt>
      <trkpt lat="69.62857" lon="18.38748">
        <ele>29.753112</ele>
        <time>2020-08-26T11:27:52.836Z</time>
      </trkpt>
      <trkpt lat="69.62864" lon="18.38776">
        <ele>29.872805</ele>
        <time>2020-08-26T11:27:54.831Z</time>
      </trkpt>
      <trkpt lat="69.62869" lon="18.38803">
        <ele>29.982497</ele>
        <time>2020-08-26T11:27:56.853Z</time>
      </trkpt>
      <trkpt lat="69.62875" lon="18.3883">
        <ele>30.094809</ele>
        <time>2020-08-26T11:27:58.856Z</time>
      </trkpt>
      <trkpt lat="69.62882" lon="18.38856">
        <ele>30.165973</ele>
        <time>2020-08-26T11:28:00.844Z</time>
      </trkpt>
      <trkpt lat="69.62888" lon="18.38884">
        <ele>30.216138</ele>
        <time>2020-08-26T11:28:02.871Z</time>
      </trkpt>
      <trkpt lat="69.62894" lon="18.38912">
        <ele>30.266338</ele>
        <time>2020-08-26T11:28:04.834Z</time>
      </trkpt>
      <trkpt lat="69.62901" lon="18.38939">
        <ele>30.315376</ele>
        <time>2020-08-26T11:28:06.845Z</time>
      </trkpt>
      <trkpt lat="69.62908" lon="18.38967">
        <ele>30.367008</ele>
        <time>2020-08-26T11:28:08.838Z</time>
      </trkpt>
      <trkpt lat="69.62914" lon="18.38995">
        <ele>30.417662</ele>
        <time>2020-08-26T11:28:10.853Z</time>
      </trkpt>
      <trkpt lat="69.6292" lon="18.39022">
        <ele>30.466108</ele>
        <time>2020-08-26T11:28:12.862Z</time>
      </trkpt>
      <trkpt lat="69.62926" lon="18.39048">
        <ele>30.513024</ele>
        <time>2020-08-26T11:28:14.879Z</time>
      </trkpt>
      <trkpt lat="69.62931" lon="18.39071">
        <ele>30.553797</ele>
        <time>2020-08-26T11:28:16.838Z</time>
      </trkpt>
      <trkpt lat="69.62936" lon="18.39093">
        <ele>30.5932</ele>
        <time>2020-08-26T11:28:18.834Z</time>
      </trkpt>
      <trkpt lat="69.62943" lon="18.39121">
        <ele>30.643867</ele>
        <time>2020-08-26T11:28:21.840Z</time>
      </trkpt>
      <trkpt lat="69.62949" lon="18.39151">
        <ele>30.696725</ele>
        <time>2020-08-26T11:28:24.859Z</time>
      </trkpt>
      <trkpt lat="69.62955" lon="18.39183">
        <ele>30.751429</ele>
        <time>2020-08-26T11:28:27.870Z</time>
      </trkpt>
      <trkpt lat="69.62962" lon="18.39213">
        <ele>30.806148</ele>
        <time>2020-08-26T11:28:30.836Z</time>
      </trkpt>
      <trkpt lat="69.62967" lon="18.39235">
        <ele>30.846539</ele>
        <time>2020-08-26T11:28:32.852Z</time>
      </trkpt>
      <trkpt lat="69.62972" lon="18.39257">
        <ele>30.886931</ele>
        <time>2020-08-26T11:28:34.836Z</time>
      </trkpt>
      <trkpt lat="69.62978" lon="18.39281">
        <ele>30.835156</ele>
        <time>2020-08-26T11:28:36.832Z</time>
      </trkpt>
      <trkpt lat="69.62983" lon="18.39306">
        <ele>30.623328</ele>
        <time>2020-08-26T11:28:38.876Z</time>
      </trkpt>
      <trkpt lat="69.62989" lon="18.39329">
        <ele>30.418535</ele>
        <time>2020-08-26T11:28:40.850Z</time>
      </trkpt>
      <trkpt lat="69.62994" lon="18.39356">
        <ele>30.197596</ele>
        <time>2020-08-26T11:28:42.826Z</time>
      </trkpt>
      <trkpt lat="69.63001" lon="18.39384">
        <ele>29.951439</ele>
        <time>2020-08-26T11:28:44.888Z</time>
      </trkpt>
      <trkpt lat="69.63007" lon="18.39416">
        <ele>29.688258</ele>
        <time>2020-08-26T11:28:46.858Z</time>
      </trkpt>
      <trkpt lat="69.63015" lon="18.39448">
        <ele>29.412461</ele>
        <time>2020-08-26T11:28:48.826Z</time>
      </trkpt>
      <trkpt lat="69.63022" lon="18.39481">
        <ele>29.124921</ele>
        <time>2020-08-26T11:28:50.849Z</time>
      </trkpt>
      <trkpt lat="69.6303" lon="18.39514">
        <ele>28.841851</ele>
        <time>2020-08-26T11:28:52.889Z</time>
      </trkpt>
      <trkpt lat="69.63037" lon="18.39545">
        <ele>28.578329</ele>
        <time>2020-08-26T11:28:54.844Z</time>
      </trkpt>
      <trkpt lat="69.63043" lon="18.39574">
        <ele>28.324329</ele>
        <time>2020-08-26T11:28:56.832Z</time>
      </trkpt>
      <trkpt lat="69.6305" lon="18.39604">
        <ele>28.076201</ele>
        <time>2020-08-26T11:28:58.843Z</time>
      </trkpt>
      <trkpt lat="69.63056" lon="18.3963">
        <ele>27.844776</ele>
        <time>2020-08-26T11:29:00.819Z</time>
      </trkpt>
      <trkpt lat="69.63062" lon="18.39656">
        <ele>27.625857</ele>
        <time>2020-08-26T11:29:02.824Z</time>
      </trkpt>
      <trkpt lat="69.63067" lon="18.3968">
        <ele>27.409919</ele>
        <time>2020-08-26T11:29:04.834Z</time>
      </trkpt>
      <trkpt lat="69.63073" lon="18.39703">
        <ele>27.210535</ele>
        <time>2020-08-26T11:29:06.828Z</time>
      </trkpt>
      <trkpt lat="69.63079" lon="18.39723">
        <ele>27.267515</ele>
        <time>2020-08-26T11:29:08.843Z</time>
      </trkpt>
      <trkpt lat="69.63086" lon="18.39742">
        <ele>27.352207</ele>
        <time>2020-08-26T11:29:10.831Z</time>
      </trkpt>
      <trkpt lat="69.63092" lon="18.39761">
        <ele>27.440035</ele>
        <time>2020-08-26T11:29:12.828Z</time>
      </trkpt>
      <trkpt lat="69.63099" lon="18.39779">
        <ele>27.525803</ele>
        <time>2020-08-26T11:29:14.820Z</time>
      </trkpt>
      <trkpt lat="69.63109" lon="18.39802">
        <ele>27.642684</ele>
        <time>2020-08-26T11:29:17.840Z</time>
      </trkpt>
      <trkpt lat="69.63119" lon="18.39821">
        <ele>27.759293</ele>
        <time>2020-08-26T11:29:20.823Z</time>
      </trkpt>
      <trkpt lat="69.63129" lon="18.39841">
        <ele>27.874761</ele>
        <time>2020-08-26T11:29:23.849Z</time>
      </trkpt>
      <trkpt lat="69.63139" lon="18.39859">
        <ele>27.985568</ele>
        <time>2020-08-26T11:29:26.870Z</time>
      </trkpt>
      <trkpt lat="69.63148" lon="18.39879">
        <ele>28.093582</ele>
        <time>2020-08-26T11:29:29.841Z</time>
      </trkpt>
      <trkpt lat="69.63157" lon="18.39897">
        <ele>28.193528</ele>
        <time>2020-08-26T11:29:32.869Z</time>
      </trkpt>
      <trkpt lat="69.63166" lon="18.39914">
        <ele>28.292947</ele>
        <time>2020-08-26T11:29:35.831Z</time>
      </trkpt>
      <trkpt lat="69.63175" lon="18.39932">
        <ele>28.395756</ele>
        <time>2020-08-26T11:29:38.861Z</time>
      </trkpt>
      <trkpt lat="69.63185" lon="18.39951">
        <ele>28.511831</ele>
        <time>2020-08-26T11:29:41.827Z</time>
      </trkpt>
      <trkpt lat="69.63196" lon="18.39973">
        <ele>28.639029</ele>
        <time>2020-08-26T11:29:44.837Z</time>
      </trkpt>
      <trkpt lat="69.63207" lon="18.39996">
        <ele>28.764861</ele>
        <time>2020-08-26T11:29:47.824Z</time>
      </trkpt>
      <trkpt lat="69.63219" lon="18.40015">
        <ele>28.868755</ele>
        <time>2020-08-26T11:29:50.834Z</time>
      </trkpt>
      <trkpt lat="69.6323" lon="18.40033">
        <ele>28.82109</ele>
        <time>2020-08-26T11:29:53.858Z</time>
      </trkpt>
      <trkpt lat="69.6324" lon="18.40049">
        <ele>28.774689</ele>
        <time>2020-08-26T11:29:56.842Z</time>
      </trkpt>
      <trkpt lat="69.63251" lon="18.40062">
        <ele>28.730239</ele>
        <time>2020-08-26T11:29:59.861Z</time>
      </trkpt>
      <trkpt lat="69.63262" lon="18.40076">
        <ele>28.683415</ele>
        <time>2020-08-26T11:30:02.857Z</time>
      </trkpt>
      <trkpt lat="69.63274" lon="18.4009">
        <ele>28.633662</ele>
        <time>2020-08-26T11:30:05.827Z</time>
      </trkpt>
      <trkpt lat="69.63283" lon="18.40101">
        <ele>28.596879</ele>
        <time>2020-08-26T11:30:07.835Z</time>
      </trkpt>
      <trkpt lat="69.63293" lon="18.40112">
        <ele>28.555486</ele>
        <time>2020-08-26T11:30:09.831Z</time>
      </trkpt>
      <trkpt lat="69.63304" lon="18.40123">
        <ele>28.511108</ele>
        <time>2020-08-26T11:30:11.825Z</time>
      </trkpt>
      <trkpt lat="69.63315" lon="18.40136">
        <ele>28.465142</ele>
        <time>2020-08-26T11:30:13.838Z</time>
      </trkpt>
      <trkpt lat="69.63327" lon="18.4015">
        <ele>28.416399</ele>
        <time>2020-08-26T11:30:15.836Z</time>
      </trkpt>
      <trkpt lat="69.63339" lon="18.40164">
        <ele>28.366897</ele>
        <time>2020-08-26T11:30:17.847Z</time>
      </trkpt>
      <trkpt lat="69.63351" lon="18.40177">
        <ele>28.317541</ele>
        <time>2020-08-26T11:30:19.863Z</time>
      </trkpt>
      <trkpt lat="69.63363" lon="18.40192">
        <ele>28.26848</ele>
        <time>2020-08-26T11:30:21.833Z</time>
      </trkpt>
      <trkpt lat="69.63374" lon="18.40207">
        <ele>28.219526</ele>
        <time>2020-08-26T11:30:23.838Z</time>
      </trkpt>
      <trkpt lat="69.63386" lon="18.40219">
        <ele>28.146653</ele>
        <time>2020-08-26T11:30:25.844Z</time>
      </trkpt>
      <trkpt lat="69.63399" lon="18.40231">
        <ele>28.02117</ele>
        <time>2020-08-26T11:30:27.827Z</time>
      </trkpt>
      <trkpt lat="69.63411" lon="18.40244">
        <ele>27.898079</ele>
        <time>2020-08-26T11:30:29.838Z</time>
      </trkpt>
      <trkpt lat="69.63423" lon="18.40256">
        <ele>27.778598</ele>
        <time>2020-08-26T11:30:31.846Z</time>
      </trkpt>
      <trkpt lat="69.63434" lon="18.40269">
        <ele>27.661488</ele>
        <time>2020-08-26T11:30:33.852Z</time>
      </trkpt>
      <trkpt lat="69.63445" lon="18.40281">
        <ele>27.550014</ele>
        <time>2020-08-26T11:30:35.833Z</time>
      </trkpt>
      <trkpt lat="69.63455" lon="18.40294">
        <ele>27.440759</ele>
        <time>2020-08-26T11:30:37.825Z</time>
      </trkpt>
      <trkpt lat="69.63466" lon="18.40307">
        <ele>27.332494</ele>
        <time>2020-08-26T11:30:39.832Z</time>
      </trkpt>
      <trkpt lat="69.63476" lon="18.40321">
        <ele>27.224198</ele>
        <time>2020-08-26T11:30:41.830Z</time>
      </trkpt>
      <trkpt lat="69.63486" lon="18.40332">
        <ele>27.119886</ele>
        <time>2020-08-26T11:30:43.820Z</time>
      </trkpt>
      <trkpt lat="69.63496" lon="18.40344">
        <ele>27.018239</ele>
        <time>2020-08-26T11:30:45.827Z</time>
      </trkpt>
      <trkpt lat="69.63506" lon="18.40356">
        <ele>26.914691</ele>
        <time>2020-08-26T11:30:47.819Z</time>
      </trkpt>
      <trkpt lat="69.63515" lon="18.40367">
        <ele>26.813801</ele>
        <time>2020-08-26T11:30:49.837Z</time>
      </trkpt>
      <trkpt lat="69.63525" lon="18.40378">
        <ele>26.717224</ele>
        <time>2020-08-26T11:30:51.848Z</time>
      </trkpt>
      <trkpt lat="69.63534" lon="18.40389">
        <ele>26.624317</ele>
        <time>2020-08-26T11:30:53.822Z</time>
      </trkpt>
      <trkpt lat="69.63543" lon="18.404">
        <ele>26.531743</ele>
        <time>2020-08-26T11:30:55.848Z</time>
      </trkpt>
      <trkpt lat="69.63554" lon="18.40417">
        <ele>26.738578</ele>
        <time>2020-08-26T11:30:58.845Z</time>
      </trkpt>
      <trkpt lat="69.63565" lon="18.40434">
        <ele>27.341219</ele>
        <time>2020-08-26T11:31:01.842Z</time>
      </trkpt>
      <trkpt lat="69.63576" lon="18.40454">
        <ele>27.949435</ele>
        <time>2020-08-26T11:31:04.840Z</time>
      </trkpt>
      <trkpt lat="69.63586" lon="18.40473">
        <ele>28.54728</ele>
        <time>2020-08-26T11:31:07.830Z</time>
      </trkpt>
      <trkpt lat="69.63596" lon="18.40493">
        <ele>29.12713</ele>
        <time>2020-08-26T11:31:10.874Z</time>
      </trkpt>
      <trkpt lat="69.63604" lon="18.40517">
        <ele>29.691409</ele>
        <time>2020-08-26T11:31:13.831Z</time>
      </trkpt>
      <trkpt lat="69.63612" lon="18.40539">
        <ele>30.213487</ele>
        <time>2020-08-26T11:31:16.859Z</time>
      </trkpt>
      <trkpt lat="69.63619" lon="18.4056">
        <ele>30.719099</ele>
        <time>2020-08-26T11:31:19.838Z</time>
      </trkpt>
      <trkpt lat="69.63626" lon="18.40582">
        <ele>31.218448</ele>
        <time>2020-08-26T11:31:22.869Z</time>
      </trkpt>
      <trkpt lat="69.63633" lon="18.40602">
        <ele>31.67778</ele>
        <time>2020-08-26T11:31:25.847Z</time>
      </trkpt>
      <trkpt lat="69.63639" lon="18.40623">
        <ele>32.145447</ele>
        <time>2020-08-26T11:31:28.824Z</time>
      </trkpt>
      <trkpt lat="69.63645" lon="18.40647">
        <ele>32.641896</ele>
        <time>2020-08-26T11:31:31.830Z</time>
      </trkpt>
      <trkpt lat="69.63652" lon="18.40673">
        <ele>33.187228</ele>
        <time>2020-08-26T11:31:34.870Z</time>
      </trkpt>
      <trkpt lat="69.63658" lon="18.407">
        <ele>33.722729</ele>
        <time>2020-08-26T11:31:37.857Z</time>
      </trkpt>
      <trkpt lat="69.63664" lon="18.40728">
        <ele>34.286903</ele>
        <time>2020-08-26T11:31:40.843Z</time>
      </trkpt>
      <trkpt lat="69.63671" lon="18.40753">
        <ele>34.825014</ele>
        <time>2020-08-26T11:31:43.847Z</time>
      </trkpt>
      <trkpt lat="69.63677" lon="18.4078">
        <ele>35.117317</ele>
        <time>2020-08-26T11:31:46.834Z</time>
      </trkpt>
      <trkpt lat="69.63684" lon="18.40805">
        <ele>34.994719</ele>
        <time>2020-08-26T11:31:49.823Z</time>
      </trkpt>
      <trkpt lat="69.6369" lon="18.40832">
        <ele>34.872167</ele>
        <time>2020-08-26T11:31:52.824Z</time>
      </trkpt>
      <trkpt lat="69.63697" lon="18.40859">
        <ele>34.745521</ele>
        <time>2020-08-26T11:31:55.826Z</time>
      </trkpt>
      <trkpt lat="69.63703" lon="18.40881">
        <ele>34.633775</ele>
        <time>2020-08-26T11:31:58.819Z</time>
      </trkpt>
      <trkpt lat="69.63711" lon="18.40905">
        <ele>34.511756</ele>
        <time>2020-08-26T11:32:01.853Z</time>
      </trkpt>
      <trkpt lat="69.63718" lon="18.40928">
        <ele>34.389738</ele>
        <time>2020-08-26T11:32:04.844Z</time>
      </trkpt>
      <trkpt lat="69.63726" lon="18.40952">
        <ele>34.265187</ele>
        <time>2020-08-26T11:32:07.837Z</time>
      </trkpt>
      <trkpt lat="69.63734" lon="18.40978">
        <ele>34.129519</ele>
        <time>2020-08-26T11:32:10.835Z</time>
      </trkpt>
      <trkpt lat="69.63743" lon="18.41003">
        <ele>33.991453</ele>
        <time>2020-08-26T11:32:13.851Z</time>
      </trkpt>
      <trkpt lat="69.63753" lon="18.41026">
        <ele>33.846469</ele>
        <time>2020-08-26T11:32:16.832Z</time>
      </trkpt>
      <trkpt lat="69.63762" lon="18.41041">
        <ele>33.734196</ele>
        <time>2020-08-26T11:32:18.842Z</time>
      </trkpt>
      <trkpt lat="69.63771" lon="18.41056">
        <ele>33.616759</ele>
        <time>2020-08-26T11:32:20.842Z</time>
      </trkpt>
      <trkpt lat="69.63781" lon="18.41072">
        <ele>33.496642</ele>
        <time>2020-08-26T11:32:22.865Z</time>
      </trkpt>
      <trkpt lat="69.63791" lon="18.41087">
        <ele>33.374425</ele>
        <time>2020-08-26T11:32:24.861Z</time>
      </trkpt>
      <trkpt lat="69.63801" lon="18.41101">
        <ele>33.244264</ele>
        <time>2020-08-26T11:32:26.839Z</time>
      </trkpt>
      <trkpt lat="69.63812" lon="18.41115">
        <ele>33.066068</ele>
        <time>2020-08-26T11:32:28.836Z</time>
      </trkpt>
      <trkpt lat="69.63823" lon="18.41127">
        <ele>32.828599</ele>
        <time>2020-08-26T11:32:30.857Z</time>
      </trkpt>
      <trkpt lat="69.63835" lon="18.41138">
        <ele>32.578317</ele>
        <time>2020-08-26T11:32:32.859Z</time>
      </trkpt>
      <trkpt lat="69.63847" lon="18.4115">
        <ele>32.332769</ele>
        <time>2020-08-26T11:32:34.838Z</time>
      </trkpt>
      <trkpt lat="69.63859" lon="18.41162">
        <ele>32.081212</ele>
        <time>2020-08-26T11:32:36.837Z</time>
      </trkpt>
      <trkpt lat="69.6387" lon="18.41173">
        <ele>31.848159</ele>
        <time>2020-08-26T11:32:38.857Z</time>
      </trkpt>
      <trkpt lat="69.63881" lon="18.41185">
        <ele>31.627331</ele>
        <time>2020-08-26T11:32:40.870Z</time>
      </trkpt>
      <trkpt lat="69.6389" lon="18.41196">
        <ele>31.425273</ele>
        <time>2020-08-26T11:32:42.860Z</time>
      </trkpt>
      <trkpt lat="69.639" lon="18.41206">
        <ele>31.235002</ele>
        <time>2020-08-26T11:32:44.830Z</time>
      </trkpt>
      <trkpt lat="69.63908" lon="18.41213">
        <ele>31.052341</ele>
        <time>2020-08-26T11:32:46.835Z</time>
      </trkpt>
      <trkpt lat="69.63917" lon="18.41222">
        <ele>30.866374</ele>
        <time>2020-08-26T11:32:48.840Z</time>
      </trkpt>
      <trkpt lat="69.63926" lon="18.41232">
        <ele>30.684562</ele>
        <time>2020-08-26T11:32:50.848Z</time>
      </trkpt>
      <trkpt lat="69.63938" lon="18.41244">
        <ele>30.43533</ele>
        <time>2020-08-26T11:32:53.826Z</time>
      </trkpt>
      <trkpt lat="69.63948" lon="18.41253">
        <ele>30.226233</ele>
        <time>2020-08-26T11:32:56.824Z</time>
      </trkpt>
      <trkpt lat="69.63958" lon="18.41263">
        <ele>30.015387</ele>
        <time>2020-08-26T11:33:00.826Z</time>
      </trkpt>
      <trkpt lat="69.63968" lon="18.41276">
        <ele>29.804761</ele>
        <time>2020-08-26T11:33:04.878Z</time>
      </trkpt>
      <trkpt lat="69.63978" lon="18.41289">
        <ele>29.872668</ele>
        <time>2020-08-26T11:33:09.836Z</time>
      </trkpt>
      <trkpt lat="69.63988" lon="18.413">
        <ele>30.772513</ele>
        <time>2020-08-26T11:33:14.837Z</time>
      </trkpt>
      <trkpt lat="69.63997" lon="18.4131">
        <ele>31.630144</ele>
        <time>2020-08-26T11:33:20.880Z</time>
      </trkpt>
      <trkpt lat="69.64006" lon="18.41321">
        <ele>32.433283</ele>
        <time>2020-08-26T11:33:26.839Z</time>
      </trkpt>
      <trkpt lat="69.64017" lon="18.41329">
        <ele>33.322712</ele>
        <time>2020-08-26T11:33:32.835Z</time>
      </trkpt>
      <trkpt lat="69.64026" lon="18.4134">
        <ele>34.194009</ele>
        <time>2020-08-26T11:33:38.827Z</time>
      </trkpt>
      <trkpt lat="69.64036" lon="18.41353">
        <ele>35.103883</ele>
        <time>2020-08-26T11:33:45.840Z</time>
      </trkpt>
      <trkpt lat="69.64046" lon="18.41361">
        <ele>35.937378</ele>
        <time>2020-08-26T11:33:51.831Z</time>
      </trkpt>
      <trkpt lat="69.64054" lon="18.41374">
        <ele>36.739555</ele>
        <time>2020-08-26T11:33:57.831Z</time>
      </trkpt>
      <trkpt lat="69.64063" lon="18.41391">
        <ele>37.637441</ele>
        <time>2020-08-26T11:34:03.855Z</time>
      </trkpt>
      <trkpt lat="69.6407" lon="18.41413">
        <ele>38.484513</ele>
        <time>2020-08-26T11:34:08.845Z</time>
      </trkpt>
      <trkpt lat="69.64075" lon="18.41439">
        <ele>39.381073</ele>
        <time>2020-08-26T11:34:13.844Z</time>
      </trkpt>
      <trkpt lat="69.6408" lon="18.4147">
        <ele>40.337218</ele>
        <time>2020-08-26T11:34:17.858Z</time>
      </trkpt>
      <trkpt lat="69.64082" lon="18.41499">
        <ele>41.221155</ele>
        <time>2020-08-26T11:34:20.829Z</time>
      </trkpt>
      <trkpt lat="69.64083" lon="18.41535">
        <ele>42.280876</ele>
        <time>2020-08-26T11:34:23.830Z</time>
      </trkpt>
      <trkpt lat="69.64084" lon="18.41571">
        <ele>43.331206</ele>
        <time>2020-08-26T11:34:26.827Z</time>
      </trkpt>
      <trkpt lat="69.64083" lon="18.41606">
        <ele>44.348157</ele>
        <time>2020-08-26T11:34:29.844Z</time>
      </trkpt>
      <trkpt lat="69.6408" lon="18.41634">
        <ele>45.271969</ele>
        <time>2020-08-26T11:34:32.823Z</time>
      </trkpt>
      <trkpt lat="69.64077" lon="18.4166">
        <ele>46.196618</ele>
        <time>2020-08-26T11:34:36.825Z</time>
      </trkpt>
      <trkpt lat="69.64075" lon="18.41687">
        <ele>47.129326</ele>
        <time>2020-08-26T11:34:41.839Z</time>
      </trkpt>
      <trkpt lat="69.64071" lon="18.41714">
        <ele>48.108048</ele>
        <time>2020-08-26T11:34:46.853Z</time>
      </trkpt>
      <trkpt lat="69.64068" lon="18.41739">
        <ele>49.036919</ele>
        <time>2020-08-26T11:34:51.824Z</time>
      </trkpt>
      <trkpt lat="69.64065" lon="18.41766">
        <ele>49.967918</ele>
        <time>2020-08-26T11:34:56.828Z</time>
      </trkpt>
      <trkpt lat="69.64061" lon="18.41791">
        <ele>50.873387</ele>
        <time>2020-08-26T11:35:01.833Z</time>
      </trkpt>
      <trkpt lat="69.64058" lon="18.41816">
        <ele>51.805953</ele>
        <time>2020-08-26T11:35:07.826Z</time>
      </trkpt>
      <trkpt lat="69.64054" lon="18.41841">
        <ele>52.720564</ele>
        <time>2020-08-26T11:35:12.850Z</time>
      </trkpt>
      <trkpt lat="69.6405" lon="18.41867">
        <ele>53.677658</ele>
        <time>2020-08-26T11:35:17.833Z</time>
      </trkpt>
      <trkpt lat="69.64047" lon="18.41891">
        <ele>54.551502</ele>
        <time>2020-08-26T11:35:22.874Z</time>
      </trkpt>
      <trkpt lat="69.64045" lon="18.4192">
        <ele>55.549133</ele>
        <time>2020-08-26T11:35:28.841Z</time>
      </trkpt>
      <trkpt lat="69.64042" lon="18.41946">
        <ele>56.461752</ele>
        <time>2020-08-26T11:35:34.855Z</time>
      </trkpt>
      <trkpt lat="69.6404" lon="18.41971">
        <ele>57.342488</ele>
        <time>2020-08-26T11:35:39.839Z</time>
      </trkpt>
      <trkpt lat="69.64036" lon="18.41998">
        <ele>58.299013</ele>
        <time>2020-08-26T11:35:45.854Z</time>
      </trkpt>
      <trkpt lat="69.64034" lon="18.42026">
        <ele>59.254753</ele>
        <time>2020-08-26T11:35:51.840Z</time>
      </trkpt>
      <trkpt lat="69.64031" lon="18.42054">
        <ele>60.266758</ele>
        <time>2020-08-26T11:35:57.832Z</time>
      </trkpt>
      <trkpt lat="69.64028" lon="18.42081">
        <ele>61.226454</ele>
        <time>2020-08-26T11:36:02.873Z</time>
      </trkpt>
      <trkpt lat="69.64026" lon="18.4211">
        <ele>62.161933</ele>
        <time>2020-08-26T11:36:08.833Z</time>
      </trkpt>
      <trkpt lat="69.64022" lon="18.42138">
        <ele>62.62369</ele>
        <time>2020-08-26T11:36:14.855Z</time>
      </trkpt>
      <trkpt lat="69.64023" lon="18.42181">
        <ele>63.265224</ele>
        <time>2020-08-26T11:44:20.858Z</time>
      </trkpt>
      <trkpt lat="69.64025" lon="18.42207">
        <ele>63.6689</ele>
        <time>2020-08-26T11:44:25.846Z</time>
      </trkpt>
      <trkpt lat="69.64027" lon="18.42237">
        <ele>64.119403</ele>
        <time>2020-08-26T11:44:29.839Z</time>
      </trkpt>
      <trkpt lat="69.64025" lon="18.42263">
        <ele>64.515361</ele>
        <time>2020-08-26T11:44:32.868Z</time>
      </trkpt>
      <trkpt lat="69.64023" lon="18.4229">
        <ele>64.936807</ele>
        <time>2020-08-26T11:44:35.851Z</time>
      </trkpt>
      <trkpt lat="69.6402" lon="18.42316">
        <ele>65.341268</ele>
        <time>2020-08-26T11:44:39.841Z</time>
      </trkpt>
      <trkpt lat="69.64019" lon="18.42347">
        <ele>65.806832</ele>
        <time>2020-08-26T11:44:44.867Z</time>
      </trkpt>
      <trkpt lat="69.64019" lon="18.42379">
        <ele>66.27316</ele>
        <time>2020-08-26T11:44:49.874Z</time>
      </trkpt>
      <trkpt lat="69.64016" lon="18.42404">
        <ele>66.681052</ele>
        <time>2020-08-26T11:44:54.859Z</time>
      </trkpt>
      <trkpt lat="69.64016" lon="18.42435">
        <ele>67.139813</ele>
        <time>2020-08-26T11:45:00.877Z</time>
      </trkpt>
      <trkpt lat="69.64017" lon="18.42463">
        <ele>67.561051</ele>
        <time>2020-08-26T11:45:05.839Z</time>
      </trkpt>
      <trkpt lat="69.64017" lon="18.42491">
        <ele>67.985389</ele>
        <time>2020-08-26T11:45:10.839Z</time>
      </trkpt>
      <trkpt lat="69.64015" lon="18.42519">
        <ele>68.410146</ele>
        <time>2020-08-26T11:45:15.867Z</time>
      </trkpt>
      <trkpt lat="69.64014" lon="18.42546">
        <ele>68.815046</ele>
        <time>2020-08-26T11:45:21.854Z</time>
      </trkpt>
      <trkpt lat="69.64011" lon="18.42573">
        <ele>69.241716</ele>
        <time>2020-08-26T11:45:27.819Z</time>
      </trkpt>
      <trkpt lat="69.64013" lon="18.42599">
        <ele>69.626703</ele>
        <time>2020-08-26T11:45:32.838Z</time>
      </trkpt>
      <trkpt lat="69.64015" lon="18.42624">
        <ele>70.092664</ele>
        <time>2020-08-26T11:45:37.881Z</time>
      </trkpt>
      <trkpt lat="69.64012" lon="18.42652">
        <ele>70.722651</ele>
        <time>2020-08-26T11:45:43.863Z</time>
      </trkpt>
      <trkpt lat="69.64011" lon="18.42682">
        <ele>71.350863</ele>
        <time>2020-08-26T11:45:49.840Z</time>
      </trkpt>
      <trkpt lat="69.64009" lon="18.4271">
        <ele>71.960321</ele>
        <time>2020-08-26T11:45:54.860Z</time>
      </trkpt>
      <trkpt lat="69.64007" lon="18.42738">
        <ele>72.559643</ele>
        <time>2020-08-26T11:45:59.862Z</time>
      </trkpt>
      <trkpt lat="69.64004" lon="18.42767">
        <ele>73.171573</ele>
        <time>2020-08-26T11:46:04.892Z</time>
      </trkpt>
      <trkpt lat="69.64003" lon="18.42793">
        <ele>73.735874</ele>
        <time>2020-08-26T11:46:09.834Z</time>
      </trkpt>
      <trkpt lat="69.63999" lon="18.4282">
        <ele>74.346301</ele>
        <time>2020-08-26T11:46:15.852Z</time>
      </trkpt>
      <trkpt lat="69.63997" lon="18.42848">
        <ele>74.93287</ele>
        <time>2020-08-26T11:46:21.840Z</time>
      </trkpt>
      <trkpt lat="69.63994" lon="18.42874">
        <ele>75.517318</ele>
        <time>2020-08-26T11:46:26.853Z</time>
      </trkpt>
      <trkpt lat="69.63989" lon="18.42899">
        <ele>76.104991</ele>
        <time>2020-08-26T11:46:31.846Z</time>
      </trkpt>
      <trkpt lat="69.63983" lon="18.42926">
        <ele>76.778328</ele>
        <time>2020-08-26T11:46:36.854Z</time>
      </trkpt>
      <trkpt lat="69.63977" lon="18.42949">
        <ele>77.407549</ele>
        <time>2020-08-26T11:46:40.841Z</time>
      </trkpt>
      <trkpt lat="69.63969" lon="18.42973">
        <ele>78.073867</ele>
        <time>2020-08-26T11:46:45.818Z</time>
      </trkpt>
      <trkpt lat="69.63963" lon="18.42997">
        <ele>78.722592</ele>
        <time>2020-08-26T11:46:50.872Z</time>
      </trkpt>
      <trkpt lat="69.63957" lon="18.4302">
        <ele>79.314885</ele>
        <time>2020-08-26T11:46:55.829Z</time>
      </trkpt>
      <trkpt lat="69.63951" lon="18.43043">
        <ele>79.912432</ele>
        <time>2020-08-26T11:47:00.832Z</time>
      </trkpt>
      <trkpt lat="69.63946" lon="18.43065">
        <ele>80.484098</ele>
        <time>2020-08-26T11:47:05.851Z</time>
      </trkpt>
      <trkpt lat="69.63939" lon="18.43088">
        <ele>80.973706</ele>
        <time>2020-08-26T11:47:10.832Z</time>
      </trkpt>
      <trkpt lat="69.63933" lon="18.43113">
        <ele>81.413727</ele>
        <time>2020-08-26T11:47:15.855Z</time>
      </trkpt>
      <trkpt lat="69.63927" lon="18.43133">
        <ele>81.800575</ele>
        <time>2020-08-26T11:47:19.838Z</time>
      </trkpt>
      <trkpt lat="69.63919" lon="18.43156">
        <ele>82.244143</ele>
        <time>2020-08-26T11:47:24.878Z</time>
      </trkpt>
      <trkpt lat="69.63913" lon="18.43179">
        <ele>82.655504</ele>
        <time>2020-08-26T11:47:29.831Z</time>
      </trkpt>
      <trkpt lat="69.63907" lon="18.432">
        <ele>83.059141</ele>
        <time>2020-08-26T11:47:34.848Z</time>
      </trkpt>
      <trkpt lat="69.63901" lon="18.43221">
        <ele>83.452486</ele>
        <time>2020-08-26T11:47:38.832Z</time>
      </trkpt>
      <trkpt lat="69.63894" lon="18.43247">
        <ele>83.902697</ele>
        <time>2020-08-26T11:47:43.823Z</time>
      </trkpt>
      <trkpt lat="69.63887" lon="18.43269">
        <ele>84.331644</ele>
        <time>2020-08-26T11:47:48.829Z</time>
      </trkpt>
      <trkpt lat="69.63881" lon="18.43293">
        <ele>84.762373</ele>
        <time>2020-08-26T11:47:53.837Z</time>
      </trkpt>
      <trkpt lat="69.63874" lon="18.43315">
        <ele>85.194082</ele>
        <time>2020-08-26T11:47:58.835Z</time>
      </trkpt>
      <trkpt lat="69.63867" lon="18.43337">
        <ele>85.615662</ele>
        <time>2020-08-26T11:48:03.831Z</time>
      </trkpt>
      <trkpt lat="69.6386" lon="18.43358">
        <ele>86.02154</ele>
        <time>2020-08-26T11:48:08.862Z</time>
      </trkpt>
      <trkpt lat="69.63853" lon="18.43383">
        <ele>86.483943</ele>
        <time>2020-08-26T11:48:13.853Z</time>
      </trkpt>
      <trkpt lat="69.63847" lon="18.43406">
        <ele>86.889568</ele>
        <time>2020-08-26T11:48:17.875Z</time>
      </trkpt>
      <trkpt lat="69.63841" lon="18.43427">
        <ele>87.286374</ele>
        <time>2020-08-26T11:48:21.835Z</time>
      </trkpt>
      <trkpt lat="69.63833" lon="18.43448">
        <ele>87.717284</ele>
        <time>2020-08-26T11:48:25.829Z</time>
      </trkpt>
      <trkpt lat="69.63827" lon="18.43469">
        <ele>88.174768</ele>
        <time>2020-08-26T11:48:29.855Z</time>
      </trkpt>
      <trkpt lat="69.63819" lon="18.4349">
        <ele>89.093503</ele>
        <time>2020-08-26T11:48:34.832Z</time>
      </trkpt>
      <trkpt lat="69.63813" lon="18.43509">
        <ele>89.910101</ele>
        <time>2020-08-26T11:48:39.861Z</time>
      </trkpt>
      <trkpt lat="69.63805" lon="18.4353">
        <ele>90.833169</ele>
        <time>2020-08-26T11:48:45.839Z</time>
      </trkpt>
      <trkpt lat="69.63798" lon="18.4355">
        <ele>91.726318</ele>
        <time>2020-08-26T11:48:51.825Z</time>
      </trkpt>
      <trkpt lat="69.63792" lon="18.43574">
        <ele>92.656127</ele>
        <time>2020-08-26T11:48:58.835Z</time>
      </trkpt>
      <trkpt lat="69.63784" lon="18.43593">
        <ele>93.554207</ele>
        <time>2020-08-26T11:49:04.850Z</time>
      </trkpt>
      <trkpt lat="69.63777" lon="18.43612">
        <ele>94.409438</ele>
        <time>2020-08-26T11:49:10.837Z</time>
      </trkpt>
      <trkpt lat="69.6377" lon="18.43634">
        <ele>95.289728</ele>
        <time>2020-08-26T11:49:17.832Z</time>
      </trkpt>
      <trkpt lat="69.63762" lon="18.43651">
        <ele>96.174278</ele>
        <time>2020-08-26T11:49:24.829Z</time>
      </trkpt>
      <trkpt lat="69.63756" lon="18.43671">
        <ele>96.986821</ele>
        <time>2020-08-26T11:49:30.840Z</time>
      </trkpt>
      <trkpt lat="69.63749" lon="18.43686">
        <ele>97.790883</ele>
        <time>2020-08-26T11:49:37.842Z</time>
      </trkpt>
      <trkpt lat="69.63742" lon="18.43704">
        <ele>98.624839</ele>
        <time>2020-08-26T11:49:44.849Z</time>
      </trkpt>
      <trkpt lat="69.63734" lon="18.4372">
        <ele>99.489842</ele>
        <time>2020-08-26T11:49:52.831Z</time>
      </trkpt>
      <trkpt lat="69.63726" lon="18.43739">
        <ele>100.383433</ele>
        <time>2020-08-26T11:49:59.861Z</time>
      </trkpt>
      <trkpt lat="69.63719" lon="18.43759">
        <ele>101.268433</ele>
        <time>2020-08-26T11:50:05.842Z</time>
      </trkpt>
      <trkpt lat="69.63714" lon="18.43782">
        <ele>102.1036</ele>
        <time>2020-08-26T11:50:11.843Z</time>
      </trkpt>
      <trkpt lat="69.63707" lon="18.438">
        <ele>102.964088</ele>
        <time>2020-08-26T11:50:19.883Z</time>
      </trkpt>
      <trkpt lat="69.637" lon="18.43821">
        <ele>103.810435</ele>
        <time>2020-08-26T11:50:25.838Z</time>
      </trkpt>
      <trkpt lat="69.63695" lon="18.43847">
        <ele>104.463201</ele>
        <time>2020-08-26T11:50:32.835Z</time>
      </trkpt>
      <trkpt lat="69.6369" lon="18.4387">
        <ele>105.005791</ele>
        <time>2020-08-26T11:50:38.837Z</time>
      </trkpt>
      <trkpt lat="69.63685" lon="18.43892">
        <ele>105.528353</ele>
        <time>2020-08-26T11:50:44.855Z</time>
      </trkpt>
      <trkpt lat="69.6368" lon="18.43916">
        <ele>106.065927</ele>
        <time>2020-08-26T11:50:51.840Z</time>
      </trkpt>
      <trkpt lat="69.63676" lon="18.43939">
        <ele>106.580224</ele>
        <time>2020-08-26T11:50:57.837Z</time>
      </trkpt>
      <trkpt lat="69.63671" lon="18.43963">
        <ele>107.103157</ele>
        <time>2020-08-26T11:51:03.841Z</time>
      </trkpt>
      <trkpt lat="69.63667" lon="18.43988">
        <ele>107.635741</ele>
        <time>2020-08-26T11:51:10.838Z</time>
      </trkpt>
      <trkpt lat="69.63664" lon="18.44013">
        <ele>108.17417</ele>
        <time>2020-08-26T11:51:17.823Z</time>
      </trkpt>
      <trkpt lat="69.6366" lon="18.44039">
        <ele>108.710113</ele>
        <time>2020-08-26T11:51:23.832Z</time>
      </trkpt>
      <trkpt lat="69.63657" lon="18.44067">
        <ele>109.277409</ele>
        <time>2020-08-26T11:51:29.836Z</time>
      </trkpt>
      <trkpt lat="69.63656" lon="18.44095">
        <ele>109.822458</ele>
        <time>2020-08-26T11:51:35.837Z</time>
      </trkpt>
      <trkpt lat="69.63654" lon="18.44124">
        <ele>110.415363</ele>
        <time>2020-08-26T11:51:41.839Z</time>
      </trkpt>
      <trkpt lat="69.63651" lon="18.44152">
        <ele>110.984805</ele>
        <time>2020-08-26T11:51:47.831Z</time>
      </trkpt>
      <trkpt lat="69.63648" lon="18.44183">
        <ele>111.601369</ele>
        <time>2020-08-26T11:51:52.850Z</time>
      </trkpt>
      <trkpt lat="69.63646" lon="18.44212">
        <ele>112.175178</ele>
        <time>2020-08-26T11:51:56.836Z</time>
      </trkpt>
      <trkpt lat="69.63643" lon="18.44239">
        <ele>112.724572</ele>
        <time>2020-08-26T11:52:00.830Z</time>
      </trkpt>
      <trkpt lat="69.63639" lon="18.44266">
        <ele>113.293878</ele>
        <time>2020-08-26T11:52:04.851Z</time>
      </trkpt>
      <trkpt lat="69.63636" lon="18.44296">
        <ele>113.900169</ele>
        <time>2020-08-26T11:52:08.832Z</time>
      </trkpt>
      <trkpt lat="69.63634" lon="18.44326">
        <ele>114.187363</ele>
        <time>2020-08-26T11:52:12.839Z</time>
      </trkpt>
      <trkpt lat="69.63631" lon="18.44356">
        <ele>114.32757</ele>
        <time>2020-08-26T11:52:16.872Z</time>
      </trkpt>
      <trkpt lat="69.63628" lon="18.44388">
        <ele>114.476068</ele>
        <time>2020-08-26T11:52:20.855Z</time>
      </trkpt>
      <trkpt lat="69.63625" lon="18.44418">
        <ele>114.618762</ele>
        <time>2020-08-26T11:52:24.836Z</time>
      </trkpt>
      <trkpt lat="69.63622" lon="18.44449">
        <ele>114.761527</ele>
        <time>2020-08-26T11:52:28.852Z</time>
      </trkpt>
      <trkpt lat="69.63619" lon="18.44479">
        <ele>114.900429</ele>
        <time>2020-08-26T11:52:32.823Z</time>
      </trkpt>
      <trkpt lat="69.63617" lon="18.44506">
        <ele>115.027138</ele>
        <time>2020-08-26T11:52:36.869Z</time>
      </trkpt>
      <trkpt lat="69.63616" lon="18.44532">
        <ele>115.143611</ele>
        <time>2020-08-26T11:52:41.834Z</time>
      </trkpt>
      <trkpt lat="69.63617" lon="18.44561">
        <ele>115.274115</ele>
        <time>2020-08-26T11:52:46.828Z</time>
      </trkpt>
      <trkpt lat="69.63617" lon="18.44591">
        <ele>115.406342</ele>
        <time>2020-08-26T11:52:52.845Z</time>
      </trkpt>
      <trkpt lat="69.63617" lon="18.44621">
        <ele>115.541912</ele>
        <time>2020-08-26T11:52:58.854Z</time>
      </trkpt>
      <trkpt lat="69.6362" lon="18.4465">
        <ele>115.678107</ele>
        <time>2020-08-26T11:53:03.824Z</time>
      </trkpt>
      <trkpt lat="69.63623" lon="18.44681">
        <ele>115.820759</ele>
        <time>2020-08-26T11:53:07.853Z</time>
      </trkpt>
      <trkpt lat="69.63626" lon="18.44713">
        <ele>115.970215</ele>
        <time>2020-08-26T11:53:11.839Z</time>
      </trkpt>
      <trkpt lat="69.6363" lon="18.44738">
        <ele>116.094537</ele>
        <time>2020-08-26T11:53:14.839Z</time>
      </trkpt>
      <trkpt lat="69.63635" lon="18.44766">
        <ele>116.241341</ele>
        <time>2020-08-26T11:53:17.859Z</time>
      </trkpt>
      <trkpt lat="69.63642" lon="18.44796">
        <ele>116.401171</ele>
        <time>2020-08-26T11:53:20.839Z</time>
      </trkpt>
      <trkpt lat="69.63649" lon="18.44829">
        <ele>116.595148</ele>
        <time>2020-08-26T11:53:23.845Z</time>
      </trkpt>
      <trkpt lat="69.63657" lon="18.44859">
        <ele>116.780479</ele>
        <time>2020-08-26T11:53:26.852Z</time>
      </trkpt>
      <trkpt lat="69.63662" lon="18.44886">
        <ele>116.944402</ele>
        <time>2020-08-26T11:53:29.851Z</time>
      </trkpt>
      <trkpt lat="69.63668" lon="18.44913">
        <ele>117.101714</ele>
        <time>2020-08-26T11:53:32.865Z</time>
      </trkpt>
      <trkpt lat="69.63673" lon="18.44937">
        <ele>117.246571</ele>
        <time>2020-08-26T11:53:35.865Z</time>
      </trkpt>
      <trkpt lat="69.63679" lon="18.44962">
        <ele>117.397799</ele>
        <time>2020-08-26T11:53:38.866Z</time>
      </trkpt>
      <trkpt lat="69.63684" lon="18.44987">
        <ele>117.544277</ele>
        <time>2020-08-26T11:53:41.845Z</time>
      </trkpt>
      <trkpt lat="69.63689" lon="18.45009">
        <ele>117.676685</ele>
        <time>2020-08-26T11:53:44.875Z</time>
      </trkpt>
      <trkpt lat="69.63694" lon="18.45037">
        <ele>117.839968</ele>
        <time>2020-08-26T11:53:48.823Z</time>
      </trkpt>
      <trkpt lat="69.637" lon="18.45057">
        <ele>117.975497</ele>
        <time>2020-08-26T11:53:51.846Z</time>
      </trkpt>
      <trkpt lat="69.63706" lon="18.45079">
        <ele>118.110545</ele>
        <time>2020-08-26T11:53:54.854Z</time>
      </trkpt>
      <trkpt lat="69.63711" lon="18.45101">
        <ele>118.248405</ele>
        <time>2020-08-26T11:53:57.868Z</time>
      </trkpt>
      <trkpt lat="69.63717" lon="18.45124">
        <ele>118.39214</ele>
        <time>2020-08-26T11:54:00.842Z</time>
      </trkpt>
      <trkpt lat="69.63722" lon="18.45147">
        <ele>118.527113</ele>
        <time>2020-08-26T11:54:03.835Z</time>
      </trkpt>
      <trkpt lat="69.63727" lon="18.45173">
        <ele>118.683246</ele>
        <time>2020-08-26T11:54:07.845Z</time>
      </trkpt>
      <trkpt lat="69.63733" lon="18.45202">
        <ele>118.852152</ele>
        <time>2020-08-26T11:54:11.851Z</time>
      </trkpt>
      <trkpt lat="69.63738" lon="18.45226">
        <ele>118.991818</ele>
        <time>2020-08-26T11:54:14.840Z</time>
      </trkpt>
      <trkpt lat="69.63743" lon="18.4525">
        <ele>119.245395</ele>
        <time>2020-08-26T11:54:17.832Z</time>
      </trkpt>
      <trkpt lat="69.63748" lon="18.45275">
        <ele>119.561321</ele>
        <time>2020-08-26T11:54:20.832Z</time>
      </trkpt>
      <trkpt lat="69.63754" lon="18.45299">
        <ele>119.870941</ele>
        <time>2020-08-26T11:54:23.849Z</time>
      </trkpt>
      <trkpt lat="69.63761" lon="18.45327">
        <ele>120.227917</ele>
        <time>2020-08-26T11:54:27.833Z</time>
      </trkpt>
      <trkpt lat="69.63765" lon="18.45349">
        <ele>120.50391</ele>
        <time>2020-08-26T11:54:30.878Z</time>
      </trkpt>
      <trkpt lat="69.63772" lon="18.45378">
        <ele>120.868938</ele>
        <time>2020-08-26T11:54:34.836Z</time>
      </trkpt>
      <trkpt lat="69.63776" lon="18.45402">
        <ele>121.152359</ele>
        <time>2020-08-26T11:54:37.862Z</time>
      </trkpt>
      <trkpt lat="69.63781" lon="18.45425">
        <ele>121.438141</ele>
        <time>2020-08-26T11:54:40.849Z</time>
      </trkpt>
      <trkpt lat="69.63786" lon="18.45446">
        <ele>121.71379</ele>
        <time>2020-08-26T11:54:43.838Z</time>
      </trkpt>
      <trkpt lat="69.63791" lon="18.45472">
        <ele>122.033959</ele>
        <time>2020-08-26T11:54:47.830Z</time>
      </trkpt>
      <trkpt lat="69.63797" lon="18.45497">
        <ele>122.362873</ele>
        <time>2020-08-26T11:54:51.831Z</time>
      </trkpt>
      <trkpt lat="69.63802" lon="18.45519">
        <ele>122.640472</ele>
        <time>2020-08-26T11:54:54.859Z</time>
      </trkpt>
      <trkpt lat="69.63807" lon="18.45545">
        <ele>122.956651</ele>
        <time>2020-08-26T11:54:57.840Z</time>
      </trkpt>
      <trkpt lat="69.63813" lon="18.45567">
        <ele>123.239163</ele>
        <time>2020-08-26T11:55:00.828Z</time>
      </trkpt>
      <trkpt lat="69.63818" lon="18.45589">
        <ele>123.529727</ele>
        <time>2020-08-26T11:55:03.850Z</time>
      </trkpt>
      <trkpt lat="69.63824" lon="18.45617">
        <ele>123.881735</ele>
        <time>2020-08-26T11:55:07.836Z</time>
      </trkpt>
      <trkpt lat="69.6383" lon="18.45646">
        <ele>124.247673</ele>
        <time>2020-08-26T11:55:11.854Z</time>
      </trkpt>
      <trkpt lat="69.63836" lon="18.45667">
        <ele>124.52324</ele>
        <time>2020-08-26T11:55:14.841Z</time>
      </trkpt>
      <trkpt lat="69.63841" lon="18.45689">
        <ele>124.673333</ele>
        <time>2020-08-26T11:55:17.849Z</time>
      </trkpt>
      <trkpt lat="69.63847" lon="18.45717">
        <ele>124.853616</ele>
        <time>2020-08-26T11:55:21.863Z</time>
      </trkpt>
      <trkpt lat="69.63852" lon="18.45739">
        <ele>124.992024</ele>
        <time>2020-08-26T11:55:24.837Z</time>
      </trkpt>
      <trkpt lat="69.63857" lon="18.45762">
        <ele>125.134622</ele>
        <time>2020-08-26T11:55:27.873Z</time>
      </trkpt>
      <trkpt lat="69.63863" lon="18.45785">
        <ele>125.283476</ele>
        <time>2020-08-26T11:55:30.851Z</time>
      </trkpt>
      <trkpt lat="69.63867" lon="18.4581">
        <ele>125.431644</ele>
        <time>2020-08-26T11:55:33.839Z</time>
      </trkpt>
      <trkpt lat="69.63873" lon="18.45838">
        <ele>125.610314</ele>
        <time>2020-08-26T11:55:37.858Z</time>
      </trkpt>
      <trkpt lat="69.63879" lon="18.45861">
        <ele>125.757721</ele>
        <time>2020-08-26T11:55:40.830Z</time>
      </trkpt>
      <trkpt lat="69.63884" lon="18.45891">
        <ele>125.93606</ele>
        <time>2020-08-26T11:55:44.840Z</time>
      </trkpt>
      <trkpt lat="69.6389" lon="18.45919">
        <ele>126.106419</ele>
        <time>2020-08-26T11:55:48.848Z</time>
      </trkpt>
      <trkpt lat="69.63896" lon="18.45942">
        <ele>126.264026</ele>
        <time>2020-08-26T11:55:52.864Z</time>
      </trkpt>
      <trkpt lat="69.63903" lon="18.45966">
        <ele>126.430808</ele>
        <time>2020-08-26T11:55:56.830Z</time>
      </trkpt>
      <trkpt lat="69.63909" lon="18.45995">
        <ele>126.610053</ele>
        <time>2020-08-26T11:56:00.876Z</time>
      </trkpt>
      <trkpt lat="69.63914" lon="18.4602">
        <ele>126.764334</ele>
        <time>2020-08-26T11:56:04.829Z</time>
      </trkpt>
      <trkpt lat="69.6392" lon="18.46045">
        <ele>126.920909</ele>
        <time>2020-08-26T11:56:08.855Z</time>
      </trkpt>
      <trkpt lat="69.63925" lon="18.46073">
        <ele>127.091181</ele>
        <time>2020-08-26T11:56:12.871Z</time>
      </trkpt>
      <trkpt lat="69.63932" lon="18.46098">
        <ele>127.25558</ele>
        <time>2020-08-26T11:56:16.860Z</time>
      </trkpt>
      <trkpt lat="69.63937" lon="18.46127">
        <ele>127.230221</ele>
        <time>2020-08-26T11:56:20.871Z</time>
      </trkpt>
      <trkpt lat="69.63943" lon="18.46155">
        <ele>127.156401</ele>
        <time>2020-08-26T11:56:24.828Z</time>
      </trkpt>
      <trkpt lat="69.63949" lon="18.46182">
        <ele>127.086097</ele>
        <time>2020-08-26T11:56:28.842Z</time>
      </trkpt>
      <trkpt lat="69.63954" lon="18.46208">
        <ele>127.01774</ele>
        <time>2020-08-26T11:56:33.836Z</time>
      </trkpt>
      <trkpt lat="69.63958" lon="18.46231">
        <ele>126.958562</ele>
        <time>2020-08-26T11:56:38.834Z</time>
      </trkpt>
      <trkpt lat="69.63963" lon="18.46258">
        <ele>126.890114</ele>
        <time>2020-08-26T11:56:44.848Z</time>
      </trkpt>
      <trkpt lat="69.63968" lon="18.46282">
        <ele>126.82617</ele>
        <time>2020-08-26T11:56:50.841Z</time>
      </trkpt>
      <trkpt lat="69.63973" lon="18.46308">
        <ele>126.757624</ele>
        <time>2020-08-26T11:56:57.828Z</time>
      </trkpt>
      <trkpt lat="69.63979" lon="18.4633">
        <ele>126.695426</ele>
        <time>2020-08-26T11:57:02.844Z</time>
      </trkpt>
      <trkpt lat="69.63984" lon="18.46352">
        <ele>126.633818</ele>
        <time>2020-08-26T11:57:07.850Z</time>
      </trkpt>
      <trkpt lat="69.63991" lon="18.46372">
        <ele>126.572631</ele>
        <time>2020-08-26T11:57:12.852Z</time>
      </trkpt>
      <trkpt lat="69.63998" lon="18.46394">
        <ele>126.504764</ele>
        <time>2020-08-26T11:57:17.872Z</time>
      </trkpt>
      <trkpt lat="69.64006" lon="18.46413">
        <ele>126.434043</ele>
        <time>2020-08-26T11:57:22.855Z</time>
      </trkpt>
      <trkpt lat="69.64014" lon="18.46434">
        <ele>126.363684</ele>
        <time>2020-08-26T11:57:27.851Z</time>
      </trkpt>
      <trkpt lat="69.64024" lon="18.46453">
        <ele>126.284408</ele>
        <time>2020-08-26T11:57:31.870Z</time>
      </trkpt>
      <trkpt lat="69.64034" lon="18.4647">
        <ele>126.212089</ele>
        <time>2020-08-26T11:57:34.836Z</time>
      </trkpt>
      <trkpt lat="69.64045" lon="18.46485">
        <ele>126.131326</ele>
        <time>2020-08-26T11:57:37.847Z</time>
      </trkpt>
      <trkpt lat="69.64057" lon="18.46502">
        <ele>125.469301</ele>
        <time>2020-08-26T11:57:40.852Z</time>
      </trkpt>
      <trkpt lat="69.64069" lon="18.46518">
        <ele>124.691797</ele>
        <time>2020-08-26T11:57:43.839Z</time>
      </trkpt>
      <trkpt lat="69.64081" lon="18.46535">
        <ele>123.894759</ele>
        <time>2020-08-26T11:57:46.832Z</time>
      </trkpt>
      <trkpt lat="69.6409" lon="18.46548">
        <ele>123.309612</ele>
        <time>2020-08-26T11:57:48.852Z</time>
      </trkpt>
      <trkpt lat="69.64099" lon="18.46562">
        <ele>122.670195</ele>
        <time>2020-08-26T11:57:50.833Z</time>
      </trkpt>
      <trkpt lat="69.64109" lon="18.46577">
        <ele>121.996654</ele>
        <time>2020-08-26T11:57:52.855Z</time>
      </trkpt>
      <trkpt lat="69.6412" lon="18.46593">
        <ele>121.276875</ele>
        <time>2020-08-26T11:57:54.838Z</time>
      </trkpt>
      <trkpt lat="69.64132" lon="18.4661">
        <ele>120.499392</ele>
        <time>2020-08-26T11:57:56.855Z</time>
      </trkpt>
      <trkpt lat="69.64145" lon="18.46627">
        <ele>119.664313</ele>
        <time>2020-08-26T11:57:58.863Z</time>
      </trkpt>
      <trkpt lat="69.64157" lon="18.46644">
        <ele>118.843519</ele>
        <time>2020-08-26T11:58:00.838Z</time>
      </trkpt>
      <trkpt lat="69.64171" lon="18.46661">
        <ele>117.968561</ele>
        <time>2020-08-26T11:58:02.882Z</time>
      </trkpt>
      <trkpt lat="69.64184" lon="18.46679">
        <ele>117.099716</ele>
        <time>2020-08-26T11:58:04.859Z</time>
      </trkpt>
      <trkpt lat="69.64198" lon="18.46699">
        <ele>116.192502</ele>
        <time>2020-08-26T11:58:06.837Z</time>
      </trkpt>
      <trkpt lat="69.64212" lon="18.4672">
        <ele>115.74303</ele>
        <time>2020-08-26T11:58:08.849Z</time>
      </trkpt>
      <trkpt lat="69.64225" lon="18.46739">
        <ele>116.895742</ele>
        <time>2020-08-26T11:58:10.843Z</time>
      </trkpt>
      <trkpt lat="69.64238" lon="18.46758">
        <ele>117.989589</ele>
        <time>2020-08-26T11:58:12.846Z</time>
      </trkpt>
      <trkpt lat="69.6425" lon="18.46775">
        <ele>118.987829</ele>
        <time>2020-08-26T11:58:14.849Z</time>
      </trkpt>
      <trkpt lat="69.64261" lon="18.46791">
        <ele>119.945193</ele>
        <time>2020-08-26T11:58:16.835Z</time>
      </trkpt>
      <trkpt lat="69.64272" lon="18.46807">
        <ele>120.831173</ele>
        <time>2020-08-26T11:58:18.866Z</time>
      </trkpt>
      <trkpt lat="69.64282" lon="18.46821">
        <ele>121.675882</ele>
        <time>2020-08-26T11:58:20.864Z</time>
      </trkpt>
      <trkpt lat="69.64292" lon="18.46835">
        <ele>122.522946</ele>
        <time>2020-08-26T11:58:22.825Z</time>
      </trkpt>
      <trkpt lat="69.64302" lon="18.46849">
        <ele>123.360742</ele>
        <time>2020-08-26T11:58:24.839Z</time>
      </trkpt>
      <trkpt lat="69.64311" lon="18.46861">
        <ele>124.127</ele>
        <time>2020-08-26T11:58:26.834Z</time>
      </trkpt>
      <trkpt lat="69.64322" lon="18.46878">
        <ele>125.054167</ele>
        <time>2020-08-26T11:58:29.829Z</time>
      </trkpt>
      <trkpt lat="69.6433" lon="18.46891">
        <ele>125.800055</ele>
        <time>2020-08-26T11:58:32.852Z</time>
      </trkpt>
      <trkpt lat="69.64339" lon="18.46902">
        <ele>126.512656</ele>
        <time>2020-08-26T11:58:35.863Z</time>
      </trkpt>
      <trkpt lat="69.64348" lon="18.46914">
        <ele>127.242455</ele>
        <time>2020-08-26T11:58:38.828Z</time>
      </trkpt>
      <trkpt lat="69.64356" lon="18.46925">
        <ele>127.92804</ele>
        <time>2020-08-26T11:58:41.876Z</time>
      </trkpt>
      <trkpt lat="69.64366" lon="18.46938">
        <ele>128.791634</ele>
        <time>2020-08-26T11:58:45.851Z</time>
      </trkpt>
      <trkpt lat="69.64377" lon="18.46952">
        <ele>129.655816</ele>
        <time>2020-08-26T11:58:49.842Z</time>
      </trkpt>
      <trkpt lat="69.64386" lon="18.46963">
        <ele>130.367608</ele>
        <time>2020-08-26T11:58:52.854Z</time>
      </trkpt>
      <trkpt lat="69.64395" lon="18.46973">
        <ele>131.081555</ele>
        <time>2020-08-26T11:58:55.849Z</time>
      </trkpt>
      <trkpt lat="69.64404" lon="18.46983">
        <ele>131.783197</ele>
        <time>2020-08-26T11:58:58.831Z</time>
      </trkpt>
      <trkpt lat="69.64414" lon="18.46999">
        <ele>132.638163</ele>
        <time>2020-08-26T11:59:02.845Z</time>
      </trkpt>
      <trkpt lat="69.64423" lon="18.47009">
        <ele>133.318394</ele>
        <time>2020-08-26T11:59:05.838Z</time>
      </trkpt>
      <trkpt lat="69.64432" lon="18.47025">
        <ele>134.145722</ele>
        <time>2020-08-26T11:59:09.845Z</time>
      </trkpt>
      <trkpt lat="69.64442" lon="18.47039">
        <ele>134.968214</ele>
        <time>2020-08-26T11:59:13.867Z</time>
      </trkpt>
      <trkpt lat="69.64451" lon="18.47054">
        <ele>135.708677</ele>
        <time>2020-08-26T11:59:17.832Z</time>
      </trkpt>
      <trkpt lat="69.64461" lon="18.47067">
        <ele>136.51561</ele>
        <time>2020-08-26T11:59:21.876Z</time>
      </trkpt>
      <trkpt lat="69.64469" lon="18.4708">
        <ele>137.223219</ele>
        <time>2020-08-26T11:59:24.838Z</time>
      </trkpt>
      <trkpt lat="69.64478" lon="18.47093">
        <ele>137.943354</ele>
        <time>2020-08-26T11:59:27.829Z</time>
      </trkpt>
      <trkpt lat="69.64487" lon="18.47105">
        <ele>138.663973</ele>
        <time>2020-08-26T11:59:30.890Z</time>
      </trkpt>
      <trkpt lat="69.64495" lon="18.47116">
        <ele>139.359151</ele>
        <time>2020-08-26T11:59:33.836Z</time>
      </trkpt>
      <trkpt lat="69.64505" lon="18.47127">
        <ele>140.10271</ele>
        <time>2020-08-26T11:59:36.853Z</time>
      </trkpt>
      <trkpt lat="69.64514" lon="18.47139">
        <ele>140.883482</ele>
        <time>2020-08-26T11:59:39.849Z</time>
      </trkpt>
      <trkpt lat="69.64524" lon="18.47151">
        <ele>141.644036</ele>
        <time>2020-08-26T11:59:42.842Z</time>
      </trkpt>
      <trkpt lat="69.64534" lon="18.47168">
        <ele>142.363143</ele>
        <time>2020-08-26T11:59:46.858Z</time>
      </trkpt>
      <trkpt lat="69.64542" lon="18.47185">
        <ele>142.453781</ele>
        <time>2020-08-26T11:59:49.848Z</time>
      </trkpt>
      <trkpt lat="69.64551" lon="18.47207">
        <ele>142.558798</ele>
        <time>2020-08-26T11:59:52.864Z</time>
      </trkpt>
      <trkpt lat="69.6456" lon="18.47231">
        <ele>142.669689</ele>
        <time>2020-08-26T11:59:55.834Z</time>
      </trkpt>
      <trkpt lat="69.64567" lon="18.47257">
        <ele>142.778159</ele>
        <time>2020-08-26T11:59:58.852Z</time>
      </trkpt>
      <trkpt lat="69.64574" lon="18.47286">
        <ele>142.887626</ele>
        <time>2020-08-26T12:00:01.830Z</time>
      </trkpt>
      <trkpt lat="69.64578" lon="18.47319">
        <ele>143.002002</ele>
        <time>2020-08-26T12:00:04.829Z</time>
      </trkpt>
      <trkpt lat="69.64583" lon="18.47352">
        <ele>143.113221</ele>
        <time>2020-08-26T12:00:07.866Z</time>
      </trkpt>
      <trkpt lat="69.64587" lon="18.47384">
        <ele>143.221667</ele>
        <time>2020-08-26T12:00:10.844Z</time>
      </trkpt>
      <trkpt lat="69.64589" lon="18.47413">
        <ele>143.316044</ele>
        <time>2020-08-26T12:00:13.821Z</time>
      </trkpt>
      <trkpt lat="69.64591" lon="18.47445">
        <ele>143.420067</ele>
        <time>2020-08-26T12:00:17.837Z</time>
      </trkpt>
      <trkpt lat="69.64595" lon="18.47473">
        <ele>143.515925</ele>
        <time>2020-08-26T12:00:22.846Z</time>
      </trkpt>
      <trkpt lat="69.646" lon="18.47498">
        <ele>143.60874</ele>
        <time>2020-08-26T12:00:27.837Z</time>
      </trkpt>
      <trkpt lat="69.64605" lon="18.47524">
        <ele>143.69896</ele>
        <time>2020-08-26T12:00:32.848Z</time>
      </trkpt>
      <trkpt lat="69.64613" lon="18.47544">
        <ele>143.798236</ele>
        <time>2020-08-26T12:00:37.835Z</time>
      </trkpt>
      <trkpt lat="69.64619" lon="18.47565">
        <ele>143.882834</ele>
        <time>2020-08-26T12:00:42.835Z</time>
      </trkpt>
      <trkpt lat="69.64624" lon="18.47587">
        <ele>143.969511</ele>
        <time>2020-08-26T12:00:48.838Z</time>
      </trkpt>
      <trkpt lat="69.64632" lon="18.47607">
        <ele>144.619981</ele>
        <time>2020-08-26T12:00:53.877Z</time>
      </trkpt>
      <trkpt lat="69.64639" lon="18.47627">
        <ele>145.448578</ele>
        <time>2020-08-26T12:00:59.834Z</time>
      </trkpt>
      <trkpt lat="69.64647" lon="18.47647">
        <ele>146.257004</ele>
        <time>2020-08-26T12:01:05.855Z</time>
      </trkpt>
      <trkpt lat="69.64654" lon="18.47665">
        <ele>146.980389</ele>
        <time>2020-08-26T12:01:11.850Z</time>
      </trkpt>
      <trkpt lat="69.64663" lon="18.47683">
        <ele>147.775152</ele>
        <time>2020-08-26T12:01:17.848Z</time>
      </trkpt>
      <trkpt lat="69.64668" lon="18.47704">
        <ele>148.496592</ele>
        <time>2020-08-26T12:01:23.834Z</time>
      </trkpt>
      <trkpt lat="69.64675" lon="18.47725">
        <ele>149.27444</ele>
        <time>2020-08-26T12:01:30.850Z</time>
      </trkpt>
      <trkpt lat="69.64681" lon="18.47746">
        <ele>149.977851</ele>
        <time>2020-08-26T12:01:37.878Z</time>
      </trkpt>
      <trkpt lat="69.64687" lon="18.47765">
        <ele>150.695263</ele>
        <time>2020-08-26T12:01:44.845Z</time>
      </trkpt>
      <trkpt lat="69.64693" lon="18.47788">
        <ele>151.475557</ele>
        <time>2020-08-26T12:01:51.853Z</time>
      </trkpt>
      <trkpt lat="69.647" lon="18.47809">
        <ele>152.213542</ele>
        <time>2020-08-26T12:01:58.883Z</time>
      </trkpt>
      <trkpt lat="69.64707" lon="18.47829">
        <ele>152.974992</ele>
        <time>2020-08-26T12:02:04.833Z</time>
      </trkpt>
      <trkpt lat="69.64715" lon="18.47844">
        <ele>153.733636</ele>
        <time>2020-08-26T12:02:10.836Z</time>
      </trkpt>
      <trkpt lat="69.6472" lon="18.47866">
        <ele>154.438412</ele>
        <time>2020-08-26T12:02:16.844Z</time>
      </trkpt>
      <trkpt lat="69.64728" lon="18.47885">
        <ele>155.239696</ele>
        <time>2020-08-26T12:02:22.843Z</time>
      </trkpt>
      <trkpt lat="69.64735" lon="18.47901">
        <ele>155.950215</ele>
        <time>2020-08-26T12:02:28.838Z</time>
      </trkpt>
      <trkpt lat="69.64742" lon="18.47923">
        <ele>156.777463</ele>
        <time>2020-08-26T12:02:35.838Z</time>
      </trkpt>
      <trkpt lat="69.64748" lon="18.47944">
        <ele>157.504458</ele>
        <time>2020-08-26T12:02:42.835Z</time>
      </trkpt>
      <trkpt lat="69.64756" lon="18.47965">
        <ele>158.252576</ele>
        <time>2020-08-26T12:02:50.855Z</time>
      </trkpt>
      <trkpt lat="69.64763" lon="18.47985">
        <ele>158.923732</ele>
        <time>2020-08-26T12:02:56.866Z</time>
      </trkpt>
      <trkpt lat="69.6477" lon="18.48004">
        <ele>159.590124</ele>
        <time>2020-08-26T12:03:02.827Z</time>
      </trkpt>
      <trkpt lat="69.64777" lon="18.48021">
        <ele>160.211408</ele>
        <time>2020-08-26T12:03:08.870Z</time>
      </trkpt>
      <trkpt lat="69.64784" lon="18.48042">
        <ele>160.876351</ele>
        <time>2020-08-26T12:03:15.849Z</time>
      </trkpt>
      <trkpt lat="69.64791" lon="18.48062">
        <ele>161.558859</ele>
        <time>2020-08-26T12:03:22.854Z</time>
      </trkpt>
      <trkpt lat="69.64798" lon="18.48082">
        <ele>162.182991</ele>
        <time>2020-08-26T12:03:28.871Z</time>
      </trkpt>
      <trkpt lat="69.64804" lon="18.48101">
        <ele>162.788734</ele>
        <time>2020-08-26T12:03:34.854Z</time>
      </trkpt>
      <trkpt lat="69.64809" lon="18.48123">
        <ele>163.43327</ele>
        <time>2020-08-26T12:03:40.834Z</time>
      </trkpt>
      <trkpt lat="69.64816" lon="18.48144">
        <ele>164.12441</ele>
        <time>2020-08-26T12:03:47.855Z</time>
      </trkpt>
      <trkpt lat="69.64823" lon="18.48163">
        <ele>164.758195</ele>
        <time>2020-08-26T12:03:53.839Z</time>
      </trkpt>
      <trkpt lat="69.6483" lon="18.48183">
        <ele>165.437409</ele>
        <time>2020-08-26T12:04:00.857Z</time>
      </trkpt>
      <trkpt lat="69.64837" lon="18.48203">
        <ele>166.06845</ele>
        <time>2020-08-26T12:04:06.845Z</time>
      </trkpt>
      <trkpt lat="69.64844" lon="18.48222">
        <ele>166.724934</ele>
        <time>2020-08-26T12:04:12.824Z</time>
      </trkpt>
      <trkpt lat="69.64851" lon="18.48241">
        <ele>167.353864</ele>
        <time>2020-08-26T12:04:18.851Z</time>
      </trkpt>
      <trkpt lat="69.64858" lon="18.48262">
        <ele>168.052482</ele>
        <time>2020-08-26T12:04:25.838Z</time>
      </trkpt>
      <trkpt lat="69.64864" lon="18.48285">
        <ele>168.73601</ele>
        <time>2020-08-26T12:04:32.837Z</time>
      </trkpt>
      <trkpt lat="69.64872" lon="18.48305">
        <ele>169.439659</ele>
        <time>2020-08-26T12:04:38.848Z</time>
      </trkpt>
      <trkpt lat="69.6488" lon="18.48324">
        <ele>170.130201</ele>
        <time>2020-08-26T12:04:44.860Z</time>
      </trkpt>
      <trkpt lat="69.64886" lon="18.48345">
        <ele>170.879706</ele>
        <time>2020-08-26T12:04:50.843Z</time>
      </trkpt>
      <trkpt lat="69.64893" lon="18.48367">
        <ele>171.68335</ele>
        <time>2020-08-26T12:04:57.850Z</time>
      </trkpt>
      <trkpt lat="69.64901" lon="18.48387">
        <ele>172.506213</ele>
        <time>2020-08-26T12:05:03.883Z</time>
      </trkpt>
      <trkpt lat="69.64908" lon="18.48409">
        <ele>173.329637</ele>
        <time>2020-08-26T12:05:09.853Z</time>
      </trkpt>
      <trkpt lat="69.64914" lon="18.48433">
        <ele>174.12645</ele>
        <time>2020-08-26T12:05:14.875Z</time>
      </trkpt>
      <trkpt lat="69.64919" lon="18.48455">
        <ele>174.832501</ele>
        <time>2020-08-26T12:05:19.825Z</time>
      </trkpt>
      <trkpt lat="69.64924" lon="18.48477">
        <ele>175.536131</ele>
        <time>2020-08-26T12:05:24.869Z</time>
      </trkpt>
      <trkpt lat="69.64929" lon="18.485">
        <ele>176.266741</ele>
        <time>2020-08-26T12:05:29.849Z</time>
      </trkpt>
      <trkpt lat="69.64933" lon="18.48527">
        <ele>177.067902</ele>
        <time>2020-08-26T12:05:35.834Z</time>
      </trkpt>
      <trkpt lat="69.64937" lon="18.48551">
        <ele>177.763128</ele>
        <time>2020-08-26T12:05:40.859Z</time>
      </trkpt>
      <trkpt lat="69.64942" lon="18.48577">
        <ele>178.562436</ele>
        <time>2020-08-26T12:05:46.899Z</time>
      </trkpt>
      <trkpt lat="69.64944" lon="18.48602">
        <ele>179.271798</ele>
        <time>2020-08-26T12:05:51.839Z</time>
      </trkpt>
      <trkpt lat="69.64946" lon="18.48629">
        <ele>179.994193</ele>
        <time>2020-08-26T12:05:56.845Z</time>
      </trkpt>
      <trkpt lat="69.64947" lon="18.48656">
        <ele>180.732567</ele>
        <time>2020-08-26T12:06:01.872Z</time>
      </trkpt>
      <trkpt lat="69.64948" lon="18.48683">
        <ele>181.467093</ele>
        <time>2020-08-26T12:06:06.853Z</time>
      </trkpt>
      <trkpt lat="69.6495" lon="18.48711">
        <ele>182.245095</ele>
        <time>2020-08-26T12:06:12.869Z</time>
      </trkpt>
      <trkpt lat="69.64951" lon="18.48741">
        <ele>183.056262</ele>
        <time>2020-08-26T12:06:18.841Z</time>
      </trkpt>
      <trkpt lat="69.64952" lon="18.4877">
        <ele>183.842461</ele>
        <time>2020-08-26T12:06:24.846Z</time>
      </trkpt>
      <trkpt lat="69.64953" lon="18.488">
        <ele>184.367043</ele>
        <time>2020-08-26T12:06:30.836Z</time>
      </trkpt>
      <trkpt lat="69.64953" lon="18.48831">
        <ele>184.848571</ele>
        <time>2020-08-26T12:06:36.865Z</time>
      </trkpt>
      <trkpt lat="69.64952" lon="18.48857">
        <ele>185.272844</ele>
        <time>2020-08-26T12:06:41.843Z</time>
      </trkpt>
      <trkpt lat="69.64953" lon="18.48888">
        <ele>185.767378</ele>
        <time>2020-08-26T12:06:46.840Z</time>
      </trkpt>
      <trkpt lat="69.64952" lon="18.48917">
        <ele>186.220494</ele>
        <time>2020-08-26T12:06:50.860Z</time>
      </trkpt>
      <trkpt lat="69.64952" lon="18.48946">
        <ele>186.689271</ele>
        <time>2020-08-26T12:06:54.831Z</time>
      </trkpt>
      <trkpt lat="69.64953" lon="18.48977">
        <ele>187.186991</ele>
        <time>2020-08-26T12:06:58.843Z</time>
      </trkpt>
      <trkpt lat="69.64952" lon="18.49008">
        <ele>187.677175</ele>
        <time>2020-08-26T12:07:02.865Z</time>
      </trkpt>
      <trkpt lat="69.64951" lon="18.49037">
        <ele>188.142188</ele>
        <time>2020-08-26T12:07:06.855Z</time>
      </trkpt>
      <trkpt lat="69.64951" lon="18.49063">
        <ele>188.563948</ele>
        <time>2020-08-26T12:07:10.843Z</time>
      </trkpt>
      <trkpt lat="69.6495" lon="18.49089">
        <ele>188.982546</ele>
        <time>2020-08-26T12:07:14.851Z</time>
      </trkpt>
      <trkpt lat="69.64949" lon="18.49116">
        <ele>189.400849</ele>
        <time>2020-08-26T12:07:18.854Z</time>
      </trkpt>
      <trkpt lat="69.6495" lon="18.49143">
        <ele>189.841056</ele>
        <time>2020-08-26T12:07:22.831Z</time>
      </trkpt>
      <trkpt lat="69.6495" lon="18.4917">
        <ele>190.263612</ele>
        <time>2020-08-26T12:07:26.830Z</time>
      </trkpt>
      <trkpt lat="69.6495" lon="18.49199">
        <ele>190.725946</ele>
        <time>2020-08-26T12:07:30.851Z</time>
      </trkpt>
      <trkpt lat="69.64951" lon="18.4923">
        <ele>191.231115</ele>
        <time>2020-08-26T12:07:35.859Z</time>
      </trkpt>
      <trkpt lat="69.64951" lon="18.49257">
        <ele>191.652077</ele>
        <time>2020-08-26T12:07:39.902Z</time>
      </trkpt>
      <trkpt lat="69.64953" lon="18.49283">
        <ele>192.072403</ele>
        <time>2020-08-26T12:07:43.859Z</time>
      </trkpt>
      <trkpt lat="69.64953" lon="18.4931">
        <ele>192.185256</ele>
        <time>2020-08-26T12:07:47.878Z</time>
      </trkpt>
      <trkpt lat="69.64955" lon="18.49338">
        <ele>192.167095</ele>
        <time>2020-08-26T12:07:51.840Z</time>
      </trkpt>
      <trkpt lat="69.64956" lon="18.4937">
        <ele>192.146548</ele>
        <time>2020-08-26T12:07:55.921Z</time>
      </trkpt>
      <trkpt lat="69.64957" lon="18.49397">
        <ele>192.128642</ele>
        <time>2020-08-26T12:07:58.853Z</time>
      </trkpt>
      <trkpt lat="69.64959" lon="18.49431">
        <ele>192.106932</ele>
        <time>2020-08-26T12:08:01.851Z</time>
      </trkpt>
      <trkpt lat="69.6496" lon="18.49466">
        <ele>192.084452</ele>
        <time>2020-08-26T12:08:04.834Z</time>
      </trkpt>
      <trkpt lat="69.64962" lon="18.49502">
        <ele>192.060931</ele>
        <time>2020-08-26T12:08:07.839Z</time>
      </trkpt>
      <trkpt lat="69.64965" lon="18.49539">
        <ele>192.03649</ele>
        <time>2020-08-26T12:08:10.838Z</time>
      </trkpt>
      <trkpt lat="69.64968" lon="18.49574">
        <ele>192.013493</ele>
        <time>2020-08-26T12:08:13.832Z</time>
      </trkpt>
      <trkpt lat="69.6497" lon="18.49609">
        <ele>191.99074</ele>
        <time>2020-08-26T12:08:16.853Z</time>
      </trkpt>
      <trkpt lat="69.64972" lon="18.49645">
        <ele>191.96704</ele>
        <time>2020-08-26T12:08:19.857Z</time>
      </trkpt>
      <trkpt lat="69.64975" lon="18.49682">
        <ele>191.942959</ele>
        <time>2020-08-26T12:08:22.842Z</time>
      </trkpt>
      <trkpt lat="69.64977" lon="18.49719">
        <ele>191.919221</ele>
        <time>2020-08-26T12:08:25.845Z</time>
      </trkpt>
      <trkpt lat="69.64979" lon="18.49756">
        <ele>191.894979</ele>
        <time>2020-08-26T12:08:28.904Z</time>
      </trkpt>
      <trkpt lat="69.64982" lon="18.49794">
        <ele>191.870331</ele>
        <time>2020-08-26T12:08:31.840Z</time>
      </trkpt>
      <trkpt lat="69.64983" lon="18.4982">
        <ele>191.827023</ele>
        <time>2020-08-26T12:08:33.859Z</time>
      </trkpt>
      <trkpt lat="69.64985" lon="18.49846">
        <ele>191.772594</ele>
        <time>2020-08-26T12:08:35.899Z</time>
      </trkpt>
      <trkpt lat="69.64987" lon="18.49873">
        <ele>191.718476</ele>
        <time>2020-08-26T12:08:37.842Z</time>
      </trkpt>
      <trkpt lat="69.64989" lon="18.49901">
        <ele>191.66291</ele>
        <time>2020-08-26T12:08:39.876Z</time>
      </trkpt>
      <trkpt lat="69.64991" lon="18.49928">
        <ele>191.607935</ele>
        <time>2020-08-26T12:08:41.833Z</time>
      </trkpt>
      <trkpt lat="69.64992" lon="18.49955">
        <ele>191.553939</ele>
        <time>2020-08-26T12:08:43.834Z</time>
      </trkpt>
      <trkpt lat="69.64994" lon="18.49982">
        <ele>191.499747</ele>
        <time>2020-08-26T12:08:45.849Z</time>
      </trkpt>
      <trkpt lat="69.64996" lon="18.50008">
        <ele>191.445824</ele>
        <time>2020-08-26T12:08:47.870Z</time>
      </trkpt>
      <trkpt lat="69.64998" lon="18.50036">
        <ele>191.389646</ele>
        <time>2020-08-26T12:08:49.831Z</time>
      </trkpt>
      <trkpt lat="69.65" lon="18.50064">
        <ele>191.332217</ele>
        <time>2020-08-26T12:08:51.841Z</time>
      </trkpt>
      <trkpt lat="69.65001" lon="18.50093">
        <ele>191.27421</ele>
        <time>2020-08-26T12:08:53.858Z</time>
      </trkpt>
      <trkpt lat="69.65003" lon="18.50121">
        <ele>191.217182</ele>
        <time>2020-08-26T12:08:55.835Z</time>
      </trkpt>
      <trkpt lat="69.65005" lon="18.5015">
        <ele>191.158892</ele>
        <time>2020-08-26T12:08:57.851Z</time>
      </trkpt>
      <trkpt lat="69.65007" lon="18.50178">
        <ele>191.101373</ele>
        <time>2020-08-26T12:08:59.867Z</time>
      </trkpt>
      <trkpt lat="69.65009" lon="18.50206">
        <ele>191.045615</ele>
        <time>2020-08-26T12:09:01.850Z</time>
      </trkpt>
      <trkpt lat="69.6501" lon="18.50234">
        <ele>190.989359</ele>
        <time>2020-08-26T12:09:03.844Z</time>
      </trkpt>
      <trkpt lat="69.65012" lon="18.50263">
        <ele>190.932353</ele>
        <time>2020-08-26T12:09:05.835Z</time>
      </trkpt>
      <trkpt lat="69.65013" lon="18.50291">
        <ele>190.874832</ele>
        <time>2020-08-26T12:09:07.825Z</time>
      </trkpt>
      <trkpt lat="69.65015" lon="18.50319">
        <ele>190.820289</ele>
        <time>2020-08-26T12:09:09.853Z</time>
      </trkpt>
      <trkpt lat="69.65017" lon="18.50347">
        <ele>190.765672</ele>
        <time>2020-08-26T12:09:11.832Z</time>
      </trkpt>
      <trkpt lat="69.65019" lon="18.50374">
        <ele>190.712798</ele>
        <time>2020-08-26T12:09:13.846Z</time>
      </trkpt>
      <trkpt lat="69.65021" lon="18.504">
        <ele>190.661709</ele>
        <time>2020-08-26T12:09:15.848Z</time>
      </trkpt>
      <trkpt lat="69.65023" lon="18.50439">
        <ele>190.587991</ele>
        <time>2020-08-26T12:09:18.847Z</time>
      </trkpt>
      <trkpt lat="69.65024" lon="18.50464">
        <ele>190.538626</ele>
        <time>2020-08-26T12:09:20.850Z</time>
      </trkpt>
      <trkpt lat="69.65026" lon="18.50491">
        <ele>190.48776</ele>
        <time>2020-08-26T12:09:22.841Z</time>
      </trkpt>
      <trkpt lat="69.65027" lon="18.50518">
        <ele>190.436143</ele>
        <time>2020-08-26T12:09:24.846Z</time>
      </trkpt>
      <trkpt lat="69.65029" lon="18.50554">
        <ele>190.367607</ele>
        <time>2020-08-26T12:09:27.840Z</time>
      </trkpt>
      <trkpt lat="69.65031" lon="18.5059">
        <ele>190.298212</ele>
        <time>2020-08-26T12:09:30.844Z</time>
      </trkpt>
      <trkpt lat="69.65032" lon="18.50624">
        <ele>190.232486</ele>
        <time>2020-08-26T12:09:33.839Z</time>
      </trkpt>
      <trkpt lat="69.65034" lon="18.50659">
        <ele>190.165273</ele>
        <time>2020-08-26T12:09:36.850Z</time>
      </trkpt>
      <trkpt lat="69.65036" lon="18.50695">
        <ele>190.097112</ele>
        <time>2020-08-26T12:09:39.833Z</time>
      </trkpt>
      <trkpt lat="69.65039" lon="18.50733">
        <ele>190.023821</ele>
        <time>2020-08-26T12:09:42.835Z</time>
      </trkpt>
      <trkpt lat="69.6504" lon="18.50759">
        <ele>189.97343</ele>
        <time>2020-08-26T12:09:44.880Z</time>
      </trkpt>
      <trkpt lat="69.65042" lon="18.50785">
        <ele>189.922763</ele>
        <time>2020-08-26T12:09:46.828Z</time>
      </trkpt>
      <trkpt lat="69.65044" lon="18.50812">
        <ele>189.871119</ele>
        <time>2020-08-26T12:09:48.881Z</time>
      </trkpt>
      <trkpt lat="69.65046" lon="18.50838">
        <ele>189.873993</ele>
        <time>2020-08-26T12:09:50.868Z</time>
      </trkpt>
      <trkpt lat="69.65047" lon="18.50864">
        <ele>189.896849</ele>
        <time>2020-08-26T12:09:52.849Z</time>
      </trkpt>
      <trkpt lat="69.6505" lon="18.50901">
        <ele>189.929671</ele>
        <time>2020-08-26T12:09:55.909Z</time>
      </trkpt>
      <trkpt lat="69.65051" lon="18.50937">
        <ele>189.960839</ele>
        <time>2020-08-26T12:09:58.837Z</time>
      </trkpt>
      <trkpt lat="69.65054" lon="18.50973">
        <ele>189.992574</ele>
        <time>2020-08-26T12:10:01.835Z</time>
      </trkpt>
      <trkpt lat="69.65056" lon="18.51009">
        <ele>190.024709</ele>
        <time>2020-08-26T12:10:04.833Z</time>
      </trkpt>
      <trkpt lat="69.65058" lon="18.51045">
        <ele>190.055487</ele>
        <time>2020-08-26T12:10:07.839Z</time>
      </trkpt>
      <trkpt lat="69.65061" lon="18.5108">
        <ele>190.086472</ele>
        <time>2020-08-26T12:10:10.837Z</time>
      </trkpt>
      <trkpt lat="69.65063" lon="18.51115">
        <ele>190.117307</ele>
        <time>2020-08-26T12:10:13.827Z</time>
      </trkpt>
      <trkpt lat="69.65066" lon="18.51145">
        <ele>190.144002</ele>
        <time>2020-08-26T12:10:16.827Z</time>
      </trkpt>
      <trkpt lat="69.65067" lon="18.51174">
        <ele>190.169114</ele>
        <time>2020-08-26T12:10:19.862Z</time>
      </trkpt>
      <trkpt lat="69.65069" lon="18.51205">
        <ele>190.196092</ele>
        <time>2020-08-26T12:10:22.833Z</time>
      </trkpt>
      <trkpt lat="69.6507" lon="18.51238">
        <ele>190.224713</ele>
        <time>2020-08-26T12:10:25.832Z</time>
      </trkpt>
      <trkpt lat="69.6507" lon="18.51275">
        <ele>190.256792</ele>
        <time>2020-08-26T12:10:28.884Z</time>
      </trkpt>
      <trkpt lat="69.6507" lon="18.51301">
        <ele>190.279355</ele>
        <time>2020-08-26T12:10:30.867Z</time>
      </trkpt>
      <trkpt lat="69.65069" lon="18.51327">
        <ele>190.301754</ele>
        <time>2020-08-26T12:10:32.840Z</time>
      </trkpt>
      <trkpt lat="69.65069" lon="18.51353">
        <ele>190.435457</ele>
        <time>2020-08-26T12:10:34.889Z</time>
      </trkpt>
      <trkpt lat="69.65069" lon="18.51382">
        <ele>190.594043</ele>
        <time>2020-08-26T12:10:36.856Z</time>
      </trkpt>
      <trkpt lat="69.65068" lon="18.51413">
        <ele>190.760445</ele>
        <time>2020-08-26T12:10:38.849Z</time>
      </trkpt>
      <trkpt lat="69.65067" lon="18.51443">
        <ele>190.929017</ele>
        <time>2020-08-26T12:10:40.847Z</time>
      </trkpt>
      <trkpt lat="69.65066" lon="18.51472">
        <ele>191.08473</ele>
        <time>2020-08-26T12:10:42.847Z</time>
      </trkpt>
      <trkpt lat="69.65065" lon="18.51499">
        <ele>191.233697</ele>
        <time>2020-08-26T12:10:44.861Z</time>
      </trkpt>
      <trkpt lat="69.65064" lon="18.51525">
        <ele>191.37858</ele>
        <time>2020-08-26T12:10:46.883Z</time>
      </trkpt>
      <trkpt lat="69.65062" lon="18.51562">
        <ele>191.578972</ele>
        <time>2020-08-26T12:10:49.893Z</time>
      </trkpt>
      <trkpt lat="69.65061" lon="18.51594">
        <ele>191.757651</ele>
        <time>2020-08-26T12:10:52.856Z</time>
      </trkpt>
      <trkpt lat="69.6506" lon="18.51625">
        <ele>191.926927</ele>
        <time>2020-08-26T12:10:55.868Z</time>
      </trkpt>
      <trkpt lat="69.65058" lon="18.51654">
        <ele>192.087301</ele>
        <time>2020-08-26T12:10:58.849Z</time>
      </trkpt>
      <trkpt lat="69.65057" lon="18.51682">
        <ele>192.243755</ele>
        <time>2020-08-26T12:11:01.837Z</time>
      </trkpt>
      <trkpt lat="69.65056" lon="18.51711">
        <ele>192.400207</ele>
        <time>2020-08-26T12:11:04.846Z</time>
      </trkpt>
      <trkpt lat="69.65056" lon="18.51738">
        <ele>192.548902</ele>
        <time>2020-08-26T12:11:07.837Z</time>
      </trkpt>
      <trkpt lat="69.65054" lon="18.51765">
        <ele>192.698654</ele>
        <time>2020-08-26T12:11:10.839Z</time>
      </trkpt>
      <trkpt lat="69.65053" lon="18.51792">
        <ele>192.847214</ele>
        <time>2020-08-26T12:11:13.883Z</time>
      </trkpt>
      <trkpt lat="69.65052" lon="18.51819">
        <ele>192.99606</ele>
        <time>2020-08-26T12:11:16.900Z</time>
      </trkpt>
      <trkpt lat="69.65051" lon="18.51847">
        <ele>193.150214</ele>
        <time>2020-08-26T12:11:19.836Z</time>
      </trkpt>
      <trkpt lat="69.6505" lon="18.51874">
        <ele>193.337209</ele>
        <time>2020-08-26T12:11:22.841Z</time>
      </trkpt>
      <trkpt lat="69.6505" lon="18.51903">
        <ele>193.533653</ele>
        <time>2020-08-26T12:11:25.893Z</time>
      </trkpt>
      <trkpt lat="69.65049" lon="18.51931">
        <ele>193.719298</ele>
        <time>2020-08-26T12:11:28.880Z</time>
      </trkpt>
      <trkpt lat="69.65049" lon="18.51957">
        <ele>193.895206</ele>
        <time>2020-08-26T12:11:31.849Z</time>
      </trkpt>
      <trkpt lat="69.6505" lon="18.51988">
        <ele>194.10708</ele>
        <time>2020-08-26T12:11:35.839Z</time>
      </trkpt>
      <trkpt lat="69.6505" lon="18.52016">
        <ele>194.293751</ele>
        <time>2020-08-26T12:11:39.850Z</time>
      </trkpt>
      <trkpt lat="69.65052" lon="18.52047">
        <ele>194.506731</ele>
        <time>2020-08-26T12:11:44.877Z</time>
      </trkpt>
      <trkpt lat="69.65054" lon="18.52078">
        <ele>194.719348</ele>
        <time>2020-08-26T12:11:49.911Z</time>
      </trkpt>
      <trkpt lat="69.65055" lon="18.52109">
        <ele>194.936348</ele>
        <time>2020-08-26T12:11:54.843Z</time>
      </trkpt>
      <trkpt lat="69.65057" lon="18.52135">
        <ele>195.115229</ele>
        <time>2020-08-26T12:11:58.859Z</time>
      </trkpt>
      <trkpt lat="69.65058" lon="18.52165">
        <ele>195.316093</ele>
        <time>2020-08-26T12:12:02.840Z</time>
      </trkpt>
      <trkpt lat="69.65061" lon="18.52196">
        <ele>195.529109</ele>
        <time>2020-08-26T12:12:06.882Z</time>
      </trkpt>
      <trkpt lat="69.65063" lon="18.5223">
        <ele>195.769794</ele>
        <time>2020-08-26T12:12:10.926Z</time>
      </trkpt>
      <trkpt lat="69.65066" lon="18.52263">
        <ele>195.994638</ele>
        <time>2020-08-26T12:12:13.890Z</time>
      </trkpt>
      <trkpt lat="69.65068" lon="18.523">
        <ele>196.24813</ele>
        <time>2020-08-26T12:12:16.841Z</time>
      </trkpt>
      <trkpt lat="69.65071" lon="18.52337">
        <ele>196.506795</ele>
        <time>2020-08-26T12:12:19.888Z</time>
      </trkpt>
      <trkpt lat="69.65073" lon="18.52364">
        <ele>196.583411</ele>
        <time>2020-08-26T12:12:21.876Z</time>
      </trkpt>
      <trkpt lat="69.65075" lon="18.52392">
        <ele>196.463648</ele>
        <time>2020-08-26T12:12:23.856Z</time>
      </trkpt>
      <trkpt lat="69.65077" lon="18.52419">
        <ele>196.348309</ele>
        <time>2020-08-26T12:12:25.875Z</time>
      </trkpt>
      <trkpt lat="69.6508" lon="18.52454">
        <ele>196.197248</ele>
        <time>2020-08-26T12:12:28.872Z</time>
      </trkpt>
      <trkpt lat="69.65082" lon="18.52483">
        <ele>196.073101</ele>
        <time>2020-08-26T12:12:31.841Z</time>
      </trkpt>
      <trkpt lat="69.65085" lon="18.52509">
        <ele>195.957658</ele>
        <time>2020-08-26T12:12:34.852Z</time>
      </trkpt>
      <trkpt lat="69.65087" lon="18.52534">
        <ele>195.846755</ele>
        <time>2020-08-26T12:12:37.845Z</time>
      </trkpt>
      <trkpt lat="69.65089" lon="18.52561">
        <ele>195.731363</ele>
        <time>2020-08-26T12:12:40.847Z</time>
      </trkpt>
      <trkpt lat="69.65091" lon="18.52588">
        <ele>195.616041</ele>
        <time>2020-08-26T12:12:43.842Z</time>
      </trkpt>
      <trkpt lat="69.65093" lon="18.52616">
        <ele>195.495943</ele>
        <time>2020-08-26T12:12:46.846Z</time>
      </trkpt>
      <trkpt lat="69.65096" lon="18.52648">
        <ele>195.358547</ele>
        <time>2020-08-26T12:12:49.832Z</time>
      </trkpt>
      <trkpt lat="69.65098" lon="18.52684">
        <ele>195.204842</ele>
        <time>2020-08-26T12:12:52.874Z</time>
      </trkpt>
      <trkpt lat="69.651" lon="18.52711">
        <ele>195.086567</ele>
        <time>2020-08-26T12:12:54.841Z</time>
      </trkpt>
      <trkpt lat="69.65102" lon="18.52741">
        <ele>194.960116</ele>
        <time>2020-08-26T12:12:56.847Z</time>
      </trkpt>
      <trkpt lat="69.65104" lon="18.52771">
        <ele>194.829637</ele>
        <time>2020-08-26T12:12:58.872Z</time>
      </trkpt>
      <trkpt lat="69.65106" lon="18.52803">
        <ele>194.6942</ele>
        <time>2020-08-26T12:13:00.869Z</time>
      </trkpt>
      <trkpt lat="69.65108" lon="18.52835">
        <ele>194.555877</ele>
        <time>2020-08-26T12:13:02.890Z</time>
      </trkpt>
      <trkpt lat="69.6511" lon="18.52866">
        <ele>194.453673</ele>
        <time>2020-08-26T12:13:04.850Z</time>
      </trkpt>
      <trkpt lat="69.65112" lon="18.52896">
        <ele>194.477913</ele>
        <time>2020-08-26T12:13:06.852Z</time>
      </trkpt>
      <trkpt lat="69.65115" lon="18.52927">
        <ele>194.502251</ele>
        <time>2020-08-26T12:13:08.876Z</time>
      </trkpt>
      <trkpt lat="69.65117" lon="18.52957">
        <ele>194.525989</ele>
        <time>2020-08-26T12:13:10.842Z</time>
      </trkpt>
      <trkpt lat="69.65119" lon="18.52985">
        <ele>194.548768</ele>
        <time>2020-08-26T12:13:12.854Z</time>
      </trkpt>
      <trkpt lat="69.65122" lon="18.53013">
        <ele>194.571091</ele>
        <time>2020-08-26T12:13:14.864Z</time>
      </trkpt>
      <trkpt lat="69.65124" lon="18.5304">
        <ele>194.592531</ele>
        <time>2020-08-26T12:13:16.848Z</time>
      </trkpt>
      <trkpt lat="69.65126" lon="18.53067">
        <ele>194.61369</ele>
        <time>2020-08-26T12:13:18.853Z</time>
      </trkpt>
      <trkpt lat="69.65128" lon="18.53095">
        <ele>194.636</ele>
        <time>2020-08-26T12:13:20.840Z</time>
      </trkpt>
      <trkpt lat="69.65129" lon="18.53123">
        <ele>194.657887</ele>
        <time>2020-08-26T12:13:22.856Z</time>
      </trkpt>
      <trkpt lat="69.65131" lon="18.5315">
        <ele>194.679252</ele>
        <time>2020-08-26T12:13:24.849Z</time>
      </trkpt>
      <trkpt lat="69.65134" lon="18.53175">
        <ele>194.699488</ele>
        <time>2020-08-26T12:13:26.854Z</time>
      </trkpt>
      <trkpt lat="69.65137" lon="18.5321">
        <ele>194.727972</ele>
        <time>2020-08-26T12:13:29.838Z</time>
      </trkpt>
      <trkpt lat="69.65139" lon="18.53244">
        <ele>194.754756</ele>
        <time>2020-08-26T12:13:32.859Z</time>
      </trkpt>
      <trkpt lat="69.65141" lon="18.53276">
        <ele>194.779438</ele>
        <time>2020-08-26T12:13:35.889Z</time>
      </trkpt>
      <trkpt lat="69.65143" lon="18.53302">
        <ele>194.800681</ele>
        <time>2020-08-26T12:13:38.840Z</time>
      </trkpt>
      <trkpt lat="69.65144" lon="18.53333">
        <ele>194.82447</ele>
        <time>2020-08-26T12:13:42.838Z</time>
      </trkpt>
      <trkpt lat="69.65146" lon="18.53364">
        <ele>194.849341</ele>
        <time>2020-08-26T12:13:47.838Z</time>
      </trkpt>
      <trkpt lat="69.65148" lon="18.53391">
        <ele>195.140426</ele>
        <time>2020-08-26T12:13:51.856Z</time>
      </trkpt>
      <trkpt lat="69.65151" lon="18.5342">
        <ele>195.485578</ele>
        <time>2020-08-26T12:13:56.834Z</time>
      </trkpt>
      <trkpt lat="69.65153" lon="18.53451">
        <ele>195.848254</ele>
        <time>2020-08-26T12:14:01.855Z</time>
      </trkpt>
      <trkpt lat="69.65156" lon="18.53478">
        <ele>196.174923</ele>
        <time>2020-08-26T12:14:06.838Z</time>
      </trkpt>
      <trkpt lat="69.65157" lon="18.53505">
        <ele>196.485783</ele>
        <time>2020-08-26T12:14:10.878Z</time>
      </trkpt>
      <trkpt lat="69.65157" lon="18.53534">
        <ele>196.816915</ele>
        <time>2020-08-26T12:14:14.857Z</time>
      </trkpt>
      <trkpt lat="69.65159" lon="18.53563">
        <ele>197.154446</ele>
        <time>2020-08-26T12:14:18.863Z</time>
      </trkpt>
      <trkpt lat="69.65161" lon="18.53595">
        <ele>197.534646</ele>
        <time>2020-08-26T12:14:22.849Z</time>
      </trkpt>
      <trkpt lat="69.65164" lon="18.53621">
        <ele>197.83507</ele>
        <time>2020-08-26T12:14:25.832Z</time>
      </trkpt>
      <trkpt lat="69.65166" lon="18.53647">
        <ele>198.143653</ele>
        <time>2020-08-26T12:14:28.839Z</time>
      </trkpt>
      <trkpt lat="69.65168" lon="18.53676">
        <ele>198.492134</ele>
        <time>2020-08-26T12:14:31.851Z</time>
      </trkpt>
      <trkpt lat="69.6517" lon="18.5371">
        <ele>198.881361</ele>
        <time>2020-08-26T12:14:34.849Z</time>
      </trkpt>
      <trkpt lat="69.65172" lon="18.53745">
        <ele>199.286289</ele>
        <time>2020-08-26T12:14:37.860Z</time>
      </trkpt>
      <trkpt lat="69.65175" lon="18.53777">
        <ele>199.673319</ele>
        <time>2020-08-26T12:14:40.853Z</time>
      </trkpt>
      <trkpt lat="69.65179" lon="18.53812">
        <ele>200.088581</ele>
        <time>2020-08-26T12:14:43.843Z</time>
      </trkpt>
      <trkpt lat="69.65183" lon="18.53845">
        <ele>200.488588</ele>
        <time>2020-08-26T12:14:46.890Z</time>
      </trkpt>
      <trkpt lat="69.65186" lon="18.53875">
        <ele>200.784401</ele>
        <time>2020-08-26T12:14:49.857Z</time>
      </trkpt>
      <trkpt lat="69.65189" lon="18.53905">
        <ele>200.767727</ele>
        <time>2020-08-26T12:14:52.843Z</time>
      </trkpt>
      <trkpt lat="69.65191" lon="18.53936">
        <ele>200.750715</ele>
        <time>2020-08-26T12:14:55.845Z</time>
      </trkpt>
      <trkpt lat="69.65194" lon="18.53964">
        <ele>200.735285</ele>
        <time>2020-08-26T12:14:58.847Z</time>
      </trkpt>
      <trkpt lat="69.65198" lon="18.53988">
        <ele>200.721517</ele>
        <time>2020-08-26T12:15:01.856Z</time>
      </trkpt>
      <trkpt lat="69.65203" lon="18.54018">
        <ele>200.703889</ele>
        <time>2020-08-26T12:15:05.832Z</time>
      </trkpt>
      <trkpt lat="69.65208" lon="18.54044">
        <ele>200.687973</ele>
        <time>2020-08-26T12:15:09.860Z</time>
      </trkpt>
      <trkpt lat="69.65214" lon="18.54074">
        <ele>200.669674</ele>
        <time>2020-08-26T12:15:13.831Z</time>
      </trkpt>
      <trkpt lat="69.65219" lon="18.54096">
        <ele>200.65509</ele>
        <time>2020-08-26T12:15:16.848Z</time>
      </trkpt>
      <trkpt lat="69.65225" lon="18.54119">
        <ele>200.640724</ele>
        <time>2020-08-26T12:15:19.833Z</time>
      </trkpt>
      <trkpt lat="69.6523" lon="18.54141">
        <ele>200.626577</ele>
        <time>2020-08-26T12:15:22.837Z</time>
      </trkpt>
      <trkpt lat="69.65235" lon="18.54165">
        <ele>200.611239</ele>
        <time>2020-08-26T12:15:25.832Z</time>
      </trkpt>
      <trkpt lat="69.6524" lon="18.54188">
        <ele>200.596632</ele>
        <time>2020-08-26T12:15:28.831Z</time>
      </trkpt>
      <trkpt lat="69.65245" lon="18.54211">
        <ele>200.582659</ele>
        <time>2020-08-26T12:15:31.863Z</time>
      </trkpt>
      <trkpt lat="69.6525" lon="18.54233">
        <ele>200.568815</ele>
        <time>2020-08-26T12:15:34.834Z</time>
      </trkpt>
      <trkpt lat="69.65255" lon="18.54254">
        <ele>200.554799</ele>
        <time>2020-08-26T12:15:37.844Z</time>
      </trkpt>
      <trkpt lat="69.65261" lon="18.54276">
        <ele>200.539697</ele>
        <time>2020-08-26T12:15:40.842Z</time>
      </trkpt>
      <trkpt lat="69.65268" lon="18.543">
        <ele>200.523654</ele>
        <time>2020-08-26T12:15:43.847Z</time>
      </trkpt>
      <trkpt lat="69.65275" lon="18.54327">
        <ele>200.336265</ele>
        <time>2020-08-26T12:15:46.826Z</time>
      </trkpt>
      <trkpt lat="69.65284" lon="18.54355">
        <ele>199.836499</ele>
        <time>2020-08-26T12:15:49.846Z</time>
      </trkpt>
      <trkpt lat="69.65291" lon="18.54375">
        <ele>199.463876</ele>
        <time>2020-08-26T12:15:51.861Z</time>
      </trkpt>
      <trkpt lat="69.65299" lon="18.54397">
        <ele>199.04846</ele>
        <time>2020-08-26T12:15:53.833Z</time>
      </trkpt>
      <trkpt lat="69.65309" lon="18.5442">
        <ele>198.575789</ele>
        <time>2020-08-26T12:15:55.840Z</time>
      </trkpt>
      <trkpt lat="69.6532" lon="18.54444">
        <ele>198.050848</ele>
        <time>2020-08-26T12:15:57.853Z</time>
      </trkpt>
      <trkpt lat="69.65332" lon="18.54469">
        <ele>197.487582</ele>
        <time>2020-08-26T12:15:59.856Z</time>
      </trkpt>
      <trkpt lat="69.65344" lon="18.54497">
        <ele>196.907179</ele>
        <time>2020-08-26T12:16:01.849Z</time>
      </trkpt>
      <trkpt lat="69.65357" lon="18.54525">
        <ele>196.284538</ele>
        <time>2020-08-26T12:16:03.867Z</time>
      </trkpt>
      <trkpt lat="69.6537" lon="18.54556">
        <ele>195.632179</ele>
        <time>2020-08-26T12:16:05.846Z</time>
      </trkpt>
      <trkpt lat="69.65378" lon="18.54573">
        <ele>195.282008</ele>
        <time>2020-08-26T12:16:06.847Z</time>
      </trkpt>
      <trkpt lat="69.65385" lon="18.5459">
        <ele>194.920152</ele>
        <time>2020-08-26T12:16:07.836Z</time>
      </trkpt>
      <trkpt lat="69.65392" lon="18.54608">
        <ele>194.560377</ele>
        <time>2020-08-26T12:16:08.845Z</time>
      </trkpt>
      <trkpt lat="69.65399" lon="18.54625">
        <ele>194.210114</ele>
        <time>2020-08-26T12:16:09.857Z</time>
      </trkpt>
      <trkpt lat="69.65406" lon="18.54642">
        <ele>193.870122</ele>
        <time>2020-08-26T12:16:10.836Z</time>
      </trkpt>
      <trkpt lat="69.65419" lon="18.54676">
        <ele>193.579931</ele>
        <time>2020-08-26T12:16:12.841Z</time>
      </trkpt>
      <trkpt lat="69.6543" lon="18.54707">
        <ele>193.429263</ele>
        <time>2020-08-26T12:16:14.918Z</time>
      </trkpt>
      <trkpt lat="69.65441" lon="18.54734">
        <ele>193.29206</ele>
        <time>2020-08-26T12:16:16.850Z</time>
      </trkpt>
      <trkpt lat="69.65451" lon="18.54759">
        <ele>193.162698</ele>
        <time>2020-08-26T12:16:18.852Z</time>
      </trkpt>
      <trkpt lat="69.6546" lon="18.54781">
        <ele>193.052564</ele>
        <time>2020-08-26T12:16:20.841Z</time>
      </trkpt>
      <trkpt lat="69.65468" lon="18.54802">
        <ele>192.950805</ele>
        <time>2020-08-26T12:16:22.851Z</time>
      </trkpt>
      <trkpt lat="69.65475" lon="18.5482">
        <ele>192.857014</ele>
        <time>2020-08-26T12:16:24.867Z</time>
      </trkpt>
      <trkpt lat="69.65481" lon="18.54839">
        <ele>192.770148</ele>
        <time>2020-08-26T12:16:26.855Z</time>
      </trkpt>
      <trkpt lat="69.6549" lon="18.54866">
        <ele>192.644835</ele>
        <time>2020-08-26T12:16:29.872Z</time>
      </trkpt>
      <trkpt lat="69.65499" lon="18.5489">
        <ele>192.530171</ele>
        <time>2020-08-26T12:16:32.845Z</time>
      </trkpt>
      <trkpt lat="69.65507" lon="18.5491">
        <ele>192.425836</ele>
        <time>2020-08-26T12:16:35.860Z</time>
      </trkpt>
      <trkpt lat="69.65515" lon="18.5493">
        <ele>192.328848</ele>
        <time>2020-08-26T12:16:38.851Z</time>
      </trkpt>
      <trkpt lat="69.65522" lon="18.54947">
        <ele>192.236567</ele>
        <time>2020-08-26T12:16:41.856Z</time>
      </trkpt>
      <trkpt lat="69.65529" lon="18.54967">
        <ele>192.147899</ele>
        <time>2020-08-26T12:16:44.875Z</time>
      </trkpt>
      <trkpt lat="69.65535" lon="18.54986">
        <ele>192.054682</ele>
        <time>2020-08-26T12:16:47.881Z</time>
      </trkpt>
      <trkpt lat="69.65543" lon="18.55006">
        <ele>191.960376</ele>
        <time>2020-08-26T12:16:50.843Z</time>
      </trkpt>
      <trkpt lat="69.6555" lon="18.55027">
        <ele>191.872237</ele>
        <time>2020-08-26T12:16:53.853Z</time>
      </trkpt>
      <trkpt lat="69.65557" lon="18.55047">
        <ele>191.785155</ele>
        <time>2020-08-26T12:16:56.834Z</time>
      </trkpt>
      <trkpt lat="69.65565" lon="18.55067">
        <ele>191.690009</ele>
        <time>2020-08-26T12:16:59.846Z</time>
      </trkpt>
      <trkpt lat="69.65575" lon="18.55091">
        <ele>191.583168</ele>
        <time>2020-08-26T12:17:02.871Z</time>
      </trkpt>
      <trkpt lat="69.65584" lon="18.55114">
        <ele>191.479328</ele>
        <time>2020-08-26T12:17:05.872Z</time>
      </trkpt>
      <trkpt lat="69.65593" lon="18.55141">
        <ele>191.362377</ele>
        <time>2020-08-26T12:17:08.846Z</time>
      </trkpt>
      <trkpt lat="69.65601" lon="18.55159">
        <ele>191.275109</ele>
        <time>2020-08-26T12:17:10.855Z</time>
      </trkpt>
      <trkpt lat="69.6561" lon="18.5518">
        <ele>191.177396</ele>
        <time>2020-08-26T12:17:12.847Z</time>
      </trkpt>
      <trkpt lat="69.65618" lon="18.55202">
        <ele>191.077572</ele>
        <time>2020-08-26T12:17:14.900Z</time>
      </trkpt>
      <trkpt lat="69.65627" lon="18.55224">
        <ele>190.977685</ele>
        <time>2020-08-26T12:17:16.859Z</time>
      </trkpt>
      <trkpt lat="69.65635" lon="18.55246">
        <ele>190.879114</ele>
        <time>2020-08-26T12:17:18.896Z</time>
      </trkpt>
      <trkpt lat="69.65644" lon="18.55269">
        <ele>190.77656</ele>
        <time>2020-08-26T12:17:20.856Z</time>
      </trkpt>
      <trkpt lat="69.65653" lon="18.55292">
        <ele>190.670115</ele>
        <time>2020-08-26T12:17:22.835Z</time>
      </trkpt>
      <trkpt lat="69.65662" lon="18.55317">
        <ele>190.561508</ele>
        <time>2020-08-26T12:17:24.854Z</time>
      </trkpt>
      <trkpt lat="69.65671" lon="18.55341">
        <ele>190.452902</ele>
        <time>2020-08-26T12:17:26.871Z</time>
      </trkpt>
      <trkpt lat="69.65681" lon="18.55366">
        <ele>190.507456</ele>
        <time>2020-08-26T12:17:28.849Z</time>
      </trkpt>
      <trkpt lat="69.6569" lon="18.5539">
        <ele>190.643588</ele>
        <time>2020-08-26T12:17:30.835Z</time>
      </trkpt>
      <trkpt lat="69.657" lon="18.55415">
        <ele>190.779122</ele>
        <time>2020-08-26T12:17:32.852Z</time>
      </trkpt>
      <trkpt lat="69.65709" lon="18.5544">
        <ele>190.916692</ele>
        <time>2020-08-26T12:17:34.837Z</time>
      </trkpt>
      <trkpt lat="69.65719" lon="18.55465">
        <ele>191.053228</ele>
        <time>2020-08-26T12:17:36.833Z</time>
      </trkpt>
      <trkpt lat="69.65728" lon="18.55489">
        <ele>191.191206</ele>
        <time>2020-08-26T12:17:38.853Z</time>
      </trkpt>
      <trkpt lat="69.65738" lon="18.55513">
        <ele>191.326211</ele>
        <time>2020-08-26T12:17:40.841Z</time>
      </trkpt>
      <trkpt lat="69.65747" lon="18.55537">
        <ele>191.459712</ele>
        <time>2020-08-26T12:17:42.843Z</time>
      </trkpt>
      <trkpt lat="69.65756" lon="18.55561">
        <ele>191.588804</ele>
        <time>2020-08-26T12:17:44.841Z</time>
      </trkpt>
      <trkpt lat="69.65764" lon="18.55583">
        <ele>191.706372</ele>
        <time>2020-08-26T12:17:46.850Z</time>
      </trkpt>
      <trkpt lat="69.65773" lon="18.55605">
        <ele>191.830487</ele>
        <time>2020-08-26T12:17:48.848Z</time>
      </trkpt>
      <trkpt lat="69.65782" lon="18.55625">
        <ele>191.949878</ele>
        <time>2020-08-26T12:17:50.832Z</time>
      </trkpt>
      <trkpt lat="69.65789" lon="18.55646">
        <ele>192.063087</ele>
        <time>2020-08-26T12:17:52.888Z</time>
      </trkpt>
      <trkpt lat="69.65796" lon="18.55665">
        <ele>192.1602</ele>
        <time>2020-08-26T12:17:54.837Z</time>
      </trkpt>
      <trkpt lat="69.65803" lon="18.55683">
        <ele>192.258324</ele>
        <time>2020-08-26T12:17:56.857Z</time>
      </trkpt>
      <trkpt lat="69.65812" lon="18.55708">
        <ele>192.291716</ele>
        <time>2020-08-26T12:17:59.855Z</time>
      </trkpt>
      <trkpt lat="69.65821" lon="18.55732">
        <ele>192.207706</ele>
        <time>2020-08-26T12:18:02.856Z</time>
      </trkpt>
      <trkpt lat="69.6583" lon="18.55756">
        <ele>192.12372</ele>
        <time>2020-08-26T12:18:05.861Z</time>
      </trkpt>
      <trkpt lat="69.65838" lon="18.55781">
        <ele>192.040062</ele>
        <time>2020-08-26T12:18:08.824Z</time>
      </trkpt>
      <trkpt lat="69.65849" lon="18.55806">
        <ele>191.946809</ele>
        <time>2020-08-26T12:18:11.882Z</time>
      </trkpt>
      <trkpt lat="69.65856" lon="18.55824">
        <ele>191.880141</ele>
        <time>2020-08-26T12:18:13.873Z</time>
      </trkpt>
      <trkpt lat="69.65864" lon="18.55844">
        <ele>191.809351</ele>
        <time>2020-08-26T12:18:15.840Z</time>
      </trkpt>
      <trkpt lat="69.65872" lon="18.55865">
        <ele>191.731579</ele>
        <time>2020-08-26T12:18:17.865Z</time>
      </trkpt>
      <trkpt lat="69.65881" lon="18.55888">
        <ele>191.649326</ele>
        <time>2020-08-26T12:18:19.860Z</time>
      </trkpt>
      <trkpt lat="69.65891" lon="18.55913">
        <ele>191.559523</ele>
        <time>2020-08-26T12:18:21.849Z</time>
      </trkpt>
      <trkpt lat="69.65901" lon="18.55939">
        <ele>191.467735</ele>
        <time>2020-08-26T12:18:23.848Z</time>
      </trkpt>
      <trkpt lat="69.6591" lon="18.55965">
        <ele>191.376082</ele>
        <time>2020-08-26T12:18:25.825Z</time>
      </trkpt>
      <trkpt lat="69.6592" lon="18.5599">
        <ele>191.285899</ele>
        <time>2020-08-26T12:18:27.846Z</time>
      </trkpt>
      <trkpt lat="69.6593" lon="18.56015">
        <ele>191.198914</ele>
        <time>2020-08-26T12:18:29.847Z</time>
      </trkpt>
      <trkpt lat="69.65939" lon="18.56038">
        <ele>191.11539</ele>
        <time>2020-08-26T12:18:31.865Z</time>
      </trkpt>
      <trkpt lat="69.65947" lon="18.5606">
        <ele>190.884955</ele>
        <time>2020-08-26T12:18:33.830Z</time>
      </trkpt>
      <trkpt lat="69.65956" lon="18.56084">
        <ele>190.595151</ele>
        <time>2020-08-26T12:18:35.879Z</time>
      </trkpt>
      <trkpt lat="69.65964" lon="18.56106">
        <ele>190.312444</ele>
        <time>2020-08-26T12:18:37.843Z</time>
      </trkpt>
      <trkpt lat="69.65973" lon="18.56129">
        <ele>190.02194</ele>
        <time>2020-08-26T12:18:39.837Z</time>
      </trkpt>
      <trkpt lat="69.65981" lon="18.56151">
        <ele>189.732015</ele>
        <time>2020-08-26T12:18:41.874Z</time>
      </trkpt>
      <trkpt lat="69.6599" lon="18.56174">
        <ele>189.438525</ele>
        <time>2020-08-26T12:18:43.842Z</time>
      </trkpt>
      <trkpt lat="69.65999" lon="18.56199">
        <ele>189.129034</ele>
        <time>2020-08-26T12:18:45.846Z</time>
      </trkpt>
      <trkpt lat="69.66009" lon="18.56224">
        <ele>188.811826</ele>
        <time>2020-08-26T12:18:47.879Z</time>
      </trkpt>
      <trkpt lat="69.66018" lon="18.56248">
        <ele>188.495692</ele>
        <time>2020-08-26T12:18:49.847Z</time>
      </trkpt>
      <trkpt lat="69.66028" lon="18.56273">
        <ele>188.174571</ele>
        <time>2020-08-26T12:18:51.889Z</time>
      </trkpt>
      <trkpt lat="69.66038" lon="18.56299">
        <ele>187.848996</ele>
        <time>2020-08-26T12:18:53.866Z</time>
      </trkpt>
      <trkpt lat="69.66048" lon="18.56325">
        <ele>187.517451</ele>
        <time>2020-08-26T12:18:55.839Z</time>
      </trkpt>
      <trkpt lat="69.66057" lon="18.5635">
        <ele>187.194328</ele>
        <time>2020-08-26T12:18:57.838Z</time>
      </trkpt>
      <trkpt lat="69.66067" lon="18.56376">
        <ele>186.871205</ele>
        <time>2020-08-26T12:18:59.864Z</time>
      </trkpt>
      <trkpt lat="69.66076" lon="18.56402">
        <ele>186.588937</ele>
        <time>2020-08-26T12:19:01.834Z</time>
      </trkpt>
      <trkpt lat="69.66086" lon="18.56427">
        <ele>186.407983</ele>
        <time>2020-08-26T12:19:03.838Z</time>
      </trkpt>
      <trkpt lat="69.66095" lon="18.56454">
        <ele>186.228432</ele>
        <time>2020-08-26T12:19:05.869Z</time>
      </trkpt>
      <trkpt lat="69.66104" lon="18.5648">
        <ele>186.050888</ele>
        <time>2020-08-26T12:19:07.862Z</time>
      </trkpt>
      <trkpt lat="69.66113" lon="18.56507">
        <ele>185.872302</ele>
        <time>2020-08-26T12:19:09.848Z</time>
      </trkpt>
      <trkpt lat="69.66121" lon="18.56533">
        <ele>185.702821</ele>
        <time>2020-08-26T12:19:11.850Z</time>
      </trkpt>
      <trkpt lat="69.66129" lon="18.56557">
        <ele>185.541946</ele>
        <time>2020-08-26T12:19:13.834Z</time>
      </trkpt>
      <trkpt lat="69.66136" lon="18.56579">
        <ele>185.394768</ele>
        <time>2020-08-26T12:19:15.846Z</time>
      </trkpt>
      <trkpt lat="69.66143" lon="18.566">
        <ele>185.256089</ele>
        <time>2020-08-26T12:19:17.840Z</time>
      </trkpt>
      <trkpt lat="69.6615" lon="18.56622">
        <ele>185.114229</ele>
        <time>2020-08-26T12:19:19.834Z</time>
      </trkpt>
      <trkpt lat="69.66157" lon="18.56642">
        <ele>184.975846</ele>
        <time>2020-08-26T12:19:21.847Z</time>
      </trkpt>
      <trkpt lat="69.66164" lon="18.56664">
        <ele>184.837559</ele>
        <time>2020-08-26T12:19:23.884Z</time>
      </trkpt>
      <trkpt lat="69.6617" lon="18.56686">
        <ele>184.697066</ele>
        <time>2020-08-26T12:19:25.851Z</time>
      </trkpt>
      <trkpt lat="69.66177" lon="18.56708">
        <ele>184.559145</ele>
        <time>2020-08-26T12:19:27.861Z</time>
      </trkpt>
      <trkpt lat="69.66183" lon="18.5673">
        <ele>184.417217</ele>
        <time>2020-08-26T12:19:29.834Z</time>
      </trkpt>
      <trkpt lat="69.66191" lon="18.56753">
        <ele>184.266147</ele>
        <time>2020-08-26T12:19:31.834Z</time>
      </trkpt>
      <trkpt lat="69.66196" lon="18.56776">
        <ele>184.156336</ele>
        <time>2020-08-26T12:19:33.839Z</time>
      </trkpt>
      <trkpt lat="69.66203" lon="18.56799">
        <ele>184.2347</ele>
        <time>2020-08-26T12:19:35.858Z</time>
      </trkpt>
      <trkpt lat="69.66209" lon="18.56822">
        <ele>184.310174</ele>
        <time>2020-08-26T12:19:37.902Z</time>
      </trkpt>
      <trkpt lat="69.66216" lon="18.56845">
        <ele>184.385448</ele>
        <time>2020-08-26T12:19:39.849Z</time>
      </trkpt>
      <trkpt lat="69.66222" lon="18.56867">
        <ele>184.458724</ele>
        <time>2020-08-26T12:19:41.858Z</time>
      </trkpt>
      <trkpt lat="69.66228" lon="18.56888">
        <ele>184.529118</ele>
        <time>2020-08-26T12:19:43.833Z</time>
      </trkpt>
      <trkpt lat="69.66234" lon="18.56908">
        <ele>184.596504</ele>
        <time>2020-08-26T12:19:45.846Z</time>
      </trkpt>
      <trkpt lat="69.66239" lon="18.56929">
        <ele>184.664898</ele>
        <time>2020-08-26T12:19:47.842Z</time>
      </trkpt>
      <trkpt lat="69.66247" lon="18.5696">
        <ele>184.764135</ele>
        <time>2020-08-26T12:19:50.878Z</time>
      </trkpt>
      <trkpt lat="69.66255" lon="18.56991">
        <ele>184.862561</ele>
        <time>2020-08-26T12:19:53.847Z</time>
      </trkpt>
      <trkpt lat="69.6626" lon="18.57012">
        <ele>184.929982</ele>
        <time>2020-08-26T12:19:55.867Z</time>
      </trkpt>
      <trkpt lat="69.66266" lon="18.57035">
        <ele>185.00102</ele>
        <time>2020-08-26T12:19:57.850Z</time>
      </trkpt>
      <trkpt lat="69.66271" lon="18.57056">
        <ele>185.06866</ele>
        <time>2020-08-26T12:19:59.850Z</time>
      </trkpt>
      <trkpt lat="69.66278" lon="18.57088">
        <ele>185.167279</ele>
        <time>2020-08-26T12:20:02.853Z</time>
      </trkpt>
      <trkpt lat="69.66286" lon="18.57119">
        <ele>185.267145</ele>
        <time>2020-08-26T12:20:05.855Z</time>
      </trkpt>
      <trkpt lat="69.66291" lon="18.5714">
        <ele>185.333947</ele>
        <time>2020-08-26T12:20:07.864Z</time>
      </trkpt>
      <trkpt lat="69.66299" lon="18.57171">
        <ele>185.431059</ele>
        <time>2020-08-26T12:20:10.849Z</time>
      </trkpt>
      <trkpt lat="69.66306" lon="18.57201">
        <ele>185.633934</ele>
        <time>2020-08-26T12:20:13.838Z</time>
      </trkpt>
      <trkpt lat="69.66313" lon="18.57229">
        <ele>185.974616</ele>
        <time>2020-08-26T12:20:16.840Z</time>
      </trkpt>
      <trkpt lat="69.66319" lon="18.57255">
        <ele>186.275393</ele>
        <time>2020-08-26T12:20:19.840Z</time>
      </trkpt>
      <trkpt lat="69.66324" lon="18.57282">
        <ele>186.58259</ele>
        <time>2020-08-26T12:20:22.840Z</time>
      </trkpt>
      <trkpt lat="69.66329" lon="18.57307">
        <ele>186.858844</ele>
        <time>2020-08-26T12:20:25.850Z</time>
      </trkpt>
      <trkpt lat="69.66334" lon="18.57333">
        <ele>187.158722</ele>
        <time>2020-08-26T12:20:28.835Z</time>
      </trkpt>
      <trkpt lat="69.6634" lon="18.57361">
        <ele>187.476702</ele>
        <time>2020-08-26T12:20:31.870Z</time>
      </trkpt>
      <trkpt lat="69.66346" lon="18.57389">
        <ele>187.785585</ele>
        <time>2020-08-26T12:20:34.840Z</time>
      </trkpt>
      <trkpt lat="69.66352" lon="18.57417">
        <ele>188.109966</ele>
        <time>2020-08-26T12:20:37.840Z</time>
      </trkpt>
      <trkpt lat="69.66358" lon="18.57445">
        <ele>188.43791</ele>
        <time>2020-08-26T12:20:40.853Z</time>
      </trkpt>
      <trkpt lat="69.66364" lon="18.57472">
        <ele>188.751027</ele>
        <time>2020-08-26T12:20:43.869Z</time>
      </trkpt>
      <trkpt lat="69.6637" lon="18.57501">
        <ele>189.074882</ele>
        <time>2020-08-26T12:20:46.848Z</time>
      </trkpt>
      <trkpt lat="69.66375" lon="18.5753">
        <ele>189.3914</ele>
        <time>2020-08-26T12:20:49.853Z</time>
      </trkpt>
      <trkpt lat="69.6638" lon="18.57556">
        <ele>189.677561</ele>
        <time>2020-08-26T12:20:52.856Z</time>
      </trkpt>
      <trkpt lat="69.66383" lon="18.57581">
        <ele>189.93812</ele>
        <time>2020-08-26T12:20:55.846Z</time>
      </trkpt>
      <trkpt lat="69.66387" lon="18.5761">
        <ele>190.244396</ele>
        <time>2020-08-26T12:20:59.875Z</time>
      </trkpt>
      <trkpt lat="69.6639" lon="18.57635">
        <ele>190.509101</ele>
        <time>2020-08-26T12:21:03.893Z</time>
      </trkpt>
      <trkpt lat="69.66394" lon="18.5766">
        <ele>190.709229</ele>
        <time>2020-08-26T12:21:07.857Z</time>
      </trkpt>
      <trkpt lat="69.66399" lon="18.57686">
        <ele>190.933471</ele>
        <time>2020-08-26T12:21:11.875Z</time>
      </trkpt>
      <trkpt lat="69.66404" lon="18.57712">
        <ele>191.149945</ele>
        <time>2020-08-26T12:21:15.849Z</time>
      </trkpt>
      <trkpt lat="69.66409" lon="18.57741">
        <ele>191.379756</ele>
        <time>2020-08-26T12:21:19.837Z</time>
      </trkpt>
      <trkpt lat="69.66414" lon="18.57769">
        <ele>191.605895</ele>
        <time>2020-08-26T12:21:23.871Z</time>
      </trkpt>
      <trkpt lat="69.66419" lon="18.57799">
        <ele>191.855258</ele>
        <time>2020-08-26T12:21:27.832Z</time>
      </trkpt>
      <trkpt lat="69.66424" lon="18.57824">
        <ele>192.057457</ele>
        <time>2020-08-26T12:21:30.839Z</time>
      </trkpt>
      <trkpt lat="69.66428" lon="18.5785">
        <ele>192.269053</ele>
        <time>2020-08-26T12:21:33.854Z</time>
      </trkpt>
      <trkpt lat="69.66433" lon="18.57879">
        <ele>192.499571</ele>
        <time>2020-08-26T12:21:36.847Z</time>
      </trkpt>
      <trkpt lat="69.66437" lon="18.57906">
        <ele>192.722559</ele>
        <time>2020-08-26T12:21:39.878Z</time>
      </trkpt>
      <trkpt lat="69.66441" lon="18.57932">
        <ele>192.931215</ele>
        <time>2020-08-26T12:21:42.853Z</time>
      </trkpt>
      <trkpt lat="69.66446" lon="18.57961">
        <ele>193.156219</ele>
        <time>2020-08-26T12:21:45.850Z</time>
      </trkpt>
      <trkpt lat="69.6645" lon="18.5799">
        <ele>193.392915</ele>
        <time>2020-08-26T12:21:48.848Z</time>
      </trkpt>
      <trkpt lat="69.66456" lon="18.5802">
        <ele>193.637741</ele>
        <time>2020-08-26T12:21:51.847Z</time>
      </trkpt>
      <trkpt lat="69.66461" lon="18.58051">
        <ele>193.883652</ele>
        <time>2020-08-26T12:21:54.857Z</time>
      </trkpt>
      <trkpt lat="69.66465" lon="18.58082">
        <ele>194.128938</ele>
        <time>2020-08-26T12:21:57.854Z</time>
      </trkpt>
      <trkpt lat="69.6647" lon="18.58112">
        <ele>194.413088</ele>
        <time>2020-08-26T12:22:00.839Z</time>
      </trkpt>
      <trkpt lat="69.66474" lon="18.58143">
        <ele>194.795127</ele>
        <time>2020-08-26T12:22:03.880Z</time>
      </trkpt>
      <trkpt lat="69.66479" lon="18.58172">
        <ele>195.169234</ele>
        <time>2020-08-26T12:22:06.836Z</time>
      </trkpt>
      <trkpt lat="69.66484" lon="18.58199">
        <ele>195.508558</ele>
        <time>2020-08-26T12:22:09.859Z</time>
      </trkpt>
      <trkpt lat="69.66488" lon="18.58226">
        <ele>195.859037</ele>
        <time>2020-08-26T12:22:12.837Z</time>
      </trkpt>
      <trkpt lat="69.66493" lon="18.58253">
        <ele>196.204487</ele>
        <time>2020-08-26T12:22:15.843Z</time>
      </trkpt>
      <trkpt lat="69.66498" lon="18.5828">
        <ele>196.560193</ele>
        <time>2020-08-26T12:22:18.847Z</time>
      </trkpt>
      <trkpt lat="69.66502" lon="18.58307">
        <ele>196.901085</ele>
        <time>2020-08-26T12:22:21.838Z</time>
      </trkpt>
      <trkpt lat="69.66505" lon="18.58333">
        <ele>197.218962</ele>
        <time>2020-08-26T12:22:24.836Z</time>
      </trkpt>
      <trkpt lat="69.66509" lon="18.58359">
        <ele>197.548994</ele>
        <time>2020-08-26T12:22:27.858Z</time>
      </trkpt>
      <trkpt lat="69.66513" lon="18.58385">
        <ele>197.865601</ele>
        <time>2020-08-26T12:22:30.845Z</time>
      </trkpt>
      <trkpt lat="69.66517" lon="18.58414">
        <ele>198.223243</ele>
        <time>2020-08-26T12:22:34.835Z</time>
      </trkpt>
      <trkpt lat="69.66522" lon="18.58437">
        <ele>198.543246</ele>
        <time>2020-08-26T12:22:38.834Z</time>
      </trkpt>
      <trkpt lat="69.66526" lon="18.5846">
        <ele>198.848895</ele>
        <time>2020-08-26T12:22:42.839Z</time>
      </trkpt>
      <trkpt lat="69.66529" lon="18.58485">
        <ele>199.148744</ele>
        <time>2020-08-26T12:22:46.864Z</time>
      </trkpt>
      <trkpt lat="69.66534" lon="18.58512">
        <ele>199.497119</ele>
        <time>2020-08-26T12:22:50.856Z</time>
      </trkpt>
      <trkpt lat="69.66539" lon="18.58542">
        <ele>199.873453</ele>
        <time>2020-08-26T12:22:54.836Z</time>
      </trkpt>
      <trkpt lat="69.66542" lon="18.58568">
        <ele>200.206459</ele>
        <time>2020-08-26T12:22:58.861Z</time>
      </trkpt>
      <trkpt lat="69.66546" lon="18.58598">
        <ele>200.246508</ele>
        <time>2020-08-26T12:23:02.883Z</time>
      </trkpt>
      <trkpt lat="69.66551" lon="18.58624">
        <ele>200.206315</ele>
        <time>2020-08-26T12:23:07.850Z</time>
      </trkpt>
      <trkpt lat="69.66555" lon="18.58649">
        <ele>200.169497</ele>
        <time>2020-08-26T12:23:11.880Z</time>
      </trkpt>
      <trkpt lat="69.6656" lon="18.58675">
        <ele>200.130024</ele>
        <time>2020-08-26T12:23:15.835Z</time>
      </trkpt>
      <trkpt lat="69.66564" lon="18.58699">
        <ele>200.095192</ele>
        <time>2020-08-26T12:23:18.837Z</time>
      </trkpt>
      <trkpt lat="69.66569" lon="18.58724">
        <ele>200.056612</ele>
        <time>2020-08-26T12:23:21.875Z</time>
      </trkpt>
      <trkpt lat="69.66574" lon="18.58752">
        <ele>200.014777</ele>
        <time>2020-08-26T12:23:24.854Z</time>
      </trkpt>
      <trkpt lat="69.66579" lon="18.58782">
        <ele>199.970177</ele>
        <time>2020-08-26T12:23:27.837Z</time>
      </trkpt>
      <trkpt lat="69.66583" lon="18.58814">
        <ele>199.923786</ele>
        <time>2020-08-26T12:23:30.843Z</time>
      </trkpt>
      <trkpt lat="69.66588" lon="18.58845">
        <ele>199.878255</ele>
        <time>2020-08-26T12:23:33.848Z</time>
      </trkpt>
      <trkpt lat="69.66593" lon="18.58876">
        <ele>199.833603</ele>
        <time>2020-08-26T12:23:36.838Z</time>
      </trkpt>
      <trkpt lat="69.66597" lon="18.58908">
        <ele>199.788314</ele>
        <time>2020-08-26T12:23:39.867Z</time>
      </trkpt>
      <trkpt lat="69.66602" lon="18.58938">
        <ele>199.744188</ele>
        <time>2020-08-26T12:23:42.858Z</time>
      </trkpt>
      <trkpt lat="69.66606" lon="18.5897">
        <ele>199.698317</ele>
        <time>2020-08-26T12:23:45.861Z</time>
      </trkpt>
      <trkpt lat="69.6661" lon="18.58999">
        <ele>199.656182</ele>
        <time>2020-08-26T12:23:48.856Z</time>
      </trkpt>
      <trkpt lat="69.66615" lon="18.59025">
        <ele>199.616538</ele>
        <time>2020-08-26T12:23:51.866Z</time>
      </trkpt>
      <trkpt lat="69.66619" lon="18.59051">
        <ele>199.600563</ele>
        <time>2020-08-26T12:23:54.867Z</time>
      </trkpt>
      <trkpt lat="69.66624" lon="18.59076">
        <ele>199.643397</ele>
        <time>2020-08-26T12:23:57.860Z</time>
      </trkpt>
      <trkpt lat="69.66628" lon="18.59099">
        <ele>199.682241</ele>
        <time>2020-08-26T12:24:00.838Z</time>
      </trkpt>
      <trkpt lat="69.66633" lon="18.59131">
        <ele>199.735117</ele>
        <time>2020-08-26T12:24:04.848Z</time>
      </trkpt>
      <trkpt lat="69.66638" lon="18.59157">
        <ele>199.779088</ele>
        <time>2020-08-26T12:24:07.868Z</time>
      </trkpt>
      <trkpt lat="69.66642" lon="18.59185">
        <ele>199.825331</ele>
        <time>2020-08-26T12:24:10.837Z</time>
      </trkpt>
      <trkpt lat="69.66647" lon="18.59217">
        <ele>199.876631</ele>
        <time>2020-08-26T12:24:13.845Z</time>
      </trkpt>
      <trkpt lat="69.66652" lon="18.59252">
        <ele>199.934347</ele>
        <time>2020-08-26T12:24:16.859Z</time>
      </trkpt>
      <trkpt lat="69.66656" lon="18.59276">
        <ele>199.973753</ele>
        <time>2020-08-26T12:24:18.847Z</time>
      </trkpt>
      <trkpt lat="69.66661" lon="18.59311">
        <ele>200.032043</ele>
        <time>2020-08-26T12:24:21.847Z</time>
      </trkpt>
      <trkpt lat="69.66665" lon="18.59335">
        <ele>200.07227</ele>
        <time>2020-08-26T12:24:23.868Z</time>
      </trkpt>
      <trkpt lat="69.66669" lon="18.59359">
        <ele>200.111522</ele>
        <time>2020-08-26T12:24:25.835Z</time>
      </trkpt>
      <trkpt lat="69.66673" lon="18.5939">
        <ele>200.160863</ele>
        <time>2020-08-26T12:24:28.882Z</time>
      </trkpt>
      <trkpt lat="69.66677" lon="18.59417">
        <ele>200.204299</ele>
        <time>2020-08-26T12:24:31.849Z</time>
      </trkpt>
      <trkpt lat="69.66682" lon="18.59445">
        <ele>200.253128</ele>
        <time>2020-08-26T12:24:35.848Z</time>
      </trkpt>
      <trkpt lat="69.66686" lon="18.5947">
        <ele>200.294499</ele>
        <time>2020-08-26T12:24:39.840Z</time>
      </trkpt>
      <trkpt lat="69.6669" lon="18.59494">
        <ele>200.333495</ele>
        <time>2020-08-26T12:24:42.840Z</time>
      </trkpt>
      <trkpt lat="69.66693" lon="18.59519">
        <ele>200.396797</ele>
        <time>2020-08-26T12:24:45.870Z</time>
      </trkpt>
      <trkpt lat="69.66698" lon="18.59541">
        <ele>200.579877</ele>
        <time>2020-08-26T12:24:48.851Z</time>
      </trkpt>
      <trkpt lat="69.66702" lon="18.59566">
        <ele>200.779136</ele>
        <time>2020-08-26T12:24:51.842Z</time>
      </trkpt>
      <trkpt lat="69.66706" lon="18.59591">
        <ele>200.974072</ele>
        <time>2020-08-26T12:24:54.830Z</time>
      </trkpt>
      <trkpt lat="69.6671" lon="18.59615">
        <ele>201.164292</ele>
        <time>2020-08-26T12:24:57.859Z</time>
      </trkpt>
      <trkpt lat="69.66714" lon="18.5964">
        <ele>201.352577</ele>
        <time>2020-08-26T12:25:00.849Z</time>
      </trkpt>
      <trkpt lat="69.66718" lon="18.59665">
        <ele>201.544442</ele>
        <time>2020-08-26T12:25:03.835Z</time>
      </trkpt>
      <trkpt lat="69.66722" lon="18.59691">
        <ele>201.749815</ele>
        <time>2020-08-26T12:25:06.857Z</time>
      </trkpt>
      <trkpt lat="69.66726" lon="18.59718">
        <ele>201.960124</ele>
        <time>2020-08-26T12:25:09.835Z</time>
      </trkpt>
      <trkpt lat="69.66731" lon="18.59748">
        <ele>202.192847</ele>
        <time>2020-08-26T12:25:12.863Z</time>
      </trkpt>
      <trkpt lat="69.66738" lon="18.59781">
        <ele>202.460295</ele>
        <time>2020-08-26T12:25:15.889Z</time>
      </trkpt>
      <trkpt lat="69.66742" lon="18.59804">
        <ele>202.646427</ele>
        <time>2020-08-26T12:25:17.846Z</time>
      </trkpt>
      <trkpt lat="69.66748" lon="18.59835">
        <ele>202.895806</ele>
        <time>2020-08-26T12:25:20.848Z</time>
      </trkpt>
      <trkpt lat="69.66752" lon="18.59866">
        <ele>203.133978</ele>
        <time>2020-08-26T12:25:23.859Z</time>
      </trkpt>
      <trkpt lat="69.66757" lon="18.59895">
        <ele>203.362087</ele>
        <time>2020-08-26T12:25:26.850Z</time>
      </trkpt>
      <trkpt lat="69.66763" lon="18.59925">
        <ele>203.601126</ele>
        <time>2020-08-26T12:25:29.836Z</time>
      </trkpt>
      <trkpt lat="69.66767" lon="18.59959">
        <ele>203.860901</ele>
        <time>2020-08-26T12:25:32.851Z</time>
      </trkpt>
      <trkpt lat="69.66771" lon="18.59983">
        <ele>203.987856</ele>
        <time>2020-08-26T12:25:34.838Z</time>
      </trkpt>
      <trkpt lat="69.66776" lon="18.60009">
        <ele>203.657407</ele>
        <time>2020-08-26T12:25:36.839Z</time>
      </trkpt>
      <trkpt lat="69.66782" lon="18.60036">
        <ele>203.31228</ele>
        <time>2020-08-26T12:25:38.840Z</time>
      </trkpt>
      <trkpt lat="69.66786" lon="18.60065">
        <ele>202.944644</ele>
        <time>2020-08-26T12:25:40.847Z</time>
      </trkpt>
      <trkpt lat="69.66792" lon="18.60097">
        <ele>202.556266</ele>
        <time>2020-08-26T12:25:42.841Z</time>
      </trkpt>
      <trkpt lat="69.66796" lon="18.60128">
        <ele>202.170958</ele>
        <time>2020-08-26T12:25:44.879Z</time>
      </trkpt>
      <trkpt lat="69.66802" lon="18.60162">
        <ele>201.751971</ele>
        <time>2020-08-26T12:25:46.871Z</time>
      </trkpt>
      <trkpt lat="69.66807" lon="18.60198">
        <ele>201.305907</ele>
        <time>2020-08-26T12:25:48.847Z</time>
      </trkpt>
      <trkpt lat="69.66813" lon="18.60236">
        <ele>200.846236</ele>
        <time>2020-08-26T12:25:50.846Z</time>
      </trkpt>
      <trkpt lat="69.66819" lon="18.60275">
        <ele>200.364306</ele>
        <time>2020-08-26T12:25:52.909Z</time>
      </trkpt>
      <trkpt lat="69.66826" lon="18.60317">
        <ele>199.846708</ele>
        <time>2020-08-26T12:25:54.852Z</time>
      </trkpt>
      <trkpt lat="69.66833" lon="18.60362">
        <ele>199.294374</ele>
        <time>2020-08-26T12:25:56.850Z</time>
      </trkpt>
      <trkpt lat="69.6684" lon="18.60409">
        <ele>198.714799</ele>
        <time>2020-08-26T12:25:58.871Z</time>
      </trkpt>
      <trkpt lat="69.66844" lon="18.60433">
        <ele>198.418453</ele>
        <time>2020-08-26T12:25:59.850Z</time>
      </trkpt>
      <trkpt lat="69.66848" lon="18.60458">
        <ele>198.020513</ele>
        <time>2020-08-26T12:26:00.906Z</time>
      </trkpt>
      <trkpt lat="69.66852" lon="18.60485">
        <ele>197.422142</ele>
        <time>2020-08-26T12:26:01.865Z</time>
      </trkpt>
      <trkpt lat="69.66856" lon="18.60513">
        <ele>196.803346</ele>
        <time>2020-08-26T12:26:02.853Z</time>
      </trkpt>
      <trkpt lat="69.6686" lon="18.60542">
        <ele>196.1665</ele>
        <time>2020-08-26T12:26:03.845Z</time>
      </trkpt>
      <trkpt lat="69.66865" lon="18.60572">
        <ele>195.506182</ele>
        <time>2020-08-26T12:26:04.845Z</time>
      </trkpt>
      <trkpt lat="69.6687" lon="18.60601">
        <ele>194.84827</ele>
        <time>2020-08-26T12:26:05.887Z</time>
      </trkpt>
      <trkpt lat="69.66874" lon="18.60631">
        <ele>194.193175</ele>
        <time>2020-08-26T12:26:06.869Z</time>
      </trkpt>
      <trkpt lat="69.66879" lon="18.60662">
        <ele>193.507705</ele>
        <time>2020-08-26T12:26:07.864Z</time>
      </trkpt>
      <trkpt lat="69.66884" lon="18.60693">
        <ele>192.803777</ele>
        <time>2020-08-26T12:26:08.847Z</time>
      </trkpt>
      <trkpt lat="69.6689" lon="18.60725">
        <ele>192.081986</ele>
        <time>2020-08-26T12:26:09.850Z</time>
      </trkpt>
      <trkpt lat="69.66895" lon="18.60758">
        <ele>191.327713</ele>
        <time>2020-08-26T12:26:10.848Z</time>
      </trkpt>
      <trkpt lat="69.66901" lon="18.60792">
        <ele>190.575269</ele>
        <time>2020-08-26T12:26:11.855Z</time>
      </trkpt>
      <trkpt lat="69.66906" lon="18.60825">
        <ele>189.820999</ele>
        <time>2020-08-26T12:26:12.858Z</time>
      </trkpt>
      <trkpt lat="69.66912" lon="18.60859">
        <ele>189.060534</ele>
        <time>2020-08-26T12:26:13.841Z</time>
      </trkpt>
      <trkpt lat="69.66918" lon="18.60893">
        <ele>188.294593</ele>
        <time>2020-08-26T12:26:14.867Z</time>
      </trkpt>
      <trkpt lat="69.66924" lon="18.60927">
        <ele>187.447188</ele>
        <time>2020-08-26T12:26:15.848Z</time>
      </trkpt>
      <trkpt lat="69.66929" lon="18.60962">
        <ele>186.367613</ele>
        <time>2020-08-26T12:26:16.854Z</time>
      </trkpt>
      <trkpt lat="69.66935" lon="18.60996">
        <ele>185.287269</ele>
        <time>2020-08-26T12:26:17.857Z</time>
      </trkpt>
      <trkpt lat="69.6694" lon="18.61031">
        <ele>184.213657</ele>
        <time>2020-08-26T12:26:18.852Z</time>
      </trkpt>
      <trkpt lat="69.66945" lon="18.61065">
        <ele>183.160246</ele>
        <time>2020-08-26T12:26:19.834Z</time>
      </trkpt>
      <trkpt lat="69.6695" lon="18.61098">
        <ele>182.137276</ele>
        <time>2020-08-26T12:26:20.847Z</time>
      </trkpt>
      <trkpt lat="69.66954" lon="18.61131">
        <ele>181.133212</ele>
        <time>2020-08-26T12:26:21.843Z</time>
      </trkpt>
      <trkpt lat="69.66959" lon="18.61162">
        <ele>180.168587</ele>
        <time>2020-08-26T12:26:22.848Z</time>
      </trkpt>
      <trkpt lat="69.66964" lon="18.61193">
        <ele>179.205248</ele>
        <time>2020-08-26T12:26:23.850Z</time>
      </trkpt>
      <trkpt lat="69.66968" lon="18.61223">
        <ele>178.265338</ele>
        <time>2020-08-26T12:26:24.861Z</time>
      </trkpt>
      <trkpt lat="69.66972" lon="18.61253">
        <ele>177.339522</ele>
        <time>2020-08-26T12:26:25.840Z</time>
      </trkpt>
      <trkpt lat="69.66977" lon="18.61284">
        <ele>176.410119</ele>
        <time>2020-08-26T12:26:26.840Z</time>
      </trkpt>
      <trkpt lat="69.66981" lon="18.61313">
        <ele>175.501661</ele>
        <time>2020-08-26T12:26:27.875Z</time>
      </trkpt>
      <trkpt lat="69.66986" lon="18.61341">
        <ele>174.617592</ele>
        <time>2020-08-26T12:26:28.868Z</time>
      </trkpt>
      <trkpt lat="69.6699" lon="18.61369">
        <ele>173.740245</ele>
        <time>2020-08-26T12:26:29.832Z</time>
      </trkpt>
      <trkpt lat="69.66995" lon="18.61396">
        <ele>172.916212</ele>
        <time>2020-08-26T12:26:30.848Z</time>
      </trkpt>
      <trkpt lat="69.66999" lon="18.61422">
        <ele>172.289778</ele>
        <time>2020-08-26T12:26:31.872Z</time>
      </trkpt>
      <trkpt lat="69.67002" lon="18.61447">
        <ele>171.673457</ele>
        <time>2020-08-26T12:26:32.855Z</time>
      </trkpt>
      <trkpt lat="69.67006" lon="18.61473">
        <ele>171.072698</ele>
        <time>2020-08-26T12:26:33.841Z</time>
      </trkpt>
      <trkpt lat="69.67009" lon="18.61497">
        <ele>170.503846</ele>
        <time>2020-08-26T12:26:34.836Z</time>
      </trkpt>
      <trkpt lat="69.67015" lon="18.61543">
        <ele>169.418252</ele>
        <time>2020-08-26T12:26:36.839Z</time>
      </trkpt>
      <trkpt lat="69.67021" lon="18.61585">
        <ele>168.41355</ele>
        <time>2020-08-26T12:26:38.864Z</time>
      </trkpt>
      <trkpt lat="69.67027" lon="18.61625">
        <ele>167.445815</ele>
        <time>2020-08-26T12:26:40.849Z</time>
      </trkpt>
      <trkpt lat="69.67034" lon="18.61663">
        <ele>166.502407</ele>
        <time>2020-08-26T12:26:42.849Z</time>
      </trkpt>
      <trkpt lat="69.6704" lon="18.61701">
        <ele>165.571454</ele>
        <time>2020-08-26T12:26:44.858Z</time>
      </trkpt>
      <trkpt lat="69.67046" lon="18.61739">
        <ele>164.671508</ele>
        <time>2020-08-26T12:26:46.848Z</time>
      </trkpt>
      <trkpt lat="69.67052" lon="18.61775">
        <ele>163.802582</ele>
        <time>2020-08-26T12:26:48.844Z</time>
      </trkpt>
      <trkpt lat="69.67057" lon="18.6181">
        <ele>162.944104</ele>
        <time>2020-08-26T12:26:50.886Z</time>
      </trkpt>
      <trkpt lat="69.67063" lon="18.61846">
        <ele>162.085089</ele>
        <time>2020-08-26T12:26:52.869Z</time>
      </trkpt>
      <trkpt lat="69.67068" lon="18.61881">
        <ele>161.440123</ele>
        <time>2020-08-26T12:26:54.870Z</time>
      </trkpt>
      <trkpt lat="69.67074" lon="18.61918">
        <ele>161.114589</ele>
        <time>2020-08-26T12:26:56.859Z</time>
      </trkpt>
      <trkpt lat="69.6708" lon="18.61953">
        <ele>160.795818</ele>
        <time>2020-08-26T12:26:58.863Z</time>
      </trkpt>
      <trkpt lat="69.67085" lon="18.61989">
        <ele>160.47039</ele>
        <time>2020-08-26T12:27:00.867Z</time>
      </trkpt>
      <trkpt lat="69.67091" lon="18.62025">
        <ele>160.150883</ele>
        <time>2020-08-26T12:27:02.864Z</time>
      </trkpt>
      <trkpt lat="69.67097" lon="18.6206">
        <ele>159.831837</ele>
        <time>2020-08-26T12:27:04.851Z</time>
      </trkpt>
      <trkpt lat="69.67104" lon="18.62096">
        <ele>159.499548</ele>
        <time>2020-08-26T12:27:06.840Z</time>
      </trkpt>
      <trkpt lat="69.6711" lon="18.62136">
        <ele>159.140792</ele>
        <time>2020-08-26T12:27:08.831Z</time>
      </trkpt>
      <trkpt lat="69.67118" lon="18.62178">
        <ele>158.74806</ele>
        <time>2020-08-26T12:27:10.853Z</time>
      </trkpt>
      <trkpt lat="69.67126" lon="18.62222">
        <ele>158.342286</ele>
        <time>2020-08-26T12:27:12.839Z</time>
      </trkpt>
      <trkpt lat="69.67134" lon="18.62265">
        <ele>157.945855</ele>
        <time>2020-08-26T12:27:14.859Z</time>
      </trkpt>
      <trkpt lat="69.67141" lon="18.62309">
        <ele>157.546857</ele>
        <time>2020-08-26T12:27:16.863Z</time>
      </trkpt>
      <trkpt lat="69.67148" lon="18.62353">
        <ele>157.207917</ele>
        <time>2020-08-26T12:27:18.888Z</time>
      </trkpt>
      <trkpt lat="69.67155" lon="18.62396">
        <ele>156.936029</ele>
        <time>2020-08-26T12:27:20.850Z</time>
      </trkpt>
      <trkpt lat="69.67161" lon="18.62439">
        <ele>156.665882</ele>
        <time>2020-08-26T12:27:22.869Z</time>
      </trkpt>
      <trkpt lat="69.67168" lon="18.62479">
        <ele>156.407793</ele>
        <time>2020-08-26T12:27:24.860Z</time>
      </trkpt>
      <trkpt lat="69.67174" lon="18.62518">
        <ele>156.163864</ele>
        <time>2020-08-26T12:27:26.852Z</time>
      </trkpt>
      <trkpt lat="69.67179" lon="18.62555">
        <ele>155.929652</ele>
        <time>2020-08-26T12:27:28.857Z</time>
      </trkpt>
      <trkpt lat="69.67185" lon="18.62592">
        <ele>155.697256</ele>
        <time>2020-08-26T12:27:30.856Z</time>
      </trkpt>
      <trkpt lat="69.67191" lon="18.62628">
        <ele>155.461502</ele>
        <time>2020-08-26T12:27:32.901Z</time>
      </trkpt>
      <trkpt lat="69.67198" lon="18.62665">
        <ele>155.228034</ele>
        <time>2020-08-26T12:27:34.867Z</time>
      </trkpt>
      <trkpt lat="69.67204" lon="18.62701">
        <ele>154.992483</ele>
        <time>2020-08-26T12:27:36.829Z</time>
      </trkpt>
      <trkpt lat="69.6721" lon="18.62736">
        <ele>154.768855</ele>
        <time>2020-08-26T12:27:38.850Z</time>
      </trkpt>
      <trkpt lat="69.67217" lon="18.62767">
        <ele>154.556842</ele>
        <time>2020-08-26T12:27:40.871Z</time>
      </trkpt>
      <trkpt lat="69.67223" lon="18.62796">
        <ele>154.357088</ele>
        <time>2020-08-26T12:27:42.841Z</time>
      </trkpt>
      <trkpt lat="69.6723" lon="18.62821">
        <ele>154.06766</ele>
        <time>2020-08-26T12:27:44.898Z</time>
      </trkpt>
      <trkpt lat="69.67238" lon="18.62845">
        <ele>153.773467</ele>
        <time>2020-08-26T12:27:46.850Z</time>
      </trkpt>
      <trkpt lat="69.67245" lon="18.62867">
        <ele>153.482327</ele>
        <time>2020-08-26T12:27:48.847Z</time>
      </trkpt>
      <trkpt lat="69.67253" lon="18.62891">
        <ele>153.192722</ele>
        <time>2020-08-26T12:27:50.872Z</time>
      </trkpt>
      <trkpt lat="69.67261" lon="18.62915">
        <ele>152.883163</ele>
        <time>2020-08-26T12:27:52.853Z</time>
      </trkpt>
      <trkpt lat="69.6727" lon="18.62939">
        <ele>152.562191</ele>
        <time>2020-08-26T12:27:54.831Z</time>
      </trkpt>
      <trkpt lat="69.67279" lon="18.62964">
        <ele>152.238119</ele>
        <time>2020-08-26T12:27:56.834Z</time>
      </trkpt>
      <trkpt lat="69.67289" lon="18.62988">
        <ele>151.887448</ele>
        <time>2020-08-26T12:27:58.863Z</time>
      </trkpt>
      <trkpt lat="69.67299" lon="18.63015">
        <ele>151.511991</ele>
        <time>2020-08-26T12:28:00.847Z</time>
      </trkpt>
      <trkpt lat="69.6731" lon="18.63041">
        <ele>151.135707</ele>
        <time>2020-08-26T12:28:02.838Z</time>
      </trkpt>
      <trkpt lat="69.67322" lon="18.63069">
        <ele>150.746611</ele>
        <time>2020-08-26T12:28:04.845Z</time>
      </trkpt>
      <trkpt lat="69.67333" lon="18.63095">
        <ele>150.3651</ele>
        <time>2020-08-26T12:28:06.857Z</time>
      </trkpt>
      <trkpt lat="69.67344" lon="18.63121">
        <ele>149.982769</ele>
        <time>2020-08-26T12:28:08.841Z</time>
      </trkpt>
      <trkpt lat="69.67356" lon="18.63145">
        <ele>149.591383</ele>
        <time>2020-08-26T12:28:10.838Z</time>
      </trkpt>
      <trkpt lat="69.67369" lon="18.63168">
        <ele>148.969571</ele>
        <time>2020-08-26T12:28:12.846Z</time>
      </trkpt>
      <trkpt lat="69.67384" lon="18.63187">
        <ele>148.298371</ele>
        <time>2020-08-26T12:28:14.853Z</time>
      </trkpt>
      <trkpt lat="69.67401" lon="18.63205">
        <ele>147.557344</ele>
        <time>2020-08-26T12:28:16.844Z</time>
      </trkpt>
      <trkpt lat="69.6741" lon="18.63214">
        <ele>147.162323</ele>
        <time>2020-08-26T12:28:17.849Z</time>
      </trkpt>
      <trkpt lat="69.67419" lon="18.63225">
        <ele>146.741427</ele>
        <time>2020-08-26T12:28:18.876Z</time>
      </trkpt>
      <trkpt lat="69.67429" lon="18.63237">
        <ele>146.309075</ele>
        <time>2020-08-26T12:28:19.850Z</time>
      </trkpt>
      <trkpt lat="69.67439" lon="18.6325">
        <ele>145.857762</ele>
        <time>2020-08-26T12:28:20.860Z</time>
      </trkpt>
      <trkpt lat="69.67449" lon="18.63265">
        <ele>145.394569</ele>
        <time>2020-08-26T12:28:21.877Z</time>
      </trkpt>
      <trkpt lat="69.67459" lon="18.6328">
        <ele>144.934028</ele>
        <time>2020-08-26T12:28:22.856Z</time>
      </trkpt>
      <trkpt lat="69.67468" lon="18.63296">
        <ele>144.474328</ele>
        <time>2020-08-26T12:28:23.859Z</time>
      </trkpt>
      <trkpt lat="69.67477" lon="18.63311">
        <ele>144.038264</ele>
        <time>2020-08-26T12:28:24.840Z</time>
      </trkpt>
      <trkpt lat="69.67487" lon="18.63326">
        <ele>143.594283</ele>
        <time>2020-08-26T12:28:25.866Z</time>
      </trkpt>
      <trkpt lat="69.67496" lon="18.63342">
        <ele>143.141682</ele>
        <time>2020-08-26T12:28:26.865Z</time>
      </trkpt>
      <trkpt lat="69.67506" lon="18.63357">
        <ele>142.681985</ele>
        <time>2020-08-26T12:28:27.867Z</time>
      </trkpt>
      <trkpt lat="69.67516" lon="18.63374">
        <ele>142.213716</ele>
        <time>2020-08-26T12:28:28.866Z</time>
      </trkpt>
      <trkpt lat="69.67526" lon="18.6339">
        <ele>141.432928</ele>
        <time>2020-08-26T12:28:29.841Z</time>
      </trkpt>
      <trkpt lat="69.67535" lon="18.63407">
        <ele>140.609178</ele>
        <time>2020-08-26T12:28:30.837Z</time>
      </trkpt>
      <trkpt lat="69.67545" lon="18.63422">
        <ele>139.792997</ele>
        <time>2020-08-26T12:28:31.851Z</time>
      </trkpt>
      <trkpt lat="69.67555" lon="18.63435">
        <ele>138.998874</ele>
        <time>2020-08-26T12:28:32.852Z</time>
      </trkpt>
      <trkpt lat="69.67566" lon="18.63445">
        <ele>138.189726</ele>
        <time>2020-08-26T12:28:33.839Z</time>
      </trkpt>
      <trkpt lat="69.67577" lon="18.63452">
        <ele>137.360977</ele>
        <time>2020-08-26T12:28:34.836Z</time>
      </trkpt>
      <trkpt lat="69.67588" lon="18.63459">
        <ele>136.510871</ele>
        <time>2020-08-26T12:28:35.859Z</time>
      </trkpt>
      <trkpt lat="69.676" lon="18.63467">
        <ele>135.642653</ele>
        <time>2020-08-26T12:28:36.849Z</time>
      </trkpt>
      <trkpt lat="69.67611" lon="18.63474">
        <ele>134.761903</ele>
        <time>2020-08-26T12:28:37.868Z</time>
      </trkpt>
      <trkpt lat="69.67623" lon="18.63482">
        <ele>133.907875</ele>
        <time>2020-08-26T12:28:38.883Z</time>
      </trkpt>
      <trkpt lat="69.67634" lon="18.63491">
        <ele>133.048293</ele>
        <time>2020-08-26T12:28:39.861Z</time>
      </trkpt>
      <trkpt lat="69.67646" lon="18.63501">
        <ele>132.176693</ele>
        <time>2020-08-26T12:28:40.851Z</time>
      </trkpt>
      <trkpt lat="69.67657" lon="18.63514">
        <ele>131.302109</ele>
        <time>2020-08-26T12:28:41.852Z</time>
      </trkpt>
      <trkpt lat="69.67668" lon="18.63528">
        <ele>130.424511</ele>
        <time>2020-08-26T12:28:42.835Z</time>
      </trkpt>
      <trkpt lat="69.67679" lon="18.63544">
        <ele>129.500162</ele>
        <time>2020-08-26T12:28:43.842Z</time>
      </trkpt>
      <trkpt lat="69.67691" lon="18.63561">
        <ele>128.397183</ele>
        <time>2020-08-26T12:28:44.860Z</time>
      </trkpt>
      <trkpt lat="69.67702" lon="18.63579">
        <ele>127.129598</ele>
        <time>2020-08-26T12:28:45.875Z</time>
      </trkpt>
      <trkpt lat="69.67713" lon="18.63597">
        <ele>125.857129</ele>
        <time>2020-08-26T12:28:46.837Z</time>
      </trkpt>
      <trkpt lat="69.67725" lon="18.63615">
        <ele>124.601744</ele>
        <time>2020-08-26T12:28:47.856Z</time>
      </trkpt>
      <trkpt lat="69.67735" lon="18.63633">
        <ele>123.37168</ele>
        <time>2020-08-26T12:28:48.838Z</time>
      </trkpt>
      <trkpt lat="69.67746" lon="18.63652">
        <ele>122.203453</ele>
        <time>2020-08-26T12:28:49.857Z</time>
      </trkpt>
      <trkpt lat="69.67755" lon="18.63669">
        <ele>121.09648</ele>
        <time>2020-08-26T12:28:50.864Z</time>
      </trkpt>
      <trkpt lat="69.67764" lon="18.63686">
        <ele>120.03062</ele>
        <time>2020-08-26T12:28:51.830Z</time>
      </trkpt>
      <trkpt lat="69.67773" lon="18.63704">
        <ele>118.98139</ele>
        <time>2020-08-26T12:28:52.839Z</time>
      </trkpt>
      <trkpt lat="69.67782" lon="18.63722">
        <ele>117.919892</ele>
        <time>2020-08-26T12:28:53.856Z</time>
      </trkpt>
      <trkpt lat="69.67792" lon="18.63737">
        <ele>116.845849</ele>
        <time>2020-08-26T12:28:54.861Z</time>
      </trkpt>
      <trkpt lat="69.67801" lon="18.63753">
        <ele>115.774996</ele>
        <time>2020-08-26T12:28:55.842Z</time>
      </trkpt>
      <trkpt lat="69.67811" lon="18.63768">
        <ele>114.675147</ele>
        <time>2020-08-26T12:28:56.880Z</time>
      </trkpt>
      <trkpt lat="69.67821" lon="18.63785">
        <ele>113.550205</ele>
        <time>2020-08-26T12:28:57.853Z</time>
      </trkpt>
      <trkpt lat="69.67831" lon="18.63803">
        <ele>112.414839</ele>
        <time>2020-08-26T12:28:58.838Z</time>
      </trkpt>
      <trkpt lat="69.6784" lon="18.63822">
        <ele>111.299321</ele>
        <time>2020-08-26T12:28:59.849Z</time>
      </trkpt>
      <trkpt lat="69.67848" lon="18.63841">
        <ele>110.079057</ele>
        <time>2020-08-26T12:29:00.868Z</time>
      </trkpt>
      <trkpt lat="69.67857" lon="18.63861">
        <ele>108.821787</ele>
        <time>2020-08-26T12:29:01.837Z</time>
      </trkpt>
      <trkpt lat="69.67865" lon="18.63881">
        <ele>107.60955</ele>
        <time>2020-08-26T12:29:02.863Z</time>
      </trkpt>
      <trkpt lat="69.67873" lon="18.639">
        <ele>106.418782</ele>
        <time>2020-08-26T12:29:03.855Z</time>
      </trkpt>
      <trkpt lat="69.6788" lon="18.63918">
        <ele>105.313367</ele>
        <time>2020-08-26T12:29:04.886Z</time>
      </trkpt>
      <trkpt lat="69.67893" lon="18.63951">
        <ele>103.3593</ele>
        <time>2020-08-26T12:29:06.854Z</time>
      </trkpt>
      <trkpt lat="69.67903" lon="18.63983">
        <ele>101.693347</ele>
        <time>2020-08-26T12:29:08.869Z</time>
      </trkpt>
      <trkpt lat="69.67911" lon="18.64014">
        <ele>100.156775</ele>
        <time>2020-08-26T12:29:10.860Z</time>
      </trkpt>
      <trkpt lat="69.6792" lon="18.64044">
        <ele>98.599672</ele>
        <time>2020-08-26T12:29:12.885Z</time>
      </trkpt>
      <trkpt lat="69.67929" lon="18.64071">
        <ele>97.094102</ele>
        <time>2020-08-26T12:29:14.849Z</time>
      </trkpt>
      <trkpt lat="69.67938" lon="18.64096">
        <ele>95.684086</ele>
        <time>2020-08-26T12:29:16.855Z</time>
      </trkpt>
      <trkpt lat="69.67945" lon="18.64121">
        <ele>94.404742</ele>
        <time>2020-08-26T12:29:18.868Z</time>
      </trkpt>
      <trkpt lat="69.67951" lon="18.64141">
        <ele>93.373221</ele>
        <time>2020-08-26T12:29:20.840Z</time>
      </trkpt>
      <trkpt lat="69.6796" lon="18.64164">
        <ele>91.993101</ele>
        <time>2020-08-26T12:29:23.840Z</time>
      </trkpt>
      <trkpt lat="69.67969" lon="18.6419">
        <ele>90.842677</ele>
        <time>2020-08-26T12:29:26.846Z</time>
      </trkpt>
      <trkpt lat="69.67976" lon="18.64209">
        <ele>90.479006</ele>
        <time>2020-08-26T12:29:28.841Z</time>
      </trkpt>
      <trkpt lat="69.67982" lon="18.64231">
        <ele>90.095272</ele>
        <time>2020-08-26T12:29:30.852Z</time>
      </trkpt>
      <trkpt lat="69.6799" lon="18.64254">
        <ele>89.651541</ele>
        <time>2020-08-26T12:29:32.848Z</time>
      </trkpt>
      <trkpt lat="69.67999" lon="18.64279">
        <ele>89.155617</ele>
        <time>2020-08-26T12:29:34.854Z</time>
      </trkpt>
      <trkpt lat="69.6801" lon="18.64307">
        <ele>88.615876</ele>
        <time>2020-08-26T12:29:36.877Z</time>
      </trkpt>
      <trkpt lat="69.68019" lon="18.64334">
        <ele>88.083603</ele>
        <time>2020-08-26T12:29:38.896Z</time>
      </trkpt>
      <trkpt lat="69.68027" lon="18.64359">
        <ele>87.631574</ele>
        <time>2020-08-26T12:29:40.887Z</time>
      </trkpt>
      <trkpt lat="69.68035" lon="18.64381">
        <ele>87.218312</ele>
        <time>2020-08-26T12:29:42.838Z</time>
      </trkpt>
      <trkpt lat="69.68042" lon="18.64404">
        <ele>86.809655</ele>
        <time>2020-08-26T12:29:44.847Z</time>
      </trkpt>
      <trkpt lat="69.6805" lon="18.64433">
        <ele>86.293783</ele>
        <time>2020-08-26T12:29:47.834Z</time>
      </trkpt>
      <trkpt lat="69.6806" lon="18.6446">
        <ele>85.777069</ele>
        <time>2020-08-26T12:29:50.901Z</time>
      </trkpt>
      <trkpt lat="69.68066" lon="18.64479">
        <ele>85.416263</ele>
        <time>2020-08-26T12:29:52.829Z</time>
      </trkpt>
      <trkpt lat="69.68074" lon="18.645">
        <ele>85.008906</ele>
        <time>2020-08-26T12:29:54.842Z</time>
      </trkpt>
      <trkpt lat="69.6808" lon="18.6452">
        <ele>84.643799</ele>
        <time>2020-08-26T12:29:56.855Z</time>
      </trkpt>
      <trkpt lat="69.68087" lon="18.64544">
        <ele>84.231004</ele>
        <time>2020-08-26T12:29:59.855Z</time>
      </trkpt>
      <trkpt lat="69.68095" lon="18.64561">
        <ele>83.891828</ele>
        <time>2020-08-26T12:30:03.887Z</time>
      </trkpt>
      <trkpt lat="69.68109" lon="18.64597">
        <ele>83.343586</ele>
        <time>2020-08-26T12:32:38.877Z</time>
      </trkpt>
      <trkpt lat="69.68119" lon="18.64626">
        <ele>82.93111</ele>
        <time>2020-08-26T12:32:41.869Z</time>
      </trkpt>
      <trkpt lat="69.68127" lon="18.6465">
        <ele>82.592278</ele>
        <time>2020-08-26T12:32:43.867Z</time>
      </trkpt>
      <trkpt lat="69.68135" lon="18.64673">
        <ele>82.258375</ele>
        <time>2020-08-26T12:32:45.857Z</time>
      </trkpt>
      <trkpt lat="69.68142" lon="18.64699">
        <ele>81.923391</ele>
        <time>2020-08-26T12:32:47.862Z</time>
      </trkpt>
      <trkpt lat="69.68151" lon="18.64724">
        <ele>81.563384</ele>
        <time>2020-08-26T12:32:49.870Z</time>
      </trkpt>
      <trkpt lat="69.68159" lon="18.64748">
        <ele>81.221827</ele>
        <time>2020-08-26T12:32:51.878Z</time>
      </trkpt>
      <trkpt lat="69.68169" lon="18.64772">
        <ele>80.856368</ele>
        <time>2020-08-26T12:32:53.886Z</time>
      </trkpt>
      <trkpt lat="69.68178" lon="18.64797">
        <ele>80.478063</ele>
        <time>2020-08-26T12:32:55.847Z</time>
      </trkpt>
      <trkpt lat="69.68189" lon="18.6482">
        <ele>80.077455</ele>
        <time>2020-08-26T12:32:57.851Z</time>
      </trkpt>
      <trkpt lat="69.68202" lon="18.64843">
        <ele>79.640617</ele>
        <time>2020-08-26T12:32:59.877Z</time>
      </trkpt>
      <trkpt lat="69.68217" lon="18.64863">
        <ele>79.152871</ele>
        <time>2020-08-26T12:33:01.833Z</time>
      </trkpt>
      <trkpt lat="69.68226" lon="18.64873">
        <ele>78.890401</ele>
        <time>2020-08-26T12:33:02.845Z</time>
      </trkpt>
      <trkpt lat="69.68234" lon="18.64882">
        <ele>78.372547</ele>
        <time>2020-08-26T12:33:03.886Z</time>
      </trkpt>
      <trkpt lat="69.68244" lon="18.64893">
        <ele>77.633359</ele>
        <time>2020-08-26T12:33:04.895Z</time>
      </trkpt>
      <trkpt lat="69.68253" lon="18.64905">
        <ele>76.908351</ele>
        <time>2020-08-26T12:33:05.834Z</time>
      </trkpt>
      <trkpt lat="69.68261" lon="18.64917">
        <ele>76.195708</ele>
        <time>2020-08-26T12:33:06.848Z</time>
      </trkpt>
      <trkpt lat="69.6827" lon="18.64928">
        <ele>75.48739</ele>
        <time>2020-08-26T12:33:07.871Z</time>
      </trkpt>
      <trkpt lat="69.68279" lon="18.64939">
        <ele>74.769676</ele>
        <time>2020-08-26T12:33:08.873Z</time>
      </trkpt>
      <trkpt lat="69.68288" lon="18.6495">
        <ele>74.055959</ele>
        <time>2020-08-26T12:33:09.847Z</time>
      </trkpt>
      <trkpt lat="69.68297" lon="18.6496">
        <ele>73.338275</ele>
        <time>2020-08-26T12:33:10.854Z</time>
      </trkpt>
      <trkpt lat="69.68306" lon="18.64971">
        <ele>72.595171</ele>
        <time>2020-08-26T12:33:11.893Z</time>
      </trkpt>
      <trkpt lat="69.68315" lon="18.64981">
        <ele>71.84986</ele>
        <time>2020-08-26T12:33:12.872Z</time>
      </trkpt>
      <trkpt lat="69.68325" lon="18.64993">
        <ele>71.077366</ele>
        <time>2020-08-26T12:33:13.844Z</time>
      </trkpt>
      <trkpt lat="69.68335" lon="18.65006">
        <ele>70.259636</ele>
        <time>2020-08-26T12:33:14.860Z</time>
      </trkpt>
      <trkpt lat="69.68345" lon="18.65018">
        <ele>69.447002</ele>
        <time>2020-08-26T12:33:15.864Z</time>
      </trkpt>
      <trkpt lat="69.68355" lon="18.6503">
        <ele>68.646977</ele>
        <time>2020-08-26T12:33:16.848Z</time>
      </trkpt>
      <trkpt lat="69.68365" lon="18.65043">
        <ele>67.82611</ele>
        <time>2020-08-26T12:33:17.847Z</time>
      </trkpt>
      <trkpt lat="69.68375" lon="18.65057">
        <ele>67.003116</ele>
        <time>2020-08-26T12:33:18.847Z</time>
      </trkpt>
      <trkpt lat="69.68385" lon="18.6507">
        <ele>66.183303</ele>
        <time>2020-08-26T12:33:19.844Z</time>
      </trkpt>
      <trkpt lat="69.68395" lon="18.65083">
        <ele>65.344253</ele>
        <time>2020-08-26T12:33:20.867Z</time>
      </trkpt>
      <trkpt lat="69.68405" lon="18.65096">
        <ele>64.091306</ele>
        <time>2020-08-26T12:33:21.851Z</time>
      </trkpt>
      <trkpt lat="69.68415" lon="18.65109">
        <ele>62.839551</ele>
        <time>2020-08-26T12:33:22.855Z</time>
      </trkpt>
      <trkpt lat="69.68425" lon="18.65121">
        <ele>61.560437</ele>
        <time>2020-08-26T12:33:23.870Z</time>
      </trkpt>
      <trkpt lat="69.68435" lon="18.65133">
        <ele>60.273346</ele>
        <time>2020-08-26T12:33:24.893Z</time>
      </trkpt>
      <trkpt lat="69.68445" lon="18.65146">
        <ele>58.94015</ele>
        <time>2020-08-26T12:33:25.848Z</time>
      </trkpt>
      <trkpt lat="69.68456" lon="18.6516">
        <ele>57.634172</ele>
        <time>2020-08-26T12:33:26.852Z</time>
      </trkpt>
      <trkpt lat="69.68466" lon="18.65173">
        <ele>56.34435</ele>
        <time>2020-08-26T12:33:27.867Z</time>
      </trkpt>
      <trkpt lat="69.68475" lon="18.65188">
        <ele>55.095148</ele>
        <time>2020-08-26T12:33:28.867Z</time>
      </trkpt>
      <trkpt lat="69.68483" lon="18.65203">
        <ele>53.925664</ele>
        <time>2020-08-26T12:33:29.839Z</time>
      </trkpt>
      <trkpt lat="69.68491" lon="18.6522">
        <ele>52.793079</ele>
        <time>2020-08-26T12:33:30.853Z</time>
      </trkpt>
      <trkpt lat="69.68499" lon="18.65235">
        <ele>51.70787</ele>
        <time>2020-08-26T12:33:31.834Z</time>
      </trkpt>
      <trkpt lat="69.68513" lon="18.65264">
        <ele>49.674885</ele>
        <time>2020-08-26T12:33:33.840Z</time>
      </trkpt>
      <trkpt lat="69.68526" lon="18.6529">
        <ele>47.850298</ele>
        <time>2020-08-26T12:33:35.850Z</time>
      </trkpt>
      <trkpt lat="69.68536" lon="18.65315">
        <ele>46.273452</ele>
        <time>2020-08-26T12:33:37.875Z</time>
      </trkpt>
      <trkpt lat="69.68542" lon="18.65341">
        <ele>45.056227</ele>
        <time>2020-08-26T12:33:39.838Z</time>
      </trkpt>
      <trkpt lat="69.6854" lon="18.65372">
        <ele>44.077205</ele>
        <time>2020-08-26T12:33:41.844Z</time>
      </trkpt>
      <trkpt lat="69.68532" lon="18.65393">
        <ele>43.403067</ele>
        <time>2020-08-26T12:33:43.871Z</time>
      </trkpt>
      <trkpt lat="69.68524" lon="18.65418">
        <ele>42.615924</ele>
        <time>2020-08-26T12:33:45.858Z</time>
      </trkpt>
      <trkpt lat="69.68517" lon="18.65447">
        <ele>41.852806</ele>
        <time>2020-08-26T12:33:47.852Z</time>
      </trkpt>
      <trkpt lat="69.6851" lon="18.65477">
        <ele>41.055118</ele>
        <time>2020-08-26T12:33:49.889Z</time>
      </trkpt>
      <trkpt lat="69.68502" lon="18.65507">
        <ele>40.209224</ele>
        <time>2020-08-26T12:33:51.880Z</time>
      </trkpt>
      <trkpt lat="69.68495" lon="18.65539">
        <ele>39.356786</ele>
        <time>2020-08-26T12:33:53.872Z</time>
      </trkpt>
      <trkpt lat="69.68487" lon="18.65571">
        <ele>38.471522</ele>
        <time>2020-08-26T12:33:55.878Z</time>
      </trkpt>
      <trkpt lat="69.6848" lon="18.65604">
        <ele>37.624497</ele>
        <time>2020-08-26T12:33:57.847Z</time>
      </trkpt>
      <trkpt lat="69.68475" lon="18.65637">
        <ele>36.818275</ele>
        <time>2020-08-26T12:33:59.887Z</time>
      </trkpt>
      <trkpt lat="69.68471" lon="18.6567">
        <ele>36.051997</ele>
        <time>2020-08-26T12:34:01.847Z</time>
      </trkpt>
      <trkpt lat="69.68468" lon="18.65702">
        <ele>35.325669</ele>
        <time>2020-08-26T12:34:03.900Z</time>
      </trkpt>
      <trkpt lat="69.68466" lon="18.65733">
        <ele>34.627183</ele>
        <time>2020-08-26T12:34:05.838Z</time>
      </trkpt>
      <trkpt lat="69.68464" lon="18.65763">
        <ele>33.940575</ele>
        <time>2020-08-26T12:34:07.834Z</time>
      </trkpt>
      <trkpt lat="69.68462" lon="18.65792">
        <ele>33.273568</ele>
        <time>2020-08-26T12:34:09.846Z</time>
      </trkpt>
      <trkpt lat="69.68461" lon="18.65822">
        <ele>33.032223</ele>
        <time>2020-08-26T12:34:11.840Z</time>
      </trkpt>
      <trkpt lat="69.6846" lon="18.65848">
        <ele>33.226266</ele>
        <time>2020-08-26T12:34:13.839Z</time>
      </trkpt>
      <trkpt lat="69.68458" lon="18.65884">
        <ele>33.484224</ele>
        <time>2020-08-26T12:34:16.879Z</time>
      </trkpt>
      <trkpt lat="69.68457" lon="18.65917">
        <ele>33.731154</ele>
        <time>2020-08-26T12:34:19.842Z</time>
      </trkpt>
      <trkpt lat="69.68457" lon="18.65949">
        <ele>33.957517</ele>
        <time>2020-08-26T12:34:22.878Z</time>
      </trkpt>
      <trkpt lat="69.68456" lon="18.65978">
        <ele>34.168502</ele>
        <time>2020-08-26T12:34:25.851Z</time>
      </trkpt>
      <trkpt lat="69.68456" lon="18.66006">
        <ele>34.373064</ele>
        <time>2020-08-26T12:34:28.856Z</time>
      </trkpt>
      <trkpt lat="69.68456" lon="18.66035">
        <ele>34.585654</ele>
        <time>2020-08-26T12:34:31.859Z</time>
      </trkpt>
      <trkpt lat="69.68456" lon="18.66066">
        <ele>34.811245</ele>
        <time>2020-08-26T12:34:34.857Z</time>
      </trkpt>
      <trkpt lat="69.68454" lon="18.66098">
        <ele>35.045627</ele>
        <time>2020-08-26T12:34:37.852Z</time>
      </trkpt>
      <trkpt lat="69.68452" lon="18.66132">
        <ele>35.291113</ele>
        <time>2020-08-26T12:34:40.893Z</time>
      </trkpt>
      <trkpt lat="69.68452" lon="18.66166">
        <ele>35.542475</ele>
        <time>2020-08-26T12:34:43.859Z</time>
      </trkpt>
      <trkpt lat="69.68452" lon="18.66202">
        <ele>35.800074</ele>
        <time>2020-08-26T12:34:46.859Z</time>
      </trkpt>
      <trkpt lat="69.68453" lon="18.66239">
        <ele>36.071107</ele>
        <time>2020-08-26T12:34:49.853Z</time>
      </trkpt>
      <trkpt lat="69.68454" lon="18.66278">
        <ele>36.352801</ele>
        <time>2020-08-26T12:34:52.845Z</time>
      </trkpt>
      <trkpt lat="69.68457" lon="18.66316">
        <ele>36.634012</ele>
        <time>2020-08-26T12:34:55.850Z</time>
      </trkpt>
      <trkpt lat="69.68459" lon="18.66343">
        <ele>36.823794</ele>
        <time>2020-08-26T12:34:57.872Z</time>
      </trkpt>
      <trkpt lat="69.68461" lon="18.66369">
        <ele>37.010052</ele>
        <time>2020-08-26T12:34:59.840Z</time>
      </trkpt>
      <trkpt lat="69.68463" lon="18.66395">
        <ele>37.197416</ele>
        <time>2020-08-26T12:35:01.864Z</time>
      </trkpt>
      <trkpt lat="69.68466" lon="18.66421">
        <ele>37.382378</ele>
        <time>2020-08-26T12:35:03.855Z</time>
      </trkpt>
      <trkpt lat="69.6847" lon="18.66455">
        <ele>37.635192</ele>
        <time>2020-08-26T12:35:06.872Z</time>
      </trkpt>
      <trkpt lat="69.68475" lon="18.66487">
        <ele>37.876269</ele>
        <time>2020-08-26T12:35:09.860Z</time>
      </trkpt>
      <trkpt lat="69.68481" lon="18.66521">
        <ele>38.133178</ele>
        <time>2020-08-26T12:35:12.879Z</time>
      </trkpt>
      <trkpt lat="69.68487" lon="18.66552">
        <ele>38.386053</ele>
        <time>2020-08-26T12:35:15.847Z</time>
      </trkpt>
      <trkpt lat="69.68494" lon="18.6658">
        <ele>38.621024</ele>
        <time>2020-08-26T12:35:18.874Z</time>
      </trkpt>
      <trkpt lat="69.68502" lon="18.66606">
        <ele>38.856061</ele>
        <time>2020-08-26T12:35:21.857Z</time>
      </trkpt>
      <trkpt lat="69.68509" lon="18.66633">
        <ele>39.09118</ele>
        <time>2020-08-26T12:35:24.848Z</time>
      </trkpt>
      <trkpt lat="69.68517" lon="18.66658">
        <ele>39.318676</ele>
        <time>2020-08-26T12:35:27.858Z</time>
      </trkpt>
      <trkpt lat="69.68523" lon="18.66683">
        <ele>39.539105</ele>
        <time>2020-08-26T12:35:30.876Z</time>
      </trkpt>
      <trkpt lat="69.6853" lon="18.66709">
        <ele>39.758984</ele>
        <time>2020-08-26T12:35:33.855Z</time>
      </trkpt>
      <trkpt lat="69.68537" lon="18.66734">
        <ele>39.977221</ele>
        <time>2020-08-26T12:35:36.855Z</time>
      </trkpt>
      <trkpt lat="69.68543" lon="18.66758">
        <ele>40.188559</ele>
        <time>2020-08-26T12:35:39.846Z</time>
      </trkpt>
      <trkpt lat="69.68548" lon="18.66783">
        <ele>40.403421</ele>
        <time>2020-08-26T12:35:42.839Z</time>
      </trkpt>
      <trkpt lat="69.68552" lon="18.66806">
        <ele>40.626522</ele>
        <time>2020-08-26T12:35:45.852Z</time>
      </trkpt>
      <trkpt lat="69.68557" lon="18.6683">
        <ele>40.847408</ele>
        <time>2020-08-26T12:35:48.835Z</time>
      </trkpt>
      <trkpt lat="69.6856" lon="18.66855">
        <ele>41.066468</ele>
        <time>2020-08-26T12:35:51.841Z</time>
      </trkpt>
      <trkpt lat="69.68563" lon="18.66881">
        <ele>41.287432</ele>
        <time>2020-08-26T12:35:54.844Z</time>
      </trkpt>
      <trkpt lat="69.68566" lon="18.66906">
        <ele>41.510697</ele>
        <time>2020-08-26T12:35:57.855Z</time>
      </trkpt>
      <trkpt lat="69.68569" lon="18.66933">
        <ele>41.74403</ele>
        <time>2020-08-26T12:36:00.840Z</time>
      </trkpt>
      <trkpt lat="69.68572" lon="18.66958">
        <ele>41.963407</ele>
        <time>2020-08-26T12:36:03.849Z</time>
      </trkpt>
      <trkpt lat="69.68575" lon="18.66985">
        <ele>42.193751</ele>
        <time>2020-08-26T12:36:06.848Z</time>
      </trkpt>
      <trkpt lat="69.68578" lon="18.67012">
        <ele>42.422086</ele>
        <time>2020-08-26T12:36:09.845Z</time>
      </trkpt>
      <trkpt lat="69.68581" lon="18.67039">
        <ele>42.64884</ele>
        <time>2020-08-26T12:36:12.868Z</time>
      </trkpt>
      <trkpt lat="69.68583" lon="18.67067">
        <ele>42.884141</ele>
        <time>2020-08-26T12:36:15.854Z</time>
      </trkpt>
      <trkpt lat="69.68585" lon="18.67097">
        <ele>43.134766</ele>
        <time>2020-08-26T12:36:18.842Z</time>
      </trkpt>
      <trkpt lat="69.68586" lon="18.67129">
        <ele>43.404841</ele>
        <time>2020-08-26T12:36:21.851Z</time>
      </trkpt>
      <trkpt lat="69.68588" lon="18.67162">
        <ele>43.676627</ele>
        <time>2020-08-26T12:36:24.896Z</time>
      </trkpt>
      <trkpt lat="69.68589" lon="18.67195">
        <ele>43.947871</ele>
        <time>2020-08-26T12:36:27.864Z</time>
      </trkpt>
      <trkpt lat="69.6859" lon="18.67228">
        <ele>44.217852</ele>
        <time>2020-08-26T12:36:30.872Z</time>
      </trkpt>
      <trkpt lat="69.68591" lon="18.67262">
        <ele>44.498865</ele>
        <time>2020-08-26T12:36:33.887Z</time>
      </trkpt>
      <trkpt lat="69.68592" lon="18.67295">
        <ele>44.871575</ele>
        <time>2020-08-26T12:36:36.858Z</time>
      </trkpt>
      <trkpt lat="69.68593" lon="18.67328">
        <ele>45.232624</ele>
        <time>2020-08-26T12:36:39.847Z</time>
      </trkpt>
      <trkpt lat="69.68594" lon="18.67362">
        <ele>45.61589</ele>
        <time>2020-08-26T12:36:42.846Z</time>
      </trkpt>
      <trkpt lat="69.68594" lon="18.67394">
        <ele>45.971846</ele>
        <time>2020-08-26T12:36:45.855Z</time>
      </trkpt>
      <trkpt lat="69.68594" lon="18.67423">
        <ele>46.299677</ele>
        <time>2020-08-26T12:36:48.897Z</time>
      </trkpt>
      <trkpt lat="69.68592" lon="18.67456">
        <ele>46.670835</ele>
        <time>2020-08-26T12:36:52.875Z</time>
      </trkpt>
      <trkpt lat="69.68591" lon="18.67488">
        <ele>47.027129</ele>
        <time>2020-08-26T12:36:56.881Z</time>
      </trkpt>
      <trkpt lat="69.6859" lon="18.67519">
        <ele>47.370443</ele>
        <time>2020-08-26T12:37:00.836Z</time>
      </trkpt>
      <trkpt lat="69.6859" lon="18.67548">
        <ele>47.700267</ele>
        <time>2020-08-26T12:37:04.856Z</time>
      </trkpt>
      <trkpt lat="69.68589" lon="18.67575">
        <ele>48.00138</ele>
        <time>2020-08-26T12:37:08.844Z</time>
      </trkpt>
      <trkpt lat="69.68588" lon="18.67603">
        <ele>48.309095</ele>
        <time>2020-08-26T12:37:12.848Z</time>
      </trkpt>
      <trkpt lat="69.68588" lon="18.67635">
        <ele>48.667888</ele>
        <time>2020-08-26T12:37:17.859Z</time>
      </trkpt>
      <trkpt lat="69.68587" lon="18.67664">
        <ele>48.991484</ele>
        <time>2020-08-26T12:37:21.869Z</time>
      </trkpt>
      <trkpt lat="69.68584" lon="18.67692">
        <ele>49.317424</ele>
        <time>2020-08-26T12:37:25.835Z</time>
      </trkpt>
      <trkpt lat="69.68582" lon="18.67718">
        <ele>49.6185</ele>
        <time>2020-08-26T12:37:29.844Z</time>
      </trkpt>
      <trkpt lat="69.68581" lon="18.67746">
        <ele>49.928634</ele>
        <time>2020-08-26T12:37:33.845Z</time>
      </trkpt>
      <trkpt lat="69.68579" lon="18.67776">
        <ele>50.267453</ele>
        <time>2020-08-26T12:37:37.871Z</time>
      </trkpt>
      <trkpt lat="69.68577" lon="18.67806">
        <ele>50.400475</ele>
        <time>2020-08-26T12:37:41.874Z</time>
      </trkpt>
      <trkpt lat="69.68575" lon="18.67832">
        <ele>50.50496</ele>
        <time>2020-08-26T12:37:44.841Z</time>
      </trkpt>
      <trkpt lat="69.68573" lon="18.67858">
        <ele>50.609781</ele>
        <time>2020-08-26T12:37:47.877Z</time>
      </trkpt>
      <trkpt lat="69.68572" lon="18.67887">
        <ele>50.725536</ele>
        <time>2020-08-26T12:37:50.848Z</time>
      </trkpt>
      <trkpt lat="69.6857" lon="18.67915">
        <ele>50.834768</ele>
        <time>2020-08-26T12:37:53.866Z</time>
      </trkpt>
      <trkpt lat="69.68569" lon="18.67943">
        <ele>50.949529</ele>
        <time>2020-08-26T12:37:56.859Z</time>
      </trkpt>
      <trkpt lat="69.68566" lon="18.67974">
        <ele>51.072781</ele>
        <time>2020-08-26T12:37:59.851Z</time>
      </trkpt>
      <trkpt lat="69.68565" lon="18.68">
        <ele>51.177051</ele>
        <time>2020-08-26T12:38:02.880Z</time>
      </trkpt>
      <trkpt lat="69.68564" lon="18.68028">
        <ele>51.285127</ele>
        <time>2020-08-26T12:38:05.865Z</time>
      </trkpt>
      <trkpt lat="69.68563" lon="18.68058">
        <ele>51.404747</ele>
        <time>2020-08-26T12:38:08.841Z</time>
      </trkpt>
      <trkpt lat="69.68561" lon="18.68087">
        <ele>51.520473</ele>
        <time>2020-08-26T12:38:11.885Z</time>
      </trkpt>
      <trkpt lat="69.68559" lon="18.68115">
        <ele>51.635405</ele>
        <time>2020-08-26T12:38:14.878Z</time>
      </trkpt>
      <trkpt lat="69.68556" lon="18.68143">
        <ele>51.747821</ele>
        <time>2020-08-26T12:38:17.852Z</time>
      </trkpt>
      <trkpt lat="69.68554" lon="18.68171">
        <ele>51.862259</ele>
        <time>2020-08-26T12:38:20.835Z</time>
      </trkpt>
      <trkpt lat="69.68552" lon="18.682">
        <ele>51.97702</ele>
        <time>2020-08-26T12:38:23.850Z</time>
      </trkpt>
      <trkpt lat="69.68551" lon="18.6823">
        <ele>52.099931</ele>
        <time>2020-08-26T12:38:26.851Z</time>
      </trkpt>
      <trkpt lat="69.68549" lon="18.68264">
        <ele>52.235867</ele>
        <time>2020-08-26T12:38:29.855Z</time>
      </trkpt>
      <trkpt lat="69.68546" lon="18.683">
        <ele>52.260839</ele>
        <time>2020-08-26T12:38:32.838Z</time>
      </trkpt>
      <trkpt lat="69.68544" lon="18.68337">
        <ele>52.092014</ele>
        <time>2020-08-26T12:38:35.887Z</time>
      </trkpt>
      <trkpt lat="69.68542" lon="18.68363">
        <ele>51.973889</ele>
        <time>2020-08-26T12:38:37.871Z</time>
      </trkpt>
      <trkpt lat="69.68539" lon="18.68389">
        <ele>51.852723</ele>
        <time>2020-08-26T12:38:39.851Z</time>
      </trkpt>
      <trkpt lat="69.68537" lon="18.68417">
        <ele>51.720103</ele>
        <time>2020-08-26T12:38:41.896Z</time>
      </trkpt>
      <trkpt lat="69.68534" lon="18.68448">
        <ele>51.575129</ele>
        <time>2020-08-26T12:38:43.844Z</time>
      </trkpt>
      <trkpt lat="69.6853" lon="18.68481">
        <ele>51.420111</ele>
        <time>2020-08-26T12:38:45.851Z</time>
      </trkpt>
      <trkpt lat="69.68526" lon="18.68514">
        <ele>51.25825</ele>
        <time>2020-08-26T12:38:47.849Z</time>
      </trkpt>
      <trkpt lat="69.6852" lon="18.68551">
        <ele>51.079169</ele>
        <time>2020-08-26T12:38:49.851Z</time>
      </trkpt>
      <trkpt lat="69.68515" lon="18.6859">
        <ele>50.891104</ele>
        <time>2020-08-26T12:38:51.862Z</time>
      </trkpt>
      <trkpt lat="69.68509" lon="18.6863">
        <ele>50.695009</ele>
        <time>2020-08-26T12:38:53.856Z</time>
      </trkpt>
      <trkpt lat="69.68503" lon="18.6867">
        <ele>50.495707</ele>
        <time>2020-08-26T12:38:55.847Z</time>
      </trkpt>
      <trkpt lat="69.68497" lon="18.68709">
        <ele>50.304782</ele>
        <time>2020-08-26T12:38:57.879Z</time>
      </trkpt>
      <trkpt lat="69.68492" lon="18.68745">
        <ele>50.127784</ele>
        <time>2020-08-26T12:38:59.846Z</time>
      </trkpt>
      <trkpt lat="69.68486" lon="18.68779">
        <ele>49.885535</ele>
        <time>2020-08-26T12:39:01.851Z</time>
      </trkpt>
      <trkpt lat="69.68481" lon="18.6881">
        <ele>49.375527</ele>
        <time>2020-08-26T12:39:03.893Z</time>
      </trkpt>
      <trkpt lat="69.68476" lon="18.68839">
        <ele>48.905671</ele>
        <time>2020-08-26T12:39:05.841Z</time>
      </trkpt>
      <trkpt lat="69.68472" lon="18.68865">
        <ele>48.48087</ele>
        <time>2020-08-26T12:39:07.840Z</time>
      </trkpt>
      <trkpt lat="69.68468" lon="18.6889">
        <ele>48.069953</ele>
        <time>2020-08-26T12:39:09.844Z</time>
      </trkpt>
      <trkpt lat="69.68464" lon="18.68915">
        <ele>47.659867</ele>
        <time>2020-08-26T12:39:11.838Z</time>
      </trkpt>
      <trkpt lat="69.6846" lon="18.6894">
        <ele>47.253437</ele>
        <time>2020-08-26T12:39:13.854Z</time>
      </trkpt>
      <trkpt lat="69.68456" lon="18.68966">
        <ele>46.840272</ele>
        <time>2020-08-26T12:39:15.857Z</time>
      </trkpt>
      <trkpt lat="69.68452" lon="18.68994">
        <ele>46.383517</ele>
        <time>2020-08-26T12:39:17.834Z</time>
      </trkpt>
      <trkpt lat="69.68448" lon="18.69025">
        <ele>45.899249</ele>
        <time>2020-08-26T12:39:19.844Z</time>
      </trkpt>
      <trkpt lat="69.68444" lon="18.69058">
        <ele>45.374461</ele>
        <time>2020-08-26T12:39:21.846Z</time>
      </trkpt>
      <trkpt lat="69.68441" lon="18.69097">
        <ele>44.788498</ele>
        <time>2020-08-26T12:39:23.846Z</time>
      </trkpt>
      <trkpt lat="69.68439" lon="18.6914">
        <ele>44.145234</ele>
        <time>2020-08-26T12:39:25.860Z</time>
      </trkpt>
      <trkpt lat="69.68437" lon="18.69187">
        <ele>43.444173</ele>
        <time>2020-08-26T12:39:27.849Z</time>
      </trkpt>
      <trkpt lat="69.68436" lon="18.69239">
        <ele>42.681776</ele>
        <time>2020-08-26T12:39:29.866Z</time>
      </trkpt>
      <trkpt lat="69.68436" lon="18.69265">
        <ele>42.289858</ele>
        <time>2020-08-26T12:39:30.854Z</time>
      </trkpt>
      <trkpt lat="69.68436" lon="18.69293">
        <ele>41.933711</ele>
        <time>2020-08-26T12:39:31.855Z</time>
      </trkpt>
      <trkpt lat="69.68437" lon="18.69321">
        <ele>41.565248</ele>
        <time>2020-08-26T12:39:32.848Z</time>
      </trkpt>
      <trkpt lat="69.68438" lon="18.69349">
        <ele>41.198156</ele>
        <time>2020-08-26T12:39:33.839Z</time>
      </trkpt>
      <trkpt lat="69.68439" lon="18.69378">
        <ele>40.823339</ele>
        <time>2020-08-26T12:39:34.856Z</time>
      </trkpt>
      <trkpt lat="69.68441" lon="18.69407">
        <ele>40.44693</ele>
        <time>2020-08-26T12:39:35.879Z</time>
      </trkpt>
      <trkpt lat="69.68443" lon="18.69435">
        <ele>40.069121</ele>
        <time>2020-08-26T12:39:36.887Z</time>
      </trkpt>
      <trkpt lat="69.68445" lon="18.69464">
        <ele>39.686755</ele>
        <time>2020-08-26T12:39:37.863Z</time>
      </trkpt>
      <trkpt lat="69.68448" lon="18.69492">
        <ele>39.315782</ele>
        <time>2020-08-26T12:39:38.853Z</time>
      </trkpt>
      <trkpt lat="69.68451" lon="18.69519">
        <ele>38.95236</ele>
        <time>2020-08-26T12:39:39.868Z</time>
      </trkpt>
      <trkpt lat="69.68453" lon="18.69544">
        <ele>38.609789</ele>
        <time>2020-08-26T12:39:40.841Z</time>
      </trkpt>
      <trkpt lat="69.68456" lon="18.69569">
        <ele>38.270903</ele>
        <time>2020-08-26T12:39:41.834Z</time>
      </trkpt>
      <trkpt lat="69.68461" lon="18.69617">
        <ele>37.618021</ele>
        <time>2020-08-26T12:39:43.906Z</time>
      </trkpt>
      <trkpt lat="69.68465" lon="18.69663">
        <ele>37.005657</ele>
        <time>2020-08-26T12:39:45.862Z</time>
      </trkpt>
      <trkpt lat="69.68467" lon="18.69707">
        <ele>36.43022</ele>
        <time>2020-08-26T12:39:47.845Z</time>
      </trkpt>
      <trkpt lat="69.68468" lon="18.69747">
        <ele>35.904676</ele>
        <time>2020-08-26T12:39:49.845Z</time>
      </trkpt>
      <trkpt lat="69.68468" lon="18.69785">
        <ele>35.762042</ele>
        <time>2020-08-26T12:39:51.843Z</time>
      </trkpt>
      <trkpt lat="69.68467" lon="18.69816">
        <ele>36.113063</ele>
        <time>2020-08-26T12:39:53.862Z</time>
      </trkpt>
      <trkpt lat="69.68465" lon="18.69847">
        <ele>36.456814</ele>
        <time>2020-08-26T12:39:55.850Z</time>
      </trkpt>
      <trkpt lat="69.68463" lon="18.69878">
        <ele>36.804919</ele>
        <time>2020-08-26T12:39:57.889Z</time>
      </trkpt>
      <trkpt lat="69.68461" lon="18.69907">
        <ele>37.132696</ele>
        <time>2020-08-26T12:39:59.856Z</time>
      </trkpt>
      <trkpt lat="69.68458" lon="18.69934">
        <ele>37.441937</ele>
        <time>2020-08-26T12:40:01.840Z</time>
      </trkpt>
      <trkpt lat="69.68455" lon="18.69959">
        <ele>37.732192</ele>
        <time>2020-08-26T12:40:03.860Z</time>
      </trkpt>
      <trkpt lat="69.68452" lon="18.69992">
        <ele>38.102312</ele>
        <time>2020-08-26T12:40:06.855Z</time>
      </trkpt>
      <trkpt lat="69.68449" lon="18.70025">
        <ele>38.474829</ele>
        <time>2020-08-26T12:40:09.905Z</time>
      </trkpt>
      <trkpt lat="69.68448" lon="18.70055">
        <ele>38.808881</ele>
        <time>2020-08-26T12:40:12.918Z</time>
      </trkpt>
      <trkpt lat="69.68447" lon="18.70082">
        <ele>39.106314</ele>
        <time>2020-08-26T12:40:15.872Z</time>
      </trkpt>
      <trkpt lat="69.68445" lon="18.70113">
        <ele>39.458868</ele>
        <time>2020-08-26T12:40:19.884Z</time>
      </trkpt>
      <trkpt lat="69.6844" lon="18.70141">
        <ele>39.802452</ele>
        <time>2020-08-26T12:40:23.881Z</time>
      </trkpt>
      <trkpt lat="69.6844" lon="18.70172">
        <ele>40.140351</ele>
        <time>2020-08-26T12:40:27.840Z</time>
      </trkpt>
      <trkpt lat="69.68441" lon="18.70206">
        <ele>40.508444</ele>
        <time>2020-08-26T12:40:31.885Z</time>
      </trkpt>
      <trkpt lat="69.68441" lon="18.70237">
        <ele>40.857464</ele>
        <time>2020-08-26T12:40:35.871Z</time>
      </trkpt>
      <trkpt lat="69.68442" lon="18.70272">
        <ele>41.241783</ele>
        <time>2020-08-26T12:40:39.851Z</time>
      </trkpt>
      <trkpt lat="69.68443" lon="18.70301">
        <ele>41.389017</ele>
        <time>2020-08-26T12:40:42.868Z</time>
      </trkpt>
      <trkpt lat="69.68444" lon="18.70329">
        <ele>41.490508</ele>
        <time>2020-08-26T12:40:45.850Z</time>
      </trkpt>
      <trkpt lat="69.68444" lon="18.70355">
        <ele>41.583412</ele>
        <time>2020-08-26T12:40:48.842Z</time>
      </trkpt>
      <trkpt lat="69.68443" lon="18.70389">
        <ele>41.704318</ele>
        <time>2020-08-26T12:40:52.907Z</time>
      </trkpt>
      <trkpt lat="69.68442" lon="18.70423">
        <ele>41.825658</ele>
        <time>2020-08-26T12:40:56.853Z</time>
      </trkpt>
      <trkpt lat="69.68441" lon="18.70451">
        <ele>41.923859</ele>
        <time>2020-08-26T12:40:59.859Z</time>
      </trkpt>
      <trkpt lat="69.6844" lon="18.70479">
        <ele>42.025717</ele>
        <time>2020-08-26T12:41:02.855Z</time>
      </trkpt>
      <trkpt lat="69.68437" lon="18.70509">
        <ele>42.136819</ele>
        <time>2020-08-26T12:41:05.852Z</time>
      </trkpt>
      <trkpt lat="69.68434" lon="18.70538">
        <ele>42.243394</ele>
        <time>2020-08-26T12:41:08.848Z</time>
      </trkpt>
      <trkpt lat="69.68428" lon="18.70571">
        <ele>42.371468</ele>
        <time>2020-08-26T12:41:11.850Z</time>
      </trkpt>
      <trkpt lat="69.68424" lon="18.70595">
        <ele>42.469121</ele>
        <time>2020-08-26T12:41:13.850Z</time>
      </trkpt>
      <trkpt lat="69.68418" lon="18.70621">
        <ele>42.577053</ele>
        <time>2020-08-26T12:41:15.866Z</time>
      </trkpt>
      <trkpt lat="69.68412" lon="18.7065">
        <ele>42.699087</ele>
        <time>2020-08-26T12:41:17.871Z</time>
      </trkpt>
      <trkpt lat="69.68404" lon="18.70682">
        <ele>42.835975</ele>
        <time>2020-08-26T12:41:19.861Z</time>
      </trkpt>
      <trkpt lat="69.68396" lon="18.70718">
        <ele>42.990427</ele>
        <time>2020-08-26T12:41:21.837Z</time>
      </trkpt>
      <trkpt lat="69.68387" lon="18.70756">
        <ele>43.134031</ele>
        <time>2020-08-26T12:41:23.847Z</time>
      </trkpt>
      <trkpt lat="69.68377" lon="18.70792">
        <ele>42.903222</ele>
        <time>2020-08-26T12:41:25.920Z</time>
      </trkpt>
      <trkpt lat="69.68367" lon="18.70826">
        <ele>42.682697</ele>
        <time>2020-08-26T12:41:27.866Z</time>
      </trkpt>
      <trkpt lat="69.68359" lon="18.70859">
        <ele>42.487727</ele>
        <time>2020-08-26T12:41:29.864Z</time>
      </trkpt>
      <trkpt lat="69.68352" lon="18.70888">
        <ele>42.316126</ele>
        <time>2020-08-26T12:41:31.866Z</time>
      </trkpt>
      <trkpt lat="69.68347" lon="18.70914">
        <ele>42.165878</ele>
        <time>2020-08-26T12:41:33.843Z</time>
      </trkpt>
      <trkpt lat="69.68342" lon="18.7094">
        <ele>42.017926</ele>
        <time>2020-08-26T12:41:35.848Z</time>
      </trkpt>
      <trkpt lat="69.68336" lon="18.70964">
        <ele>41.874418</ele>
        <time>2020-08-26T12:41:37.843Z</time>
      </trkpt>
      <trkpt lat="69.68331" lon="18.70989">
        <ele>41.732599</ele>
        <time>2020-08-26T12:41:39.854Z</time>
      </trkpt>
      <trkpt lat="69.68327" lon="18.71016">
        <ele>41.587049</ele>
        <time>2020-08-26T12:41:41.881Z</time>
      </trkpt>
      <trkpt lat="69.68322" lon="18.71042">
        <ele>41.44099</ele>
        <time>2020-08-26T12:41:43.837Z</time>
      </trkpt>
      <trkpt lat="69.68317" lon="18.71064">
        <ele>41.310545</ele>
        <time>2020-08-26T12:41:45.859Z</time>
      </trkpt>
      <trkpt lat="69.68309" lon="18.71093">
        <ele>41.126214</ele>
        <time>2020-08-26T12:41:48.889Z</time>
      </trkpt>
      <trkpt lat="69.68301" lon="18.71124">
        <ele>40.93797</ele>
        <time>2020-08-26T12:41:51.836Z</time>
      </trkpt>
      <trkpt lat="69.68296" lon="18.71145">
        <ele>40.80874</ele>
        <time>2020-08-26T12:41:53.877Z</time>
      </trkpt>
      <trkpt lat="69.6829" lon="18.71166">
        <ele>40.675428</ele>
        <time>2020-08-26T12:41:55.876Z</time>
      </trkpt>
      <trkpt lat="69.68284" lon="18.71188">
        <ele>40.627119</ele>
        <time>2020-08-26T12:41:57.846Z</time>
      </trkpt>
      <trkpt lat="69.68278" lon="18.7121">
        <ele>40.765277</ele>
        <time>2020-08-26T12:41:59.868Z</time>
      </trkpt>
      <trkpt lat="69.68272" lon="18.71232">
        <ele>40.904248</ele>
        <time>2020-08-26T12:42:01.872Z</time>
      </trkpt>
      <trkpt lat="69.68265" lon="18.71255">
        <ele>41.051809</ele>
        <time>2020-08-26T12:42:03.866Z</time>
      </trkpt>
      <trkpt lat="69.68259" lon="18.71278">
        <ele>41.198991</ele>
        <time>2020-08-26T12:42:05.843Z</time>
      </trkpt>
      <trkpt lat="69.68253" lon="18.71301">
        <ele>41.343046</ele>
        <time>2020-08-26T12:42:07.859Z</time>
      </trkpt>
      <trkpt lat="69.68247" lon="18.71327">
        <ele>41.492283</ele>
        <time>2020-08-26T12:42:09.848Z</time>
      </trkpt>
      <trkpt lat="69.68242" lon="18.71353">
        <ele>41.636594</ele>
        <time>2020-08-26T12:42:11.844Z</time>
      </trkpt>
      <trkpt lat="69.68238" lon="18.71379">
        <ele>41.777033</ele>
        <time>2020-08-26T12:42:13.848Z</time>
      </trkpt>
      <trkpt lat="69.68234" lon="18.71408">
        <ele>41.927234</ele>
        <time>2020-08-26T12:42:15.885Z</time>
      </trkpt>
      <trkpt lat="69.68231" lon="18.71439">
        <ele>42.08811</ele>
        <time>2020-08-26T12:42:17.849Z</time>
      </trkpt>
      <trkpt lat="69.68227" lon="18.71468">
        <ele>42.241641</ele>
        <time>2020-08-26T12:42:19.856Z</time>
      </trkpt>
      <trkpt lat="69.68223" lon="18.71498">
        <ele>42.39602</ele>
        <time>2020-08-26T12:42:21.839Z</time>
      </trkpt>
      <trkpt lat="69.6822" lon="18.71526">
        <ele>42.54252</ele>
        <time>2020-08-26T12:42:23.867Z</time>
      </trkpt>
      <trkpt lat="69.68217" lon="18.71552">
        <ele>42.675226</ele>
        <time>2020-08-26T12:42:25.895Z</time>
      </trkpt>
      <trkpt lat="69.68215" lon="18.71579">
        <ele>42.809886</ele>
        <time>2020-08-26T12:42:27.856Z</time>
      </trkpt>
      <trkpt lat="69.68215" lon="18.71606">
        <ele>42.943484</ele>
        <time>2020-08-26T12:42:29.863Z</time>
      </trkpt>
      <trkpt lat="69.68213" lon="18.71632">
        <ele>43.073547</ele>
        <time>2020-08-26T12:42:31.874Z</time>
      </trkpt>
      <trkpt lat="69.6821" lon="18.71669">
        <ele>43.035608</ele>
        <time>2020-08-26T12:42:34.845Z</time>
      </trkpt>
      <trkpt lat="69.68208" lon="18.71707">
        <ele>42.905325</ele>
        <time>2020-08-26T12:42:37.859Z</time>
      </trkpt>
      <trkpt lat="69.68206" lon="18.71736">
        <ele>42.808541</ele>
        <time>2020-08-26T12:42:39.837Z</time>
      </trkpt>
      <trkpt lat="69.68205" lon="18.71768">
        <ele>42.701067</ele>
        <time>2020-08-26T12:42:41.840Z</time>
      </trkpt>
      <trkpt lat="69.68204" lon="18.71801">
        <ele>42.590648</ele>
        <time>2020-08-26T12:42:43.861Z</time>
      </trkpt>
      <trkpt lat="69.68203" lon="18.71834">
        <ele>42.480668</ele>
        <time>2020-08-26T12:42:45.851Z</time>
      </trkpt>
      <trkpt lat="69.68202" lon="18.71866">
        <ele>42.372279</ele>
        <time>2020-08-26T12:42:47.894Z</time>
      </trkpt>
      <trkpt lat="69.68201" lon="18.719">
        <ele>42.258076</ele>
        <time>2020-08-26T12:42:49.841Z</time>
      </trkpt>
      <trkpt lat="69.682" lon="18.71937">
        <ele>42.135721</ele>
        <time>2020-08-26T12:42:51.861Z</time>
      </trkpt>
      <trkpt lat="69.68198" lon="18.71975">
        <ele>42.006963</ele>
        <time>2020-08-26T12:42:53.919Z</time>
      </trkpt>
      <trkpt lat="69.68198" lon="18.72015">
        <ele>41.874909</ele>
        <time>2020-08-26T12:42:55.851Z</time>
      </trkpt>
      <trkpt lat="69.68199" lon="18.72056">
        <ele>41.737637</ele>
        <time>2020-08-26T12:42:57.851Z</time>
      </trkpt>
      <trkpt lat="69.682" lon="18.72098">
        <ele>41.595796</ele>
        <time>2020-08-26T12:42:59.872Z</time>
      </trkpt>
      <trkpt lat="69.68201" lon="18.72138">
        <ele>41.463792</ele>
        <time>2020-08-26T12:43:01.851Z</time>
      </trkpt>
      <trkpt lat="69.68202" lon="18.72176">
        <ele>41.263271</ele>
        <time>2020-08-26T12:43:03.868Z</time>
      </trkpt>
      <trkpt lat="69.68204" lon="18.72212">
        <ele>41.006881</ele>
        <time>2020-08-26T12:43:05.859Z</time>
      </trkpt>
      <trkpt lat="69.68205" lon="18.72245">
        <ele>40.766131</ele>
        <time>2020-08-26T12:43:07.845Z</time>
      </trkpt>
      <trkpt lat="69.68206" lon="18.72277">
        <ele>40.538593</ele>
        <time>2020-08-26T12:43:09.860Z</time>
      </trkpt>
      <trkpt lat="69.68207" lon="18.72311">
        <ele>40.298061</ele>
        <time>2020-08-26T12:43:11.852Z</time>
      </trkpt>
      <trkpt lat="69.68209" lon="18.72345">
        <ele>40.055267</ele>
        <time>2020-08-26T12:43:13.855Z</time>
      </trkpt>
      <trkpt lat="69.6821" lon="18.72378">
        <ele>39.820523</ele>
        <time>2020-08-26T12:43:15.836Z</time>
      </trkpt>
      <trkpt lat="69.68211" lon="18.72409">
        <ele>39.598394</ele>
        <time>2020-08-26T12:43:17.899Z</time>
      </trkpt>
      <trkpt lat="69.68211" lon="18.7244">
        <ele>39.379239</ele>
        <time>2020-08-26T12:43:19.840Z</time>
      </trkpt>
      <trkpt lat="69.68212" lon="18.7247">
        <ele>39.165988</ele>
        <time>2020-08-26T12:43:21.884Z</time>
      </trkpt>
      <trkpt lat="69.68213" lon="18.72499">
        <ele>38.962264</ele>
        <time>2020-08-26T12:43:23.857Z</time>
      </trkpt>
      <trkpt lat="69.68213" lon="18.72527">
        <ele>38.758695</ele>
        <time>2020-08-26T12:43:25.838Z</time>
      </trkpt>
      <trkpt lat="69.68214" lon="18.72554">
        <ele>38.566717</ele>
        <time>2020-08-26T12:43:27.864Z</time>
      </trkpt>
      <trkpt lat="69.68214" lon="18.72582">
        <ele>38.371461</ele>
        <time>2020-08-26T12:43:29.843Z</time>
      </trkpt>
      <trkpt lat="69.68214" lon="18.72609">
        <ele>38.178293</ele>
        <time>2020-08-26T12:43:31.851Z</time>
      </trkpt>
      <trkpt lat="69.68214" lon="18.72636">
        <ele>37.987297</ele>
        <time>2020-08-26T12:43:33.855Z</time>
      </trkpt>
      <trkpt lat="69.68214" lon="18.72663">
        <ele>37.793365</ele>
        <time>2020-08-26T12:43:35.891Z</time>
      </trkpt>
      <trkpt lat="69.68214" lon="18.7269">
        <ele>37.924319</ele>
        <time>2020-08-26T12:43:37.840Z</time>
      </trkpt>
      <trkpt lat="69.68215" lon="18.72716">
        <ele>38.237903</ele>
        <time>2020-08-26T12:43:39.857Z</time>
      </trkpt>
      <trkpt lat="69.68216" lon="18.72753">
        <ele>38.681379</ele>
        <time>2020-08-26T12:43:42.844Z</time>
      </trkpt>
      <trkpt lat="69.68217" lon="18.72788">
        <ele>39.10578</ele>
        <time>2020-08-26T12:43:45.834Z</time>
      </trkpt>
      <trkpt lat="69.68216" lon="18.72825">
        <ele>39.548237</ele>
        <time>2020-08-26T12:43:48.846Z</time>
      </trkpt>
      <trkpt lat="69.68217" lon="18.7286">
        <ele>39.978434</ele>
        <time>2020-08-26T12:43:51.866Z</time>
      </trkpt>
      <trkpt lat="69.68219" lon="18.72897">
        <ele>40.422579</ele>
        <time>2020-08-26T12:43:54.880Z</time>
      </trkpt>
      <trkpt lat="69.68222" lon="18.72929">
        <ele>40.826704</ele>
        <time>2020-08-26T12:43:57.842Z</time>
      </trkpt>
      <trkpt lat="69.68224" lon="18.72959">
        <ele>41.192887</ele>
        <time>2020-08-26T12:44:00.849Z</time>
      </trkpt>
      <trkpt lat="69.68225" lon="18.72989">
        <ele>41.56026</ele>
        <time>2020-08-26T12:44:03.857Z</time>
      </trkpt>
      <trkpt lat="69.68227" lon="18.73016">
        <ele>41.894019</ele>
        <time>2020-08-26T12:44:06.851Z</time>
      </trkpt>
      <trkpt lat="69.68228" lon="18.73044">
        <ele>42.224554</ele>
        <time>2020-08-26T12:44:09.838Z</time>
      </trkpt>
      <trkpt lat="69.68229" lon="18.73071">
        <ele>42.554325</ele>
        <time>2020-08-26T12:44:12.839Z</time>
      </trkpt>
      <trkpt lat="69.6823" lon="18.73098">
        <ele>42.875541</ele>
        <time>2020-08-26T12:44:15.846Z</time>
      </trkpt>
      <trkpt lat="69.68231" lon="18.73128">
        <ele>43.240689</ele>
        <time>2020-08-26T12:44:19.848Z</time>
      </trkpt>
      <trkpt lat="69.68231" lon="18.7316">
        <ele>43.623837</ele>
        <time>2020-08-26T12:44:24.878Z</time>
      </trkpt>
      <trkpt lat="69.68232" lon="18.73189">
        <ele>43.980266</ele>
        <time>2020-08-26T12:44:29.839Z</time>
      </trkpt>
      <trkpt lat="69.68232" lon="18.73216">
        <ele>44.238188</ele>
        <time>2020-08-26T12:44:34.851Z</time>
      </trkpt>
      <trkpt lat="69.68232" lon="18.73245">
        <ele>44.523296</ele>
        <time>2020-08-26T12:44:39.862Z</time>
      </trkpt>
      <trkpt lat="69.68231" lon="18.73272">
        <ele>44.794557</ele>
        <time>2020-08-26T12:44:43.868Z</time>
      </trkpt>
      <trkpt lat="69.68231" lon="18.73303">
        <ele>45.094413</ele>
        <time>2020-08-26T12:44:47.844Z</time>
      </trkpt>
      <trkpt lat="69.68231" lon="18.73335">
        <ele>45.412775</ele>
        <time>2020-08-26T12:44:51.877Z</time>
      </trkpt>
      <trkpt lat="69.68232" lon="18.73369">
        <ele>45.746297</ele>
        <time>2020-08-26T12:44:55.852Z</time>
      </trkpt>
      <trkpt lat="69.68233" lon="18.734">
        <ele>46.052413</ele>
        <time>2020-08-26T12:44:59.889Z</time>
      </trkpt>
      <trkpt lat="69.68235" lon="18.73432">
        <ele>46.364058</ele>
        <time>2020-08-26T12:45:03.861Z</time>
      </trkpt>
      <trkpt lat="69.68237" lon="18.73464">
        <ele>46.686866</ele>
        <time>2020-08-26T12:45:07.880Z</time>
      </trkpt>
      <trkpt lat="69.68237" lon="18.7349">
        <ele>46.939569</ele>
        <time>2020-08-26T12:45:10.870Z</time>
      </trkpt>
      <trkpt lat="69.68237" lon="18.73522">
        <ele>47.251993</ele>
        <time>2020-08-26T12:45:14.838Z</time>
      </trkpt>
      <trkpt lat="69.68236" lon="18.7355">
        <ele>47.522003</ele>
        <time>2020-08-26T12:45:17.869Z</time>
      </trkpt>
      <trkpt lat="69.68234" lon="18.7358">
        <ele>47.821089</ele>
        <time>2020-08-26T12:45:20.847Z</time>
      </trkpt>
      <trkpt lat="69.68231" lon="18.73614">
        <ele>48.168877</ele>
        <time>2020-08-26T12:45:23.869Z</time>
      </trkpt>
      <trkpt lat="69.68228" lon="18.73645">
        <ele>48.484692</ele>
        <time>2020-08-26T12:45:26.862Z</time>
      </trkpt>
      <trkpt lat="69.68226" lon="18.73675">
        <ele>48.782045</ele>
        <time>2020-08-26T12:45:29.882Z</time>
      </trkpt>
      <trkpt lat="69.68225" lon="18.73704">
        <ele>49.095973</ele>
        <time>2020-08-26T12:45:32.840Z</time>
      </trkpt>
      <trkpt lat="69.68222" lon="18.73732">
        <ele>49.617371</ele>
        <time>2020-08-26T12:45:35.923Z</time>
      </trkpt>
      <trkpt lat="69.6822" lon="18.73765">
        <ele>50.209165</ele>
        <time>2020-08-26T12:45:39.840Z</time>
      </trkpt>
      <trkpt lat="69.68217" lon="18.73797">
        <ele>50.807018</ele>
        <time>2020-08-26T12:45:43.862Z</time>
      </trkpt>
      <trkpt lat="69.68214" lon="18.73827">
        <ele>51.36403</ele>
        <time>2020-08-26T12:45:47.859Z</time>
      </trkpt>
      <trkpt lat="69.68211" lon="18.73854">
        <ele>51.858954</ele>
        <time>2020-08-26T12:45:51.840Z</time>
      </trkpt>
      <trkpt lat="69.68209" lon="18.73881">
        <ele>52.359967</ele>
        <time>2020-08-26T12:45:56.854Z</time>
      </trkpt>
      <trkpt lat="69.68206" lon="18.73912">
        <ele>52.918992</ele>
        <time>2020-08-26T12:46:01.847Z</time>
      </trkpt>
      <trkpt lat="69.68204" lon="18.73941">
        <ele>53.456354</ele>
        <time>2020-08-26T12:46:07.869Z</time>
      </trkpt>
      <trkpt lat="69.68201" lon="18.73968">
        <ele>53.971506</ele>
        <time>2020-08-26T12:46:13.860Z</time>
      </trkpt>
      <trkpt lat="69.68197" lon="18.73994">
        <ele>54.467632</ele>
        <time>2020-08-26T12:46:18.871Z</time>
      </trkpt>
      <trkpt lat="69.68193" lon="18.74022">
        <ele>55.008327</ele>
        <time>2020-08-26T12:46:23.859Z</time>
      </trkpt>
      <trkpt lat="69.68188" lon="18.74046">
        <ele>55.500334</ele>
        <time>2020-08-26T12:46:28.855Z</time>
      </trkpt>
      <trkpt lat="69.68183" lon="18.74069">
        <ele>55.988434</ele>
        <time>2020-08-26T12:46:33.872Z</time>
      </trkpt>
      <trkpt lat="69.68178" lon="18.74093">
        <ele>56.483032</ele>
        <time>2020-08-26T12:46:38.894Z</time>
      </trkpt>
      <trkpt lat="69.68173" lon="18.74116">
        <ele>56.986685</ele>
        <time>2020-08-26T12:46:43.860Z</time>
      </trkpt>
      <trkpt lat="69.68167" lon="18.74141">
        <ele>57.5356</ele>
        <time>2020-08-26T12:46:49.892Z</time>
      </trkpt>
      <trkpt lat="69.68162" lon="18.74165">
        <ele>58.006676</ele>
        <time>2020-08-26T12:46:53.857Z</time>
      </trkpt>
      <trkpt lat="69.68158" lon="18.74191">
        <ele>58.369345</ele>
        <time>2020-08-26T12:46:57.867Z</time>
      </trkpt>
      <trkpt lat="69.68154" lon="18.74216">
        <ele>58.563283</ele>
        <time>2020-08-26T12:47:01.846Z</time>
      </trkpt>
      <trkpt lat="69.68149" lon="18.74243">
        <ele>58.790476</ele>
        <time>2020-08-26T12:47:05.847Z</time>
      </trkpt>
      <trkpt lat="69.68143" lon="18.74271">
        <ele>59.024002</ele>
        <time>2020-08-26T12:47:09.852Z</time>
      </trkpt>
      <trkpt lat="69.68137" lon="18.743">
        <ele>59.259693</ele>
        <time>2020-08-26T12:47:13.848Z</time>
      </trkpt>
      <trkpt lat="69.68132" lon="18.7433">
        <ele>59.506202</ele>
        <time>2020-08-26T12:47:17.880Z</time>
      </trkpt>
      <trkpt lat="69.68126" lon="18.74356">
        <ele>59.728865</ele>
        <time>2020-08-26T12:47:21.853Z</time>
      </trkpt>
      <trkpt lat="69.68119" lon="18.74381">
        <ele>59.957052</ele>
        <time>2020-08-26T12:47:25.875Z</time>
      </trkpt>
      <trkpt lat="69.68113" lon="18.74407">
        <ele>60.176808</ele>
        <time>2020-08-26T12:47:29.896Z</time>
      </trkpt>
      <trkpt lat="69.68108" lon="18.74429">
        <ele>60.362666</ele>
        <time>2020-08-26T12:47:32.847Z</time>
      </trkpt>
      <trkpt lat="69.68103" lon="18.74452">
        <ele>60.565316</ele>
        <time>2020-08-26T12:47:35.867Z</time>
      </trkpt>
      <trkpt lat="69.68096" lon="18.74476">
        <ele>60.789693</ele>
        <time>2020-08-26T12:47:39.857Z</time>
      </trkpt>
      <trkpt lat="69.68089" lon="18.745">
        <ele>61.019333</ele>
        <time>2020-08-26T12:47:43.890Z</time>
      </trkpt>
      <trkpt lat="69.68082" lon="18.74521">
        <ele>61.212145</ele>
        <time>2020-08-26T12:47:46.878Z</time>
      </trkpt>
      <trkpt lat="69.68076" lon="18.74541">
        <ele>61.412888</ele>
        <time>2020-08-26T12:47:49.870Z</time>
      </trkpt>
      <trkpt lat="69.68065" lon="18.74564">
        <ele>61.684734</ele>
        <time>2020-08-26T12:47:52.861Z</time>
      </trkpt>
      <trkpt lat="69.68057" lon="18.74579">
        <ele>61.87609</ele>
        <time>2020-08-26T12:47:54.843Z</time>
      </trkpt>
      <trkpt lat="69.68046" lon="18.74597">
        <ele>61.784856</ele>
        <time>2020-08-26T12:47:57.853Z</time>
      </trkpt>
      <trkpt lat="69.68038" lon="18.7461">
        <ele>61.573074</ele>
        <time>2020-08-26T12:47:59.856Z</time>
      </trkpt>
      <trkpt lat="69.68029" lon="18.7462">
        <ele>61.329938</ele>
        <time>2020-08-26T12:48:01.872Z</time>
      </trkpt>
      <trkpt lat="69.68017" lon="18.7463">
        <ele>61.055717</ele>
        <time>2020-08-26T12:48:03.883Z</time>
      </trkpt>
      <trkpt lat="69.68005" lon="18.74637">
        <ele>60.753581</ele>
        <time>2020-08-26T12:48:05.837Z</time>
      </trkpt>
      <trkpt lat="69.6799" lon="18.74643">
        <ele>60.412329</ele>
        <time>2020-08-26T12:48:07.861Z</time>
      </trkpt>
      <trkpt lat="69.67975" lon="18.74647">
        <ele>60.055585</ele>
        <time>2020-08-26T12:48:09.884Z</time>
      </trkpt>
      <trkpt lat="69.67959" lon="18.7465">
        <ele>59.671121</ele>
        <time>2020-08-26T12:48:11.856Z</time>
      </trkpt>
      <trkpt lat="69.67944" lon="18.74654">
        <ele>59.313859</ele>
        <time>2020-08-26T12:48:13.899Z</time>
      </trkpt>
      <trkpt lat="69.6793" lon="18.74657">
        <ele>58.981087</ele>
        <time>2020-08-26T12:48:15.864Z</time>
      </trkpt>
      <trkpt lat="69.67915" lon="18.74659">
        <ele>58.641722</ele>
        <time>2020-08-26T12:48:17.850Z</time>
      </trkpt>
      <trkpt lat="69.679" lon="18.74662">
        <ele>58.280414</ele>
        <time>2020-08-26T12:48:19.858Z</time>
      </trkpt>
      <trkpt lat="69.67886" lon="18.74666">
        <ele>57.942291</ele>
        <time>2020-08-26T12:48:21.877Z</time>
      </trkpt>
      <trkpt lat="69.67874" lon="18.7467">
        <ele>57.574222</ele>
        <time>2020-08-26T12:48:23.869Z</time>
      </trkpt>
      <trkpt lat="69.67861" lon="18.74672">
        <ele>57.052162</ele>
        <time>2020-08-26T12:48:25.857Z</time>
      </trkpt>
      <trkpt lat="69.67848" lon="18.74673">
        <ele>56.452651</ele>
        <time>2020-08-26T12:48:27.862Z</time>
      </trkpt>
      <trkpt lat="69.67834" lon="18.74678">
        <ele>55.844628</ele>
        <time>2020-08-26T12:48:29.839Z</time>
      </trkpt>
      <trkpt lat="69.6782" lon="18.74689">
        <ele>55.237373</ele>
        <time>2020-08-26T12:48:31.851Z</time>
      </trkpt>
      <trkpt lat="69.67807" lon="18.747">
        <ele>54.649245</ele>
        <time>2020-08-26T12:48:33.875Z</time>
      </trkpt>
      <trkpt lat="69.67792" lon="18.74711">
        <ele>54.004369</ele>
        <time>2020-08-26T12:48:35.861Z</time>
      </trkpt>
      <trkpt lat="69.67778" lon="18.74729">
        <ele>53.312492</ele>
        <time>2020-08-26T12:48:37.896Z</time>
      </trkpt>
      <trkpt lat="69.67763" lon="18.74746">
        <ele>52.637077</ele>
        <time>2020-08-26T12:48:39.884Z</time>
      </trkpt>
      <trkpt lat="69.67749" lon="18.74765">
        <ele>51.954728</ele>
        <time>2020-08-26T12:48:41.854Z</time>
      </trkpt>
      <trkpt lat="69.67737" lon="18.74793">
        <ele>51.312181</ele>
        <time>2020-08-26T12:48:43.854Z</time>
      </trkpt>
      <trkpt lat="69.6773" lon="18.74828">
        <ele>50.692746</ele>
        <time>2020-08-26T12:48:45.886Z</time>
      </trkpt>
      <trkpt lat="69.67725" lon="18.74856">
        <ele>50.232709</ele>
        <time>2020-08-26T12:48:47.849Z</time>
      </trkpt>
      <trkpt lat="69.6772" lon="18.7488">
        <ele>49.849449</ele>
        <time>2020-08-26T12:48:49.846Z</time>
      </trkpt>
      <trkpt lat="69.67715" lon="18.74902">
        <ele>49.531252</ele>
        <time>2020-08-26T12:48:51.880Z</time>
      </trkpt>
      <trkpt lat="69.67708" lon="18.74923">
        <ele>49.204191</ele>
        <time>2020-08-26T12:48:53.861Z</time>
      </trkpt>
      <trkpt lat="69.67701" lon="18.74943">
        <ele>48.853263</ele>
        <time>2020-08-26T12:48:55.859Z</time>
      </trkpt>
      <trkpt lat="69.67692" lon="18.74963">
        <ele>48.486383</ele>
        <time>2020-08-26T12:48:57.851Z</time>
      </trkpt>
      <trkpt lat="69.67684" lon="18.74981">
        <ele>48.128199</ele>
        <time>2020-08-26T12:48:59.909Z</time>
      </trkpt>
      <trkpt lat="69.67674" lon="18.74997">
        <ele>47.753925</ele>
        <time>2020-08-26T12:49:01.851Z</time>
      </trkpt>
      <trkpt lat="69.67664" lon="18.75013">
        <ele>47.358867</ele>
        <time>2020-08-26T12:49:03.871Z</time>
      </trkpt>
      <trkpt lat="69.67654" lon="18.75027">
        <ele>46.987293</ele>
        <time>2020-08-26T12:49:05.856Z</time>
      </trkpt>
      <trkpt lat="69.67644" lon="18.75041">
        <ele>46.608118</ele>
        <time>2020-08-26T12:49:07.874Z</time>
      </trkpt>
      <trkpt lat="69.67634" lon="18.75057">
        <ele>46.247682</ele>
        <time>2020-08-26T12:49:09.866Z</time>
      </trkpt>
      <trkpt lat="69.67625" lon="18.75072">
        <ele>45.890289</ele>
        <time>2020-08-26T12:49:11.866Z</time>
      </trkpt>
      <trkpt lat="69.67616" lon="18.75092">
        <ele>45.493817</ele>
        <time>2020-08-26T12:49:13.860Z</time>
      </trkpt>
      <trkpt lat="69.67607" lon="18.75111">
        <ele>45.114426</ele>
        <time>2020-08-26T12:49:15.873Z</time>
      </trkpt>
      <trkpt lat="69.67598" lon="18.7513">
        <ele>44.745644</ele>
        <time>2020-08-26T12:49:17.846Z</time>
      </trkpt>
      <trkpt lat="69.67589" lon="18.7515">
        <ele>44.366017</ele>
        <time>2020-08-26T12:49:19.865Z</time>
      </trkpt>
      <trkpt lat="69.6758" lon="18.75172">
        <ele>43.983079</ele>
        <time>2020-08-26T12:49:21.847Z</time>
      </trkpt>
      <trkpt lat="69.67572" lon="18.75196">
        <ele>43.781385</ele>
        <time>2020-08-26T12:49:23.839Z</time>
      </trkpt>
      <trkpt lat="69.67564" lon="18.75221">
        <ele>43.608832</ele>
        <time>2020-08-26T12:49:25.858Z</time>
      </trkpt>
      <trkpt lat="69.67556" lon="18.75248">
        <ele>43.43094</ele>
        <time>2020-08-26T12:49:27.887Z</time>
      </trkpt>
      <trkpt lat="69.67549" lon="18.75277">
        <ele>43.254257</ele>
        <time>2020-08-26T12:49:29.861Z</time>
      </trkpt>
      <trkpt lat="69.67543" lon="18.75306">
        <ele>43.079808</ele>
        <time>2020-08-26T12:49:31.858Z</time>
      </trkpt>
      <trkpt lat="69.67537" lon="18.75336">
        <ele>42.903734</ele>
        <time>2020-08-26T12:49:33.868Z</time>
      </trkpt>
      <trkpt lat="69.6753" lon="18.75366">
        <ele>42.724098</ele>
        <time>2020-08-26T12:49:35.850Z</time>
      </trkpt>
      <trkpt lat="69.67523" lon="18.75396">
        <ele>42.542439</ele>
        <time>2020-08-26T12:49:37.880Z</time>
      </trkpt>
      <trkpt lat="69.67516" lon="18.75425">
        <ele>42.360717</ele>
        <time>2020-08-26T12:49:39.854Z</time>
      </trkpt>
      <trkpt lat="69.67508" lon="18.75454">
        <ele>42.177801</ele>
        <time>2020-08-26T12:49:41.840Z</time>
      </trkpt>
      <trkpt lat="69.67501" lon="18.75483">
        <ele>41.999039</ele>
        <time>2020-08-26T12:49:43.845Z</time>
      </trkpt>
      <trkpt lat="69.67495" lon="18.75513">
        <ele>41.822681</ele>
        <time>2020-08-26T12:49:45.852Z</time>
      </trkpt>
      <trkpt lat="69.67489" lon="18.75544">
        <ele>41.641296</ele>
        <time>2020-08-26T12:49:47.881Z</time>
      </trkpt>
      <trkpt lat="69.67483" lon="18.75574">
        <ele>41.465219</ele>
        <time>2020-08-26T12:49:49.841Z</time>
      </trkpt>
      <trkpt lat="69.67476" lon="18.75602">
        <ele>41.35211</ele>
        <time>2020-08-26T12:49:51.859Z</time>
      </trkpt>
      <trkpt lat="69.67469" lon="18.75632">
        <ele>41.613632</ele>
        <time>2020-08-26T12:49:53.874Z</time>
      </trkpt>
      <trkpt lat="69.67463" lon="18.7566">
        <ele>41.871247</ele>
        <time>2020-08-26T12:49:55.859Z</time>
      </trkpt>
      <trkpt lat="69.67457" lon="18.75689">
        <ele>42.127048</ele>
        <time>2020-08-26T12:49:57.843Z</time>
      </trkpt>
      <trkpt lat="69.6745" lon="18.75719">
        <ele>42.395369</ele>
        <time>2020-08-26T12:49:59.856Z</time>
      </trkpt>
      <trkpt lat="69.67444" lon="18.75751">
        <ele>42.665649</ele>
        <time>2020-08-26T12:50:01.862Z</time>
      </trkpt>
      <trkpt lat="69.67438" lon="18.75781">
        <ele>42.927887</ele>
        <time>2020-08-26T12:50:03.870Z</time>
      </trkpt>
      <trkpt lat="69.67434" lon="18.75811">
        <ele>43.1751</ele>
        <time>2020-08-26T12:50:05.870Z</time>
      </trkpt>
      <trkpt lat="69.67432" lon="18.75838">
        <ele>43.385172</ele>
        <time>2020-08-26T12:50:07.876Z</time>
      </trkpt>
      <trkpt lat="69.6743" lon="18.75864">
        <ele>43.583226</ele>
        <time>2020-08-26T12:50:09.846Z</time>
      </trkpt>
      <trkpt lat="69.67428" lon="18.75892">
        <ele>43.792723</ele>
        <time>2020-08-26T12:50:11.848Z</time>
      </trkpt>
      <trkpt lat="69.67427" lon="18.7592">
        <ele>44.009931</ele>
        <time>2020-08-26T12:50:13.859Z</time>
      </trkpt>
      <trkpt lat="69.67427" lon="18.75948">
        <ele>44.220509</ele>
        <time>2020-08-26T12:50:15.862Z</time>
      </trkpt>
      <trkpt lat="69.67426" lon="18.75975">
        <ele>44.423687</ele>
        <time>2020-08-26T12:50:17.854Z</time>
      </trkpt>
      <trkpt lat="69.67427" lon="18.76001">
        <ele>44.61835</ele>
        <time>2020-08-26T12:50:19.881Z</time>
      </trkpt>
      <trkpt lat="69.67428" lon="18.76036">
        <ele>44.887718</ele>
        <time>2020-08-26T12:50:22.868Z</time>
      </trkpt>
      <trkpt lat="69.67431" lon="18.76068">
        <ele>45.134668</ele>
        <time>2020-08-26T12:50:25.849Z</time>
      </trkpt>
      <trkpt lat="69.67433" lon="18.76104">
        <ele>45.477418</ele>
        <time>2020-08-26T12:50:28.883Z</time>
      </trkpt>
      <trkpt lat="69.67436" lon="18.76135">
        <ele>45.810075</ele>
        <time>2020-08-26T12:50:31.909Z</time>
      </trkpt>
      <trkpt lat="69.67439" lon="18.76165">
        <ele>46.132581</ele>
        <time>2020-08-26T12:50:34.894Z</time>
      </trkpt>
      <trkpt lat="69.67442" lon="18.76196">
        <ele>46.457736</ele>
        <time>2020-08-26T12:50:37.848Z</time>
      </trkpt>
      <trkpt lat="69.67445" lon="18.76228">
        <ele>46.804316</ele>
        <time>2020-08-26T12:50:40.842Z</time>
      </trkpt>
      <trkpt lat="69.6745" lon="18.76262">
        <ele>47.180108</ele>
        <time>2020-08-26T12:50:43.860Z</time>
      </trkpt>
      <trkpt lat="69.67452" lon="18.76287">
        <ele>47.455334</ele>
        <time>2020-08-26T12:50:45.839Z</time>
      </trkpt>
      <trkpt lat="69.67455" lon="18.76312">
        <ele>47.722284</ele>
        <time>2020-08-26T12:50:47.868Z</time>
      </trkpt>
      <trkpt lat="69.67458" lon="18.76338">
        <ele>48.010471</ele>
        <time>2020-08-26T12:50:49.854Z</time>
      </trkpt>
      <trkpt lat="69.67462" lon="18.76367">
        <ele>48.330663</ele>
        <time>2020-08-26T12:50:51.862Z</time>
      </trkpt>
      <trkpt lat="69.67466" lon="18.76396">
        <ele>48.6527</ele>
        <time>2020-08-26T12:50:53.856Z</time>
      </trkpt>
      <trkpt lat="69.6747" lon="18.76426">
        <ele>48.982857</ele>
        <time>2020-08-26T12:50:55.853Z</time>
      </trkpt>
      <trkpt lat="69.67474" lon="18.76456">
        <ele>49.31812</ele>
        <time>2020-08-26T12:50:57.884Z</time>
      </trkpt>
      <trkpt lat="69.67479" lon="18.76487">
        <ele>49.668262</ele>
        <time>2020-08-26T12:50:59.876Z</time>
      </trkpt>
      <trkpt lat="69.67483" lon="18.76519">
        <ele>50.023163</ele>
        <time>2020-08-26T12:51:01.869Z</time>
      </trkpt>
      <trkpt lat="69.67488" lon="18.76551">
        <ele>50.38609</ele>
        <time>2020-08-26T12:51:03.900Z</time>
      </trkpt>
      <trkpt lat="69.67494" lon="18.76583">
        <ele>50.464348</ele>
        <time>2020-08-26T12:51:05.852Z</time>
      </trkpt>
      <trkpt lat="69.675" lon="18.76612">
        <ele>50.266879</ele>
        <time>2020-08-26T12:51:07.869Z</time>
      </trkpt>
      <trkpt lat="69.67507" lon="18.76638">
        <ele>50.071163</ele>
        <time>2020-08-26T12:51:09.845Z</time>
      </trkpt>
      <trkpt lat="69.67513" lon="18.76663">
        <ele>49.889817</ele>
        <time>2020-08-26T12:51:11.841Z</time>
      </trkpt>
      <trkpt lat="69.67519" lon="18.76682">
        <ele>49.737457</ele>
        <time>2020-08-26T12:51:13.838Z</time>
      </trkpt>
      <trkpt lat="69.67526" lon="18.76702">
        <ele>49.573197</ele>
        <time>2020-08-26T12:51:16.866Z</time>
      </trkpt>
      <trkpt lat="69.67533" lon="18.76722">
        <ele>49.400803</ele>
        <time>2020-08-26T12:51:19.868Z</time>
      </trkpt>
      <trkpt lat="69.67541" lon="18.76743">
        <ele>49.223525</ele>
        <time>2020-08-26T12:51:22.879Z</time>
      </trkpt>
      <trkpt lat="69.67548" lon="18.76761">
        <ele>49.058991</ele>
        <time>2020-08-26T12:51:25.886Z</time>
      </trkpt>
      <trkpt lat="69.67557" lon="18.76782">
        <ele>48.863146</ele>
        <time>2020-08-26T12:51:29.850Z</time>
      </trkpt>
      <trkpt lat="69.67564" lon="18.76798">
        <ele>48.71108</ele>
        <time>2020-08-26T12:51:32.855Z</time>
      </trkpt>
      <trkpt lat="69.67571" lon="18.76815">
        <ele>48.555502</ele>
        <time>2020-08-26T12:51:35.849Z</time>
      </trkpt>
      <trkpt lat="69.6758" lon="18.76838">
        <ele>48.35332</ele>
        <time>2020-08-26T12:51:39.856Z</time>
      </trkpt>
      <trkpt lat="69.67588" lon="18.76859">
        <ele>48.180472</ele>
        <time>2020-08-26T12:51:43.858Z</time>
      </trkpt>
      <trkpt lat="69.67595" lon="18.76874">
        <ele>48.023956</ele>
        <time>2020-08-26T12:51:46.882Z</time>
      </trkpt>
      <trkpt lat="69.67603" lon="18.76892">
        <ele>47.860705</ele>
        <time>2020-08-26T12:51:49.858Z</time>
      </trkpt>
      <trkpt lat="69.6761" lon="18.7691">
        <ele>47.695079</ele>
        <time>2020-08-26T12:51:52.857Z</time>
      </trkpt>
      <trkpt lat="69.67619" lon="18.7693">
        <ele>47.529444</ele>
        <time>2020-08-26T12:51:55.899Z</time>
      </trkpt>
      <trkpt lat="69.67629" lon="18.76948">
        <ele>47.541635</ele>
        <time>2020-08-26T12:51:58.899Z</time>
      </trkpt>
      <trkpt lat="69.67638" lon="18.76966">
        <ele>47.553441</ele>
        <time>2020-08-26T12:52:01.856Z</time>
      </trkpt>
      <trkpt lat="69.67647" lon="18.76987">
        <ele>47.565539</ele>
        <time>2020-08-26T12:52:04.845Z</time>
      </trkpt>
      <trkpt lat="69.67656" lon="18.77006">
        <ele>47.577659</ele>
        <time>2020-08-26T12:52:07.874Z</time>
      </trkpt>
      <trkpt lat="69.67666" lon="18.77024">
        <ele>47.590035</ele>
        <time>2020-08-26T12:52:10.850Z</time>
      </trkpt>
      <trkpt lat="69.67676" lon="18.77039">
        <ele>47.601545</ele>
        <time>2020-08-26T12:52:13.852Z</time>
      </trkpt>
      <trkpt lat="69.67686" lon="18.7705">
        <ele>47.613188</ele>
        <time>2020-08-26T12:52:16.843Z</time>
      </trkpt>
      <trkpt lat="69.67696" lon="18.77064">
        <ele>47.624717</ele>
        <time>2020-08-26T12:52:19.860Z</time>
      </trkpt>
      <trkpt lat="69.67704" lon="18.77086">
        <ele>47.636496</ele>
        <time>2020-08-26T12:52:22.848Z</time>
      </trkpt>
      <trkpt lat="69.6771" lon="18.77117">
        <ele>47.649463</ele>
        <time>2020-08-26T12:52:25.873Z</time>
      </trkpt>
      <trkpt lat="69.67717" lon="18.77147">
        <ele>47.662955</ele>
        <time>2020-08-26T12:52:28.865Z</time>
      </trkpt>
      <trkpt lat="69.67723" lon="18.77167">
        <ele>47.672614</ele>
        <time>2020-08-26T12:52:30.857Z</time>
      </trkpt>
      <trkpt lat="69.6773" lon="18.77186">
        <ele>47.68231</ele>
        <time>2020-08-26T12:52:32.859Z</time>
      </trkpt>
      <trkpt lat="69.67737" lon="18.77202">
        <ele>47.69187</ele>
        <time>2020-08-26T12:52:34.860Z</time>
      </trkpt>
      <trkpt lat="69.67744" lon="18.77217">
        <ele>47.701553</ele>
        <time>2020-08-26T12:52:36.875Z</time>
      </trkpt>
      <trkpt lat="69.67753" lon="18.77228">
        <ele>47.711306</ele>
        <time>2020-08-26T12:52:38.865Z</time>
      </trkpt>
      <trkpt lat="69.67762" lon="18.77236">
        <ele>47.572711</ele>
        <time>2020-08-26T12:52:42.873Z</time>
      </trkpt>
      <trkpt lat="69.67773" lon="18.77269">
        <ele>46.801406</ele>
        <time>2020-08-26T12:54:37.873Z</time>
      </trkpt>
      <trkpt lat="69.67781" lon="18.77285">
        <ele>46.37333</ele>
        <time>2020-08-26T12:54:40.844Z</time>
      </trkpt>
      <trkpt lat="69.67789" lon="18.77304">
        <ele>45.875181</ele>
        <time>2020-08-26T12:54:43.858Z</time>
      </trkpt>
      <trkpt lat="69.67798" lon="18.77327">
        <ele>45.299988</ele>
        <time>2020-08-26T12:54:46.874Z</time>
      </trkpt>
      <trkpt lat="69.67806" lon="18.77345">
        <ele>44.834984</ele>
        <time>2020-08-26T12:54:48.875Z</time>
      </trkpt>
      <trkpt lat="69.67816" lon="18.77364">
        <ele>44.286099</ele>
        <time>2020-08-26T12:54:50.870Z</time>
      </trkpt>
      <trkpt lat="69.67826" lon="18.77383">
        <ele>43.719573</ele>
        <time>2020-08-26T12:54:52.851Z</time>
      </trkpt>
      <trkpt lat="69.67834" lon="18.77399">
        <ele>43.246112</ele>
        <time>2020-08-26T12:54:54.852Z</time>
      </trkpt>
      <trkpt lat="69.67842" lon="18.77416">
        <ele>42.788209</ele>
        <time>2020-08-26T12:54:56.892Z</time>
      </trkpt>
      <trkpt lat="69.6785" lon="18.77437">
        <ele>42.283946</ele>
        <time>2020-08-26T12:54:58.857Z</time>
      </trkpt>
      <trkpt lat="69.67859" lon="18.77459">
        <ele>41.742163</ele>
        <time>2020-08-26T12:55:00.847Z</time>
      </trkpt>
      <trkpt lat="69.67868" lon="18.77481">
        <ele>41.173709</ele>
        <time>2020-08-26T12:55:02.858Z</time>
      </trkpt>
      <trkpt lat="69.67877" lon="18.77504">
        <ele>40.605256</ele>
        <time>2020-08-26T12:55:04.873Z</time>
      </trkpt>
      <trkpt lat="69.67886" lon="18.77526">
        <ele>40.052809</ele>
        <time>2020-08-26T12:55:06.865Z</time>
      </trkpt>
      <trkpt lat="69.67894" lon="18.77548">
        <ele>39.531852</ele>
        <time>2020-08-26T12:55:08.865Z</time>
      </trkpt>
      <trkpt lat="69.67901" lon="18.77568">
        <ele>39.309616</ele>
        <time>2020-08-26T12:55:10.858Z</time>
      </trkpt>
      <trkpt lat="69.67908" lon="18.77589">
        <ele>39.359085</ele>
        <time>2020-08-26T12:55:12.885Z</time>
      </trkpt>
      <trkpt lat="69.67914" lon="18.77609">
        <ele>39.407367</ele>
        <time>2020-08-26T12:55:14.869Z</time>
      </trkpt>
      <trkpt lat="69.67923" lon="18.77635">
        <ele>39.471328</ele>
        <time>2020-08-26T12:55:17.864Z</time>
      </trkpt>
      <trkpt lat="69.6793" lon="18.77658">
        <ele>39.525579</ele>
        <time>2020-08-26T12:55:20.877Z</time>
      </trkpt>
      <trkpt lat="69.67936" lon="18.77679">
        <ele>39.575598</ele>
        <time>2020-08-26T12:55:23.866Z</time>
      </trkpt>
      <trkpt lat="69.67942" lon="18.77699">
        <ele>39.624231</ele>
        <time>2020-08-26T12:55:26.870Z</time>
      </trkpt>
      <trkpt lat="69.67949" lon="18.77726">
        <ele>39.683458</ele>
        <time>2020-08-26T12:55:30.856Z</time>
      </trkpt>
      <trkpt lat="69.67956" lon="18.77751">
        <ele>39.739999</ele>
        <time>2020-08-26T12:55:34.870Z</time>
      </trkpt>
      <trkpt lat="69.67963" lon="18.77775">
        <ele>39.795396</ele>
        <time>2020-08-26T12:55:38.870Z</time>
      </trkpt>
      <trkpt lat="69.6797" lon="18.77796">
        <ele>39.848069</ele>
        <time>2020-08-26T12:55:42.840Z</time>
      </trkpt>
      <trkpt lat="69.67977" lon="18.77817">
        <ele>39.89993</ele>
        <time>2020-08-26T12:55:46.872Z</time>
      </trkpt>
      <trkpt lat="69.67984" lon="18.77838">
        <ele>39.952476</ele>
        <time>2020-08-26T12:55:50.862Z</time>
      </trkpt>
      <trkpt lat="69.67991" lon="18.77859">
        <ele>40.006146</ele>
        <time>2020-08-26T12:55:54.893Z</time>
      </trkpt>
      <trkpt lat="69.67998" lon="18.77878">
        <ele>40.053486</ele>
        <time>2020-08-26T12:55:57.843Z</time>
      </trkpt>
      <trkpt lat="69.68004" lon="18.779">
        <ele>40.102818</ele>
        <time>2020-08-26T12:56:00.860Z</time>
      </trkpt>
      <trkpt lat="69.6801" lon="18.77924">
        <ele>40.156036</ele>
        <time>2020-08-26T12:56:03.911Z</time>
      </trkpt>
      <trkpt lat="69.68015" lon="18.77945">
        <ele>40.20273</ele>
        <time>2020-08-26T12:56:05.892Z</time>
      </trkpt>
      <trkpt lat="69.68022" lon="18.77969">
        <ele>40.091764</ele>
        <time>2020-08-26T12:56:07.856Z</time>
      </trkpt>
      <trkpt lat="69.68029" lon="18.77996">
        <ele>39.937244</ele>
        <time>2020-08-26T12:56:09.851Z</time>
      </trkpt>
      <trkpt lat="69.68037" lon="18.78021">
        <ele>39.778195</ele>
        <time>2020-08-26T12:56:11.864Z</time>
      </trkpt>
      <trkpt lat="69.68046" lon="18.78047">
        <ele>39.614919</ele>
        <time>2020-08-26T12:56:13.846Z</time>
      </trkpt>
      <trkpt lat="69.68056" lon="18.78075">
        <ele>39.43023</ele>
        <time>2020-08-26T12:56:15.840Z</time>
      </trkpt>
      <trkpt lat="69.68067" lon="18.78105">
        <ele>39.233043</ele>
        <time>2020-08-26T12:56:17.851Z</time>
      </trkpt>
      <trkpt lat="69.68077" lon="18.78136">
        <ele>39.047863</ele>
        <time>2020-08-26T12:56:19.866Z</time>
      </trkpt>
      <trkpt lat="69.68086" lon="18.78163">
        <ele>38.87495</ele>
        <time>2020-08-26T12:56:21.852Z</time>
      </trkpt>
      <trkpt lat="69.68094" lon="18.7819">
        <ele>38.720789</ele>
        <time>2020-08-26T12:56:23.908Z</time>
      </trkpt>
      <trkpt lat="69.68101" lon="18.78214">
        <ele>38.574538</ele>
        <time>2020-08-26T12:56:25.899Z</time>
      </trkpt>
      <trkpt lat="69.68108" lon="18.78238">
        <ele>38.43384</ele>
        <time>2020-08-26T12:56:27.859Z</time>
      </trkpt>
      <trkpt lat="69.68114" lon="18.78264">
        <ele>38.294625</ele>
        <time>2020-08-26T12:56:29.902Z</time>
      </trkpt>
      <trkpt lat="69.68121" lon="18.78289">
        <ele>38.145842</ele>
        <time>2020-08-26T12:56:31.879Z</time>
      </trkpt>
      <trkpt lat="69.68128" lon="18.78313">
        <ele>38.00502</ele>
        <time>2020-08-26T12:56:33.863Z</time>
      </trkpt>
      <trkpt lat="69.68134" lon="18.78338">
        <ele>37.86616</ele>
        <time>2020-08-26T12:56:35.877Z</time>
      </trkpt>
      <trkpt lat="69.6814" lon="18.78363">
        <ele>37.773863</ele>
        <time>2020-08-26T12:56:37.866Z</time>
      </trkpt>
      <trkpt lat="69.68145" lon="18.78386">
        <ele>37.68966</ele>
        <time>2020-08-26T12:56:39.872Z</time>
      </trkpt>
      <trkpt lat="69.6815" lon="18.78409">
        <ele>37.606202</ele>
        <time>2020-08-26T12:56:41.859Z</time>
      </trkpt>
      <trkpt lat="69.68155" lon="18.7843">
        <ele>37.524816</ele>
        <time>2020-08-26T12:56:43.851Z</time>
      </trkpt>
      <trkpt lat="69.68163" lon="18.78462">
        <ele>37.407596</ele>
        <time>2020-08-26T12:56:46.860Z</time>
      </trkpt>
      <trkpt lat="69.68169" lon="18.78495">
        <ele>37.293558</ele>
        <time>2020-08-26T12:56:49.855Z</time>
      </trkpt>
      <trkpt lat="69.68173" lon="18.78528">
        <ele>37.182833</ele>
        <time>2020-08-26T12:56:52.869Z</time>
      </trkpt>
      <trkpt lat="69.68178" lon="18.78561">
        <ele>37.073641</ele>
        <time>2020-08-26T12:56:55.867Z</time>
      </trkpt>
      <trkpt lat="69.68184" lon="18.78588">
        <ele>36.97246</ele>
        <time>2020-08-26T12:56:58.887Z</time>
      </trkpt>
      <trkpt lat="69.68192" lon="18.78609">
        <ele>36.880538</ele>
        <time>2020-08-26T12:57:01.863Z</time>
      </trkpt>
      <trkpt lat="69.68199" lon="18.78633">
        <ele>36.77936</ele>
        <time>2020-08-26T12:57:04.854Z</time>
      </trkpt>
      <trkpt lat="69.68204" lon="18.78668">
        <ele>36.665891</ele>
        <time>2020-08-26T12:57:07.868Z</time>
      </trkpt>
      <trkpt lat="69.68207" lon="18.78697">
        <ele>36.570492</ele>
        <time>2020-08-26T12:57:10.874Z</time>
      </trkpt>
      <trkpt lat="69.68208" lon="18.78732">
        <ele>36.462049</ele>
        <time>2020-08-26T12:57:13.859Z</time>
      </trkpt>
      <trkpt lat="69.68213" lon="18.78768">
        <ele>36.344537</ele>
        <time>2020-08-26T12:57:16.857Z</time>
      </trkpt>
      <trkpt lat="69.68218" lon="18.78802">
        <ele>36.347352</ele>
        <time>2020-08-26T12:57:19.850Z</time>
      </trkpt>
      <trkpt lat="69.68224" lon="18.78836">
        <ele>36.568621</ele>
        <time>2020-08-26T12:57:22.870Z</time>
      </trkpt>
      <trkpt lat="69.68228" lon="18.7886">
        <ele>36.736392</ele>
        <time>2020-08-26T12:57:24.849Z</time>
      </trkpt>
      <trkpt lat="69.68233" lon="18.78886">
        <ele>36.908563</ele>
        <time>2020-08-26T12:57:26.843Z</time>
      </trkpt>
      <trkpt lat="69.68238" lon="18.78913">
        <ele>37.088442</ele>
        <time>2020-08-26T12:57:28.851Z</time>
      </trkpt>
      <trkpt lat="69.68241" lon="18.78941">
        <ele>37.267675</ele>
        <time>2020-08-26T12:57:30.857Z</time>
      </trkpt>
      <trkpt lat="69.68245" lon="18.78968">
        <ele>37.435132</ele>
        <time>2020-08-26T12:57:32.872Z</time>
      </trkpt>
      <trkpt lat="69.68248" lon="18.78993">
        <ele>37.596898</ele>
        <time>2020-08-26T12:57:34.843Z</time>
      </trkpt>
      <trkpt lat="69.68252" lon="18.79019">
        <ele>37.763106</ele>
        <time>2020-08-26T12:57:36.875Z</time>
      </trkpt>
      <trkpt lat="69.68256" lon="18.79044">
        <ele>37.925667</ele>
        <time>2020-08-26T12:57:38.898Z</time>
      </trkpt>
      <trkpt lat="69.68261" lon="18.79077">
        <ele>38.143638</ele>
        <time>2020-08-26T12:57:41.859Z</time>
      </trkpt>
      <trkpt lat="69.68266" lon="18.79107">
        <ele>38.340587</ele>
        <time>2020-08-26T12:57:44.867Z</time>
      </trkpt>
      <trkpt lat="69.68272" lon="18.79135">
        <ele>38.528327</ele>
        <time>2020-08-26T12:57:47.872Z</time>
      </trkpt>
      <trkpt lat="69.68276" lon="18.7916">
        <ele>38.694198</ele>
        <time>2020-08-26T12:57:50.882Z</time>
      </trkpt>
      <trkpt lat="69.68281" lon="18.79183">
        <ele>38.853891</ele>
        <time>2020-08-26T12:57:53.889Z</time>
      </trkpt>
      <trkpt lat="69.68285" lon="18.79205">
        <ele>39.006958</ele>
        <time>2020-08-26T12:57:56.894Z</time>
      </trkpt>
      <trkpt lat="69.6829" lon="18.79235">
        <ele>39.205683</ele>
        <time>2020-08-26T12:58:00.859Z</time>
      </trkpt>
      <trkpt lat="69.68294" lon="18.79259">
        <ele>39.373211</ele>
        <time>2020-08-26T12:58:03.850Z</time>
      </trkpt>
      <trkpt lat="69.68299" lon="18.79283">
        <ele>39.650883</ele>
        <time>2020-08-26T12:58:06.860Z</time>
      </trkpt>
      <trkpt lat="69.68304" lon="18.79305">
        <ele>39.914746</ele>
        <time>2020-08-26T12:58:09.906Z</time>
      </trkpt>
      <trkpt lat="69.68308" lon="18.79328">
        <ele>40.173455</ele>
        <time>2020-08-26T12:58:12.852Z</time>
      </trkpt>
      <trkpt lat="69.68312" lon="18.79351">
        <ele>40.430855</ele>
        <time>2020-08-26T12:58:15.869Z</time>
      </trkpt>
      <trkpt lat="69.68315" lon="18.79376">
        <ele>40.688547</ele>
        <time>2020-08-26T12:58:18.858Z</time>
      </trkpt>
      <trkpt lat="69.68319" lon="18.79401">
        <ele>40.962336</ele>
        <time>2020-08-26T12:58:21.857Z</time>
      </trkpt>
      <trkpt lat="69.68323" lon="18.79427">
        <ele>41.24354</ele>
        <time>2020-08-26T12:58:24.870Z</time>
      </trkpt>
      <trkpt lat="69.68328" lon="18.79453">
        <ele>41.537002</ele>
        <time>2020-08-26T12:58:27.857Z</time>
      </trkpt>
      <trkpt lat="69.68332" lon="18.7948">
        <ele>41.826375</ele>
        <time>2020-08-26T12:58:30.838Z</time>
      </trkpt>
      <trkpt lat="69.68335" lon="18.79504">
        <ele>42.093693</ele>
        <time>2020-08-26T12:58:33.868Z</time>
      </trkpt>
      <trkpt lat="69.68338" lon="18.7953">
        <ele>42.359766</ele>
        <time>2020-08-26T12:58:36.870Z</time>
      </trkpt>
      <trkpt lat="69.68341" lon="18.79557">
        <ele>42.639922</ele>
        <time>2020-08-26T12:58:39.848Z</time>
      </trkpt>
      <trkpt lat="69.68345" lon="18.79584">
        <ele>42.933252</ele>
        <time>2020-08-26T12:58:42.856Z</time>
      </trkpt>
      <trkpt lat="69.68348" lon="18.79615">
        <ele>43.251962</ele>
        <time>2020-08-26T12:58:45.853Z</time>
      </trkpt>
      <trkpt lat="69.68352" lon="18.79647">
        <ele>43.587563</ele>
        <time>2020-08-26T12:58:48.871Z</time>
      </trkpt>
      <trkpt lat="69.68356" lon="18.79678">
        <ele>43.917543</ele>
        <time>2020-08-26T12:58:51.874Z</time>
      </trkpt>
      <trkpt lat="69.6836" lon="18.79711">
        <ele>44.260906</ele>
        <time>2020-08-26T12:58:54.857Z</time>
      </trkpt>
      <trkpt lat="69.68362" lon="18.79743">
        <ele>44.350971</ele>
        <time>2020-08-26T12:58:57.877Z</time>
      </trkpt>
      <trkpt lat="69.68367" lon="18.79775">
        <ele>43.787251</ele>
        <time>2020-08-26T12:59:00.868Z</time>
      </trkpt>
      <trkpt lat="69.6837" lon="18.79807">
        <ele>43.232106</ele>
        <time>2020-08-26T12:59:03.888Z</time>
      </trkpt>
      <trkpt lat="69.68372" lon="18.7984">
        <ele>42.664755</ele>
        <time>2020-08-26T12:59:06.850Z</time>
      </trkpt>
      <trkpt lat="69.68375" lon="18.79873">
        <ele>42.081848</ele>
        <time>2020-08-26T12:59:09.892Z</time>
      </trkpt>
      <trkpt lat="69.68378" lon="18.79907">
        <ele>41.486906</ele>
        <time>2020-08-26T12:59:12.869Z</time>
      </trkpt>
      <trkpt lat="69.68382" lon="18.79945">
        <ele>40.839161</ele>
        <time>2020-08-26T12:59:15.856Z</time>
      </trkpt>
      <trkpt lat="69.68383" lon="18.79972">
        <ele>40.380203</ele>
        <time>2020-08-26T12:59:17.856Z</time>
      </trkpt>
      <trkpt lat="69.68384" lon="18.80003">
        <ele>39.859282</ele>
        <time>2020-08-26T12:59:19.888Z</time>
      </trkpt>
      <trkpt lat="69.68383" lon="18.80038">
        <ele>39.274417</ele>
        <time>2020-08-26T12:59:21.846Z</time>
      </trkpt>
      <trkpt lat="69.68382" lon="18.80074">
        <ele>38.662775</ele>
        <time>2020-08-26T12:59:23.857Z</time>
      </trkpt>
      <trkpt lat="69.68381" lon="18.80104">
        <ele>38.149723</ele>
        <time>2020-08-26T12:59:25.856Z</time>
      </trkpt>
      <trkpt lat="69.6838" lon="18.80132">
        <ele>37.688168</ele>
        <time>2020-08-26T12:59:27.846Z</time>
      </trkpt>
      <trkpt lat="69.68379" lon="18.80162">
        <ele>37.180346</ele>
        <time>2020-08-26T12:59:29.861Z</time>
      </trkpt>
      <trkpt lat="69.68377" lon="18.80193">
        <ele>36.640616</ele>
        <time>2020-08-26T12:59:31.851Z</time>
      </trkpt>
      <trkpt lat="69.68376" lon="18.80226">
        <ele>36.084577</ele>
        <time>2020-08-26T12:59:33.889Z</time>
      </trkpt>
      <trkpt lat="69.68375" lon="18.80259">
        <ele>35.737393</ele>
        <time>2020-08-26T12:59:35.866Z</time>
      </trkpt>
      <trkpt lat="69.68374" lon="18.80293">
        <ele>35.592229</ele>
        <time>2020-08-26T12:59:37.889Z</time>
      </trkpt>
      <trkpt lat="69.68374" lon="18.80327">
        <ele>35.450531</ele>
        <time>2020-08-26T12:59:39.871Z</time>
      </trkpt>
      <trkpt lat="69.68373" lon="18.80363">
        <ele>35.294159</ele>
        <time>2020-08-26T12:59:41.859Z</time>
      </trkpt>
      <trkpt lat="69.68372" lon="18.80398">
        <ele>35.14382</ele>
        <time>2020-08-26T12:59:43.866Z</time>
      </trkpt>
      <trkpt lat="69.68372" lon="18.80431">
        <ele>35.00519</ele>
        <time>2020-08-26T12:59:45.864Z</time>
      </trkpt>
      <trkpt lat="69.68371" lon="18.80464">
        <ele>34.862512</ele>
        <time>2020-08-26T12:59:47.917Z</time>
      </trkpt>
      <trkpt lat="69.68371" lon="18.80495">
        <ele>34.731089</ele>
        <time>2020-08-26T12:59:49.853Z</time>
      </trkpt>
      <trkpt lat="69.6837" lon="18.80522">
        <ele>34.616155</ele>
        <time>2020-08-26T12:59:51.888Z</time>
      </trkpt>
      <trkpt lat="69.6837" lon="18.80548">
        <ele>34.503478</ele>
        <time>2020-08-26T12:59:53.868Z</time>
      </trkpt>
      <trkpt lat="69.68369" lon="18.80575">
        <ele>34.388879</ele>
        <time>2020-08-26T12:59:55.869Z</time>
      </trkpt>
      <trkpt lat="69.68368" lon="18.80605">
        <ele>34.262282</ele>
        <time>2020-08-26T12:59:57.875Z</time>
      </trkpt>
      <trkpt lat="69.68368" lon="18.80632">
        <ele>34.145447</ele>
        <time>2020-08-26T12:59:59.900Z</time>
      </trkpt>
      <trkpt lat="69.68368" lon="18.80659">
        <ele>34.031165</ele>
        <time>2020-08-26T13:00:01.848Z</time>
      </trkpt>
      <trkpt lat="69.68369" lon="18.80686">
        <ele>33.91444</ele>
        <time>2020-08-26T13:00:03.853Z</time>
      </trkpt>
      <trkpt lat="69.6837" lon="18.80715">
        <ele>33.793462</ele>
        <time>2020-08-26T13:00:05.859Z</time>
      </trkpt>
      <trkpt lat="69.6837" lon="18.80742">
        <ele>33.675119</ele>
        <time>2020-08-26T13:00:07.852Z</time>
      </trkpt>
      <trkpt lat="69.68371" lon="18.80771">
        <ele>33.604148</ele>
        <time>2020-08-26T13:00:09.847Z</time>
      </trkpt>
      <trkpt lat="69.68371" lon="18.80799">
        <ele>33.615866</ele>
        <time>2020-08-26T13:00:11.849Z</time>
      </trkpt>
      <trkpt lat="69.68372" lon="18.80827">
        <ele>33.627624</ele>
        <time>2020-08-26T13:00:13.849Z</time>
      </trkpt>
      <trkpt lat="69.68373" lon="18.80855">
        <ele>33.639252</ele>
        <time>2020-08-26T13:00:15.873Z</time>
      </trkpt>
      <trkpt lat="69.68374" lon="18.80884">
        <ele>33.651398</ele>
        <time>2020-08-26T13:00:17.857Z</time>
      </trkpt>
      <trkpt lat="69.68375" lon="18.80915">
        <ele>33.66405</ele>
        <time>2020-08-26T13:00:19.845Z</time>
      </trkpt>
      <trkpt lat="69.68376" lon="18.80946">
        <ele>33.676772</ele>
        <time>2020-08-26T13:00:21.865Z</time>
      </trkpt>
      <trkpt lat="69.68377" lon="18.80976">
        <ele>33.689481</ele>
        <time>2020-08-26T13:00:23.873Z</time>
      </trkpt>
      <trkpt lat="69.68377" lon="18.81006">
        <ele>33.701949</ele>
        <time>2020-08-26T13:00:25.849Z</time>
      </trkpt>
      <trkpt lat="69.68378" lon="18.81039">
        <ele>33.715339</ele>
        <time>2020-08-26T13:00:27.861Z</time>
      </trkpt>
      <trkpt lat="69.68379" lon="18.81072">
        <ele>33.729119</ele>
        <time>2020-08-26T13:00:29.874Z</time>
      </trkpt>
      <trkpt lat="69.6838" lon="18.81103">
        <ele>33.742164</ele>
        <time>2020-08-26T13:00:31.865Z</time>
      </trkpt>
      <trkpt lat="69.6838" lon="18.81133">
        <ele>33.75468</ele>
        <time>2020-08-26T13:00:33.850Z</time>
      </trkpt>
      <trkpt lat="69.68382" lon="18.81165">
        <ele>33.767743</ele>
        <time>2020-08-26T13:00:35.865Z</time>
      </trkpt>
      <trkpt lat="69.68382" lon="18.81195">
        <ele>33.780128</ele>
        <time>2020-08-26T13:00:37.891Z</time>
      </trkpt>
      <trkpt lat="69.68383" lon="18.81222">
        <ele>33.791315</ele>
        <time>2020-08-26T13:00:39.866Z</time>
      </trkpt>
      <trkpt lat="69.68384" lon="18.81259">
        <ele>33.806661</ele>
        <time>2020-08-26T13:00:42.840Z</time>
      </trkpt>
      <trkpt lat="69.68385" lon="18.81294">
        <ele>33.865867</ele>
        <time>2020-08-26T13:00:45.860Z</time>
      </trkpt>
      <trkpt lat="69.68386" lon="18.81327">
        <ele>33.96281</ele>
        <time>2020-08-26T13:00:48.876Z</time>
      </trkpt>
      <trkpt lat="69.68389" lon="18.81358">
        <ele>34.055713</ele>
        <time>2020-08-26T13:00:51.852Z</time>
      </trkpt>
      <trkpt lat="69.68392" lon="18.81385">
        <ele>34.137919</ele>
        <time>2020-08-26T13:00:54.856Z</time>
      </trkpt>
      <trkpt lat="69.68392" lon="18.81415">
        <ele>34.224124</ele>
        <time>2020-08-26T13:00:57.856Z</time>
      </trkpt>
      <trkpt lat="69.6839" lon="18.81448">
        <ele>34.31945</ele>
        <time>2020-08-26T13:01:00.877Z</time>
      </trkpt>
      <trkpt lat="69.68389" lon="18.81481">
        <ele>34.415525</ele>
        <time>2020-08-26T13:01:03.858Z</time>
      </trkpt>
      <trkpt lat="69.68391" lon="18.81516">
        <ele>34.51896</ele>
        <time>2020-08-26T13:01:06.869Z</time>
      </trkpt>
      <trkpt lat="69.68392" lon="18.81552">
        <ele>34.623199</ele>
        <time>2020-08-26T13:01:09.864Z</time>
      </trkpt>
      <trkpt lat="69.68393" lon="18.81585">
        <ele>34.71851</ele>
        <time>2020-08-26T13:01:12.860Z</time>
      </trkpt>
      <trkpt lat="69.68393" lon="18.81615">
        <ele>34.807512</ele>
        <time>2020-08-26T13:01:15.839Z</time>
      </trkpt>
      <trkpt lat="69.68394" lon="18.81645">
        <ele>34.894057</ele>
        <time>2020-08-26T13:01:18.892Z</time>
      </trkpt>
      <trkpt lat="69.68395" lon="18.81674">
        <ele>34.980236</ele>
        <time>2020-08-26T13:01:21.868Z</time>
      </trkpt>
      <trkpt lat="69.68396" lon="18.81707">
        <ele>35.07381</ele>
        <time>2020-08-26T13:01:24.855Z</time>
      </trkpt>
      <trkpt lat="69.68396" lon="18.8174">
        <ele>35.169247</ele>
        <time>2020-08-26T13:01:27.852Z</time>
      </trkpt>
      <trkpt lat="69.68397" lon="18.81774">
        <ele>35.268953</ele>
        <time>2020-08-26T13:01:30.875Z</time>
      </trkpt>
      <trkpt lat="69.68398" lon="18.81809">
        <ele>35.315359</ele>
        <time>2020-08-26T13:01:33.853Z</time>
      </trkpt>
      <trkpt lat="69.684" lon="18.81847">
        <ele>35.313194</ele>
        <time>2020-08-26T13:01:36.858Z</time>
      </trkpt>
      <trkpt lat="69.68401" lon="18.81884">
        <ele>35.311034</ele>
        <time>2020-08-26T13:01:39.899Z</time>
      </trkpt>
      <trkpt lat="69.68402" lon="18.81918">
        <ele>35.309077</ele>
        <time>2020-08-26T13:01:42.852Z</time>
      </trkpt>
      <trkpt lat="69.68403" lon="18.81955">
        <ele>35.306945</ele>
        <time>2020-08-26T13:01:45.866Z</time>
      </trkpt>
      <trkpt lat="69.68404" lon="18.81982">
        <ele>35.305405</ele>
        <time>2020-08-26T13:01:47.861Z</time>
      </trkpt>
      <trkpt lat="69.68405" lon="18.8202">
        <ele>35.30319</ele>
        <time>2020-08-26T13:01:50.862Z</time>
      </trkpt>
      <trkpt lat="69.68405" lon="18.82047">
        <ele>35.301672</ele>
        <time>2020-08-26T13:01:52.848Z</time>
      </trkpt>
      <trkpt lat="69.68406" lon="18.82074">
        <ele>35.30011</ele>
        <time>2020-08-26T13:01:54.851Z</time>
      </trkpt>
      <trkpt lat="69.68407" lon="18.82102">
        <ele>35.298488</ele>
        <time>2020-08-26T13:01:56.875Z</time>
      </trkpt>
      <trkpt lat="69.68407" lon="18.82128">
        <ele>35.296977</ele>
        <time>2020-08-26T13:01:58.867Z</time>
      </trkpt>
      <trkpt lat="69.68407" lon="18.82155">
        <ele>35.295419</ele>
        <time>2020-08-26T13:02:00.844Z</time>
      </trkpt>
      <trkpt lat="69.68408" lon="18.82184">
        <ele>35.293723</ele>
        <time>2020-08-26T13:02:02.875Z</time>
      </trkpt>
      <trkpt lat="69.68409" lon="18.82215">
        <ele>35.291972</ele>
        <time>2020-08-26T13:02:04.857Z</time>
      </trkpt>
      <trkpt lat="69.6841" lon="18.82243">
        <ele>35.290318</ele>
        <time>2020-08-26T13:02:06.832Z</time>
      </trkpt>
      <trkpt lat="69.68411" lon="18.82273">
        <ele>35.288634</ele>
        <time>2020-08-26T13:02:08.848Z</time>
      </trkpt>
      <trkpt lat="69.68411" lon="18.82302">
        <ele>35.286923</ele>
        <time>2020-08-26T13:02:10.871Z</time>
      </trkpt>
      <trkpt lat="69.68413" lon="18.82333">
        <ele>35.199797</ele>
        <time>2020-08-26T13:02:12.877Z</time>
      </trkpt>
      <trkpt lat="69.68413" lon="18.82364">
        <ele>35.099849</ele>
        <time>2020-08-26T13:02:14.855Z</time>
      </trkpt>
      <trkpt lat="69.68413" lon="18.82395">
        <ele>34.997926</ele>
        <time>2020-08-26T13:02:16.840Z</time>
      </trkpt>
      <trkpt lat="69.68414" lon="18.82427">
        <ele>34.896857</ele>
        <time>2020-08-26T13:02:18.852Z</time>
      </trkpt>
      <trkpt lat="69.68415" lon="18.82457">
        <ele>34.799056</ele>
        <time>2020-08-26T13:02:20.864Z</time>
      </trkpt>
      <trkpt lat="69.68416" lon="18.82483">
        <ele>34.713095</ele>
        <time>2020-08-26T13:02:22.865Z</time>
      </trkpt>
      <trkpt lat="69.68416" lon="18.82522">
        <ele>34.587276</ele>
        <time>2020-08-26T13:02:25.856Z</time>
      </trkpt>
      <trkpt lat="69.68416" lon="18.8255">
        <ele>34.497031</ele>
        <time>2020-08-26T13:02:27.867Z</time>
      </trkpt>
      <trkpt lat="69.68416" lon="18.82578">
        <ele>34.40694</ele>
        <time>2020-08-26T13:02:29.877Z</time>
      </trkpt>
      <trkpt lat="69.68417" lon="18.82605">
        <ele>34.317921</ele>
        <time>2020-08-26T13:02:31.847Z</time>
      </trkpt>
      <trkpt lat="69.68418" lon="18.82632">
        <ele>34.231156</ele>
        <time>2020-08-26T13:02:33.858Z</time>
      </trkpt>
      <trkpt lat="69.68419" lon="18.8266">
        <ele>34.140436</ele>
        <time>2020-08-26T13:02:35.895Z</time>
      </trkpt>
      <trkpt lat="69.6842" lon="18.82689">
        <ele>34.045941</ele>
        <time>2020-08-26T13:02:37.851Z</time>
      </trkpt>
      <trkpt lat="69.68421" lon="18.82717">
        <ele>33.953137</ele>
        <time>2020-08-26T13:02:39.872Z</time>
      </trkpt>
      <trkpt lat="69.68422" lon="18.82747">
        <ele>33.857354</ele>
        <time>2020-08-26T13:02:41.869Z</time>
      </trkpt>
      <trkpt lat="69.68423" lon="18.82776">
        <ele>33.762571</ele>
        <time>2020-08-26T13:02:43.879Z</time>
      </trkpt>
      <trkpt lat="69.68424" lon="18.82807">
        <ele>33.66316</ele>
        <time>2020-08-26T13:02:45.853Z</time>
      </trkpt>
      <trkpt lat="69.68425" lon="18.82837">
        <ele>33.643904</ele>
        <time>2020-08-26T13:02:47.868Z</time>
      </trkpt>
      <trkpt lat="69.68426" lon="18.82868">
        <ele>33.714186</ele>
        <time>2020-08-26T13:02:49.851Z</time>
      </trkpt>
      <trkpt lat="69.68427" lon="18.82899">
        <ele>33.785219</ele>
        <time>2020-08-26T13:02:51.866Z</time>
      </trkpt>
      <trkpt lat="69.68428" lon="18.82931">
        <ele>33.858198</ele>
        <time>2020-08-26T13:02:53.862Z</time>
      </trkpt>
      <trkpt lat="69.68429" lon="18.82964">
        <ele>33.933148</ele>
        <time>2020-08-26T13:02:55.857Z</time>
      </trkpt>
      <trkpt lat="69.6843" lon="18.82997">
        <ele>34.008389</ele>
        <time>2020-08-26T13:02:57.885Z</time>
      </trkpt>
      <trkpt lat="69.68431" lon="18.83029">
        <ele>34.080403</ele>
        <time>2020-08-26T13:02:59.875Z</time>
      </trkpt>
      <trkpt lat="69.68432" lon="18.8306">
        <ele>34.152132</ele>
        <time>2020-08-26T13:03:01.879Z</time>
      </trkpt>
      <trkpt lat="69.68433" lon="18.83089">
        <ele>34.217748</ele>
        <time>2020-08-26T13:03:03.847Z</time>
      </trkpt>
      <trkpt lat="69.68433" lon="18.83116">
        <ele>34.279514</ele>
        <time>2020-08-26T13:03:05.864Z</time>
      </trkpt>
      <trkpt lat="69.68433" lon="18.83143">
        <ele>34.339185</ele>
        <time>2020-08-26T13:03:07.855Z</time>
      </trkpt>
      <trkpt lat="69.68434" lon="18.83178">
        <ele>34.420182</ele>
        <time>2020-08-26T13:03:10.854Z</time>
      </trkpt>
      <trkpt lat="69.68435" lon="18.83214">
        <ele>34.50036</ele>
        <time>2020-08-26T13:03:13.899Z</time>
      </trkpt>
      <trkpt lat="69.68436" lon="18.83247">
        <ele>34.576123</ele>
        <time>2020-08-26T13:03:16.860Z</time>
      </trkpt>
      <trkpt lat="69.68437" lon="18.83279">
        <ele>34.65092</ele>
        <time>2020-08-26T13:03:19.877Z</time>
      </trkpt>
      <trkpt lat="69.68438" lon="18.83312">
        <ele>34.72587</ele>
        <time>2020-08-26T13:03:22.847Z</time>
      </trkpt>
      <trkpt lat="69.6844" lon="18.83343">
        <ele>34.797651</ele>
        <time>2020-08-26T13:03:25.852Z</time>
      </trkpt>
      <trkpt lat="69.6844" lon="18.83372">
        <ele>34.873971</ele>
        <time>2020-08-26T13:03:28.850Z</time>
      </trkpt>
      <trkpt lat="69.68442" lon="18.834">
        <ele>34.949745</ele>
        <time>2020-08-26T13:03:31.871Z</time>
      </trkpt>
      <trkpt lat="69.68444" lon="18.83427">
        <ele>35.023031</ele>
        <time>2020-08-26T13:03:34.842Z</time>
      </trkpt>
      <trkpt lat="69.68445" lon="18.83456">
        <ele>35.098283</ele>
        <time>2020-08-26T13:03:37.852Z</time>
      </trkpt>
      <trkpt lat="69.68447" lon="18.83486">
        <ele>35.179487</ele>
        <time>2020-08-26T13:03:40.890Z</time>
      </trkpt>
      <trkpt lat="69.68449" lon="18.83516">
        <ele>35.259799</ele>
        <time>2020-08-26T13:03:43.858Z</time>
      </trkpt>
      <trkpt lat="69.68451" lon="18.83546">
        <ele>35.341128</ele>
        <time>2020-08-26T13:03:46.857Z</time>
      </trkpt>
      <trkpt lat="69.68455" lon="18.83574">
        <ele>35.417834</ele>
        <time>2020-08-26T13:03:49.847Z</time>
      </trkpt>
      <trkpt lat="69.68458" lon="18.83602">
        <ele>35.49554</ele>
        <time>2020-08-26T13:03:52.897Z</time>
      </trkpt>
      <trkpt lat="69.68461" lon="18.83632">
        <ele>35.578497</ele>
        <time>2020-08-26T13:03:55.861Z</time>
      </trkpt>
      <trkpt lat="69.68464" lon="18.83663">
        <ele>35.662876</ele>
        <time>2020-08-26T13:03:58.864Z</time>
      </trkpt>
      <trkpt lat="69.68467" lon="18.83695">
        <ele>35.752858</ele>
        <time>2020-08-26T13:04:01.848Z</time>
      </trkpt>
      <trkpt lat="69.6847" lon="18.83721">
        <ele>35.823108</ele>
        <time>2020-08-26T13:04:03.854Z</time>
      </trkpt>
      <trkpt lat="69.68473" lon="18.83747">
        <ele>35.897336</ele>
        <time>2020-08-26T13:04:05.860Z</time>
      </trkpt>
      <trkpt lat="69.68475" lon="18.83777">
        <ele>35.976616</ele>
        <time>2020-08-26T13:04:07.859Z</time>
      </trkpt>
      <trkpt lat="69.68478" lon="18.83809">
        <ele>36.063791</ele>
        <time>2020-08-26T13:04:09.849Z</time>
      </trkpt>
      <trkpt lat="69.6848" lon="18.83844">
        <ele>36.132919</ele>
        <time>2020-08-26T13:04:11.893Z</time>
      </trkpt>
      <trkpt lat="69.68483" lon="18.83879">
        <ele>35.83693</ele>
        <time>2020-08-26T13:04:13.848Z</time>
      </trkpt>
      <trkpt lat="69.68486" lon="18.83914">
        <ele>35.537757</ele>
        <time>2020-08-26T13:04:15.852Z</time>
      </trkpt>
      <trkpt lat="69.6849" lon="18.83949">
        <ele>35.241174</ele>
        <time>2020-08-26T13:04:17.873Z</time>
      </trkpt>
      <trkpt lat="69.68492" lon="18.83982">
        <ele>34.962207</ele>
        <time>2020-08-26T13:04:19.864Z</time>
      </trkpt>
      <trkpt lat="69.68494" lon="18.84015">
        <ele>34.694599</ele>
        <time>2020-08-26T13:04:21.857Z</time>
      </trkpt>
      <trkpt lat="69.68496" lon="18.84045">
        <ele>34.43895</ele>
        <time>2020-08-26T13:04:23.849Z</time>
      </trkpt>
      <trkpt lat="69.68499" lon="18.84074">
        <ele>34.193737</ele>
        <time>2020-08-26T13:04:25.879Z</time>
      </trkpt>
      <trkpt lat="69.68501" lon="18.841">
        <ele>33.966144</ele>
        <time>2020-08-26T13:04:27.857Z</time>
      </trkpt>
      <trkpt lat="69.68504" lon="18.84126">
        <ele>33.749457</ele>
        <time>2020-08-26T13:04:29.867Z</time>
      </trkpt>
      <trkpt lat="69.68506" lon="18.84153">
        <ele>33.5223</ele>
        <time>2020-08-26T13:04:31.858Z</time>
      </trkpt>
      <trkpt lat="69.68507" lon="18.84179">
        <ele>33.301693</ele>
        <time>2020-08-26T13:04:33.852Z</time>
      </trkpt>
      <trkpt lat="69.6851" lon="18.84207">
        <ele>33.069824</ele>
        <time>2020-08-26T13:04:35.852Z</time>
      </trkpt>
      <trkpt lat="69.68512" lon="18.84233">
        <ele>32.849573</ele>
        <time>2020-08-26T13:04:37.857Z</time>
      </trkpt>
      <trkpt lat="69.68515" lon="18.84258">
        <ele>32.630612</ele>
        <time>2020-08-26T13:04:39.863Z</time>
      </trkpt>
      <trkpt lat="69.68519" lon="18.84293">
        <ele>32.329453</ele>
        <time>2020-08-26T13:04:42.876Z</time>
      </trkpt>
      <trkpt lat="69.68522" lon="18.84327">
        <ele>32.035431</ele>
        <time>2020-08-26T13:04:45.889Z</time>
      </trkpt>
      <trkpt lat="69.68524" lon="18.84362">
        <ele>31.92583</ele>
        <time>2020-08-26T13:04:48.857Z</time>
      </trkpt>
      <trkpt lat="69.68528" lon="18.84398">
        <ele>31.988838</ele>
        <time>2020-08-26T13:04:51.843Z</time>
      </trkpt>
      <trkpt lat="69.68531" lon="18.84433">
        <ele>32.051187</ele>
        <time>2020-08-26T13:04:54.855Z</time>
      </trkpt>
      <trkpt lat="69.68533" lon="18.84467">
        <ele>32.109104</ele>
        <time>2020-08-26T13:04:57.850Z</time>
      </trkpt>
      <trkpt lat="69.68537" lon="18.84501">
        <ele>32.169906</ele>
        <time>2020-08-26T13:05:00.853Z</time>
      </trkpt>
      <trkpt lat="69.6854" lon="18.8453">
        <ele>32.222268</ele>
        <time>2020-08-26T13:05:03.873Z</time>
      </trkpt>
      <trkpt lat="69.68545" lon="18.8456">
        <ele>32.278268</ele>
        <time>2020-08-26T13:05:06.859Z</time>
      </trkpt>
      <trkpt lat="69.68551" lon="18.84594">
        <ele>32.342401</ele>
        <time>2020-08-26T13:05:09.870Z</time>
      </trkpt>
      <trkpt lat="69.68556" lon="18.84616">
        <ele>32.388202</ele>
        <time>2020-08-26T13:05:11.884Z</time>
      </trkpt>
      <trkpt lat="69.68562" lon="18.84636">
        <ele>32.432949</ele>
        <time>2020-08-26T13:05:13.851Z</time>
      </trkpt>
      <trkpt lat="69.68568" lon="18.84656">
        <ele>32.478717</ele>
        <time>2020-08-26T13:05:15.868Z</time>
      </trkpt>
      <trkpt lat="69.68573" lon="18.84679">
        <ele>32.525079</ele>
        <time>2020-08-26T13:05:17.869Z</time>
      </trkpt>
      <trkpt lat="69.68579" lon="18.84701">
        <ele>32.573039</ele>
        <time>2020-08-26T13:05:19.866Z</time>
      </trkpt>
      <trkpt lat="69.68586" lon="18.84722">
        <ele>32.621333</ele>
        <time>2020-08-26T13:05:21.850Z</time>
      </trkpt>
      <trkpt lat="69.68592" lon="18.84742">
        <ele>32.667304</ele>
        <time>2020-08-26T13:05:23.907Z</time>
      </trkpt>
      <trkpt lat="69.68598" lon="18.84763">
        <ele>32.711996</ele>
        <time>2020-08-26T13:05:25.856Z</time>
      </trkpt>
      <trkpt lat="69.68607" lon="18.84792">
        <ele>32.781727</ele>
        <time>2020-08-26T13:05:28.872Z</time>
      </trkpt>
      <trkpt lat="69.68613" lon="18.84813">
        <ele>32.911317</ele>
        <time>2020-08-26T13:05:30.856Z</time>
      </trkpt>
      <trkpt lat="69.68618" lon="18.84834">
        <ele>33.040821</ele>
        <time>2020-08-26T13:05:32.855Z</time>
      </trkpt>
      <trkpt lat="69.68624" lon="18.84856">
        <ele>33.173012</ele>
        <time>2020-08-26T13:05:34.881Z</time>
      </trkpt>
      <trkpt lat="69.6863" lon="18.84878">
        <ele>33.307007</ele>
        <time>2020-08-26T13:05:36.873Z</time>
      </trkpt>
      <trkpt lat="69.68635" lon="18.84898">
        <ele>33.43557</ele>
        <time>2020-08-26T13:05:38.845Z</time>
      </trkpt>
      <trkpt lat="69.68642" lon="18.84919">
        <ele>33.571051</ele>
        <time>2020-08-26T13:05:40.862Z</time>
      </trkpt>
      <trkpt lat="69.68648" lon="18.84941">
        <ele>33.710383</ele>
        <time>2020-08-26T13:05:42.859Z</time>
      </trkpt>
      <trkpt lat="69.68655" lon="18.84963">
        <ele>33.847901</ele>
        <time>2020-08-26T13:05:44.844Z</time>
      </trkpt>
      <trkpt lat="69.6866" lon="18.84983">
        <ele>33.975094</ele>
        <time>2020-08-26T13:05:46.876Z</time>
      </trkpt>
      <trkpt lat="69.68666" lon="18.85003">
        <ele>34.100665</ele>
        <time>2020-08-26T13:05:48.864Z</time>
      </trkpt>
      <trkpt lat="69.68675" lon="18.85033">
        <ele>34.287409</ele>
        <time>2020-08-26T13:05:51.848Z</time>
      </trkpt>
      <trkpt lat="69.68683" lon="18.85063">
        <ele>34.474278</ele>
        <time>2020-08-26T13:05:54.858Z</time>
      </trkpt>
      <trkpt lat="69.68689" lon="18.85084">
        <ele>34.609033</ele>
        <time>2020-08-26T13:05:56.884Z</time>
      </trkpt>
      <trkpt lat="69.68696" lon="18.85106">
        <ele>34.751488</ele>
        <time>2020-08-26T13:05:58.867Z</time>
      </trkpt>
      <trkpt lat="69.68702" lon="18.85128">
        <ele>34.894321</ele>
        <time>2020-08-26T13:06:00.856Z</time>
      </trkpt>
      <trkpt lat="69.68709" lon="18.85148">
        <ele>35.026796</ele>
        <time>2020-08-26T13:06:02.862Z</time>
      </trkpt>
      <trkpt lat="69.68715" lon="18.85167">
        <ele>35.155934</ele>
        <time>2020-08-26T13:06:04.880Z</time>
      </trkpt>
      <trkpt lat="69.68724" lon="18.85196">
        <ele>35.409316</ele>
        <time>2020-08-26T13:06:07.857Z</time>
      </trkpt>
      <trkpt lat="69.68732" lon="18.85224">
        <ele>35.872002</ele>
        <time>2020-08-26T13:06:10.892Z</time>
      </trkpt>
      <trkpt lat="69.68739" lon="18.85249">
        <ele>36.293917</ele>
        <time>2020-08-26T13:06:13.858Z</time>
      </trkpt>
      <trkpt lat="69.68746" lon="18.85273">
        <ele>36.680118</ele>
        <time>2020-08-26T13:06:16.861Z</time>
      </trkpt>
      <trkpt lat="69.68752" lon="18.85294">
        <ele>37.01437</ele>
        <time>2020-08-26T13:06:19.851Z</time>
      </trkpt>
      <trkpt lat="69.68757" lon="18.85315">
        <ele>37.345423</ele>
        <time>2020-08-26T13:06:22.842Z</time>
      </trkpt>
      <trkpt lat="69.68763" lon="18.8534">
        <ele>37.742105</ele>
        <time>2020-08-26T13:06:26.866Z</time>
      </trkpt>
      <trkpt lat="69.6877" lon="18.85364">
        <ele>38.140162</ele>
        <time>2020-08-26T13:06:30.864Z</time>
      </trkpt>
      <trkpt lat="69.68777" lon="18.85385">
        <ele>38.493254</ele>
        <time>2020-08-26T13:06:34.848Z</time>
      </trkpt>
      <trkpt lat="69.68782" lon="18.85407">
        <ele>38.82839</ele>
        <time>2020-08-26T13:06:38.852Z</time>
      </trkpt>
      <trkpt lat="69.68789" lon="18.8543">
        <ele>39.209335</ele>
        <time>2020-08-26T13:06:43.877Z</time>
      </trkpt>
      <trkpt lat="69.68796" lon="18.85454">
        <ele>39.614072</ele>
        <time>2020-08-26T13:06:48.864Z</time>
      </trkpt>
      <trkpt lat="69.68803" lon="18.85474">
        <ele>39.96798</ele>
        <time>2020-08-26T13:06:52.855Z</time>
      </trkpt>
      <trkpt lat="69.68809" lon="18.85495">
        <ele>40.32483</ele>
        <time>2020-08-26T13:06:56.859Z</time>
      </trkpt>
      <trkpt lat="69.68815" lon="18.85518">
        <ele>40.677804</ele>
        <time>2020-08-26T13:07:00.853Z</time>
      </trkpt>
      <trkpt lat="69.6882" lon="18.8554">
        <ele>41.017283</ele>
        <time>2020-08-26T13:07:04.858Z</time>
      </trkpt>
      <trkpt lat="69.68827" lon="18.85563">
        <ele>41.399979</ele>
        <time>2020-08-26T13:07:09.861Z</time>
      </trkpt>
      <trkpt lat="69.68834" lon="18.85585">
        <ele>41.773369</ele>
        <time>2020-08-26T13:07:14.853Z</time>
      </trkpt>
      <trkpt lat="69.6884" lon="18.85604">
        <ele>41.842952</ele>
        <time>2020-08-26T13:07:18.890Z</time>
      </trkpt>
      <trkpt lat="69.68847" lon="18.85624">
        <ele>41.822436</ele>
        <time>2020-08-26T13:07:22.885Z</time>
      </trkpt>
      <trkpt lat="69.68856" lon="18.8564">
        <ele>41.798929</ele>
        <time>2020-08-26T13:07:27.868Z</time>
      </trkpt>
      <trkpt lat="69.68864" lon="18.85659">
        <ele>41.776816</ele>
        <time>2020-08-26T13:07:32.863Z</time>
      </trkpt>
      <trkpt lat="69.68869" lon="18.85688">
        <ele>41.753416</ele>
        <time>2020-08-26T13:07:37.875Z</time>
      </trkpt>
      <trkpt lat="69.68873" lon="18.85714">
        <ele>41.732056</ele>
        <time>2020-08-26T13:07:40.846Z</time>
      </trkpt>
      <trkpt lat="69.68879" lon="18.8574">
        <ele>41.708952</ele>
        <time>2020-08-26T13:07:43.849Z</time>
      </trkpt>
      <trkpt lat="69.68886" lon="18.85762">
        <ele>41.68614</ele>
        <time>2020-08-26T13:07:46.857Z</time>
      </trkpt>
      <trkpt lat="69.68894" lon="18.85787">
        <ele>41.661105</ele>
        <time>2020-08-26T13:07:49.853Z</time>
      </trkpt>
      <trkpt lat="69.68903" lon="18.85812">
        <ele>41.635007</ele>
        <time>2020-08-26T13:07:52.872Z</time>
      </trkpt>
      <trkpt lat="69.68911" lon="18.85838">
        <ele>41.608793</ele>
        <time>2020-08-26T13:07:55.881Z</time>
      </trkpt>
      <trkpt lat="69.68919" lon="18.85867">
        <ele>41.580828</ele>
        <time>2020-08-26T13:07:58.865Z</time>
      </trkpt>
      <trkpt lat="69.68927" lon="18.85897">
        <ele>41.552728</ele>
        <time>2020-08-26T13:08:01.898Z</time>
      </trkpt>
      <trkpt lat="69.68934" lon="18.85919">
        <ele>41.531427</ele>
        <time>2020-08-26T13:08:03.867Z</time>
      </trkpt>
      <trkpt lat="69.6894" lon="18.85942">
        <ele>41.510067</ele>
        <time>2020-08-26T13:08:05.849Z</time>
      </trkpt>
      <trkpt lat="69.68946" lon="18.85965">
        <ele>41.488459</ele>
        <time>2020-08-26T13:08:07.852Z</time>
      </trkpt>
      <trkpt lat="69.68953" lon="18.85989">
        <ele>41.486915</ele>
        <time>2020-08-26T13:08:09.851Z</time>
      </trkpt>
      <trkpt lat="69.6896" lon="18.86013">
        <ele>41.527797</ele>
        <time>2020-08-26T13:08:11.852Z</time>
      </trkpt>
      <trkpt lat="69.68967" lon="18.86037">
        <ele>41.566797</ele>
        <time>2020-08-26T13:08:13.854Z</time>
      </trkpt>
      <trkpt lat="69.68974" lon="18.86061">
        <ele>41.60622</ele>
        <time>2020-08-26T13:08:15.889Z</time>
      </trkpt>
      <trkpt lat="69.68981" lon="18.86084">
        <ele>41.642887</ele>
        <time>2020-08-26T13:08:17.849Z</time>
      </trkpt>
      <trkpt lat="69.68986" lon="18.86106">
        <ele>41.677243</ele>
        <time>2020-08-26T13:08:19.902Z</time>
      </trkpt>
      <trkpt lat="69.68994" lon="18.86136">
        <ele>41.723535</ele>
        <time>2020-08-26T13:08:22.881Z</time>
      </trkpt>
      <trkpt lat="69.69002" lon="18.86164">
        <ele>41.768143</ele>
        <time>2020-08-26T13:08:25.856Z</time>
      </trkpt>
      <trkpt lat="69.69009" lon="18.86192">
        <ele>41.812284</ele>
        <time>2020-08-26T13:08:28.855Z</time>
      </trkpt>
      <trkpt lat="69.69018" lon="18.86218">
        <ele>41.857731</ele>
        <time>2020-08-26T13:08:31.898Z</time>
      </trkpt>
      <trkpt lat="69.69024" lon="18.8624">
        <ele>41.893361</ele>
        <time>2020-08-26T13:08:33.853Z</time>
      </trkpt>
      <trkpt lat="69.6903" lon="18.86263">
        <ele>41.929805</ele>
        <time>2020-08-26T13:08:35.871Z</time>
      </trkpt>
      <trkpt lat="69.69035" lon="18.86286">
        <ele>41.963578</ele>
        <time>2020-08-26T13:08:37.842Z</time>
      </trkpt>
      <trkpt lat="69.69041" lon="18.86309">
        <ele>41.999256</ele>
        <time>2020-08-26T13:08:39.832Z</time>
      </trkpt>
      <trkpt lat="69.69048" lon="18.86337">
        <ele>42.04162</ele>
        <time>2020-08-26T13:08:42.842Z</time>
      </trkpt>
      <trkpt lat="69.69056" lon="18.86358">
        <ele>42.08151</ele>
        <time>2020-08-26T13:08:46.865Z</time>
      </trkpt>
      <trkpt lat="69.69065" lon="18.86381">
        <ele>42.125186</ele>
        <time>2020-08-26T13:08:49.825Z</time>
      </trkpt>
      <trkpt lat="69.69074" lon="18.86406">
        <ele>42.180201</ele>
        <time>2020-08-26T13:08:53.191Z</time>
      </trkpt>
      <trkpt lat="69.69082" lon="18.86435">
        <ele>42.237718</ele>
        <time>2020-08-26T13:08:55.847Z</time>
      </trkpt>
      <trkpt lat="69.6909" lon="18.86459">
        <ele>42.28752</ele>
        <time>2020-08-26T13:08:58.864Z</time>
      </trkpt>
      <trkpt lat="69.69098" lon="18.8648">
        <ele>42.333611</ele>
        <time>2020-08-26T13:09:01.872Z</time>
      </trkpt>
      <trkpt lat="69.69105" lon="18.86505">
        <ele>42.382319</ele>
        <time>2020-08-26T13:09:04.843Z</time>
      </trkpt>
      <trkpt lat="69.69113" lon="18.86531">
        <ele>42.436192</ele>
        <time>2020-08-26T13:09:07.855Z</time>
      </trkpt>
      <trkpt lat="69.69121" lon="18.86557">
        <ele>42.486012</ele>
        <time>2020-08-26T13:09:10.860Z</time>
      </trkpt>
      <trkpt lat="69.69127" lon="18.86583">
        <ele>42.535315</ele>
        <time>2020-08-26T13:09:13.850Z</time>
      </trkpt>
      <trkpt lat="69.69133" lon="18.86608">
        <ele>42.582396</ele>
        <time>2020-08-26T13:09:16.856Z</time>
      </trkpt>
      <trkpt lat="69.6914" lon="18.86625">
        <ele>42.622138</ele>
        <time>2020-08-26T13:09:19.892Z</time>
      </trkpt>
      <trkpt lat="69.69149" lon="18.86632">
        <ele>42.663227</ele>
        <time>2020-08-26T13:09:23.916Z</time>
      </trkpt>
      <trkpt lat="69.69157" lon="18.86656">
        <ele>42.711367</ele>
        <time>2020-08-26T13:09:27.857Z</time>
      </trkpt>
      <trkpt lat="69.69161" lon="18.8668">
        <ele>42.751561</ele>
        <time>2020-08-26T13:09:30.865Z</time>
      </trkpt>
      <trkpt lat="69.69166" lon="18.86705">
        <ele>42.796894</ele>
        <time>2020-08-26T13:09:33.921Z</time>
      </trkpt>
      <trkpt lat="69.69171" lon="18.86734">
        <ele>42.844622</ele>
        <time>2020-08-26T13:09:36.882Z</time>
      </trkpt>
      <trkpt lat="69.69176" lon="18.86761">
        <ele>42.892771</ele>
        <time>2020-08-26T13:09:39.870Z</time>
      </trkpt>
      <trkpt lat="69.69182" lon="18.86785">
        <ele>42.899554</ele>
        <time>2020-08-26T13:09:42.850Z</time>
      </trkpt>
      <trkpt lat="69.69189" lon="18.86808">
        <ele>42.887878</ele>
        <time>2020-08-26T13:09:45.870Z</time>
      </trkpt>
      <trkpt lat="69.69195" lon="18.86831">
        <ele>42.876041</ele>
        <time>2020-08-26T13:09:48.858Z</time>
      </trkpt>
      <trkpt lat="69.69202" lon="18.86854">
        <ele>42.863974</ele>
        <time>2020-08-26T13:09:51.857Z</time>
      </trkpt>
      <trkpt lat="69.69209" lon="18.86873">
        <ele>42.853152</ele>
        <time>2020-08-26T13:09:54.855Z</time>
      </trkpt>
      <trkpt lat="69.69216" lon="18.86898">
        <ele>42.840013</ele>
        <time>2020-08-26T13:09:58.866Z</time>
      </trkpt>
      <trkpt lat="69.69224" lon="18.86922">
        <ele>42.826671</ele>
        <time>2020-08-26T13:10:02.886Z</time>
      </trkpt>
      <trkpt lat="69.69231" lon="18.86941">
        <ele>42.816095</ele>
        <time>2020-08-26T13:10:05.847Z</time>
      </trkpt>
      <trkpt lat="69.69236" lon="18.86962">
        <ele>42.805251</ele>
        <time>2020-08-26T13:10:08.852Z</time>
      </trkpt>
      <trkpt lat="69.69243" lon="18.86985">
        <ele>42.793364</ele>
        <time>2020-08-26T13:10:11.852Z</time>
      </trkpt>
      <trkpt lat="69.69251" lon="18.87009">
        <ele>42.780026</ele>
        <time>2020-08-26T13:10:14.886Z</time>
      </trkpt>
      <trkpt lat="69.69257" lon="18.8703">
        <ele>42.769555</ele>
        <time>2020-08-26T13:10:16.865Z</time>
      </trkpt>
      <trkpt lat="69.69263" lon="18.87052">
        <ele>42.758317</ele>
        <time>2020-08-26T13:10:18.873Z</time>
      </trkpt>
      <trkpt lat="69.6927" lon="18.87077">
        <ele>42.745476</ele>
        <time>2020-08-26T13:10:20.851Z</time>
      </trkpt>
      <trkpt lat="69.69278" lon="18.87106">
        <ele>42.730266</ele>
        <time>2020-08-26T13:10:22.873Z</time>
      </trkpt>
      <trkpt lat="69.69287" lon="18.87137">
        <ele>42.714271</ele>
        <time>2020-08-26T13:10:24.883Z</time>
      </trkpt>
      <trkpt lat="69.69297" lon="18.8717">
        <ele>42.623575</ele>
        <time>2020-08-26T13:10:26.845Z</time>
      </trkpt>
      <trkpt lat="69.69308" lon="18.87205">
        <ele>42.228909</ele>
        <time>2020-08-26T13:10:28.860Z</time>
      </trkpt>
      <trkpt lat="69.69318" lon="18.87242">
        <ele>41.845551</ele>
        <time>2020-08-26T13:10:30.855Z</time>
      </trkpt>
      <trkpt lat="69.69328" lon="18.87276">
        <ele>41.479027</ele>
        <time>2020-08-26T13:10:32.856Z</time>
      </trkpt>
      <trkpt lat="69.69337" lon="18.87309">
        <ele>41.130787</ele>
        <time>2020-08-26T13:10:34.859Z</time>
      </trkpt>
      <trkpt lat="69.69346" lon="18.87341">
        <ele>40.787278</ele>
        <time>2020-08-26T13:10:36.865Z</time>
      </trkpt>
      <trkpt lat="69.69355" lon="18.87372">
        <ele>40.453725</ele>
        <time>2020-08-26T13:10:38.854Z</time>
      </trkpt>
      <trkpt lat="69.69364" lon="18.87403">
        <ele>40.118383</ele>
        <time>2020-08-26T13:10:40.877Z</time>
      </trkpt>
      <trkpt lat="69.69372" lon="18.87435">
        <ele>39.788618</ele>
        <time>2020-08-26T13:10:42.853Z</time>
      </trkpt>
      <trkpt lat="69.69381" lon="18.87463">
        <ele>39.469688</ele>
        <time>2020-08-26T13:10:44.851Z</time>
      </trkpt>
      <trkpt lat="69.69389" lon="18.87489">
        <ele>39.175882</ele>
        <time>2020-08-26T13:10:46.855Z</time>
      </trkpt>
      <trkpt lat="69.69397" lon="18.87514">
        <ele>38.900896</ele>
        <time>2020-08-26T13:10:48.854Z</time>
      </trkpt>
      <trkpt lat="69.69405" lon="18.87538">
        <ele>38.633075</ele>
        <time>2020-08-26T13:10:50.848Z</time>
      </trkpt>
      <trkpt lat="69.69412" lon="18.87562">
        <ele>38.373914</ele>
        <time>2020-08-26T13:10:52.953Z</time>
      </trkpt>
      <trkpt lat="69.69419" lon="18.87586">
        <ele>38.16065</ele>
        <time>2020-08-26T13:10:54.870Z</time>
      </trkpt>
      <trkpt lat="69.69427" lon="18.87611">
        <ele>37.941084</ele>
        <time>2020-08-26T13:10:56.852Z</time>
      </trkpt>
      <trkpt lat="69.69434" lon="18.8764">
        <ele>37.705679</ele>
        <time>2020-08-26T13:10:58.871Z</time>
      </trkpt>
      <trkpt lat="69.69441" lon="18.87667">
        <ele>37.473436</ele>
        <time>2020-08-26T13:11:00.859Z</time>
      </trkpt>
      <trkpt lat="69.69449" lon="18.87692">
        <ele>37.240883</ele>
        <time>2020-08-26T13:11:02.855Z</time>
      </trkpt>
      <trkpt lat="69.69457" lon="18.87718">
        <ele>37.006416</ele>
        <time>2020-08-26T13:11:04.875Z</time>
      </trkpt>
      <trkpt lat="69.69465" lon="18.87744">
        <ele>36.778029</ele>
        <time>2020-08-26T13:11:06.864Z</time>
      </trkpt>
      <trkpt lat="69.69473" lon="18.8777">
        <ele>36.542267</ele>
        <time>2020-08-26T13:11:08.859Z</time>
      </trkpt>
      <trkpt lat="69.69482" lon="18.87796">
        <ele>36.29863</ele>
        <time>2020-08-26T13:11:10.871Z</time>
      </trkpt>
      <trkpt lat="69.6949" lon="18.87826">
        <ele>36.041329</ele>
        <time>2020-08-26T13:11:12.849Z</time>
      </trkpt>
      <trkpt lat="69.69498" lon="18.87856">
        <ele>35.784774</ele>
        <time>2020-08-26T13:11:14.842Z</time>
      </trkpt>
      <trkpt lat="69.69507" lon="18.87885">
        <ele>35.530047</ele>
        <time>2020-08-26T13:11:16.847Z</time>
      </trkpt>
      <trkpt lat="69.69515" lon="18.87914">
        <ele>35.279642</ele>
        <time>2020-08-26T13:11:18.856Z</time>
      </trkpt>
      <trkpt lat="69.69523" lon="18.87944">
        <ele>35.028253</ele>
        <time>2020-08-26T13:11:20.927Z</time>
      </trkpt>
      <trkpt lat="69.6953" lon="18.87975">
        <ele>35.083357</ele>
        <time>2020-08-26T13:11:22.865Z</time>
      </trkpt>
      <trkpt lat="69.69538" lon="18.88007">
        <ele>35.355255</ele>
        <time>2020-08-26T13:11:24.872Z</time>
      </trkpt>
      <trkpt lat="69.69545" lon="18.88039">
        <ele>35.62778</ele>
        <time>2020-08-26T13:11:26.867Z</time>
      </trkpt>
      <trkpt lat="69.69553" lon="18.88068">
        <ele>35.885334</ele>
        <time>2020-08-26T13:11:28.867Z</time>
      </trkpt>
      <trkpt lat="69.69562" lon="18.88089">
        <ele>36.123355</ele>
        <time>2020-08-26T13:11:30.873Z</time>
      </trkpt>
      <trkpt lat="69.69572" lon="18.88102">
        <ele>36.34721</ele>
        <time>2020-08-26T13:11:32.887Z</time>
      </trkpt>
      <trkpt lat="69.69581" lon="18.88127">
        <ele>36.591268</ele>
        <time>2020-08-26T13:11:34.861Z</time>
      </trkpt>
      <trkpt lat="69.69584" lon="18.88158">
        <ele>36.819826</ele>
        <time>2020-08-26T13:11:36.868Z</time>
      </trkpt>
      <trkpt lat="69.69587" lon="18.88184">
        <ele>37.014253</ele>
        <time>2020-08-26T13:11:38.850Z</time>
      </trkpt>
      <trkpt lat="69.69591" lon="18.88207">
        <ele>37.204057</ele>
        <time>2020-08-26T13:11:40.882Z</time>
      </trkpt>
      <trkpt lat="69.69599" lon="18.88237">
        <ele>37.46495</ele>
        <time>2020-08-26T13:11:43.866Z</time>
      </trkpt>
      <trkpt lat="69.69607" lon="18.88263">
        <ele>37.714097</ele>
        <time>2020-08-26T13:11:46.885Z</time>
      </trkpt>
      <trkpt lat="69.69615" lon="18.88286">
        <ele>37.943037</ele>
        <time>2020-08-26T13:11:49.862Z</time>
      </trkpt>
      <trkpt lat="69.69622" lon="18.88307">
        <ele>38.149794</ele>
        <time>2020-08-26T13:11:52.881Z</time>
      </trkpt>
      <trkpt lat="69.69629" lon="18.88331">
        <ele>38.363649</ele>
        <time>2020-08-26T13:11:55.890Z</time>
      </trkpt>
      <trkpt lat="69.69629" lon="18.88359">
        <ele>38.563435</ele>
        <time>2020-08-26T13:11:58.872Z</time>
      </trkpt>
      <trkpt lat="69.69628" lon="18.88387">
        <ele>38.608287</ele>
        <time>2020-08-26T13:12:01.851Z</time>
      </trkpt>
      <trkpt lat="69.6962" lon="18.88415">
        <ele>38.636642</ele>
        <time>2020-08-26T13:12:04.873Z</time>
      </trkpt>
      <trkpt lat="69.6961" lon="18.88413">
        <ele>38.659028</ele>
        <time>2020-08-26T13:12:06.877Z</time>
      </trkpt>
      <trkpt lat="69.69599" lon="18.88418">
        <ele>38.683023</ele>
        <time>2020-08-26T13:12:08.947Z</time>
      </trkpt>
      <trkpt lat="69.6959" lon="18.88445">
        <ele>38.71175</ele>
        <time>2020-08-26T13:12:10.846Z</time>
      </trkpt>
      <trkpt lat="69.69585" lon="18.8848">
        <ele>38.740936</ele>
        <time>2020-08-26T13:12:12.869Z</time>
      </trkpt>
      <trkpt lat="69.69582" lon="18.88519">
        <ele>38.77111</ele>
        <time>2020-08-26T13:12:14.877Z</time>
      </trkpt>
      <trkpt lat="69.69578" lon="18.88558">
        <ele>38.802191</ele>
        <time>2020-08-26T13:12:16.858Z</time>
      </trkpt>
      <trkpt lat="69.69574" lon="18.88597">
        <ele>38.83373</ele>
        <time>2020-08-26T13:12:18.862Z</time>
      </trkpt>
      <trkpt lat="69.69569" lon="18.88634">
        <ele>38.864497</ele>
        <time>2020-08-26T13:12:20.886Z</time>
      </trkpt>
      <trkpt lat="69.69562" lon="18.88665">
        <ele>38.892231</ele>
        <time>2020-08-26T13:12:22.879Z</time>
      </trkpt>
      <trkpt lat="69.69557" lon="18.88693">
        <ele>38.916746</ele>
        <time>2020-08-26T13:12:24.864Z</time>
      </trkpt>
      <trkpt lat="69.69553" lon="18.88719">
        <ele>38.938776</ele>
        <time>2020-08-26T13:12:26.858Z</time>
      </trkpt>
      <trkpt lat="69.69549" lon="18.88744">
        <ele>38.95935</ele>
        <time>2020-08-26T13:12:28.850Z</time>
      </trkpt>
      <trkpt lat="69.69545" lon="18.88776">
        <ele>38.985886</ele>
        <time>2020-08-26T13:12:31.859Z</time>
      </trkpt>
      <trkpt lat="69.69541" lon="18.888">
        <ele>39.591273</ele>
        <time>2020-08-26T13:12:34.849Z</time>
      </trkpt>
      <trkpt lat="69.69536" lon="18.88823">
        <ele>40.23697</ele>
        <time>2020-08-26T13:12:37.852Z</time>
      </trkpt>
      <trkpt lat="69.69531" lon="18.88853">
        <ele>41.04284</ele>
        <time>2020-08-26T13:12:41.859Z</time>
      </trkpt>
      <trkpt lat="69.69528" lon="18.88878">
        <ele>41.724536</ele>
        <time>2020-08-26T13:12:44.904Z</time>
      </trkpt>
      <trkpt lat="69.69524" lon="18.88905">
        <ele>42.441613</ele>
        <time>2020-08-26T13:12:48.871Z</time>
      </trkpt>
      <trkpt lat="69.69519" lon="18.8893">
        <ele>43.132683</ele>
        <time>2020-08-26T13:12:52.867Z</time>
      </trkpt>
      <trkpt lat="69.69515" lon="18.88954">
        <ele>43.776631</ele>
        <time>2020-08-26T13:12:56.844Z</time>
      </trkpt>
      <trkpt lat="69.69509" lon="18.88982">
        <ele>44.569299</ele>
        <time>2020-08-26T13:13:01.900Z</time>
      </trkpt>
      <trkpt lat="69.69505" lon="18.89007">
        <ele>45.253745</ele>
        <time>2020-08-26T13:13:05.849Z</time>
      </trkpt>
      <trkpt lat="69.695" lon="18.89034">
        <ele>45.99768</ele>
        <time>2020-08-26T13:13:10.874Z</time>
      </trkpt>
      <trkpt lat="69.69497" lon="18.89059">
        <ele>46.673234</ele>
        <time>2020-08-26T13:13:15.849Z</time>
      </trkpt>
      <trkpt lat="69.69491" lon="18.89083">
        <ele>47.359427</ele>
        <time>2020-08-26T13:13:20.861Z</time>
      </trkpt>
      <trkpt lat="69.69486" lon="18.89106">
        <ele>48.036409</ele>
        <time>2020-08-26T13:13:25.861Z</time>
      </trkpt>
      <trkpt lat="69.69481" lon="18.89129">
        <ele>48.694389</ele>
        <time>2020-08-26T13:13:30.899Z</time>
      </trkpt>
      <trkpt lat="69.69477" lon="18.89152">
        <ele>49.329952</ele>
        <time>2020-08-26T13:13:35.906Z</time>
      </trkpt>
      <trkpt lat="69.69473" lon="18.89176">
        <ele>49.995607</ele>
        <time>2020-08-26T13:13:40.896Z</time>
      </trkpt>
      <trkpt lat="69.69467" lon="18.89198">
        <ele>50.66194</ele>
        <time>2020-08-26T13:13:45.860Z</time>
      </trkpt>
      <trkpt lat="69.69462" lon="18.89221">
        <ele>51.345898</ele>
        <time>2020-08-26T13:13:51.876Z</time>
      </trkpt>
      <trkpt lat="69.69456" lon="18.89246">
        <ele>52.076355</ele>
        <time>2020-08-26T13:13:57.868Z</time>
      </trkpt>
      <trkpt lat="69.6945" lon="18.8927">
        <ele>52.780806</ele>
        <time>2020-08-26T13:14:03.861Z</time>
      </trkpt>
      <trkpt lat="69.69445" lon="18.89296">
        <ele>53.500342</ele>
        <time>2020-08-26T13:14:09.874Z</time>
      </trkpt>
      <trkpt lat="69.69438" lon="18.8932">
        <ele>54.256318</ele>
        <time>2020-08-26T13:14:15.869Z</time>
      </trkpt>
      <trkpt lat="69.69432" lon="18.89342">
        <ele>54.911455</ele>
        <time>2020-08-26T13:14:21.889Z</time>
      </trkpt>
      <trkpt lat="69.69427" lon="18.89365">
        <ele>55.559246</ele>
        <time>2020-08-26T13:14:27.848Z</time>
      </trkpt>
      <trkpt lat="69.6942" lon="18.89388">
        <ele>56.280425</ele>
        <time>2020-08-26T13:14:33.867Z</time>
      </trkpt>
      <trkpt lat="69.69415" lon="18.8941">
        <ele>56.945376</ele>
        <time>2020-08-26T13:14:39.866Z</time>
      </trkpt>
      <trkpt lat="69.69408" lon="18.89434">
        <ele>57.680276</ele>
        <time>2020-08-26T13:14:45.892Z</time>
      </trkpt>
      <trkpt lat="69.69401" lon="18.89455">
        <ele>58.385406</ele>
        <time>2020-08-26T13:14:51.887Z</time>
      </trkpt>
      <trkpt lat="69.69394" lon="18.89476">
        <ele>59.090887</ele>
        <time>2020-08-26T13:14:57.846Z</time>
      </trkpt>
      <trkpt lat="69.69387" lon="18.89497">
        <ele>59.776735</ele>
        <time>2020-08-26T13:15:03.880Z</time>
      </trkpt>
      <trkpt lat="69.6938" lon="18.89519">
        <ele>60.518922</ele>
        <time>2020-08-26T13:15:09.852Z</time>
      </trkpt>
      <trkpt lat="69.69373" lon="18.8954">
        <ele>61.220033</ele>
        <time>2020-08-26T13:15:15.874Z</time>
      </trkpt>
      <trkpt lat="69.69366" lon="18.89561">
        <ele>61.888586</ele>
        <time>2020-08-26T13:15:22.849Z</time>
      </trkpt>
      <trkpt lat="69.6936" lon="18.89581">
        <ele>62.550238</ele>
        <time>2020-08-26T13:15:28.852Z</time>
      </trkpt>
      <trkpt lat="69.69353" lon="18.89598">
        <ele>63.192367</ele>
        <time>2020-08-26T13:15:34.858Z</time>
      </trkpt>
      <trkpt lat="69.69346" lon="18.89619">
        <ele>63.881758</ele>
        <time>2020-08-26T13:15:40.876Z</time>
      </trkpt>
      <trkpt lat="69.69339" lon="18.89637">
        <ele>64.52201</ele>
        <time>2020-08-26T13:15:45.845Z</time>
      </trkpt>
      <trkpt lat="69.69333" lon="18.89656">
        <ele>65.185639</ele>
        <time>2020-08-26T13:15:50.875Z</time>
      </trkpt>
      <trkpt lat="69.69326" lon="18.89675">
        <ele>65.871529</ele>
        <time>2020-08-26T13:15:57.872Z</time>
      </trkpt>
      <trkpt lat="69.69318" lon="18.89693">
        <ele>66.582665</ele>
        <time>2020-08-26T13:16:04.850Z</time>
      </trkpt>
      <trkpt lat="69.69311" lon="18.89712">
        <ele>67.310687</ele>
        <time>2020-08-26T13:16:11.860Z</time>
      </trkpt>
      <trkpt lat="69.69303" lon="18.89734">
        <ele>68.070987</ele>
        <time>2020-08-26T13:16:17.854Z</time>
      </trkpt>
      <trkpt lat="69.69296" lon="18.89751">
        <ele>68.729649</ele>
        <time>2020-08-26T13:16:23.884Z</time>
      </trkpt>
      <trkpt lat="69.69289" lon="18.8977">
        <ele>69.43112</ele>
        <time>2020-08-26T13:16:29.882Z</time>
      </trkpt>
      <trkpt lat="69.69281" lon="18.8979">
        <ele>70.178175</ele>
        <time>2020-08-26T13:16:35.853Z</time>
      </trkpt>
      <trkpt lat="69.69274" lon="18.89809">
        <ele>70.890484</ele>
        <time>2020-08-26T13:16:41.861Z</time>
      </trkpt>
      <trkpt lat="69.69267" lon="18.89826">
        <ele>71.560326</ele>
        <time>2020-08-26T13:16:47.847Z</time>
      </trkpt>
      <trkpt lat="69.6926" lon="18.89843">
        <ele>72.225347</ele>
        <time>2020-08-26T13:16:53.859Z</time>
      </trkpt>
      <trkpt lat="69.69253" lon="18.8986">
        <ele>72.872146</ele>
        <time>2020-08-26T13:16:59.894Z</time>
      </trkpt>
      <trkpt lat="69.69246" lon="18.89877">
        <ele>73.537722</ele>
        <time>2020-08-26T13:17:04.871Z</time>
      </trkpt>
      <trkpt lat="69.69238" lon="18.89898">
        <ele>74.2893</ele>
        <time>2020-08-26T13:17:11.866Z</time>
      </trkpt>
      <trkpt lat="69.69231" lon="18.89917">
        <ele>74.966638</ele>
        <time>2020-08-26T13:17:17.853Z</time>
      </trkpt>
      <trkpt lat="69.69224" lon="18.89934">
        <ele>75.648345</ele>
        <time>2020-08-26T13:17:21.856Z</time>
      </trkpt>
      <trkpt lat="69.69217" lon="18.89955">
        <ele>76.359814</ele>
        <time>2020-08-26T13:17:27.865Z</time>
      </trkpt>
      <trkpt lat="69.6921" lon="18.89975">
        <ele>77.055587</ele>
        <time>2020-08-26T13:17:34.887Z</time>
      </trkpt>
      <trkpt lat="69.69203" lon="18.89996">
        <ele>77.146771</ele>
        <time>2020-08-26T13:17:41.855Z</time>
      </trkpt>
      <trkpt lat="69.69197" lon="18.90015">
        <ele>77.230355</ele>
        <time>2020-08-26T13:17:47.851Z</time>
      </trkpt>
      <trkpt lat="69.69189" lon="18.90034">
        <ele>77.319401</ele>
        <time>2020-08-26T13:17:52.876Z</time>
      </trkpt>
      <trkpt lat="69.69181" lon="18.90053">
        <ele>77.414819</ele>
        <time>2020-08-26T13:17:58.853Z</time>
      </trkpt>
      <trkpt lat="69.69173" lon="18.90073">
        <ele>77.511046</ele>
        <time>2020-08-26T13:18:03.866Z</time>
      </trkpt>
      <trkpt lat="69.69166" lon="18.9009">
        <ele>77.595102</ele>
        <time>2020-08-26T13:18:07.867Z</time>
      </trkpt>
      <trkpt lat="69.69158" lon="18.9011">
        <ele>77.685948</ele>
        <time>2020-08-26T13:18:11.918Z</time>
      </trkpt>
      <trkpt lat="69.6915" lon="18.90134">
        <ele>77.793309</ele>
        <time>2020-08-26T13:18:15.856Z</time>
      </trkpt>
      <trkpt lat="69.69142" lon="18.90154">
        <ele>77.885477</ele>
        <time>2020-08-26T13:18:18.848Z</time>
      </trkpt>
      <trkpt lat="69.69135" lon="18.90172">
        <ele>77.976512</ele>
        <time>2020-08-26T13:18:21.864Z</time>
      </trkpt>
      <trkpt lat="69.69128" lon="18.9019">
        <ele>78.060026</ele>
        <time>2020-08-26T13:18:24.873Z</time>
      </trkpt>
      <trkpt lat="69.6912" lon="18.90213">
        <ele>78.163052</ele>
        <time>2020-08-26T13:18:27.860Z</time>
      </trkpt>
      <trkpt lat="69.69113" lon="18.90231">
        <ele>78.248752</ele>
        <time>2020-08-26T13:18:29.854Z</time>
      </trkpt>
      <trkpt lat="69.69105" lon="18.90252">
        <ele>78.344616</ele>
        <time>2020-08-26T13:18:31.851Z</time>
      </trkpt>
      <trkpt lat="69.69096" lon="18.90276">
        <ele>78.454414</ele>
        <time>2020-08-26T13:18:33.858Z</time>
      </trkpt>
      <trkpt lat="69.69086" lon="18.90302">
        <ele>78.57572</ele>
        <time>2020-08-26T13:18:35.831Z</time>
      </trkpt>
      <trkpt lat="69.69075" lon="18.9033">
        <ele>78.436756</ele>
        <time>2020-08-26T13:18:37.907Z</time>
      </trkpt>
      <trkpt lat="69.69064" lon="18.90358">
        <ele>77.40123</ele>
        <time>2020-08-26T13:18:39.865Z</time>
      </trkpt>
      <trkpt lat="69.69054" lon="18.90385">
        <ele>76.434575</ele>
        <time>2020-08-26T13:18:41.857Z</time>
      </trkpt>
      <trkpt lat="69.69044" lon="18.90412">
        <ele>75.457714</ele>
        <time>2020-08-26T13:18:43.899Z</time>
      </trkpt>
      <trkpt lat="69.69035" lon="18.90437">
        <ele>74.558113</ele>
        <time>2020-08-26T13:18:45.855Z</time>
      </trkpt>
      <trkpt lat="69.69025" lon="18.90463">
        <ele>73.58065</ele>
        <time>2020-08-26T13:18:47.861Z</time>
      </trkpt>
      <trkpt lat="69.69015" lon="18.90489">
        <ele>72.625735</ele>
        <time>2020-08-26T13:18:49.855Z</time>
      </trkpt>
      <trkpt lat="69.69005" lon="18.90514">
        <ele>71.686082</ele>
        <time>2020-08-26T13:18:51.873Z</time>
      </trkpt>
      <trkpt lat="69.68995" lon="18.90541">
        <ele>70.699559</ele>
        <time>2020-08-26T13:18:53.847Z</time>
      </trkpt>
      <trkpt lat="69.68985" lon="18.90566">
        <ele>69.730309</ele>
        <time>2020-08-26T13:18:55.854Z</time>
      </trkpt>
      <trkpt lat="69.68974" lon="18.90592">
        <ele>68.737122</ele>
        <time>2020-08-26T13:18:57.855Z</time>
      </trkpt>
      <trkpt lat="69.68963" lon="18.90618">
        <ele>67.7321</ele>
        <time>2020-08-26T13:18:59.858Z</time>
      </trkpt>
      <trkpt lat="69.68951" lon="18.90646">
        <ele>66.632519</ele>
        <time>2020-08-26T13:19:01.900Z</time>
      </trkpt>
      <trkpt lat="69.68938" lon="18.90674">
        <ele>65.363993</ele>
        <time>2020-08-26T13:19:03.853Z</time>
      </trkpt>
      <trkpt lat="69.68926" lon="18.90699">
        <ele>63.962175</ele>
        <time>2020-08-26T13:19:05.877Z</time>
      </trkpt>
      <trkpt lat="69.68914" lon="18.90723">
        <ele>62.604154</ele>
        <time>2020-08-26T13:19:07.898Z</time>
      </trkpt>
      <trkpt lat="69.68902" lon="18.90744">
        <ele>61.316755</ele>
        <time>2020-08-26T13:19:09.857Z</time>
      </trkpt>
      <trkpt lat="69.6889" lon="18.90762">
        <ele>60.106365</ele>
        <time>2020-08-26T13:19:11.862Z</time>
      </trkpt>
      <trkpt lat="69.68879" lon="18.90777">
        <ele>59.014228</ele>
        <time>2020-08-26T13:19:13.856Z</time>
      </trkpt>
      <trkpt lat="69.68868" lon="18.90793">
        <ele>57.854325</ele>
        <time>2020-08-26T13:19:15.853Z</time>
      </trkpt>
      <trkpt lat="69.68855" lon="18.90808">
        <ele>56.54758</ele>
        <time>2020-08-26T13:19:17.877Z</time>
      </trkpt>
      <trkpt lat="69.68842" lon="18.90822">
        <ele>55.31925</ele>
        <time>2020-08-26T13:19:19.856Z</time>
      </trkpt>
      <trkpt lat="69.6883" lon="18.90833">
        <ele>54.156607</ele>
        <time>2020-08-26T13:19:21.863Z</time>
      </trkpt>
      <trkpt lat="69.68817" lon="18.90845">
        <ele>52.853334</ele>
        <time>2020-08-26T13:19:23.864Z</time>
      </trkpt>
      <trkpt lat="69.68803" lon="18.90856">
        <ele>51.54471</ele>
        <time>2020-08-26T13:19:25.850Z</time>
      </trkpt>
      <trkpt lat="69.68789" lon="18.90865">
        <ele>50.23768</ele>
        <time>2020-08-26T13:19:27.876Z</time>
      </trkpt>
      <trkpt lat="69.68776" lon="18.90873">
        <ele>49.060061</ele>
        <time>2020-08-26T13:19:29.864Z</time>
      </trkpt>
      <trkpt lat="69.68761" lon="18.9088">
        <ele>48.145664</ele>
        <time>2020-08-26T13:19:31.853Z</time>
      </trkpt>
      <trkpt lat="69.68746" lon="18.90886">
        <ele>47.225458</ele>
        <time>2020-08-26T13:19:33.852Z</time>
      </trkpt>
      <trkpt lat="69.68731" lon="18.9089">
        <ele>46.331855</ele>
        <time>2020-08-26T13:19:35.871Z</time>
      </trkpt>
      <trkpt lat="69.68717" lon="18.90898">
        <ele>45.433146</ele>
        <time>2020-08-26T13:19:37.872Z</time>
      </trkpt>
      <trkpt lat="69.68701" lon="18.90908">
        <ele>44.466232</ele>
        <time>2020-08-26T13:19:39.881Z</time>
      </trkpt>
      <trkpt lat="69.68685" lon="18.90911">
        <ele>43.50248</ele>
        <time>2020-08-26T13:19:41.897Z</time>
      </trkpt>
      <trkpt lat="69.6867" lon="18.90909">
        <ele>42.55161</ele>
        <time>2020-08-26T13:19:43.866Z</time>
      </trkpt>
      <trkpt lat="69.68654" lon="18.90903">
        <ele>41.605904</ele>
        <time>2020-08-26T13:19:45.865Z</time>
      </trkpt>
      <trkpt lat="69.68639" lon="18.90896">
        <ele>40.658746</ele>
        <time>2020-08-26T13:19:47.877Z</time>
      </trkpt>
      <trkpt lat="69.68624" lon="18.9089">
        <ele>39.7531</ele>
        <time>2020-08-26T13:19:49.859Z</time>
      </trkpt>
      <trkpt lat="69.6861" lon="18.90883">
        <ele>38.899377</ele>
        <time>2020-08-26T13:19:51.854Z</time>
      </trkpt>
      <trkpt lat="69.68598" lon="18.90874">
        <ele>38.329226</ele>
        <time>2020-08-26T13:19:53.859Z</time>
      </trkpt>
      <trkpt lat="69.68585" lon="18.90868">
        <ele>38.310939</ele>
        <time>2020-08-26T13:19:55.872Z</time>
      </trkpt>
      <trkpt lat="69.68574" lon="18.9086">
        <ele>38.294031</ele>
        <time>2020-08-26T13:19:57.868Z</time>
      </trkpt>
      <trkpt lat="69.68564" lon="18.90851">
        <ele>38.278027</ele>
        <time>2020-08-26T13:19:59.898Z</time>
      </trkpt>
      <trkpt lat="69.68554" lon="18.90842">
        <ele>38.263236</ele>
        <time>2020-08-26T13:20:01.878Z</time>
      </trkpt>
      <trkpt lat="69.68545" lon="18.90834">
        <ele>38.248619</ele>
        <time>2020-08-26T13:20:03.874Z</time>
      </trkpt>
      <trkpt lat="69.68532" lon="18.90821">
        <ele>38.229067</ele>
        <time>2020-08-26T13:20:06.856Z</time>
      </trkpt>
      <trkpt lat="69.6852" lon="18.90807">
        <ele>38.210154</ele>
        <time>2020-08-26T13:20:09.871Z</time>
      </trkpt>
      <trkpt lat="69.68508" lon="18.90792">
        <ele>38.19027</ele>
        <time>2020-08-26T13:20:12.852Z</time>
      </trkpt>
      <trkpt lat="69.68499" lon="18.9078">
        <ele>38.176264</ele>
        <time>2020-08-26T13:20:14.872Z</time>
      </trkpt>
      <trkpt lat="69.68491" lon="18.90767">
        <ele>38.161963</ele>
        <time>2020-08-26T13:20:16.895Z</time>
      </trkpt>
      <trkpt lat="69.68482" lon="18.90754">
        <ele>38.147946</ele>
        <time>2020-08-26T13:20:18.894Z</time>
      </trkpt>
      <trkpt lat="69.68474" lon="18.90741">
        <ele>38.133752</ele>
        <time>2020-08-26T13:20:20.877Z</time>
      </trkpt>
      <trkpt lat="69.68465" lon="18.90727">
        <ele>38.119459</ele>
        <time>2020-08-26T13:20:22.852Z</time>
      </trkpt>
      <trkpt lat="69.68457" lon="18.90713">
        <ele>38.104838</ele>
        <time>2020-08-26T13:20:24.853Z</time>
      </trkpt>
      <trkpt lat="69.68448" lon="18.90699">
        <ele>38.090216</ele>
        <time>2020-08-26T13:20:26.879Z</time>
      </trkpt>
      <trkpt lat="69.6844" lon="18.90684">
        <ele>38.07577</ele>
        <time>2020-08-26T13:20:28.879Z</time>
      </trkpt>
      <trkpt lat="69.68431" lon="18.90669">
        <ele>37.961351</ele>
        <time>2020-08-26T13:20:30.853Z</time>
      </trkpt>
      <trkpt lat="69.68423" lon="18.90653">
        <ele>37.782045</ele>
        <time>2020-08-26T13:20:32.877Z</time>
      </trkpt>
      <trkpt lat="69.68415" lon="18.90638">
        <ele>37.618897</ele>
        <time>2020-08-26T13:20:34.867Z</time>
      </trkpt>
      <trkpt lat="69.68407" lon="18.9062">
        <ele>37.434433</ele>
        <time>2020-08-26T13:20:37.848Z</time>
      </trkpt>
      <trkpt lat="69.68399" lon="18.90604">
        <ele>37.255272</ele>
        <time>2020-08-26T13:20:40.869Z</time>
      </trkpt>
      <trkpt lat="69.68388" lon="18.90586">
        <ele>37.038458</ele>
        <time>2020-08-26T13:20:43.934Z</time>
      </trkpt>
      <trkpt lat="69.68376" lon="18.90568">
        <ele>36.795159</ele>
        <time>2020-08-26T13:20:46.857Z</time>
      </trkpt>
      <trkpt lat="69.68367" lon="18.90556">
        <ele>36.615799</ele>
        <time>2020-08-26T13:20:48.871Z</time>
      </trkpt>
      <trkpt lat="69.68358" lon="18.90541">
        <ele>36.438131</ele>
        <time>2020-08-26T13:20:50.861Z</time>
      </trkpt>
      <trkpt lat="69.6835" lon="18.90525">
        <ele>36.26364</ele>
        <time>2020-08-26T13:20:52.910Z</time>
      </trkpt>
      <trkpt lat="69.68343" lon="18.90507">
        <ele>36.089372</ele>
        <time>2020-08-26T13:20:54.877Z</time>
      </trkpt>
      <trkpt lat="69.68335" lon="18.90488">
        <ele>35.911403</ele>
        <time>2020-08-26T13:20:56.873Z</time>
      </trkpt>
      <trkpt lat="69.68329" lon="18.90466">
        <ele>35.737817</ele>
        <time>2020-08-26T13:20:58.853Z</time>
      </trkpt>
      <trkpt lat="69.68323" lon="18.90442">
        <ele>35.553333</ele>
        <time>2020-08-26T13:21:00.848Z</time>
      </trkpt>
      <trkpt lat="69.68316" lon="18.90418">
        <ele>35.359431</ele>
        <time>2020-08-26T13:21:02.896Z</time>
      </trkpt>
      <trkpt lat="69.68309" lon="18.90395">
        <ele>35.17512</ele>
        <time>2020-08-26T13:21:04.852Z</time>
      </trkpt>
      <trkpt lat="69.68303" lon="18.90373">
        <ele>34.993429</ele>
        <time>2020-08-26T13:21:06.876Z</time>
      </trkpt>
      <trkpt lat="69.68295" lon="18.90351">
        <ele>34.827403</ele>
        <time>2020-08-26T13:21:08.860Z</time>
      </trkpt>
      <trkpt lat="69.68287" lon="18.9033">
        <ele>34.709309</ele>
        <time>2020-08-26T13:21:10.875Z</time>
      </trkpt>
      <trkpt lat="69.68277" lon="18.90311">
        <ele>34.587834</ele>
        <time>2020-08-26T13:21:12.859Z</time>
      </trkpt>
      <trkpt lat="69.68268" lon="18.90293">
        <ele>34.467151</ele>
        <time>2020-08-26T13:21:14.848Z</time>
      </trkpt>
      <trkpt lat="69.68259" lon="18.90277">
        <ele>34.348704</ele>
        <time>2020-08-26T13:21:16.871Z</time>
      </trkpt>
      <trkpt lat="69.6825" lon="18.90261">
        <ele>34.233135</ele>
        <time>2020-08-26T13:21:18.878Z</time>
      </trkpt>
      <trkpt lat="69.6824" lon="18.90249">
        <ele>34.117664</ele>
        <time>2020-08-26T13:21:20.860Z</time>
      </trkpt>
      <trkpt lat="69.6823" lon="18.90238">
        <ele>34.005132</ele>
        <time>2020-08-26T13:21:22.870Z</time>
      </trkpt>
      <trkpt lat="69.6822" lon="18.90228">
        <ele>33.893379</ele>
        <time>2020-08-26T13:21:24.859Z</time>
      </trkpt>
      <trkpt lat="69.6821" lon="18.90219">
        <ele>33.776122</ele>
        <time>2020-08-26T13:21:26.887Z</time>
      </trkpt>
      <trkpt lat="69.682" lon="18.9021">
        <ele>33.659572</ele>
        <time>2020-08-26T13:21:28.861Z</time>
      </trkpt>
      <trkpt lat="69.6819" lon="18.90202">
        <ele>33.546262</ele>
        <time>2020-08-26T13:21:30.881Z</time>
      </trkpt>
      <trkpt lat="69.68179" lon="18.90196">
        <ele>33.425334</ele>
        <time>2020-08-26T13:21:32.867Z</time>
      </trkpt>
      <trkpt lat="69.68168" lon="18.90189">
        <ele>33.308126</ele>
        <time>2020-08-26T13:21:34.887Z</time>
      </trkpt>
      <trkpt lat="69.68159" lon="18.90183">
        <ele>33.203558</ele>
        <time>2020-08-26T13:21:36.890Z</time>
      </trkpt>
      <trkpt lat="69.68149" lon="18.90175">
        <ele>33.093967</ele>
        <time>2020-08-26T13:21:38.867Z</time>
      </trkpt>
      <trkpt lat="69.68138" lon="18.90169">
        <ele>32.980468</ele>
        <time>2020-08-26T13:21:40.856Z</time>
      </trkpt>
      <trkpt lat="69.68129" lon="18.90164">
        <ele>32.961169</ele>
        <time>2020-08-26T13:21:42.854Z</time>
      </trkpt>
      <trkpt lat="69.68119" lon="18.90157">
        <ele>33.032042</ele>
        <time>2020-08-26T13:21:44.852Z</time>
      </trkpt>
      <trkpt lat="69.68109" lon="18.9015">
        <ele>33.103648</ele>
        <time>2020-08-26T13:21:46.849Z</time>
      </trkpt>
      <trkpt lat="69.68098" lon="18.90143">
        <ele>33.177166</ele>
        <time>2020-08-26T13:21:48.863Z</time>
      </trkpt>
      <trkpt lat="69.68088" lon="18.90135">
        <ele>33.252934</ele>
        <time>2020-08-26T13:21:50.866Z</time>
      </trkpt>
      <trkpt lat="69.68078" lon="18.90128">
        <ele>33.326397</ele>
        <time>2020-08-26T13:21:52.878Z</time>
      </trkpt>
      <trkpt lat="69.68067" lon="18.90122">
        <ele>33.400377</ele>
        <time>2020-08-26T13:21:54.849Z</time>
      </trkpt>
      <trkpt lat="69.68057" lon="18.90116">
        <ele>33.472697</ele>
        <time>2020-08-26T13:21:56.856Z</time>
      </trkpt>
      <trkpt lat="69.68047" lon="18.9011">
        <ele>33.54201</ele>
        <time>2020-08-26T13:21:58.856Z</time>
      </trkpt>
      <trkpt lat="69.68037" lon="18.90105">
        <ele>33.613462</ele>
        <time>2020-08-26T13:22:00.867Z</time>
      </trkpt>
      <trkpt lat="69.68027" lon="18.90099">
        <ele>33.683692</ele>
        <time>2020-08-26T13:22:02.858Z</time>
      </trkpt>
      <trkpt lat="69.68017" lon="18.90093">
        <ele>33.753193</ele>
        <time>2020-08-26T13:22:04.857Z</time>
      </trkpt>
      <trkpt lat="69.68007" lon="18.90089">
        <ele>33.823172</ele>
        <time>2020-08-26T13:22:06.871Z</time>
      </trkpt>
      <trkpt lat="69.67997" lon="18.90088">
        <ele>33.894178</ele>
        <time>2020-08-26T13:22:08.857Z</time>
      </trkpt>
      <trkpt lat="69.67987" lon="18.90088">
        <ele>33.961577</ele>
        <time>2020-08-26T13:22:10.890Z</time>
      </trkpt>
      <trkpt lat="69.67977" lon="18.90089">
        <ele>34.03179</ele>
        <time>2020-08-26T13:22:12.868Z</time>
      </trkpt>
      <trkpt lat="69.67967" lon="18.90092">
        <ele>34.101609</ele>
        <time>2020-08-26T13:22:14.852Z</time>
      </trkpt>
      <trkpt lat="69.67958" lon="18.90097">
        <ele>34.170547</ele>
        <time>2020-08-26T13:22:16.867Z</time>
      </trkpt>
      <trkpt lat="69.67948" lon="18.90102">
        <ele>34.203275</ele>
        <time>2020-08-26T13:22:18.872Z</time>
      </trkpt>
      <trkpt lat="69.67938" lon="18.90108">
        <ele>34.232432</ele>
        <time>2020-08-26T13:22:20.857Z</time>
      </trkpt>
      <trkpt lat="69.67928" lon="18.90116">
        <ele>34.262561</ele>
        <time>2020-08-26T13:22:22.866Z</time>
      </trkpt>
      <trkpt lat="69.67919" lon="18.90127">
        <ele>34.29153</ele>
        <time>2020-08-26T13:22:24.854Z</time>
      </trkpt>
      <trkpt lat="69.67911" lon="18.9014">
        <ele>34.317739</ele>
        <time>2020-08-26T13:22:26.875Z</time>
      </trkpt>
      <trkpt lat="69.67902" lon="18.90164">
        <ele>34.352017</ele>
        <time>2020-08-26T13:22:29.862Z</time>
      </trkpt>
      <trkpt lat="69.67895" lon="18.90192">
        <ele>34.387889</ele>
        <time>2020-08-26T13:22:32.872Z</time>
      </trkpt>
      <trkpt lat="69.67887" lon="18.90219">
        <ele>34.423197</ele>
        <time>2020-08-26T13:22:35.866Z</time>
      </trkpt>
      <trkpt lat="69.67877" lon="18.90235">
        <ele>34.456115</ele>
        <time>2020-08-26T13:22:38.871Z</time>
      </trkpt>
      <trkpt lat="69.67865" lon="18.90248">
        <ele>34.494355</ele>
        <time>2020-08-26T13:22:41.864Z</time>
      </trkpt>
      <trkpt lat="69.67856" lon="18.90252">
        <ele>34.520885</ele>
        <time>2020-08-26T13:22:43.878Z</time>
      </trkpt>
      <trkpt lat="69.67847" lon="18.90255">
        <ele>34.5481</ele>
        <time>2020-08-26T13:22:45.880Z</time>
      </trkpt>
      <trkpt lat="69.67837" lon="18.90259">
        <ele>34.575157</ele>
        <time>2020-08-26T13:22:47.849Z</time>
      </trkpt>
      <trkpt lat="69.67828" lon="18.90264">
        <ele>34.602098</ele>
        <time>2020-08-26T13:22:49.850Z</time>
      </trkpt>
      <trkpt lat="69.67815" lon="18.90272">
        <ele>34.641063</ele>
        <time>2020-08-26T13:22:52.868Z</time>
      </trkpt>
      <trkpt lat="69.67803" lon="18.90284">
        <ele>34.677194</ele>
        <time>2020-08-26T13:22:55.859Z</time>
      </trkpt>
      <trkpt lat="69.67791" lon="18.90296">
        <ele>34.704297</ele>
        <time>2020-08-26T13:22:58.857Z</time>
      </trkpt>
      <trkpt lat="69.67783" lon="18.90305">
        <ele>34.712881</ele>
        <time>2020-08-26T13:23:00.862Z</time>
      </trkpt>
      <trkpt lat="69.6777" lon="18.9032">
        <ele>34.725787</ele>
        <time>2020-08-26T13:23:03.862Z</time>
      </trkpt>
      <trkpt lat="69.67762" lon="18.90331">
        <ele>34.734418</ele>
        <time>2020-08-26T13:23:05.878Z</time>
      </trkpt>
      <trkpt lat="69.67754" lon="18.90342">
        <ele>34.743162</ele>
        <time>2020-08-26T13:23:07.877Z</time>
      </trkpt>
      <trkpt lat="69.67745" lon="18.90354">
        <ele>34.752585</ele>
        <time>2020-08-26T13:23:09.862Z</time>
      </trkpt>
      <trkpt lat="69.67736" lon="18.90366">
        <ele>34.762196</ele>
        <time>2020-08-26T13:23:11.897Z</time>
      </trkpt>
      <trkpt lat="69.67727" lon="18.90378">
        <ele>34.771591</ele>
        <time>2020-08-26T13:23:13.849Z</time>
      </trkpt>
      <trkpt lat="69.67719" lon="18.90389">
        <ele>34.780638</ele>
        <time>2020-08-26T13:23:15.874Z</time>
      </trkpt>
      <trkpt lat="69.6771" lon="18.90402">
        <ele>34.789829</ele>
        <time>2020-08-26T13:23:17.868Z</time>
      </trkpt>
      <trkpt lat="69.67701" lon="18.90415">
        <ele>34.799358</ele>
        <time>2020-08-26T13:23:19.869Z</time>
      </trkpt>
      <trkpt lat="69.67692" lon="18.90427">
        <ele>34.808795</ele>
        <time>2020-08-26T13:23:21.861Z</time>
      </trkpt>
      <trkpt lat="69.67684" lon="18.90441">
        <ele>34.818016</ele>
        <time>2020-08-26T13:23:23.873Z</time>
      </trkpt>
      <trkpt lat="69.67675" lon="18.90454">
        <ele>34.827707</ele>
        <time>2020-08-26T13:23:25.876Z</time>
      </trkpt>
      <trkpt lat="69.67666" lon="18.90468">
        <ele>34.837955</ele>
        <time>2020-08-26T13:23:27.890Z</time>
      </trkpt>
      <trkpt lat="69.67656" lon="18.90484">
        <ele>34.848424</ele>
        <time>2020-08-26T13:23:29.860Z</time>
      </trkpt>
      <trkpt lat="69.67647" lon="18.905">
        <ele>34.858943</ele>
        <time>2020-08-26T13:23:31.861Z</time>
      </trkpt>
      <trkpt lat="69.67637" lon="18.90516">
        <ele>34.869528</ele>
        <time>2020-08-26T13:23:33.848Z</time>
      </trkpt>
      <trkpt lat="69.67628" lon="18.90532">
        <ele>34.887186</ele>
        <time>2020-08-26T13:23:35.865Z</time>
      </trkpt>
      <trkpt lat="69.67619" lon="18.90548">
        <ele>34.906072</ele>
        <time>2020-08-26T13:23:37.906Z</time>
      </trkpt>
      <trkpt lat="69.6761" lon="18.90562">
        <ele>34.924206</ele>
        <time>2020-08-26T13:23:39.850Z</time>
      </trkpt>
      <trkpt lat="69.67601" lon="18.90577">
        <ele>34.942154</ele>
        <time>2020-08-26T13:23:41.878Z</time>
      </trkpt>
      <trkpt lat="69.67593" lon="18.90591">
        <ele>34.960071</ele>
        <time>2020-08-26T13:23:43.874Z</time>
      </trkpt>
      <trkpt lat="69.67584" lon="18.90605">
        <ele>34.977678</ele>
        <time>2020-08-26T13:23:45.872Z</time>
      </trkpt>
      <trkpt lat="69.67576" lon="18.90619">
        <ele>34.995348</ele>
        <time>2020-08-26T13:23:47.879Z</time>
      </trkpt>
      <trkpt lat="69.67567" lon="18.90633">
        <ele>35.013144</ele>
        <time>2020-08-26T13:23:49.858Z</time>
      </trkpt>
      <trkpt lat="69.67558" lon="18.90647">
        <ele>35.031505</ele>
        <time>2020-08-26T13:23:51.881Z</time>
      </trkpt>
      <trkpt lat="69.67549" lon="18.90658">
        <ele>35.049017</ele>
        <time>2020-08-26T13:23:53.889Z</time>
      </trkpt>
      <trkpt lat="69.6754" lon="18.90669">
        <ele>35.066175</ele>
        <time>2020-08-26T13:23:55.867Z</time>
      </trkpt>
      <trkpt lat="69.67532" lon="18.9068">
        <ele>35.083307</ele>
        <time>2020-08-26T13:23:57.859Z</time>
      </trkpt>
      <trkpt lat="69.67523" lon="18.9069">
        <ele>35.10054</ele>
        <time>2020-08-26T13:23:59.864Z</time>
      </trkpt>
      <trkpt lat="69.67513" lon="18.90699">
        <ele>35.118259</ele>
        <time>2020-08-26T13:24:01.853Z</time>
      </trkpt>
      <trkpt lat="69.67504" lon="18.90708">
        <ele>35.136162</ele>
        <time>2020-08-26T13:24:03.880Z</time>
      </trkpt>
      <trkpt lat="69.67494" lon="18.90714">
        <ele>35.153687</ele>
        <time>2020-08-26T13:24:05.872Z</time>
      </trkpt>
      <trkpt lat="69.67485" lon="18.9072">
        <ele>35.170498</ele>
        <time>2020-08-26T13:24:07.871Z</time>
      </trkpt>
      <trkpt lat="69.67476" lon="18.90726">
        <ele>35.187416</ele>
        <time>2020-08-26T13:24:09.897Z</time>
      </trkpt>
      <trkpt lat="69.67466" lon="18.90731">
        <ele>35.186962</ele>
        <time>2020-08-26T13:24:11.854Z</time>
      </trkpt>
      <trkpt lat="69.67456" lon="18.90734">
        <ele>35.172515</ele>
        <time>2020-08-26T13:24:13.860Z</time>
      </trkpt>
      <trkpt lat="69.67446" lon="18.90736">
        <ele>35.15825</ele>
        <time>2020-08-26T13:24:15.849Z</time>
      </trkpt>
      <trkpt lat="69.67436" lon="18.90738">
        <ele>35.144572</ele>
        <time>2020-08-26T13:24:17.861Z</time>
      </trkpt>
      <trkpt lat="69.67426" lon="18.90738">
        <ele>35.130355</ele>
        <time>2020-08-26T13:24:19.877Z</time>
      </trkpt>
      <trkpt lat="69.67416" lon="18.90738">
        <ele>35.115575</ele>
        <time>2020-08-26T13:24:21.876Z</time>
      </trkpt>
      <trkpt lat="69.67405" lon="18.90739">
        <ele>35.100351</ele>
        <time>2020-08-26T13:24:23.875Z</time>
      </trkpt>
      <trkpt lat="69.67394" lon="18.90741">
        <ele>35.084574</ele>
        <time>2020-08-26T13:24:25.872Z</time>
      </trkpt>
      <trkpt lat="69.67382" lon="18.90741">
        <ele>35.068669</ele>
        <time>2020-08-26T13:24:27.865Z</time>
      </trkpt>
      <trkpt lat="69.67371" lon="18.90743">
        <ele>35.052867</ele>
        <time>2020-08-26T13:24:29.871Z</time>
      </trkpt>
      <trkpt lat="69.6736" lon="18.90746">
        <ele>35.03731</ele>
        <time>2020-08-26T13:24:31.847Z</time>
      </trkpt>
      <trkpt lat="69.67349" lon="18.90752">
        <ele>35.021318</ele>
        <time>2020-08-26T13:24:33.853Z</time>
      </trkpt>
      <trkpt lat="69.67338" lon="18.90758">
        <ele>35.005502</ele>
        <time>2020-08-26T13:24:35.880Z</time>
      </trkpt>
      <trkpt lat="69.67327" lon="18.90766">
        <ele>34.989917</ele>
        <time>2020-08-26T13:24:37.890Z</time>
      </trkpt>
      <trkpt lat="69.67317" lon="18.90778">
        <ele>34.974551</ele>
        <time>2020-08-26T13:24:39.881Z</time>
      </trkpt>
      <trkpt lat="69.67307" lon="18.9079">
        <ele>34.959592</ele>
        <time>2020-08-26T13:24:41.860Z</time>
      </trkpt>
      <trkpt lat="69.67298" lon="18.90804">
        <ele>34.945092</ele>
        <time>2020-08-26T13:24:43.868Z</time>
      </trkpt>
      <trkpt lat="69.6729" lon="18.9082">
        <ele>34.772966</ele>
        <time>2020-08-26T13:24:45.868Z</time>
      </trkpt>
      <trkpt lat="69.67281" lon="18.90838">
        <ele>34.550586</ele>
        <time>2020-08-26T13:24:47.854Z</time>
      </trkpt>
      <trkpt lat="69.67273" lon="18.90857">
        <ele>34.325327</ele>
        <time>2020-08-26T13:24:49.853Z</time>
      </trkpt>
      <trkpt lat="69.67265" lon="18.90876">
        <ele>34.109417</ele>
        <time>2020-08-26T13:24:51.853Z</time>
      </trkpt>
      <trkpt lat="69.67257" lon="18.90898">
        <ele>33.873829</ele>
        <time>2020-08-26T13:24:53.854Z</time>
      </trkpt>
      <trkpt lat="69.67249" lon="18.90922">
        <ele>33.636039</ele>
        <time>2020-08-26T13:24:55.866Z</time>
      </trkpt>
      <trkpt lat="69.67242" lon="18.90945">
        <ele>33.412417</ele>
        <time>2020-08-26T13:24:57.864Z</time>
      </trkpt>
      <trkpt lat="69.67236" lon="18.90968">
        <ele>33.198465</ele>
        <time>2020-08-26T13:24:59.887Z</time>
      </trkpt>
      <trkpt lat="69.6723" lon="18.90991">
        <ele>32.988934</ele>
        <time>2020-08-26T13:25:01.851Z</time>
      </trkpt>
      <trkpt lat="69.67225" lon="18.91023">
        <ele>32.731736</ele>
        <time>2020-08-26T13:25:04.866Z</time>
      </trkpt>
      <trkpt lat="69.67221" lon="18.91045">
        <ele>32.541073</ele>
        <time>2020-08-26T13:25:07.880Z</time>
      </trkpt>
      <trkpt lat="69.67215" lon="18.91074">
        <ele>32.296931</ele>
        <time>2020-08-26T13:25:11.845Z</time>
      </trkpt>
      <trkpt lat="69.6719" lon="18.91285">
        <ele>32.180164</ele>
        <time>2020-08-26T13:25:25.971Z</time>
      </trkpt>
      <trkpt lat="69.67203" lon="18.91305">
        <ele>32.846947</ele>
        <time>2020-08-26T13:25:26.879Z</time>
      </trkpt>
      <trkpt lat="69.67209" lon="18.91351">
        <ele>33.645224</ele>
        <time>2020-08-26T13:25:28.864Z</time>
      </trkpt>
      <trkpt lat="69.67209" lon="18.91378">
        <ele>34.078164</ele>
        <time>2020-08-26T13:25:30.879Z</time>
      </trkpt>
      <trkpt lat="69.67211" lon="18.91414">
        <ele>34.669152</ele>
        <time>2020-08-26T13:25:33.892Z</time>
      </trkpt>
      <trkpt lat="69.67214" lon="18.9145">
        <ele>35.259213</ele>
        <time>2020-08-26T13:25:36.872Z</time>
      </trkpt>
      <trkpt lat="69.67215" lon="18.91485">
        <ele>35.828032</ele>
        <time>2020-08-26T13:25:39.872Z</time>
      </trkpt>
      <trkpt lat="69.67217" lon="18.9152">
        <ele>36.402664</ele>
        <time>2020-08-26T13:25:42.904Z</time>
      </trkpt>
      <trkpt lat="69.67218" lon="18.91554">
        <ele>36.947416</ele>
        <time>2020-08-26T13:25:45.878Z</time>
      </trkpt>
      <trkpt lat="69.67219" lon="18.91589">
        <ele>37.507085</ele>
        <time>2020-08-26T13:25:48.868Z</time>
      </trkpt>
      <trkpt lat="69.67221" lon="18.91626">
        <ele>38.107836</ele>
        <time>2020-08-26T13:25:51.874Z</time>
      </trkpt>
      <trkpt lat="69.67222" lon="18.91653">
        <ele>38.550897</ele>
        <time>2020-08-26T13:25:53.881Z</time>
      </trkpt>
      <trkpt lat="69.6722" lon="18.91687">
        <ele>39.094019</ele>
        <time>2020-08-26T13:25:55.851Z</time>
      </trkpt>
      <trkpt lat="69.67218" lon="18.91722">
        <ele>39.697287</ele>
        <time>2020-08-26T13:25:57.850Z</time>
      </trkpt>
      <trkpt lat="69.67215" lon="18.91755">
        <ele>40.283431</ele>
        <time>2020-08-26T13:25:59.865Z</time>
      </trkpt>
      <trkpt lat="69.67249" lon="18.91823">
        <ele>42.374694</ele>
        <time>2020-08-26T13:26:07.877Z</time>
      </trkpt>
      <trkpt lat="69.67239" lon="18.91828">
        <ele>42.886523</ele>
        <time>2020-08-26T13:26:09.859Z</time>
      </trkpt>
      <trkpt lat="69.67234" lon="18.91851">
        <ele>43.369042</ele>
        <time>2020-08-26T13:26:14.872Z</time>
      </trkpt>
      <trkpt lat="69.67227" lon="18.91875">
        <ele>43.920908</ele>
        <time>2020-08-26T13:26:19.865Z</time>
      </trkpt>
      <trkpt lat="69.6722" lon="18.91894">
        <ele>44.42093</ele>
        <time>2020-08-26T13:26:24.861Z</time>
      </trkpt>
      <trkpt lat="69.67214" lon="18.91916">
        <ele>44.903873</ele>
        <time>2020-08-26T13:26:30.903Z</time>
      </trkpt>
      <trkpt lat="69.6721" lon="18.91943">
        <ele>45.407137</ele>
        <time>2020-08-26T13:26:36.897Z</time>
      </trkpt>
      <trkpt lat="69.67208" lon="18.9197">
        <ele>45.884457</ele>
        <time>2020-08-26T13:26:41.864Z</time>
      </trkpt>
      <trkpt lat="69.67207" lon="18.91998">
        <ele>46.386194</ele>
        <time>2020-08-26T13:26:46.866Z</time>
      </trkpt>
      <trkpt lat="69.67206" lon="18.92027">
        <ele>46.887108</ele>
        <time>2020-08-26T13:26:51.868Z</time>
      </trkpt>
      <trkpt lat="69.67205" lon="18.92054">
        <ele>47.356426</ele>
        <time>2020-08-26T13:26:57.862Z</time>
      </trkpt>
      <trkpt lat="69.67208" lon="18.92028">
        <ele>47.825556</ele>
        <time>2020-08-26T13:27:52.867Z</time>
      </trkpt>
      <trkpt lat="69.67211" lon="18.91996">
        <ele>48.394265</ele>
        <time>2020-08-26T13:27:55.868Z</time>
      </trkpt>
      <trkpt lat="69.67213" lon="18.91966">
        <ele>48.610327</ele>
        <time>2020-08-26T13:27:58.889Z</time>
      </trkpt>
      <trkpt lat="69.67216" lon="18.91935">
        <ele>48.732906</ele>
        <time>2020-08-26T13:28:01.888Z</time>
      </trkpt>
      <trkpt lat="69.67221" lon="18.91902">
        <ele>48.869441</ele>
        <time>2020-08-26T13:28:04.877Z</time>
      </trkpt>
      <trkpt lat="69.67229" lon="18.91879">
        <ele>48.996867</ele>
        <time>2020-08-26T13:28:06.901Z</time>
      </trkpt>
      <trkpt lat="69.6724" lon="18.9187">
        <ele>49.120568</ele>
        <time>2020-08-26T13:28:08.905Z</time>
      </trkpt>
      <trkpt lat="69.67248" lon="18.91892">
        <ele>49.249633</ele>
        <time>2020-08-26T13:28:11.867Z</time>
      </trkpt>
      <trkpt lat="69.67259" lon="18.91898">
        <ele>49.365833</ele>
        <time>2020-08-26T13:28:18.860Z</time>
      </trkpt>
      <trkpt lat="69.67269" lon="18.91905">
        <ele>49.481267</ele>
        <time>2020-08-26T13:28:24.864Z</time>
      </trkpt>
      <trkpt lat="69.67278" lon="18.91906">
        <ele>49.586431</ele>
        <time>2020-08-26T13:28:28.862Z</time>
      </trkpt>
      <trkpt lat="69.67289" lon="18.91908">
        <ele>49.708384</ele>
        <time>2020-08-26T13:28:33.860Z</time>
      </trkpt>
      <trkpt lat="69.67298" lon="18.91924">
        <ele>49.817224</ele>
        <time>2020-08-26T13:28:38.856Z</time>
      </trkpt>
      <trkpt lat="69.67297" lon="18.91955">
        <ele>49.936714</ele>
        <time>2020-08-26T13:28:44.898Z</time>
      </trkpt>
      <trkpt lat="69.67296" lon="18.91986">
        <ele>50.053624</ele>
        <time>2020-08-26T13:28:49.885Z</time>
      </trkpt>
      <trkpt lat="69.67293" lon="18.92014">
        <ele>50.16552</ele>
        <time>2020-08-26T13:28:54.864Z</time>
      </trkpt>
      <trkpt lat="69.67295" lon="18.9204">
        <ele>50.267939</ele>
        <time>2020-08-26T13:28:59.863Z</time>
      </trkpt>
      <trkpt lat="69.67295" lon="18.92067">
        <ele>50.371412</ele>
        <time>2020-08-26T13:29:04.857Z</time>
      </trkpt>
      <trkpt lat="69.67295" lon="18.92094">
        <ele>50.475897</ele>
        <time>2020-08-26T13:29:09.859Z</time>
      </trkpt>
      <trkpt lat="69.67294" lon="18.92123">
        <ele>50.95927</ele>
        <time>2020-08-26T13:29:16.861Z</time>
      </trkpt>
      <trkpt lat="69.67303" lon="18.92132">
        <ele>51.540134</ele>
        <time>2020-08-26T13:29:23.873Z</time>
      </trkpt>
      <trkpt lat="69.67312" lon="18.9213">
        <ele>52.12342</ele>
        <time>2020-08-26T13:29:27.872Z</time>
      </trkpt>
      <trkpt lat="69.67322" lon="18.92134">
        <ele>52.761619</ele>
        <time>2020-08-26T13:29:30.865Z</time>
      </trkpt>
      <trkpt lat="69.67333" lon="18.92127">
        <ele>53.461154</ele>
        <time>2020-08-26T13:29:34.865Z</time>
      </trkpt>
      <trkpt lat="69.67342" lon="18.9212">
        <ele>54.047227</ele>
        <time>2020-08-26T13:29:38.880Z</time>
      </trkpt>
      <trkpt lat="69.67349" lon="18.92138">
        <ele>54.626133</ele>
        <time>2020-08-26T13:29:42.866Z</time>
      </trkpt>
      <trkpt lat="69.67358" lon="18.92158">
        <ele>55.325052</ele>
        <time>2020-08-26T13:32:04.002Z</time>
      </trkpt>
      <trkpt lat="69.67358" lon="18.92158">
        <ele>55.325052</ele>
        <time>2020-08-26T14:31:38.067Z</time>
      </trkpt>
      <trkpt lat="69.67348" lon="18.9219">
        <ele>56.23767</ele>
        <time>2020-08-26T14:59:28.709Z</time>
      </trkpt>
      <trkpt lat="69.67328" lon="18.92156">
        <ele>57.735065</ele>
        <time>2020-08-26T14:59:30.708Z</time>
      </trkpt>
      <trkpt lat="69.67319" lon="18.92143">
        <ele>58.365462</ele>
        <time>2020-08-26T14:59:34.714Z</time>
      </trkpt>
      <trkpt lat="69.67311" lon="18.92122">
        <ele>59.00022</ele>
        <time>2020-08-26T14:59:38.740Z</time>
      </trkpt>
      <trkpt lat="69.67308" lon="18.92095">
        <ele>59.632484</ele>
        <time>2020-08-26T14:59:43.722Z</time>
      </trkpt>
      <trkpt lat="69.67306" lon="18.92061">
        <ele>60.384473</ele>
        <time>2020-08-26T14:59:47.715Z</time>
      </trkpt>
      <trkpt lat="69.67306" lon="18.9203">
        <ele>61.068489</ele>
        <time>2020-08-26T14:59:50.744Z</time>
      </trkpt>
      <trkpt lat="69.67305" lon="18.91999">
        <ele>61.73654</ele>
        <time>2020-08-26T14:59:53.710Z</time>
      </trkpt>
      <trkpt lat="69.67304" lon="18.9197">
        <ele>61.10121</ele>
        <time>2020-08-26T14:59:56.720Z</time>
      </trkpt>
      <trkpt lat="69.67303" lon="18.91944">
        <ele>60.491597</ele>
        <time>2020-08-26T14:59:59.732Z</time>
      </trkpt>
      <trkpt lat="69.67297" lon="18.9192">
        <ele>59.807385</ele>
        <time>2020-08-26T15:00:02.701Z</time>
      </trkpt>
      <trkpt lat="69.67284" lon="18.91915">
        <ele>58.97314</ele>
        <time>2020-08-26T15:00:05.729Z</time>
      </trkpt>
      <trkpt lat="69.67272" lon="18.91908">
        <ele>58.146498</ele>
        <time>2020-08-26T15:00:08.719Z</time>
      </trkpt>
      <trkpt lat="69.67259" lon="18.919">
        <ele>57.277443</ele>
        <time>2020-08-26T15:00:11.722Z</time>
      </trkpt>
      <trkpt lat="69.67247" lon="18.91888">
        <ele>56.418798</ele>
        <time>2020-08-26T15:00:14.721Z</time>
      </trkpt>
      <trkpt lat="69.67239" lon="18.91873">
        <ele>55.809434</ele>
        <time>2020-08-26T15:00:16.739Z</time>
      </trkpt>
      <trkpt lat="69.67233" lon="18.91841">
        <ele>54.962585</ele>
        <time>2020-08-26T15:00:19.706Z</time>
      </trkpt>
      <trkpt lat="69.67224" lon="18.9182">
        <ele>54.211074</ele>
        <time>2020-08-26T15:00:22.734Z</time>
      </trkpt>
      <trkpt lat="69.67213" lon="18.91827">
        <ele>53.501246</ele>
        <time>2020-08-26T15:00:25.714Z</time>
      </trkpt>
      <trkpt lat="69.67201" lon="18.91846">
        <ele>52.61111</ele>
        <time>2020-08-26T15:00:28.733Z</time>
      </trkpt>
      <trkpt lat="69.67193" lon="18.91839">
        <ele>52.020623</ele>
        <time>2020-08-26T15:00:31.716Z</time>
      </trkpt>
      <trkpt lat="69.67181" lon="18.91843">
        <ele>51.25524</ele>
        <time>2020-08-26T15:00:33.735Z</time>
      </trkpt>
      <trkpt lat="69.67172" lon="18.91839">
        <ele>50.648989</ele>
        <time>2020-08-26T15:00:35.732Z</time>
      </trkpt>
      <trkpt lat="69.67161" lon="18.91849">
        <ele>49.895308</ele>
        <time>2020-08-26T15:00:38.721Z</time>
      </trkpt>
      <trkpt lat="69.67151" lon="18.91859">
        <ele>49.301897</ele>
        <time>2020-08-26T15:00:41.743Z</time>
      </trkpt>
      <trkpt lat="69.67141" lon="18.91869">
        <ele>48.701969</ele>
        <time>2020-08-26T15:00:44.720Z</time>
      </trkpt>
      <trkpt lat="69.67132" lon="18.91877">
        <ele>48.128548</ele>
        <time>2020-08-26T15:00:47.747Z</time>
      </trkpt>
      <trkpt lat="69.67122" lon="18.91889">
        <ele>47.546438</ele>
        <time>2020-08-26T15:00:50.739Z</time>
      </trkpt>
      <trkpt lat="69.67112" lon="18.91903">
        <ele>46.911729</ele>
        <time>2020-08-26T15:00:53.707Z</time>
      </trkpt>
      <trkpt lat="69.67102" lon="18.91919">
        <ele>46.248229</ele>
        <time>2020-08-26T15:00:56.724Z</time>
      </trkpt>
      <trkpt lat="69.67092" lon="18.91936">
        <ele>45.58776</ele>
        <time>2020-08-26T15:00:59.747Z</time>
      </trkpt>
      <trkpt lat="69.67081" lon="18.91955">
        <ele>44.887273</ele>
        <time>2020-08-26T15:01:02.728Z</time>
      </trkpt>
      <trkpt lat="69.67071" lon="18.91971">
        <ele>44.22564</ele>
        <time>2020-08-26T15:01:05.713Z</time>
      </trkpt>
      <trkpt lat="69.67062" lon="18.91986">
        <ele>43.622843</ele>
        <time>2020-08-26T15:01:08.717Z</time>
      </trkpt>
      <trkpt lat="69.67053" lon="18.91999">
        <ele>43.075324</ele>
        <time>2020-08-26T15:01:11.703Z</time>
      </trkpt>
      <trkpt lat="69.67045" lon="18.92013">
        <ele>42.558222</ele>
        <time>2020-08-26T15:01:14.762Z</time>
      </trkpt>
      <trkpt lat="69.67038" lon="18.92027">
        <ele>42.047864</ele>
        <time>2020-08-26T15:01:17.704Z</time>
      </trkpt>
      <trkpt lat="69.67029" lon="18.92044">
        <ele>41.460593</ele>
        <time>2020-08-26T15:01:21.724Z</time>
      </trkpt>
      <trkpt lat="69.6702" lon="18.92064">
        <ele>40.805759</ele>
        <time>2020-08-26T15:01:25.737Z</time>
      </trkpt>
      <trkpt lat="69.67013" lon="18.92083">
        <ele>40.246107</ele>
        <time>2020-08-26T15:01:28.724Z</time>
      </trkpt>
      <trkpt lat="69.67009" lon="18.92109">
        <ele>39.721</ele>
        <time>2020-08-26T15:01:31.713Z</time>
      </trkpt>
      <trkpt lat="69.67007" lon="18.92137">
        <ele>40.527863</ele>
        <time>2020-08-26T15:01:34.724Z</time>
      </trkpt>
      <trkpt lat="69.6701" lon="18.92169">
        <ele>41.438873</ele>
        <time>2020-08-26T15:01:38.702Z</time>
      </trkpt>
      <trkpt lat="69.67014" lon="18.92196">
        <ele>42.299391</ele>
        <time>2020-08-26T15:01:43.724Z</time>
      </trkpt>
      <trkpt lat="69.67018" lon="18.92223">
        <ele>43.118304</ele>
        <time>2020-08-26T15:01:48.705Z</time>
      </trkpt>
      <trkpt lat="69.67024" lon="18.9225">
        <ele>43.999084</ele>
        <time>2020-08-26T15:01:53.719Z</time>
      </trkpt>
      <trkpt lat="69.67026" lon="18.92275">
        <ele>44.731684</ele>
        <time>2020-08-26T15:01:58.740Z</time>
      </trkpt>
      <trkpt lat="69.6703" lon="18.92302">
        <ele>45.559039</ele>
        <time>2020-08-26T15:02:03.745Z</time>
      </trkpt>
      <trkpt lat="69.67038" lon="18.92321">
        <ele>46.368314</ele>
        <time>2020-08-26T15:02:09.722Z</time>
      </trkpt>
      <trkpt lat="69.67037" lon="18.9229">
        <ele>47.246523</ele>
        <time>2020-08-26T15:02:18.708Z</time>
      </trkpt>
      <trkpt lat="69.67026" lon="18.92275">
        <ele>48.249798</ele>
        <time>2020-08-26T15:02:21.732Z</time>
      </trkpt>
      <trkpt lat="69.67014" lon="18.92276">
        <ele>49.230292</ele>
        <time>2020-08-26T15:02:24.703Z</time>
      </trkpt>
      <trkpt lat="69.67009" lon="18.92307">
        <ele>50.183589</ele>
        <time>2020-08-26T15:02:28.701Z</time>
      </trkpt>
      <trkpt lat="69.67006" lon="18.92335">
        <ele>51.000634</ele>
        <time>2020-08-26T15:02:32.732Z</time>
      </trkpt>
      <trkpt lat="69.67004" lon="18.9236">
        <ele>51.740843</ele>
        <time>2020-08-26T15:02:36.728Z</time>
      </trkpt>
      <trkpt lat="69.67001" lon="18.92386">
        <ele>52.511811</ele>
        <time>2020-08-26T15:02:40.715Z</time>
      </trkpt>
      <trkpt lat="69.66997" lon="18.92413">
        <ele>53.323363</ele>
        <time>2020-08-26T15:02:44.727Z</time>
      </trkpt>
      <trkpt lat="69.66993" lon="18.92443">
        <ele>54.217139</ele>
        <time>2020-08-26T15:02:49.728Z</time>
      </trkpt>
      <trkpt lat="69.6699" lon="18.9247">
        <ele>55.276392</ele>
        <time>2020-08-26T15:02:54.721Z</time>
      </trkpt>
      <trkpt lat="69.66987" lon="18.92498">
        <ele>56.340195</ele>
        <time>2020-08-26T15:02:59.723Z</time>
      </trkpt>
      <trkpt lat="69.66983" lon="18.92526">
        <ele>57.445577</ele>
        <time>2020-08-26T15:03:05.784Z</time>
      </trkpt>
      <trkpt lat="69.66984" lon="18.92555">
        <ele>58.521031</ele>
        <time>2020-08-26T15:03:12.708Z</time>
      </trkpt>
      <trkpt lat="69.66989" lon="18.9258">
        <ele>59.595628</ele>
        <time>2020-08-26T15:03:21.702Z</time>
      </trkpt>
      <trkpt lat="69.66996" lon="18.92602">
        <ele>60.674764</ele>
        <time>2020-08-26T15:03:28.710Z</time>
      </trkpt>
      <trkpt lat="69.67004" lon="18.92619">
        <ele>61.731108</ele>
        <time>2020-08-26T15:03:35.702Z</time>
      </trkpt>
      <trkpt lat="69.67011" lon="18.92633">
        <ele>62.708886</ele>
        <time>2020-08-26T15:03:41.716Z</time>
      </trkpt>
      <trkpt lat="69.67013" lon="18.9266">
        <ele>63.704869</ele>
        <time>2020-08-26T15:03:47.715Z</time>
      </trkpt>
      <trkpt lat="69.67009" lon="18.92684">
        <ele>64.726127</ele>
        <time>2020-08-26T15:03:59.742Z</time>
      </trkpt>
      <trkpt lat="69.67005" lon="18.92708">
        <ele>65.685952</ele>
        <time>2020-08-26T15:04:06.700Z</time>
      </trkpt>
      <trkpt lat="69.67" lon="18.92733">
        <ele>66.725268</ele>
        <time>2020-08-26T15:04:12.720Z</time>
      </trkpt>
      <trkpt lat="69.66996" lon="18.92758">
        <ele>67.762374</ele>
        <time>2020-08-26T15:04:19.716Z</time>
      </trkpt>
      <trkpt lat="69.66988" lon="18.92772">
        <ele>68.76559</ele>
        <time>2020-08-26T15:04:26.698Z</time>
      </trkpt>
      <trkpt lat="69.66979" lon="18.92758">
        <ele>69.847274</ele>
        <time>2020-08-26T15:04:32.715Z</time>
      </trkpt>
      <trkpt lat="69.6697" lon="18.92749">
        <ele>70.903122</ele>
        <time>2020-08-26T15:04:37.727Z</time>
      </trkpt>
      <trkpt lat="69.6696" lon="18.92741">
        <ele>72.026774</ele>
        <time>2020-08-26T15:04:42.704Z</time>
      </trkpt>
      <trkpt lat="69.6695" lon="18.9273">
        <ele>73.139334</ele>
        <time>2020-08-26T15:04:47.715Z</time>
      </trkpt>
      <trkpt lat="69.66942" lon="18.92719">
        <ele>73.449979</ele>
        <time>2020-08-26T15:04:51.707Z</time>
      </trkpt>
      <trkpt lat="69.66932" lon="18.92708">
        <ele>73.476939</ele>
        <time>2020-08-26T15:04:55.754Z</time>
      </trkpt>
      <trkpt lat="69.66923" lon="18.92696">
        <ele>73.502565</ele>
        <time>2020-08-26T15:04:59.729Z</time>
      </trkpt>
      <trkpt lat="69.66913" lon="18.92686">
        <ele>73.528219</ele>
        <time>2020-08-26T15:05:03.720Z</time>
      </trkpt>
      <trkpt lat="69.66905" lon="18.92675">
        <ele>73.551449</ele>
        <time>2020-08-26T15:05:06.699Z</time>
      </trkpt>
      <trkpt lat="69.66895" lon="18.92665">
        <ele>73.576739</ele>
        <time>2020-08-26T15:05:09.701Z</time>
      </trkpt>
      <trkpt lat="69.66887" lon="18.92653">
        <ele>73.601858</ele>
        <time>2020-08-26T15:05:12.709Z</time>
      </trkpt>
      <trkpt lat="69.66878" lon="18.92641">
        <ele>73.625144</ele>
        <time>2020-08-26T15:05:15.716Z</time>
      </trkpt>
      <trkpt lat="69.6687" lon="18.92628">
        <ele>73.649859</ele>
        <time>2020-08-26T15:05:19.765Z</time>
      </trkpt>
      <trkpt lat="69.6686" lon="18.92624">
        <ele>73.676062</ele>
        <time>2020-08-26T15:05:23.710Z</time>
      </trkpt>
      <trkpt lat="69.66854" lon="18.9265">
        <ele>73.703005</ele>
        <time>2020-08-26T15:05:29.717Z</time>
      </trkpt>
      <trkpt lat="69.66849" lon="18.92672">
        <ele>73.726384</ele>
        <time>2020-08-26T15:05:34.727Z</time>
      </trkpt>
      <trkpt lat="69.66838" lon="18.92674">
        <ele>73.753677</ele>
        <time>2020-08-26T15:05:40.722Z</time>
      </trkpt>
      <trkpt lat="69.66827" lon="18.92664">
        <ele>73.783679</ele>
        <time>2020-08-26T15:05:44.728Z</time>
      </trkpt>
      <trkpt lat="69.66817" lon="18.92657">
        <ele>73.809822</ele>
        <time>2020-08-26T15:05:47.715Z</time>
      </trkpt>
      <trkpt lat="69.66807" lon="18.92648">
        <ele>73.836696</ele>
        <time>2020-08-26T15:05:50.749Z</time>
      </trkpt>
      <trkpt lat="69.66796" lon="18.92639">
        <ele>73.864917</ele>
        <time>2020-08-26T15:05:53.713Z</time>
      </trkpt>
      <trkpt lat="69.66785" lon="18.92628">
        <ele>73.918842</ele>
        <time>2020-08-26T15:05:56.724Z</time>
      </trkpt>
      <trkpt lat="69.66774" lon="18.92616">
        <ele>74.192578</ele>
        <time>2020-08-26T15:05:59.717Z</time>
      </trkpt>
      <trkpt lat="69.66762" lon="18.92606">
        <ele>74.471505</ele>
        <time>2020-08-26T15:06:02.724Z</time>
      </trkpt>
      <trkpt lat="69.6675" lon="18.92594">
        <ele>74.760819</ele>
        <time>2020-08-26T15:06:05.719Z</time>
      </trkpt>
      <trkpt lat="69.66739" lon="18.92586">
        <ele>75.023104</ele>
        <time>2020-08-26T15:06:08.716Z</time>
      </trkpt>
      <trkpt lat="69.6673" lon="18.92581">
        <ele>75.235936</ele>
        <time>2020-08-26T15:06:11.713Z</time>
      </trkpt>
      <trkpt lat="69.6672" lon="18.92578">
        <ele>75.468233</ele>
        <time>2020-08-26T15:06:16.720Z</time>
      </trkpt>
      <trkpt lat="69.6671" lon="18.9257">
        <ele>75.690766</ele>
        <time>2020-08-26T15:06:20.709Z</time>
      </trkpt>
      <trkpt lat="69.667" lon="18.92563">
        <ele>75.93598</ele>
        <time>2020-08-26T15:06:24.740Z</time>
      </trkpt>
      <trkpt lat="69.66689" lon="18.92553">
        <ele>76.190984</ele>
        <time>2020-08-26T15:06:28.710Z</time>
      </trkpt>
      <trkpt lat="69.66679" lon="18.92544">
        <ele>76.437725</ele>
        <time>2020-08-26T15:06:32.709Z</time>
      </trkpt>
      <trkpt lat="69.66668" lon="18.92532">
        <ele>76.696294</ele>
        <time>2020-08-26T15:06:36.744Z</time>
      </trkpt>
      <trkpt lat="69.66661" lon="18.92517">
        <ele>76.908617</ele>
        <time>2020-08-26T15:06:39.760Z</time>
      </trkpt>
      <trkpt lat="69.66654" lon="18.92498">
        <ele>77.115753</ele>
        <time>2020-08-26T15:06:42.722Z</time>
      </trkpt>
      <trkpt lat="69.66648" lon="18.92469">
        <ele>77.385925</ele>
        <time>2020-08-26T15:06:46.761Z</time>
      </trkpt>
      <trkpt lat="69.6664" lon="18.92448">
        <ele>77.627063</ele>
        <time>2020-08-26T15:06:49.746Z</time>
      </trkpt>
      <trkpt lat="69.66632" lon="18.92434">
        <ele>77.860211</ele>
        <time>2020-08-26T15:06:52.721Z</time>
      </trkpt>
      <trkpt lat="69.66621" lon="18.92434">
        <ele>78.591808</ele>
        <time>2020-08-26T15:06:56.719Z</time>
      </trkpt>
      <trkpt lat="69.66613" lon="18.92444">
        <ele>79.99291</ele>
        <time>2020-08-26T15:07:02.746Z</time>
      </trkpt>
      <trkpt lat="69.66603" lon="18.92449">
        <ele>81.402466</ele>
        <time>2020-08-26T15:07:07.700Z</time>
      </trkpt>
      <trkpt lat="69.66593" lon="18.92457">
        <ele>82.922515</ele>
        <time>2020-08-26T15:07:13.733Z</time>
      </trkpt>
      <trkpt lat="69.66584" lon="18.92467">
        <ele>84.375049</ele>
        <time>2020-08-26T15:07:19.724Z</time>
      </trkpt>
      <trkpt lat="69.66575" lon="18.92472">
        <ele>85.769194</ele>
        <time>2020-08-26T15:07:25.741Z</time>
      </trkpt>
      <trkpt lat="69.66566" lon="18.92478">
        <ele>87.094839</ele>
        <time>2020-08-26T15:07:33.756Z</time>
      </trkpt>
      <trkpt lat="69.66557" lon="18.92484">
        <ele>88.448021</ele>
        <time>2020-08-26T15:07:40.761Z</time>
      </trkpt>
      <trkpt lat="69.66546" lon="18.92488">
        <ele>89.975575</ele>
        <time>2020-08-26T15:07:46.723Z</time>
      </trkpt>
      <trkpt lat="69.66537" lon="18.92495">
        <ele>91.444021</ele>
        <time>2020-08-26T15:07:52.743Z</time>
      </trkpt>
      <trkpt lat="69.66528" lon="18.92504">
        <ele>92.869235</ele>
        <time>2020-08-26T15:07:58.709Z</time>
      </trkpt>
      <trkpt lat="69.66519" lon="18.92511">
        <ele>94.209881</ele>
        <time>2020-08-26T15:08:04.722Z</time>
      </trkpt>
      <trkpt lat="69.6651" lon="18.92522">
        <ele>95.684791</ele>
        <time>2020-08-26T15:08:11.725Z</time>
      </trkpt>
      <trkpt lat="69.66502" lon="18.92536">
        <ele>96.998277</ele>
        <time>2020-08-26T15:08:18.726Z</time>
      </trkpt>
      <trkpt lat="69.66494" lon="18.92548">
        <ele>98.338389</ele>
        <time>2020-08-26T15:08:27.729Z</time>
      </trkpt>
      <trkpt lat="69.66485" lon="18.92559">
        <ele>99.745198</ele>
        <time>2020-08-26T15:08:35.736Z</time>
      </trkpt>
      <trkpt lat="69.66476" lon="18.92568">
        <ele>101.10623</ele>
        <time>2020-08-26T15:08:45.726Z</time>
      </trkpt>
      <trkpt lat="69.66469" lon="18.92584">
        <ele>102.456781</ele>
        <time>2020-08-26T15:08:52.757Z</time>
      </trkpt>
      <trkpt lat="69.66461" lon="18.926">
        <ele>103.854755</ele>
        <time>2020-08-26T15:08:59.721Z</time>
      </trkpt>
      <trkpt lat="69.66453" lon="18.92613">
        <ele>104.660648</ele>
        <time>2020-08-26T15:09:06.735Z</time>
      </trkpt>
      <trkpt lat="69.66445" lon="18.92621">
        <ele>105.111897</ele>
        <time>2020-08-26T15:09:14.741Z</time>
      </trkpt>
      <trkpt lat="69.66436" lon="18.92634">
        <ele>105.570165</ele>
        <time>2020-08-26T15:09:21.719Z</time>
      </trkpt>
      <trkpt lat="69.66429" lon="18.92654">
        <ele>106.048496</ele>
        <time>2020-08-26T15:09:30.716Z</time>
      </trkpt>
      <trkpt lat="69.66424" lon="18.92676">
        <ele>106.509593</ele>
        <time>2020-08-26T15:09:39.736Z</time>
      </trkpt>
      <trkpt lat="69.6642" lon="18.92701">
        <ele>106.961447</ele>
        <time>2020-08-26T15:09:46.720Z</time>
      </trkpt>
      <trkpt lat="69.66415" lon="18.92722">
        <ele>107.396377</ele>
        <time>2020-08-26T15:09:52.739Z</time>
      </trkpt>
      <trkpt lat="69.66406" lon="18.92737">
        <ele>107.885309</ele>
        <time>2020-08-26T15:09:57.707Z</time>
      </trkpt>
      <trkpt lat="69.66397" lon="18.92745">
        <ele>108.337672</ele>
        <time>2020-08-26T15:10:03.733Z</time>
      </trkpt>
      <trkpt lat="69.66389" lon="18.9275">
        <ele>108.774796</ele>
        <time>2020-08-26T15:10:09.705Z</time>
      </trkpt>
      <trkpt lat="69.66379" lon="18.92756">
        <ele>109.248666</ele>
        <time>2020-08-26T15:10:15.723Z</time>
      </trkpt>
      <trkpt lat="69.6637" lon="18.92762">
        <ele>109.713401</ele>
        <time>2020-08-26T15:10:21.730Z</time>
      </trkpt>
      <trkpt lat="69.66359" lon="18.92772">
        <ele>110.231792</ele>
        <time>2020-08-26T15:10:27.714Z</time>
      </trkpt>
      <trkpt lat="69.6635" lon="18.9278">
        <ele>110.700424</ele>
        <time>2020-08-26T15:10:32.721Z</time>
      </trkpt>
      <trkpt lat="69.66341" lon="18.9279">
        <ele>111.197267</ele>
        <time>2020-08-26T15:10:38.756Z</time>
      </trkpt>
      <trkpt lat="69.6633" lon="18.92797">
        <ele>111.699852</ele>
        <time>2020-08-26T15:10:43.739Z</time>
      </trkpt>
      <trkpt lat="69.6632" lon="18.92801">
        <ele>112.220455</ele>
        <time>2020-08-26T15:10:48.718Z</time>
      </trkpt>
      <trkpt lat="69.66309" lon="18.92798">
        <ele>112.725623</ele>
        <time>2020-08-26T15:10:53.782Z</time>
      </trkpt>
      <trkpt lat="69.66298" lon="18.92795">
        <ele>113.2842</ele>
        <time>2020-08-26T15:10:58.727Z</time>
      </trkpt>
      <trkpt lat="69.66289" lon="18.92794">
        <ele>113.753055</ele>
        <time>2020-08-26T15:11:02.729Z</time>
      </trkpt>
      <trkpt lat="69.66278" lon="18.92789">
        <ele>114.319729</ele>
        <time>2020-08-26T15:11:07.729Z</time>
      </trkpt>
      <trkpt lat="69.66267" lon="18.92784">
        <ele>114.874088</ele>
        <time>2020-08-26T15:11:12.765Z</time>
      </trkpt>
      <trkpt lat="69.66259" lon="18.92777">
        <ele>115.34098</ele>
        <time>2020-08-26T15:11:16.720Z</time>
      </trkpt>
      <trkpt lat="69.6625" lon="18.9277">
        <ele>115.806144</ele>
        <time>2020-08-26T15:11:20.739Z</time>
      </trkpt>
      <trkpt lat="69.6624" lon="18.9276">
        <ele>116.372489</ele>
        <time>2020-08-26T15:11:24.746Z</time>
      </trkpt>
      <trkpt lat="69.66229" lon="18.92752">
        <ele>116.946136</ele>
        <time>2020-08-26T15:11:28.722Z</time>
      </trkpt>
      <trkpt lat="69.66219" lon="18.92739">
        <ele>117.479551</ele>
        <time>2020-08-26T15:11:32.732Z</time>
      </trkpt>
      <trkpt lat="69.66208" lon="18.92731">
        <ele>118.064503</ele>
        <time>2020-08-26T15:11:37.740Z</time>
      </trkpt>
      <trkpt lat="69.66199" lon="18.92745">
        <ele>118.582862</ele>
        <time>2020-08-26T15:11:41.714Z</time>
      </trkpt>
      <trkpt lat="69.66191" lon="18.92757">
        <ele>119.062285</ele>
        <time>2020-08-26T15:11:45.697Z</time>
      </trkpt>
      <trkpt lat="69.66182" lon="18.92764">
        <ele>119.533379</ele>
        <time>2020-08-26T15:11:51.722Z</time>
      </trkpt>
      <trkpt lat="69.66174" lon="18.92774">
        <ele>120.007231</ele>
        <time>2020-08-26T15:11:58.730Z</time>
      </trkpt>
      <trkpt lat="69.66165" lon="18.92785">
        <ele>120.513775</ele>
        <time>2020-08-26T15:12:04.718Z</time>
      </trkpt>
      <trkpt lat="69.66156" lon="18.92796">
        <ele>120.986864</ele>
        <time>2020-08-26T15:12:11.719Z</time>
      </trkpt>
      <trkpt lat="69.66147" lon="18.92803">
        <ele>121.48957</ele>
        <time>2020-08-26T15:12:19.727Z</time>
      </trkpt>
      <trkpt lat="69.66137" lon="18.92807">
        <ele>122.018852</ele>
        <time>2020-08-26T15:12:27.725Z</time>
      </trkpt>
      <trkpt lat="69.66128" lon="18.92815">
        <ele>122.46069</ele>
        <time>2020-08-26T15:12:34.726Z</time>
      </trkpt>
      <trkpt lat="69.66119" lon="18.92821">
        <ele>122.806725</ele>
        <time>2020-08-26T15:12:41.708Z</time>
      </trkpt>
      <trkpt lat="69.66128" lon="18.9284">
        <ele>123.230192</ele>
        <time>2020-08-26T15:12:49.704Z</time>
      </trkpt>
      <trkpt lat="69.66138" lon="18.92837">
        <ele>123.610781</ele>
        <time>2020-08-26T15:12:51.721Z</time>
      </trkpt>
      <trkpt lat="69.6615" lon="18.92851">
        <ele>124.057133</ele>
        <time>2020-08-26T15:12:54.716Z</time>
      </trkpt>
      <trkpt lat="69.66154" lon="18.92876">
        <ele>124.425327</ele>
        <time>2020-08-26T15:12:57.715Z</time>
      </trkpt>
      <trkpt lat="69.66161" lon="18.92898">
        <ele>124.80869</ele>
        <time>2020-08-26T15:13:03.727Z</time>
      </trkpt>
      <trkpt lat="69.66168" lon="18.92918">
        <ele>125.157027</ele>
        <time>2020-08-26T15:13:09.700Z</time>
      </trkpt>
      <trkpt lat="69.66176" lon="18.92934">
        <ele>125.505843</ele>
        <time>2020-08-26T15:13:13.714Z</time>
      </trkpt>
      <trkpt lat="69.66183" lon="18.92954">
        <ele>125.875892</ele>
        <time>2020-08-26T15:13:17.712Z</time>
      </trkpt>
      <trkpt lat="69.6619" lon="18.92977">
        <ele>126.267389</ele>
        <time>2020-08-26T15:13:22.707Z</time>
      </trkpt>
      <trkpt lat="69.66193" lon="18.93002">
        <ele>126.606856</ele>
        <time>2020-08-26T15:13:28.705Z</time>
      </trkpt>
      <trkpt lat="69.66193" lon="18.93028">
        <ele>126.940844</ele>
        <time>2020-08-26T15:13:34.728Z</time>
      </trkpt>
      <trkpt lat="69.66191" lon="18.93056">
        <ele>127.309679</ele>
        <time>2020-08-26T15:13:41.708Z</time>
      </trkpt>
      <trkpt lat="69.66187" lon="18.93082">
        <ele>127.658986</ele>
        <time>2020-08-26T15:13:48.696Z</time>
      </trkpt>
      <trkpt lat="69.66182" lon="18.93106">
        <ele>128.02204</ele>
        <time>2020-08-26T15:13:55.717Z</time>
      </trkpt>
      <trkpt lat="69.66173" lon="18.93117">
        <ele>128.400881</ele>
        <time>2020-08-26T15:14:03.726Z</time>
      </trkpt>
      <trkpt lat="69.66164" lon="18.93113">
        <ele>128.734906</ele>
        <time>2020-08-26T15:14:08.742Z</time>
      </trkpt>
      <trkpt lat="69.66154" lon="18.93104">
        <ele>129.251652</ele>
        <time>2020-08-26T15:14:14.707Z</time>
      </trkpt>
      <trkpt lat="69.66146" lon="18.93097">
        <ele>130.087389</ele>
        <time>2020-08-26T15:14:20.703Z</time>
      </trkpt>
      <trkpt lat="69.66157" lon="18.9311">
        <ele>131.241517</ele>
        <time>2020-08-26T15:14:31.716Z</time>
      </trkpt>
      <trkpt lat="69.66166" lon="18.93124">
        <ele>132.155677</ele>
        <time>2020-08-26T15:14:34.709Z</time>
      </trkpt>
      <trkpt lat="69.66167" lon="18.93154">
        <ele>133.112535</ele>
        <time>2020-08-26T15:14:38.747Z</time>
      </trkpt>
      <trkpt lat="69.66162" lon="18.93177">
        <ele>133.933239</ele>
        <time>2020-08-26T15:14:42.709Z</time>
      </trkpt>
      <trkpt lat="69.66159" lon="18.93201">
        <ele>134.755687</ele>
        <time>2020-08-26T15:14:47.727Z</time>
      </trkpt>
      <trkpt lat="69.66157" lon="18.93227">
        <ele>135.575252</ele>
        <time>2020-08-26T15:14:51.717Z</time>
      </trkpt>
      <trkpt lat="69.66156" lon="18.93256">
        <ele>136.510218</ele>
        <time>2020-08-26T15:14:56.700Z</time>
      </trkpt>
      <trkpt lat="69.66152" lon="18.93281">
        <ele>137.366924</ele>
        <time>2020-08-26T15:15:01.707Z</time>
      </trkpt>
      <trkpt lat="69.66149" lon="18.93309">
        <ele>138.323376</ele>
        <time>2020-08-26T15:15:05.766Z</time>
      </trkpt>
      <trkpt lat="69.66145" lon="18.93337">
        <ele>139.251521</ele>
        <time>2020-08-26T15:15:08.748Z</time>
      </trkpt>
      <trkpt lat="69.66141" lon="18.93363">
        <ele>140.157088</ele>
        <time>2020-08-26T15:15:11.713Z</time>
      </trkpt>
      <trkpt lat="69.66136" lon="18.9339">
        <ele>141.108119</ele>
        <time>2020-08-26T15:15:15.730Z</time>
      </trkpt>
      <trkpt lat="69.66132" lon="18.93417">
        <ele>142.034667</ele>
        <time>2020-08-26T15:15:19.736Z</time>
      </trkpt>
      <trkpt lat="69.66128" lon="18.93444">
        <ele>142.968183</ele>
        <time>2020-08-26T15:15:24.773Z</time>
      </trkpt>
      <trkpt lat="69.66124" lon="18.93468">
        <ele>143.831164</ele>
        <time>2020-08-26T15:15:29.737Z</time>
      </trkpt>
      <trkpt lat="69.66119" lon="18.93492">
        <ele>144.696927</ele>
        <time>2020-08-26T15:15:34.733Z</time>
      </trkpt>
      <trkpt lat="69.66114" lon="18.93518">
        <ele>145.202691</ele>
        <time>2020-08-26T15:15:39.728Z</time>
      </trkpt>
      <trkpt lat="69.66109" lon="18.93546">
        <ele>144.886914</ele>
        <time>2020-08-26T15:15:44.725Z</time>
      </trkpt>
      <trkpt lat="69.66105" lon="18.93572">
        <ele>144.599878</ele>
        <time>2020-08-26T15:15:49.714Z</time>
      </trkpt>
      <trkpt lat="69.66104" lon="18.93601">
        <ele>144.301242</ele>
        <time>2020-08-26T15:15:54.706Z</time>
      </trkpt>
      <trkpt lat="69.66105" lon="18.93631">
        <ele>144.003806</ele>
        <time>2020-08-26T15:16:00.740Z</time>
      </trkpt>
      <trkpt lat="69.66105" lon="18.9366">
        <ele>143.706585</ele>
        <time>2020-08-26T15:16:05.714Z</time>
      </trkpt>
      <trkpt lat="69.66104" lon="18.93687">
        <ele>143.437385</ele>
        <time>2020-08-26T15:16:09.738Z</time>
      </trkpt>
      <trkpt lat="69.66105" lon="18.93712">
        <ele>143.174407</ele>
        <time>2020-08-26T15:16:13.734Z</time>
      </trkpt>
      <trkpt lat="69.66107" lon="18.93741">
        <ele>142.883033</ele>
        <time>2020-08-26T15:16:18.720Z</time>
      </trkpt>
      <trkpt lat="69.66107" lon="18.93771">
        <ele>142.572147</ele>
        <time>2020-08-26T15:16:23.730Z</time>
      </trkpt>
      <trkpt lat="69.66108" lon="18.93798">
        <ele>142.300748</ele>
        <time>2020-08-26T15:16:27.732Z</time>
      </trkpt>
      <trkpt lat="69.66108" lon="18.93825">
        <ele>142.027325</ele>
        <time>2020-08-26T15:16:30.727Z</time>
      </trkpt>
      <trkpt lat="69.6611" lon="18.93854">
        <ele>141.729824</ele>
        <time>2020-08-26T15:16:33.745Z</time>
      </trkpt>
      <trkpt lat="69.66112" lon="18.9388">
        <ele>141.454475</ele>
        <time>2020-08-26T15:16:36.743Z</time>
      </trkpt>
      <trkpt lat="69.66112" lon="18.93912">
        <ele>141.135848</ele>
        <time>2020-08-26T15:16:40.737Z</time>
      </trkpt>
      <trkpt lat="69.66113" lon="18.93938">
        <ele>140.86312</ele>
        <time>2020-08-26T15:16:44.727Z</time>
      </trkpt>
      <trkpt lat="69.66114" lon="18.93971">
        <ele>140.529079</ele>
        <time>2020-08-26T15:16:48.753Z</time>
      </trkpt>
      <trkpt lat="69.66112" lon="18.94002">
        <ele>140.219026</ele>
        <time>2020-08-26T15:16:51.754Z</time>
      </trkpt>
      <trkpt lat="69.6611" lon="18.94035">
        <ele>140.251982</ele>
        <time>2020-08-26T15:16:54.712Z</time>
      </trkpt>
      <trkpt lat="69.66105" lon="18.94069">
        <ele>140.637952</ele>
        <time>2020-08-26T15:16:57.731Z</time>
      </trkpt>
      <trkpt lat="69.66098" lon="18.94102">
        <ele>141.039489</ele>
        <time>2020-08-26T15:17:00.713Z</time>
      </trkpt>
      <trkpt lat="69.66091" lon="18.94133">
        <ele>141.433534</ele>
        <time>2020-08-26T15:17:03.741Z</time>
      </trkpt>
      <trkpt lat="69.66085" lon="18.9416">
        <ele>141.780108</ele>
        <time>2020-08-26T15:17:06.714Z</time>
      </trkpt>
      <trkpt lat="69.66078" lon="18.94189">
        <ele>142.154749</ele>
        <time>2020-08-26T15:17:09.723Z</time>
      </trkpt>
      <trkpt lat="69.6607" lon="18.94217">
        <ele>142.528328</ele>
        <time>2020-08-26T15:17:12.724Z</time>
      </trkpt>
      <trkpt lat="69.66055" lon="18.94255">
        <ele>143.145365</ele>
        <time>2020-08-26T15:19:20.748Z</time>
      </trkpt>
      <trkpt lat="69.66048" lon="18.9428">
        <ele>143.482171</ele>
        <time>2020-08-26T15:19:24.724Z</time>
      </trkpt>
      <trkpt lat="69.66042" lon="18.94305">
        <ele>143.815867</ele>
        <time>2020-08-26T15:19:28.737Z</time>
      </trkpt>
      <trkpt lat="69.66035" lon="18.94329">
        <ele>144.136437</ele>
        <time>2020-08-26T15:19:32.744Z</time>
      </trkpt>
      <trkpt lat="69.6603" lon="18.94354">
        <ele>144.44782</ele>
        <time>2020-08-26T15:19:36.736Z</time>
      </trkpt>
      <trkpt lat="69.66026" lon="18.94381">
        <ele>144.759517</ele>
        <time>2020-08-26T15:19:40.713Z</time>
      </trkpt>
      <trkpt lat="69.66021" lon="18.94411">
        <ele>145.113492</ele>
        <time>2020-08-26T15:19:44.707Z</time>
      </trkpt>
      <trkpt lat="69.66017" lon="18.94443">
        <ele>145.472032</ele>
        <time>2020-08-26T15:19:48.756Z</time>
      </trkpt>
      <trkpt lat="69.66013" lon="18.94469">
        <ele>145.592379</ele>
        <time>2020-08-26T15:19:51.717Z</time>
      </trkpt>
      <trkpt lat="69.66011" lon="18.94501">
        <ele>145.670312</ele>
        <time>2020-08-26T15:19:55.760Z</time>
      </trkpt>
      <trkpt lat="69.6601" lon="18.94529">
        <ele>145.736973</ele>
        <time>2020-08-26T15:19:59.732Z</time>
      </trkpt>
      <trkpt lat="69.66008" lon="18.9456">
        <ele>145.81111</ele>
        <time>2020-08-26T15:20:03.785Z</time>
      </trkpt>
      <trkpt lat="69.66008" lon="18.94588">
        <ele>145.875982</ele>
        <time>2020-08-26T15:20:07.735Z</time>
      </trkpt>
      <trkpt lat="69.66007" lon="18.94615">
        <ele>145.941378</ele>
        <time>2020-08-26T15:20:12.737Z</time>
      </trkpt>
      <trkpt lat="69.66007" lon="18.94644">
        <ele>146.010565</ele>
        <time>2020-08-26T15:20:17.727Z</time>
      </trkpt>
      <trkpt lat="69.66014" lon="18.94669">
        <ele>146.087479</ele>
        <time>2020-08-26T15:20:22.726Z</time>
      </trkpt>
      <trkpt lat="69.66026" lon="18.94679">
        <ele>146.171247</ele>
        <time>2020-08-26T15:20:26.752Z</time>
      </trkpt>
      <trkpt lat="69.66036" lon="18.94686">
        <ele>146.240852</ele>
        <time>2020-08-26T15:20:28.721Z</time>
      </trkpt>
      <trkpt lat="69.66045" lon="18.94708">
        <ele>146.318558</ele>
        <time>2020-08-26T15:20:30.737Z</time>
      </trkpt>
      <trkpt lat="69.6605" lon="18.94732">
        <ele>146.385272</ele>
        <time>2020-08-26T15:20:32.716Z</time>
      </trkpt>
      <trkpt lat="69.66056" lon="18.9476">
        <ele>146.462297</ele>
        <time>2020-08-26T15:20:35.731Z</time>
      </trkpt>
      <trkpt lat="69.66062" lon="18.94782">
        <ele>146.52907</ele>
        <time>2020-08-26T15:20:38.735Z</time>
      </trkpt>
      <trkpt lat="69.66069" lon="18.94808">
        <ele>146.60817</ele>
        <time>2020-08-26T15:20:42.704Z</time>
      </trkpt>
      <trkpt lat="69.66075" lon="18.94832">
        <ele>146.67829</ele>
        <time>2020-08-26T15:20:46.720Z</time>
      </trkpt>
      <trkpt lat="69.6608" lon="18.94854">
        <ele>146.741714</ele>
        <time>2020-08-26T15:20:50.727Z</time>
      </trkpt>
      <trkpt lat="69.66086" lon="18.94877">
        <ele>147.45125</ele>
        <time>2020-08-26T15:20:55.764Z</time>
      </trkpt>
      <trkpt lat="69.66092" lon="18.94902">
        <ele>148.563739</ele>
        <time>2020-08-26T15:21:02.757Z</time>
      </trkpt>
      <trkpt lat="69.66097" lon="18.94924">
        <ele>149.534901</ele>
        <time>2020-08-26T15:21:08.736Z</time>
      </trkpt>
      <trkpt lat="69.66103" lon="18.94947">
        <ele>150.562218</ele>
        <time>2020-08-26T15:21:16.724Z</time>
      </trkpt>
      <trkpt lat="69.66109" lon="18.94969">
        <ele>151.618229</ele>
        <time>2020-08-26T15:21:25.738Z</time>
      </trkpt>
      <trkpt lat="69.66114" lon="18.94996">
        <ele>152.714507</ele>
        <time>2020-08-26T15:21:34.715Z</time>
      </trkpt>
      <trkpt lat="69.66119" lon="18.9502">
        <ele>153.782037</ele>
        <time>2020-08-26T15:21:41.723Z</time>
      </trkpt>
      <trkpt lat="69.66127" lon="18.95038">
        <ele>154.8378</ele>
        <time>2020-08-26T15:21:46.713Z</time>
      </trkpt>
      <trkpt lat="69.66134" lon="18.95053">
        <ele>155.799301</ele>
        <time>2020-08-26T15:21:53.720Z</time>
      </trkpt>
      <trkpt lat="69.66142" lon="18.9507">
        <ele>156.807079</ele>
        <time>2020-08-26T15:22:01.720Z</time>
      </trkpt>
      <trkpt lat="69.66149" lon="18.95089">
        <ele>157.858433</ele>
        <time>2020-08-26T15:22:08.741Z</time>
      </trkpt>
      <trkpt lat="69.66155" lon="18.95109">
        <ele>158.857284</ele>
        <time>2020-08-26T15:22:14.733Z</time>
      </trkpt>
      <trkpt lat="69.66163" lon="18.95128">
        <ele>159.935578</ele>
        <time>2020-08-26T15:22:23.759Z</time>
      </trkpt>
      <trkpt lat="69.6617" lon="18.95143">
        <ele>160.897767</ele>
        <time>2020-08-26T15:22:29.753Z</time>
      </trkpt>
      <trkpt lat="69.66177" lon="18.95162">
        <ele>161.88486</ele>
        <time>2020-08-26T15:22:35.721Z</time>
      </trkpt>
      <trkpt lat="69.66184" lon="18.95179">
        <ele>162.907005</ele>
        <time>2020-08-26T15:22:40.761Z</time>
      </trkpt>
      <trkpt lat="69.66192" lon="18.952">
        <ele>164.025836</ele>
        <time>2020-08-26T15:22:46.770Z</time>
      </trkpt>
      <trkpt lat="69.662" lon="18.9522">
        <ele>165.160121</ele>
        <time>2020-08-26T15:22:52.754Z</time>
      </trkpt>
      <trkpt lat="69.66207" lon="18.95236">
        <ele>165.825344</ele>
        <time>2020-08-26T15:22:57.747Z</time>
      </trkpt>
      <trkpt lat="69.66214" lon="18.95256">
        <ele>165.679734</ele>
        <time>2020-08-26T15:23:02.724Z</time>
      </trkpt>
      <trkpt lat="69.66221" lon="18.95275">
        <ele>165.530022</ele>
        <time>2020-08-26T15:23:07.730Z</time>
      </trkpt>
      <trkpt lat="69.66227" lon="18.95295">
        <ele>165.386856</ele>
        <time>2020-08-26T15:23:12.723Z</time>
      </trkpt>
      <trkpt lat="69.66234" lon="18.95318">
        <ele>165.222582</ele>
        <time>2020-08-26T15:23:17.726Z</time>
      </trkpt>
      <trkpt lat="69.66241" lon="18.95336">
        <ele>165.082774</ele>
        <time>2020-08-26T15:23:21.735Z</time>
      </trkpt>
      <trkpt lat="69.66247" lon="18.95363">
        <ele>164.913494</ele>
        <time>2020-08-26T15:23:26.721Z</time>
      </trkpt>
      <trkpt lat="69.66254" lon="18.95387">
        <ele>164.744128</ele>
        <time>2020-08-26T15:23:30.738Z</time>
      </trkpt>
      <trkpt lat="69.66263" lon="18.95407">
        <ele>164.565206</ele>
        <time>2020-08-26T15:23:34.712Z</time>
      </trkpt>
      <trkpt lat="69.66273" lon="18.95421">
        <ele>164.401428</ele>
        <time>2020-08-26T15:23:37.730Z</time>
      </trkpt>
      <trkpt lat="69.66286" lon="18.95434">
        <ele>164.195716</ele>
        <time>2020-08-26T15:23:40.745Z</time>
      </trkpt>
      <trkpt lat="69.66295" lon="18.95442">
        <ele>164.045467</ele>
        <time>2020-08-26T15:23:42.713Z</time>
      </trkpt>
      <trkpt lat="69.66306" lon="18.9545">
        <ele>163.878982</ele>
        <time>2020-08-26T15:23:45.742Z</time>
      </trkpt>
      <trkpt lat="69.66316" lon="18.95459">
        <ele>163.718062</ele>
        <time>2020-08-26T15:23:48.718Z</time>
      </trkpt>
      <trkpt lat="69.66328" lon="18.95469">
        <ele>163.527578</ele>
        <time>2020-08-26T15:23:51.737Z</time>
      </trkpt>
      <trkpt lat="69.66338" lon="18.95476">
        <ele>163.364596</ele>
        <time>2020-08-26T15:23:54.718Z</time>
      </trkpt>
      <trkpt lat="69.66349" lon="18.95485">
        <ele>163.19417</ele>
        <time>2020-08-26T15:23:57.724Z</time>
      </trkpt>
      <trkpt lat="69.66359" lon="18.95491">
        <ele>162.437469</ele>
        <time>2020-08-26T15:24:00.736Z</time>
      </trkpt>
      <trkpt lat="69.66369" lon="18.95497">
        <ele>160.910427</ele>
        <time>2020-08-26T15:24:03.721Z</time>
      </trkpt>
      <trkpt lat="69.66381" lon="18.95504">
        <ele>159.205031</ele>
        <time>2020-08-26T15:24:06.731Z</time>
      </trkpt>
      <trkpt lat="69.66392" lon="18.9551">
        <ele>157.532759</ele>
        <time>2020-08-26T15:24:09.746Z</time>
      </trkpt>
      <trkpt lat="69.66403" lon="18.95518">
        <ele>155.940157</ele>
        <time>2020-08-26T15:24:12.740Z</time>
      </trkpt>
      <trkpt lat="69.66414" lon="18.95525">
        <ele>154.282454</ele>
        <time>2020-08-26T15:24:15.755Z</time>
      </trkpt>
      <trkpt lat="69.66426" lon="18.95533">
        <ele>152.512384</ele>
        <time>2020-08-26T15:24:18.760Z</time>
      </trkpt>
      <trkpt lat="69.66435" lon="18.95542">
        <ele>151.166986</ele>
        <time>2020-08-26T15:24:21.744Z</time>
      </trkpt>
      <trkpt lat="69.66446" lon="18.95556">
        <ele>149.386647</ele>
        <time>2020-08-26T15:24:24.734Z</time>
      </trkpt>
      <trkpt lat="69.66455" lon="18.95562">
        <ele>148.047116</ele>
        <time>2020-08-26T15:24:26.762Z</time>
      </trkpt>
      <trkpt lat="69.66468" lon="18.95574">
        <ele>146.142396</ele>
        <time>2020-08-26T15:24:29.725Z</time>
      </trkpt>
      <trkpt lat="69.66477" lon="18.95586">
        <ele>144.710623</ele>
        <time>2020-08-26T15:24:31.777Z</time>
      </trkpt>
      <trkpt lat="69.66485" lon="18.95595">
        <ele>143.407591</ele>
        <time>2020-08-26T15:24:33.756Z</time>
      </trkpt>
      <trkpt lat="69.66494" lon="18.95604">
        <ele>142.101101</ele>
        <time>2020-08-26T15:24:35.730Z</time>
      </trkpt>
      <trkpt lat="69.66504" lon="18.95616">
        <ele>140.58595</ele>
        <time>2020-08-26T15:24:37.762Z</time>
      </trkpt>
      <trkpt lat="69.66514" lon="18.95626">
        <ele>139.042301</ele>
        <time>2020-08-26T15:24:39.723Z</time>
      </trkpt>
      <trkpt lat="69.66523" lon="18.95635">
        <ele>137.601496</ele>
        <time>2020-08-26T15:24:41.744Z</time>
      </trkpt>
      <trkpt lat="69.66533" lon="18.95642">
        <ele>137.195066</ele>
        <time>2020-08-26T15:24:43.741Z</time>
      </trkpt>
      <trkpt lat="69.66543" lon="18.9565">
        <ele>137.195066</ele>
        <time>2020-08-26T15:24:45.742Z</time>
      </trkpt>
      <trkpt lat="69.66552" lon="18.95657">
        <ele>137.195066</ele>
        <time>2020-08-26T15:24:47.723Z</time>
      </trkpt>
      <trkpt lat="69.66562" lon="18.9568">
        <ele>137.195066</ele>
        <time>2020-08-26T15:24:50.709Z</time>
      </trkpt>
      <trkpt lat="69.66563" lon="18.95715">
        <ele>137.195066</ele>
        <time>2020-08-26T15:24:53.759Z</time>
      </trkpt>
      <trkpt lat="69.6656" lon="18.95749">
        <ele>137.195066</ele>
        <time>2020-08-26T15:24:56.727Z</time>
      </trkpt>
      <trkpt lat="69.66558" lon="18.95783">
        <ele>137.195066</ele>
        <time>2020-08-26T15:24:59.769Z</time>
      </trkpt>
      <trkpt lat="69.66557" lon="18.95811">
        <ele>137.195066</ele>
        <time>2020-08-26T15:25:02.755Z</time>
      </trkpt>
      <trkpt lat="69.66554" lon="18.95841">
        <ele>137.195066</ele>
        <time>2020-08-26T15:25:05.748Z</time>
      </trkpt>
      <trkpt lat="69.66549" lon="18.95876">
        <ele>137.195066</ele>
        <time>2020-08-26T15:25:08.751Z</time>
      </trkpt>
      <trkpt lat="69.6654" lon="18.95893">
        <ele>137.195066</ele>
        <time>2020-08-26T15:25:10.708Z</time>
      </trkpt>
      <trkpt lat="69.6653" lon="18.9589">
        <ele>137.195066</ele>
        <time>2020-08-26T15:25:12.729Z</time>
      </trkpt>
      <trkpt lat="69.66519" lon="18.95877">
        <ele>137.195066</ele>
        <time>2020-08-26T15:25:15.779Z</time>
      </trkpt>
      <trkpt lat="69.66509" lon="18.95867">
        <ele>137.195066</ele>
        <time>2020-08-26T15:25:19.736Z</time>
      </trkpt>
      <trkpt lat="69.66499" lon="18.95862">
        <ele>137.195066</ele>
        <time>2020-08-26T15:25:23.768Z</time>
      </trkpt>
      <trkpt lat="69.6649" lon="18.95852">
        <ele>137.195066</ele>
        <time>2020-08-26T15:25:28.715Z</time>
      </trkpt>
      <trkpt lat="69.66481" lon="18.95855">
        <ele>137.195066</ele>
        <time>2020-08-26T15:25:33.716Z</time>
      </trkpt>
      <trkpt lat="69.66478" lon="18.95858">
        <ele>137.195066</ele>
        <time>2020-08-26T15:26:16.016Z</time>
      </trkpt>
    </trkseg>
  </trk>
</gpx>